<?xml version='1.0' encoding='UTF-8'?><gpx version="1.1" creator="JPX - https://github.com/jenetics/jpx" xmlns="http://www.topografix.com/GPX/1/1"><trk><trkseg><trkpt lat="37.8885067" lon="13.41854"><ele>626.0</ele><time>2026-05-05T07:01:08.564Z</time></trkpt><trkpt lat="37.8885083" lon="13.4184167"><ele>626.0</ele><time>2026-05-05T07:01:11.564Z</time></trkpt><trkpt lat="37.88853" lon="13.4183117"><ele>626.0</ele><time>2026-05-05T07:01:13.564Z</time></trkpt><trkpt lat="37.88855" lon="13.418215"><ele>626.0</ele><time>2026-05-05T07:01:15.565Z</time></trkpt><trkpt lat="37.88856" lon="13.418125"><ele>626.0</ele><time>2026-05-05T07:01:17.565Z</time></trkpt><trkpt lat="37.888525" lon="13.418055"><ele>626.0</ele><time>2026-05-05T07:01:19.564Z</time></trkpt><trkpt lat="37.8884583" lon="13.4180467"><ele>624.2</ele><time>2026-05-05T07:01:21.564Z</time></trkpt><trkpt lat="37.8883633" lon="13.4180667"><ele>622.4000000000001</ele><time>2026-05-05T07:01:24.564Z</time></trkpt><trkpt lat="37.88828" lon="13.4180817"><ele>620.6</ele><time>2026-05-05T07:01:26.564Z</time></trkpt><trkpt lat="37.8881917" lon="13.418125"><ele>618.8000000000001</ele><time>2026-05-05T07:01:28.565Z</time></trkpt><trkpt lat="37.88811" lon="13.4182067"><ele>617.0</ele><time>2026-05-05T07:01:30.564Z</time></trkpt><trkpt lat="37.8880467" lon="13.4182933"><ele>617.0</ele><time>2026-05-05T07:01:32.565Z</time></trkpt><trkpt lat="37.8879817" lon="13.4183567"><ele>617.0</ele><time>2026-05-05T07:01:34.565Z</time></trkpt><trkpt lat="37.8879033" lon="13.4183833"><ele>617.0</ele><time>2026-05-05T07:01:36.564Z</time></trkpt><trkpt lat="37.8878267" lon="13.4183517"><ele>617.0</ele><time>2026-05-05T07:01:38.565Z</time></trkpt><trkpt lat="37.8877517" lon="13.41826"><ele>617.0</ele><time>2026-05-05T07:01:40.563Z</time></trkpt><trkpt lat="37.88768" lon="13.4181717"><ele>617.0</ele><time>2026-05-05T07:01:42.565Z</time></trkpt><trkpt lat="37.8876167" lon="13.4180683"><ele>616.8000000000001</ele><time>2026-05-05T07:01:44.565Z</time></trkpt><trkpt lat="37.8875633" lon="13.417935"><ele>616.6</ele><time>2026-05-05T07:01:46.567Z</time></trkpt><trkpt lat="37.88753" lon="13.417805"><ele>616.4000000000001</ele><time>2026-05-05T07:01:48.565Z</time></trkpt><trkpt lat="37.8875167" lon="13.4177083"><ele>616.2</ele><time>2026-05-05T07:01:50.565Z</time></trkpt><trkpt lat="37.8875067" lon="13.4176067"><ele>616.0</ele><time>2026-05-05T07:01:52.564Z</time></trkpt><trkpt lat="37.8874983" lon="13.4174967"><ele>616.0</ele><time>2026-05-05T07:01:54.564Z</time></trkpt><trkpt lat="37.8874883" lon="13.4173767"><ele>616.0</ele><time>2026-05-05T07:01:56.564Z</time></trkpt><trkpt lat="37.887485" lon="13.4172667"><ele>616.0</ele><time>2026-05-05T07:01:58.564Z</time></trkpt><trkpt lat="37.8874917" lon="13.4171717"><ele>616.0</ele><time>2026-05-05T07:02:00.564Z</time></trkpt><trkpt lat="37.8875067" lon="13.4170883"><ele>616.0</ele><time>2026-05-05T07:02:03.564Z</time></trkpt><trkpt lat="37.8875083" lon="13.4169967"><ele>616.0</ele><time>2026-05-05T07:02:12.563Z</time></trkpt><trkpt lat="37.8875067" lon="13.4169167"><ele>616.1666666666667</ele><time>2026-05-05T07:02:14.565Z</time></trkpt><trkpt lat="37.8875217" lon="13.4168167"><ele>616.3333333333334</ele><time>2026-05-05T07:02:17.563Z</time></trkpt><trkpt lat="37.8875233" lon="13.416735"><ele>616.5</ele><time>2026-05-05T07:02:21.564Z</time></trkpt><trkpt lat="37.88754" lon="13.4166533"><ele>616.6666666666666</ele><time>2026-05-05T07:03:08.566Z</time></trkpt><trkpt lat="37.8875233" lon="13.4165533"><ele>616.8333333333333</ele><time>2026-05-05T07:03:10.563Z</time></trkpt><trkpt lat="37.887485" lon="13.4164417"><ele>617.0</ele><time>2026-05-05T07:03:12.564Z</time></trkpt><trkpt lat="37.8874233" lon="13.4163083"><ele>617.5</ele><time>2026-05-05T07:03:14.565Z</time></trkpt><trkpt lat="37.8873883" lon="13.41623"><ele>618.0</ele><time>2026-05-05T07:03:15.564Z</time></trkpt><trkpt lat="37.8873517" lon="13.416145"><ele>618.5</ele><time>2026-05-05T07:03:16.565Z</time></trkpt><trkpt lat="37.8873133" lon="13.41605"><ele>619.0</ele><time>2026-05-05T07:03:17.564Z</time></trkpt><trkpt lat="37.8872767" lon="13.4159533"><ele>619.5</ele><time>2026-05-05T07:03:18.563Z</time></trkpt><trkpt lat="37.88724" lon="13.4158617"><ele>620.0</ele><time>2026-05-05T07:03:19.563Z</time></trkpt><trkpt lat="37.887215" lon="13.4157867"><ele>620.0</ele><time>2026-05-05T07:03:20.565Z</time></trkpt><trkpt lat="37.8872217" lon="13.4156783"><ele>620.0</ele><time>2026-05-05T07:03:22.564Z</time></trkpt><trkpt lat="37.887325" lon="13.415615"><ele>620.0</ele><time>2026-05-05T07:03:24.564Z</time></trkpt><trkpt lat="37.8874017" lon="13.41559"><ele>620.0</ele><time>2026-05-05T07:03:25.564Z</time></trkpt><trkpt lat="37.88748" lon="13.4155583"><ele>620.0</ele><time>2026-05-05T07:03:26.565Z</time></trkpt><trkpt lat="37.88756" lon="13.41553"><ele>620.0</ele><time>2026-05-05T07:03:27.564Z</time></trkpt><trkpt lat="37.8876383" lon="13.4155067"><ele>621.1666666666666</ele><time>2026-05-05T07:03:28.564Z</time></trkpt><trkpt lat="37.8877183" lon="13.41549"><ele>622.3333333333333</ele><time>2026-05-05T07:03:29.565Z</time></trkpt><trkpt lat="37.8878" lon="13.41548"><ele>623.5</ele><time>2026-05-05T07:03:30.563Z</time></trkpt><trkpt lat="37.8878783" lon="13.4154717"><ele>624.6666666666666</ele><time>2026-05-05T07:03:31.564Z</time></trkpt><trkpt lat="37.887955" lon="13.415455"><ele>625.8333333333334</ele><time>2026-05-05T07:03:32.565Z</time></trkpt><trkpt lat="37.8880283" lon="13.4154317"><ele>627.0</ele><time>2026-05-05T07:03:33.564Z</time></trkpt><trkpt lat="37.88813" lon="13.4153733"><ele>628.1666666666666</ele><time>2026-05-05T07:03:35.564Z</time></trkpt><trkpt lat="37.8882267" lon="13.4152933"><ele>629.3333333333334</ele><time>2026-05-05T07:03:37.564Z</time></trkpt><trkpt lat="37.88828" lon="13.41524"><ele>630.5</ele><time>2026-05-05T07:03:38.565Z</time></trkpt><trkpt lat="37.8883433" lon="13.4151883"><ele>631.6666666666667</ele><time>2026-05-05T07:03:39.564Z</time></trkpt><trkpt lat="37.888405" lon="13.4151433"><ele>632.8333333333334</ele><time>2026-05-05T07:03:40.563Z</time></trkpt><trkpt lat="37.8885067" lon="13.415065"><ele>634.0</ele><time>2026-05-05T07:03:42.564Z</time></trkpt><trkpt lat="37.8886133" lon="13.41498"><ele>635.0</ele><time>2026-05-05T07:03:44.565Z</time></trkpt><trkpt lat="37.888675" lon="13.4149417"><ele>636.0</ele><time>2026-05-05T07:03:45.565Z</time></trkpt><trkpt lat="37.8887417" lon="13.4149133"><ele>637.0</ele><time>2026-05-05T07:03:46.564Z</time></trkpt><trkpt lat="37.8888067" lon="13.4148967"><ele>638.0</ele><time>2026-05-05T07:03:47.564Z</time></trkpt><trkpt lat="37.8889217" lon="13.4149383"><ele>639.0</ele><time>2026-05-05T07:03:49.565Z</time></trkpt><trkpt lat="37.8889667" lon="13.415"><ele>640.0</ele><time>2026-05-05T07:03:50.565Z</time></trkpt><trkpt lat="37.8890083" lon="13.4150833"><ele>640.0</ele><time>2026-05-05T07:03:51.563Z</time></trkpt><trkpt lat="37.889045" lon="13.4151917"><ele>640.0</ele><time>2026-05-05T07:03:52.565Z</time></trkpt><trkpt lat="37.8890817" lon="13.415315"><ele>640.0</ele><time>2026-05-05T07:03:53.566Z</time></trkpt><trkpt lat="37.8891217" lon="13.415465"><ele>640.0</ele><time>2026-05-05T07:03:54.565Z</time></trkpt><trkpt lat="37.889165" lon="13.4156133"><ele>640.0</ele><time>2026-05-05T07:03:55.565Z</time></trkpt><trkpt lat="37.8892117" lon="13.4157717"><ele>643.0</ele><time>2026-05-05T07:03:56.565Z</time></trkpt><trkpt lat="37.889265" lon="13.4159233"><ele>646.0</ele><time>2026-05-05T07:03:57.563Z</time></trkpt><trkpt lat="37.8893317" lon="13.4160567"><ele>649.0</ele><time>2026-05-05T07:03:58.565Z</time></trkpt><trkpt lat="37.8894183" lon="13.4161633"><ele>652.0</ele><time>2026-05-05T07:03:59.564Z</time></trkpt><trkpt lat="37.8895233" lon="13.4162367"><ele>652.0</ele><time>2026-05-05T07:04:00.563Z</time></trkpt><trkpt lat="37.88964" lon="13.41629"><ele>652.0</ele><time>2026-05-05T07:04:01.565Z</time></trkpt><trkpt lat="37.8897667" lon="13.4163317"><ele>652.0</ele><time>2026-05-05T07:04:02.564Z</time></trkpt><trkpt lat="37.889895" lon="13.41637"><ele>652.0</ele><time>2026-05-05T07:04:03.57Z</time></trkpt><trkpt lat="37.8900233" lon="13.416405"><ele>652.8</ele><time>2026-05-05T07:04:04.565Z</time></trkpt><trkpt lat="37.8901383" lon="13.41644"><ele>653.6</ele><time>2026-05-05T07:04:05.565Z</time></trkpt><trkpt lat="37.890235" lon="13.4164717"><ele>654.4</ele><time>2026-05-05T07:04:06.564Z</time></trkpt><trkpt lat="37.8903183" lon="13.416495"><ele>655.1999999999999</ele><time>2026-05-05T07:04:07.565Z</time></trkpt><trkpt lat="37.8903933" lon="13.416515"><ele>656.0</ele><time>2026-05-05T07:04:08.565Z</time></trkpt><trkpt lat="37.8904617" lon="13.41654"><ele>656.0</ele><time>2026-05-05T07:04:09.566Z</time></trkpt><trkpt lat="37.8905383" lon="13.41657"><ele>656.0</ele><time>2026-05-05T07:04:10.565Z</time></trkpt><trkpt lat="37.8906133" lon="13.4166033"><ele>656.0</ele><time>2026-05-05T07:04:11.564Z</time></trkpt><trkpt lat="37.8906917" lon="13.4166467"><ele>656.0</ele><time>2026-05-05T07:04:12.564Z</time></trkpt><trkpt lat="37.8907717" lon="13.4167117"><ele>656.0</ele><time>2026-05-05T07:04:13.565Z</time></trkpt><trkpt lat="37.8908533" lon="13.4167933"><ele>656.0</ele><time>2026-05-05T07:04:14.564Z</time></trkpt><trkpt lat="37.8909367" lon="13.4168917"><ele>659.25</ele><time>2026-05-05T07:04:15.565Z</time></trkpt><trkpt lat="37.89101" lon="13.4169983"><ele>662.5</ele><time>2026-05-05T07:04:16.563Z</time></trkpt><trkpt lat="37.8910767" lon="13.41712"><ele>665.75</ele><time>2026-05-05T07:04:17.563Z</time></trkpt><trkpt lat="37.8911267" lon="13.4172583"><ele>669.0</ele><time>2026-05-05T07:04:18.564Z</time></trkpt><trkpt lat="37.8911683" lon="13.4174117"><ele>669.0</ele><time>2026-05-05T07:04:19.564Z</time></trkpt><trkpt lat="37.8912033" lon="13.4175717"><ele>669.0</ele><time>2026-05-05T07:04:20.565Z</time></trkpt><trkpt lat="37.8912417" lon="13.41774"><ele>669.0</ele><time>2026-05-05T07:04:21.564Z</time></trkpt><trkpt lat="37.8912883" lon="13.4179133"><ele>669.0</ele><time>2026-05-05T07:04:22.565Z</time></trkpt><trkpt lat="37.8913517" lon="13.4180683"><ele>668.2</ele><time>2026-05-05T07:04:23.565Z</time></trkpt><trkpt lat="37.8914283" lon="13.4181967"><ele>667.4000000000001</ele><time>2026-05-05T07:04:24.565Z</time></trkpt><trkpt lat="37.8915017" lon="13.4183083"><ele>666.6</ele><time>2026-05-05T07:04:25.565Z</time></trkpt><trkpt lat="37.8915683" lon="13.4184117"><ele>665.8</ele><time>2026-05-05T07:04:26.565Z</time></trkpt><trkpt lat="37.891635" lon="13.4185067"><ele>665.0</ele><time>2026-05-05T07:04:27.565Z</time></trkpt><trkpt lat="37.8916983" lon="13.4186017"><ele>664.25</ele><time>2026-05-05T07:04:28.564Z</time></trkpt><trkpt lat="37.8917683" lon="13.418705"><ele>663.5</ele><time>2026-05-05T07:04:29.564Z</time></trkpt><trkpt lat="37.8918433" lon="13.4188133"><ele>662.75</ele><time>2026-05-05T07:04:30.564Z</time></trkpt><trkpt lat="37.8919267" lon="13.418915"><ele>662.0</ele><time>2026-05-05T07:04:31.564Z</time></trkpt><trkpt lat="37.8920233" lon="13.4190033"><ele>662.0</ele><time>2026-05-05T07:04:32.565Z</time></trkpt><trkpt lat="37.89213" lon="13.41908"><ele>662.0</ele><time>2026-05-05T07:04:33.563Z</time></trkpt><trkpt lat="37.8922433" lon="13.41915"><ele>662.0</ele><time>2026-05-05T07:04:34.565Z</time></trkpt><trkpt lat="37.8923667" lon="13.41922"><ele>662.0</ele><time>2026-05-05T07:04:35.564Z</time></trkpt><trkpt lat="37.89249" lon="13.4192967"><ele>662.0</ele><time>2026-05-05T07:04:36.565Z</time></trkpt><trkpt lat="37.8926083" lon="13.4193833"><ele>662.0</ele><time>2026-05-05T07:04:37.568Z</time></trkpt><trkpt lat="37.89272" lon="13.41949"><ele>662.0</ele><time>2026-05-05T07:04:38.565Z</time></trkpt><trkpt lat="37.8928283" lon="13.4195967"><ele>662.0</ele><time>2026-05-05T07:04:39.564Z</time></trkpt><trkpt lat="37.8929367" lon="13.4197"><ele>662.0</ele><time>2026-05-05T07:04:40.564Z</time></trkpt><trkpt lat="37.8930467" lon="13.4197933"><ele>662.0</ele><time>2026-05-05T07:04:41.565Z</time></trkpt><trkpt lat="37.8931533" lon="13.41989"><ele>662.0</ele><time>2026-05-05T07:04:42.563Z</time></trkpt><trkpt lat="37.8932583" lon="13.4199983"><ele>662.0</ele><time>2026-05-05T07:04:43.565Z</time></trkpt><trkpt lat="37.89336" lon="13.42011"><ele>661.0</ele><time>2026-05-05T07:04:44.564Z</time></trkpt><trkpt lat="37.8934617" lon="13.420225"><ele>660.0</ele><time>2026-05-05T07:04:45.564Z</time></trkpt><trkpt lat="37.8935617" lon="13.4203383"><ele>659.0</ele><time>2026-05-05T07:04:46.565Z</time></trkpt><trkpt lat="37.89366" lon="13.4204383"><ele>658.0</ele><time>2026-05-05T07:04:47.565Z</time></trkpt><trkpt lat="37.8937583" lon="13.4205333"><ele>658.0</ele><time>2026-05-05T07:04:48.563Z</time></trkpt><trkpt lat="37.8938583" lon="13.4206317"><ele>658.0</ele><time>2026-05-05T07:04:49.565Z</time></trkpt><trkpt lat="37.89396" lon="13.4207333"><ele>658.0</ele><time>2026-05-05T07:04:50.565Z</time></trkpt><trkpt lat="37.894065" lon="13.420825"><ele>658.0</ele><time>2026-05-05T07:04:51.565Z</time></trkpt><trkpt lat="37.894165" lon="13.420905"><ele>658.0</ele><time>2026-05-05T07:04:52.566Z</time></trkpt><trkpt lat="37.8942533" lon="13.4209717"><ele>658.0</ele><time>2026-05-05T07:04:53.566Z</time></trkpt><trkpt lat="37.8943267" lon="13.4210267"><ele>658.0</ele><time>2026-05-05T07:04:54.57Z</time></trkpt><trkpt lat="37.89439" lon="13.421075"><ele>658.0</ele><time>2026-05-05T07:04:55.565Z</time></trkpt><trkpt lat="37.8944467" lon="13.4211233"><ele>658.0</ele><time>2026-05-05T07:04:56.567Z</time></trkpt><trkpt lat="37.89453" lon="13.421225"><ele>658.0</ele><time>2026-05-05T07:04:58.565Z</time></trkpt><trkpt lat="37.8945917" lon="13.4212967"><ele>659.3333333333334</ele><time>2026-05-05T07:05:00.566Z</time></trkpt><trkpt lat="37.8946583" lon="13.42126"><ele>660.6666666666667</ele><time>2026-05-05T07:05:02.565Z</time></trkpt><trkpt lat="37.8947183" lon="13.42117"><ele>662.0</ele><time>2026-05-05T07:05:04.565Z</time></trkpt><trkpt lat="37.8947867" lon="13.4210767"><ele>663.3333333333334</ele><time>2026-05-05T07:05:06.564Z</time></trkpt><trkpt lat="37.8948183" lon="13.4209917"><ele>664.6666666666666</ele><time>2026-05-05T07:05:08.564Z</time></trkpt><trkpt lat="37.8947783" lon="13.42091"><ele>666.0</ele><time>2026-05-05T07:05:10.566Z</time></trkpt><trkpt lat="37.8947133" lon="13.4208333"><ele>666.0</ele><time>2026-05-05T07:05:12.565Z</time></trkpt><trkpt lat="37.89463" lon="13.4207633"><ele>666.0</ele><time>2026-05-05T07:05:14.565Z</time></trkpt><trkpt lat="37.894525" lon="13.4206983"><ele>666.0</ele><time>2026-05-05T07:05:16.564Z</time></trkpt><trkpt lat="37.894405" lon="13.42065"><ele>666.0</ele><time>2026-05-05T07:05:18.563Z</time></trkpt><trkpt lat="37.894335" lon="13.42062"><ele>666.0</ele><time>2026-05-05T07:05:19.565Z</time></trkpt><trkpt lat="37.8942633" lon="13.420585"><ele>667.0</ele><time>2026-05-05T07:05:20.564Z</time></trkpt><trkpt lat="37.894195" lon="13.4205467"><ele>668.0</ele><time>2026-05-05T07:05:21.564Z</time></trkpt><trkpt lat="37.89409" lon="13.42048"><ele>669.0</ele><time>2026-05-05T07:05:23.566Z</time></trkpt><trkpt lat="37.8939933" lon="13.4203917"><ele>670.0</ele><time>2026-05-05T07:05:25.565Z</time></trkpt><trkpt lat="37.893945" lon="13.4203317"><ele>671.0</ele><time>2026-05-05T07:05:26.564Z</time></trkpt><trkpt lat="37.8939" lon="13.4202683"><ele>672.0</ele><time>2026-05-05T07:05:27.564Z</time></trkpt><trkpt lat="37.8938533" lon="13.4202067"><ele>672.0</ele><time>2026-05-05T07:05:28.564Z</time></trkpt><trkpt lat="37.8938067" lon="13.4201397"><ele>672.0</ele><time>2026-05-05T07:05:29.565Z</time></trkpt><trkpt lat="37.8937609" lon="13.4200687"><ele>672.0</ele><time>2026-05-05T07:05:30.566Z</time></trkpt><trkpt lat="37.893713" lon="13.4199935"><ele>672.0</ele><time>2026-05-05T07:05:31.564Z</time></trkpt><trkpt lat="37.8936658" lon="13.4199141"><ele>672.0</ele><time>2026-05-05T07:05:32.565Z</time></trkpt><trkpt lat="37.8936141" lon="13.4198334"><ele>672.0</ele><time>2026-05-05T07:05:33.562Z</time></trkpt><trkpt lat="37.8935592" lon="13.4197543"><ele>672.0</ele><time>2026-05-05T07:05:34.563Z</time></trkpt><trkpt lat="37.8935008" lon="13.4196745"><ele>672.0</ele><time>2026-05-05T07:05:35.564Z</time></trkpt><trkpt lat="37.8934421" lon="13.4195947"><ele>672.0</ele><time>2026-05-05T07:05:36.563Z</time></trkpt><trkpt lat="37.8933844" lon="13.4195115"><ele>672.0</ele><time>2026-05-05T07:05:37.565Z</time></trkpt><trkpt lat="37.8933213" lon="13.4194291"><ele>672.0</ele><time>2026-05-05T07:05:38.565Z</time></trkpt><trkpt lat="37.8932525" lon="13.4193456"><ele>672.0</ele><time>2026-05-05T07:05:39.563Z</time></trkpt><trkpt lat="37.8931819" lon="13.4192626"><ele>673.2</ele><time>2026-05-05T07:05:40.564Z</time></trkpt><trkpt lat="37.8931123" lon="13.4191734"><ele>674.4000000000001</ele><time>2026-05-05T07:05:41.563Z</time></trkpt><trkpt lat="37.8930376" lon="13.4190835"><ele>675.5999999999999</ele><time>2026-05-05T07:05:42.567Z</time></trkpt><trkpt lat="37.8929616" lon="13.4189971"><ele>676.8</ele><time>2026-05-05T07:05:43.564Z</time></trkpt><trkpt lat="37.8928866" lon="13.4189111"><ele>678.0</ele><time>2026-05-05T07:05:44.564Z</time></trkpt><trkpt lat="37.8928127" lon="13.4188191"><ele>677.5999999999999</ele><time>2026-05-05T07:05:45.564Z</time></trkpt><trkpt lat="37.8927385" lon="13.4187273"><ele>677.1999999999999</ele><time>2026-05-05T07:05:46.563Z</time></trkpt><trkpt lat="37.8926561" lon="13.4186401"><ele>676.8</ele><time>2026-05-05T07:05:47.563Z</time></trkpt><trkpt lat="37.8925682" lon="13.4185544"><ele>676.4</ele><time>2026-05-05T07:05:48.564Z</time></trkpt><trkpt lat="37.8924783" lon="13.4184696"><ele>676.0</ele><time>2026-05-05T07:05:49.566Z</time></trkpt><trkpt lat="37.8923904" lon="13.4183795"><ele>676.0</ele><time>2026-05-05T07:05:50.564Z</time></trkpt><trkpt lat="37.8923053" lon="13.4182827"><ele>676.0</ele><time>2026-05-05T07:05:51.565Z</time></trkpt><trkpt lat="37.8922176" lon="13.4181818"><ele>676.0</ele><time>2026-05-05T07:05:52.565Z</time></trkpt><trkpt lat="37.8921377" lon="13.4180856"><ele>676.0</ele><time>2026-05-05T07:05:53.566Z</time></trkpt><trkpt lat="37.8920723" lon="13.4179963"><ele>676.0</ele><time>2026-05-05T07:05:54.565Z</time></trkpt><trkpt lat="37.8920214" lon="13.4178981"><ele>677.5999999999999</ele><time>2026-05-05T07:05:55.563Z</time></trkpt><trkpt lat="37.8919776" lon="13.4177857"><ele>679.2</ele><time>2026-05-05T07:05:56.564Z</time></trkpt><trkpt lat="37.8919414" lon="13.4176663"><ele>680.8</ele><time>2026-05-05T07:05:57.564Z</time></trkpt><trkpt lat="37.891919" lon="13.4175346"><ele>682.4000000000001</ele><time>2026-05-05T07:05:58.564Z</time></trkpt><trkpt lat="37.8919079" lon="13.417401"><ele>684.0</ele><time>2026-05-05T07:05:59.564Z</time></trkpt><trkpt lat="37.8919031" lon="13.4172738"><ele>686.0</ele><time>2026-05-05T07:06:00.563Z</time></trkpt><trkpt lat="37.8919064" lon="13.417152"><ele>688.0</ele><time>2026-05-05T07:06:01.563Z</time></trkpt><trkpt lat="37.8919147" lon="13.4170239"><ele>690.0</ele><time>2026-05-05T07:06:02.564Z</time></trkpt><trkpt lat="37.8919184" lon="13.4168946"><ele>692.0</ele><time>2026-05-05T07:06:03.564Z</time></trkpt><trkpt lat="37.8919194" lon="13.4167677"><ele>694.0</ele><time>2026-05-05T07:06:04.564Z</time></trkpt><trkpt lat="37.8919152" lon="13.4166385"><ele>694.0</ele><time>2026-05-05T07:06:05.564Z</time></trkpt><trkpt lat="37.8919045" lon="13.416514"><ele>694.0</ele><time>2026-05-05T07:06:06.563Z</time></trkpt><trkpt lat="37.891893" lon="13.416399"><ele>694.0</ele><time>2026-05-05T07:06:07.564Z</time></trkpt><trkpt lat="37.8918869" lon="13.4162834"><ele>694.0</ele><time>2026-05-05T07:06:08.565Z</time></trkpt><trkpt lat="37.8918877" lon="13.4161615"><ele>694.0</ele><time>2026-05-05T07:06:09.563Z</time></trkpt><trkpt lat="37.8918996" lon="13.4160363"><ele>694.2</ele><time>2026-05-05T07:06:10.563Z</time></trkpt><trkpt lat="37.8919216" lon="13.4159185"><ele>694.4000000000001</ele><time>2026-05-05T07:06:11.564Z</time></trkpt><trkpt lat="37.8919493" lon="13.4158097"><ele>694.6</ele><time>2026-05-05T07:06:12.568Z</time></trkpt><trkpt lat="37.8919875" lon="13.4157048"><ele>694.8</ele><time>2026-05-05T07:06:13.564Z</time></trkpt><trkpt lat="37.8920331" lon="13.415595"><ele>695.0</ele><time>2026-05-05T07:06:14.565Z</time></trkpt><trkpt lat="37.8920743" lon="13.4154772"><ele>695.0</ele><time>2026-05-05T07:06:15.564Z</time></trkpt><trkpt lat="37.8921146" lon="13.4153539"><ele>695.0</ele><time>2026-05-05T07:06:16.565Z</time></trkpt><trkpt lat="37.892156" lon="13.4152274"><ele>695.0</ele><time>2026-05-05T07:06:17.563Z</time></trkpt><trkpt lat="37.8921915" lon="13.4151042"><ele>695.0</ele><time>2026-05-05T07:06:18.564Z</time></trkpt><trkpt lat="37.8922133" lon="13.4149815"><ele>695.0</ele><time>2026-05-05T07:06:19.563Z</time></trkpt><trkpt lat="37.8922208" lon="13.4148534"><ele>695.0</ele><time>2026-05-05T07:06:20.563Z</time></trkpt><trkpt lat="37.8922089" lon="13.4147257"><ele>695.0</ele><time>2026-05-05T07:06:21.563Z</time></trkpt><trkpt lat="37.8921848" lon="13.4145957"><ele>695.0</ele><time>2026-05-05T07:06:22.564Z</time></trkpt><trkpt lat="37.8921494" lon="13.4144756"><ele>695.0</ele><time>2026-05-05T07:06:23.565Z</time></trkpt><trkpt lat="37.8921021" lon="13.4143779"><ele>695.0</ele><time>2026-05-05T07:06:24.564Z</time></trkpt><trkpt lat="37.892038" lon="13.4142893"><ele>695.6</ele><time>2026-05-05T07:06:25.564Z</time></trkpt><trkpt lat="37.8919599" lon="13.4142061"><ele>696.2</ele><time>2026-05-05T07:06:26.564Z</time></trkpt><trkpt lat="37.8918738" lon="13.4141366"><ele>696.8</ele><time>2026-05-05T07:06:27.563Z</time></trkpt><trkpt lat="37.8917825" lon="13.4140926"><ele>697.4</ele><time>2026-05-05T07:06:28.564Z</time></trkpt><trkpt lat="37.8916882" lon="13.4140526"><ele>698.0</ele><time>2026-05-05T07:06:29.565Z</time></trkpt><trkpt lat="37.8915933" lon="13.414007"><ele>696.4</ele><time>2026-05-05T07:06:30.564Z</time></trkpt><trkpt lat="37.8914974" lon="13.4139659"><ele>694.8</ele><time>2026-05-05T07:06:31.564Z</time></trkpt><trkpt lat="37.8914008" lon="13.4139322"><ele>693.2</ele><time>2026-05-05T07:06:32.565Z</time></trkpt><trkpt lat="37.8913038" lon="13.4139058"><ele>691.6</ele><time>2026-05-05T07:06:33.564Z</time></trkpt><trkpt lat="37.8912067" lon="13.4138787"><ele>690.0</ele><time>2026-05-05T07:06:34.565Z</time></trkpt><trkpt lat="37.8911072" lon="13.4138533"><ele>692.8</ele><time>2026-05-05T07:06:35.564Z</time></trkpt><trkpt lat="37.8910072" lon="13.4138193"><ele>695.6</ele><time>2026-05-05T07:06:36.564Z</time></trkpt><trkpt lat="37.8909087" lon="13.4137687"><ele>698.4000000000001</ele><time>2026-05-05T07:06:37.564Z</time></trkpt><trkpt lat="37.890816" lon="13.4137027"><ele>701.2</ele><time>2026-05-05T07:06:38.563Z</time></trkpt><trkpt lat="37.8907372" lon="13.4136307"><ele>704.0</ele><time>2026-05-05T07:06:39.564Z</time></trkpt><trkpt lat="37.8906759" lon="13.4135575"><ele>704.0</ele><time>2026-05-05T07:06:40.564Z</time></trkpt><trkpt lat="37.8906241" lon="13.4134737"><ele>704.0</ele><time>2026-05-05T07:06:41.566Z</time></trkpt><trkpt lat="37.8905767" lon="13.413375"><ele>704.0</ele><time>2026-05-05T07:06:42.564Z</time></trkpt><trkpt lat="37.8905367" lon="13.4132683"><ele>704.0</ele><time>2026-05-05T07:06:43.564Z</time></trkpt><trkpt lat="37.8905033" lon="13.4131583"><ele>704.0</ele><time>2026-05-05T07:06:44.565Z</time></trkpt><trkpt lat="37.890485" lon="13.413045"><ele>705.5</ele><time>2026-05-05T07:06:45.564Z</time></trkpt><trkpt lat="37.8904817" lon="13.4129417"><ele>707.0</ele><time>2026-05-05T07:06:46.564Z</time></trkpt><trkpt lat="37.8904933" lon="13.4128417"><ele>708.5</ele><time>2026-05-05T07:06:47.564Z</time></trkpt><trkpt lat="37.8905183" lon="13.4127383"><ele>710.0</ele><time>2026-05-05T07:06:48.565Z</time></trkpt><trkpt lat="37.8905417" lon="13.41263"><ele>711.5</ele><time>2026-05-05T07:06:49.563Z</time></trkpt><trkpt lat="37.8905617" lon="13.4125117"><ele>713.0</ele><time>2026-05-05T07:06:50.566Z</time></trkpt><trkpt lat="37.89058" lon="13.4123867"><ele>713.0</ele><time>2026-05-05T07:06:51.563Z</time></trkpt><trkpt lat="37.8905883" lon="13.41226"><ele>713.0</ele><time>2026-05-05T07:06:52.564Z</time></trkpt><trkpt lat="37.8905783" lon="13.41213"><ele>713.0</ele><time>2026-05-05T07:06:53.563Z</time></trkpt><trkpt lat="37.8905533" lon="13.412"><ele>713.0</ele><time>2026-05-05T07:06:54.563Z</time></trkpt><trkpt lat="37.8905183" lon="13.4118733"><ele>713.0</ele><time>2026-05-05T07:06:55.564Z</time></trkpt><trkpt lat="37.8904717" lon="13.4117483"><ele>714.4</ele><time>2026-05-05T07:06:56.565Z</time></trkpt><trkpt lat="37.8904117" lon="13.4116267"><ele>715.8</ele><time>2026-05-05T07:06:57.564Z</time></trkpt><trkpt lat="37.89035" lon="13.4115083"><ele>717.2</ele><time>2026-05-05T07:06:58.565Z</time></trkpt><trkpt lat="37.8902883" lon="13.4113883"><ele>718.6</ele><time>2026-05-05T07:06:59.566Z</time></trkpt><trkpt lat="37.89024" lon="13.4112717"><ele>720.0</ele><time>2026-05-05T07:07:00.563Z</time></trkpt><trkpt lat="37.890205" lon="13.4111667"><ele>722.0</ele><time>2026-05-05T07:07:01.566Z</time></trkpt><trkpt lat="37.890185" lon="13.4110667"><ele>724.0</ele><time>2026-05-05T07:07:02.565Z</time></trkpt><trkpt lat="37.89018" lon="13.4109633"><ele>726.0</ele><time>2026-05-05T07:07:03.565Z</time></trkpt><trkpt lat="37.8901867" lon="13.4108683"><ele>728.0</ele><time>2026-05-05T07:07:04.563Z</time></trkpt><trkpt lat="37.8902033" lon="13.4107817"><ele>730.0</ele><time>2026-05-05T07:07:05.565Z</time></trkpt><trkpt lat="37.8902217" lon="13.4106967"><ele>732.0</ele><time>2026-05-05T07:07:06.565Z</time></trkpt><trkpt lat="37.8902483" lon="13.4106083"><ele>732.0</ele><time>2026-05-05T07:07:07.564Z</time></trkpt><trkpt lat="37.8902933" lon="13.410515"><ele>732.0</ele><time>2026-05-05T07:07:08.566Z</time></trkpt><trkpt lat="37.8903383" lon="13.4104133"><ele>732.0</ele><time>2026-05-05T07:07:09.563Z</time></trkpt><trkpt lat="37.89039" lon="13.4103133"><ele>732.0</ele><time>2026-05-05T07:07:10.565Z</time></trkpt><trkpt lat="37.8904283" lon="13.4102117"><ele>732.0</ele><time>2026-05-05T07:07:11.564Z</time></trkpt><trkpt lat="37.8904683" lon="13.4101133"><ele>732.0</ele><time>2026-05-05T07:07:12.564Z</time></trkpt><trkpt lat="37.8905083" lon="13.4100067"><ele>732.4000000000001</ele><time>2026-05-05T07:07:13.564Z</time></trkpt><trkpt lat="37.8905367" lon="13.4098983"><ele>732.8000000000001</ele><time>2026-05-05T07:07:14.564Z</time></trkpt><trkpt lat="37.8905483" lon="13.409765"><ele>733.2</ele><time>2026-05-05T07:07:15.563Z</time></trkpt><trkpt lat="37.8905467" lon="13.4096417"><ele>733.6</ele><time>2026-05-05T07:07:16.565Z</time></trkpt><trkpt lat="37.890545" lon="13.4095267"><ele>734.0</ele><time>2026-05-05T07:07:17.565Z</time></trkpt><trkpt lat="37.8905383" lon="13.4094083"><ele>734.3333333333333</ele><time>2026-05-05T07:07:18.564Z</time></trkpt><trkpt lat="37.890525" lon="13.4093033"><ele>734.6666666666666</ele><time>2026-05-05T07:07:19.564Z</time></trkpt><trkpt lat="37.8905133" lon="13.4092033"><ele>735.0</ele><time>2026-05-05T07:07:20.564Z</time></trkpt><trkpt lat="37.8904983" lon="13.4091083"><ele>735.3333333333334</ele><time>2026-05-05T07:07:21.562Z</time></trkpt><trkpt lat="37.8904683" lon="13.4090067"><ele>735.6666666666667</ele><time>2026-05-05T07:07:22.564Z</time></trkpt><trkpt lat="37.8904267" lon="13.4089067"><ele>736.0</ele><time>2026-05-05T07:07:23.565Z</time></trkpt><trkpt lat="37.890395" lon="13.408805"><ele>737.5999999999999</ele><time>2026-05-05T07:07:24.564Z</time></trkpt><trkpt lat="37.8903533" lon="13.408705"><ele>739.2</ele><time>2026-05-05T07:07:25.563Z</time></trkpt><trkpt lat="37.8903033" lon="13.408605"><ele>740.8</ele><time>2026-05-05T07:07:26.565Z</time></trkpt><trkpt lat="37.8902483" lon="13.408505"><ele>742.4000000000001</ele><time>2026-05-05T07:07:27.563Z</time></trkpt><trkpt lat="37.8901833" lon="13.4083983"><ele>744.0</ele><time>2026-05-05T07:07:28.563Z</time></trkpt><trkpt lat="37.8901233" lon="13.4082983"><ele>740.8333333333334</ele><time>2026-05-05T07:07:29.564Z</time></trkpt><trkpt lat="37.8900667" lon="13.4082033"><ele>737.6666666666666</ele><time>2026-05-05T07:07:30.563Z</time></trkpt><trkpt lat="37.8900183" lon="13.4081167"><ele>734.5</ele><time>2026-05-05T07:07:31.564Z</time></trkpt><trkpt lat="37.8899667" lon="13.40803"><ele>731.3333333333333</ele><time>2026-05-05T07:07:32.564Z</time></trkpt><trkpt lat="37.88991" lon="13.407945"><ele>728.1666666666666</ele><time>2026-05-05T07:07:33.563Z</time></trkpt><trkpt lat="37.88986" lon="13.4078567"><ele>725.0</ele><time>2026-05-05T07:07:34.563Z</time></trkpt><trkpt lat="37.8898167" lon="13.4077833"><ele>725.0</ele><time>2026-05-05T07:07:35.568Z</time></trkpt><trkpt lat="37.88978" lon="13.4077117"><ele>725.0</ele><time>2026-05-05T07:07:36.563Z</time></trkpt><trkpt lat="37.8897417" lon="13.4076333"><ele>725.0</ele><time>2026-05-05T07:07:37.564Z</time></trkpt><trkpt lat="37.8897083" lon="13.4075567"><ele>725.0</ele><time>2026-05-05T07:07:38.564Z</time></trkpt><trkpt lat="37.8896783" lon="13.407465"><ele>725.0</ele><time>2026-05-05T07:07:39.563Z</time></trkpt><trkpt lat="37.8896567" lon="13.4073633"><ele>725.0</ele><time>2026-05-05T07:07:40.564Z</time></trkpt><trkpt lat="37.8896333" lon="13.4072583"><ele>726.0</ele><time>2026-05-05T07:07:41.563Z</time></trkpt><trkpt lat="37.8896183" lon="13.4071433"><ele>727.0</ele><time>2026-05-05T07:07:42.564Z</time></trkpt><trkpt lat="37.88961" lon="13.407025"><ele>728.0</ele><time>2026-05-05T07:07:43.564Z</time></trkpt><trkpt lat="37.8896117" lon="13.4069033"><ele>729.0</ele><time>2026-05-05T07:07:44.565Z</time></trkpt><trkpt lat="37.88962" lon="13.40678"><ele>730.0</ele><time>2026-05-05T07:07:45.563Z</time></trkpt><trkpt lat="37.8896333" lon="13.4066567"><ele>730.0</ele><time>2026-05-05T07:07:46.564Z</time></trkpt><trkpt lat="37.88965" lon="13.4065333"><ele>730.0</ele><time>2026-05-05T07:07:47.564Z</time></trkpt><trkpt lat="37.8896783" lon="13.4064083"><ele>730.0</ele><time>2026-05-05T07:07:48.564Z</time></trkpt><trkpt lat="37.88971" lon="13.4062767"><ele>730.0</ele><time>2026-05-05T07:07:49.565Z</time></trkpt><trkpt lat="37.889755" lon="13.4061533"><ele>730.0</ele><time>2026-05-05T07:07:50.564Z</time></trkpt><trkpt lat="37.8898017" lon="13.4060317"><ele>729.4</ele><time>2026-05-05T07:07:51.563Z</time></trkpt><trkpt lat="37.8898433" lon="13.4059117"><ele>728.8</ele><time>2026-05-05T07:07:52.562Z</time></trkpt><trkpt lat="37.8898817" lon="13.405795"><ele>728.2</ele><time>2026-05-05T07:07:53.564Z</time></trkpt><trkpt lat="37.8899183" lon="13.4056833"><ele>727.6</ele><time>2026-05-05T07:07:54.564Z</time></trkpt><trkpt lat="37.8899533" lon="13.405565"><ele>727.0</ele><time>2026-05-05T07:07:55.565Z</time></trkpt><trkpt lat="37.8899867" lon="13.4054467"><ele>726.8</ele><time>2026-05-05T07:07:56.565Z</time></trkpt><trkpt lat="37.8900217" lon="13.40533"><ele>726.6</ele><time>2026-05-05T07:07:57.563Z</time></trkpt><trkpt lat="37.890065" lon="13.4052133"><ele>726.4</ele><time>2026-05-05T07:07:58.565Z</time></trkpt><trkpt lat="37.8901017" lon="13.4050967"><ele>726.1999999999999</ele><time>2026-05-05T07:07:59.564Z</time></trkpt><trkpt lat="37.890135" lon="13.4049767"><ele>726.0</ele><time>2026-05-05T07:08:00.563Z</time></trkpt><trkpt lat="37.89016" lon="13.4048483"><ele>728.4</ele><time>2026-05-05T07:08:01.563Z</time></trkpt><trkpt lat="37.890185" lon="13.404725"><ele>730.8</ele><time>2026-05-05T07:08:02.563Z</time></trkpt><trkpt lat="37.8901983" lon="13.404595"><ele>733.1999999999999</ele><time>2026-05-05T07:08:03.564Z</time></trkpt><trkpt lat="37.8902033" lon="13.4044683"><ele>735.5999999999999</ele><time>2026-05-05T07:08:04.565Z</time></trkpt><trkpt lat="37.8902017" lon="13.404345"><ele>738.0</ele><time>2026-05-05T07:08:05.565Z</time></trkpt><trkpt lat="37.89019" lon="13.4042217"><ele>738.8</ele><time>2026-05-05T07:08:06.564Z</time></trkpt><trkpt lat="37.890175" lon="13.404095"><ele>739.5999999999999</ele><time>2026-05-05T07:08:07.564Z</time></trkpt><trkpt lat="37.8901517" lon="13.4039667"><ele>740.4000000000001</ele><time>2026-05-05T07:08:08.565Z</time></trkpt><trkpt lat="37.890125" lon="13.403835"><ele>741.2</ele><time>2026-05-05T07:08:09.564Z</time></trkpt><trkpt lat="37.8900933" lon="13.4037033"><ele>742.0</ele><time>2026-05-05T07:08:10.564Z</time></trkpt><trkpt lat="37.890055" lon="13.4035683"><ele>742.0</ele><time>2026-05-05T07:08:11.565Z</time></trkpt><trkpt lat="37.8900267" lon="13.4034333"><ele>742.0</ele><time>2026-05-05T07:08:12.565Z</time></trkpt><trkpt lat="37.8900033" lon="13.4033117"><ele>742.0</ele><time>2026-05-05T07:08:13.564Z</time></trkpt><trkpt lat="37.8899867" lon="13.403195"><ele>742.0</ele><time>2026-05-05T07:08:14.565Z</time></trkpt><trkpt lat="37.889975" lon="13.4030767"><ele>742.0</ele><time>2026-05-05T07:08:15.563Z</time></trkpt><trkpt lat="37.8899667" lon="13.4029533"><ele>742.0</ele><time>2026-05-05T07:08:16.564Z</time></trkpt><trkpt lat="37.88996" lon="13.4028233"><ele>742.0</ele><time>2026-05-05T07:08:17.564Z</time></trkpt><trkpt lat="37.8899517" lon="13.4026917"><ele>742.0</ele><time>2026-05-05T07:08:18.565Z</time></trkpt><trkpt lat="37.8899417" lon="13.4025717"><ele>742.0</ele><time>2026-05-05T07:08:19.562Z</time></trkpt><trkpt lat="37.88994" lon="13.40247"><ele>742.0</ele><time>2026-05-05T07:08:20.565Z</time></trkpt><trkpt lat="37.8899362" lon="13.4023768"><ele>742.0</ele><time>2026-05-05T07:08:21.565Z</time></trkpt><trkpt lat="37.8899321" lon="13.402234"><ele>742.0</ele><time>2026-05-05T07:08:23.564Z</time></trkpt><trkpt lat="37.8898995" lon="13.40215"><ele>742.0</ele><time>2026-05-05T07:08:25.564Z</time></trkpt><trkpt lat="37.8898245" lon="13.402129"><ele>742.0</ele><time>2026-05-05T07:08:29.564Z</time></trkpt><trkpt lat="37.8897633" lon="13.402199"><ele>742.0</ele><time>2026-05-05T07:08:31.564Z</time></trkpt><trkpt lat="37.8897244" lon="13.4023121"><ele>742.0</ele><time>2026-05-05T07:08:33.563Z</time></trkpt><trkpt lat="37.8897036" lon="13.402424"><ele>742.0</ele><time>2026-05-05T07:08:35.564Z</time></trkpt><trkpt lat="37.8896717" lon="13.4023371"><ele>742.0</ele><time>2026-05-05T07:08:42.564Z</time></trkpt><trkpt lat="37.8896847" lon="13.4022117"><ele>742.0</ele><time>2026-05-05T07:08:44.565Z</time></trkpt><trkpt lat="37.889701" lon="13.402109"><ele>742.0</ele><time>2026-05-05T07:08:45.563Z</time></trkpt><trkpt lat="37.8897158" lon="13.4019804"><ele>742.0</ele><time>2026-05-05T07:08:46.563Z</time></trkpt><trkpt lat="37.8897243" lon="13.4018364"><ele>743.2</ele><time>2026-05-05T07:08:47.564Z</time></trkpt><trkpt lat="37.8897305" lon="13.4016883"><ele>744.4000000000001</ele><time>2026-05-05T07:08:48.564Z</time></trkpt><trkpt lat="37.8897329" lon="13.4015484"><ele>745.5999999999999</ele><time>2026-05-05T07:08:49.565Z</time></trkpt><trkpt lat="37.8897356" lon="13.4014185"><ele>746.8</ele><time>2026-05-05T07:08:50.565Z</time></trkpt><trkpt lat="37.8897406" lon="13.4013005"><ele>748.0</ele><time>2026-05-05T07:08:51.563Z</time></trkpt><trkpt lat="37.8897474" lon="13.4011844"><ele>748.3333333333334</ele><time>2026-05-05T07:08:52.566Z</time></trkpt><trkpt lat="37.8897529" lon="13.4010694"><ele>748.6666666666667</ele><time>2026-05-05T07:08:53.565Z</time></trkpt><trkpt lat="37.8897554" lon="13.4009588"><ele>749.0</ele><time>2026-05-05T07:08:54.564Z</time></trkpt><trkpt lat="37.889755" lon="13.400853"><ele>749.3333333333334</ele><time>2026-05-05T07:08:55.565Z</time></trkpt><trkpt lat="37.8897497" lon="13.4007456"><ele>749.6666666666666</ele><time>2026-05-05T07:08:56.565Z</time></trkpt><trkpt lat="37.8897299" lon="13.4006394"><ele>750.0</ele><time>2026-05-05T07:08:57.564Z</time></trkpt><trkpt lat="37.8896902" lon="13.4005323"><ele>751.0</ele><time>2026-05-05T07:08:58.566Z</time></trkpt><trkpt lat="37.8896277" lon="13.4004208"><ele>752.0</ele><time>2026-05-05T07:08:59.565Z</time></trkpt><trkpt lat="37.8895518" lon="13.4003091"><ele>753.0</ele><time>2026-05-05T07:09:00.564Z</time></trkpt><trkpt lat="37.8894656" lon="13.4001991"><ele>754.0</ele><time>2026-05-05T07:09:01.564Z</time></trkpt><trkpt lat="37.8893686" lon="13.4001017"><ele>754.0</ele><time>2026-05-05T07:09:02.566Z</time></trkpt><trkpt lat="37.8892677" lon="13.4000043"><ele>754.0</ele><time>2026-05-05T07:09:03.564Z</time></trkpt><trkpt lat="37.8891529" lon="13.3999086"><ele>754.0</ele><time>2026-05-05T07:09:04.565Z</time></trkpt><trkpt lat="37.8890293" lon="13.3998126"><ele>754.0</ele><time>2026-05-05T07:09:05.563Z</time></trkpt><trkpt lat="37.8888966" lon="13.3997202"><ele>755.5</ele><time>2026-05-05T07:09:06.564Z</time></trkpt><trkpt lat="37.8887626" lon="13.3996343"><ele>757.0</ele><time>2026-05-05T07:09:07.564Z</time></trkpt><trkpt lat="37.8886314" lon="13.3995484"><ele>758.5</ele><time>2026-05-05T07:09:08.564Z</time></trkpt><trkpt lat="37.8885071" lon="13.3994683"><ele>760.0</ele><time>2026-05-05T07:09:09.563Z</time></trkpt><trkpt lat="37.8884016" lon="13.3994047"><ele>760.0</ele><time>2026-05-05T07:09:10.565Z</time></trkpt><trkpt lat="37.8883185" lon="13.3993453"><ele>760.0</ele><time>2026-05-05T07:09:11.563Z</time></trkpt><trkpt lat="37.8882658" lon="13.3992812"><ele>760.0</ele><time>2026-05-05T07:09:12.564Z</time></trkpt><trkpt lat="37.888196" lon="13.3991651"><ele>760.0</ele><time>2026-05-05T07:09:14.567Z</time></trkpt><trkpt lat="37.8882282" lon="13.3990749"><ele>760.0</ele><time>2026-05-05T07:09:16.565Z</time></trkpt><trkpt lat="37.8884366" lon="13.39911"><ele>760.0</ele><time>2026-05-05T07:09:18.564Z</time></trkpt><trkpt lat="37.8885799" lon="13.3991412"><ele>760.0</ele><time>2026-05-05T07:09:19.564Z</time></trkpt><trkpt lat="37.8887327" lon="13.399152"><ele>760.0</ele><time>2026-05-05T07:09:20.565Z</time></trkpt><trkpt lat="37.8888744" lon="13.3991404"><ele>760.0</ele><time>2026-05-05T07:09:21.564Z</time></trkpt><trkpt lat="37.8890006" lon="13.399121"><ele>760.0</ele><time>2026-05-05T07:09:22.564Z</time></trkpt><trkpt lat="37.8891102" lon="13.3990873"><ele>760.0</ele><time>2026-05-05T07:09:23.565Z</time></trkpt><trkpt lat="37.8892069" lon="13.3990448"><ele>760.0</ele><time>2026-05-05T07:09:24.566Z</time></trkpt><trkpt lat="37.889291" lon="13.3990055"><ele>760.0</ele><time>2026-05-05T07:09:25.566Z</time></trkpt><trkpt lat="37.8893623" lon="13.3989641"><ele>760.0</ele><time>2026-05-05T07:09:26.564Z</time></trkpt><trkpt lat="37.8894239" lon="13.398929"><ele>760.0</ele><time>2026-05-05T07:09:27.565Z</time></trkpt><trkpt lat="37.8895229" lon="13.3988749"><ele>760.0</ele><time>2026-05-05T07:09:29.564Z</time></trkpt><trkpt lat="37.8895759" lon="13.3988141"><ele>760.0</ele><time>2026-05-05T07:09:31.565Z</time></trkpt><trkpt lat="37.8895688" lon="13.3987317"><ele>760.0</ele><time>2026-05-05T07:09:33.563Z</time></trkpt><trkpt lat="37.8895088" lon="13.3986773"><ele>760.0</ele><time>2026-05-05T07:09:35.567Z</time></trkpt><trkpt lat="37.8894313" lon="13.3986704"><ele>760.0</ele><time>2026-05-05T07:09:37.563Z</time></trkpt><trkpt lat="37.8893561" lon="13.3986862"><ele>760.0</ele><time>2026-05-05T07:09:39.563Z</time></trkpt><trkpt lat="37.8892777" lon="13.398688"><ele>760.0</ele><time>2026-05-05T07:09:41.563Z</time></trkpt><trkpt lat="37.8891849" lon="13.3986834"><ele>760.0</ele><time>2026-05-05T07:09:43.563Z</time></trkpt><trkpt lat="37.8890855" lon="13.3986854"><ele>760.0</ele><time>2026-05-05T07:09:45.565Z</time></trkpt><trkpt lat="37.8889678" lon="13.3986707"><ele>760.0</ele><time>2026-05-05T07:09:47.565Z</time></trkpt><trkpt lat="37.8889053" lon="13.3986557"><ele>761.1428571428571</ele><time>2026-05-05T07:09:48.566Z</time></trkpt><trkpt lat="37.8888377" lon="13.3986346"><ele>762.2857142857143</ele><time>2026-05-05T07:09:49.564Z</time></trkpt><trkpt lat="37.8887661" lon="13.3986042"><ele>763.4285714285713</ele><time>2026-05-05T07:09:50.565Z</time></trkpt><trkpt lat="37.8886937" lon="13.398561"><ele>764.5714285714286</ele><time>2026-05-05T07:09:51.562Z</time></trkpt><trkpt lat="37.8886241" lon="13.398513"><ele>765.7142857142857</ele><time>2026-05-05T07:09:52.563Z</time></trkpt><trkpt lat="37.888562" lon="13.398461"><ele>766.8571428571428</ele><time>2026-05-05T07:09:53.563Z</time></trkpt><trkpt lat="37.8885074" lon="13.3984082"><ele>768.0</ele><time>2026-05-05T07:09:54.563Z</time></trkpt><trkpt lat="37.8884478" lon="13.3983592"><ele>768.4285714285713</ele><time>2026-05-05T07:09:55.565Z</time></trkpt><trkpt lat="37.8883867" lon="13.3983091"><ele>768.8571428571429</ele><time>2026-05-05T07:09:56.565Z</time></trkpt><trkpt lat="37.8883264" lon="13.3982535"><ele>769.2857142857142</ele><time>2026-05-05T07:09:57.564Z</time></trkpt><trkpt lat="37.8882688" lon="13.3981989"><ele>769.7142857142857</ele><time>2026-05-05T07:09:58.565Z</time></trkpt><trkpt lat="37.8882176" lon="13.3981413"><ele>770.1428571428571</ele><time>2026-05-05T07:09:59.564Z</time></trkpt><trkpt lat="37.8881747" lon="13.3980741"><ele>770.5714285714286</ele><time>2026-05-05T07:10:00.564Z</time></trkpt><trkpt lat="37.8881391" lon="13.3979984"><ele>771.0</ele><time>2026-05-05T07:10:01.565Z</time></trkpt><trkpt lat="37.8881069" lon="13.3979152"><ele>771.5</ele><time>2026-05-05T07:10:02.567Z</time></trkpt><trkpt lat="37.8880728" lon="13.3978281"><ele>772.0</ele><time>2026-05-05T07:10:03.564Z</time></trkpt><trkpt lat="37.8880386" lon="13.3977356"><ele>772.5</ele><time>2026-05-05T07:10:04.563Z</time></trkpt><trkpt lat="37.8880011" lon="13.397642"><ele>773.0</ele><time>2026-05-05T07:10:05.563Z</time></trkpt><trkpt lat="37.8879545" lon="13.3975522"><ele>773.5</ele><time>2026-05-05T07:10:06.564Z</time></trkpt><trkpt lat="37.8878962" lon="13.3974675"><ele>774.0</ele><time>2026-05-05T07:10:07.565Z</time></trkpt><trkpt lat="37.8878287" lon="13.3973954"><ele>774.0</ele><time>2026-05-05T07:10:08.564Z</time></trkpt><trkpt lat="37.8877585" lon="13.3973346"><ele>774.0</ele><time>2026-05-05T07:10:09.563Z</time></trkpt><trkpt lat="37.8876824" lon="13.3972791"><ele>774.0</ele><time>2026-05-05T07:10:10.563Z</time></trkpt><trkpt lat="37.8876075" lon="13.3972175"><ele>774.0</ele><time>2026-05-05T07:10:11.566Z</time></trkpt><trkpt lat="37.8875345" lon="13.397146"><ele>774.0</ele><time>2026-05-05T07:10:12.563Z</time></trkpt><trkpt lat="37.8874571" lon="13.3970769"><ele>774.0</ele><time>2026-05-05T07:10:13.564Z</time></trkpt><trkpt lat="37.8873767" lon="13.3970189"><ele>776.2</ele><time>2026-05-05T07:10:14.565Z</time></trkpt><trkpt lat="37.8872883" lon="13.396974"><ele>778.4000000000001</ele><time>2026-05-05T07:10:15.564Z</time></trkpt><trkpt lat="37.8872006" lon="13.3969549"><ele>780.6</ele><time>2026-05-05T07:10:16.564Z</time></trkpt><trkpt lat="37.8871018" lon="13.3969513"><ele>782.8</ele><time>2026-05-05T07:10:17.564Z</time></trkpt><trkpt lat="37.8870024" lon="13.3969529"><ele>785.0</ele><time>2026-05-05T07:10:18.564Z</time></trkpt><trkpt lat="37.8869023" lon="13.3969591"><ele>785.0</ele><time>2026-05-05T07:10:19.564Z</time></trkpt><trkpt lat="37.8868148" lon="13.3969585"><ele>785.0</ele><time>2026-05-05T07:10:20.564Z</time></trkpt><trkpt lat="37.8867312" lon="13.3969363"><ele>785.0</ele><time>2026-05-05T07:10:21.564Z</time></trkpt><trkpt lat="37.8866524" lon="13.396897"><ele>785.0</ele><time>2026-05-05T07:10:22.565Z</time></trkpt><trkpt lat="37.8865718" lon="13.396835"><ele>785.0</ele><time>2026-05-05T07:10:23.566Z</time></trkpt><trkpt lat="37.8864993" lon="13.3967504"><ele>784.8</ele><time>2026-05-05T07:10:24.565Z</time></trkpt><trkpt lat="37.8864261" lon="13.3966632"><ele>784.6</ele><time>2026-05-05T07:10:25.566Z</time></trkpt><trkpt lat="37.8863523" lon="13.3965838"><ele>784.4000000000001</ele><time>2026-05-05T07:10:26.565Z</time></trkpt><trkpt lat="37.886279" lon="13.3965174"><ele>784.2</ele><time>2026-05-05T07:10:27.563Z</time></trkpt><trkpt lat="37.8862006" lon="13.3964643"><ele>784.0</ele><time>2026-05-05T07:10:28.565Z</time></trkpt><trkpt lat="37.8861146" lon="13.3964253"><ele>783.9999999999999</ele><time>2026-05-05T07:10:29.564Z</time></trkpt><trkpt lat="37.8860248" lon="13.3964056"><ele>784.0</ele><time>2026-05-05T07:10:30.565Z</time></trkpt><trkpt lat="37.8859345" lon="13.3964035"><ele>784.0</ele><time>2026-05-05T07:10:31.564Z</time></trkpt><trkpt lat="37.8858471" lon="13.3964042"><ele>784.0</ele><time>2026-05-05T07:10:32.567Z</time></trkpt><trkpt lat="37.8857667" lon="13.3963984"><ele>783.9999999999999</ele><time>2026-05-05T07:10:33.565Z</time></trkpt><trkpt lat="37.8856978" lon="13.3963749"><ele>784.0</ele><time>2026-05-05T07:10:34.564Z</time></trkpt><trkpt lat="37.8856157" lon="13.3962676"><ele>782.8000000000001</ele><time>2026-05-05T07:10:36.566Z</time></trkpt><trkpt lat="37.8856041" lon="13.396185"><ele>781.6</ele><time>2026-05-05T07:10:37.566Z</time></trkpt><trkpt lat="37.8855931" lon="13.3960352"><ele>780.4</ele><time>2026-05-05T07:10:39.564Z</time></trkpt><trkpt lat="37.8855874" lon="13.3958976"><ele>779.2</ele><time>2026-05-05T07:10:41.564Z</time></trkpt><trkpt lat="37.885576" lon="13.3957698"><ele>778.0</ele><time>2026-05-05T07:10:43.566Z</time></trkpt><trkpt lat="37.8855711" lon="13.3956107"><ele>777.9999999999999</ele><time>2026-05-05T07:10:45.565Z</time></trkpt><trkpt lat="37.8855732" lon="13.3955153"><ele>778.0</ele><time>2026-05-05T07:10:46.566Z</time></trkpt><trkpt lat="37.8855671" lon="13.3954222"><ele>778.0</ele><time>2026-05-05T07:10:47.566Z</time></trkpt><trkpt lat="37.8855479" lon="13.3953326"><ele>778.0</ele><time>2026-05-05T07:10:48.566Z</time></trkpt><trkpt lat="37.8855153" lon="13.3952556"><ele>777.9999999999999</ele><time>2026-05-05T07:10:49.566Z</time></trkpt><trkpt lat="37.885405" lon="13.3951733"><ele>778.0</ele><time>2026-05-05T07:10:51.565Z</time></trkpt><trkpt lat="37.8853178" lon="13.3951642"><ele>779.2</ele><time>2026-05-05T07:10:52.566Z</time></trkpt><trkpt lat="37.8852261" lon="13.3951427"><ele>780.4</ele><time>2026-05-05T07:10:53.566Z</time></trkpt><trkpt lat="37.8851359" lon="13.3951"><ele>781.6</ele><time>2026-05-05T07:10:54.564Z</time></trkpt><trkpt lat="37.8850604" lon="13.3950353"><ele>782.8000000000001</ele><time>2026-05-05T07:10:55.566Z</time></trkpt><trkpt lat="37.8850006" lon="13.3949513"><ele>784.0</ele><time>2026-05-05T07:10:56.566Z</time></trkpt><trkpt lat="37.8849525" lon="13.3948634"><ele>783.9999999999999</ele><time>2026-05-05T07:10:57.565Z</time></trkpt><trkpt lat="37.8849361" lon="13.3947524"><ele>784.0</ele><time>2026-05-05T07:10:58.565Z</time></trkpt><trkpt lat="37.884937" lon="13.3946234"><ele>784.0</ele><time>2026-05-05T07:10:59.564Z</time></trkpt><trkpt lat="37.8849509" lon="13.3944984"><ele>784.0</ele><time>2026-05-05T07:11:00.564Z</time></trkpt><trkpt lat="37.8849622" lon="13.3943936"><ele>783.9999999999999</ele><time>2026-05-05T07:11:01.565Z</time></trkpt><trkpt lat="37.884965" lon="13.3943003"><ele>784.0</ele><time>2026-05-05T07:11:02.566Z</time></trkpt><trkpt lat="37.884895" lon="13.3942122"><ele>781.8571428571429</ele><time>2026-05-05T07:11:04.565Z</time></trkpt><trkpt lat="37.8848281" lon="13.39421"><ele>779.7142857142858</ele><time>2026-05-05T07:11:05.566Z</time></trkpt><trkpt lat="37.8847474" lon="13.3942174"><ele>777.5714285714286</ele><time>2026-05-05T07:11:06.565Z</time></trkpt><trkpt lat="37.8846664" lon="13.3942164"><ele>775.4285714285714</ele><time>2026-05-05T07:11:07.565Z</time></trkpt><trkpt lat="37.884591" lon="13.3942082"><ele>773.2857142857143</ele><time>2026-05-05T07:11:08.567Z</time></trkpt><trkpt lat="37.8845205" lon="13.3941953"><ele>771.1428571428571</ele><time>2026-05-05T07:11:09.564Z</time></trkpt><trkpt lat="37.8844485" lon="13.3941793"><ele>769.0</ele><time>2026-05-05T07:11:10.565Z</time></trkpt><trkpt lat="37.8843698" lon="13.3941611"><ele>768.9999999999999</ele><time>2026-05-05T07:11:11.566Z</time></trkpt><trkpt lat="37.884287" lon="13.3941411"><ele>769.0</ele><time>2026-05-05T07:11:12.565Z</time></trkpt><trkpt lat="37.8842043" lon="13.3941145"><ele>769.0</ele><time>2026-05-05T07:11:13.566Z</time></trkpt><trkpt lat="37.8841204" lon="13.3940948"><ele>769.0</ele><time>2026-05-05T07:11:14.566Z</time></trkpt><trkpt lat="37.8840429" lon="13.3940858"><ele>768.9999999999999</ele><time>2026-05-05T07:11:15.565Z</time></trkpt><trkpt lat="37.8839693" lon="13.3940883"><ele>769.0</ele><time>2026-05-05T07:11:16.566Z</time></trkpt><trkpt lat="37.8839031" lon="13.394115"><ele>770.1666666666666</ele><time>2026-05-05T07:11:17.566Z</time></trkpt><trkpt lat="37.8838387" lon="13.394155"><ele>771.3333333333333</ele><time>2026-05-05T07:11:18.565Z</time></trkpt><trkpt lat="37.8837769" lon="13.3942111"><ele>772.5</ele><time>2026-05-05T07:11:19.566Z</time></trkpt><trkpt lat="37.8837198" lon="13.3942855"><ele>773.6666666666667</ele><time>2026-05-05T07:11:20.565Z</time></trkpt><trkpt lat="37.8836649" lon="13.3943612"><ele>774.8333333333334</ele><time>2026-05-05T07:11:21.564Z</time></trkpt><trkpt lat="37.8836142" lon="13.3944288"><ele>776.0</ele><time>2026-05-05T07:11:22.566Z</time></trkpt><trkpt lat="37.8835631" lon="13.3944947"><ele>776.0000000000001</ele><time>2026-05-05T07:11:23.567Z</time></trkpt><trkpt lat="37.8835172" lon="13.3945524"><ele>776.0</ele><time>2026-05-05T07:11:24.565Z</time></trkpt><trkpt lat="37.8834223" lon="13.3946223"><ele>776.0</ele><time>2026-05-05T07:11:26.567Z</time></trkpt><trkpt lat="37.8833303" lon="13.3946236"><ele>776.0</ele><time>2026-05-05T07:11:28.566Z</time></trkpt><trkpt lat="37.8832892" lon="13.394532"><ele>776.0000000000001</ele><time>2026-05-05T07:11:29.566Z</time></trkpt><trkpt lat="37.8832496" lon="13.3944348"><ele>776.0</ele><time>2026-05-05T07:11:30.566Z</time></trkpt><trkpt lat="37.8832016" lon="13.3943475"><ele>775.8</ele><time>2026-05-05T07:11:31.566Z</time></trkpt><trkpt lat="37.8831387" lon="13.3942603"><ele>775.5999999999999</ele><time>2026-05-05T07:11:32.566Z</time></trkpt><trkpt lat="37.8830648" lon="13.3941727"><ele>775.4</ele><time>2026-05-05T07:11:33.567Z</time></trkpt><trkpt lat="37.8829796" lon="13.3940816"><ele>775.2</ele><time>2026-05-05T07:11:34.566Z</time></trkpt><trkpt lat="37.8828933" lon="13.3939779"><ele>775.0</ele><time>2026-05-05T07:11:35.565Z</time></trkpt><trkpt lat="37.8828184" lon="13.3938549"><ele>774.25</ele><time>2026-05-05T07:11:36.565Z</time></trkpt><trkpt lat="37.882738" lon="13.3937351"><ele>773.5</ele><time>2026-05-05T07:11:37.564Z</time></trkpt><trkpt lat="37.8826522" lon="13.3936193"><ele>772.75</ele><time>2026-05-05T07:11:38.566Z</time></trkpt><trkpt lat="37.8825552" lon="13.3935148"><ele>772.0</ele><time>2026-05-05T07:11:39.564Z</time></trkpt><trkpt lat="37.8824557" lon="13.393422"><ele>772.0</ele><time>2026-05-05T07:11:40.565Z</time></trkpt><trkpt lat="37.8823531" lon="13.3933437"><ele>772.0</ele><time>2026-05-05T07:11:41.565Z</time></trkpt><trkpt lat="37.8822519" lon="13.3932706"><ele>772.0</ele><time>2026-05-05T07:11:42.564Z</time></trkpt><trkpt lat="37.8821607" lon="13.3931925"><ele>772.0</ele><time>2026-05-05T07:11:43.564Z</time></trkpt><trkpt lat="37.8820878" lon="13.3930996"><ele>771.2</ele><time>2026-05-05T07:11:44.565Z</time></trkpt><trkpt lat="37.8820377" lon="13.3929901"><ele>770.4000000000001</ele><time>2026-05-05T07:11:45.565Z</time></trkpt><trkpt lat="37.8819954" lon="13.3928772"><ele>769.5999999999999</ele><time>2026-05-05T07:11:46.566Z</time></trkpt><trkpt lat="37.8819578" lon="13.3927736"><ele>768.8</ele><time>2026-05-05T07:11:47.567Z</time></trkpt><trkpt lat="37.8819211" lon="13.3926784"><ele>768.0</ele><time>2026-05-05T07:11:48.564Z</time></trkpt><trkpt lat="37.8818881" lon="13.3925891"><ele>768.0</ele><time>2026-05-05T07:11:49.565Z</time></trkpt><trkpt lat="37.8818664" lon="13.3925103"><ele>768.0</ele><time>2026-05-05T07:11:50.566Z</time></trkpt><trkpt lat="37.8818626" lon="13.3923549"><ele>768.0</ele><time>2026-05-05T07:11:52.566Z</time></trkpt><trkpt lat="37.8818823" lon="13.3922662"><ele>768.0</ele><time>2026-05-05T07:11:53.565Z</time></trkpt><trkpt lat="37.8819032" lon="13.3921721"><ele>768.0</ele><time>2026-05-05T07:11:54.566Z</time></trkpt><trkpt lat="37.8819206" lon="13.3920749"><ele>768.0</ele><time>2026-05-05T07:11:55.565Z</time></trkpt><trkpt lat="37.881931" lon="13.3919733"><ele>768.5</ele><time>2026-05-05T07:11:56.565Z</time></trkpt><trkpt lat="37.8819331" lon="13.3918641"><ele>769.0</ele><time>2026-05-05T07:11:57.565Z</time></trkpt><trkpt lat="37.8819294" lon="13.3917495"><ele>769.5</ele><time>2026-05-05T07:11:58.565Z</time></trkpt><trkpt lat="37.8819254" lon="13.3916349"><ele>770.0</ele><time>2026-05-05T07:11:59.567Z</time></trkpt><trkpt lat="37.8819147" lon="13.3915184"><ele>770.5</ele><time>2026-05-05T07:12:00.565Z</time></trkpt><trkpt lat="37.8819021" lon="13.3914114"><ele>771.0</ele><time>2026-05-05T07:12:01.565Z</time></trkpt><trkpt lat="37.8818895" lon="13.3913224"><ele>770.4</ele><time>2026-05-05T07:12:02.566Z</time></trkpt><trkpt lat="37.8818381" lon="13.3912298"><ele>769.8</ele><time>2026-05-05T07:12:04.565Z</time></trkpt><trkpt lat="37.8817637" lon="13.3912678"><ele>769.1999999999999</ele><time>2026-05-05T07:12:06.565Z</time></trkpt><trkpt lat="37.881711" lon="13.3913937"><ele>768.5999999999999</ele><time>2026-05-05T07:12:08.567Z</time></trkpt><trkpt lat="37.8816656" lon="13.3915367"><ele>768.0</ele><time>2026-05-05T07:12:10.565Z</time></trkpt><trkpt lat="37.8815855" lon="13.3916608"><ele>768.0</ele><time>2026-05-05T07:12:12.565Z</time></trkpt><trkpt lat="37.8814807" lon="13.3917452"><ele>768.0</ele><time>2026-05-05T07:12:14.566Z</time></trkpt><trkpt lat="37.8813843" lon="13.3918168"><ele>768.0</ele><time>2026-05-05T07:12:16.564Z</time></trkpt><trkpt lat="37.8813146" lon="13.3918742"><ele>768.0</ele><time>2026-05-05T07:12:18.565Z</time></trkpt><trkpt lat="37.881253" lon="13.3918927"><ele>768.0</ele><time>2026-05-05T07:12:20.567Z</time></trkpt><trkpt lat="37.881191" lon="13.3918235"><ele>768.0</ele><time>2026-05-05T07:12:23.566Z</time></trkpt><trkpt lat="37.8811849" lon="13.3917281"><ele>768.0</ele><time>2026-05-05T07:12:25.564Z</time></trkpt><trkpt lat="37.8811955" lon="13.3915994"><ele>768.0</ele><time>2026-05-05T07:12:27.565Z</time></trkpt><trkpt lat="37.8812306" lon="13.3914508"><ele>768.0</ele><time>2026-05-05T07:12:29.564Z</time></trkpt><trkpt lat="37.8812245" lon="13.3913211"><ele>768.0</ele><time>2026-05-05T07:12:31.564Z</time></trkpt><trkpt lat="37.8811713" lon="13.3912599"><ele>766.0</ele><time>2026-05-05T07:12:33.564Z</time></trkpt><trkpt lat="37.881084" lon="13.3912781"><ele>764.0</ele><time>2026-05-05T07:12:35.563Z</time></trkpt><trkpt lat="37.8809558" lon="13.3913219"><ele>762.0</ele><time>2026-05-05T07:12:37.566Z</time></trkpt><trkpt lat="37.8808851" lon="13.3913373"><ele>760.0</ele><time>2026-05-05T07:12:38.565Z</time></trkpt><trkpt lat="37.880811" lon="13.391351"><ele>758.0</ele><time>2026-05-05T07:12:39.565Z</time></trkpt><trkpt lat="37.8807395" lon="13.3913687"><ele>756.0</ele><time>2026-05-05T07:12:40.566Z</time></trkpt><trkpt lat="37.8806717" lon="13.3913992"><ele>756.0</ele><time>2026-05-05T07:12:41.565Z</time></trkpt><trkpt lat="37.8806026" lon="13.3914373"><ele>756.0</ele><time>2026-05-05T07:12:42.565Z</time></trkpt><trkpt lat="37.8805316" lon="13.3914766"><ele>756.0</ele><time>2026-05-05T07:12:43.565Z</time></trkpt><trkpt lat="37.8804586" lon="13.3915083"><ele>756.0</ele><time>2026-05-05T07:12:44.565Z</time></trkpt><trkpt lat="37.8803887" lon="13.3915406"><ele>756.0</ele><time>2026-05-05T07:12:45.564Z</time></trkpt><trkpt lat="37.8803228" lon="13.3915697"><ele>756.0</ele><time>2026-05-05T07:12:46.566Z</time></trkpt><trkpt lat="37.8802581" lon="13.3915785"><ele>756.0</ele><time>2026-05-05T07:12:47.566Z</time></trkpt><trkpt lat="37.8801978" lon="13.3915545"><ele>756.0</ele><time>2026-05-05T07:12:48.566Z</time></trkpt><trkpt lat="37.8801133" lon="13.3914537"><ele>756.0</ele><time>2026-05-05T07:12:50.564Z</time></trkpt><trkpt lat="37.8801135" lon="13.391296"><ele>756.0</ele><time>2026-05-05T07:12:52.566Z</time></trkpt><trkpt lat="37.8801368" lon="13.3912081"><ele>756.0</ele><time>2026-05-05T07:12:53.565Z</time></trkpt><trkpt lat="37.8801793" lon="13.3911291"><ele>756.0</ele><time>2026-05-05T07:12:54.565Z</time></trkpt><trkpt lat="37.8802258" lon="13.3910574"><ele>754.0</ele><time>2026-05-05T07:12:55.565Z</time></trkpt><trkpt lat="37.8802574" lon="13.3909796"><ele>752.0</ele><time>2026-05-05T07:12:56.565Z</time></trkpt><trkpt lat="37.8802508" lon="13.3908304"><ele>750.0</ele><time>2026-05-05T07:12:58.564Z</time></trkpt><trkpt lat="37.8801504" lon="13.3907325"><ele>748.0</ele><time>2026-05-05T07:13:00.565Z</time></trkpt><trkpt lat="37.880069" lon="13.3907003"><ele>746.0</ele><time>2026-05-05T07:13:01.564Z</time></trkpt><trkpt lat="37.8799844" lon="13.3906562"><ele>746.0</ele><time>2026-05-05T07:13:02.567Z</time></trkpt><trkpt lat="37.879907" lon="13.3905955"><ele>746.0</ele><time>2026-05-05T07:13:03.565Z</time></trkpt><trkpt lat="37.8798468" lon="13.39052"><ele>746.0</ele><time>2026-05-05T07:13:04.564Z</time></trkpt><trkpt lat="37.8798059" lon="13.390444"><ele>746.0</ele><time>2026-05-05T07:13:05.564Z</time></trkpt><trkpt lat="37.8797736" lon="13.3903632"><ele>746.0</ele><time>2026-05-05T07:13:06.564Z</time></trkpt><trkpt lat="37.8797484" lon="13.3902839"><ele>746.0</ele><time>2026-05-05T07:13:07.565Z</time></trkpt><trkpt lat="37.8797277" lon="13.3902062"><ele>744.6666666666666</ele><time>2026-05-05T07:13:08.565Z</time></trkpt><trkpt lat="37.8797168" lon="13.3901251"><ele>743.3333333333333</ele><time>2026-05-05T07:13:09.566Z</time></trkpt><trkpt lat="37.879721" lon="13.3900418"><ele>742.0</ele><time>2026-05-05T07:13:10.565Z</time></trkpt><trkpt lat="37.8797345" lon="13.3899569"><ele>740.6666666666666</ele><time>2026-05-05T07:13:11.565Z</time></trkpt><trkpt lat="37.8797446" lon="13.3898759"><ele>739.3333333333334</ele><time>2026-05-05T07:13:12.565Z</time></trkpt><trkpt lat="37.8797601" lon="13.3897323"><ele>738.0</ele><time>2026-05-05T07:13:14.565Z</time></trkpt><trkpt lat="37.8797742" lon="13.3895913"><ele>737.8333333333334</ele><time>2026-05-05T07:13:16.564Z</time></trkpt><trkpt lat="37.8797718" lon="13.3894315"><ele>737.6666666666666</ele><time>2026-05-05T07:13:18.565Z</time></trkpt><trkpt lat="37.8797618" lon="13.3893464"><ele>737.5</ele><time>2026-05-05T07:13:19.566Z</time></trkpt><trkpt lat="37.8797484" lon="13.3892539"><ele>737.3333333333333</ele><time>2026-05-05T07:13:20.565Z</time></trkpt><trkpt lat="37.8797412" lon="13.3891604"><ele>737.1666666666666</ele><time>2026-05-05T07:13:21.565Z</time></trkpt><trkpt lat="37.8797467" lon="13.3890666"><ele>737.0</ele><time>2026-05-05T07:13:22.565Z</time></trkpt><trkpt lat="37.879775" lon="13.3889784"><ele>737.0</ele><time>2026-05-05T07:13:23.565Z</time></trkpt><trkpt lat="37.8798158" lon="13.3888955"><ele>737.0</ele><time>2026-05-05T07:13:24.565Z</time></trkpt><trkpt lat="37.879879" lon="13.3888169"><ele>737.0</ele><time>2026-05-05T07:13:25.565Z</time></trkpt><trkpt lat="37.8799556" lon="13.3887484"><ele>737.0</ele><time>2026-05-05T07:13:26.566Z</time></trkpt><trkpt lat="37.8800373" lon="13.3886825"><ele>737.0</ele><time>2026-05-05T07:13:27.567Z</time></trkpt><trkpt lat="37.8801167" lon="13.3886123"><ele>732.75</ele><time>2026-05-05T07:13:28.565Z</time></trkpt><trkpt lat="37.8801932" lon="13.3885305"><ele>728.5</ele><time>2026-05-05T07:13:29.565Z</time></trkpt><trkpt lat="37.8802367" lon="13.3884155"><ele>724.25</ele><time>2026-05-05T07:13:30.565Z</time></trkpt><trkpt lat="37.8802763" lon="13.3882507"><ele>720.0</ele><time>2026-05-05T07:13:31.566Z</time></trkpt><trkpt lat="37.8803244" lon="13.3880603"><ele>720.75</ele><time>2026-05-05T07:13:32.566Z</time></trkpt><trkpt lat="37.8803823" lon="13.3878698"><ele>721.5</ele><time>2026-05-05T07:13:33.565Z</time></trkpt><trkpt lat="37.880438" lon="13.3876977"><ele>722.25</ele><time>2026-05-05T07:13:34.564Z</time></trkpt><trkpt lat="37.8804861" lon="13.3875559"><ele>723.0</ele><time>2026-05-05T07:13:35.566Z</time></trkpt><trkpt lat="37.8805204" lon="13.387444"><ele>723.0</ele><time>2026-05-05T07:13:36.565Z</time></trkpt><trkpt lat="37.8805362" lon="13.3873397"><ele>723.0</ele><time>2026-05-05T07:13:37.565Z</time></trkpt><trkpt lat="37.8805299" lon="13.3872294"><ele>723.0</ele><time>2026-05-05T07:13:38.565Z</time></trkpt><trkpt lat="37.8804991" lon="13.3871171"><ele>723.0</ele><time>2026-05-05T07:13:39.565Z</time></trkpt><trkpt lat="37.8804393" lon="13.3870111"><ele>723.0</ele><time>2026-05-05T07:13:40.564Z</time></trkpt><trkpt lat="37.8803533" lon="13.3869023"><ele>722.0</ele><time>2026-05-05T07:13:41.565Z</time></trkpt><trkpt lat="37.8802697" lon="13.3867804"><ele>721.0</ele><time>2026-05-05T07:13:42.565Z</time></trkpt><trkpt lat="37.880198" lon="13.3866406"><ele>720.0</ele><time>2026-05-05T07:13:43.565Z</time></trkpt><trkpt lat="37.8801382" lon="13.3864933"><ele>719.0</ele><time>2026-05-05T07:13:44.566Z</time></trkpt><trkpt lat="37.8800796" lon="13.3863554"><ele>719.6</ele><time>2026-05-05T07:13:45.565Z</time></trkpt><trkpt lat="37.88002" lon="13.3862331"><ele>720.2</ele><time>2026-05-05T07:13:46.564Z</time></trkpt><trkpt lat="37.879971" lon="13.3861194"><ele>720.8000000000001</ele><time>2026-05-05T07:13:47.566Z</time></trkpt><trkpt lat="37.8799334" lon="13.386011"><ele>721.4000000000001</ele><time>2026-05-05T07:13:48.566Z</time></trkpt><trkpt lat="37.8799134" lon="13.3858984"><ele>722.0</ele><time>2026-05-05T07:13:49.564Z</time></trkpt><trkpt lat="37.8799085" lon="13.3857492"><ele>722.0</ele><time>2026-05-05T07:13:50.564Z</time></trkpt><trkpt lat="37.879906" lon="13.3855886"><ele>722.0</ele><time>2026-05-05T07:13:51.564Z</time></trkpt><trkpt lat="37.8798971" lon="13.3854317"><ele>722.0</ele><time>2026-05-05T07:13:52.565Z</time></trkpt><trkpt lat="37.8798835" lon="13.3852876"><ele>722.0</ele><time>2026-05-05T07:13:53.564Z</time></trkpt><trkpt lat="37.8798677" lon="13.3851555"><ele>721.0</ele><time>2026-05-05T07:13:54.565Z</time></trkpt><trkpt lat="37.8798596" lon="13.3850312"><ele>720.0</ele><time>2026-05-05T07:13:55.564Z</time></trkpt><trkpt lat="37.8798657" lon="13.3849139"><ele>719.0</ele><time>2026-05-05T07:13:56.565Z</time></trkpt><trkpt lat="37.8798898" lon="13.3847923"><ele>718.0</ele><time>2026-05-05T07:13:57.565Z</time></trkpt><trkpt lat="37.8799331" lon="13.3846572"><ele>717.0</ele><time>2026-05-05T07:13:58.565Z</time></trkpt><trkpt lat="37.8799775" lon="13.3845178"><ele>716.6</ele><time>2026-05-05T07:13:59.565Z</time></trkpt><trkpt lat="37.8800184" lon="13.3843841"><ele>716.2</ele><time>2026-05-05T07:14:00.563Z</time></trkpt><trkpt lat="37.8800564" lon="13.3842604"><ele>715.8</ele><time>2026-05-05T07:14:01.565Z</time></trkpt><trkpt lat="37.8800919" lon="13.3841458"><ele>715.4</ele><time>2026-05-05T07:14:02.565Z</time></trkpt><trkpt lat="37.8801201" lon="13.3840385"><ele>715.0</ele><time>2026-05-05T07:14:03.565Z</time></trkpt><trkpt lat="37.8801439" lon="13.3839353"><ele>713.1666666666667</ele><time>2026-05-05T07:14:04.565Z</time></trkpt><trkpt lat="37.8801628" lon="13.3838339"><ele>711.3333333333334</ele><time>2026-05-05T07:14:05.565Z</time></trkpt><trkpt lat="37.880179" lon="13.383725"><ele>709.5</ele><time>2026-05-05T07:14:06.563Z</time></trkpt><trkpt lat="37.8801921" lon="13.3836138"><ele>707.6666666666666</ele><time>2026-05-05T07:14:07.565Z</time></trkpt><trkpt lat="37.8802011" lon="13.3835061"><ele>705.8333333333333</ele><time>2026-05-05T07:14:08.566Z</time></trkpt><trkpt lat="37.8802097" lon="13.3834027"><ele>704.0</ele><time>2026-05-05T07:14:09.564Z</time></trkpt><trkpt lat="37.8802161" lon="13.383294"><ele>704.0</ele><time>2026-05-05T07:14:10.564Z</time></trkpt><trkpt lat="37.8802094" lon="13.383179"><ele>704.0</ele><time>2026-05-05T07:14:11.565Z</time></trkpt><trkpt lat="37.8801857" lon="13.3830679"><ele>704.0</ele><time>2026-05-05T07:14:12.565Z</time></trkpt><trkpt lat="37.8801455" lon="13.3829616"><ele>704.0</ele><time>2026-05-05T07:14:13.564Z</time></trkpt><trkpt lat="37.8801089" lon="13.3828641"><ele>704.0</ele><time>2026-05-05T07:14:14.566Z</time></trkpt><trkpt lat="37.8800798" lon="13.3827725"><ele>704.0</ele><time>2026-05-05T07:14:15.564Z</time></trkpt><trkpt lat="37.8800529" lon="13.3826895"><ele>704.5</ele><time>2026-05-05T07:14:16.564Z</time></trkpt><trkpt lat="37.8800305" lon="13.3826098"><ele>705.0</ele><time>2026-05-05T07:14:17.565Z</time></trkpt><trkpt lat="37.8800091" lon="13.3825333"><ele>705.5</ele><time>2026-05-05T07:14:18.564Z</time></trkpt><trkpt lat="37.8799916" lon="13.382456"><ele>706.0</ele><time>2026-05-05T07:14:19.564Z</time></trkpt><trkpt lat="37.8799731" lon="13.3823089"><ele>706.5</ele><time>2026-05-05T07:14:21.563Z</time></trkpt><trkpt lat="37.8799424" lon="13.3821525"><ele>707.0</ele><time>2026-05-05T07:14:23.564Z</time></trkpt><trkpt lat="37.8799136" lon="13.3820752"><ele>707.0</ele><time>2026-05-05T07:14:24.565Z</time></trkpt><trkpt lat="37.8798776" lon="13.3819993"><ele>707.0</ele><time>2026-05-05T07:14:25.564Z</time></trkpt><trkpt lat="37.8798494" lon="13.3819185"><ele>707.0</ele><time>2026-05-05T07:14:26.565Z</time></trkpt><trkpt lat="37.8798322" lon="13.3818235"><ele>707.0</ele><time>2026-05-05T07:14:27.565Z</time></trkpt><trkpt lat="37.8798319" lon="13.3817159"><ele>707.0</ele><time>2026-05-05T07:14:28.565Z</time></trkpt><trkpt lat="37.8798498" lon="13.3816001"><ele>707.0</ele><time>2026-05-05T07:14:29.565Z</time></trkpt><trkpt lat="37.879885" lon="13.3814786"><ele>707.0</ele><time>2026-05-05T07:14:30.564Z</time></trkpt><trkpt lat="37.8799456" lon="13.3813522"><ele>707.0</ele><time>2026-05-05T07:14:31.566Z</time></trkpt><trkpt lat="37.8800167" lon="13.3812284"><ele>707.0</ele><time>2026-05-05T07:14:32.565Z</time></trkpt><trkpt lat="37.8800924" lon="13.3811115"><ele>707.0</ele><time>2026-05-05T07:14:33.565Z</time></trkpt><trkpt lat="37.8801638" lon="13.3810069"><ele>706.0</ele><time>2026-05-05T07:14:34.563Z</time></trkpt><trkpt lat="37.8802273" lon="13.3809152"><ele>705.0</ele><time>2026-05-05T07:14:35.565Z</time></trkpt><trkpt lat="37.8802806" lon="13.3808437"><ele>704.0</ele><time>2026-05-05T07:14:36.565Z</time></trkpt><trkpt lat="37.8803512" lon="13.3807566"><ele>703.0</ele><time>2026-05-05T07:14:38.564Z</time></trkpt><trkpt lat="37.8803796" lon="13.3806817"><ele>702.0</ele><time>2026-05-05T07:15:23.564Z</time></trkpt><trkpt lat="37.8803771" lon="13.3805882"><ele>701.0</ele><time>2026-05-05T07:15:25.565Z</time></trkpt><trkpt lat="37.8803341" lon="13.3804773"><ele>701.0</ele><time>2026-05-05T07:15:27.565Z</time></trkpt><trkpt lat="37.8802269" lon="13.3804105"><ele>701.0</ele><time>2026-05-05T07:15:29.564Z</time></trkpt><trkpt lat="37.880157" lon="13.3803818"><ele>701.0</ele><time>2026-05-05T07:15:30.564Z</time></trkpt><trkpt lat="37.8800831" lon="13.3803626"><ele>701.0</ele><time>2026-05-05T07:15:31.565Z</time></trkpt><trkpt lat="37.880001" lon="13.3803681"><ele>701.0</ele><time>2026-05-05T07:15:32.565Z</time></trkpt><trkpt lat="37.8799119" lon="13.3804032"><ele>701.0</ele><time>2026-05-05T07:15:33.566Z</time></trkpt><trkpt lat="37.8798186" lon="13.3804587"><ele>702.8</ele><time>2026-05-05T07:15:34.564Z</time></trkpt><trkpt lat="37.8797254" lon="13.3805205"><ele>704.5999999999999</ele><time>2026-05-05T07:15:35.567Z</time></trkpt><trkpt lat="37.8796305" lon="13.3805816"><ele>706.4</ele><time>2026-05-05T07:15:36.565Z</time></trkpt><trkpt lat="37.8795364" lon="13.3806467"><ele>708.2</ele><time>2026-05-05T07:15:37.566Z</time></trkpt><trkpt lat="37.8794378" lon="13.3807122"><ele>710.0</ele><time>2026-05-05T07:15:38.565Z</time></trkpt><trkpt lat="37.8793361" lon="13.3807719"><ele>712.75</ele><time>2026-05-05T07:15:39.564Z</time></trkpt><trkpt lat="37.8792323" lon="13.380831"><ele>715.5</ele><time>2026-05-05T07:15:40.565Z</time></trkpt><trkpt lat="37.8791262" lon="13.3808955"><ele>718.25</ele><time>2026-05-05T07:15:41.566Z</time></trkpt><trkpt lat="37.8790207" lon="13.3809649"><ele>721.0</ele><time>2026-05-05T07:15:42.565Z</time></trkpt><trkpt lat="37.8789131" lon="13.3810301"><ele>721.0</ele><time>2026-05-05T07:15:43.565Z</time></trkpt><trkpt lat="37.8788087" lon="13.3810924"><ele>721.0</ele><time>2026-05-05T07:15:44.565Z</time></trkpt><trkpt lat="37.8787077" lon="13.3811565"><ele>721.0</ele><time>2026-05-05T07:15:45.565Z</time></trkpt><trkpt lat="37.8786025" lon="13.3812148"><ele>721.0</ele><time>2026-05-05T07:15:46.564Z</time></trkpt><trkpt lat="37.8785009" lon="13.3812727"><ele>722.25</ele><time>2026-05-05T07:15:47.565Z</time></trkpt><trkpt lat="37.8783917" lon="13.3813281"><ele>723.5</ele><time>2026-05-05T07:15:48.565Z</time></trkpt><trkpt lat="37.8782802" lon="13.3813854"><ele>724.75</ele><time>2026-05-05T07:15:49.564Z</time></trkpt><trkpt lat="37.8781685" lon="13.3814422"><ele>726.0</ele><time>2026-05-05T07:15:50.566Z</time></trkpt><trkpt lat="37.8780592" lon="13.3814985"><ele>727.5</ele><time>2026-05-05T07:15:51.564Z</time></trkpt><trkpt lat="37.8779518" lon="13.3815524"><ele>729.0</ele><time>2026-05-05T07:15:52.563Z</time></trkpt><trkpt lat="37.8778422" lon="13.3816044"><ele>730.5</ele><time>2026-05-05T07:15:53.565Z</time></trkpt><trkpt lat="37.8777307" lon="13.3816558"><ele>732.0</ele><time>2026-05-05T07:15:54.565Z</time></trkpt><trkpt lat="37.8776175" lon="13.3817084"><ele>734.25</ele><time>2026-05-05T07:15:55.565Z</time></trkpt><trkpt lat="37.8775039" lon="13.3817602"><ele>736.5</ele><time>2026-05-05T07:15:56.566Z</time></trkpt><trkpt lat="37.8773934" lon="13.3818164"><ele>738.75</ele><time>2026-05-05T07:15:57.564Z</time></trkpt><trkpt lat="37.8772906" lon="13.3818887"><ele>741.0</ele><time>2026-05-05T07:15:58.565Z</time></trkpt><trkpt lat="37.877208" lon="13.3819841"><ele>741.0</ele><time>2026-05-05T07:15:59.565Z</time></trkpt><trkpt lat="37.8771389" lon="13.3820939"><ele>741.0</ele><time>2026-05-05T07:16:00.565Z</time></trkpt><trkpt lat="37.8770749" lon="13.3821962"><ele>741.0</ele><time>2026-05-05T07:16:01.563Z</time></trkpt><trkpt lat="37.8770075" lon="13.3822675"><ele>741.0</ele><time>2026-05-05T07:16:02.566Z</time></trkpt><trkpt lat="37.8769358" lon="13.3823094"><ele>741.0</ele><time>2026-05-05T07:16:03.565Z</time></trkpt><trkpt lat="37.8768493" lon="13.3822988"><ele>742.5999999999999</ele><time>2026-05-05T07:16:04.565Z</time></trkpt><trkpt lat="37.8767566" lon="13.3822552"><ele>744.2</ele><time>2026-05-05T07:16:05.564Z</time></trkpt><trkpt lat="37.876656" lon="13.3821988"><ele>745.8</ele><time>2026-05-05T07:16:06.564Z</time></trkpt><trkpt lat="37.8765503" lon="13.3821491"><ele>747.4000000000001</ele><time>2026-05-05T07:16:07.565Z</time></trkpt><trkpt lat="37.8764415" lon="13.3821124"><ele>749.0</ele><time>2026-05-05T07:16:08.566Z</time></trkpt><trkpt lat="37.8763312" lon="13.3820904"><ele>749.0</ele><time>2026-05-05T07:16:09.565Z</time></trkpt><trkpt lat="37.8762167" lon="13.3820864"><ele>749.0</ele><time>2026-05-05T07:16:10.566Z</time></trkpt><trkpt lat="37.8760986" lon="13.3820922"><ele>749.0</ele><time>2026-05-05T07:16:11.565Z</time></trkpt><trkpt lat="37.8759796" lon="13.3821029"><ele>749.0</ele><time>2026-05-05T07:16:12.565Z</time></trkpt><trkpt lat="37.875858" lon="13.3821176"><ele>751.5</ele><time>2026-05-05T07:16:13.564Z</time></trkpt><trkpt lat="37.8757333" lon="13.382132"><ele>754.0</ele><time>2026-05-05T07:16:14.563Z</time></trkpt><trkpt lat="37.8756093" lon="13.3821422"><ele>756.5</ele><time>2026-05-05T07:16:15.564Z</time></trkpt><trkpt lat="37.8754896" lon="13.3821533"><ele>759.0</ele><time>2026-05-05T07:16:16.564Z</time></trkpt><trkpt lat="37.8753724" lon="13.3821667"><ele>759.75</ele><time>2026-05-05T07:16:17.565Z</time></trkpt><trkpt lat="37.87526" lon="13.3821842"><ele>760.5</ele><time>2026-05-05T07:16:18.565Z</time></trkpt><trkpt lat="37.8751489" lon="13.3822069"><ele>761.25</ele><time>2026-05-05T07:16:19.565Z</time></trkpt><trkpt lat="37.875034" lon="13.3822297"><ele>762.0</ele><time>2026-05-05T07:16:20.566Z</time></trkpt><trkpt lat="37.8749216" lon="13.3822577"><ele>764.5</ele><time>2026-05-05T07:16:21.566Z</time></trkpt><trkpt lat="37.8748059" lon="13.3822917"><ele>767.0</ele><time>2026-05-05T07:16:22.565Z</time></trkpt><trkpt lat="37.8746879" lon="13.3823329"><ele>769.5</ele><time>2026-05-05T07:16:23.565Z</time></trkpt><trkpt lat="37.8745666" lon="13.3823793"><ele>772.0</ele><time>2026-05-05T07:16:24.565Z</time></trkpt><trkpt lat="37.8744404" lon="13.3824294"><ele>772.0</ele><time>2026-05-05T07:16:25.566Z</time></trkpt><trkpt lat="37.8743133" lon="13.3824814"><ele>772.0</ele><time>2026-05-05T07:16:26.567Z</time></trkpt><trkpt lat="37.8741847" lon="13.3825349"><ele>772.0</ele><time>2026-05-05T07:16:27.565Z</time></trkpt><trkpt lat="37.8740542" lon="13.3825888"><ele>772.0</ele><time>2026-05-05T07:16:28.564Z</time></trkpt><trkpt lat="37.8739238" lon="13.3826497"><ele>773.75</ele><time>2026-05-05T07:16:29.565Z</time></trkpt><trkpt lat="37.8737964" lon="13.3827146"><ele>775.5</ele><time>2026-05-05T07:16:30.564Z</time></trkpt><trkpt lat="37.8736709" lon="13.3827814"><ele>777.25</ele><time>2026-05-05T07:16:31.565Z</time></trkpt><trkpt lat="37.8735449" lon="13.3828498"><ele>779.0</ele><time>2026-05-05T07:16:32.565Z</time></trkpt><trkpt lat="37.8734211" lon="13.382924"><ele>781.25</ele><time>2026-05-05T07:16:33.565Z</time></trkpt><trkpt lat="37.8733008" lon="13.3830105"><ele>783.5</ele><time>2026-05-05T07:16:34.564Z</time></trkpt><trkpt lat="37.8731894" lon="13.3831146"><ele>785.75</ele><time>2026-05-05T07:16:35.564Z</time></trkpt><trkpt lat="37.8730953" lon="13.3832342"><ele>788.0</ele><time>2026-05-05T07:16:36.564Z</time></trkpt><trkpt lat="37.8730259" lon="13.3833573"><ele>788.4</ele><time>2026-05-05T07:16:37.565Z</time></trkpt><trkpt lat="37.8729849" lon="13.3834781"><ele>788.8</ele><time>2026-05-05T07:16:38.565Z</time></trkpt><trkpt lat="37.8729716" lon="13.3836009"><ele>789.2</ele><time>2026-05-05T07:16:39.565Z</time></trkpt><trkpt lat="37.8729784" lon="13.3837377"><ele>789.6</ele><time>2026-05-05T07:16:40.564Z</time></trkpt><trkpt lat="37.8729977" lon="13.3838933"><ele>790.0</ele><time>2026-05-05T07:16:41.564Z</time></trkpt><trkpt lat="37.8730175" lon="13.384065"><ele>791.25</ele><time>2026-05-05T07:16:42.564Z</time></trkpt><trkpt lat="37.8730384" lon="13.3842487"><ele>792.5</ele><time>2026-05-05T07:16:43.565Z</time></trkpt><trkpt lat="37.8730609" lon="13.384437"><ele>793.75</ele><time>2026-05-05T07:16:44.566Z</time></trkpt><trkpt lat="37.873082" lon="13.3846262"><ele>795.0</ele><time>2026-05-05T07:16:45.564Z</time></trkpt><trkpt lat="37.8731002" lon="13.3848114"><ele>797.0</ele><time>2026-05-05T07:16:46.565Z</time></trkpt><trkpt lat="37.87312" lon="13.3849936"><ele>799.0</ele><time>2026-05-05T07:16:47.565Z</time></trkpt><trkpt lat="37.8731402" lon="13.3851739"><ele>801.0</ele><time>2026-05-05T07:16:48.568Z</time></trkpt><trkpt lat="37.8731606" lon="13.3853519"><ele>803.0</ele><time>2026-05-05T07:16:49.565Z</time></trkpt><trkpt lat="37.8731808" lon="13.3855314"><ele>804.25</ele><time>2026-05-05T07:16:50.565Z</time></trkpt><trkpt lat="37.8732007" lon="13.3857113"><ele>805.5</ele><time>2026-05-05T07:16:51.564Z</time></trkpt><trkpt lat="37.8732125" lon="13.3858888"><ele>806.75</ele><time>2026-05-05T07:16:52.564Z</time></trkpt><trkpt lat="37.8732043" lon="13.3860472"><ele>808.0</ele><time>2026-05-05T07:16:53.565Z</time></trkpt><trkpt lat="37.8731662" lon="13.3861759"><ele>808.0</ele><time>2026-05-05T07:16:54.564Z</time></trkpt><trkpt lat="37.8731022" lon="13.3862708"><ele>808.0</ele><time>2026-05-05T07:16:55.564Z</time></trkpt><trkpt lat="37.873014" lon="13.3863281"><ele>808.0</ele><time>2026-05-05T07:16:56.565Z</time></trkpt><trkpt lat="37.8729073" lon="13.3863435"><ele>808.0</ele><time>2026-05-05T07:16:57.564Z</time></trkpt><trkpt lat="37.8727971" lon="13.3863255"><ele>808.0</ele><time>2026-05-05T07:16:58.565Z</time></trkpt><trkpt lat="37.8726891" lon="13.3862763"><ele>810.25</ele><time>2026-05-05T07:16:59.565Z</time></trkpt><trkpt lat="37.8725819" lon="13.3861983"><ele>812.5</ele><time>2026-05-05T07:17:00.563Z</time></trkpt><trkpt lat="37.8724728" lon="13.3861073"><ele>814.75</ele><time>2026-05-05T07:17:01.565Z</time></trkpt><trkpt lat="37.8723581" lon="13.3860264"><ele>817.0</ele><time>2026-05-05T07:17:02.565Z</time></trkpt><trkpt lat="37.8722381" lon="13.3859658"><ele>817.0</ele><time>2026-05-05T07:17:03.564Z</time></trkpt><trkpt lat="37.8721092" lon="13.3859252"><ele>817.0</ele><time>2026-05-05T07:17:04.564Z</time></trkpt><trkpt lat="37.8719724" lon="13.3858991"><ele>817.0</ele><time>2026-05-05T07:17:05.565Z</time></trkpt><trkpt lat="37.8718318" lon="13.3858773"><ele>817.0</ele><time>2026-05-05T07:17:06.564Z</time></trkpt><trkpt lat="37.8716908" lon="13.3858568"><ele>820.0</ele><time>2026-05-05T07:17:07.564Z</time></trkpt><trkpt lat="37.8715511" lon="13.3858345"><ele>823.0</ele><time>2026-05-05T07:17:08.565Z</time></trkpt><trkpt lat="37.8714095" lon="13.3858061"><ele>826.0</ele><time>2026-05-05T07:17:09.564Z</time></trkpt><trkpt lat="37.8712687" lon="13.3857743"><ele>829.0</ele><time>2026-05-05T07:17:10.564Z</time></trkpt><trkpt lat="37.8711314" lon="13.385745"><ele>829.0</ele><time>2026-05-05T07:17:11.565Z</time></trkpt><trkpt lat="37.8709949" lon="13.3857182"><ele>829.0</ele><time>2026-05-05T07:17:12.564Z</time></trkpt><trkpt lat="37.8708596" lon="13.3856918"><ele>829.0</ele><time>2026-05-05T07:17:13.564Z</time></trkpt><trkpt lat="37.870726" lon="13.3856584"><ele>829.0</ele><time>2026-05-05T07:17:14.565Z</time></trkpt><trkpt lat="37.8705943" lon="13.385615"><ele>830.25</ele><time>2026-05-05T07:17:15.564Z</time></trkpt><trkpt lat="37.870467" lon="13.3855633"><ele>831.5</ele><time>2026-05-05T07:17:16.566Z</time></trkpt><trkpt lat="37.8703447" lon="13.3855137"><ele>832.75</ele><time>2026-05-05T07:17:17.565Z</time></trkpt><trkpt lat="37.8702218" lon="13.3854751"><ele>834.0</ele><time>2026-05-05T07:17:18.563Z</time></trkpt><trkpt lat="37.8700961" lon="13.3854425"><ele>836.75</ele><time>2026-05-05T07:17:19.565Z</time></trkpt><trkpt lat="37.869971" lon="13.3853976"><ele>839.5</ele><time>2026-05-05T07:17:20.566Z</time></trkpt><trkpt lat="37.8698542" lon="13.385325"><ele>842.25</ele><time>2026-05-05T07:17:21.564Z</time></trkpt><trkpt lat="37.8697461" lon="13.3852287"><ele>845.0</ele><time>2026-05-05T07:17:22.565Z</time></trkpt><trkpt lat="37.8696429" lon="13.3851278"><ele>845.0</ele><time>2026-05-05T07:17:23.565Z</time></trkpt><trkpt lat="37.8695405" lon="13.3850459"><ele>845.0</ele><time>2026-05-05T07:17:24.565Z</time></trkpt><trkpt lat="37.8694435" lon="13.3849996"><ele>845.0</ele><time>2026-05-05T07:17:25.564Z</time></trkpt><trkpt lat="37.8693466" lon="13.3849968"><ele>845.0</ele><time>2026-05-05T07:17:26.565Z</time></trkpt><trkpt lat="37.8692508" lon="13.3850203"><ele>845.0</ele><time>2026-05-05T07:17:27.565Z</time></trkpt><trkpt lat="37.8691563" lon="13.3850616"><ele>847.4</ele><time>2026-05-05T07:17:28.564Z</time></trkpt><trkpt lat="37.8690619" lon="13.3851142"><ele>849.8</ele><time>2026-05-05T07:17:29.564Z</time></trkpt><trkpt lat="37.8689724" lon="13.3851745"><ele>852.2</ele><time>2026-05-05T07:17:30.565Z</time></trkpt><trkpt lat="37.8688914" lon="13.3852476"><ele>854.6</ele><time>2026-05-05T07:17:31.563Z</time></trkpt><trkpt lat="37.8688236" lon="13.3853397"><ele>857.0</ele><time>2026-05-05T07:17:32.564Z</time></trkpt><trkpt lat="37.8687718" lon="13.3854569"><ele>857.75</ele><time>2026-05-05T07:17:33.564Z</time></trkpt><trkpt lat="37.868732" lon="13.3855947"><ele>858.5</ele><time>2026-05-05T07:17:34.563Z</time></trkpt><trkpt lat="37.8686914" lon="13.3857503"><ele>859.25</ele><time>2026-05-05T07:17:35.563Z</time></trkpt><trkpt lat="37.8686466" lon="13.3859172"><ele>860.0</ele><time>2026-05-05T07:17:36.564Z</time></trkpt><trkpt lat="37.8686003" lon="13.3860932"><ele>860.0</ele><time>2026-05-05T07:17:37.565Z</time></trkpt><trkpt lat="37.8685539" lon="13.3862742"><ele>860.0</ele><time>2026-05-05T07:17:38.564Z</time></trkpt><trkpt lat="37.8685073" lon="13.3864584"><ele>860.0</ele><time>2026-05-05T07:17:39.564Z</time></trkpt><trkpt lat="37.8684618" lon="13.3866404"><ele>863.25</ele><time>2026-05-05T07:17:40.564Z</time></trkpt><trkpt lat="37.8684169" lon="13.3868213"><ele>866.5</ele><time>2026-05-05T07:17:41.565Z</time></trkpt><trkpt lat="37.8683681" lon="13.3869975"><ele>869.75</ele><time>2026-05-05T07:17:42.565Z</time></trkpt><trkpt lat="37.8683151" lon="13.3871693"><ele>873.0</ele><time>2026-05-05T07:17:43.566Z</time></trkpt><trkpt lat="37.8682556" lon="13.387336"><ele>874.25</ele><time>2026-05-05T07:17:44.565Z</time></trkpt><trkpt lat="37.8681907" lon="13.3874976"><ele>875.5</ele><time>2026-05-05T07:17:45.564Z</time></trkpt><trkpt lat="37.868126" lon="13.3876532"><ele>876.75</ele><time>2026-05-05T07:17:46.564Z</time></trkpt><trkpt lat="37.8680593" lon="13.3878006"><ele>878.0</ele><time>2026-05-05T07:17:47.564Z</time></trkpt><trkpt lat="37.8679908" lon="13.3879436"><ele>879.4</ele><time>2026-05-05T07:17:48.564Z</time></trkpt><trkpt lat="37.8679234" lon="13.3880749"><ele>880.8</ele><time>2026-05-05T07:17:49.563Z</time></trkpt><trkpt lat="37.8678621" lon="13.3881872"><ele>882.2</ele><time>2026-05-05T07:17:50.565Z</time></trkpt><trkpt lat="37.8678051" lon="13.3882772"><ele>883.6</ele><time>2026-05-05T07:17:51.564Z</time></trkpt><trkpt lat="37.8677438" lon="13.3883398"><ele>885.0</ele><time>2026-05-05T07:17:52.565Z</time></trkpt><trkpt lat="37.8676745" lon="13.3883752"><ele>887.1666666666666</ele><time>2026-05-05T07:17:53.565Z</time></trkpt><trkpt lat="37.8675988" lon="13.3883867"><ele>889.3333333333333</ele><time>2026-05-05T07:17:54.565Z</time></trkpt><trkpt lat="37.8675215" lon="13.3883795"><ele>891.5</ele><time>2026-05-05T07:17:55.563Z</time></trkpt><trkpt lat="37.8674454" lon="13.3883435"><ele>893.6666666666666</ele><time>2026-05-05T07:17:56.565Z</time></trkpt><trkpt lat="37.86738" lon="13.3882717"><ele>895.8333333333333</ele><time>2026-05-05T07:17:57.565Z</time></trkpt><trkpt lat="37.8673216" lon="13.3881818"><ele>898.0</ele><time>2026-05-05T07:17:58.565Z</time></trkpt><trkpt lat="37.8672625" lon="13.388073"><ele>896.9999999999999</ele><time>2026-05-05T07:17:59.564Z</time></trkpt><trkpt lat="37.8672017" lon="13.387955"><ele>896.0</ele><time>2026-05-05T07:18:00.563Z</time></trkpt><trkpt lat="37.8671364" lon="13.3878526"><ele>895.0</ele><time>2026-05-05T07:18:01.564Z</time></trkpt><trkpt lat="37.8670676" lon="13.3877761"><ele>894.0</ele><time>2026-05-05T07:18:02.565Z</time></trkpt><trkpt lat="37.8670007" lon="13.3877257"><ele>892.9999999999999</ele><time>2026-05-05T07:18:03.565Z</time></trkpt><trkpt lat="37.8669454" lon="13.3876869"><ele>892.0</ele><time>2026-05-05T07:18:04.565Z</time></trkpt><trkpt lat="37.8668543" lon="13.3876342"><ele>891.9999999999999</ele><time>2026-05-05T07:18:06.563Z</time></trkpt><trkpt lat="37.8667831" lon="13.3876029"><ele>892.0</ele><time>2026-05-05T07:18:08.565Z</time></trkpt><trkpt lat="37.8667096" lon="13.3875758"><ele>892.0</ele><time>2026-05-05T07:18:10.565Z</time></trkpt><trkpt lat="37.866632" lon="13.3875827"><ele>892.0</ele><time>2026-05-05T07:18:12.565Z</time></trkpt><trkpt lat="37.8665837" lon="13.3876526"><ele>891.9999999999999</ele><time>2026-05-05T07:18:14.564Z</time></trkpt><trkpt lat="37.8666087" lon="13.3877722"><ele>892.0</ele><time>2026-05-05T07:18:16.564Z</time></trkpt><trkpt lat="37.866706" lon="13.3878909"><ele>893.2</ele><time>2026-05-05T07:18:18.564Z</time></trkpt><trkpt lat="37.8667631" lon="13.3879663"><ele>894.4000000000001</ele><time>2026-05-05T07:18:19.562Z</time></trkpt><trkpt lat="37.8668205" lon="13.3880557"><ele>895.5999999999999</ele><time>2026-05-05T07:18:20.565Z</time></trkpt><trkpt lat="37.8668765" lon="13.3881572"><ele>896.8</ele><time>2026-05-05T07:18:21.563Z</time></trkpt><trkpt lat="37.8669372" lon="13.3882696"><ele>898.0</ele><time>2026-05-05T07:18:22.564Z</time></trkpt><trkpt lat="37.8670007" lon="13.3883902"><ele>898.0</ele><time>2026-05-05T07:18:23.565Z</time></trkpt><trkpt lat="37.867064" lon="13.3885151"><ele>898.0</ele><time>2026-05-05T07:18:24.564Z</time></trkpt><trkpt lat="37.8671253" lon="13.3886425"><ele>898.0</ele><time>2026-05-05T07:18:25.564Z</time></trkpt><trkpt lat="37.8671811" lon="13.3887687"><ele>898.0</ele><time>2026-05-05T07:18:26.563Z</time></trkpt><trkpt lat="37.8672373" lon="13.3888957"><ele>899.0</ele><time>2026-05-05T07:18:27.565Z</time></trkpt><trkpt lat="37.8672925" lon="13.3890303"><ele>900.0</ele><time>2026-05-05T07:18:28.564Z</time></trkpt><trkpt lat="37.8673439" lon="13.3891653"><ele>901.0</ele><time>2026-05-05T07:18:29.565Z</time></trkpt><trkpt lat="37.8673933" lon="13.389293"><ele>902.0</ele><time>2026-05-05T07:18:30.565Z</time></trkpt><trkpt lat="37.8674399" lon="13.3894131"><ele>902.0000000000001</ele><time>2026-05-05T07:18:31.564Z</time></trkpt><trkpt lat="37.8674887" lon="13.3895227"><ele>902.0</ele><time>2026-05-05T07:18:32.564Z</time></trkpt><trkpt lat="37.8675469" lon="13.3896146"><ele>902.0</ele><time>2026-05-05T07:18:33.564Z</time></trkpt><trkpt lat="37.8676116" lon="13.3896882"><ele>902.0</ele><time>2026-05-05T07:18:34.565Z</time></trkpt><trkpt lat="37.8676719" lon="13.3897431"><ele>902.0000000000001</ele><time>2026-05-05T07:18:35.564Z</time></trkpt><trkpt lat="37.867728" lon="13.3897926"><ele>902.0</ele><time>2026-05-05T07:18:36.564Z</time></trkpt><trkpt lat="37.8677803" lon="13.3898443"><ele>901.3333333333334</ele><time>2026-05-05T07:18:37.565Z</time></trkpt><trkpt lat="37.8678311" lon="13.3898999"><ele>900.6666666666667</ele><time>2026-05-05T07:18:38.565Z</time></trkpt><trkpt lat="37.8678873" lon="13.3899564"><ele>900.0</ele><time>2026-05-05T07:18:39.563Z</time></trkpt><trkpt lat="37.8679473" lon="13.3900151"><ele>899.3333333333333</ele><time>2026-05-05T07:18:40.565Z</time></trkpt><trkpt lat="37.8680127" lon="13.3900779"><ele>898.6666666666666</ele><time>2026-05-05T07:18:41.565Z</time></trkpt><trkpt lat="37.8680806" lon="13.390137"><ele>898.0</ele><time>2026-05-05T07:18:42.564Z</time></trkpt><trkpt lat="37.8681492" lon="13.3901935"><ele>897.9999999999999</ele><time>2026-05-05T07:18:43.565Z</time></trkpt><trkpt lat="37.8682108" lon="13.3902523"><ele>898.0</ele><time>2026-05-05T07:18:44.565Z</time></trkpt><trkpt lat="37.8682631" lon="13.3903235"><ele>898.0</ele><time>2026-05-05T07:18:45.564Z</time></trkpt><trkpt lat="37.8683024" lon="13.3904087"><ele>898.0</ele><time>2026-05-05T07:18:46.565Z</time></trkpt><trkpt lat="37.8683346" lon="13.3904984"><ele>897.9999999999999</ele><time>2026-05-05T07:18:47.564Z</time></trkpt><trkpt lat="37.8683645" lon="13.3905871"><ele>898.0</ele><time>2026-05-05T07:18:48.565Z</time></trkpt><trkpt lat="37.8683873" lon="13.390673"><ele>899.9999999999999</ele><time>2026-05-05T07:18:49.565Z</time></trkpt><trkpt lat="37.8683917" lon="13.3907645"><ele>902.0</ele><time>2026-05-05T07:18:50.565Z</time></trkpt><trkpt lat="37.8683863" lon="13.3908613"><ele>904.0</ele><time>2026-05-05T07:18:51.564Z</time></trkpt><trkpt lat="37.8683761" lon="13.3909638"><ele>906.0</ele><time>2026-05-05T07:18:52.564Z</time></trkpt><trkpt lat="37.8683663" lon="13.3910745"><ele>907.9999999999999</ele><time>2026-05-05T07:18:53.563Z</time></trkpt><trkpt lat="37.8683601" lon="13.3911931"><ele>910.0</ele><time>2026-05-05T07:18:54.564Z</time></trkpt><trkpt lat="37.8683592" lon="13.3913154"><ele>910.8</ele><time>2026-05-05T07:18:55.562Z</time></trkpt><trkpt lat="37.8683656" lon="13.391441"><ele>911.6</ele><time>2026-05-05T07:18:56.565Z</time></trkpt><trkpt lat="37.8683769" lon="13.3915596"><ele>912.4000000000001</ele><time>2026-05-05T07:18:57.564Z</time></trkpt><trkpt lat="37.8683903" lon="13.3916711"><ele>913.2</ele><time>2026-05-05T07:18:58.564Z</time></trkpt><trkpt lat="37.868404" lon="13.3917811"><ele>914.0</ele><time>2026-05-05T07:18:59.565Z</time></trkpt><trkpt lat="37.8684166" lon="13.391887"><ele>914.0000000000001</ele><time>2026-05-05T07:19:00.564Z</time></trkpt><trkpt lat="37.8684287" lon="13.3919917"><ele>914.0</ele><time>2026-05-05T07:19:01.565Z</time></trkpt><trkpt lat="37.868443" lon="13.3920962"><ele>914.0</ele><time>2026-05-05T07:19:02.565Z</time></trkpt><trkpt lat="37.8684552" lon="13.3921983"><ele>914.0</ele><time>2026-05-05T07:19:03.564Z</time></trkpt><trkpt lat="37.8684694" lon="13.3923049"><ele>914.0000000000001</ele><time>2026-05-05T07:19:04.565Z</time></trkpt><trkpt lat="37.8684829" lon="13.3924156"><ele>914.0</ele><time>2026-05-05T07:19:05.564Z</time></trkpt><trkpt lat="37.8684927" lon="13.3925274"><ele>912.4000000000001</ele><time>2026-05-05T07:19:06.564Z</time></trkpt><trkpt lat="37.8685002" lon="13.3926419"><ele>910.8000000000001</ele><time>2026-05-05T07:19:07.565Z</time></trkpt><trkpt lat="37.8685135" lon="13.3927558"><ele>909.1999999999999</ele><time>2026-05-05T07:19:08.565Z</time></trkpt><trkpt lat="37.8685256" lon="13.392871"><ele>907.5999999999999</ele><time>2026-05-05T07:19:09.565Z</time></trkpt><trkpt lat="37.868536" lon="13.3929863"><ele>906.0</ele><time>2026-05-05T07:19:10.565Z</time></trkpt><trkpt lat="37.8685541" lon="13.3930988"><ele>906.0</ele><time>2026-05-05T07:19:11.565Z</time></trkpt><trkpt lat="37.8685783" lon="13.3932049"><ele>906.0</ele><time>2026-05-05T07:19:12.565Z</time></trkpt><trkpt lat="37.8686057" lon="13.3933057"><ele>906.0</ele><time>2026-05-05T07:19:13.565Z</time></trkpt><trkpt lat="37.8686459" lon="13.3934022"><ele>906.0</ele><time>2026-05-05T07:19:14.565Z</time></trkpt><trkpt lat="37.868691" lon="13.3934983"><ele>906.0</ele><time>2026-05-05T07:19:15.563Z</time></trkpt><trkpt lat="37.8687402" lon="13.3935943"><ele>906.0</ele><time>2026-05-05T07:19:16.563Z</time></trkpt><trkpt lat="37.8687937" lon="13.3936868"><ele>906.0</ele><time>2026-05-05T07:19:17.565Z</time></trkpt><trkpt lat="37.8688546" lon="13.3937744"><ele>905.9999999999999</ele><time>2026-05-05T07:19:18.566Z</time></trkpt><trkpt lat="37.8689222" lon="13.3938577"><ele>905.9999999999999</ele><time>2026-05-05T07:19:19.563Z</time></trkpt><trkpt lat="37.8689861" lon="13.3939411"><ele>906.0</ele><time>2026-05-05T07:19:20.565Z</time></trkpt><trkpt lat="37.8690467" lon="13.3940241"><ele>906.0</ele><time>2026-05-05T07:19:21.564Z</time></trkpt><trkpt lat="37.8691026" lon="13.394114"><ele>906.4</ele><time>2026-05-05T07:19:22.565Z</time></trkpt><trkpt lat="37.8691489" lon="13.3942112"><ele>906.8</ele><time>2026-05-05T07:19:23.564Z</time></trkpt><trkpt lat="37.8691835" lon="13.3943187"><ele>907.1999999999999</ele><time>2026-05-05T07:19:24.565Z</time></trkpt><trkpt lat="37.8692155" lon="13.3944323"><ele>907.5999999999999</ele><time>2026-05-05T07:19:25.563Z</time></trkpt><trkpt lat="37.869248" lon="13.3945538"><ele>908.0</ele><time>2026-05-05T07:19:26.565Z</time></trkpt><trkpt lat="37.8692796" lon="13.3946836"><ele>908.0</ele><time>2026-05-05T07:19:27.565Z</time></trkpt><trkpt lat="37.8693122" lon="13.3948203"><ele>908.0</ele><time>2026-05-05T07:19:28.564Z</time></trkpt><trkpt lat="37.8693455" lon="13.3949612"><ele>908.0</ele><time>2026-05-05T07:19:29.563Z</time></trkpt><trkpt lat="37.869379" lon="13.3951064"><ele>908.0</ele><time>2026-05-05T07:19:30.565Z</time></trkpt><trkpt lat="37.869419" lon="13.3952496"><ele>908.0</ele><time>2026-05-05T07:19:31.566Z</time></trkpt><trkpt lat="37.8694715" lon="13.3953833"><ele>908.0</ele><time>2026-05-05T07:19:32.563Z</time></trkpt><trkpt lat="37.869537" lon="13.3955049"><ele>908.0</ele><time>2026-05-05T07:19:33.564Z</time></trkpt><trkpt lat="37.8696153" lon="13.3956147"><ele>908.0</ele><time>2026-05-05T07:19:34.563Z</time></trkpt><trkpt lat="37.8696994" lon="13.3957103"><ele>907.8</ele><time>2026-05-05T07:19:35.567Z</time></trkpt><trkpt lat="37.8697907" lon="13.3957886"><ele>907.5999999999999</ele><time>2026-05-05T07:19:36.564Z</time></trkpt><trkpt lat="37.8698888" lon="13.3958542"><ele>907.4000000000001</ele><time>2026-05-05T07:19:37.564Z</time></trkpt><trkpt lat="37.8699876" lon="13.3959063"><ele>907.2</ele><time>2026-05-05T07:19:38.565Z</time></trkpt><trkpt lat="37.8700863" lon="13.3959392"><ele>907.0</ele><time>2026-05-05T07:19:39.563Z</time></trkpt><trkpt lat="37.8701785" lon="13.3959716"><ele>907.0</ele><time>2026-05-05T07:19:40.564Z</time></trkpt><trkpt lat="37.8702648" lon="13.3960103"><ele>907.0</ele><time>2026-05-05T07:19:41.565Z</time></trkpt><trkpt lat="37.8703508" lon="13.3960553"><ele>907.0</ele><time>2026-05-05T07:19:42.562Z</time></trkpt><trkpt lat="37.8704349" lon="13.3961053"><ele>907.0</ele><time>2026-05-05T07:19:43.563Z</time></trkpt><trkpt lat="37.8705236" lon="13.3961555"><ele>907.0</ele><time>2026-05-05T07:19:44.566Z</time></trkpt><trkpt lat="37.8706194" lon="13.3962051"><ele>907.0</ele><time>2026-05-05T07:19:45.562Z</time></trkpt><trkpt lat="37.8707152" lon="13.3962681"><ele>907.0</ele><time>2026-05-05T07:19:46.563Z</time></trkpt><trkpt lat="37.8708011" lon="13.3963407"><ele>907.0</ele><time>2026-05-05T07:19:47.563Z</time></trkpt><trkpt lat="37.8708574" lon="13.3964246"><ele>907.0</ele><time>2026-05-05T07:19:48.563Z</time></trkpt><trkpt lat="37.8708864" lon="13.3965152"><ele>907.0</ele><time>2026-05-05T07:19:49.563Z</time></trkpt><trkpt lat="37.8708816" lon="13.3966156"><ele>908.6</ele><time>2026-05-05T07:19:50.564Z</time></trkpt><trkpt lat="37.8708545" lon="13.3967307"><ele>910.2</ele><time>2026-05-05T07:19:51.564Z</time></trkpt><trkpt lat="37.8708168" lon="13.3968508"><ele>911.8</ele><time>2026-05-05T07:19:52.566Z</time></trkpt><trkpt lat="37.8707487" lon="13.396967"><ele>913.4</ele><time>2026-05-05T07:19:53.563Z</time></trkpt><trkpt lat="37.8706605" lon="13.3970623"><ele>915.0</ele><time>2026-05-05T07:19:54.564Z</time></trkpt><trkpt lat="37.8705712" lon="13.397135"><ele>913.8333333333334</ele><time>2026-05-05T07:19:55.563Z</time></trkpt><trkpt lat="37.8704925" lon="13.397193"><ele>912.6666666666667</ele><time>2026-05-05T07:19:56.563Z</time></trkpt><trkpt lat="37.8704238" lon="13.3972409"><ele>911.5</ele><time>2026-05-05T07:19:57.564Z</time></trkpt><trkpt lat="37.8703628" lon="13.3972881"><ele>910.3333333333334</ele><time>2026-05-05T07:19:58.565Z</time></trkpt><trkpt lat="37.8703006" lon="13.3973436"><ele>909.1666666666667</ele><time>2026-05-05T07:19:59.564Z</time></trkpt><trkpt lat="37.870236" lon="13.3974087"><ele>908.0</ele><time>2026-05-05T07:20:00.563Z</time></trkpt><trkpt lat="37.8701706" lon="13.3974803"><ele>911.0</ele><time>2026-05-05T07:20:01.564Z</time></trkpt><trkpt lat="37.8701035" lon="13.3975594"><ele>914.0</ele><time>2026-05-05T07:20:02.565Z</time></trkpt><trkpt lat="37.8700391" lon="13.397649"><ele>917.0</ele><time>2026-05-05T07:20:03.564Z</time></trkpt><trkpt lat="37.8699732" lon="13.3977459"><ele>920.0</ele><time>2026-05-05T07:20:04.565Z</time></trkpt><trkpt lat="37.8699054" lon="13.3978451"><ele>923.0</ele><time>2026-05-05T07:20:05.563Z</time></trkpt><trkpt lat="37.869836" lon="13.3979473"><ele>921.4</ele><time>2026-05-05T07:20:06.564Z</time></trkpt><trkpt lat="37.8697717" lon="13.3980587"><ele>919.8</ele><time>2026-05-05T07:20:07.565Z</time></trkpt><trkpt lat="37.8697169" lon="13.3981827"><ele>918.2</ele><time>2026-05-05T07:20:08.564Z</time></trkpt><trkpt lat="37.8696728" lon="13.3983148"><ele>916.6</ele><time>2026-05-05T07:20:09.566Z</time></trkpt><trkpt lat="37.8696278" lon="13.3984487"><ele>915.0</ele><time>2026-05-05T07:20:10.564Z</time></trkpt><trkpt lat="37.869579" lon="13.3985811"><ele>915.0</ele><time>2026-05-05T07:20:11.564Z</time></trkpt><trkpt lat="37.8695319" lon="13.3987192"><ele>915.0</ele><time>2026-05-05T07:20:12.564Z</time></trkpt><trkpt lat="37.869486" lon="13.3988623"><ele>915.0</ele><time>2026-05-05T07:20:13.564Z</time></trkpt><trkpt lat="37.8694437" lon="13.3990048"><ele>915.0</ele><time>2026-05-05T07:20:14.565Z</time></trkpt><trkpt lat="37.8694018" lon="13.3991469"><ele>914.0</ele><time>2026-05-05T07:20:15.564Z</time></trkpt><trkpt lat="37.8693517" lon="13.3992855"><ele>913.0</ele><time>2026-05-05T07:20:16.565Z</time></trkpt><trkpt lat="37.8692964" lon="13.3994179"><ele>912.0</ele><time>2026-05-05T07:20:17.563Z</time></trkpt><trkpt lat="37.8692489" lon="13.3995516"><ele>911.0</ele><time>2026-05-05T07:20:18.564Z</time></trkpt><trkpt lat="37.8692221" lon="13.399695"><ele>914.25</ele><time>2026-05-05T07:20:19.564Z</time></trkpt><trkpt lat="37.8692114" lon="13.399842"><ele>917.5</ele><time>2026-05-05T07:20:20.563Z</time></trkpt><trkpt lat="37.8692017" lon="13.3999855"><ele>920.75</ele><time>2026-05-05T07:20:21.564Z</time></trkpt><trkpt lat="37.8691801" lon="13.400126"><ele>924.0</ele><time>2026-05-05T07:20:22.565Z</time></trkpt><trkpt lat="37.8691406" lon="13.4002593"><ele>924.0</ele><time>2026-05-05T07:20:23.565Z</time></trkpt><trkpt lat="37.8690943" lon="13.4003813"><ele>924.0</ele><time>2026-05-05T07:20:24.564Z</time></trkpt><trkpt lat="37.8690441" lon="13.4004849"><ele>924.0</ele><time>2026-05-05T07:20:25.564Z</time></trkpt><trkpt lat="37.868997" lon="13.4005719"><ele>924.0</ele><time>2026-05-05T07:20:26.566Z</time></trkpt><trkpt lat="37.8689544" lon="13.4006529"><ele>924.0</ele><time>2026-05-05T07:20:27.564Z</time></trkpt><trkpt lat="37.8689118" lon="13.4007288"><ele>924.0</ele><time>2026-05-05T07:20:28.564Z</time></trkpt><trkpt lat="37.8688716" lon="13.4008038"><ele>923.8333333333334</ele><time>2026-05-05T07:20:29.563Z</time></trkpt><trkpt lat="37.86883" lon="13.4008823"><ele>923.6666666666667</ele><time>2026-05-05T07:20:30.564Z</time></trkpt><trkpt lat="37.8687865" lon="13.4009614"><ele>923.5</ele><time>2026-05-05T07:20:31.566Z</time></trkpt><trkpt lat="37.868743" lon="13.4010424"><ele>923.3333333333334</ele><time>2026-05-05T07:20:32.566Z</time></trkpt><trkpt lat="37.8686949" lon="13.4011231"><ele>923.1666666666667</ele><time>2026-05-05T07:20:33.563Z</time></trkpt><trkpt lat="37.8686407" lon="13.4012007"><ele>923.0</ele><time>2026-05-05T07:20:34.564Z</time></trkpt><trkpt lat="37.8685821" lon="13.401273"><ele>922.5000000000001</ele><time>2026-05-05T07:20:35.565Z</time></trkpt><trkpt lat="37.8685217" lon="13.4013363"><ele>922.0</ele><time>2026-05-05T07:20:36.563Z</time></trkpt><trkpt lat="37.868466" lon="13.4014014"><ele>921.5</ele><time>2026-05-05T07:20:37.565Z</time></trkpt><trkpt lat="37.8684179" lon="13.4014765"><ele>921.0</ele><time>2026-05-05T07:20:38.564Z</time></trkpt><trkpt lat="37.8683856" lon="13.4015629"><ele>920.5000000000001</ele><time>2026-05-05T07:20:39.563Z</time></trkpt><trkpt lat="37.8683713" lon="13.401658"><ele>920.0</ele><time>2026-05-05T07:20:40.564Z</time></trkpt><trkpt lat="37.8683818" lon="13.4017631"><ele>920.0</ele><time>2026-05-05T07:20:41.564Z</time></trkpt><trkpt lat="37.8684121" lon="13.4018697"><ele>920.0</ele><time>2026-05-05T07:20:42.564Z</time></trkpt><trkpt lat="37.8684502" lon="13.4019783"><ele>920.0</ele><time>2026-05-05T07:20:43.563Z</time></trkpt><trkpt lat="37.8684855" lon="13.4020931"><ele>920.0</ele><time>2026-05-05T07:20:44.565Z</time></trkpt><trkpt lat="37.8685164" lon="13.4022119"><ele>920.0</ele><time>2026-05-05T07:20:45.564Z</time></trkpt><trkpt lat="37.8685439" lon="13.4023337"><ele>920.6</ele><time>2026-05-05T07:20:46.564Z</time></trkpt><trkpt lat="37.8685668" lon="13.4024547"><ele>921.2</ele><time>2026-05-05T07:20:47.564Z</time></trkpt><trkpt lat="37.8685892" lon="13.4025764"><ele>921.8</ele><time>2026-05-05T07:20:48.564Z</time></trkpt><trkpt lat="37.8686073" lon="13.4026943"><ele>922.4</ele><time>2026-05-05T07:20:49.565Z</time></trkpt><trkpt lat="37.8686121" lon="13.4028028"><ele>923.0</ele><time>2026-05-05T07:20:50.564Z</time></trkpt><trkpt lat="37.868597" lon="13.4029078"><ele>923.5999999999999</ele><time>2026-05-05T07:20:51.564Z</time></trkpt><trkpt lat="37.8685591" lon="13.4030019"><ele>924.1999999999999</ele><time>2026-05-05T07:20:52.564Z</time></trkpt><trkpt lat="37.8685011" lon="13.4030838"><ele>924.8</ele><time>2026-05-05T07:20:53.564Z</time></trkpt><trkpt lat="37.8684286" lon="13.4031589"><ele>925.4</ele><time>2026-05-05T07:20:54.564Z</time></trkpt><trkpt lat="37.8683519" lon="13.4032272"><ele>926.0</ele><time>2026-05-05T07:20:55.565Z</time></trkpt><trkpt lat="37.8682754" lon="13.4032946"><ele>928.1999999999999</ele><time>2026-05-05T07:20:56.565Z</time></trkpt><trkpt lat="37.8682062" lon="13.4033666"><ele>930.3999999999999</ele><time>2026-05-05T07:20:57.564Z</time></trkpt><trkpt lat="37.8681454" lon="13.4034535"><ele>932.6</ele><time>2026-05-05T07:20:58.565Z</time></trkpt><trkpt lat="37.8680915" lon="13.4035475"><ele>934.8</ele><time>2026-05-05T07:20:59.565Z</time></trkpt><trkpt lat="37.868047" lon="13.4036454"><ele>937.0</ele><time>2026-05-05T07:21:00.564Z</time></trkpt><trkpt lat="37.8680123" lon="13.403753"><ele>936.6666666666666</ele><time>2026-05-05T07:21:01.565Z</time></trkpt><trkpt lat="37.8679879" lon="13.4038613"><ele>936.3333333333333</ele><time>2026-05-05T07:21:02.564Z</time></trkpt><trkpt lat="37.8679766" lon="13.4039662"><ele>936.0</ele><time>2026-05-05T07:21:03.564Z</time></trkpt><trkpt lat="37.8679685" lon="13.4040721"><ele>935.6666666666667</ele><time>2026-05-05T07:21:04.565Z</time></trkpt><trkpt lat="37.8679583" lon="13.4041786"><ele>935.3333333333334</ele><time>2026-05-05T07:21:05.565Z</time></trkpt><trkpt lat="37.8679358" lon="13.4042838"><ele>935.0</ele><time>2026-05-05T07:21:06.568Z</time></trkpt><trkpt lat="37.867905" lon="13.4043882"><ele>935.0000000000001</ele><time>2026-05-05T07:21:07.565Z</time></trkpt><trkpt lat="37.8678685" lon="13.4044879"><ele>935.0</ele><time>2026-05-05T07:21:08.565Z</time></trkpt><trkpt lat="37.8678254" lon="13.4045805"><ele>935.0</ele><time>2026-05-05T07:21:09.565Z</time></trkpt><trkpt lat="37.8677751" lon="13.404666"><ele>935.0</ele><time>2026-05-05T07:21:10.566Z</time></trkpt><trkpt lat="37.8677198" lon="13.4047456"><ele>935.0000000000001</ele><time>2026-05-05T07:21:11.565Z</time></trkpt><trkpt lat="37.8676643" lon="13.4048272"><ele>935.0</ele><time>2026-05-05T07:21:12.565Z</time></trkpt><trkpt lat="37.8676121" lon="13.4049088"><ele>937.1666666666667</ele><time>2026-05-05T07:21:13.565Z</time></trkpt><trkpt lat="37.8675592" lon="13.4049906"><ele>939.3333333333334</ele><time>2026-05-05T07:21:14.565Z</time></trkpt><trkpt lat="37.8675075" lon="13.4050749"><ele>941.5</ele><time>2026-05-05T07:21:15.565Z</time></trkpt><trkpt lat="37.8674585" lon="13.4051613"><ele>943.6666666666667</ele><time>2026-05-05T07:21:16.565Z</time></trkpt><trkpt lat="37.8674074" lon="13.4052468"><ele>945.8333333333334</ele><time>2026-05-05T07:21:17.566Z</time></trkpt><trkpt lat="37.8673487" lon="13.4053277"><ele>948.0</ele><time>2026-05-05T07:21:18.565Z</time></trkpt><trkpt lat="37.8672809" lon="13.405396"><ele>948.0</ele><time>2026-05-05T07:21:19.564Z</time></trkpt><trkpt lat="37.8672061" lon="13.4054542"><ele>948.0</ele><time>2026-05-05T07:21:20.565Z</time></trkpt><trkpt lat="37.8671274" lon="13.4055054"><ele>948.0</ele><time>2026-05-05T07:21:21.565Z</time></trkpt><trkpt lat="37.867048" lon="13.4055542"><ele>948.0</ele><time>2026-05-05T07:21:22.564Z</time></trkpt><trkpt lat="37.8669678" lon="13.4056033"><ele>948.0</ele><time>2026-05-05T07:21:23.568Z</time></trkpt><trkpt lat="37.8668875" lon="13.4056504"><ele>948.0</ele><time>2026-05-05T07:21:24.564Z</time></trkpt><trkpt lat="37.866807" lon="13.4056971"><ele>949.4</ele><time>2026-05-05T07:21:25.566Z</time></trkpt><trkpt lat="37.8667254" lon="13.4057437"><ele>950.8</ele><time>2026-05-05T07:21:26.566Z</time></trkpt><trkpt lat="37.8666434" lon="13.405788"><ele>952.2</ele><time>2026-05-05T07:21:27.564Z</time></trkpt><trkpt lat="37.866559" lon="13.4058323"><ele>953.6</ele><time>2026-05-05T07:21:28.565Z</time></trkpt><trkpt lat="37.8664779" lon="13.4058881"><ele>955.0</ele><time>2026-05-05T07:21:29.566Z</time></trkpt><trkpt lat="37.8664036" lon="13.4059601"><ele>955.0</ele><time>2026-05-05T07:21:30.566Z</time></trkpt><trkpt lat="37.8663411" lon="13.4060516"><ele>955.0</ele><time>2026-05-05T07:21:31.564Z</time></trkpt><trkpt lat="37.866292" lon="13.4061542"><ele>955.0</ele><time>2026-05-05T07:21:32.566Z</time></trkpt><trkpt lat="37.8662585" lon="13.4062632"><ele>955.0</ele><time>2026-05-05T07:21:33.565Z</time></trkpt><trkpt lat="37.8662325" lon="13.4063758"><ele>955.0</ele><time>2026-05-05T07:21:34.566Z</time></trkpt><trkpt lat="37.8662074" lon="13.4064929"><ele>954.4999999999999</ele><time>2026-05-05T07:21:35.565Z</time></trkpt><trkpt lat="37.8661819" lon="13.4066108"><ele>954.0</ele><time>2026-05-05T07:21:36.564Z</time></trkpt><trkpt lat="37.8661642" lon="13.406727"><ele>953.5</ele><time>2026-05-05T07:21:37.565Z</time></trkpt><trkpt lat="37.8661627" lon="13.4068352"><ele>953.0</ele><time>2026-05-05T07:21:38.566Z</time></trkpt><trkpt lat="37.8661794" lon="13.4069376"><ele>952.4999999999999</ele><time>2026-05-05T07:21:39.565Z</time></trkpt><trkpt lat="37.8662214" lon="13.4070286"><ele>952.0</ele><time>2026-05-05T07:21:40.564Z</time></trkpt><trkpt lat="37.8662848" lon="13.40711"><ele>954.0</ele><time>2026-05-05T07:21:41.565Z</time></trkpt><trkpt lat="37.8663707" lon="13.4071647"><ele>956.0</ele><time>2026-05-05T07:21:42.565Z</time></trkpt><trkpt lat="37.8664763" lon="13.4071835"><ele>958.0</ele><time>2026-05-05T07:21:43.565Z</time></trkpt><trkpt lat="37.8665754" lon="13.4071942"><ele>960.0</ele><time>2026-05-05T07:21:44.565Z</time></trkpt><trkpt lat="37.8666638" lon="13.4072096"><ele>962.0</ele><time>2026-05-05T07:21:45.564Z</time></trkpt><trkpt lat="37.8667391" lon="13.4072366"><ele>959.6666666666667</ele><time>2026-05-05T07:21:46.565Z</time></trkpt><trkpt lat="37.866805" lon="13.4072764"><ele>957.3333333333334</ele><time>2026-05-05T07:21:47.566Z</time></trkpt><trkpt lat="37.8668621" lon="13.4073302"><ele>955.0</ele><time>2026-05-05T07:21:48.565Z</time></trkpt><trkpt lat="37.8669108" lon="13.4074017"><ele>952.6666666666667</ele><time>2026-05-05T07:21:49.565Z</time></trkpt><trkpt lat="37.8669541" lon="13.407484"><ele>950.3333333333334</ele><time>2026-05-05T07:21:50.565Z</time></trkpt><trkpt lat="37.8669953" lon="13.4075732"><ele>948.0</ele><time>2026-05-05T07:21:51.565Z</time></trkpt><trkpt lat="37.8670367" lon="13.4076649"><ele>948.0</ele><time>2026-05-05T07:21:52.568Z</time></trkpt><trkpt lat="37.8670806" lon="13.4077601"><ele>948.0</ele><time>2026-05-05T07:21:53.566Z</time></trkpt><trkpt lat="37.8671227" lon="13.4078614"><ele>948.0</ele><time>2026-05-05T07:21:54.565Z</time></trkpt><trkpt lat="37.8671572" lon="13.4079682"><ele>948.0</ele><time>2026-05-05T07:21:55.565Z</time></trkpt><trkpt lat="37.8671814" lon="13.4080797"><ele>948.0</ele><time>2026-05-05T07:21:56.565Z</time></trkpt><trkpt lat="37.8671894" lon="13.4081906"><ele>948.0</ele><time>2026-05-05T07:21:57.566Z</time></trkpt><trkpt lat="37.8671835" lon="13.4082996"><ele>948.5999999999999</ele><time>2026-05-05T07:21:58.564Z</time></trkpt><trkpt lat="37.8671728" lon="13.4084134"><ele>949.1999999999999</ele><time>2026-05-05T07:21:59.565Z</time></trkpt><trkpt lat="37.8671658" lon="13.40853"><ele>949.8</ele><time>2026-05-05T07:22:00.565Z</time></trkpt><trkpt lat="37.8671629" lon="13.4086447"><ele>950.4</ele><time>2026-05-05T07:22:01.565Z</time></trkpt><trkpt lat="37.8671621" lon="13.4087611"><ele>951.0</ele><time>2026-05-05T07:22:02.565Z</time></trkpt><trkpt lat="37.8671602" lon="13.4088793"><ele>951.4</ele><time>2026-05-05T07:22:03.564Z</time></trkpt><trkpt lat="37.8671596" lon="13.4090008"><ele>951.8</ele><time>2026-05-05T07:22:04.565Z</time></trkpt><trkpt lat="37.8671629" lon="13.4091242"><ele>952.1999999999999</ele><time>2026-05-05T07:22:05.564Z</time></trkpt><trkpt lat="37.8671671" lon="13.4092508"><ele>952.5999999999999</ele><time>2026-05-05T07:22:06.565Z</time></trkpt><trkpt lat="37.8671662" lon="13.4093792"><ele>953.0</ele><time>2026-05-05T07:22:07.565Z</time></trkpt><trkpt lat="37.8671636" lon="13.4095037"><ele>953.0</ele><time>2026-05-05T07:22:08.565Z</time></trkpt><trkpt lat="37.8671675" lon="13.4096209"><ele>953.0</ele><time>2026-05-05T07:22:09.565Z</time></trkpt><trkpt lat="37.8671715" lon="13.4097303"><ele>953.0</ele><time>2026-05-05T07:22:10.564Z</time></trkpt><trkpt lat="37.867176" lon="13.409841"><ele>953.0</ele><time>2026-05-05T07:22:11.564Z</time></trkpt><trkpt lat="37.8671827" lon="13.4099565"><ele>953.0</ele><time>2026-05-05T07:22:12.564Z</time></trkpt><trkpt lat="37.8671868" lon="13.4100775"><ele>952.2</ele><time>2026-05-05T07:22:13.564Z</time></trkpt><trkpt lat="37.8671882" lon="13.410204"><ele>951.4</ele><time>2026-05-05T07:22:14.565Z</time></trkpt><trkpt lat="37.8671897" lon="13.410334"><ele>950.6000000000001</ele><time>2026-05-05T07:22:15.564Z</time></trkpt><trkpt lat="37.8671959" lon="13.4104674"><ele>949.8000000000001</ele><time>2026-05-05T07:22:16.565Z</time></trkpt><trkpt lat="37.8672008" lon="13.4105996"><ele>949.0</ele><time>2026-05-05T07:22:17.566Z</time></trkpt><trkpt lat="37.8672023" lon="13.4107327"><ele>949.0</ele><time>2026-05-05T07:22:18.565Z</time></trkpt><trkpt lat="37.8672053" lon="13.4108708"><ele>949.0000000000001</ele><time>2026-05-05T07:22:19.564Z</time></trkpt><trkpt lat="37.8672084" lon="13.4110055"><ele>949.0000000000001</ele><time>2026-05-05T07:22:20.565Z</time></trkpt><trkpt lat="37.8672073" lon="13.411133"><ele>949.0</ele><time>2026-05-05T07:22:21.565Z</time></trkpt><trkpt lat="37.8671999" lon="13.4112549"><ele>949.0</ele><time>2026-05-05T07:22:22.565Z</time></trkpt><trkpt lat="37.867187" lon="13.411376"><ele>948.6666666666666</ele><time>2026-05-05T07:22:23.564Z</time></trkpt><trkpt lat="37.8671691" lon="13.4114998"><ele>948.3333333333333</ele><time>2026-05-05T07:22:24.566Z</time></trkpt><trkpt lat="37.8671502" lon="13.4116175"><ele>948.0</ele><time>2026-05-05T07:22:25.566Z</time></trkpt><trkpt lat="37.8671301" lon="13.4117282"><ele>947.6666666666667</ele><time>2026-05-05T07:22:26.565Z</time></trkpt><trkpt lat="37.8671085" lon="13.4118265"><ele>947.3333333333334</ele><time>2026-05-05T07:22:27.564Z</time></trkpt><trkpt lat="37.8670907" lon="13.4119153"><ele>947.0</ele><time>2026-05-05T07:22:28.565Z</time></trkpt><trkpt lat="37.867074" lon="13.4119946"><ele>947.0000000000001</ele><time>2026-05-05T07:22:29.564Z</time></trkpt><trkpt lat="37.8670172" lon="13.4121397"><ele>947.0</ele><time>2026-05-05T07:22:31.566Z</time></trkpt><trkpt lat="37.8669758" lon="13.4122091"><ele>947.0</ele><time>2026-05-05T07:22:32.565Z</time></trkpt><trkpt lat="37.866919" lon="13.4122658"><ele>947.0</ele><time>2026-05-05T07:22:33.564Z</time></trkpt><trkpt lat="37.8668507" lon="13.4123112"><ele>947.0000000000001</ele><time>2026-05-05T07:22:34.564Z</time></trkpt><trkpt lat="37.8667737" lon="13.4123512"><ele>947.0</ele><time>2026-05-05T07:22:35.565Z</time></trkpt><trkpt lat="37.8666969" lon="13.4123896"><ele>948.1666666666667</ele><time>2026-05-05T07:22:36.566Z</time></trkpt><trkpt lat="37.866621" lon="13.4124261"><ele>949.3333333333334</ele><time>2026-05-05T07:22:37.565Z</time></trkpt><trkpt lat="37.8665438" lon="13.4124574"><ele>950.5</ele><time>2026-05-05T07:22:38.565Z</time></trkpt><trkpt lat="37.8664626" lon="13.4124874"><ele>951.6666666666667</ele><time>2026-05-05T07:22:39.564Z</time></trkpt><trkpt lat="37.8663791" lon="13.4125159"><ele>952.8333333333334</ele><time>2026-05-05T07:22:40.565Z</time></trkpt><trkpt lat="37.866294" lon="13.4125479"><ele>954.0</ele><time>2026-05-05T07:22:41.564Z</time></trkpt><trkpt lat="37.8662089" lon="13.4125951"><ele>954.0</ele><time>2026-05-05T07:22:42.565Z</time></trkpt><trkpt lat="37.8661325" lon="13.4126656"><ele>954.0000000000001</ele><time>2026-05-05T07:22:43.564Z</time></trkpt><trkpt lat="37.8660642" lon="13.4127542"><ele>954.0000000000001</ele><time>2026-05-05T07:22:44.566Z</time></trkpt><trkpt lat="37.8660021" lon="13.412847"><ele>954.0</ele><time>2026-05-05T07:22:45.564Z</time></trkpt><trkpt lat="37.8659394" lon="13.4129406"><ele>954.0</ele><time>2026-05-05T07:22:46.564Z</time></trkpt><trkpt lat="37.8658747" lon="13.4130348"><ele>955.4000000000001</ele><time>2026-05-05T07:22:47.565Z</time></trkpt><trkpt lat="37.8658056" lon="13.4131289"><ele>956.8000000000001</ele><time>2026-05-05T07:22:48.565Z</time></trkpt><trkpt lat="37.8657353" lon="13.4132269"><ele>958.1999999999999</ele><time>2026-05-05T07:22:49.566Z</time></trkpt><trkpt lat="37.865665" lon="13.4133283"><ele>959.5999999999999</ele><time>2026-05-05T07:22:50.565Z</time></trkpt><trkpt lat="37.8655977" lon="13.4134288"><ele>961.0</ele><time>2026-05-05T07:22:51.564Z</time></trkpt><trkpt lat="37.8655407" lon="13.4135273"><ele>960.9999999999999</ele><time>2026-05-05T07:22:52.565Z</time></trkpt><trkpt lat="37.8654919" lon="13.4136201"><ele>961.0</ele><time>2026-05-05T07:22:53.565Z</time></trkpt><trkpt lat="37.8654532" lon="13.4137129"><ele>961.0</ele><time>2026-05-05T07:22:54.565Z</time></trkpt><trkpt lat="37.8654228" lon="13.4138072"><ele>961.0</ele><time>2026-05-05T07:22:55.566Z</time></trkpt><trkpt lat="37.8653898" lon="13.4139059"><ele>960.9999999999999</ele><time>2026-05-05T07:22:56.566Z</time></trkpt><trkpt lat="37.8653516" lon="13.4140074"><ele>961.0</ele><time>2026-05-05T07:22:57.564Z</time></trkpt><trkpt lat="37.8653119" lon="13.4141094"><ele>960.6666666666666</ele><time>2026-05-05T07:22:58.565Z</time></trkpt><trkpt lat="37.8652779" lon="13.4142127"><ele>960.3333333333333</ele><time>2026-05-05T07:22:59.565Z</time></trkpt><trkpt lat="37.865263" lon="13.4143218"><ele>960.0</ele><time>2026-05-05T07:23:00.564Z</time></trkpt><trkpt lat="37.8652708" lon="13.414436"><ele>959.6666666666667</ele><time>2026-05-05T07:23:01.565Z</time></trkpt><trkpt lat="37.8652867" lon="13.4145407"><ele>959.3333333333334</ele><time>2026-05-05T07:23:02.565Z</time></trkpt><trkpt lat="37.865305" lon="13.4146355"><ele>959.0</ele><time>2026-05-05T07:23:03.565Z</time></trkpt><trkpt lat="37.8653204" lon="13.414723"><ele>960.2</ele><time>2026-05-05T07:23:04.565Z</time></trkpt><trkpt lat="37.8653327" lon="13.4148074"><ele>961.4000000000001</ele><time>2026-05-05T07:23:05.565Z</time></trkpt><trkpt lat="37.8653388" lon="13.414961"><ele>962.6</ele><time>2026-05-05T07:23:07.565Z</time></trkpt><trkpt lat="37.8653167" lon="13.4151024"><ele>963.8</ele><time>2026-05-05T07:23:09.564Z</time></trkpt><trkpt lat="37.8652409" lon="13.4152192"><ele>965.0</ele><time>2026-05-05T07:23:11.564Z</time></trkpt><trkpt lat="37.8651857" lon="13.4152597"><ele>965.0000000000001</ele><time>2026-05-05T07:23:12.564Z</time></trkpt><trkpt lat="37.8651239" lon="13.4152868"><ele>965.0</ele><time>2026-05-05T07:23:13.565Z</time></trkpt><trkpt lat="37.8650062" lon="13.4153227"><ele>965.0</ele><time>2026-05-05T07:23:15.565Z</time></trkpt><trkpt lat="37.864889" lon="13.4153791"><ele>965.0</ele><time>2026-05-05T07:23:17.565Z</time></trkpt><trkpt lat="37.8648304" lon="13.4154186"><ele>965.0000000000001</ele><time>2026-05-05T07:23:18.564Z</time></trkpt><trkpt lat="37.864772" lon="13.4154639"><ele>965.0</ele><time>2026-05-05T07:23:19.564Z</time></trkpt><trkpt lat="37.8647137" lon="13.4155173"><ele>966.8571428571429</ele><time>2026-05-05T07:23:20.564Z</time></trkpt><trkpt lat="37.8646568" lon="13.4155732"><ele>968.7142857142858</ele><time>2026-05-05T07:23:21.564Z</time></trkpt><trkpt lat="37.8646043" lon="13.4156329"><ele>970.5714285714287</ele><time>2026-05-05T07:23:22.564Z</time></trkpt><trkpt lat="37.8645528" lon="13.4156935"><ele>972.4285714285714</ele><time>2026-05-05T07:23:23.565Z</time></trkpt><trkpt lat="37.864496" lon="13.4157499"><ele>974.2857142857144</ele><time>2026-05-05T07:23:24.564Z</time></trkpt><trkpt lat="37.8644388" lon="13.4158062"><ele>976.1428571428572</ele><time>2026-05-05T07:23:25.565Z</time></trkpt><trkpt lat="37.8643817" lon="13.4158614"><ele>978.0</ele><time>2026-05-05T07:23:26.564Z</time></trkpt><trkpt lat="37.8643277" lon="13.4159191"><ele>978.0</ele><time>2026-05-05T07:23:27.565Z</time></trkpt><trkpt lat="37.8642847" lon="13.4159829"><ele>978.0</ele><time>2026-05-05T07:23:28.565Z</time></trkpt><trkpt lat="37.8642553" lon="13.4161356"><ele>978.0</ele><time>2026-05-05T07:23:30.564Z</time></trkpt><trkpt lat="37.8642622" lon="13.4162171"><ele>978.0</ele><time>2026-05-05T07:23:31.565Z</time></trkpt><trkpt lat="37.864278" lon="13.4163019"><ele>978.0</ele><time>2026-05-05T07:23:32.566Z</time></trkpt><trkpt lat="37.8642893" lon="13.4163893"><ele>978.0</ele><time>2026-05-05T07:23:33.563Z</time></trkpt><trkpt lat="37.8642895" lon="13.416483"><ele>978.1666666666666</ele><time>2026-05-05T07:23:34.565Z</time></trkpt><trkpt lat="37.8642865" lon="13.4165782"><ele>978.3333333333333</ele><time>2026-05-05T07:23:35.565Z</time></trkpt><trkpt lat="37.8642843" lon="13.4166803"><ele>978.5</ele><time>2026-05-05T07:23:36.565Z</time></trkpt><trkpt lat="37.8642802" lon="13.416784"><ele>978.6666666666666</ele><time>2026-05-05T07:23:37.566Z</time></trkpt><trkpt lat="37.8642752" lon="13.4168867"><ele>978.8333333333333</ele><time>2026-05-05T07:23:38.566Z</time></trkpt><trkpt lat="37.8642672" lon="13.4169877"><ele>979.0</ele><time>2026-05-05T07:23:39.564Z</time></trkpt><trkpt lat="37.8642518" lon="13.4170812"><ele>980.5714285714286</ele><time>2026-05-05T07:23:40.565Z</time></trkpt><trkpt lat="37.8642267" lon="13.417166"><ele>982.1428571428571</ele><time>2026-05-05T07:23:41.564Z</time></trkpt><trkpt lat="37.8641886" lon="13.4172406"><ele>983.7142857142857</ele><time>2026-05-05T07:23:42.565Z</time></trkpt><trkpt lat="37.8641321" lon="13.4172988"><ele>985.2857142857142</ele><time>2026-05-05T07:23:43.565Z</time></trkpt><trkpt lat="37.8640575" lon="13.4173361"><ele>986.8571428571429</ele><time>2026-05-05T07:23:44.565Z</time></trkpt><trkpt lat="37.8639858" lon="13.4173788"><ele>988.4285714285713</ele><time>2026-05-05T07:23:45.565Z</time></trkpt><trkpt lat="37.8639295" lon="13.417437"><ele>989.9999999999999</ele><time>2026-05-05T07:23:46.565Z</time></trkpt><trkpt lat="37.8638972" lon="13.4175102"><ele>990.0</ele><time>2026-05-05T07:23:47.565Z</time></trkpt><trkpt lat="37.8638894" lon="13.4175971"><ele>990.0</ele><time>2026-05-05T07:23:48.566Z</time></trkpt><trkpt lat="37.863892" lon="13.4176899"><ele>990.0</ele><time>2026-05-05T07:23:49.565Z</time></trkpt><trkpt lat="37.8639021" lon="13.4177851"><ele>990.0</ele><time>2026-05-05T07:23:50.565Z</time></trkpt><trkpt lat="37.8639122" lon="13.4178847"><ele>990.0</ele><time>2026-05-05T07:23:51.564Z</time></trkpt><trkpt lat="37.8639137" lon="13.4179876"><ele>990.0</ele><time>2026-05-05T07:23:52.563Z</time></trkpt><trkpt lat="37.8639108" lon="13.4180887"><ele>990.6666666666666</ele><time>2026-05-05T07:23:53.565Z</time></trkpt><trkpt lat="37.863895" lon="13.4181892"><ele>991.3333333333333</ele><time>2026-05-05T07:23:54.564Z</time></trkpt><trkpt lat="37.8638616" lon="13.418284"><ele>992.0</ele><time>2026-05-05T07:23:55.565Z</time></trkpt><trkpt lat="37.86383" lon="13.4183828"><ele>992.6666666666666</ele><time>2026-05-05T07:23:56.566Z</time></trkpt><trkpt lat="37.8637996" lon="13.4184846"><ele>993.3333333333333</ele><time>2026-05-05T07:23:57.564Z</time></trkpt><trkpt lat="37.8637766" lon="13.4185905"><ele>994.0</ele><time>2026-05-05T07:23:58.565Z</time></trkpt><trkpt lat="37.863761" lon="13.4186973"><ele>993.9999999999999</ele><time>2026-05-05T07:23:59.565Z</time></trkpt><trkpt lat="37.8637463" lon="13.4188005"><ele>994.0</ele><time>2026-05-05T07:24:00.565Z</time></trkpt><trkpt lat="37.8637272" lon="13.4189037"><ele>994.0</ele><time>2026-05-05T07:24:01.566Z</time></trkpt><trkpt lat="37.8637" lon="13.419003"><ele>994.0</ele><time>2026-05-05T07:24:02.566Z</time></trkpt><trkpt lat="37.8636671" lon="13.4190983"><ele>993.9999999999999</ele><time>2026-05-05T07:24:03.563Z</time></trkpt><trkpt lat="37.8636224" lon="13.4191864"><ele>994.0</ele><time>2026-05-05T07:24:04.565Z</time></trkpt><trkpt lat="37.8635721" lon="13.4192722"><ele>995.0</ele><time>2026-05-05T07:24:05.565Z</time></trkpt><trkpt lat="37.8635323" lon="13.4193538"><ele>996.0</ele><time>2026-05-05T07:24:06.563Z</time></trkpt><trkpt lat="37.8635119" lon="13.419435"><ele>997.0</ele><time>2026-05-05T07:24:07.565Z</time></trkpt><trkpt lat="37.8635102" lon="13.4195191"><ele>998.0</ele><time>2026-05-05T07:24:08.566Z</time></trkpt><trkpt lat="37.8635287" lon="13.4196039"><ele>999.0</ele><time>2026-05-05T07:24:09.565Z</time></trkpt><trkpt lat="37.8635676" lon="13.4196832"><ele>1000.0</ele><time>2026-05-05T07:24:10.566Z</time></trkpt><trkpt lat="37.8636148" lon="13.419758"><ele>1001.0</ele><time>2026-05-05T07:24:11.564Z</time></trkpt><trkpt lat="37.8636634" lon="13.4198307"><ele>1002.0</ele><time>2026-05-05T07:24:12.564Z</time></trkpt><trkpt lat="37.8637138" lon="13.4198996"><ele>1003.0</ele><time>2026-05-05T07:24:13.565Z</time></trkpt><trkpt lat="37.8637673" lon="13.4199644"><ele>1004.0</ele><time>2026-05-05T07:24:14.565Z</time></trkpt><trkpt lat="37.8638239" lon="13.4200234"><ele>1005.0</ele><time>2026-05-05T07:24:15.565Z</time></trkpt><trkpt lat="37.8638781" lon="13.4200869"><ele>1006.0</ele><time>2026-05-05T07:24:16.564Z</time></trkpt><trkpt lat="37.8639249" lon="13.420157"><ele>1007.0</ele><time>2026-05-05T07:24:17.565Z</time></trkpt><trkpt lat="37.8639598" lon="13.4202359"><ele>1008.0</ele><time>2026-05-05T07:24:18.565Z</time></trkpt><trkpt lat="37.8639764" lon="13.4203264"><ele>1008.0</ele><time>2026-05-05T07:24:19.565Z</time></trkpt><trkpt lat="37.8639737" lon="13.4204218"><ele>1008.0</ele><time>2026-05-05T07:24:20.567Z</time></trkpt><trkpt lat="37.8639592" lon="13.4205164"><ele>1008.0</ele><time>2026-05-05T07:24:21.563Z</time></trkpt><trkpt lat="37.8639377" lon="13.4206078"><ele>1008.0</ele><time>2026-05-05T07:24:22.565Z</time></trkpt><trkpt lat="37.8639079" lon="13.4206886"><ele>1008.0</ele><time>2026-05-05T07:24:23.565Z</time></trkpt><trkpt lat="37.8638666" lon="13.4207504"><ele>1008.0</ele><time>2026-05-05T07:24:24.565Z</time></trkpt><trkpt lat="37.8637579" lon="13.4208181"><ele>1009.0</ele><time>2026-05-05T07:24:26.565Z</time></trkpt><trkpt lat="37.8636926" lon="13.4208387"><ele>1010.0</ele><time>2026-05-05T07:24:27.563Z</time></trkpt><trkpt lat="37.8636195" lon="13.4208601"><ele>1011.0</ele><time>2026-05-05T07:24:28.564Z</time></trkpt><trkpt lat="37.8635385" lon="13.4208906"><ele>1012.0</ele><time>2026-05-05T07:24:29.565Z</time></trkpt><trkpt lat="37.8634558" lon="13.4209261"><ele>1013.0</ele><time>2026-05-05T07:24:30.565Z</time></trkpt><trkpt lat="37.863377" lon="13.4209655"><ele>1014.0</ele><time>2026-05-05T07:24:31.566Z</time></trkpt><trkpt lat="37.8633011" lon="13.4210018"><ele>1015.7142857142857</ele><time>2026-05-05T07:24:32.565Z</time></trkpt><trkpt lat="37.8632334" lon="13.4210318"><ele>1017.4285714285716</ele><time>2026-05-05T07:24:33.564Z</time></trkpt><trkpt lat="37.8631648" lon="13.4210495"><ele>1019.1428571428572</ele><time>2026-05-05T07:24:34.565Z</time></trkpt><trkpt lat="37.8631015" lon="13.4210518"><ele>1020.8571428571429</ele><time>2026-05-05T07:24:35.565Z</time></trkpt><trkpt lat="37.863015" lon="13.4209787"><ele>1022.5714285714287</ele><time>2026-05-05T07:24:37.567Z</time></trkpt><trkpt lat="37.862991" lon="13.4209005"><ele>1024.2857142857144</ele><time>2026-05-05T07:24:38.566Z</time></trkpt><trkpt lat="37.8629487" lon="13.420838"><ele>1026.0</ele><time>2026-05-05T07:24:39.565Z</time></trkpt><trkpt lat="37.862898" lon="13.4207886"><ele>1026.0000000000002</ele><time>2026-05-05T07:24:40.567Z</time></trkpt><trkpt lat="37.8628404" lon="13.4207521"><ele>1026.0</ele><time>2026-05-05T07:24:41.565Z</time></trkpt><trkpt lat="37.8627754" lon="13.4207245"><ele>1026.0</ele><time>2026-05-05T07:24:42.565Z</time></trkpt><trkpt lat="37.8627053" lon="13.4207051"><ele>1026.0</ele><time>2026-05-05T07:24:43.565Z</time></trkpt><trkpt lat="37.8626342" lon="13.420689"><ele>1026.0</ele><time>2026-05-05T07:24:44.566Z</time></trkpt><trkpt lat="37.8625637" lon="13.4206753"><ele>1026.0000000000002</ele><time>2026-05-05T07:24:45.564Z</time></trkpt><trkpt lat="37.8624948" lon="13.4206582"><ele>1026.0</ele><time>2026-05-05T07:24:46.569Z</time></trkpt><trkpt lat="37.8624264" lon="13.420645"><ele>1027.8333333333333</ele><time>2026-05-05T07:24:47.566Z</time></trkpt><trkpt lat="37.8623516" lon="13.4206322"><ele>1029.6666666666667</ele><time>2026-05-05T07:24:48.566Z</time></trkpt><trkpt lat="37.8622751" lon="13.4206202"><ele>1031.5</ele><time>2026-05-05T07:24:49.566Z</time></trkpt><trkpt lat="37.8621971" lon="13.4206104"><ele>1033.3333333333335</ele><time>2026-05-05T07:24:50.565Z</time></trkpt><trkpt lat="37.8621214" lon="13.4206042"><ele>1035.1666666666667</ele><time>2026-05-05T07:24:51.564Z</time></trkpt><trkpt lat="37.8620478" lon="13.4206054"><ele>1037.0</ele><time>2026-05-05T07:24:52.564Z</time></trkpt><trkpt lat="37.8619744" lon="13.4206148"><ele>1037.0</ele><time>2026-05-05T07:24:53.564Z</time></trkpt><trkpt lat="37.8618997" lon="13.4206305"><ele>1037.0</ele><time>2026-05-05T07:24:54.565Z</time></trkpt><trkpt lat="37.861827" lon="13.4206515"><ele>1037.0</ele><time>2026-05-05T07:24:55.566Z</time></trkpt><trkpt lat="37.8617607" lon="13.4206836"><ele>1037.0</ele><time>2026-05-05T07:24:56.566Z</time></trkpt><trkpt lat="37.8617016" lon="13.4207307"><ele>1037.0</ele><time>2026-05-05T07:24:57.565Z</time></trkpt><trkpt lat="37.8616475" lon="13.4207872"><ele>1037.0</ele><time>2026-05-05T07:24:58.565Z</time></trkpt><trkpt lat="37.8615911" lon="13.4208401"><ele>1037.0</ele><time>2026-05-05T07:24:59.655Z</time></trkpt><trkpt lat="37.8614755" lon="13.4208885"><ele>1038.6</ele><time>2026-05-05T07:25:01.564Z</time></trkpt><trkpt lat="37.8613554" lon="13.4208332"><ele>1040.2</ele><time>2026-05-05T07:25:03.564Z</time></trkpt><trkpt lat="37.8612923" lon="13.4207703"><ele>1041.8</ele><time>2026-05-05T07:25:04.563Z</time></trkpt><trkpt lat="37.8612231" lon="13.4207056"><ele>1043.4</ele><time>2026-05-05T07:25:05.566Z</time></trkpt><trkpt lat="37.8611496" lon="13.4206438"><ele>1045.0</ele><time>2026-05-05T07:25:06.563Z</time></trkpt><trkpt lat="37.8610727" lon="13.4205914"><ele>1045.0</ele><time>2026-05-05T07:25:07.565Z</time></trkpt><trkpt lat="37.8609946" lon="13.4205512"><ele>1045.0</ele><time>2026-05-05T07:25:08.565Z</time></trkpt><trkpt lat="37.8609201" lon="13.4205372"><ele>1045.0</ele><time>2026-05-05T07:25:09.566Z</time></trkpt><trkpt lat="37.8608517" lon="13.4205498"><ele>1045.0</ele><time>2026-05-05T07:25:10.566Z</time></trkpt><trkpt lat="37.8607906" lon="13.4205805"><ele>1045.0</ele><time>2026-05-05T07:25:11.565Z</time></trkpt><trkpt lat="37.8607357" lon="13.4206245"><ele>1045.0</ele><time>2026-05-05T07:25:12.566Z</time></trkpt><trkpt lat="37.8606804" lon="13.4206921"><ele>1045.0</ele><time>2026-05-05T07:25:13.566Z</time></trkpt><trkpt lat="37.8606177" lon="13.4207565"><ele>1047.0</ele><time>2026-05-05T07:25:14.566Z</time></trkpt><trkpt lat="37.8605486" lon="13.4207976"><ele>1049.0</ele><time>2026-05-05T07:25:15.564Z</time></trkpt><trkpt lat="37.8604676" lon="13.4208137"><ele>1051.0</ele><time>2026-05-05T07:25:16.566Z</time></trkpt><trkpt lat="37.8603818" lon="13.4208258"><ele>1053.0</ele><time>2026-05-05T07:25:17.565Z</time></trkpt><trkpt lat="37.8602969" lon="13.4208531"><ele>1055.0</ele><time>2026-05-05T07:25:18.565Z</time></trkpt><trkpt lat="37.8602122" lon="13.4208941"><ele>1057.0</ele><time>2026-05-05T07:25:19.565Z</time></trkpt><trkpt lat="37.8601298" lon="13.4209384"><ele>1058.1666666666665</ele><time>2026-05-05T07:25:20.566Z</time></trkpt><trkpt lat="37.8600553" lon="13.4209912"><ele>1059.3333333333333</ele><time>2026-05-05T07:25:21.564Z</time></trkpt><trkpt lat="37.8599934" lon="13.4210587"><ele>1060.5</ele><time>2026-05-05T07:25:22.564Z</time></trkpt><trkpt lat="37.859941" lon="13.4211351"><ele>1061.6666666666667</ele><time>2026-05-05T07:25:23.564Z</time></trkpt><trkpt lat="37.8598905" lon="13.4212133"><ele>1062.8333333333335</ele><time>2026-05-05T07:25:24.566Z</time></trkpt><trkpt lat="37.8598328" lon="13.4212883"><ele>1064.0</ele><time>2026-05-05T07:25:25.565Z</time></trkpt><trkpt lat="37.8597683" lon="13.421352"><ele>1064.0</ele><time>2026-05-05T07:25:26.566Z</time></trkpt><trkpt lat="37.8596989" lon="13.4213885"><ele>1064.0</ele><time>2026-05-05T07:25:27.564Z</time></trkpt><trkpt lat="37.8596271" lon="13.4213995"><ele>1064.0</ele><time>2026-05-05T07:25:28.563Z</time></trkpt><trkpt lat="37.8595532" lon="13.4213944"><ele>1064.0</ele><time>2026-05-05T07:25:29.563Z</time></trkpt><trkpt lat="37.8594696" lon="13.4213881"><ele>1064.0</ele><time>2026-05-05T07:25:30.564Z</time></trkpt><trkpt lat="37.8593787" lon="13.4213962"><ele>1064.0</ele><time>2026-05-05T07:25:31.566Z</time></trkpt><trkpt lat="37.8592864" lon="13.4214161"><ele>1064.3333333333335</ele><time>2026-05-05T07:25:32.566Z</time></trkpt><trkpt lat="37.8592011" lon="13.4214463"><ele>1064.6666666666667</ele><time>2026-05-05T07:25:33.563Z</time></trkpt><trkpt lat="37.8591259" lon="13.4214844"><ele>1065.0</ele><time>2026-05-05T07:25:34.565Z</time></trkpt><trkpt lat="37.8590555" lon="13.4215294"><ele>1065.3333333333333</ele><time>2026-05-05T07:25:35.566Z</time></trkpt><trkpt lat="37.8589844" lon="13.4215838"><ele>1065.6666666666665</ele><time>2026-05-05T07:25:36.565Z</time></trkpt><trkpt lat="37.8589127" lon="13.4216442"><ele>1066.0</ele><time>2026-05-05T07:25:37.564Z</time></trkpt><trkpt lat="37.858837" lon="13.4217065"><ele>1066.0</ele><time>2026-05-05T07:25:38.565Z</time></trkpt><trkpt lat="37.8587585" lon="13.4217664"><ele>1066.0</ele><time>2026-05-05T07:25:39.565Z</time></trkpt><trkpt lat="37.858677" lon="13.4218265"><ele>1066.0</ele><time>2026-05-05T07:25:40.565Z</time></trkpt><trkpt lat="37.8585935" lon="13.4218839"><ele>1066.0</ele><time>2026-05-05T07:25:41.564Z</time></trkpt><trkpt lat="37.858507" lon="13.4219393"><ele>1066.0</ele><time>2026-05-05T07:25:42.564Z</time></trkpt><trkpt lat="37.8584202" lon="13.4219954"><ele>1066.3333333333333</ele><time>2026-05-05T07:25:43.565Z</time></trkpt><trkpt lat="37.8583382" lon="13.4220491"><ele>1066.6666666666665</ele><time>2026-05-05T07:25:44.565Z</time></trkpt><trkpt lat="37.8582642" lon="13.4220995"><ele>1067.0</ele><time>2026-05-05T07:25:45.564Z</time></trkpt><trkpt lat="37.8581955" lon="13.4221464"><ele>1067.3333333333333</ele><time>2026-05-05T07:25:46.564Z</time></trkpt><trkpt lat="37.8581347" lon="13.4221897"><ele>1067.6666666666667</ele><time>2026-05-05T07:25:47.564Z</time></trkpt><trkpt lat="37.8580768" lon="13.4222327"><ele>1068.0</ele><time>2026-05-05T07:25:48.564Z</time></trkpt><trkpt lat="37.8580204" lon="13.4222745"><ele>1067.4285714285716</ele><time>2026-05-05T07:25:49.564Z</time></trkpt><trkpt lat="37.8579617" lon="13.4223174"><ele>1066.857142857143</ele><time>2026-05-05T07:25:50.565Z</time></trkpt><trkpt lat="37.8579038" lon="13.4223568"><ele>1066.2857142857142</ele><time>2026-05-05T07:25:51.564Z</time></trkpt><trkpt lat="37.857847" lon="13.4223976"><ele>1065.7142857142858</ele><time>2026-05-05T07:25:52.565Z</time></trkpt><trkpt lat="37.8577875" lon="13.4224386"><ele>1065.142857142857</ele><time>2026-05-05T07:25:53.563Z</time></trkpt><trkpt lat="37.8577242" lon="13.4224855"><ele>1064.5714285714287</ele><time>2026-05-05T07:25:54.564Z</time></trkpt><trkpt lat="37.8576588" lon="13.4225361"><ele>1064.0</ele><time>2026-05-05T07:25:55.565Z</time></trkpt><trkpt lat="37.8575889" lon="13.4225921"><ele>1064.0</ele><time>2026-05-05T07:25:56.565Z</time></trkpt><trkpt lat="37.8575144" lon="13.4226578"><ele>1064.0</ele><time>2026-05-05T07:25:57.564Z</time></trkpt><trkpt lat="37.8574378" lon="13.422733"><ele>1064.0</ele><time>2026-05-05T07:25:58.566Z</time></trkpt><trkpt lat="37.8573609" lon="13.4228208"><ele>1064.0</ele><time>2026-05-05T07:25:59.565Z</time></trkpt><trkpt lat="37.8572826" lon="13.4229288"><ele>1064.0</ele><time>2026-05-05T07:26:00.565Z</time></trkpt><trkpt lat="37.8572039" lon="13.4230507"><ele>1061.5</ele><time>2026-05-05T07:26:01.564Z</time></trkpt><trkpt lat="37.8571229" lon="13.4231932"><ele>1059.0</ele><time>2026-05-05T07:26:02.565Z</time></trkpt><trkpt lat="37.8570408" lon="13.4233486"><ele>1056.5</ele><time>2026-05-05T07:26:03.564Z</time></trkpt><trkpt lat="37.8569587" lon="13.4235116"><ele>1054.0</ele><time>2026-05-05T07:26:04.565Z</time></trkpt><trkpt lat="37.8568731" lon="13.4236815"><ele>1052.6666666666665</ele><time>2026-05-05T07:26:05.564Z</time></trkpt><trkpt lat="37.856787" lon="13.4238583"><ele>1051.3333333333333</ele><time>2026-05-05T07:26:06.565Z</time></trkpt><trkpt lat="37.8567143" lon="13.4240336"><ele>1050.0</ele><time>2026-05-05T07:26:07.564Z</time></trkpt><trkpt lat="37.8566531" lon="13.4242109"><ele>1052.75</ele><time>2026-05-05T07:26:08.566Z</time></trkpt><trkpt lat="37.8565912" lon="13.4243867"><ele>1055.5</ele><time>2026-05-05T07:26:09.566Z</time></trkpt><trkpt lat="37.8565221" lon="13.4245483"><ele>1058.25</ele><time>2026-05-05T07:26:10.565Z</time></trkpt><trkpt lat="37.8564397" lon="13.424691"><ele>1061.0</ele><time>2026-05-05T07:26:11.565Z</time></trkpt><trkpt lat="37.8563456" lon="13.4248257"><ele>1061.0</ele><time>2026-05-05T07:26:12.563Z</time></trkpt><trkpt lat="37.8562308" lon="13.4249622"><ele>1061.0</ele><time>2026-05-05T07:26:13.564Z</time></trkpt><trkpt lat="37.8560977" lon="13.4251026"><ele>1061.0</ele><time>2026-05-05T07:26:14.565Z</time></trkpt><trkpt lat="37.8559597" lon="13.4252451"><ele>1063.0</ele><time>2026-05-05T07:26:15.564Z</time></trkpt><trkpt lat="37.8558343" lon="13.4253809"><ele>1065.0</ele><time>2026-05-05T07:26:16.564Z</time></trkpt><trkpt lat="37.8557234" lon="13.4255079"><ele>1067.0</ele><time>2026-05-05T07:26:17.57Z</time></trkpt><trkpt lat="37.8556247" lon="13.425618"><ele>1069.0</ele><time>2026-05-05T07:26:18.565Z</time></trkpt><trkpt lat="37.8555403" lon="13.4257128"><ele>1070.5</ele><time>2026-05-05T07:26:19.564Z</time></trkpt><trkpt lat="37.855461" lon="13.4257986"><ele>1072.0</ele><time>2026-05-05T07:26:20.564Z</time></trkpt><trkpt lat="37.8553722" lon="13.4258753"><ele>1073.5</ele><time>2026-05-05T07:26:21.565Z</time></trkpt><trkpt lat="37.8552695" lon="13.4259468"><ele>1075.0</ele><time>2026-05-05T07:26:22.564Z</time></trkpt><trkpt lat="37.8551598" lon="13.4260204"><ele>1074.0</ele><time>2026-05-05T07:26:23.564Z</time></trkpt><trkpt lat="37.8550478" lon="13.4260872"><ele>1073.0</ele><time>2026-05-05T07:26:24.565Z</time></trkpt><trkpt lat="37.8549339" lon="13.4261392"><ele>1072.0</ele><time>2026-05-05T07:26:25.564Z</time></trkpt><trkpt lat="37.8548156" lon="13.4261842"><ele>1071.0</ele><time>2026-05-05T07:26:26.563Z</time></trkpt><trkpt lat="37.8546949" lon="13.4262364"><ele>1071.0</ele><time>2026-05-05T07:26:27.565Z</time></trkpt><trkpt lat="37.8545814" lon="13.4262883"><ele>1071.0</ele><time>2026-05-05T07:26:28.564Z</time></trkpt><trkpt lat="37.8544736" lon="13.4263339"><ele>1071.0</ele><time>2026-05-05T07:26:29.565Z</time></trkpt><trkpt lat="37.8543704" lon="13.4263741"><ele>1071.0</ele><time>2026-05-05T07:26:30.564Z</time></trkpt><trkpt lat="37.8542774" lon="13.4264161"><ele>1071.0</ele><time>2026-05-05T07:26:31.565Z</time></trkpt><trkpt lat="37.8541945" lon="13.4264627"><ele>1068.6666666666667</ele><time>2026-05-05T07:26:32.564Z</time></trkpt><trkpt lat="37.8541155" lon="13.42652"><ele>1066.3333333333333</ele><time>2026-05-05T07:26:33.564Z</time></trkpt><trkpt lat="37.854045" lon="13.4265873"><ele>1064.0</ele><time>2026-05-05T07:26:34.564Z</time></trkpt><trkpt lat="37.8539832" lon="13.4266647"><ele>1061.6666666666665</ele><time>2026-05-05T07:26:35.563Z</time></trkpt><trkpt lat="37.8539269" lon="13.4267419"><ele>1059.3333333333333</ele><time>2026-05-05T07:26:36.564Z</time></trkpt><trkpt lat="37.8538716" lon="13.4268039"><ele>1057.0</ele><time>2026-05-05T07:26:37.564Z</time></trkpt><trkpt lat="37.8538147" lon="13.4268518"><ele>1057.0</ele><time>2026-05-05T07:26:38.565Z</time></trkpt><trkpt lat="37.8537554" lon="13.4268883"><ele>1057.0</ele><time>2026-05-05T07:26:39.562Z</time></trkpt><trkpt lat="37.8536926" lon="13.4269219"><ele>1057.0</ele><time>2026-05-05T07:26:40.563Z</time></trkpt><trkpt lat="37.8536266" lon="13.4269551"><ele>1057.0</ele><time>2026-05-05T07:26:41.563Z</time></trkpt><trkpt lat="37.8535595" lon="13.4269986"><ele>1057.0</ele><time>2026-05-05T07:26:42.563Z</time></trkpt><trkpt lat="37.8534879" lon="13.4270606"><ele>1057.0</ele><time>2026-05-05T07:26:43.562Z</time></trkpt><trkpt lat="37.8534282" lon="13.4271348"><ele>1054.5</ele><time>2026-05-05T07:26:44.563Z</time></trkpt><trkpt lat="37.8533809" lon="13.4272151"><ele>1052.0</ele><time>2026-05-05T07:26:45.563Z</time></trkpt><trkpt lat="37.853343" lon="13.4272895"><ele>1049.5</ele><time>2026-05-05T07:26:46.564Z</time></trkpt><trkpt lat="37.8532756" lon="13.4274035"><ele>1047.0</ele><time>2026-05-05T07:26:48.565Z</time></trkpt><trkpt lat="37.8531793" lon="13.4274247"><ele>1044.5</ele><time>2026-05-05T07:26:50.564Z</time></trkpt><trkpt lat="37.853118" lon="13.427395"><ele>1042.0</ele><time>2026-05-05T07:26:51.564Z</time></trkpt><trkpt lat="37.8530532" lon="13.4273601"><ele>1042.0</ele><time>2026-05-05T07:26:52.565Z</time></trkpt><trkpt lat="37.8529874" lon="13.4273353"><ele>1042.0</ele><time>2026-05-05T07:26:53.564Z</time></trkpt><trkpt lat="37.8529244" lon="13.4273269"><ele>1042.0</ele><time>2026-05-05T07:26:54.563Z</time></trkpt><trkpt lat="37.8528589" lon="13.4273465"><ele>1042.0</ele><time>2026-05-05T07:26:55.564Z</time></trkpt><trkpt lat="37.852794" lon="13.4274051"><ele>1042.0</ele><time>2026-05-05T07:26:56.565Z</time></trkpt><trkpt lat="37.8527388" lon="13.4274743"><ele>1042.0</ele><time>2026-05-05T07:26:57.563Z</time></trkpt><trkpt lat="37.8526873" lon="13.4275474"><ele>1042.0</ele><time>2026-05-05T07:26:58.564Z</time></trkpt><trkpt lat="37.852641" lon="13.4276254"><ele>1040.6666666666665</ele><time>2026-05-05T07:26:59.563Z</time></trkpt><trkpt lat="37.8525977" lon="13.4277094"><ele>1039.3333333333333</ele><time>2026-05-05T07:27:00.564Z</time></trkpt><trkpt lat="37.8525544" lon="13.4277945"><ele>1038.0</ele><time>2026-05-05T07:27:01.563Z</time></trkpt><trkpt lat="37.8525059" lon="13.4278805"><ele>1036.6666666666667</ele><time>2026-05-05T07:27:02.564Z</time></trkpt><trkpt lat="37.852454" lon="13.4279653"><ele>1035.3333333333335</ele><time>2026-05-05T07:27:03.565Z</time></trkpt><trkpt lat="37.8524046" lon="13.428053"><ele>1034.0</ele><time>2026-05-05T07:27:04.564Z</time></trkpt><trkpt lat="37.8523506" lon="13.4281383"><ele>1034.0</ele><time>2026-05-05T07:27:05.565Z</time></trkpt><trkpt lat="37.8522963" lon="13.4282278"><ele>1034.0</ele><time>2026-05-05T07:27:06.564Z</time></trkpt><trkpt lat="37.8522448" lon="13.4283206"><ele>1034.0</ele><time>2026-05-05T07:27:07.565Z</time></trkpt><trkpt lat="37.8521944" lon="13.4284239"><ele>1034.0</ele><time>2026-05-05T07:27:08.565Z</time></trkpt><trkpt lat="37.8521434" lon="13.4285322"><ele>1034.0</ele><time>2026-05-05T07:27:09.564Z</time></trkpt><trkpt lat="37.852093" lon="13.4286411"><ele>1034.0</ele><time>2026-05-05T07:27:10.563Z</time></trkpt><trkpt lat="37.8520445" lon="13.4287462"><ele>1034.0</ele><time>2026-05-05T07:27:11.565Z</time></trkpt><trkpt lat="37.8519894" lon="13.4288438"><ele>1034.0</ele><time>2026-05-05T07:27:12.563Z</time></trkpt><trkpt lat="37.8519251" lon="13.4289267"><ele>1034.0</ele><time>2026-05-05T07:27:13.564Z</time></trkpt><trkpt lat="37.8518557" lon="13.4290038"><ele>1034.0</ele><time>2026-05-05T07:27:14.565Z</time></trkpt><trkpt lat="37.8517864" lon="13.4290863"><ele>1037.2</ele><time>2026-05-05T07:27:15.563Z</time></trkpt><trkpt lat="37.8517244" lon="13.4291764"><ele>1040.4</ele><time>2026-05-05T07:27:16.564Z</time></trkpt><trkpt lat="37.8516703" lon="13.4292765"><ele>1043.6</ele><time>2026-05-05T07:27:17.564Z</time></trkpt><trkpt lat="37.8516221" lon="13.4293795"><ele>1046.8</ele><time>2026-05-05T07:27:18.564Z</time></trkpt><trkpt lat="37.8515706" lon="13.429474"><ele>1050.0</ele><time>2026-05-05T07:27:19.564Z</time></trkpt><trkpt lat="37.8515116" lon="13.4295537"><ele>1050.0</ele><time>2026-05-05T07:27:20.566Z</time></trkpt><trkpt lat="37.8514438" lon="13.4296134"><ele>1050.0</ele><time>2026-05-05T07:27:21.564Z</time></trkpt><trkpt lat="37.8513689" lon="13.4296669"><ele>1050.0</ele><time>2026-05-05T07:27:22.564Z</time></trkpt><trkpt lat="37.8513016" lon="13.4297335"><ele>1050.0</ele><time>2026-05-05T07:27:23.565Z</time></trkpt><trkpt lat="37.8512466" lon="13.4298099"><ele>1050.0</ele><time>2026-05-05T07:27:24.563Z</time></trkpt><trkpt lat="37.851209" lon="13.4298991"><ele>1050.0</ele><time>2026-05-05T07:27:25.565Z</time></trkpt><trkpt lat="37.8511797" lon="13.43001"><ele>1047.4</ele><time>2026-05-05T07:27:26.565Z</time></trkpt><trkpt lat="37.8511477" lon="13.4301313"><ele>1044.8</ele><time>2026-05-05T07:27:27.564Z</time></trkpt><trkpt lat="37.8511095" lon="13.4302555"><ele>1042.2</ele><time>2026-05-05T07:27:28.565Z</time></trkpt><trkpt lat="37.8510693" lon="13.4303785"><ele>1039.6</ele><time>2026-05-05T07:27:29.563Z</time></trkpt><trkpt lat="37.8510365" lon="13.4305004"><ele>1037.0</ele><time>2026-05-05T07:27:30.565Z</time></trkpt><trkpt lat="37.8510072" lon="13.4306212"><ele>1041.4</ele><time>2026-05-05T07:27:31.563Z</time></trkpt><trkpt lat="37.8509921" lon="13.4307417"><ele>1045.8000000000002</ele><time>2026-05-05T07:27:32.565Z</time></trkpt><trkpt lat="37.850985" lon="13.4308675"><ele>1050.2</ele><time>2026-05-05T07:27:33.565Z</time></trkpt><trkpt lat="37.8509713" lon="13.4309867"><ele>1054.6000000000001</ele><time>2026-05-05T07:27:34.564Z</time></trkpt><trkpt lat="37.8509416" lon="13.4310879"><ele>1059.0</ele><time>2026-05-05T07:27:35.564Z</time></trkpt><trkpt lat="37.8508983" lon="13.4311749"><ele>1059.0</ele><time>2026-05-05T07:27:36.562Z</time></trkpt><trkpt lat="37.8508423" lon="13.4312554"><ele>1059.0</ele><time>2026-05-05T07:27:37.564Z</time></trkpt><trkpt lat="37.8507791" lon="13.4313255"><ele>1059.0</ele><time>2026-05-05T07:27:38.565Z</time></trkpt><trkpt lat="37.8507148" lon="13.4313728"><ele>1059.0</ele><time>2026-05-05T07:27:39.563Z</time></trkpt><trkpt lat="37.8506484" lon="13.431394"><ele>1059.0</ele><time>2026-05-05T07:27:40.564Z</time></trkpt><trkpt lat="37.8505784" lon="13.431395"><ele>1059.0</ele><time>2026-05-05T07:27:41.563Z</time></trkpt><trkpt lat="37.8505076" lon="13.4313812"><ele>1059.0</ele><time>2026-05-05T07:27:42.563Z</time></trkpt><trkpt lat="37.8504373" lon="13.4313479"><ele>1059.0</ele><time>2026-05-05T07:27:43.564Z</time></trkpt><trkpt lat="37.8503677" lon="13.4312998"><ele>1059.0</ele><time>2026-05-05T07:27:44.564Z</time></trkpt><trkpt lat="37.8503007" lon="13.4312452"><ele>1059.0</ele><time>2026-05-05T07:27:45.565Z</time></trkpt><trkpt lat="37.8502393" lon="13.4311924"><ele>1059.0</ele><time>2026-05-05T07:27:46.563Z</time></trkpt><trkpt lat="37.8501833" lon="13.4311383"><ele>1059.0</ele><time>2026-05-05T07:27:47.565Z</time></trkpt><trkpt lat="37.850125" lon="13.4310833"><ele>1060.142857142857</ele><time>2026-05-05T07:27:48.563Z</time></trkpt><trkpt lat="37.8500633" lon="13.4310267"><ele>1061.2857142857142</ele><time>2026-05-05T07:27:49.565Z</time></trkpt><trkpt lat="37.8500033" lon="13.4309817"><ele>1062.4285714285713</ele><time>2026-05-05T07:27:50.565Z</time></trkpt><trkpt lat="37.849935" lon="13.4309583"><ele>1063.5714285714284</ele><time>2026-05-05T07:27:51.564Z</time></trkpt><trkpt lat="37.849865" lon="13.4309567"><ele>1064.7142857142858</ele><time>2026-05-05T07:27:52.565Z</time></trkpt><trkpt lat="37.849795" lon="13.43097"><ele>1065.8571428571427</ele><time>2026-05-05T07:27:53.564Z</time></trkpt><trkpt lat="37.8497217" lon="13.430995"><ele>1067.0</ele><time>2026-05-05T07:27:54.568Z</time></trkpt><trkpt lat="37.849645" lon="13.4310217"><ele>1067.0</ele><time>2026-05-05T07:27:55.565Z</time></trkpt><trkpt lat="37.8495667" lon="13.4310517"><ele>1067.0</ele><time>2026-05-05T07:27:56.566Z</time></trkpt><trkpt lat="37.849485" lon="13.431085"><ele>1067.0</ele><time>2026-05-05T07:27:57.565Z</time></trkpt><trkpt lat="37.8493983" lon="13.4311217"><ele>1067.0</ele><time>2026-05-05T07:27:58.564Z</time></trkpt><trkpt lat="37.8493117" lon="13.43117"><ele>1067.0</ele><time>2026-05-05T07:27:59.566Z</time></trkpt><trkpt lat="37.8492267" lon="13.4312317"><ele>1063.4</ele><time>2026-05-05T07:28:00.566Z</time></trkpt><trkpt lat="37.8491483" lon="13.4313117"><ele>1059.8000000000002</ele><time>2026-05-05T07:28:01.565Z</time></trkpt><trkpt lat="37.84908" lon="13.4314083"><ele>1056.2</ele><time>2026-05-05T07:28:02.565Z</time></trkpt><trkpt lat="37.8490233" lon="13.43152"><ele>1052.6000000000001</ele><time>2026-05-05T07:28:03.565Z</time></trkpt><trkpt lat="37.8489667" lon="13.4316317"><ele>1049.0</ele><time>2026-05-05T07:28:04.565Z</time></trkpt><trkpt lat="37.8489033" lon="13.43174"><ele>1049.0</ele><time>2026-05-05T07:28:05.564Z</time></trkpt><trkpt lat="37.8488333" lon="13.4318417"><ele>1049.0</ele><time>2026-05-05T07:28:06.563Z</time></trkpt><trkpt lat="37.8487533" lon="13.43194"><ele>1049.0</ele><time>2026-05-05T07:28:07.565Z</time></trkpt><trkpt lat="37.8486667" lon="13.4320383"><ele>1049.0</ele><time>2026-05-05T07:28:08.565Z</time></trkpt><trkpt lat="37.8485833" lon="13.4321383"><ele>1049.0</ele><time>2026-05-05T07:28:09.563Z</time></trkpt><trkpt lat="37.8484983" lon="13.4322383"><ele>1053.25</ele><time>2026-05-05T07:28:10.563Z</time></trkpt><trkpt lat="37.8484067" lon="13.432335"><ele>1057.5</ele><time>2026-05-05T07:28:11.564Z</time></trkpt><trkpt lat="37.8483133" lon="13.4324283"><ele>1061.75</ele><time>2026-05-05T07:28:12.564Z</time></trkpt><trkpt lat="37.84822" lon="13.4325167"><ele>1066.0</ele><time>2026-05-05T07:28:13.563Z</time></trkpt><trkpt lat="37.84813" lon="13.4325983"><ele>1066.0</ele><time>2026-05-05T07:28:14.564Z</time></trkpt><trkpt lat="37.848045" lon="13.4326767"><ele>1066.0</ele><time>2026-05-05T07:28:15.564Z</time></trkpt><trkpt lat="37.84797" lon="13.43275"><ele>1066.0</ele><time>2026-05-05T07:28:16.564Z</time></trkpt><trkpt lat="37.8479" lon="13.432825"><ele>1066.0</ele><time>2026-05-05T07:28:17.565Z</time></trkpt><trkpt lat="37.8478383" lon="13.4329033"><ele>1066.0</ele><time>2026-05-05T07:28:18.563Z</time></trkpt><trkpt lat="37.8477817" lon="13.43299"><ele>1066.6</ele><time>2026-05-05T07:28:19.564Z</time></trkpt><trkpt lat="37.84773" lon="13.43309"><ele>1067.1999999999998</ele><time>2026-05-05T07:28:20.564Z</time></trkpt><trkpt lat="37.8476833" lon="13.4331933"><ele>1067.8000000000002</ele><time>2026-05-05T07:28:21.564Z</time></trkpt><trkpt lat="37.8476417" lon="13.4333017"><ele>1068.4</ele><time>2026-05-05T07:28:22.565Z</time></trkpt><trkpt lat="37.847605" lon="13.4334167"><ele>1069.0</ele><time>2026-05-05T07:28:23.565Z</time></trkpt><trkpt lat="37.847565" lon="13.4335317"><ele>1069.0</ele><time>2026-05-05T07:28:24.563Z</time></trkpt><trkpt lat="37.847515" lon="13.4336367"><ele>1069.0</ele><time>2026-05-05T07:28:25.564Z</time></trkpt><trkpt lat="37.8474517" lon="13.4337333"><ele>1069.0</ele><time>2026-05-05T07:28:26.564Z</time></trkpt><trkpt lat="37.84738" lon="13.433825"><ele>1069.0</ele><time>2026-05-05T07:28:27.565Z</time></trkpt><trkpt lat="37.8473067" lon="13.4339133"><ele>1069.0</ele><time>2026-05-05T07:28:28.565Z</time></trkpt><trkpt lat="37.8472367" lon="13.434005"><ele>1066.6000000000001</ele><time>2026-05-05T07:28:29.566Z</time></trkpt><trkpt lat="37.84717" lon="13.4341"><ele>1064.2</ele><time>2026-05-05T07:28:30.564Z</time></trkpt><trkpt lat="37.8471067" lon="13.4342033"><ele>1061.8000000000002</ele><time>2026-05-05T07:28:31.563Z</time></trkpt><trkpt lat="37.8470567" lon="13.4343117"><ele>1059.4</ele><time>2026-05-05T07:28:32.566Z</time></trkpt><trkpt lat="37.84701" lon="13.4344183"><ele>1057.0</ele><time>2026-05-05T07:28:33.565Z</time></trkpt><trkpt lat="37.84696" lon="13.43452"><ele>1057.0</ele><time>2026-05-05T07:28:34.567Z</time></trkpt><trkpt lat="37.8469117" lon="13.4346167"><ele>1057.0</ele><time>2026-05-05T07:28:35.562Z</time></trkpt><trkpt lat="37.84686" lon="13.4346983"><ele>1057.0</ele><time>2026-05-05T07:28:36.564Z</time></trkpt><trkpt lat="37.8468006" lon="13.4347779"><ele>1057.0</ele><time>2026-05-05T07:28:37.564Z</time></trkpt><trkpt lat="37.846738" lon="13.4348583"><ele>1057.0</ele><time>2026-05-05T07:28:38.564Z</time></trkpt><trkpt lat="37.8466779" lon="13.4349394"><ele>1057.0</ele><time>2026-05-05T07:28:39.564Z</time></trkpt><trkpt lat="37.8466245" lon="13.4350263"><ele>1058.0</ele><time>2026-05-05T07:28:40.564Z</time></trkpt><trkpt lat="37.8465775" lon="13.4351217"><ele>1059.0</ele><time>2026-05-05T07:28:41.564Z</time></trkpt><trkpt lat="37.8465334" lon="13.4352171"><ele>1060.0</ele><time>2026-05-05T07:28:42.565Z</time></trkpt><trkpt lat="37.8464875" lon="13.435311"><ele>1061.0</ele><time>2026-05-05T07:28:43.565Z</time></trkpt><trkpt lat="37.8464283" lon="13.4353864"><ele>1062.0</ele><time>2026-05-05T07:28:44.565Z</time></trkpt><trkpt lat="37.8463593" lon="13.4354547"><ele>1063.0</ele><time>2026-05-05T07:28:45.565Z</time></trkpt><trkpt lat="37.8462879" lon="13.4355255"><ele>1063.0</ele><time>2026-05-05T07:28:46.564Z</time></trkpt><trkpt lat="37.846216" lon="13.4355995"><ele>1063.0</ele><time>2026-05-05T07:28:47.564Z</time></trkpt><trkpt lat="37.8461484" lon="13.435673"><ele>1063.0</ele><time>2026-05-05T07:28:48.564Z</time></trkpt><trkpt lat="37.8460843" lon="13.4357518"><ele>1063.0</ele><time>2026-05-05T07:28:49.564Z</time></trkpt><trkpt lat="37.8460224" lon="13.4358364"><ele>1063.0</ele><time>2026-05-05T07:28:50.565Z</time></trkpt><trkpt lat="37.8459611" lon="13.4359247"><ele>1065.4</ele><time>2026-05-05T07:28:51.564Z</time></trkpt><trkpt lat="37.8458971" lon="13.436012"><ele>1067.8</ele><time>2026-05-05T07:28:52.563Z</time></trkpt><trkpt lat="37.8458319" lon="13.4360986"><ele>1070.2</ele><time>2026-05-05T07:28:53.565Z</time></trkpt><trkpt lat="37.8457663" lon="13.4361847"><ele>1072.6</ele><time>2026-05-05T07:28:54.566Z</time></trkpt><trkpt lat="37.8457023" lon="13.4362699"><ele>1075.0</ele><time>2026-05-05T07:28:55.565Z</time></trkpt><trkpt lat="37.8456393" lon="13.4363555"><ele>1075.0</ele><time>2026-05-05T07:28:56.566Z</time></trkpt><trkpt lat="37.8455834" lon="13.4364434"><ele>1075.0</ele><time>2026-05-05T07:28:57.564Z</time></trkpt><trkpt lat="37.8455345" lon="13.4365298"><ele>1075.0</ele><time>2026-05-05T07:28:58.565Z</time></trkpt><trkpt lat="37.845483" lon="13.4366098"><ele>1075.0</ele><time>2026-05-05T07:28:59.565Z</time></trkpt><trkpt lat="37.8454272" lon="13.4366846"><ele>1075.0</ele><time>2026-05-05T07:29:00.565Z</time></trkpt><trkpt lat="37.8453695" lon="13.4367602"><ele>1075.0</ele><time>2026-05-05T07:29:01.564Z</time></trkpt><trkpt lat="37.8453139" lon="13.4368369"><ele>1075.0</ele><time>2026-05-05T07:29:02.564Z</time></trkpt><trkpt lat="37.845262" lon="13.4369174"><ele>1075.0</ele><time>2026-05-05T07:29:03.563Z</time></trkpt><trkpt lat="37.8452108" lon="13.4369988"><ele>1075.0</ele><time>2026-05-05T07:29:04.564Z</time></trkpt><trkpt lat="37.8451551" lon="13.4370726"><ele>1075.0</ele><time>2026-05-05T07:29:05.564Z</time></trkpt><trkpt lat="37.8450964" lon="13.437144"><ele>1075.0</ele><time>2026-05-05T07:29:06.563Z</time></trkpt><trkpt lat="37.8450414" lon="13.4372213"><ele>1075.0</ele><time>2026-05-05T07:29:07.565Z</time></trkpt><trkpt lat="37.8449897" lon="13.4372999"><ele>1079.3333333333333</ele><time>2026-05-05T07:29:08.565Z</time></trkpt><trkpt lat="37.8449399" lon="13.4373785"><ele>1083.6666666666665</ele><time>2026-05-05T07:29:09.564Z</time></trkpt><trkpt lat="37.8448874" lon="13.4374595"><ele>1088.0</ele><time>2026-05-05T07:29:10.566Z</time></trkpt><trkpt lat="37.8448397" lon="13.4375415"><ele>1092.3333333333333</ele><time>2026-05-05T07:29:11.565Z</time></trkpt><trkpt lat="37.8447947" lon="13.4376229"><ele>1096.6666666666667</ele><time>2026-05-05T07:29:12.565Z</time></trkpt><trkpt lat="37.8447531" lon="13.437705"><ele>1101.0</ele><time>2026-05-05T07:29:13.565Z</time></trkpt><trkpt lat="37.844727" lon="13.4377978"><ele>1101.0</ele><time>2026-05-05T07:29:14.566Z</time></trkpt><trkpt lat="37.8447129" lon="13.4378984"><ele>1101.0</ele><time>2026-05-05T07:29:15.565Z</time></trkpt><trkpt lat="37.8446988" lon="13.4379994"><ele>1101.0</ele><time>2026-05-05T07:29:16.565Z</time></trkpt><trkpt lat="37.8446786" lon="13.4380991"><ele>1101.0</ele><time>2026-05-05T07:29:17.566Z</time></trkpt><trkpt lat="37.8446521" lon="13.4381947"><ele>1101.0</ele><time>2026-05-05T07:29:18.566Z</time></trkpt><trkpt lat="37.8446227" lon="13.4382881"><ele>1101.0</ele><time>2026-05-05T07:29:19.57Z</time></trkpt><trkpt lat="37.8445988" lon="13.4383776"><ele>1101.2</ele><time>2026-05-05T07:29:20.567Z</time></trkpt><trkpt lat="37.8445749" lon="13.4384627"><ele>1101.3999999999999</ele><time>2026-05-05T07:29:21.566Z</time></trkpt><trkpt lat="37.8445484" lon="13.4385391"><ele>1101.6</ele><time>2026-05-05T07:29:22.565Z</time></trkpt><trkpt lat="37.844483" lon="13.4386693"><ele>1101.8</ele><time>2026-05-05T07:29:24.566Z</time></trkpt><trkpt lat="37.844448" lon="13.4387973"><ele>1102.0</ele><time>2026-05-05T07:29:26.566Z</time></trkpt><trkpt lat="37.8444288" lon="13.4389127"><ele>1105.3333333333333</ele><time>2026-05-05T07:29:28.565Z</time></trkpt><trkpt lat="37.8444006" lon="13.43903"><ele>1108.6666666666665</ele><time>2026-05-05T07:30:33.565Z</time></trkpt><trkpt lat="37.8443853" lon="13.4391468"><ele>1112.0</ele><time>2026-05-05T07:30:35.565Z</time></trkpt><trkpt lat="37.8443737" lon="13.4392273"><ele>1115.3333333333333</ele><time>2026-05-05T07:30:38.566Z</time></trkpt><trkpt lat="37.8444" lon="13.4393017"><ele>1118.6666666666667</ele><time>2026-05-05T07:31:58.564Z</time></trkpt><trkpt lat="37.844385" lon="13.43941"><ele>1122.0</ele><time>2026-05-05T07:32:00.564Z</time></trkpt><trkpt lat="37.8443683" lon="13.4395483"><ele>1123.1666666666667</ele><time>2026-05-05T07:32:02.564Z</time></trkpt><trkpt lat="37.8443583" lon="13.4397033"><ele>1124.3333333333333</ele><time>2026-05-05T07:32:04.565Z</time></trkpt><trkpt lat="37.844355" lon="13.439785"><ele>1125.5</ele><time>2026-05-05T07:32:05.566Z</time></trkpt><trkpt lat="37.84436" lon="13.4398717"><ele>1126.6666666666665</ele><time>2026-05-05T07:32:06.565Z</time></trkpt><trkpt lat="37.8443633" lon="13.4399633"><ele>1127.8333333333333</ele><time>2026-05-05T07:32:07.564Z</time></trkpt><trkpt lat="37.8443717" lon="13.4400567"><ele>1129.0</ele><time>2026-05-05T07:32:08.564Z</time></trkpt><trkpt lat="37.8443817" lon="13.4401533"><ele>1129.0</ele><time>2026-05-05T07:32:09.565Z</time></trkpt><trkpt lat="37.8443933" lon="13.4402517"><ele>1129.0</ele><time>2026-05-05T07:32:10.565Z</time></trkpt><trkpt lat="37.8444033" lon="13.4403417"><ele>1129.0</ele><time>2026-05-05T07:32:11.565Z</time></trkpt><trkpt lat="37.8444183" lon="13.4404883"><ele>1129.0</ele><time>2026-05-05T07:32:13.565Z</time></trkpt><trkpt lat="37.8444367" lon="13.4406033"><ele>1129.0</ele><time>2026-05-05T07:32:15.565Z</time></trkpt><trkpt lat="37.8444767" lon="13.4406767"><ele>1129.0</ele><time>2026-05-05T07:32:17.564Z</time></trkpt><trkpt lat="37.8445298" lon="13.4406041"><ele>1129.0</ele><time>2026-05-05T07:32:19.563Z</time></trkpt><trkpt lat="37.8445609" lon="13.4405239"><ele>1129.0</ele><time>2026-05-05T07:32:20.564Z</time></trkpt><trkpt lat="37.8445901" lon="13.4404311"><ele>1129.0</ele><time>2026-05-05T07:32:21.564Z</time></trkpt><trkpt lat="37.8446215" lon="13.4403387"><ele>1129.0</ele><time>2026-05-05T07:32:22.563Z</time></trkpt><trkpt lat="37.8446528" lon="13.4402455"><ele>1129.0</ele><time>2026-05-05T07:32:23.565Z</time></trkpt><trkpt lat="37.8446804" lon="13.4401542"><ele>1129.0</ele><time>2026-05-05T07:32:24.564Z</time></trkpt><trkpt lat="37.8447054" lon="13.4400661"><ele>1129.0</ele><time>2026-05-05T07:32:25.566Z</time></trkpt><trkpt lat="37.8447272" lon="13.4399827"><ele>1129.0</ele><time>2026-05-05T07:32:26.565Z</time></trkpt><trkpt lat="37.8447571" lon="13.4398453"><ele>1129.0</ele><time>2026-05-05T07:32:28.565Z</time></trkpt><trkpt lat="37.8447233" lon="13.4399717"><ele>1129.0</ele><time>2026-05-05T07:45:31.565Z</time></trkpt><trkpt lat="37.8446817" lon="13.44011"><ele>1129.0</ele><time>2026-05-05T07:45:33.566Z</time></trkpt><trkpt lat="37.8446367" lon="13.4402567"><ele>1129.0</ele><time>2026-05-05T07:45:35.567Z</time></trkpt><trkpt lat="37.8446133" lon="13.4403333"><ele>1129.0</ele><time>2026-05-05T07:45:36.565Z</time></trkpt><trkpt lat="37.844565" lon="13.440475"><ele>1129.0</ele><time>2026-05-05T07:45:38.567Z</time></trkpt><trkpt lat="37.8445367" lon="13.4406083"><ele>1129.0</ele><time>2026-05-05T07:45:40.565Z</time></trkpt><trkpt lat="37.8444917" lon="13.4406817"><ele>1129.0</ele><time>2026-05-05T07:45:42.565Z</time></trkpt><trkpt lat="37.8444283" lon="13.4406367"><ele>1129.0</ele><time>2026-05-05T07:45:44.566Z</time></trkpt><trkpt lat="37.8444017" lon="13.440515"><ele>1129.0</ele><time>2026-05-05T07:45:46.566Z</time></trkpt><trkpt lat="37.8443733" lon="13.4403933"><ele>1129.0</ele><time>2026-05-05T07:45:48.566Z</time></trkpt><trkpt lat="37.844355" lon="13.44026"><ele>1129.0</ele><time>2026-05-05T07:45:50.567Z</time></trkpt><trkpt lat="37.8443417" lon="13.4401317"><ele>1129.0</ele><time>2026-05-05T07:45:52.564Z</time></trkpt><trkpt lat="37.8443333" lon="13.4400267"><ele>1129.0</ele><time>2026-05-05T07:45:54.566Z</time></trkpt><trkpt lat="37.8443267" lon="13.43992"><ele>1129.0</ele><time>2026-05-05T07:45:56.565Z</time></trkpt><trkpt lat="37.8443233" lon="13.4398167"><ele>1129.0</ele><time>2026-05-05T07:45:58.566Z</time></trkpt><trkpt lat="37.8443233" lon="13.439715"><ele>1129.0</ele><time>2026-05-05T07:46:00.564Z</time></trkpt><trkpt lat="37.8443267" lon="13.4396233"><ele>1129.0</ele><time>2026-05-05T07:46:02.565Z</time></trkpt><trkpt lat="37.8443317" lon="13.4395333"><ele>1129.0</ele><time>2026-05-05T07:46:04.566Z</time></trkpt><trkpt lat="37.8443417" lon="13.4394467"><ele>1129.0</ele><time>2026-05-05T07:46:06.565Z</time></trkpt><trkpt lat="37.8443533" lon="13.4393567"><ele>1129.0</ele><time>2026-05-05T07:46:08.566Z</time></trkpt><trkpt lat="37.844365" lon="13.4392683"><ele>1127.8333333333333</ele><time>2026-05-05T07:46:10.565Z</time></trkpt><trkpt lat="37.8443817" lon="13.43919"><ele>1126.6666666666665</ele><time>2026-05-05T07:46:12.566Z</time></trkpt><trkpt lat="37.8444017" lon="13.439085"><ele>1125.5</ele><time>2026-05-05T07:46:15.566Z</time></trkpt><trkpt lat="37.8444233" lon="13.438985"><ele>1124.3333333333333</ele><time>2026-05-05T07:46:18.565Z</time></trkpt><trkpt lat="37.8444367" lon="13.4388817"><ele>1123.1666666666667</ele><time>2026-05-05T07:46:21.566Z</time></trkpt><trkpt lat="37.84443" lon="13.438795"><ele>1122.0</ele><time>2026-05-05T07:46:24.566Z</time></trkpt><trkpt lat="37.844355" lon="13.4388217"><ele>1122.0</ele><time>2026-05-05T07:46:29.565Z</time></trkpt><trkpt lat="37.8443083" lon="13.4389217"><ele>1122.0</ele><time>2026-05-05T07:46:31.564Z</time></trkpt><trkpt lat="37.8442383" lon="13.4390383"><ele>1122.0</ele><time>2026-05-05T07:46:33.564Z</time></trkpt><trkpt lat="37.8441933" lon="13.4390983"><ele>1122.0</ele><time>2026-05-05T07:46:34.564Z</time></trkpt><trkpt lat="37.8441517" lon="13.439165"><ele>1122.0</ele><time>2026-05-05T07:46:35.565Z</time></trkpt><trkpt lat="37.8441167" lon="13.439235"><ele>1122.0</ele><time>2026-05-05T07:46:36.565Z</time></trkpt><trkpt lat="37.844085" lon="13.4393117"><ele>1122.0</ele><time>2026-05-05T07:46:37.567Z</time></trkpt><trkpt lat="37.84405" lon="13.439385"><ele>1122.0</ele><time>2026-05-05T07:46:38.566Z</time></trkpt><trkpt lat="37.8440133" lon="13.4394567"><ele>1122.0</ele><time>2026-05-05T07:46:39.564Z</time></trkpt><trkpt lat="37.8439767" lon="13.4395217"><ele>1122.0</ele><time>2026-05-05T07:46:40.565Z</time></trkpt><trkpt lat="37.8439139" lon="13.439647"><ele>1122.0</ele><time>2026-05-05T07:46:42.566Z</time></trkpt><trkpt lat="37.8438538" lon="13.4397541"><ele>1122.0</ele><time>2026-05-05T07:46:44.565Z</time></trkpt><trkpt lat="37.8437913" lon="13.4398461"><ele>1122.0</ele><time>2026-05-05T07:46:46.565Z</time></trkpt><trkpt lat="37.8437165" lon="13.4399344"><ele>1122.0</ele><time>2026-05-05T07:46:48.565Z</time></trkpt><trkpt lat="37.8436348" lon="13.4400267"><ele>1122.0</ele><time>2026-05-05T07:46:50.566Z</time></trkpt><trkpt lat="37.8435532" lon="13.4401276"><ele>1122.0</ele><time>2026-05-05T07:46:52.567Z</time></trkpt><trkpt lat="37.8434672" lon="13.440242"><ele>1119.1666666666667</ele><time>2026-05-05T07:46:54.566Z</time></trkpt><trkpt lat="37.8434192" lon="13.4402969"><ele>1116.3333333333333</ele><time>2026-05-05T07:46:55.565Z</time></trkpt><trkpt lat="37.8433688" lon="13.4403459"><ele>1113.5</ele><time>2026-05-05T07:46:56.565Z</time></trkpt><trkpt lat="37.8433171" lon="13.4403933"><ele>1110.6666666666665</ele><time>2026-05-05T07:46:57.564Z</time></trkpt><trkpt lat="37.8432646" lon="13.4404375"><ele>1107.8333333333333</ele><time>2026-05-05T07:46:58.565Z</time></trkpt><trkpt lat="37.8431541" lon="13.4404944"><ele>1105.0</ele><time>2026-05-05T07:47:00.565Z</time></trkpt><trkpt lat="37.8430358" lon="13.4405324"><ele>1105.0</ele><time>2026-05-05T07:47:02.567Z</time></trkpt><trkpt lat="37.8429125" lon="13.4405528"><ele>1105.0</ele><time>2026-05-05T07:47:04.566Z</time></trkpt><trkpt lat="37.8428492" lon="13.4405589"><ele>1105.0</ele><time>2026-05-05T07:47:05.564Z</time></trkpt><trkpt lat="37.842727" lon="13.4405742"><ele>1105.0</ele><time>2026-05-05T07:47:07.566Z</time></trkpt><trkpt lat="37.842615" lon="13.4405918"><ele>1105.0</ele><time>2026-05-05T07:47:09.563Z</time></trkpt><trkpt lat="37.842498" lon="13.4406103"><ele>1101.4</ele><time>2026-05-05T07:47:11.564Z</time></trkpt><trkpt lat="37.8423824" lon="13.4406281"><ele>1097.8</ele><time>2026-05-05T07:47:13.567Z</time></trkpt><trkpt lat="37.8422799" lon="13.4406239"><ele>1094.2</ele><time>2026-05-05T07:47:15.564Z</time></trkpt><trkpt lat="37.8421731" lon="13.440626"><ele>1090.6</ele><time>2026-05-05T07:47:17.565Z</time></trkpt><trkpt lat="37.8420712" lon="13.4406311"><ele>1087.0</ele><time>2026-05-05T07:47:19.566Z</time></trkpt><trkpt lat="37.8419766" lon="13.4406373"><ele>1087.0</ele><time>2026-05-05T07:47:21.566Z</time></trkpt><trkpt lat="37.8418809" lon="13.4406316"><ele>1087.0</ele><time>2026-05-05T07:47:23.566Z</time></trkpt><trkpt lat="37.8417976" lon="13.4406074"><ele>1087.0</ele><time>2026-05-05T07:47:25.565Z</time></trkpt><trkpt lat="37.8417369" lon="13.4405413"><ele>1087.0</ele><time>2026-05-05T07:47:27.567Z</time></trkpt><trkpt lat="37.8417521" lon="13.4404328"><ele>1087.0</ele><time>2026-05-05T07:47:30.565Z</time></trkpt><trkpt lat="37.8418118" lon="13.4403355"><ele>1087.0</ele><time>2026-05-05T07:47:32.565Z</time></trkpt><trkpt lat="37.8418875" lon="13.440238"><ele>1084.6</ele><time>2026-05-05T07:47:34.566Z</time></trkpt><trkpt lat="37.8419357" lon="13.4401764"><ele>1082.2</ele><time>2026-05-05T07:47:35.564Z</time></trkpt><trkpt lat="37.8420216" lon="13.4400661"><ele>1079.8</ele><time>2026-05-05T07:47:37.566Z</time></trkpt><trkpt lat="37.8421064" lon="13.4399579"><ele>1077.4</ele><time>2026-05-05T07:47:39.565Z</time></trkpt><trkpt lat="37.842152" lon="13.4398967"><ele>1075.0</ele><time>2026-05-05T07:47:40.565Z</time></trkpt><trkpt lat="37.842221" lon="13.439777"><ele>1075.0</ele><time>2026-05-05T07:47:42.565Z</time></trkpt><trkpt lat="37.842256" lon="13.4396603"><ele>1075.0</ele><time>2026-05-05T07:47:44.566Z</time></trkpt><trkpt lat="37.8422578" lon="13.4395522"><ele>1075.0</ele><time>2026-05-05T07:47:46.566Z</time></trkpt><trkpt lat="37.8422441" lon="13.4394372"><ele>1075.0</ele><time>2026-05-05T07:47:48.566Z</time></trkpt><trkpt lat="37.8422333" lon="13.4392983"><ele>1075.0</ele><time>2026-05-05T07:47:50.567Z</time></trkpt><trkpt lat="37.84221" lon="13.4391517"><ele>1073.6</ele><time>2026-05-05T07:47:52.566Z</time></trkpt><trkpt lat="37.84219" lon="13.4390083"><ele>1072.2</ele><time>2026-05-05T07:47:54.566Z</time></trkpt><trkpt lat="37.8421883" lon="13.4388633"><ele>1070.8</ele><time>2026-05-05T07:47:56.565Z</time></trkpt><trkpt lat="37.8421817" lon="13.438705"><ele>1069.4</ele><time>2026-05-05T07:47:58.566Z</time></trkpt><trkpt lat="37.8421817" lon="13.438625"><ele>1068.0</ele><time>2026-05-05T07:47:59.566Z</time></trkpt><trkpt lat="37.8421817" lon="13.4385417"><ele>1067.5714285714287</ele><time>2026-05-05T07:48:00.564Z</time></trkpt><trkpt lat="37.84218" lon="13.4384617"><ele>1067.142857142857</ele><time>2026-05-05T07:48:01.565Z</time></trkpt><trkpt lat="37.8421683" lon="13.4383833"><ele>1066.7142857142858</ele><time>2026-05-05T07:48:02.565Z</time></trkpt><trkpt lat="37.8421533" lon="13.4383017"><ele>1066.2857142857142</ele><time>2026-05-05T07:48:03.564Z</time></trkpt><trkpt lat="37.8421317" lon="13.438225"><ele>1065.857142857143</ele><time>2026-05-05T07:48:04.565Z</time></trkpt><trkpt lat="37.84211" lon="13.43815"><ele>1065.4285714285716</ele><time>2026-05-05T07:48:05.566Z</time></trkpt><trkpt lat="37.8420833" lon="13.4380767"><ele>1065.0</ele><time>2026-05-05T07:48:06.565Z</time></trkpt><trkpt lat="37.8420217" lon="13.4379367"><ele>1064.8</ele><time>2026-05-05T07:48:08.565Z</time></trkpt><trkpt lat="37.841955" lon="13.4378083"><ele>1064.6</ele><time>2026-05-05T07:48:10.565Z</time></trkpt><trkpt lat="37.8418917" lon="13.4376717"><ele>1064.4</ele><time>2026-05-05T07:48:12.566Z</time></trkpt><trkpt lat="37.841855" lon="13.43759"><ele>1064.2</ele><time>2026-05-05T07:48:13.564Z</time></trkpt><trkpt lat="37.841815" lon="13.4375067"><ele>1064.0</ele><time>2026-05-05T07:48:14.566Z</time></trkpt><trkpt lat="37.841775" lon="13.4374267"><ele>1059.5</ele><time>2026-05-05T07:48:15.566Z</time></trkpt><trkpt lat="37.841735" lon="13.4373433"><ele>1055.0</ele><time>2026-05-05T07:48:16.565Z</time></trkpt><trkpt lat="37.8417033" lon="13.43726"><ele>1050.5</ele><time>2026-05-05T07:48:17.564Z</time></trkpt><trkpt lat="37.8416783" lon="13.4371783"><ele>1046.0</ele><time>2026-05-05T07:48:18.566Z</time></trkpt><trkpt lat="37.8416533" lon="13.4370833"><ele>1041.5</ele><time>2026-05-05T07:48:19.564Z</time></trkpt><trkpt lat="37.8416367" lon="13.4369883"><ele>1037.0</ele><time>2026-05-05T07:48:20.566Z</time></trkpt><trkpt lat="37.8416233" lon="13.4368917"><ele>1036.8</ele><time>2026-05-05T07:48:21.564Z</time></trkpt><trkpt lat="37.8416067" lon="13.43678"><ele>1036.6</ele><time>2026-05-05T07:48:22.565Z</time></trkpt><trkpt lat="37.84158" lon="13.4366567"><ele>1036.3999999999999</ele><time>2026-05-05T07:48:23.566Z</time></trkpt><trkpt lat="37.8415367" lon="13.4365433"><ele>1036.2</ele><time>2026-05-05T07:48:24.566Z</time></trkpt><trkpt lat="37.8414867" lon="13.4364383"><ele>1036.0</ele><time>2026-05-05T07:48:25.565Z</time></trkpt><trkpt lat="37.84143" lon="13.4363383"><ele>1036.8</ele><time>2026-05-05T07:48:26.566Z</time></trkpt><trkpt lat="37.8413633" lon="13.4362417"><ele>1037.6</ele><time>2026-05-05T07:48:27.566Z</time></trkpt><trkpt lat="37.84129" lon="13.4361583"><ele>1038.4</ele><time>2026-05-05T07:48:28.566Z</time></trkpt><trkpt lat="37.8412267" lon="13.4360733"><ele>1039.2</ele><time>2026-05-05T07:48:29.565Z</time></trkpt><trkpt lat="37.841175" lon="13.4359867"><ele>1040.0</ele><time>2026-05-05T07:48:30.564Z</time></trkpt><trkpt lat="37.8411233" lon="13.435885"><ele>1040.0</ele><time>2026-05-05T07:48:31.565Z</time></trkpt><trkpt lat="37.841065" lon="13.435775"><ele>1040.0</ele><time>2026-05-05T07:48:32.567Z</time></trkpt><trkpt lat="37.8409917" lon="13.4356583"><ele>1040.0</ele><time>2026-05-05T07:48:33.564Z</time></trkpt><trkpt lat="37.8409167" lon="13.4355633"><ele>1040.0</ele><time>2026-05-05T07:48:34.564Z</time></trkpt><trkpt lat="37.8408417" lon="13.4354783"><ele>1040.0</ele><time>2026-05-05T07:48:35.564Z</time></trkpt><trkpt lat="37.8407717" lon="13.4353967"><ele>1038.1666666666667</ele><time>2026-05-05T07:48:36.564Z</time></trkpt><trkpt lat="37.8407133" lon="13.4353217"><ele>1036.3333333333335</ele><time>2026-05-05T07:48:37.566Z</time></trkpt><trkpt lat="37.8406733" lon="13.4352367"><ele>1034.5</ele><time>2026-05-05T07:48:38.566Z</time></trkpt><trkpt lat="37.8406367" lon="13.4351417"><ele>1032.6666666666667</ele><time>2026-05-05T07:48:39.566Z</time></trkpt><trkpt lat="37.8405883" lon="13.4350383"><ele>1030.8333333333333</ele><time>2026-05-05T07:48:40.565Z</time></trkpt><trkpt lat="37.8405283" lon="13.43493"><ele>1029.0</ele><time>2026-05-05T07:48:41.564Z</time></trkpt><trkpt lat="37.84046" lon="13.434825"><ele>1029.0</ele><time>2026-05-05T07:48:42.565Z</time></trkpt><trkpt lat="37.8403767" lon="13.4347367"><ele>1029.0</ele><time>2026-05-05T07:48:43.564Z</time></trkpt><trkpt lat="37.8402867" lon="13.434665"><ele>1029.0</ele><time>2026-05-05T07:48:44.566Z</time></trkpt><trkpt lat="37.8401967" lon="13.434605"><ele>1029.0</ele><time>2026-05-05T07:48:45.564Z</time></trkpt><trkpt lat="37.8401133" lon="13.43456"><ele>1029.0</ele><time>2026-05-05T07:48:46.565Z</time></trkpt><trkpt lat="37.8400383" lon="13.43452"><ele>1027.0</ele><time>2026-05-05T07:48:47.564Z</time></trkpt><trkpt lat="37.8399683" lon="13.434475"><ele>1025.0</ele><time>2026-05-05T07:48:48.565Z</time></trkpt><trkpt lat="37.8399067" lon="13.4344133"><ele>1023.0</ele><time>2026-05-05T07:48:49.564Z</time></trkpt><trkpt lat="37.8398417" lon="13.4343417"><ele>1021.0</ele><time>2026-05-05T07:48:50.565Z</time></trkpt><trkpt lat="37.8397667" lon="13.434265"><ele>1019.0</ele><time>2026-05-05T07:48:51.565Z</time></trkpt><trkpt lat="37.8396867" lon="13.4341967"><ele>1017.0</ele><time>2026-05-05T07:48:52.566Z</time></trkpt><trkpt lat="37.8396033" lon="13.43414"><ele>1017.0</ele><time>2026-05-05T07:48:53.566Z</time></trkpt><trkpt lat="37.839525" lon="13.434085"><ele>1017.0</ele><time>2026-05-05T07:48:54.565Z</time></trkpt><trkpt lat="37.8394533" lon="13.4340183"><ele>1017.0</ele><time>2026-05-05T07:48:55.565Z</time></trkpt><trkpt lat="37.8393783" lon="13.4339533"><ele>1017.0</ele><time>2026-05-05T07:48:56.566Z</time></trkpt><trkpt lat="37.8393067" lon="13.4338833"><ele>1017.0</ele><time>2026-05-05T07:48:57.565Z</time></trkpt><trkpt lat="37.8392333" lon="13.43381"><ele>1013.8</ele><time>2026-05-05T07:48:58.566Z</time></trkpt><trkpt lat="37.8391617" lon="13.4337367"><ele>1010.6</ele><time>2026-05-05T07:48:59.565Z</time></trkpt><trkpt lat="37.839085" lon="13.4336683"><ele>1007.3999999999999</ele><time>2026-05-05T07:49:00.565Z</time></trkpt><trkpt lat="37.8390033" lon="13.4336083"><ele>1004.1999999999999</ele><time>2026-05-05T07:49:01.565Z</time></trkpt><trkpt lat="37.838925" lon="13.4335533"><ele>1001.0</ele><time>2026-05-05T07:49:02.564Z</time></trkpt><trkpt lat="37.8388517" lon="13.43351"><ele>1001.0</ele><time>2026-05-05T07:49:03.566Z</time></trkpt><trkpt lat="37.838785" lon="13.4334783"><ele>1000.9999999999999</ele><time>2026-05-05T07:49:04.564Z</time></trkpt><trkpt lat="37.8386783" lon="13.43345"><ele>1000.9999999999999</ele><time>2026-05-05T07:49:06.566Z</time></trkpt><trkpt lat="37.8385683" lon="13.433455"><ele>1001.0</ele><time>2026-05-05T07:49:08.568Z</time></trkpt><trkpt lat="37.8384533" lon="13.4335033"><ele>1001.0</ele><time>2026-05-05T07:49:10.566Z</time></trkpt><trkpt lat="37.8383367" lon="13.4335617"><ele>998.1666666666667</ele><time>2026-05-05T07:49:12.565Z</time></trkpt><trkpt lat="37.838275" lon="13.4335983"><ele>995.3333333333334</ele><time>2026-05-05T07:49:13.565Z</time></trkpt><trkpt lat="37.8382117" lon="13.4336367"><ele>992.5</ele><time>2026-05-05T07:49:14.565Z</time></trkpt><trkpt lat="37.8381433" lon="13.4336783"><ele>989.6666666666667</ele><time>2026-05-05T07:49:15.564Z</time></trkpt><trkpt lat="37.83807" lon="13.4337233"><ele>986.8333333333334</ele><time>2026-05-05T07:49:16.565Z</time></trkpt><trkpt lat="37.8379933" lon="13.4337667"><ele>984.0</ele><time>2026-05-05T07:49:17.565Z</time></trkpt><trkpt lat="37.8379167" lon="13.4338067"><ele>982.8333333333334</ele><time>2026-05-05T07:49:18.566Z</time></trkpt><trkpt lat="37.83784" lon="13.43384"><ele>981.6666666666667</ele><time>2026-05-05T07:49:19.566Z</time></trkpt><trkpt lat="37.8377633" lon="13.4338683"><ele>980.5</ele><time>2026-05-05T07:49:20.567Z</time></trkpt><trkpt lat="37.8376867" lon="13.4338983"><ele>979.3333333333334</ele><time>2026-05-05T07:49:21.566Z</time></trkpt><trkpt lat="37.8376117" lon="13.43393"><ele>978.1666666666667</ele><time>2026-05-05T07:49:22.567Z</time></trkpt><trkpt lat="37.8375417" lon="13.4339533"><ele>977.0</ele><time>2026-05-05T07:49:23.567Z</time></trkpt><trkpt lat="37.8374733" lon="13.4339733"><ele>976.8333333333334</ele><time>2026-05-05T07:49:24.566Z</time></trkpt><trkpt lat="37.83736" lon="13.433975"><ele>976.6666666666667</ele><time>2026-05-05T07:49:26.566Z</time></trkpt><trkpt lat="37.83726" lon="13.433905"><ele>976.5</ele><time>2026-05-05T07:49:28.564Z</time></trkpt><trkpt lat="37.8372133" lon="13.43385"><ele>976.3333333333333</ele><time>2026-05-05T07:49:29.565Z</time></trkpt><trkpt lat="37.83717" lon="13.4337833"><ele>976.1666666666666</ele><time>2026-05-05T07:49:30.565Z</time></trkpt><trkpt lat="37.837125" lon="13.4337083"><ele>976.0</ele><time>2026-05-05T07:49:31.566Z</time></trkpt><trkpt lat="37.83708" lon="13.4336317"><ele>975.9999999999999</ele><time>2026-05-05T07:49:32.566Z</time></trkpt><trkpt lat="37.8370383" lon="13.4335483"><ele>976.0</ele><time>2026-05-05T07:49:33.565Z</time></trkpt><trkpt lat="37.8370017" lon="13.4334667"><ele>975.9999999999999</ele><time>2026-05-05T07:49:34.569Z</time></trkpt><trkpt lat="37.8369617" lon="13.4333867"><ele>975.9999999999999</ele><time>2026-05-05T07:49:35.567Z</time></trkpt><trkpt lat="37.8369317" lon="13.433305"><ele>976.0</ele><time>2026-05-05T07:49:36.565Z</time></trkpt><trkpt lat="37.83691" lon="13.433225"><ele>975.9999999999999</ele><time>2026-05-05T07:49:37.565Z</time></trkpt><trkpt lat="37.8368883" lon="13.4331417"><ele>975.9999999999999</ele><time>2026-05-05T07:49:38.566Z</time></trkpt><trkpt lat="37.83687" lon="13.4330567"><ele>975.9999999999999</ele><time>2026-05-05T07:49:39.565Z</time></trkpt><trkpt lat="37.8368633" lon="13.432975"><ele>976.0</ele><time>2026-05-05T07:49:40.566Z</time></trkpt><trkpt lat="37.8368617" lon="13.4328917"><ele>975.9999999999999</ele><time>2026-05-05T07:49:41.565Z</time></trkpt><trkpt lat="37.83686" lon="13.4328017"><ele>975.9999999999999</ele><time>2026-05-05T07:49:42.565Z</time></trkpt><trkpt lat="37.83687" lon="13.4327133"><ele>976.0</ele><time>2026-05-05T07:49:43.565Z</time></trkpt><trkpt lat="37.8368833" lon="13.4326233"><ele>975.9999999999999</ele><time>2026-05-05T07:49:44.566Z</time></trkpt><trkpt lat="37.8368983" lon="13.4325317"><ele>975.9999999999999</ele><time>2026-05-05T07:49:45.564Z</time></trkpt><trkpt lat="37.8369183" lon="13.4324417"><ele>975.2857142857142</ele><time>2026-05-05T07:49:46.565Z</time></trkpt><trkpt lat="37.8369417" lon="13.432355"><ele>974.5714285714286</ele><time>2026-05-05T07:49:47.564Z</time></trkpt><trkpt lat="37.836965" lon="13.432265"><ele>973.8571428571429</ele><time>2026-05-05T07:49:48.565Z</time></trkpt><trkpt lat="37.8369917" lon="13.4321833"><ele>973.1428571428571</ele><time>2026-05-05T07:49:49.565Z</time></trkpt><trkpt lat="37.8370183" lon="13.4320983"><ele>972.4285714285716</ele><time>2026-05-05T07:49:50.565Z</time></trkpt><trkpt lat="37.8370517" lon="13.43202"><ele>971.7142857142858</ele><time>2026-05-05T07:49:51.564Z</time></trkpt><trkpt lat="37.8370883" lon="13.431945"><ele>971.0</ele><time>2026-05-05T07:49:52.565Z</time></trkpt><trkpt lat="37.83713" lon="13.4318817"><ele>969.0</ele><time>2026-05-05T07:49:53.566Z</time></trkpt><trkpt lat="37.8371717" lon="13.4318117"><ele>967.0000000000001</ele><time>2026-05-05T07:49:54.565Z</time></trkpt><trkpt lat="37.8372117" lon="13.4317383"><ele>965.0</ele><time>2026-05-05T07:49:55.565Z</time></trkpt><trkpt lat="37.8372517" lon="13.4316667"><ele>963.0</ele><time>2026-05-05T07:49:56.567Z</time></trkpt><trkpt lat="37.8372967" lon="13.431595"><ele>961.0000000000001</ele><time>2026-05-05T07:49:57.565Z</time></trkpt><trkpt lat="37.8373417" lon="13.4315183"><ele>959.0</ele><time>2026-05-05T07:49:58.565Z</time></trkpt><trkpt lat="37.837385" lon="13.4314383"><ele>957.0</ele><time>2026-05-05T07:49:59.565Z</time></trkpt><trkpt lat="37.83742" lon="13.4313533"><ele>955.1666666666666</ele><time>2026-05-05T07:50:00.564Z</time></trkpt><trkpt lat="37.8374467" lon="13.4312517"><ele>953.3333333333333</ele><time>2026-05-05T07:50:01.567Z</time></trkpt><trkpt lat="37.837465" lon="13.431155"><ele>951.5</ele><time>2026-05-05T07:50:02.566Z</time></trkpt><trkpt lat="37.83747" lon="13.4310617"><ele>949.6666666666666</ele><time>2026-05-05T07:50:03.566Z</time></trkpt><trkpt lat="37.837465" lon="13.43097"><ele>947.8333333333333</ele><time>2026-05-05T07:50:04.566Z</time></trkpt><trkpt lat="37.837455" lon="13.4308867"><ele>946.0</ele><time>2026-05-05T07:50:05.565Z</time></trkpt><trkpt lat="37.837455" lon="13.4307333"><ele>946.0</ele><time>2026-05-05T07:50:07.565Z</time></trkpt><trkpt lat="37.8374667" lon="13.4306517"><ele>946.0</ele><time>2026-05-05T07:50:08.565Z</time></trkpt><trkpt lat="37.8374817" lon="13.4305667"><ele>946.0</ele><time>2026-05-05T07:50:09.564Z</time></trkpt><trkpt lat="37.8375033" lon="13.4304817"><ele>946.0</ele><time>2026-05-05T07:50:10.565Z</time></trkpt><trkpt lat="37.8375317" lon="13.4303917"><ele>946.0</ele><time>2026-05-05T07:50:11.565Z</time></trkpt><trkpt lat="37.8375617" lon="13.4302917"><ele>946.0</ele><time>2026-05-05T07:50:12.565Z</time></trkpt><trkpt lat="37.8375883" lon="13.4301917"><ele>946.0</ele><time>2026-05-05T07:50:13.566Z</time></trkpt><trkpt lat="37.8376117" lon="13.4300917"><ele>945.3333333333333</ele><time>2026-05-05T07:50:14.566Z</time></trkpt><trkpt lat="37.8376283" lon="13.429985"><ele>944.6666666666666</ele><time>2026-05-05T07:50:15.565Z</time></trkpt><trkpt lat="37.837645" lon="13.4298783"><ele>944.0</ele><time>2026-05-05T07:50:16.566Z</time></trkpt><trkpt lat="37.8376617" lon="13.4297717"><ele>943.3333333333333</ele><time>2026-05-05T07:50:17.565Z</time></trkpt><trkpt lat="37.8376783" lon="13.4296667"><ele>942.6666666666666</ele><time>2026-05-05T07:50:18.565Z</time></trkpt><trkpt lat="37.8376817" lon="13.4295617"><ele>942.0</ele><time>2026-05-05T07:50:19.565Z</time></trkpt><trkpt lat="37.8376867" lon="13.42946"><ele>942.0</ele><time>2026-05-05T07:50:20.566Z</time></trkpt><trkpt lat="37.837685" lon="13.42936"><ele>942.0</ele><time>2026-05-05T07:50:21.563Z</time></trkpt><trkpt lat="37.8376817" lon="13.429265"><ele>942.0</ele><time>2026-05-05T07:50:22.567Z</time></trkpt><trkpt lat="37.8376717" lon="13.4291817"><ele>942.0</ele><time>2026-05-05T07:50:23.564Z</time></trkpt><trkpt lat="37.83762" lon="13.4290433"><ele>942.0</ele><time>2026-05-05T07:50:25.565Z</time></trkpt><trkpt lat="37.837535" lon="13.4289383"><ele>938.2</ele><time>2026-05-05T07:50:27.566Z</time></trkpt><trkpt lat="37.8374483" lon="13.4288817"><ele>934.4000000000001</ele><time>2026-05-05T07:50:29.565Z</time></trkpt><trkpt lat="37.83736" lon="13.42886"><ele>930.5999999999999</ele><time>2026-05-05T07:50:31.567Z</time></trkpt><trkpt lat="37.8372617" lon="13.4288767"><ele>926.8</ele><time>2026-05-05T07:50:33.565Z</time></trkpt><trkpt lat="37.837165" lon="13.4289067"><ele>923.0</ele><time>2026-05-05T07:50:35.567Z</time></trkpt><trkpt lat="37.8370567" lon="13.4289233"><ele>923.0</ele><time>2026-05-05T07:50:37.564Z</time></trkpt><trkpt lat="37.836945" lon="13.4289483"><ele>923.0</ele><time>2026-05-05T07:50:39.566Z</time></trkpt><trkpt lat="37.8368267" lon="13.4289817"><ele>923.0</ele><time>2026-05-05T07:50:41.565Z</time></trkpt><trkpt lat="37.8367667" lon="13.429015"><ele>923.0</ele><time>2026-05-05T07:50:42.565Z</time></trkpt><trkpt lat="37.8366517" lon="13.4290717"><ele>923.0</ele><time>2026-05-05T07:50:44.565Z</time></trkpt><trkpt lat="37.8365917" lon="13.429105"><ele>921.1428571428571</ele><time>2026-05-05T07:50:45.566Z</time></trkpt><trkpt lat="37.8365283" lon="13.429135"><ele>919.2857142857143</ele><time>2026-05-05T07:50:46.565Z</time></trkpt><trkpt lat="37.8364683" lon="13.4291733"><ele>917.4285714285714</ele><time>2026-05-05T07:50:47.564Z</time></trkpt><trkpt lat="37.8364133" lon="13.42922"><ele>915.5714285714286</ele><time>2026-05-05T07:50:48.565Z</time></trkpt><trkpt lat="37.83636" lon="13.4292817"><ele>913.7142857142858</ele><time>2026-05-05T07:50:49.564Z</time></trkpt><trkpt lat="37.8363117" lon="13.4293533"><ele>911.8571428571429</ele><time>2026-05-05T07:50:50.566Z</time></trkpt><trkpt lat="37.8362583" lon="13.4294217"><ele>910.0</ele><time>2026-05-05T07:50:51.564Z</time></trkpt><trkpt lat="37.836195" lon="13.4294817"><ele>910.0</ele><time>2026-05-05T07:50:52.566Z</time></trkpt><trkpt lat="37.836125" lon="13.4295167"><ele>910.0</ele><time>2026-05-05T07:50:53.564Z</time></trkpt><trkpt lat="37.8360533" lon="13.4295417"><ele>910.0</ele><time>2026-05-05T07:50:54.565Z</time></trkpt><trkpt lat="37.8359883" lon="13.4295617"><ele>910.0</ele><time>2026-05-05T07:50:55.565Z</time></trkpt><trkpt lat="37.8359267" lon="13.4295867"><ele>910.0</ele><time>2026-05-05T07:50:56.565Z</time></trkpt><trkpt lat="37.83586" lon="13.4296167"><ele>910.0</ele><time>2026-05-05T07:50:57.565Z</time></trkpt><trkpt lat="37.8357917" lon="13.4296517"><ele>910.0</ele><time>2026-05-05T07:50:58.564Z</time></trkpt><trkpt lat="37.8357183" lon="13.4296933"><ele>909.1666666666666</ele><time>2026-05-05T07:50:59.564Z</time></trkpt><trkpt lat="37.8356433" lon="13.4297367"><ele>908.3333333333333</ele><time>2026-05-05T07:51:00.566Z</time></trkpt><trkpt lat="37.83557" lon="13.4297817"><ele>907.5</ele><time>2026-05-05T07:51:01.566Z</time></trkpt><trkpt lat="37.8354933" lon="13.42982"><ele>906.6666666666667</ele><time>2026-05-05T07:51:02.565Z</time></trkpt><trkpt lat="37.83542" lon="13.4298567"><ele>905.8333333333334</ele><time>2026-05-05T07:51:03.567Z</time></trkpt><trkpt lat="37.83535" lon="13.4298917"><ele>905.0</ele><time>2026-05-05T07:51:04.564Z</time></trkpt><trkpt lat="37.835275" lon="13.4299217"><ele>905.0000000000001</ele><time>2026-05-05T07:51:05.565Z</time></trkpt><trkpt lat="37.8351983" lon="13.429955"><ele>905.0</ele><time>2026-05-05T07:51:06.565Z</time></trkpt><trkpt lat="37.8351233" lon="13.4299917"><ele>905.0</ele><time>2026-05-05T07:51:07.565Z</time></trkpt><trkpt lat="37.83505" lon="13.4300283"><ele>905.0</ele><time>2026-05-05T07:51:08.565Z</time></trkpt><trkpt lat="37.834975" lon="13.4300683"><ele>905.0000000000001</ele><time>2026-05-05T07:51:09.565Z</time></trkpt><trkpt lat="37.8349083" lon="13.4301033"><ele>905.0</ele><time>2026-05-05T07:51:10.565Z</time></trkpt><trkpt lat="37.8348383" lon="13.4301333"><ele>901.6666666666667</ele><time>2026-05-05T07:51:11.564Z</time></trkpt><trkpt lat="37.8347683" lon="13.4301683"><ele>898.3333333333334</ele><time>2026-05-05T07:51:12.565Z</time></trkpt><trkpt lat="37.8346983" lon="13.4302117"><ele>895.0</ele><time>2026-05-05T07:51:13.565Z</time></trkpt><trkpt lat="37.83463" lon="13.4302533"><ele>891.6666666666667</ele><time>2026-05-05T07:51:14.566Z</time></trkpt><trkpt lat="37.8345617" lon="13.430295"><ele>888.3333333333334</ele><time>2026-05-05T07:51:15.565Z</time></trkpt><trkpt lat="37.8344917" lon="13.4303383"><ele>885.0</ele><time>2026-05-05T07:51:16.563Z</time></trkpt><trkpt lat="37.8344217" lon="13.4303917"><ele>885.0</ele><time>2026-05-05T07:51:17.564Z</time></trkpt><trkpt lat="37.8343533" lon="13.430435"><ele>885.0</ele><time>2026-05-05T07:51:18.564Z</time></trkpt><trkpt lat="37.8342817" lon="13.4304733"><ele>885.0</ele><time>2026-05-05T07:51:19.565Z</time></trkpt><trkpt lat="37.8342083" lon="13.4305067"><ele>885.0</ele><time>2026-05-05T07:51:20.566Z</time></trkpt><trkpt lat="37.834135" lon="13.4305433"><ele>885.0</ele><time>2026-05-05T07:51:21.565Z</time></trkpt><trkpt lat="37.83406" lon="13.4305783"><ele>885.0</ele><time>2026-05-05T07:51:22.566Z</time></trkpt><trkpt lat="37.8339867" lon="13.4306083"><ele>883.7142857142857</ele><time>2026-05-05T07:51:23.564Z</time></trkpt><trkpt lat="37.8339217" lon="13.4306383"><ele>882.4285714285713</ele><time>2026-05-05T07:51:24.565Z</time></trkpt><trkpt lat="37.83386" lon="13.4306617"><ele>881.1428571428571</ele><time>2026-05-05T07:51:25.566Z</time></trkpt><trkpt lat="37.8337917" lon="13.43069"><ele>879.8571428571429</ele><time>2026-05-05T07:51:26.566Z</time></trkpt><trkpt lat="37.8337233" lon="13.4307233"><ele>878.5714285714286</ele><time>2026-05-05T07:51:27.565Z</time></trkpt><trkpt lat="37.83365" lon="13.4307517"><ele>877.2857142857143</ele><time>2026-05-05T07:51:28.565Z</time></trkpt><trkpt lat="37.8335733" lon="13.4307767"><ele>876.0</ele><time>2026-05-05T07:51:29.565Z</time></trkpt><trkpt lat="37.8335" lon="13.4308033"><ele>874.1666666666666</ele><time>2026-05-05T07:51:30.564Z</time></trkpt><trkpt lat="37.83343" lon="13.4308283"><ele>872.3333333333333</ele><time>2026-05-05T07:51:31.565Z</time></trkpt><trkpt lat="37.8333633" lon="13.43085"><ele>870.5</ele><time>2026-05-05T07:51:32.566Z</time></trkpt><trkpt lat="37.8332967" lon="13.4308733"><ele>868.6666666666666</ele><time>2026-05-05T07:51:33.565Z</time></trkpt><trkpt lat="37.8331933" lon="13.4308983"><ele>866.8333333333333</ele><time>2026-05-05T07:51:35.565Z</time></trkpt><trkpt lat="37.8331267" lon="13.4308717"><ele>865.0</ele><time>2026-05-05T07:51:37.567Z</time></trkpt><trkpt lat="37.8331067" lon="13.430755"><ele>865.0</ele><time>2026-05-05T07:51:40.566Z</time></trkpt><trkpt lat="37.833115" lon="13.4306317"><ele>865.0</ele><time>2026-05-05T07:51:42.564Z</time></trkpt><trkpt lat="37.8331267" lon="13.4304983"><ele>865.0</ele><time>2026-05-05T07:51:44.566Z</time></trkpt><trkpt lat="37.8331483" lon="13.430355"><ele>865.0</ele><time>2026-05-05T07:51:46.565Z</time></trkpt><trkpt lat="37.83318" lon="13.4302167"><ele>865.0</ele><time>2026-05-05T07:51:48.565Z</time></trkpt><trkpt lat="37.8332217" lon="13.4300833"><ele>863.6</ele><time>2026-05-05T07:51:50.565Z</time></trkpt><trkpt lat="37.8332783" lon="13.4299467"><ele>862.2</ele><time>2026-05-05T07:51:52.564Z</time></trkpt><trkpt lat="37.833335" lon="13.4297983"><ele>860.8</ele><time>2026-05-05T07:51:54.565Z</time></trkpt><trkpt lat="37.8333667" lon="13.4297167"><ele>859.4</ele><time>2026-05-05T07:51:55.566Z</time></trkpt><trkpt lat="37.8333967" lon="13.4296317"><ele>858.0</ele><time>2026-05-05T07:51:56.566Z</time></trkpt><trkpt lat="37.8334267" lon="13.429545"><ele>858.2857142857143</ele><time>2026-05-05T07:51:57.566Z</time></trkpt><trkpt lat="37.833455" lon="13.4294617"><ele>858.5714285714287</ele><time>2026-05-05T07:51:58.565Z</time></trkpt><trkpt lat="37.8334817" lon="13.42938"><ele>858.8571428571429</ele><time>2026-05-05T07:51:59.565Z</time></trkpt><trkpt lat="37.83351" lon="13.4292983"><ele>859.1428571428571</ele><time>2026-05-05T07:52:00.566Z</time></trkpt><trkpt lat="37.8335367" lon="13.4292183"><ele>859.4285714285714</ele><time>2026-05-05T07:52:01.566Z</time></trkpt><trkpt lat="37.8335617" lon="13.4291383"><ele>859.7142857142857</ele><time>2026-05-05T07:52:02.566Z</time></trkpt><trkpt lat="37.8335833" lon="13.4290617"><ele>860.0</ele><time>2026-05-05T07:52:03.565Z</time></trkpt><trkpt lat="37.83362" lon="13.4289133"><ele>860.0</ele><time>2026-05-05T07:52:05.566Z</time></trkpt><trkpt lat="37.83364" lon="13.4288333"><ele>860.0</ele><time>2026-05-05T07:52:06.566Z</time></trkpt><trkpt lat="37.833665" lon="13.4287583"><ele>860.0</ele><time>2026-05-05T07:52:07.565Z</time></trkpt><trkpt lat="37.8336917" lon="13.428685"><ele>860.0</ele><time>2026-05-05T07:52:08.567Z</time></trkpt><trkpt lat="37.8337217" lon="13.4286117"><ele>860.0</ele><time>2026-05-05T07:52:09.565Z</time></trkpt><trkpt lat="37.8337433" lon="13.4285317"><ele>860.0</ele><time>2026-05-05T07:52:10.565Z</time></trkpt><trkpt lat="37.8337533" lon="13.42845"><ele>860.0</ele><time>2026-05-05T07:52:11.565Z</time></trkpt><trkpt lat="37.83375" lon="13.42837"><ele>857.0</ele><time>2026-05-05T07:52:12.565Z</time></trkpt><trkpt lat="37.8336933" lon="13.428235"><ele>854.0</ele><time>2026-05-05T07:52:14.566Z</time></trkpt><trkpt lat="37.8336" lon="13.42818"><ele>851.0</ele><time>2026-05-05T07:52:16.566Z</time></trkpt><trkpt lat="37.8334933" lon="13.42817"><ele>848.0</ele><time>2026-05-05T07:52:18.565Z</time></trkpt><trkpt lat="37.833385" lon="13.4281783"><ele>845.0</ele><time>2026-05-05T07:52:20.566Z</time></trkpt><trkpt lat="37.8332683" lon="13.428215"><ele>843.5714285714286</ele><time>2026-05-05T07:52:22.566Z</time></trkpt><trkpt lat="37.833205" lon="13.428245"><ele>842.1428571428571</ele><time>2026-05-05T07:52:23.567Z</time></trkpt><trkpt lat="37.83314" lon="13.4282867"><ele>840.7142857142858</ele><time>2026-05-05T07:52:24.564Z</time></trkpt><trkpt lat="37.8330717" lon="13.4283217"><ele>839.2857142857142</ele><time>2026-05-05T07:52:25.567Z</time></trkpt><trkpt lat="37.8330067" lon="13.4283583"><ele>837.8571428571429</ele><time>2026-05-05T07:52:26.565Z</time></trkpt><trkpt lat="37.8329367" lon="13.4283967"><ele>836.4285714285714</ele><time>2026-05-05T07:52:27.564Z</time></trkpt><trkpt lat="37.832865" lon="13.428435"><ele>835.0</ele><time>2026-05-05T07:52:28.566Z</time></trkpt><trkpt lat="37.8327933" lon="13.4284733"><ele>834.9999999999999</ele><time>2026-05-05T07:52:29.565Z</time></trkpt><trkpt lat="37.83272" lon="13.4285133"><ele>835.0</ele><time>2026-05-05T07:52:30.564Z</time></trkpt><trkpt lat="37.8326483" lon="13.4285517"><ele>835.0</ele><time>2026-05-05T07:52:31.566Z</time></trkpt><trkpt lat="37.8325767" lon="13.4285867"><ele>835.0</ele><time>2026-05-05T07:52:32.566Z</time></trkpt><trkpt lat="37.832505" lon="13.428625"><ele>834.9999999999999</ele><time>2026-05-05T07:52:33.564Z</time></trkpt><trkpt lat="37.8324317" lon="13.4286633"><ele>835.0</ele><time>2026-05-05T07:52:34.565Z</time></trkpt><trkpt lat="37.8323567" lon="13.4287117"><ele>834.6666666666666</ele><time>2026-05-05T07:52:35.565Z</time></trkpt><trkpt lat="37.8322833" lon="13.4287567"><ele>834.3333333333333</ele><time>2026-05-05T07:52:36.565Z</time></trkpt><trkpt lat="37.8322117" lon="13.4288"><ele>834.0</ele><time>2026-05-05T07:52:37.564Z</time></trkpt><trkpt lat="37.8321367" lon="13.4288467"><ele>833.6666666666667</ele><time>2026-05-05T07:52:38.566Z</time></trkpt><trkpt lat="37.83206" lon="13.4288967"><ele>833.3333333333334</ele><time>2026-05-05T07:52:39.566Z</time></trkpt><trkpt lat="37.831985" lon="13.4289483"><ele>833.0</ele><time>2026-05-05T07:52:40.565Z</time></trkpt><trkpt lat="37.8319167" lon="13.429005"><ele>833.0</ele><time>2026-05-05T07:52:41.566Z</time></trkpt><trkpt lat="37.831845" lon="13.429065"><ele>833.0</ele><time>2026-05-05T07:52:42.564Z</time></trkpt><trkpt lat="37.831765" lon="13.4291217"><ele>833.0</ele><time>2026-05-05T07:52:43.566Z</time></trkpt><trkpt lat="37.8316833" lon="13.4291833"><ele>833.0</ele><time>2026-05-05T07:52:44.565Z</time></trkpt><trkpt lat="37.8315984" lon="13.4292482"><ele>833.0</ele><time>2026-05-05T07:52:45.563Z</time></trkpt><trkpt lat="37.8315096" lon="13.4293156"><ele>828.5999999999999</ele><time>2026-05-05T07:52:46.565Z</time></trkpt><trkpt lat="37.8314206" lon="13.4293869"><ele>824.1999999999999</ele><time>2026-05-05T07:52:47.566Z</time></trkpt><trkpt lat="37.8313367" lon="13.4294495"><ele>819.8</ele><time>2026-05-05T07:52:48.565Z</time></trkpt><trkpt lat="37.8312471" lon="13.4295087"><ele>815.4</ele><time>2026-05-05T07:52:49.564Z</time></trkpt><trkpt lat="37.8311613" lon="13.4295718"><ele>811.0</ele><time>2026-05-05T07:52:50.565Z</time></trkpt><trkpt lat="37.8310855" lon="13.429637"><ele>811.0</ele><time>2026-05-05T07:52:51.565Z</time></trkpt><trkpt lat="37.8310262" lon="13.4296929"><ele>811.0</ele><time>2026-05-05T07:52:52.564Z</time></trkpt><trkpt lat="37.830948" lon="13.4297554"><ele>811.0</ele><time>2026-05-05T07:52:54.564Z</time></trkpt><trkpt lat="37.8309046" lon="13.4296844"><ele>811.0</ele><time>2026-05-05T07:52:58.564Z</time></trkpt><trkpt lat="37.8309541" lon="13.4295947"><ele>811.0</ele><time>2026-05-05T07:53:00.564Z</time></trkpt><trkpt lat="37.8310392" lon="13.4294666"><ele>811.0</ele><time>2026-05-05T07:53:02.566Z</time></trkpt><trkpt lat="37.8310771" lon="13.4293764"><ele>811.0</ele><time>2026-05-05T07:53:03.565Z</time></trkpt><trkpt lat="37.8311111" lon="13.4292698"><ele>811.0</ele><time>2026-05-05T07:53:04.565Z</time></trkpt><trkpt lat="37.8311472" lon="13.4291529"><ele>811.0</ele><time>2026-05-05T07:53:05.565Z</time></trkpt><trkpt lat="37.8311849" lon="13.4290236"><ele>811.0</ele><time>2026-05-05T07:53:06.565Z</time></trkpt><trkpt lat="37.8312262" lon="13.428885"><ele>808.75</ele><time>2026-05-05T07:53:07.564Z</time></trkpt><trkpt lat="37.8312713" lon="13.4287429"><ele>806.5</ele><time>2026-05-05T07:53:08.565Z</time></trkpt><trkpt lat="37.831325" lon="13.4286049"><ele>804.25</ele><time>2026-05-05T07:53:09.566Z</time></trkpt><trkpt lat="37.8313902" lon="13.4284767"><ele>802.0</ele><time>2026-05-05T07:53:10.564Z</time></trkpt><trkpt lat="37.8314667" lon="13.4283584"><ele>802.0</ele><time>2026-05-05T07:53:11.566Z</time></trkpt><trkpt lat="37.8315513" lon="13.4282448"><ele>802.0</ele><time>2026-05-05T07:53:12.566Z</time></trkpt><trkpt lat="37.831636" lon="13.4281295"><ele>802.0</ele><time>2026-05-05T07:53:13.564Z</time></trkpt><trkpt lat="37.8317184" lon="13.4280111"><ele>802.0</ele><time>2026-05-05T07:53:14.567Z</time></trkpt><trkpt lat="37.8317999" lon="13.4278889"><ele>803.0</ele><time>2026-05-05T07:53:15.565Z</time></trkpt><trkpt lat="37.8318779" lon="13.4277623"><ele>804.0</ele><time>2026-05-05T07:53:16.566Z</time></trkpt><trkpt lat="37.8319558" lon="13.42763"><ele>805.0</ele><time>2026-05-05T07:53:17.566Z</time></trkpt><trkpt lat="37.8320341" lon="13.427494"><ele>806.0</ele><time>2026-05-05T07:53:18.564Z</time></trkpt><trkpt lat="37.8321129" lon="13.4273572"><ele>806.0</ele><time>2026-05-05T07:53:19.567Z</time></trkpt><trkpt lat="37.8321926" lon="13.4272212"><ele>806.0</ele><time>2026-05-05T07:53:20.566Z</time></trkpt><trkpt lat="37.8322723" lon="13.4270893"><ele>806.0</ele><time>2026-05-05T07:53:21.564Z</time></trkpt><trkpt lat="37.8323534" lon="13.4269609"><ele>806.0</ele><time>2026-05-05T07:53:22.565Z</time></trkpt><trkpt lat="37.8324315" lon="13.4268369"><ele>806.5999999999999</ele><time>2026-05-05T07:53:23.566Z</time></trkpt><trkpt lat="37.8325045" lon="13.4267216"><ele>807.2</ele><time>2026-05-05T07:53:24.564Z</time></trkpt><trkpt lat="37.8325699" lon="13.426619"><ele>807.8</ele><time>2026-05-05T07:53:25.566Z</time></trkpt><trkpt lat="37.8326245" lon="13.4265287"><ele>808.4000000000001</ele><time>2026-05-05T07:53:26.567Z</time></trkpt><trkpt lat="37.8326685" lon="13.426449"><ele>809.0</ele><time>2026-05-05T07:53:27.566Z</time></trkpt><trkpt lat="37.8327091" lon="13.4263684"><ele>806.8333333333334</ele><time>2026-05-05T07:53:28.565Z</time></trkpt><trkpt lat="37.8327468" lon="13.4262849"><ele>804.6666666666667</ele><time>2026-05-05T07:53:29.566Z</time></trkpt><trkpt lat="37.8327852" lon="13.4261982"><ele>802.5</ele><time>2026-05-05T07:53:30.566Z</time></trkpt><trkpt lat="37.8328267" lon="13.4261077"><ele>800.3333333333333</ele><time>2026-05-05T07:53:31.565Z</time></trkpt><trkpt lat="37.8328709" lon="13.4260095"><ele>798.1666666666666</ele><time>2026-05-05T07:53:32.566Z</time></trkpt><trkpt lat="37.832917" lon="13.425904"><ele>796.0</ele><time>2026-05-05T07:53:33.565Z</time></trkpt><trkpt lat="37.8329681" lon="13.4257952"><ele>796.0</ele><time>2026-05-05T07:53:34.564Z</time></trkpt><trkpt lat="37.8330211" lon="13.4256832"><ele>796.0</ele><time>2026-05-05T07:53:35.565Z</time></trkpt><trkpt lat="37.8330768" lon="13.4255716"><ele>796.0</ele><time>2026-05-05T07:53:36.565Z</time></trkpt><trkpt lat="37.8331416" lon="13.4254704"><ele>796.0</ele><time>2026-05-05T07:53:37.566Z</time></trkpt><trkpt lat="37.8332208" lon="13.425386"><ele>796.0</ele><time>2026-05-05T07:53:38.566Z</time></trkpt><trkpt lat="37.8333118" lon="13.4253159"><ele>794.0</ele><time>2026-05-05T07:53:39.565Z</time></trkpt><trkpt lat="37.8334062" lon="13.4252479"><ele>792.0</ele><time>2026-05-05T07:53:40.566Z</time></trkpt><trkpt lat="37.8334993" lon="13.4251774"><ele>790.0</ele><time>2026-05-05T07:53:41.567Z</time></trkpt><trkpt lat="37.8335883" lon="13.4251059"><ele>788.0</ele><time>2026-05-05T07:53:42.568Z</time></trkpt><trkpt lat="37.8336775" lon="13.4250384"><ele>786.0</ele><time>2026-05-05T07:53:43.565Z</time></trkpt><trkpt lat="37.8337688" lon="13.4249748"><ele>786.0</ele><time>2026-05-05T07:53:44.567Z</time></trkpt><trkpt lat="37.8338594" lon="13.424913"><ele>786.0</ele><time>2026-05-05T07:53:45.566Z</time></trkpt><trkpt lat="37.8339507" lon="13.4248489"><ele>786.0</ele><time>2026-05-05T07:53:46.567Z</time></trkpt><trkpt lat="37.8340365" lon="13.4247788"><ele>786.0</ele><time>2026-05-05T07:53:47.567Z</time></trkpt><trkpt lat="37.8341134" lon="13.4246965"><ele>786.0</ele><time>2026-05-05T07:53:48.567Z</time></trkpt><trkpt lat="37.8341752" lon="13.4246042"><ele>787.3333333333334</ele><time>2026-05-05T07:53:49.568Z</time></trkpt><trkpt lat="37.8342179" lon="13.4245088"><ele>788.6666666666667</ele><time>2026-05-05T07:53:50.566Z</time></trkpt><trkpt lat="37.8342456" lon="13.4244187"><ele>790.0</ele><time>2026-05-05T07:53:51.567Z</time></trkpt><trkpt lat="37.8342647" lon="13.4243364"><ele>791.3333333333334</ele><time>2026-05-05T07:53:52.567Z</time></trkpt><trkpt lat="37.8342921" lon="13.42418"><ele>792.6666666666667</ele><time>2026-05-05T07:53:54.565Z</time></trkpt><trkpt lat="37.8343073" lon="13.4240941"><ele>794.0</ele><time>2026-05-05T07:53:55.565Z</time></trkpt><trkpt lat="37.8343257" lon="13.4240003"><ele>794.0</ele><time>2026-05-05T07:53:56.565Z</time></trkpt><trkpt lat="37.8343463" lon="13.4239005"><ele>794.0</ele><time>2026-05-05T07:53:57.564Z</time></trkpt><trkpt lat="37.8343699" lon="13.4237938"><ele>794.0</ele><time>2026-05-05T07:53:58.565Z</time></trkpt><trkpt lat="37.8343976" lon="13.4236795"><ele>794.0</ele><time>2026-05-05T07:53:59.565Z</time></trkpt><trkpt lat="37.8344284" lon="13.4235567"><ele>794.0</ele><time>2026-05-05T07:54:00.569Z</time></trkpt><trkpt lat="37.8344584" lon="13.4234328"><ele>793.1666666666667</ele><time>2026-05-05T07:54:01.565Z</time></trkpt><trkpt lat="37.8344844" lon="13.4233157"><ele>792.3333333333334</ele><time>2026-05-05T07:54:02.565Z</time></trkpt><trkpt lat="37.8345051" lon="13.4232074"><ele>791.5</ele><time>2026-05-05T07:54:03.566Z</time></trkpt><trkpt lat="37.8345207" lon="13.4231071"><ele>790.6666666666667</ele><time>2026-05-05T07:54:04.566Z</time></trkpt><trkpt lat="37.8345326" lon="13.4230139"><ele>789.8333333333334</ele><time>2026-05-05T07:54:05.566Z</time></trkpt><trkpt lat="37.8345429" lon="13.4229212"><ele>789.0</ele><time>2026-05-05T07:54:06.564Z</time></trkpt><trkpt lat="37.8345526" lon="13.4228185"><ele>788.8000000000001</ele><time>2026-05-05T07:54:07.563Z</time></trkpt><trkpt lat="37.8345613" lon="13.4227029"><ele>788.6</ele><time>2026-05-05T07:54:08.565Z</time></trkpt><trkpt lat="37.8345671" lon="13.4225772"><ele>788.4</ele><time>2026-05-05T07:54:09.565Z</time></trkpt><trkpt lat="37.8345703" lon="13.4224421"><ele>788.2</ele><time>2026-05-05T07:54:10.567Z</time></trkpt><trkpt lat="37.8345759" lon="13.4223024"><ele>788.0</ele><time>2026-05-05T07:54:11.565Z</time></trkpt><trkpt lat="37.8345869" lon="13.4221579"><ele>790.5</ele><time>2026-05-05T07:54:12.566Z</time></trkpt><trkpt lat="37.8346003" lon="13.4220136"><ele>793.0</ele><time>2026-05-05T07:54:13.565Z</time></trkpt><trkpt lat="37.8346141" lon="13.4218706"><ele>795.5</ele><time>2026-05-05T07:54:14.566Z</time></trkpt><trkpt lat="37.8346283" lon="13.4217312"><ele>798.0</ele><time>2026-05-05T07:54:15.563Z</time></trkpt><trkpt lat="37.8346425" lon="13.4215926"><ele>798.0</ele><time>2026-05-05T07:54:16.565Z</time></trkpt><trkpt lat="37.8346559" lon="13.4214533"><ele>798.0</ele><time>2026-05-05T07:54:17.566Z</time></trkpt><trkpt lat="37.8346698" lon="13.4213115"><ele>798.0</ele><time>2026-05-05T07:54:18.564Z</time></trkpt><trkpt lat="37.8346851" lon="13.4211671"><ele>798.0</ele><time>2026-05-05T07:54:19.565Z</time></trkpt><trkpt lat="37.8346998" lon="13.4210196"><ele>799.75</ele><time>2026-05-05T07:54:20.566Z</time></trkpt><trkpt lat="37.8347133" lon="13.4208688"><ele>801.5</ele><time>2026-05-05T07:54:21.565Z</time></trkpt><trkpt lat="37.8347247" lon="13.420718"><ele>803.25</ele><time>2026-05-05T07:54:22.562Z</time></trkpt><trkpt lat="37.8347398" lon="13.4205723"><ele>805.0</ele><time>2026-05-05T07:54:23.566Z</time></trkpt><trkpt lat="37.8347636" lon="13.4204457"><ele>805.6</ele><time>2026-05-05T07:54:24.565Z</time></trkpt><trkpt lat="37.8348054" lon="13.42035"><ele>806.2</ele><time>2026-05-05T07:54:25.565Z</time></trkpt><trkpt lat="37.8348658" lon="13.4202708"><ele>806.8</ele><time>2026-05-05T07:54:26.564Z</time></trkpt><trkpt lat="37.8349341" lon="13.4201895"><ele>807.4</ele><time>2026-05-05T07:54:27.565Z</time></trkpt><trkpt lat="37.8349902" lon="13.4200875"><ele>808.0</ele><time>2026-05-05T07:54:28.565Z</time></trkpt><trkpt lat="37.8350322" lon="13.4199724"><ele>808.0</ele><time>2026-05-05T07:54:29.565Z</time></trkpt><trkpt lat="37.835059" lon="13.4198356"><ele>808.0</ele><time>2026-05-05T07:54:30.565Z</time></trkpt><trkpt lat="37.8350793" lon="13.4196943"><ele>808.0</ele><time>2026-05-05T07:54:31.564Z</time></trkpt><trkpt lat="37.8350956" lon="13.4195558"><ele>808.0</ele><time>2026-05-05T07:54:32.566Z</time></trkpt><trkpt lat="37.8350863" lon="13.4194319"><ele>808.0</ele><time>2026-05-05T07:54:33.564Z</time></trkpt><trkpt lat="37.8350649" lon="13.4193121"><ele>809.2</ele><time>2026-05-05T07:54:34.564Z</time></trkpt><trkpt lat="37.8350184" lon="13.4191975"><ele>810.4</ele><time>2026-05-05T07:54:35.566Z</time></trkpt><trkpt lat="37.8349589" lon="13.419085"><ele>811.6</ele><time>2026-05-05T07:54:36.565Z</time></trkpt><trkpt lat="37.8348935" lon="13.4189767"><ele>812.8000000000001</ele><time>2026-05-05T07:54:37.564Z</time></trkpt><trkpt lat="37.8348279" lon="13.418863"><ele>814.0</ele><time>2026-05-05T07:54:38.565Z</time></trkpt><trkpt lat="37.8347725" lon="13.4187488"><ele>815.0</ele><time>2026-05-05T07:54:39.565Z</time></trkpt><trkpt lat="37.8347305" lon="13.4186344"><ele>816.0</ele><time>2026-05-05T07:54:40.564Z</time></trkpt><trkpt lat="37.8346992" lon="13.4185221"><ele>817.0</ele><time>2026-05-05T07:54:41.563Z</time></trkpt><trkpt lat="37.8346777" lon="13.4184203"><ele>818.0</ele><time>2026-05-05T07:54:42.562Z</time></trkpt><trkpt lat="37.8346687" lon="13.418339"><ele>819.0</ele><time>2026-05-05T07:54:43.564Z</time></trkpt><trkpt lat="37.8346874" lon="13.4181722"><ele>819.0</ele><time>2026-05-05T07:54:45.565Z</time></trkpt><trkpt lat="37.8347059" lon="13.4180571"><ele>819.0</ele><time>2026-05-05T07:54:46.565Z</time></trkpt><trkpt lat="37.8347246" lon="13.4179237"><ele>819.0</ele><time>2026-05-05T07:54:47.565Z</time></trkpt><trkpt lat="37.834742" lon="13.4177858"><ele>819.0</ele><time>2026-05-05T07:54:48.564Z</time></trkpt><trkpt lat="37.8347573" lon="13.4176419"><ele>819.0</ele><time>2026-05-05T07:54:49.565Z</time></trkpt><trkpt lat="37.834765" lon="13.4174925"><ele>820.2</ele><time>2026-05-05T07:54:50.565Z</time></trkpt><trkpt lat="37.8347606" lon="13.4173423"><ele>821.4000000000001</ele><time>2026-05-05T07:54:51.566Z</time></trkpt><trkpt lat="37.834738" lon="13.4171947"><ele>822.6</ele><time>2026-05-05T07:54:52.565Z</time></trkpt><trkpt lat="37.8347" lon="13.417059"><ele>823.8</ele><time>2026-05-05T07:54:53.564Z</time></trkpt><trkpt lat="37.8346555" lon="13.4169511"><ele>825.0</ele><time>2026-05-05T07:54:54.564Z</time></trkpt><trkpt lat="37.8346018" lon="13.4168773"><ele>825.0</ele><time>2026-05-05T07:54:55.564Z</time></trkpt><trkpt lat="37.8345398" lon="13.4168236"><ele>825.0</ele><time>2026-05-05T07:54:56.565Z</time></trkpt><trkpt lat="37.8344739" lon="13.4167749"><ele>825.0</ele><time>2026-05-05T07:54:57.564Z</time></trkpt><trkpt lat="37.8343996" lon="13.416726"><ele>825.0</ele><time>2026-05-05T07:54:58.566Z</time></trkpt><trkpt lat="37.834324" lon="13.4166822"><ele>825.0</ele><time>2026-05-05T07:54:59.566Z</time></trkpt><trkpt lat="37.8342587" lon="13.4166482"><ele>825.0</ele><time>2026-05-05T07:55:00.565Z</time></trkpt><trkpt lat="37.8341543" lon="13.4166015"><ele>825.0</ele><time>2026-05-05T07:55:02.565Z</time></trkpt><trkpt lat="37.8340639" lon="13.416557"><ele>825.0</ele><time>2026-05-05T07:55:04.566Z</time></trkpt><trkpt lat="37.8339477" lon="13.416518"><ele>825.0</ele><time>2026-05-05T07:55:06.564Z</time></trkpt><trkpt lat="37.8338275" lon="13.4164905"><ele>825.0</ele><time>2026-05-05T07:55:08.565Z</time></trkpt><trkpt lat="37.833735" lon="13.4164641"><ele>825.0</ele><time>2026-05-05T07:55:10.565Z</time></trkpt><trkpt lat="37.8336738" lon="13.4164193"><ele>826.2</ele><time>2026-05-05T07:55:12.566Z</time></trkpt><trkpt lat="37.8336394" lon="13.4163196"><ele>827.4</ele><time>2026-05-05T07:55:14.566Z</time></trkpt><trkpt lat="37.8336279" lon="13.4161713"><ele>828.5999999999999</ele><time>2026-05-05T07:55:16.565Z</time></trkpt><trkpt lat="37.8336278" lon="13.4160908"><ele>829.8</ele><time>2026-05-05T07:55:17.565Z</time></trkpt><trkpt lat="37.8336613" lon="13.4159686"><ele>831.0</ele><time>2026-05-05T07:55:19.565Z</time></trkpt><trkpt lat="37.8337367" lon="13.4158939"><ele>831.0</ele><time>2026-05-05T07:55:21.565Z</time></trkpt><trkpt lat="37.8338211" lon="13.4158024"><ele>831.0</ele><time>2026-05-05T07:55:23.565Z</time></trkpt><trkpt lat="37.8338762" lon="13.415685"><ele>831.0</ele><time>2026-05-05T07:55:25.566Z</time></trkpt><trkpt lat="37.8338847" lon="13.415563"><ele>831.0</ele><time>2026-05-05T07:55:27.565Z</time></trkpt><trkpt lat="37.8338902" lon="13.4154225"><ele>831.0</ele><time>2026-05-05T07:55:29.569Z</time></trkpt><trkpt lat="37.8339372" lon="13.4152881"><ele>831.1666666666666</ele><time>2026-05-05T07:55:31.565Z</time></trkpt><trkpt lat="37.8339622" lon="13.4151801"><ele>831.3333333333333</ele><time>2026-05-05T07:55:33.565Z</time></trkpt><trkpt lat="37.8339552" lon="13.4150758"><ele>831.5</ele><time>2026-05-05T07:55:36.566Z</time></trkpt><trkpt lat="37.833943" lon="13.414963"><ele>831.6666666666666</ele><time>2026-05-05T07:55:39.565Z</time></trkpt><trkpt lat="37.833944" lon="13.414873"><ele>831.8333333333333</ele><time>2026-05-05T07:55:42.565Z</time></trkpt><trkpt lat="37.8339682" lon="13.4147758"><ele>832.0</ele><time>2026-05-05T07:56:17.565Z</time></trkpt><trkpt lat="37.834003" lon="13.4146856"><ele>831.4000000000001</ele><time>2026-05-05T07:56:20.565Z</time></trkpt><trkpt lat="37.8340391" lon="13.4146188"><ele>830.8000000000001</ele><time>2026-05-05T07:56:22.565Z</time></trkpt><trkpt lat="37.8340754" lon="13.4145307"><ele>830.2</ele><time>2026-05-05T07:56:25.565Z</time></trkpt><trkpt lat="37.83417" lon="13.4144114"><ele>829.6</ele><time>2026-05-05T07:56:52.566Z</time></trkpt><trkpt lat="37.8342408" lon="13.4143523"><ele>829.0</ele><time>2026-05-05T07:56:53.564Z</time></trkpt><trkpt lat="37.834339" lon="13.4143023"><ele>833.0</ele><time>2026-05-05T07:56:54.564Z</time></trkpt><trkpt lat="37.8344521" lon="13.4142556"><ele>837.0</ele><time>2026-05-05T07:56:55.565Z</time></trkpt><trkpt lat="37.8345744" lon="13.4142163"><ele>841.0</ele><time>2026-05-05T07:56:56.565Z</time></trkpt><trkpt lat="37.834701" lon="13.4141855"><ele>845.0</ele><time>2026-05-05T07:56:57.565Z</time></trkpt><trkpt lat="37.8348162" lon="13.4141617"><ele>845.0</ele><time>2026-05-05T07:56:58.564Z</time></trkpt><trkpt lat="37.8349254" lon="13.4141325"><ele>845.0</ele><time>2026-05-05T07:56:59.565Z</time></trkpt><trkpt lat="37.8350261" lon="13.4140855"><ele>845.0</ele><time>2026-05-05T07:57:00.565Z</time></trkpt><trkpt lat="37.8351158" lon="13.4140379"><ele>845.0</ele><time>2026-05-05T07:57:01.564Z</time></trkpt><trkpt lat="37.8351942" lon="13.4140033"><ele>845.0</ele><time>2026-05-05T07:57:02.565Z</time></trkpt><trkpt lat="37.8352787" lon="13.4139688"><ele>848.2</ele><time>2026-05-05T07:57:03.566Z</time></trkpt><trkpt lat="37.8353695" lon="13.4139275"><ele>851.4</ele><time>2026-05-05T07:57:04.57Z</time></trkpt><trkpt lat="37.8354582" lon="13.4138782"><ele>854.5999999999999</ele><time>2026-05-05T07:57:05.565Z</time></trkpt><trkpt lat="37.8355419" lon="13.4138229"><ele>857.8</ele><time>2026-05-05T07:57:06.565Z</time></trkpt><trkpt lat="37.8356207" lon="13.4137686"><ele>861.0</ele><time>2026-05-05T07:57:07.564Z</time></trkpt><trkpt lat="37.8357" lon="13.4137163"><ele>861.0</ele><time>2026-05-05T07:57:08.565Z</time></trkpt><trkpt lat="37.8357672" lon="13.413661"><ele>861.0</ele><time>2026-05-05T07:57:09.565Z</time></trkpt><trkpt lat="37.8358282" lon="13.4136096"><ele>861.0</ele><time>2026-05-05T07:57:10.563Z</time></trkpt><trkpt lat="37.8358887" lon="13.4135835"><ele>861.0</ele><time>2026-05-05T07:57:11.565Z</time></trkpt><trkpt lat="37.8359562" lon="13.4135633"><ele>861.0</ele><time>2026-05-05T07:57:12.565Z</time></trkpt><trkpt lat="37.8360231" lon="13.4135713"><ele>861.0</ele><time>2026-05-05T07:57:13.565Z</time></trkpt><trkpt lat="37.8360873" lon="13.4135914"><ele>861.0</ele><time>2026-05-05T07:57:14.565Z</time></trkpt><trkpt lat="37.8362029" lon="13.4136277"><ele>863.6666666666666</ele><time>2026-05-05T07:57:16.565Z</time></trkpt><trkpt lat="37.8362735" lon="13.4136136"><ele>866.3333333333333</ele><time>2026-05-05T07:57:18.565Z</time></trkpt><trkpt lat="37.8363003" lon="13.4135341"><ele>869.0</ele><time>2026-05-05T07:57:20.564Z</time></trkpt><trkpt lat="37.8363062" lon="13.4133764"><ele>871.6666666666666</ele><time>2026-05-05T07:57:22.564Z</time></trkpt><trkpt lat="37.8363125" lon="13.4132899"><ele>874.3333333333333</ele><time>2026-05-05T07:57:23.565Z</time></trkpt><trkpt lat="37.8363461" lon="13.4131837"><ele>877.0</ele><time>2026-05-05T07:57:25.564Z</time></trkpt><trkpt lat="37.8364179" lon="13.413137"><ele>877.0</ele><time>2026-05-05T07:57:27.567Z</time></trkpt><trkpt lat="37.8364835" lon="13.4130467"><ele>877.0</ele><time>2026-05-05T07:57:57.565Z</time></trkpt><trkpt lat="37.8365337" lon="13.4129097"><ele>877.0</ele><time>2026-05-05T07:57:59.565Z</time></trkpt><trkpt lat="37.8365617" lon="13.4128317"><ele>877.0</ele><time>2026-05-05T07:58:00.564Z</time></trkpt><trkpt lat="37.8365933" lon="13.4127117"><ele>877.0</ele><time>2026-05-05T07:58:02.566Z</time></trkpt><trkpt lat="37.8366333" lon="13.4125967"><ele>877.6</ele><time>2026-05-05T07:58:04.565Z</time></trkpt><trkpt lat="37.8366683" lon="13.4124817"><ele>878.2</ele><time>2026-05-05T07:58:06.565Z</time></trkpt><trkpt lat="37.8366917" lon="13.4123483"><ele>878.8</ele><time>2026-05-05T07:58:08.566Z</time></trkpt><trkpt lat="37.8366933" lon="13.4122033"><ele>879.4</ele><time>2026-05-05T07:58:10.567Z</time></trkpt><trkpt lat="37.8367183" lon="13.4120833"><ele>880.0</ele><time>2026-05-05T07:58:12.567Z</time></trkpt><trkpt lat="37.836745" lon="13.41196"><ele>880.1428571428571</ele><time>2026-05-05T07:58:14.565Z</time></trkpt><trkpt lat="37.8367467" lon="13.411825"><ele>880.2857142857142</ele><time>2026-05-05T07:58:16.566Z</time></trkpt><trkpt lat="37.8367517" lon="13.411745"><ele>880.4285714285713</ele><time>2026-05-05T07:58:17.566Z</time></trkpt><trkpt lat="37.83677" lon="13.4116667"><ele>880.5714285714286</ele><time>2026-05-05T07:58:18.564Z</time></trkpt><trkpt lat="37.8367933" lon="13.4115867"><ele>880.7142857142858</ele><time>2026-05-05T07:58:19.565Z</time></trkpt><trkpt lat="37.8368183" lon="13.4115067"><ele>880.8571428571428</ele><time>2026-05-05T07:58:20.566Z</time></trkpt><trkpt lat="37.8368333" lon="13.41141"><ele>881.0</ele><time>2026-05-05T07:58:21.566Z</time></trkpt><trkpt lat="37.8368433" lon="13.4113117"><ele>881.3333333333334</ele><time>2026-05-05T07:58:22.565Z</time></trkpt><trkpt lat="37.836845" lon="13.41121"><ele>881.6666666666667</ele><time>2026-05-05T07:58:23.565Z</time></trkpt><trkpt lat="37.836835" lon="13.41112"><ele>882.0</ele><time>2026-05-05T07:58:24.564Z</time></trkpt><trkpt lat="37.8367833" lon="13.4110033"><ele>882.3333333333333</ele><time>2026-05-05T07:58:26.566Z</time></trkpt><trkpt lat="37.8366917" lon="13.4109"><ele>882.6666666666666</ele><time>2026-05-05T07:58:28.563Z</time></trkpt><trkpt lat="37.8366533" lon="13.410835"><ele>883.0</ele><time>2026-05-05T07:58:29.565Z</time></trkpt><trkpt lat="37.8366333" lon="13.4106983"><ele>883.0</ele><time>2026-05-05T07:58:31.565Z</time></trkpt><trkpt lat="37.836635" lon="13.41055"><ele>883.0</ele><time>2026-05-05T07:58:33.565Z</time></trkpt><trkpt lat="37.8366333" lon="13.4103983"><ele>883.0</ele><time>2026-05-05T07:58:35.565Z</time></trkpt><trkpt lat="37.8366333" lon="13.4102617"><ele>883.0</ele><time>2026-05-05T07:58:37.565Z</time></trkpt><trkpt lat="37.8366667" lon="13.4101367"><ele>883.0</ele><time>2026-05-05T07:58:39.564Z</time></trkpt><trkpt lat="37.836735" lon="13.4100433"><ele>886.0</ele><time>2026-05-05T07:58:41.565Z</time></trkpt><trkpt lat="37.8368183" lon="13.4099383"><ele>889.0</ele><time>2026-05-05T07:58:43.565Z</time></trkpt><trkpt lat="37.83687" lon="13.40989"><ele>892.0</ele><time>2026-05-05T07:58:44.564Z</time></trkpt><trkpt lat="37.8369233" lon="13.409845"><ele>895.0</ele><time>2026-05-05T07:58:45.565Z</time></trkpt><trkpt lat="37.8370417" lon="13.4098"><ele>898.0</ele><time>2026-05-05T07:58:47.566Z</time></trkpt><trkpt lat="37.8371533" lon="13.4097583"><ele>898.0</ele><time>2026-05-05T07:58:49.564Z</time></trkpt><trkpt lat="37.8372617" lon="13.40971"><ele>898.0</ele><time>2026-05-05T07:58:51.564Z</time></trkpt><trkpt lat="37.83737" lon="13.4096567"><ele>898.0</ele><time>2026-05-05T07:58:53.564Z</time></trkpt><trkpt lat="37.837435" lon="13.40957"><ele>898.0</ele><time>2026-05-05T07:58:55.565Z</time></trkpt><trkpt lat="37.8374717" lon="13.4094467"><ele>898.0</ele><time>2026-05-05T07:58:57.563Z</time></trkpt><trkpt lat="37.8374817" lon="13.4092967"><ele>897.6666666666666</ele><time>2026-05-05T07:58:59.565Z</time></trkpt><trkpt lat="37.83749" lon="13.40921"><ele>897.3333333333333</ele><time>2026-05-05T07:59:00.567Z</time></trkpt><trkpt lat="37.8374967" lon="13.40912"><ele>897.0</ele><time>2026-05-05T07:59:01.565Z</time></trkpt><trkpt lat="37.837505" lon="13.4090333"><ele>896.6666666666667</ele><time>2026-05-05T07:59:02.566Z</time></trkpt><trkpt lat="37.837515" lon="13.4089533"><ele>896.3333333333334</ele><time>2026-05-05T07:59:03.564Z</time></trkpt><trkpt lat="37.8375483" lon="13.4088283"><ele>896.0</ele><time>2026-05-05T07:59:05.564Z</time></trkpt><trkpt lat="37.8375833" lon="13.4087367"><ele>894.4</ele><time>2026-05-05T07:59:07.566Z</time></trkpt><trkpt lat="37.83762" lon="13.4086433"><ele>892.8</ele><time>2026-05-05T07:59:09.568Z</time></trkpt><trkpt lat="37.8376683" lon="13.408535"><ele>891.1999999999999</ele><time>2026-05-05T07:59:11.564Z</time></trkpt><trkpt lat="37.8377267" lon="13.408415"><ele>889.5999999999999</ele><time>2026-05-05T07:59:13.565Z</time></trkpt><trkpt lat="37.8378017" lon="13.408305"><ele>888.0</ele><time>2026-05-05T07:59:15.567Z</time></trkpt><trkpt lat="37.837885" lon="13.4081983"><ele>892.0</ele><time>2026-05-05T07:59:17.564Z</time></trkpt><trkpt lat="37.8379683" lon="13.4081033"><ele>896.0</ele><time>2026-05-05T07:59:19.564Z</time></trkpt><trkpt lat="37.8380483" lon="13.4080267"><ele>900.0</ele><time>2026-05-05T07:59:21.566Z</time></trkpt><trkpt lat="37.8381383" lon="13.4079517"><ele>904.0</ele><time>2026-05-05T07:59:23.567Z</time></trkpt><trkpt lat="37.8382367" lon="13.4078783"><ele>908.0</ele><time>2026-05-05T07:59:25.565Z</time></trkpt><trkpt lat="37.8382967" lon="13.4077817"><ele>908.0</ele><time>2026-05-05T07:59:27.565Z</time></trkpt><trkpt lat="37.83833" lon="13.407665"><ele>908.0</ele><time>2026-05-05T07:59:29.564Z</time></trkpt><trkpt lat="37.8383633" lon="13.4075533"><ele>908.0</ele><time>2026-05-05T07:59:31.565Z</time></trkpt><trkpt lat="37.8384083" lon="13.4074467"><ele>908.0</ele><time>2026-05-05T07:59:33.564Z</time></trkpt><trkpt lat="37.83846" lon="13.4073283"><ele>908.0</ele><time>2026-05-05T07:59:35.565Z</time></trkpt><trkpt lat="37.8385183" lon="13.4071933"><ele>913.4</ele><time>2026-05-05T07:59:37.564Z</time></trkpt><trkpt lat="37.83856" lon="13.407055"><ele>918.8</ele><time>2026-05-05T07:59:39.565Z</time></trkpt><trkpt lat="37.838605" lon="13.406935"><ele>924.2</ele><time>2026-05-05T07:59:41.564Z</time></trkpt><trkpt lat="37.8386533" lon="13.4068233"><ele>929.6</ele><time>2026-05-05T07:59:43.565Z</time></trkpt><trkpt lat="37.8387067" lon="13.406705"><ele>935.0</ele><time>2026-05-05T07:59:45.565Z</time></trkpt><trkpt lat="37.838735" lon="13.406565"><ele>935.0</ele><time>2026-05-05T07:59:47.565Z</time></trkpt><trkpt lat="37.838755" lon="13.4064383"><ele>935.0</ele><time>2026-05-05T07:59:49.567Z</time></trkpt><trkpt lat="37.8387933" lon="13.4063"><ele>935.0</ele><time>2026-05-05T07:59:51.565Z</time></trkpt><trkpt lat="37.838825" lon="13.4062233"><ele>935.0</ele><time>2026-05-05T07:59:52.564Z</time></trkpt><trkpt lat="37.8388767" lon="13.4060967"><ele>935.0</ele><time>2026-05-05T07:59:54.566Z</time></trkpt><trkpt lat="37.8388817" lon="13.406"><ele>933.2</ele><time>2026-05-05T07:59:56.566Z</time></trkpt><trkpt lat="37.8388617" lon="13.4058833"><ele>931.4</ele><time>2026-05-05T07:59:58.566Z</time></trkpt><trkpt lat="37.8388367" lon="13.4057667"><ele>929.5999999999999</ele><time>2026-05-05T08:00:00.566Z</time></trkpt><trkpt lat="37.8388167" lon="13.405645"><ele>927.8</ele><time>2026-05-05T08:00:02.568Z</time></trkpt><trkpt lat="37.83879" lon="13.4055383"><ele>926.0</ele><time>2026-05-05T08:00:04.566Z</time></trkpt><trkpt lat="37.8387417" lon="13.4054267"><ele>925.3333333333334</ele><time>2026-05-05T08:00:06.566Z</time></trkpt><trkpt lat="37.8386883" lon="13.405325"><ele>924.6666666666667</ele><time>2026-05-05T08:00:08.567Z</time></trkpt><trkpt lat="37.8386517" lon="13.4052217"><ele>924.0</ele><time>2026-05-05T08:00:10.566Z</time></trkpt><trkpt lat="37.838635" lon="13.40512"><ele>923.3333333333333</ele><time>2026-05-05T08:00:12.566Z</time></trkpt><trkpt lat="37.8386383" lon="13.4050167"><ele>922.6666666666666</ele><time>2026-05-05T08:00:14.567Z</time></trkpt><trkpt lat="37.8386517" lon="13.4049083"><ele>922.0</ele><time>2026-05-05T08:00:16.564Z</time></trkpt><trkpt lat="37.83867" lon="13.404815"><ele>921.9999999999999</ele><time>2026-05-05T08:00:18.564Z</time></trkpt><trkpt lat="37.8386933" lon="13.40472"><ele>922.0</ele><time>2026-05-05T08:00:27.565Z</time></trkpt><trkpt lat="37.83873" lon="13.404635"><ele>922.0</ele><time>2026-05-05T08:00:29.568Z</time></trkpt><trkpt lat="37.838775" lon="13.4045433"><ele>922.0</ele><time>2026-05-05T08:00:32.566Z</time></trkpt><trkpt lat="37.8388183" lon="13.4044483"><ele>921.9999999999999</ele><time>2026-05-05T08:00:34.566Z</time></trkpt><trkpt lat="37.83886" lon="13.404325"><ele>922.0</ele><time>2026-05-05T08:00:36.566Z</time></trkpt><trkpt lat="37.838885" lon="13.404245"><ele>921.3333333333333</ele><time>2026-05-05T08:00:37.565Z</time></trkpt><trkpt lat="37.83891" lon="13.40415"><ele>920.6666666666666</ele><time>2026-05-05T08:00:38.568Z</time></trkpt><trkpt lat="37.838935" lon="13.404055"><ele>920.0</ele><time>2026-05-05T08:00:39.565Z</time></trkpt><trkpt lat="37.8389617" lon="13.4039583"><ele>919.3333333333333</ele><time>2026-05-05T08:00:40.566Z</time></trkpt><trkpt lat="37.838985" lon="13.4038617"><ele>918.6666666666666</ele><time>2026-05-05T08:00:41.567Z</time></trkpt><trkpt lat="37.8390067" lon="13.4037733"><ele>918.0</ele><time>2026-05-05T08:00:42.566Z</time></trkpt><trkpt lat="37.8390267" lon="13.4036833"><ele>916.8333333333334</ele><time>2026-05-05T08:00:43.565Z</time></trkpt><trkpt lat="37.8390533" lon="13.40359"><ele>915.6666666666667</ele><time>2026-05-05T08:00:44.567Z</time></trkpt><trkpt lat="37.8390817" lon="13.403495"><ele>914.5</ele><time>2026-05-05T08:00:45.565Z</time></trkpt><trkpt lat="37.83911" lon="13.4034017"><ele>913.3333333333334</ele><time>2026-05-05T08:00:46.565Z</time></trkpt><trkpt lat="37.8391367" lon="13.4033133"><ele>912.1666666666667</ele><time>2026-05-05T08:00:47.567Z</time></trkpt><trkpt lat="37.83916" lon="13.4032333"><ele>911.0</ele><time>2026-05-05T08:00:48.564Z</time></trkpt><trkpt lat="37.839185" lon="13.4031467"><ele>911.0000000000001</ele><time>2026-05-05T08:00:49.566Z</time></trkpt><trkpt lat="37.8392117" lon="13.4030617"><ele>911.0</ele><time>2026-05-05T08:00:50.566Z</time></trkpt><trkpt lat="37.839245" lon="13.4029733"><ele>911.0</ele><time>2026-05-05T08:00:51.564Z</time></trkpt><trkpt lat="37.839275" lon="13.4028967"><ele>911.0</ele><time>2026-05-05T08:00:52.565Z</time></trkpt><trkpt lat="37.8393467" lon="13.4027767"><ele>911.0000000000001</ele><time>2026-05-05T08:00:54.565Z</time></trkpt><trkpt lat="37.8394417" lon="13.4027033"><ele>911.0</ele><time>2026-05-05T08:00:56.566Z</time></trkpt><trkpt lat="37.8395533" lon="13.4026633"><ele>912.8</ele><time>2026-05-05T08:00:58.566Z</time></trkpt><trkpt lat="37.8396583" lon="13.40263"><ele>914.5999999999999</ele><time>2026-05-05T08:01:00.565Z</time></trkpt><trkpt lat="37.8397517" lon="13.4025467"><ele>916.4</ele><time>2026-05-05T08:01:02.566Z</time></trkpt><trkpt lat="37.8397983" lon="13.40249"><ele>918.2</ele><time>2026-05-05T08:01:03.565Z</time></trkpt><trkpt lat="37.8398867" lon="13.402385"><ele>920.0</ele><time>2026-05-05T08:01:05.565Z</time></trkpt><trkpt lat="37.8399367" lon="13.4023333"><ele>920.0000000000001</ele><time>2026-05-05T08:01:06.566Z</time></trkpt><trkpt lat="37.8399883" lon="13.4022867"><ele>920.0</ele><time>2026-05-05T08:01:07.565Z</time></trkpt><trkpt lat="37.8400917" lon="13.4021933"><ele>920.0</ele><time>2026-05-05T08:01:09.564Z</time></trkpt><trkpt lat="37.8401483" lon="13.4021333"><ele>920.0</ele><time>2026-05-05T08:01:10.564Z</time></trkpt><trkpt lat="37.8402067" lon="13.40207"><ele>920.0000000000001</ele><time>2026-05-05T08:01:11.565Z</time></trkpt><trkpt lat="37.840265" lon="13.4020117"><ele>920.0</ele><time>2026-05-05T08:01:12.566Z</time></trkpt><trkpt lat="37.8403167" lon="13.4019583"><ele>920.1666666666667</ele><time>2026-05-05T08:01:13.565Z</time></trkpt><trkpt lat="37.8403667" lon="13.4019"><ele>920.3333333333334</ele><time>2026-05-05T08:01:14.568Z</time></trkpt><trkpt lat="37.84044" lon="13.4017983"><ele>920.5</ele><time>2026-05-05T08:01:16.565Z</time></trkpt><trkpt lat="37.8404983" lon="13.401705"><ele>920.6666666666667</ele><time>2026-05-05T08:01:18.564Z</time></trkpt><trkpt lat="37.840545" lon="13.4016317"><ele>920.8333333333334</ele><time>2026-05-05T08:01:20.566Z</time></trkpt><trkpt lat="37.8405833" lon="13.4015683"><ele>921.0</ele><time>2026-05-05T08:01:22.565Z</time></trkpt><trkpt lat="37.840635" lon="13.401455"><ele>921.0</ele><time>2026-05-05T08:01:49.565Z</time></trkpt><trkpt lat="37.8406833" lon="13.4013717"><ele>920.9999999999999</ele><time>2026-05-05T08:01:51.565Z</time></trkpt><trkpt lat="37.8407517" lon="13.4012583"><ele>920.9999999999999</ele><time>2026-05-05T08:01:53.565Z</time></trkpt><trkpt lat="37.84079" lon="13.4011917"><ele>921.0</ele><time>2026-05-05T08:01:54.565Z</time></trkpt><trkpt lat="37.8408417" lon="13.4010667"><ele>921.0</ele><time>2026-05-05T08:01:56.564Z</time></trkpt><trkpt lat="37.8408933" lon="13.40095"><ele>920.5999999999999</ele><time>2026-05-05T08:01:58.564Z</time></trkpt><trkpt lat="37.84095" lon="13.4008333"><ele>920.1999999999999</ele><time>2026-05-05T08:02:00.565Z</time></trkpt><trkpt lat="37.8410017" lon="13.400715"><ele>919.8000000000001</ele><time>2026-05-05T08:02:02.565Z</time></trkpt><trkpt lat="37.84106" lon="13.400625"><ele>919.4000000000001</ele><time>2026-05-05T08:02:04.567Z</time></trkpt><trkpt lat="37.8411133" lon="13.400565"><ele>919.0</ele><time>2026-05-05T08:02:06.565Z</time></trkpt><trkpt lat="37.8411833" lon="13.4004883"><ele>920.6666666666666</ele><time>2026-05-05T08:02:09.565Z</time></trkpt><trkpt lat="37.8412567" lon="13.4004017"><ele>922.3333333333333</ele><time>2026-05-05T08:02:11.566Z</time></trkpt><trkpt lat="37.8413167" lon="13.4003083"><ele>924.0</ele><time>2026-05-05T08:02:13.567Z</time></trkpt><trkpt lat="37.8413683" lon="13.4002267"><ele>925.6666666666667</ele><time>2026-05-05T08:02:15.565Z</time></trkpt><trkpt lat="37.8414067" lon="13.400145"><ele>927.3333333333334</ele><time>2026-05-05T08:02:20.567Z</time></trkpt><trkpt lat="37.8414433" lon="13.4000683"><ele>929.0</ele><time>2026-05-05T08:02:22.566Z</time></trkpt><trkpt lat="37.8414767" lon="13.3999617"><ele>929.0</ele><time>2026-05-05T08:02:24.566Z</time></trkpt><trkpt lat="37.8415133" lon="13.3998367"><ele>929.0000000000001</ele><time>2026-05-05T08:02:26.565Z</time></trkpt><trkpt lat="37.8415717" lon="13.39973"><ele>929.0000000000001</ele><time>2026-05-05T08:02:28.565Z</time></trkpt><trkpt lat="37.8416" lon="13.3996483"><ele>929.0</ele><time>2026-05-05T08:02:30.564Z</time></trkpt><trkpt lat="37.8416183" lon="13.3995583"><ele>929.0</ele><time>2026-05-05T08:02:33.566Z</time></trkpt><trkpt lat="37.8416567" lon="13.3993717"><ele>928.0000000000001</ele><time>2026-05-05T08:03:01.564Z</time></trkpt><trkpt lat="37.84171" lon="13.3992767"><ele>927.0</ele><time>2026-05-05T08:03:04.565Z</time></trkpt><trkpt lat="37.84175" lon="13.3992133"><ele>926.0</ele><time>2026-05-05T08:03:07.564Z</time></trkpt><trkpt lat="37.841825" lon="13.39914"><ele>925.0</ele><time>2026-05-05T08:03:26.567Z</time></trkpt><trkpt lat="37.841875" lon="13.39909"><ele>924.0000000000001</ele><time>2026-05-05T08:03:28.565Z</time></trkpt><trkpt lat="37.8419167" lon="13.3990217"><ele>923.0</ele><time>2026-05-05T08:03:30.565Z</time></trkpt><trkpt lat="37.841975" lon="13.3988633"><ele>925.2</ele><time>2026-05-05T08:04:55.566Z</time></trkpt><trkpt lat="37.8420017" lon="13.3987567"><ele>927.4</ele><time>2026-05-05T08:04:57.565Z</time></trkpt><trkpt lat="37.842035" lon="13.3986033"><ele>929.6000000000001</ele><time>2026-05-05T08:04:59.564Z</time></trkpt><trkpt lat="37.842045" lon="13.3985067"><ele>931.8000000000001</ele><time>2026-05-05T08:05:00.564Z</time></trkpt><trkpt lat="37.8420517" lon="13.3984017"><ele>934.0</ele><time>2026-05-05T08:05:01.566Z</time></trkpt><trkpt lat="37.84206" lon="13.3983017"><ele>933.9999999999999</ele><time>2026-05-05T08:05:02.566Z</time></trkpt><trkpt lat="37.8420633" lon="13.3982133"><ele>934.0</ele><time>2026-05-05T08:05:03.566Z</time></trkpt><trkpt lat="37.8420783" lon="13.3980767"><ele>934.0</ele><time>2026-05-05T08:05:05.564Z</time></trkpt><trkpt lat="37.8421017" lon="13.3979867"><ele>934.0</ele><time>2026-05-05T08:05:07.565Z</time></trkpt><trkpt lat="37.8421533" lon="13.3979383"><ele>933.9999999999999</ele><time>2026-05-05T08:05:10.566Z</time></trkpt><trkpt lat="37.8421046" lon="13.3978852"><ele>934.0</ele><time>2026-05-05T08:12:45.573Z</time></trkpt><trkpt lat="37.8420133" lon="13.3978583"><ele>933.8000000000001</ele><time>2026-05-05T08:13:03.565Z</time></trkpt><trkpt lat="37.8419617" lon="13.3977783"><ele>933.6000000000001</ele><time>2026-05-05T08:13:06.565Z</time></trkpt><trkpt lat="37.8419217" lon="13.397685"><ele>933.4</ele><time>2026-05-05T08:13:09.566Z</time></trkpt><trkpt lat="37.8419183" lon="13.397585"><ele>933.2</ele><time>2026-05-05T08:13:12.565Z</time></trkpt><trkpt lat="37.8419367" lon="13.3975083"><ele>933.0</ele><time>2026-05-05T08:13:14.566Z</time></trkpt><trkpt lat="37.842015" lon="13.3973283"><ele>933.0</ele><time>2026-05-05T08:13:43.564Z</time></trkpt><trkpt lat="37.842075" lon="13.397195"><ele>933.0</ele><time>2026-05-05T08:13:45.567Z</time></trkpt><trkpt lat="37.8420967" lon="13.3970967"><ele>933.0</ele><time>2026-05-05T08:13:46.565Z</time></trkpt><trkpt lat="37.8420983" lon="13.3969983"><ele>933.0</ele><time>2026-05-05T08:13:47.563Z</time></trkpt><trkpt lat="37.8420951" lon="13.3968839"><ele>933.0</ele><time>2026-05-05T08:13:48.565Z</time></trkpt><trkpt lat="37.8420804" lon="13.3967468"><ele>931.5</ele><time>2026-05-05T08:13:49.563Z</time></trkpt><trkpt lat="37.8420538" lon="13.3965848"><ele>930.0</ele><time>2026-05-05T08:13:50.566Z</time></trkpt><trkpt lat="37.8420267" lon="13.3964127"><ele>928.5</ele><time>2026-05-05T08:13:51.564Z</time></trkpt><trkpt lat="37.8419969" lon="13.3962556"><ele>927.0</ele><time>2026-05-05T08:13:52.565Z</time></trkpt><trkpt lat="37.8419717" lon="13.396134"><ele>926.4000000000001</ele><time>2026-05-05T08:13:53.564Z</time></trkpt><trkpt lat="37.8419548" lon="13.3960502"><ele>925.8000000000001</ele><time>2026-05-05T08:13:54.564Z</time></trkpt><trkpt lat="37.8419623" lon="13.395867"><ele>925.2</ele><time>2026-05-05T08:13:56.565Z</time></trkpt><trkpt lat="37.8419909" lon="13.3957465"><ele>924.6</ele><time>2026-05-05T08:13:57.564Z</time></trkpt><trkpt lat="37.8420129" lon="13.3956411"><ele>924.0</ele><time>2026-05-05T08:13:58.564Z</time></trkpt><trkpt lat="37.8420228" lon="13.3955309"><ele>924.5</ele><time>2026-05-05T08:13:59.564Z</time></trkpt><trkpt lat="37.8420128" lon="13.3954096"><ele>925.0</ele><time>2026-05-05T08:14:00.565Z</time></trkpt><trkpt lat="37.8419788" lon="13.3952845"><ele>925.5</ele><time>2026-05-05T08:14:01.564Z</time></trkpt><trkpt lat="37.8419348" lon="13.3951871"><ele>926.0</ele><time>2026-05-05T08:14:02.565Z</time></trkpt><trkpt lat="37.8419057" lon="13.3951006"><ele>926.5</ele><time>2026-05-05T08:14:03.563Z</time></trkpt><trkpt lat="37.8418841" lon="13.3950095"><ele>927.0</ele><time>2026-05-05T08:14:04.564Z</time></trkpt><trkpt lat="37.8418748" lon="13.3949186"><ele>926.9999999999999</ele><time>2026-05-05T08:14:05.565Z</time></trkpt><trkpt lat="37.841872" lon="13.3948314"><ele>927.0</ele><time>2026-05-05T08:14:06.564Z</time></trkpt><trkpt lat="37.841886" lon="13.3947516"><ele>926.9999999999999</ele><time>2026-05-05T08:14:07.564Z</time></trkpt><trkpt lat="37.8419079" lon="13.3946734"><ele>926.9999999999999</ele><time>2026-05-05T08:14:08.565Z</time></trkpt><trkpt lat="37.8419228" lon="13.3945862"><ele>927.0</ele><time>2026-05-05T08:14:09.564Z</time></trkpt><trkpt lat="37.8419195" lon="13.3944903"><ele>926.9999999999999</ele><time>2026-05-05T08:14:10.564Z</time></trkpt><trkpt lat="37.8418937" lon="13.3943865"><ele>926.9999999999999</ele><time>2026-05-05T08:14:11.564Z</time></trkpt><trkpt lat="37.8418551" lon="13.3942737"><ele>927.25</ele><time>2026-05-05T08:14:12.564Z</time></trkpt><trkpt lat="37.8418029" lon="13.3941354"><ele>927.5</ele><time>2026-05-05T08:14:13.564Z</time></trkpt><trkpt lat="37.8417529" lon="13.3939713"><ele>927.75</ele><time>2026-05-05T08:14:14.563Z</time></trkpt><trkpt lat="37.8417151" lon="13.3937991"><ele>928.0</ele><time>2026-05-05T08:14:15.565Z</time></trkpt><trkpt lat="37.8416957" lon="13.393622"><ele>928.0</ele><time>2026-05-05T08:14:16.564Z</time></trkpt><trkpt lat="37.841688" lon="13.3934387"><ele>928.0</ele><time>2026-05-05T08:14:17.565Z</time></trkpt><trkpt lat="37.8416819" lon="13.3932704"><ele>928.0</ele><time>2026-05-05T08:14:18.564Z</time></trkpt><trkpt lat="37.8416839" lon="13.3931061"><ele>928.0</ele><time>2026-05-05T08:14:19.565Z</time></trkpt><trkpt lat="37.8416996" lon="13.3929264"><ele>927.25</ele><time>2026-05-05T08:14:20.566Z</time></trkpt><trkpt lat="37.8417164" lon="13.3927475"><ele>926.5</ele><time>2026-05-05T08:14:21.565Z</time></trkpt><trkpt lat="37.8417321" lon="13.3925808"><ele>925.75</ele><time>2026-05-05T08:14:22.565Z</time></trkpt><trkpt lat="37.8417452" lon="13.3924264"><ele>925.0</ele><time>2026-05-05T08:14:23.565Z</time></trkpt><trkpt lat="37.8417458" lon="13.3922709"><ele>924.5</ele><time>2026-05-05T08:14:24.564Z</time></trkpt><trkpt lat="37.8417425" lon="13.392105"><ele>924.0</ele><time>2026-05-05T08:14:25.565Z</time></trkpt><trkpt lat="37.8417367" lon="13.3919432"><ele>923.5</ele><time>2026-05-05T08:14:26.567Z</time></trkpt><trkpt lat="37.8417336" lon="13.3917913"><ele>923.0</ele><time>2026-05-05T08:14:27.563Z</time></trkpt><trkpt lat="37.8417473" lon="13.3916469"><ele>923.0</ele><time>2026-05-05T08:14:28.566Z</time></trkpt><trkpt lat="37.8417828" lon="13.3915086"><ele>923.0</ele><time>2026-05-05T08:14:29.565Z</time></trkpt><trkpt lat="37.8418239" lon="13.3913848"><ele>923.0</ele><time>2026-05-05T08:14:30.565Z</time></trkpt><trkpt lat="37.841865" lon="13.3912714"><ele>923.0</ele><time>2026-05-05T08:14:31.565Z</time></trkpt><trkpt lat="37.8418951" lon="13.3911586"><ele>923.0</ele><time>2026-05-05T08:14:32.566Z</time></trkpt><trkpt lat="37.8419131" lon="13.3910433"><ele>924.2</ele><time>2026-05-05T08:14:33.564Z</time></trkpt><trkpt lat="37.8419157" lon="13.3909224"><ele>925.4</ele><time>2026-05-05T08:14:34.565Z</time></trkpt><trkpt lat="37.8419043" lon="13.3907946"><ele>926.6000000000001</ele><time>2026-05-05T08:14:35.564Z</time></trkpt><trkpt lat="37.84189" lon="13.3906625"><ele>927.8000000000001</ele><time>2026-05-05T08:14:36.565Z</time></trkpt><trkpt lat="37.8418775" lon="13.3905359"><ele>929.0</ele><time>2026-05-05T08:14:37.564Z</time></trkpt><trkpt lat="37.8418707" lon="13.390417"><ele>929.0000000000001</ele><time>2026-05-05T08:14:38.566Z</time></trkpt><trkpt lat="37.8418647" lon="13.3903064"><ele>929.0</ele><time>2026-05-05T08:14:39.563Z</time></trkpt><trkpt lat="37.8418601" lon="13.3902043"><ele>929.0</ele><time>2026-05-05T08:14:40.565Z</time></trkpt><trkpt lat="37.8418567" lon="13.390105"><ele>929.0</ele><time>2026-05-05T08:14:41.564Z</time></trkpt><trkpt lat="37.841859" lon="13.3900018"><ele>929.0000000000001</ele><time>2026-05-05T08:14:42.565Z</time></trkpt><trkpt lat="37.8418685" lon="13.3899001"><ele>929.0</ele><time>2026-05-05T08:14:43.565Z</time></trkpt><trkpt lat="37.8418765" lon="13.3898029"><ele>929.0000000000001</ele><time>2026-05-05T08:14:44.566Z</time></trkpt><trkpt lat="37.8418731" lon="13.3897024"><ele>929.0</ele><time>2026-05-05T08:14:45.565Z</time></trkpt><trkpt lat="37.841864" lon="13.3895952"><ele>929.0</ele><time>2026-05-05T08:14:46.565Z</time></trkpt><trkpt lat="37.841857" lon="13.3894838"><ele>929.0</ele><time>2026-05-05T08:14:47.565Z</time></trkpt><trkpt lat="37.8418537" lon="13.3893771"><ele>929.0000000000001</ele><time>2026-05-05T08:14:48.565Z</time></trkpt><trkpt lat="37.8418407" lon="13.3892773"><ele>929.0</ele><time>2026-05-05T08:14:49.566Z</time></trkpt><trkpt lat="37.8418135" lon="13.3891791"><ele>928.4000000000001</ele><time>2026-05-05T08:14:50.566Z</time></trkpt><trkpt lat="37.8417825" lon="13.3890783"><ele>927.8000000000001</ele><time>2026-05-05T08:14:51.565Z</time></trkpt><trkpt lat="37.8417527" lon="13.3889751"><ele>927.1999999999999</ele><time>2026-05-05T08:14:52.564Z</time></trkpt><trkpt lat="37.8417224" lon="13.3888657"><ele>926.5999999999999</ele><time>2026-05-05T08:14:53.563Z</time></trkpt><trkpt lat="37.8416919" lon="13.3887496"><ele>926.0</ele><time>2026-05-05T08:14:54.564Z</time></trkpt><trkpt lat="37.8416583" lon="13.3886325"><ele>926.0000000000001</ele><time>2026-05-05T08:14:55.565Z</time></trkpt><trkpt lat="37.8416215" lon="13.3885211"><ele>926.0</ele><time>2026-05-05T08:14:56.565Z</time></trkpt><trkpt lat="37.841589" lon="13.3884202"><ele>926.0</ele><time>2026-05-05T08:14:57.564Z</time></trkpt><trkpt lat="37.8415564" lon="13.3883246"><ele>926.0</ele><time>2026-05-05T08:14:58.565Z</time></trkpt><trkpt lat="37.8415249" lon="13.388227"><ele>926.0000000000001</ele><time>2026-05-05T08:14:59.564Z</time></trkpt><trkpt lat="37.8414931" lon="13.3881279"><ele>926.0</ele><time>2026-05-05T08:15:00.564Z</time></trkpt><trkpt lat="37.8414656" lon="13.3880309"><ele>926.5000000000001</ele><time>2026-05-05T08:15:01.565Z</time></trkpt><trkpt lat="37.8414455" lon="13.387937"><ele>927.0</ele><time>2026-05-05T08:15:02.566Z</time></trkpt><trkpt lat="37.8414233" lon="13.3878384"><ele>927.5</ele><time>2026-05-05T08:15:03.565Z</time></trkpt><trkpt lat="37.8413938" lon="13.3877416"><ele>928.0</ele><time>2026-05-05T08:15:04.565Z</time></trkpt><trkpt lat="37.841362" lon="13.3876589"><ele>928.5000000000001</ele><time>2026-05-05T08:15:05.565Z</time></trkpt><trkpt lat="37.8413307" lon="13.3875871"><ele>929.0</ele><time>2026-05-05T08:15:06.563Z</time></trkpt><trkpt lat="37.8412801" lon="13.3874649"><ele>929.0000000000001</ele><time>2026-05-05T08:15:08.564Z</time></trkpt><trkpt lat="37.8412471" lon="13.3873753"><ele>929.0</ele><time>2026-05-05T08:15:10.564Z</time></trkpt><trkpt lat="37.8412256" lon="13.3872865"><ele>929.0</ele><time>2026-05-05T08:15:12.564Z</time></trkpt><trkpt lat="37.8412571" lon="13.3872091"><ele>929.0</ele><time>2026-05-05T08:15:15.564Z</time></trkpt><trkpt lat="37.8413353" lon="13.3871827"><ele>929.0000000000001</ele><time>2026-05-05T08:16:00.566Z</time></trkpt><trkpt lat="37.8414313" lon="13.3871621"><ele>929.0</ele><time>2026-05-05T08:16:02.565Z</time></trkpt><trkpt lat="37.8415504" lon="13.3871459"><ele>929.0000000000001</ele><time>2026-05-05T08:16:04.565Z</time></trkpt><trkpt lat="37.8416237" lon="13.3871369"><ele>929.0</ele><time>2026-05-05T08:16:05.564Z</time></trkpt><trkpt lat="37.8417029" lon="13.3871232"><ele>929.0</ele><time>2026-05-05T08:16:06.566Z</time></trkpt><trkpt lat="37.8417854" lon="13.3871126"><ele>929.0</ele><time>2026-05-05T08:16:07.565Z</time></trkpt><trkpt lat="37.8418719" lon="13.3871044"><ele>929.0000000000001</ele><time>2026-05-05T08:16:08.566Z</time></trkpt><trkpt lat="37.8419605" lon="13.3870905"><ele>929.0</ele><time>2026-05-05T08:16:09.565Z</time></trkpt><trkpt lat="37.8420508" lon="13.387068"><ele>929.0000000000001</ele><time>2026-05-05T08:16:10.565Z</time></trkpt><trkpt lat="37.8421383" lon="13.3870317"><ele>929.0</ele><time>2026-05-05T08:16:11.564Z</time></trkpt><trkpt lat="37.842215" lon="13.386995"><ele>929.0</ele><time>2026-05-05T08:16:12.565Z</time></trkpt><trkpt lat="37.8422933" lon="13.38696"><ele>929.0</ele><time>2026-05-05T08:16:13.565Z</time></trkpt><trkpt lat="37.84237" lon="13.3869267"><ele>929.0000000000001</ele><time>2026-05-05T08:16:14.565Z</time></trkpt><trkpt lat="37.84245" lon="13.3868917"><ele>929.0</ele><time>2026-05-05T08:16:15.564Z</time></trkpt><trkpt lat="37.842525" lon="13.3868517"><ele>929.0000000000001</ele><time>2026-05-05T08:16:16.565Z</time></trkpt><trkpt lat="37.8426083" lon="13.386815"><ele>929.0</ele><time>2026-05-05T08:16:17.566Z</time></trkpt><trkpt lat="37.8426883" lon="13.3867933"><ele>929.0</ele><time>2026-05-05T08:16:18.565Z</time></trkpt><trkpt lat="37.8427683" lon="13.3867817"><ele>929.0</ele><time>2026-05-05T08:16:19.565Z</time></trkpt><trkpt lat="37.842835" lon="13.3867817"><ele>929.0000000000001</ele><time>2026-05-05T08:16:20.565Z</time></trkpt><trkpt lat="37.8429417" lon="13.3867767"><ele>929.0</ele><time>2026-05-05T08:16:22.564Z</time></trkpt><trkpt lat="37.8430333" lon="13.3867767"><ele>929.3333333333334</ele><time>2026-05-05T08:16:24.566Z</time></trkpt><trkpt lat="37.84312" lon="13.386775"><ele>929.6666666666667</ele><time>2026-05-05T08:16:26.564Z</time></trkpt><trkpt lat="37.843195" lon="13.38675"><ele>930.0</ele><time>2026-05-05T08:16:28.564Z</time></trkpt><trkpt lat="37.843275" lon="13.386735"><ele>930.3333333333333</ele><time>2026-05-05T08:16:30.563Z</time></trkpt><trkpt lat="37.8433533" lon="13.3867117"><ele>930.6666666666666</ele><time>2026-05-05T08:16:32.565Z</time></trkpt><trkpt lat="37.8434233" lon="13.3867"><ele>931.0</ele><time>2026-05-05T08:16:34.566Z</time></trkpt><trkpt lat="37.8434867" lon="13.38669"><ele>931.9999999999999</ele><time>2026-05-05T08:19:47.566Z</time></trkpt><trkpt lat="37.8435683" lon="13.3866883"><ele>933.0</ele><time>2026-05-05T08:19:50.566Z</time></trkpt><trkpt lat="37.8436633" lon="13.3866733"><ele>934.0</ele><time>2026-05-05T08:19:53.565Z</time></trkpt><trkpt lat="37.8437383" lon="13.3866633"><ele>935.0</ele><time>2026-05-05T08:19:55.565Z</time></trkpt><trkpt lat="37.8438167" lon="13.38665"><ele>935.9999999999999</ele><time>2026-05-05T08:19:57.564Z</time></trkpt><trkpt lat="37.8438917" lon="13.3866133"><ele>937.0</ele><time>2026-05-05T08:19:59.567Z</time></trkpt><trkpt lat="37.8439633" lon="13.38656"><ele>936.9999999999999</ele><time>2026-05-05T08:20:01.567Z</time></trkpt><trkpt lat="37.8440567" lon="13.3865067"><ele>937.0</ele><time>2026-05-05T08:20:03.565Z</time></trkpt><trkpt lat="37.844115" lon="13.3864683"><ele>937.0</ele><time>2026-05-05T08:20:04.565Z</time></trkpt><trkpt lat="37.8441817" lon="13.3864267"><ele>937.0</ele><time>2026-05-05T08:20:05.565Z</time></trkpt><trkpt lat="37.8442517" lon="13.38638"><ele>936.9999999999999</ele><time>2026-05-05T08:20:06.566Z</time></trkpt><trkpt lat="37.84432" lon="13.3863333"><ele>937.0</ele><time>2026-05-05T08:20:07.565Z</time></trkpt><trkpt lat="37.8443883" lon="13.3862883"><ele>937.1666666666666</ele><time>2026-05-05T08:20:08.567Z</time></trkpt><trkpt lat="37.8444583" lon="13.3862433"><ele>937.3333333333333</ele><time>2026-05-05T08:20:09.567Z</time></trkpt><trkpt lat="37.8445333" lon="13.3861983"><ele>937.5</ele><time>2026-05-05T08:20:10.565Z</time></trkpt><trkpt lat="37.844605" lon="13.386165"><ele>937.6666666666667</ele><time>2026-05-05T08:20:11.567Z</time></trkpt><trkpt lat="37.8446817" lon="13.386145"><ele>937.8333333333334</ele><time>2026-05-05T08:20:12.565Z</time></trkpt><trkpt lat="37.8447583" lon="13.386155"><ele>938.0</ele><time>2026-05-05T08:20:13.564Z</time></trkpt><trkpt lat="37.844835" lon="13.3861767"><ele>938.0000000000001</ele><time>2026-05-05T08:20:14.566Z</time></trkpt><trkpt lat="37.8449083" lon="13.3861917"><ele>938.0</ele><time>2026-05-05T08:20:15.565Z</time></trkpt><trkpt lat="37.8449767" lon="13.3862"><ele>938.0</ele><time>2026-05-05T08:20:16.565Z</time></trkpt><trkpt lat="37.845045" lon="13.3861983"><ele>938.0</ele><time>2026-05-05T08:20:17.565Z</time></trkpt><trkpt lat="37.8451517" lon="13.3861817"><ele>938.0000000000001</ele><time>2026-05-05T08:20:19.565Z</time></trkpt><trkpt lat="37.84523" lon="13.3861717"><ele>938.0</ele><time>2026-05-05T08:20:21.565Z</time></trkpt><trkpt lat="37.8453167" lon="13.3861567"><ele>939.8</ele><time>2026-05-05T08:20:23.564Z</time></trkpt><trkpt lat="37.8454" lon="13.3861467"><ele>941.5999999999999</ele><time>2026-05-05T08:20:25.564Z</time></trkpt><trkpt lat="37.8454883" lon="13.38615"><ele>943.4000000000001</ele><time>2026-05-05T08:20:27.565Z</time></trkpt><trkpt lat="37.8455867" lon="13.3861517"><ele>945.2</ele><time>2026-05-05T08:20:29.565Z</time></trkpt><trkpt lat="37.84569" lon="13.3861083"><ele>947.0</ele><time>2026-05-05T08:20:31.569Z</time></trkpt><trkpt lat="37.845785" lon="13.3860067"><ele>947.0000000000001</ele><time>2026-05-05T08:20:33.564Z</time></trkpt><trkpt lat="37.8458333" lon="13.38594"><ele>947.0</ele><time>2026-05-05T08:20:34.565Z</time></trkpt><trkpt lat="37.845885" lon="13.3858667"><ele>947.0</ele><time>2026-05-05T08:20:35.564Z</time></trkpt><trkpt lat="37.84594" lon="13.38579"><ele>947.0</ele><time>2026-05-05T08:20:36.566Z</time></trkpt><trkpt lat="37.8459967" lon="13.385725"><ele>947.0000000000001</ele><time>2026-05-05T08:20:37.564Z</time></trkpt><trkpt lat="37.846065" lon="13.38567"><ele>947.0</ele><time>2026-05-05T08:20:38.566Z</time></trkpt><trkpt lat="37.8461367" lon="13.3856083"><ele>947.0</ele><time>2026-05-05T08:20:39.566Z</time></trkpt><trkpt lat="37.8461967" lon="13.3855517"><ele>946.9999999999999</ele><time>2026-05-05T08:20:40.564Z</time></trkpt><trkpt lat="37.8462533" lon="13.3855"><ele>947.0</ele><time>2026-05-05T08:20:41.565Z</time></trkpt><trkpt lat="37.84631" lon="13.385455"><ele>947.0</ele><time>2026-05-05T08:20:42.566Z</time></trkpt><trkpt lat="37.8463667" lon="13.3854083"><ele>946.9999999999999</ele><time>2026-05-05T08:20:43.566Z</time></trkpt><trkpt lat="37.8464317" lon="13.385365"><ele>947.0</ele><time>2026-05-05T08:20:44.566Z</time></trkpt><trkpt lat="37.8465" lon="13.3853233"><ele>947.0</ele><time>2026-05-05T08:20:45.566Z</time></trkpt><trkpt lat="37.846565" lon="13.3852967"><ele>947.0</ele><time>2026-05-05T08:20:46.566Z</time></trkpt><trkpt lat="37.8466667" lon="13.3852633"><ele>947.0</ele><time>2026-05-05T08:20:48.566Z</time></trkpt><trkpt lat="37.8467667" lon="13.38526"><ele>947.0</ele><time>2026-05-05T08:20:50.566Z</time></trkpt><trkpt lat="37.84687" lon="13.3852217"><ele>947.0</ele><time>2026-05-05T08:20:52.565Z</time></trkpt><trkpt lat="37.846965" lon="13.38514"><ele>947.0</ele><time>2026-05-05T08:20:54.565Z</time></trkpt><trkpt lat="37.8470533" lon="13.385015"><ele>948.4285714285713</ele><time>2026-05-05T08:20:56.566Z</time></trkpt><trkpt lat="37.8470963" lon="13.3849433"><ele>949.8571428571428</ele><time>2026-05-05T08:20:57.565Z</time></trkpt><trkpt lat="37.8471366" lon="13.3848698"><ele>951.2857142857142</ele><time>2026-05-05T08:20:58.564Z</time></trkpt><trkpt lat="37.8471668" lon="13.3847912"><ele>952.7142857142858</ele><time>2026-05-05T08:20:59.565Z</time></trkpt><trkpt lat="37.8471912" lon="13.3847079"><ele>954.1428571428572</ele><time>2026-05-05T08:21:00.564Z</time></trkpt><trkpt lat="37.8472099" lon="13.3846198"><ele>955.5714285714287</ele><time>2026-05-05T08:21:01.564Z</time></trkpt><trkpt lat="37.8472232" lon="13.3845302"><ele>957.0</ele><time>2026-05-05T08:21:02.565Z</time></trkpt><trkpt lat="37.8472369" lon="13.3844445"><ele>957.0</ele><time>2026-05-05T08:21:03.566Z</time></trkpt><trkpt lat="37.8472517" lon="13.3843658"><ele>957.0000000000001</ele><time>2026-05-05T08:21:04.563Z</time></trkpt><trkpt lat="37.8472691" lon="13.3842851"><ele>957.0</ele><time>2026-05-05T08:21:05.565Z</time></trkpt><trkpt lat="37.8472987" lon="13.3842007"><ele>957.0</ele><time>2026-05-05T08:21:06.565Z</time></trkpt><trkpt lat="37.8473273" lon="13.384114"><ele>957.0000000000001</ele><time>2026-05-05T08:21:07.565Z</time></trkpt><trkpt lat="37.8473462" lon="13.3840289"><ele>957.0</ele><time>2026-05-05T08:21:08.566Z</time></trkpt><trkpt lat="37.8473506" lon="13.3839309"><ele>957.0</ele><time>2026-05-05T08:21:09.567Z</time></trkpt><trkpt lat="37.8473456" lon="13.3838195"><ele>955.4000000000001</ele><time>2026-05-05T08:21:10.565Z</time></trkpt><trkpt lat="37.8473232" lon="13.3836937"><ele>953.8000000000001</ele><time>2026-05-05T08:21:11.566Z</time></trkpt><trkpt lat="37.8472981" lon="13.3835649"><ele>952.2</ele><time>2026-05-05T08:21:12.566Z</time></trkpt><trkpt lat="37.8472738" lon="13.3834462"><ele>950.6</ele><time>2026-05-05T08:21:13.566Z</time></trkpt><trkpt lat="37.8472542" lon="13.3833439"><ele>949.0</ele><time>2026-05-05T08:21:14.565Z</time></trkpt><trkpt lat="37.8472423" lon="13.3832545"><ele>948.9999999999999</ele><time>2026-05-05T08:21:15.565Z</time></trkpt><trkpt lat="37.8472335" lon="13.383165"><ele>949.0</ele><time>2026-05-05T08:21:16.566Z</time></trkpt><trkpt lat="37.8472283" lon="13.3830671"><ele>949.0</ele><time>2026-05-05T08:21:17.566Z</time></trkpt><trkpt lat="37.8472265" lon="13.3829495"><ele>949.0</ele><time>2026-05-05T08:21:18.565Z</time></trkpt><trkpt lat="37.8472242" lon="13.3828244"><ele>948.9999999999999</ele><time>2026-05-05T08:21:19.566Z</time></trkpt><trkpt lat="37.8472167" lon="13.3826909"><ele>949.0</ele><time>2026-05-05T08:21:20.565Z</time></trkpt><trkpt lat="37.8471952" lon="13.382551"><ele>948.0</ele><time>2026-05-05T08:21:21.565Z</time></trkpt><trkpt lat="37.8471683" lon="13.3824114"><ele>947.0000000000001</ele><time>2026-05-05T08:21:22.564Z</time></trkpt><trkpt lat="37.8471436" lon="13.3822807"><ele>946.0000000000001</ele><time>2026-05-05T08:21:23.565Z</time></trkpt><trkpt lat="37.8471296" lon="13.3821508"><ele>945.0</ele><time>2026-05-05T08:21:24.563Z</time></trkpt><trkpt lat="37.8471239" lon="13.3820215"><ele>944.0</ele><time>2026-05-05T08:21:25.565Z</time></trkpt><trkpt lat="37.847125" lon="13.3818984"><ele>942.6</ele><time>2026-05-05T08:21:26.565Z</time></trkpt><trkpt lat="37.8471237" lon="13.3817818"><ele>941.2</ele><time>2026-05-05T08:21:27.565Z</time></trkpt><trkpt lat="37.8471161" lon="13.3816657"><ele>939.8000000000001</ele><time>2026-05-05T08:21:28.565Z</time></trkpt><trkpt lat="37.8471008" lon="13.3815523"><ele>938.4000000000001</ele><time>2026-05-05T08:21:29.564Z</time></trkpt><trkpt lat="37.8470839" lon="13.3814378"><ele>937.0</ele><time>2026-05-05T08:21:30.565Z</time></trkpt><trkpt lat="37.8470711" lon="13.3813254"><ele>936.1666666666666</ele><time>2026-05-05T08:21:31.565Z</time></trkpt><trkpt lat="37.8470689" lon="13.3812226"><ele>935.3333333333333</ele><time>2026-05-05T08:21:32.565Z</time></trkpt><trkpt lat="37.8470737" lon="13.3811231"><ele>934.5</ele><time>2026-05-05T08:21:33.565Z</time></trkpt><trkpt lat="37.8470785" lon="13.3810203"><ele>933.6666666666667</ele><time>2026-05-05T08:21:34.565Z</time></trkpt><trkpt lat="37.8470702" lon="13.3809159"><ele>932.8333333333334</ele><time>2026-05-05T08:21:35.565Z</time></trkpt><trkpt lat="37.8470479" lon="13.3808137"><ele>932.0</ele><time>2026-05-05T08:21:36.565Z</time></trkpt><trkpt lat="37.8470172" lon="13.3807114"><ele>932.0000000000001</ele><time>2026-05-05T08:21:37.565Z</time></trkpt><trkpt lat="37.8469853" lon="13.3806127"><ele>932.0</ele><time>2026-05-05T08:21:38.566Z</time></trkpt><trkpt lat="37.8469584" lon="13.380515"><ele>932.0</ele><time>2026-05-05T08:21:39.565Z</time></trkpt><trkpt lat="37.8469394" lon="13.3804159"><ele>932.0</ele><time>2026-05-05T08:21:40.565Z</time></trkpt><trkpt lat="37.8469234" lon="13.3803215"><ele>932.0000000000001</ele><time>2026-05-05T08:21:41.566Z</time></trkpt><trkpt lat="37.8469183" lon="13.3802337"><ele>932.0</ele><time>2026-05-05T08:21:42.565Z</time></trkpt><trkpt lat="37.8469234" lon="13.3801461"><ele>930.0000000000001</ele><time>2026-05-05T08:21:43.567Z</time></trkpt><trkpt lat="37.8469383" lon="13.3800582"><ele>928.0</ele><time>2026-05-05T08:21:44.566Z</time></trkpt><trkpt lat="37.8469667" lon="13.3799712"><ele>926.0</ele><time>2026-05-05T08:21:45.567Z</time></trkpt><trkpt lat="37.8469984" lon="13.3798821"><ele>924.0</ele><time>2026-05-05T08:21:46.565Z</time></trkpt><trkpt lat="37.8470337" lon="13.3797894"><ele>922.0000000000001</ele><time>2026-05-05T08:21:47.565Z</time></trkpt><trkpt lat="37.8470675" lon="13.3796999"><ele>920.0</ele><time>2026-05-05T08:21:48.564Z</time></trkpt><trkpt lat="37.8470891" lon="13.379602"><ele>917.8333333333334</ele><time>2026-05-05T08:21:49.565Z</time></trkpt><trkpt lat="37.8471045" lon="13.3794964"><ele>915.6666666666667</ele><time>2026-05-05T08:21:50.568Z</time></trkpt><trkpt lat="37.8471143" lon="13.3793942"><ele>913.5</ele><time>2026-05-05T08:21:51.565Z</time></trkpt><trkpt lat="37.8471232" lon="13.3792895"><ele>911.3333333333333</ele><time>2026-05-05T08:21:52.564Z</time></trkpt><trkpt lat="37.8471332" lon="13.3791896"><ele>909.1666666666666</ele><time>2026-05-05T08:21:53.566Z</time></trkpt><trkpt lat="37.8471431" lon="13.37909"><ele>907.0</ele><time>2026-05-05T08:21:54.567Z</time></trkpt><trkpt lat="37.8471578" lon="13.3789876"><ele>906.9999999999999</ele><time>2026-05-05T08:21:55.565Z</time></trkpt><trkpt lat="37.8471785" lon="13.3788828"><ele>907.0</ele><time>2026-05-05T08:21:56.566Z</time></trkpt><trkpt lat="37.8471989" lon="13.3787791"><ele>907.0</ele><time>2026-05-05T08:21:57.564Z</time></trkpt><trkpt lat="37.8472176" lon="13.378688"><ele>907.0</ele><time>2026-05-05T08:21:58.564Z</time></trkpt><trkpt lat="37.8472499" lon="13.3785531"><ele>906.9999999999999</ele><time>2026-05-05T08:22:00.565Z</time></trkpt><trkpt lat="37.8472824" lon="13.37847"><ele>907.0</ele><time>2026-05-05T08:22:03.566Z</time></trkpt><trkpt lat="37.8473022" lon="13.3783805"><ele>905.2</ele><time>2026-05-05T08:22:06.566Z</time></trkpt><trkpt lat="37.8473151" lon="13.3782857"><ele>903.4000000000001</ele><time>2026-05-05T08:22:08.564Z</time></trkpt><trkpt lat="37.8473383" lon="13.3781779"><ele>901.5999999999999</ele><time>2026-05-05T08:22:10.565Z</time></trkpt><trkpt lat="37.8473572" lon="13.3780479"><ele>899.8</ele><time>2026-05-05T08:22:12.565Z</time></trkpt><trkpt lat="37.8473773" lon="13.377917"><ele>898.0</ele><time>2026-05-05T08:22:14.566Z</time></trkpt><trkpt lat="37.8473958" lon="13.3777768"><ele>896.1666666666666</ele><time>2026-05-05T08:22:16.564Z</time></trkpt><trkpt lat="37.8474258" lon="13.377627"><ele>894.3333333333333</ele><time>2026-05-05T08:22:18.566Z</time></trkpt><trkpt lat="37.8474493" lon="13.3775448"><ele>892.5</ele><time>2026-05-05T08:22:19.565Z</time></trkpt><trkpt lat="37.8474759" lon="13.3774598"><ele>890.6666666666667</ele><time>2026-05-05T08:22:20.567Z</time></trkpt><trkpt lat="37.8475031" lon="13.3773769"><ele>888.8333333333334</ele><time>2026-05-05T08:22:21.564Z</time></trkpt><trkpt lat="37.8475261" lon="13.3772881"><ele>887.0</ele><time>2026-05-05T08:22:22.565Z</time></trkpt><trkpt lat="37.8475439" lon="13.3771992"><ele>885.3333333333334</ele><time>2026-05-05T08:22:23.567Z</time></trkpt><trkpt lat="37.8475514" lon="13.377106"><ele>883.6666666666667</ele><time>2026-05-05T08:22:24.565Z</time></trkpt><trkpt lat="37.8475433" lon="13.377005"><ele>882.0</ele><time>2026-05-05T08:22:25.567Z</time></trkpt><trkpt lat="37.8475383" lon="13.3768983"><ele>880.3333333333333</ele><time>2026-05-05T08:22:26.566Z</time></trkpt><trkpt lat="37.8475267" lon="13.3767933"><ele>878.6666666666666</ele><time>2026-05-05T08:22:27.566Z</time></trkpt><trkpt lat="37.8475083" lon="13.3766833"><ele>877.0</ele><time>2026-05-05T08:22:28.566Z</time></trkpt><trkpt lat="37.84748" lon="13.3765733"><ele>876.9999999999999</ele><time>2026-05-05T08:22:29.564Z</time></trkpt><trkpt lat="37.8474533" lon="13.3764867"><ele>877.0</ele><time>2026-05-05T08:22:30.566Z</time></trkpt><trkpt lat="37.847425" lon="13.3764"><ele>877.0</ele><time>2026-05-05T08:22:31.565Z</time></trkpt><trkpt lat="37.8474067" lon="13.3763167"><ele>877.0</ele><time>2026-05-05T08:22:32.566Z</time></trkpt><trkpt lat="37.84741" lon="13.3761717"><ele>876.9999999999999</ele><time>2026-05-05T08:22:34.567Z</time></trkpt><trkpt lat="37.8474367" lon="13.376095"><ele>877.0</ele><time>2026-05-05T08:22:35.566Z</time></trkpt><trkpt lat="37.8474717" lon="13.376015"><ele>875.2857142857143</ele><time>2026-05-05T08:22:36.564Z</time></trkpt><trkpt lat="37.8475033" lon="13.3759333"><ele>873.5714285714286</ele><time>2026-05-05T08:22:37.564Z</time></trkpt><trkpt lat="37.847535" lon="13.3758567"><ele>871.8571428571429</ele><time>2026-05-05T08:22:38.566Z</time></trkpt><trkpt lat="37.8475683" lon="13.37578"><ele>870.1428571428571</ele><time>2026-05-05T08:22:39.565Z</time></trkpt><trkpt lat="37.847595" lon="13.3757033"><ele>868.4285714285714</ele><time>2026-05-05T08:22:40.566Z</time></trkpt><trkpt lat="37.847615" lon="13.37562"><ele>866.7142857142858</ele><time>2026-05-05T08:22:41.566Z</time></trkpt><trkpt lat="37.8476217" lon="13.37554"><ele>865.0</ele><time>2026-05-05T08:22:42.567Z</time></trkpt><trkpt lat="37.847605" lon="13.3754033"><ele>862.2</ele><time>2026-05-05T08:22:44.566Z</time></trkpt><trkpt lat="37.84756" lon="13.37528"><ele>859.4</ele><time>2026-05-05T08:22:46.563Z</time></trkpt><trkpt lat="37.84749" lon="13.37515"><ele>856.5999999999999</ele><time>2026-05-05T08:22:48.566Z</time></trkpt><trkpt lat="37.84745" lon="13.3750717"><ele>853.8</ele><time>2026-05-05T08:22:49.563Z</time></trkpt><trkpt lat="37.84742" lon="13.3749933"><ele>851.0</ele><time>2026-05-05T08:22:50.567Z</time></trkpt><trkpt lat="37.84735" lon="13.3748533"><ele>851.0000000000001</ele><time>2026-05-05T08:22:52.566Z</time></trkpt><trkpt lat="37.8473083" lon="13.3747767"><ele>851.0</ele><time>2026-05-05T08:22:53.565Z</time></trkpt><trkpt lat="37.8472683" lon="13.3746917"><ele>851.0</ele><time>2026-05-05T08:22:54.565Z</time></trkpt><trkpt lat="37.8472217" lon="13.3746033"><ele>851.0</ele><time>2026-05-05T08:22:55.566Z</time></trkpt><trkpt lat="37.84718" lon="13.3745133"><ele>851.0000000000001</ele><time>2026-05-05T08:22:56.566Z</time></trkpt><trkpt lat="37.8471433" lon="13.3744233"><ele>851.0</ele><time>2026-05-05T08:22:57.565Z</time></trkpt><trkpt lat="37.847105" lon="13.3743317"><ele>849.6666666666667</ele><time>2026-05-05T08:22:58.565Z</time></trkpt><trkpt lat="37.8470567" lon="13.3742417"><ele>848.3333333333334</ele><time>2026-05-05T08:22:59.566Z</time></trkpt><trkpt lat="37.8470033" lon="13.3741517"><ele>847.0</ele><time>2026-05-05T08:23:00.565Z</time></trkpt><trkpt lat="37.8469533" lon="13.3740617"><ele>845.6666666666667</ele><time>2026-05-05T08:23:01.566Z</time></trkpt><trkpt lat="37.8468967" lon="13.37397"><ele>844.3333333333334</ele><time>2026-05-05T08:23:02.565Z</time></trkpt><trkpt lat="37.846845" lon="13.3738733"><ele>843.0</ele><time>2026-05-05T08:23:03.566Z</time></trkpt><trkpt lat="37.8467983" lon="13.37377"><ele>839.0</ele><time>2026-05-05T08:23:04.567Z</time></trkpt><trkpt lat="37.8467533" lon="13.3736533"><ele>835.0</ele><time>2026-05-05T08:23:05.564Z</time></trkpt><trkpt lat="37.8467133" lon="13.3735233"><ele>831.0</ele><time>2026-05-05T08:23:06.566Z</time></trkpt><trkpt lat="37.8466794" lon="13.3733911"><ele>827.0</ele><time>2026-05-05T08:23:07.565Z</time></trkpt><trkpt lat="37.8466431" lon="13.3732608"><ele>823.0</ele><time>2026-05-05T08:23:08.566Z</time></trkpt><trkpt lat="37.8466074" lon="13.3731345"><ele>822.0</ele><time>2026-05-05T08:23:09.565Z</time></trkpt><trkpt lat="37.8465753" lon="13.3730076"><ele>821.0</ele><time>2026-05-05T08:23:10.565Z</time></trkpt><trkpt lat="37.8465472" lon="13.3728866"><ele>820.0</ele><time>2026-05-05T08:23:11.564Z</time></trkpt><trkpt lat="37.8465214" lon="13.3727766"><ele>819.0</ele><time>2026-05-05T08:23:12.565Z</time></trkpt><trkpt lat="37.8464987" lon="13.3726916"><ele>818.0</ele><time>2026-05-05T08:23:13.565Z</time></trkpt><trkpt lat="37.8464858" lon="13.3725369"><ele>818.0</ele><time>2026-05-05T08:23:15.565Z</time></trkpt><trkpt lat="37.8465044" lon="13.3724578"><ele>818.0</ele><time>2026-05-05T08:23:16.565Z</time></trkpt><trkpt lat="37.8465323" lon="13.3723796"><ele>818.0</ele><time>2026-05-05T08:23:17.564Z</time></trkpt><trkpt lat="37.8465617" lon="13.3722956"><ele>818.0</ele><time>2026-05-05T08:23:18.566Z</time></trkpt><trkpt lat="37.8465728" lon="13.3722009"><ele>818.0</ele><time>2026-05-05T08:23:19.565Z</time></trkpt><trkpt lat="37.8465632" lon="13.3721006"><ele>818.0</ele><time>2026-05-05T08:23:20.566Z</time></trkpt><trkpt lat="37.8465332" lon="13.3720092"><ele>818.0</ele><time>2026-05-05T08:23:21.565Z</time></trkpt><trkpt lat="37.8464928" lon="13.3719198"><ele>817.6666666666667</ele><time>2026-05-05T08:23:22.566Z</time></trkpt><trkpt lat="37.8464621" lon="13.3718309"><ele>817.3333333333334</ele><time>2026-05-05T08:23:23.565Z</time></trkpt><trkpt lat="37.8464447" lon="13.3717342"><ele>817.0</ele><time>2026-05-05T08:23:24.566Z</time></trkpt><trkpt lat="37.8464381" lon="13.3716347"><ele>816.6666666666667</ele><time>2026-05-05T08:23:25.565Z</time></trkpt><trkpt lat="37.8464343" lon="13.3715387"><ele>816.3333333333334</ele><time>2026-05-05T08:23:26.566Z</time></trkpt><trkpt lat="37.8464277" lon="13.3714451"><ele>816.0</ele><time>2026-05-05T08:23:27.566Z</time></trkpt><trkpt lat="37.846415" lon="13.371345"><ele>816.0</ele><time>2026-05-05T08:23:28.566Z</time></trkpt><trkpt lat="37.8463906" lon="13.3712489"><ele>816.0</ele><time>2026-05-05T08:23:29.566Z</time></trkpt><trkpt lat="37.8463552" lon="13.3711689"><ele>816.0</ele><time>2026-05-05T08:23:30.566Z</time></trkpt><trkpt lat="37.846313" lon="13.3711052"><ele>816.0</ele><time>2026-05-05T08:23:31.566Z</time></trkpt><trkpt lat="37.8462288" lon="13.3709961"><ele>816.0</ele><time>2026-05-05T08:23:33.565Z</time></trkpt><trkpt lat="37.8461831" lon="13.3709392"><ele>816.0</ele><time>2026-05-05T08:23:34.566Z</time></trkpt><trkpt lat="37.8461474" lon="13.3708701"><ele>816.0</ele><time>2026-05-05T08:23:35.566Z</time></trkpt><trkpt lat="37.8461284" lon="13.3707915"><ele>816.0</ele><time>2026-05-05T08:23:36.563Z</time></trkpt><trkpt lat="37.8461373" lon="13.3707013"><ele>816.0</ele><time>2026-05-05T08:23:37.563Z</time></trkpt><trkpt lat="37.8461531" lon="13.3706061"><ele>816.0</ele><time>2026-05-05T08:23:38.565Z</time></trkpt><trkpt lat="37.8461919" lon="13.3704866"><ele>816.0</ele><time>2026-05-05T08:23:39.563Z</time></trkpt><trkpt lat="37.8462366" lon="13.3703563"><ele>816.0</ele><time>2026-05-05T08:23:40.563Z</time></trkpt><trkpt lat="37.84627" lon="13.3702241"><ele>814.4</ele><time>2026-05-05T08:23:41.565Z</time></trkpt><trkpt lat="37.8462802" lon="13.3700911"><ele>812.8</ele><time>2026-05-05T08:23:42.564Z</time></trkpt><trkpt lat="37.8462759" lon="13.3699556"><ele>811.1999999999999</ele><time>2026-05-05T08:23:43.565Z</time></trkpt><trkpt lat="37.8462677" lon="13.3698232"><ele>809.5999999999999</ele><time>2026-05-05T08:23:44.565Z</time></trkpt><trkpt lat="37.8462801" lon="13.3696933"><ele>808.0</ele><time>2026-05-05T08:23:45.563Z</time></trkpt><trkpt lat="37.8462992" lon="13.3695689"><ele>805.0</ele><time>2026-05-05T08:23:46.564Z</time></trkpt><trkpt lat="37.8463216" lon="13.369448"><ele>802.0</ele><time>2026-05-05T08:23:47.565Z</time></trkpt><trkpt lat="37.8463274" lon="13.369325"><ele>799.0</ele><time>2026-05-05T08:23:48.563Z</time></trkpt><trkpt lat="37.8463092" lon="13.3692103"><ele>796.0</ele><time>2026-05-05T08:23:49.566Z</time></trkpt><trkpt lat="37.846283" lon="13.3691004"><ele>793.0</ele><time>2026-05-05T08:23:50.565Z</time></trkpt><trkpt lat="37.8462712" lon="13.3689904"><ele>792.9999999999999</ele><time>2026-05-05T08:23:51.563Z</time></trkpt><trkpt lat="37.846269" lon="13.3688834"><ele>793.0</ele><time>2026-05-05T08:23:52.564Z</time></trkpt><trkpt lat="37.8462807" lon="13.3687886"><ele>793.0</ele><time>2026-05-05T08:23:53.567Z</time></trkpt><trkpt lat="37.8462819" lon="13.3687087"><ele>793.0</ele><time>2026-05-05T08:23:54.565Z</time></trkpt><trkpt lat="37.8462567" lon="13.3686333"><ele>792.9999999999999</ele><time>2026-05-05T08:23:55.563Z</time></trkpt><trkpt lat="37.8462017" lon="13.3684883"><ele>793.0</ele><time>2026-05-05T08:23:57.563Z</time></trkpt><trkpt lat="37.8461767" lon="13.3684117"><ele>790.8333333333333</ele><time>2026-05-05T08:23:58.564Z</time></trkpt><trkpt lat="37.8461583" lon="13.3683217"><ele>788.6666666666666</ele><time>2026-05-05T08:23:59.566Z</time></trkpt><trkpt lat="37.8461417" lon="13.3682267"><ele>786.5</ele><time>2026-05-05T08:24:00.566Z</time></trkpt><trkpt lat="37.8461267" lon="13.36813"><ele>784.3333333333333</ele><time>2026-05-05T08:24:01.565Z</time></trkpt><trkpt lat="37.8461233" lon="13.36803"><ele>782.1666666666666</ele><time>2026-05-05T08:24:02.565Z</time></trkpt><trkpt lat="37.8461233" lon="13.3679183"><ele>780.0</ele><time>2026-05-05T08:24:03.563Z</time></trkpt><trkpt lat="37.84612" lon="13.3678083"><ele>778.8</ele><time>2026-05-05T08:24:04.564Z</time></trkpt><trkpt lat="37.8461067" lon="13.36769"><ele>777.6</ele><time>2026-05-05T08:24:05.564Z</time></trkpt><trkpt lat="37.846085" lon="13.367575"><ele>776.4000000000001</ele><time>2026-05-05T08:24:06.564Z</time></trkpt><trkpt lat="37.846055" lon="13.3674633"><ele>775.2</ele><time>2026-05-05T08:24:07.565Z</time></trkpt><trkpt lat="37.8460283" lon="13.3673467"><ele>774.0</ele><time>2026-05-05T08:24:08.564Z</time></trkpt><trkpt lat="37.8459933" lon="13.36724"><ele>769.8333333333334</ele><time>2026-05-05T08:24:09.564Z</time></trkpt><trkpt lat="37.845955" lon="13.36715"><ele>765.6666666666666</ele><time>2026-05-05T08:24:10.566Z</time></trkpt><trkpt lat="37.84593" lon="13.3670633"><ele>761.5</ele><time>2026-05-05T08:24:11.564Z</time></trkpt><trkpt lat="37.84588" lon="13.3669367"><ele>757.3333333333333</ele><time>2026-05-05T08:24:13.565Z</time></trkpt><trkpt lat="37.84582" lon="13.3668533"><ele>753.1666666666666</ele><time>2026-05-05T08:24:15.565Z</time></trkpt><trkpt lat="37.8457467" lon="13.3668117"><ele>749.0</ele><time>2026-05-05T08:24:17.565Z</time></trkpt><trkpt lat="37.84567" lon="13.3668067"><ele>749.0</ele><time>2026-05-05T08:24:19.565Z</time></trkpt><trkpt lat="37.8456033" lon="13.3667583"><ele>749.0</ele><time>2026-05-05T08:24:21.564Z</time></trkpt><trkpt lat="37.8455867" lon="13.366645"><ele>749.0</ele><time>2026-05-05T08:24:23.565Z</time></trkpt><trkpt lat="37.8455983" lon="13.3665233"><ele>749.0</ele><time>2026-05-05T08:24:25.563Z</time></trkpt><trkpt lat="37.84563" lon="13.3663717"><ele>749.0</ele><time>2026-05-05T08:24:27.564Z</time></trkpt><trkpt lat="37.8456817" lon="13.3662283"><ele>751.3333333333333</ele><time>2026-05-05T08:24:29.565Z</time></trkpt><trkpt lat="37.8457217" lon="13.3661583"><ele>753.6666666666666</ele><time>2026-05-05T08:24:30.564Z</time></trkpt><trkpt lat="37.8457667" lon="13.366095"><ele>756.0</ele><time>2026-05-05T08:24:31.563Z</time></trkpt><trkpt lat="37.84581" lon="13.3660367"><ele>758.3333333333334</ele><time>2026-05-05T08:24:32.565Z</time></trkpt><trkpt lat="37.845855" lon="13.36598"><ele>760.6666666666667</ele><time>2026-05-05T08:24:33.564Z</time></trkpt><trkpt lat="37.845925" lon="13.36586"><ele>763.0</ele><time>2026-05-05T08:24:35.563Z</time></trkpt><trkpt lat="37.8459793" lon="13.3657166"><ele>763.0</ele><time>2026-05-05T08:24:37.564Z</time></trkpt><trkpt lat="37.8460058" lon="13.3656345"><ele>763.0</ele><time>2026-05-05T08:24:38.565Z</time></trkpt><trkpt lat="37.8460293" lon="13.3655489"><ele>763.0</ele><time>2026-05-05T08:24:39.564Z</time></trkpt><trkpt lat="37.8460514" lon="13.3654623"><ele>763.0</ele><time>2026-05-05T08:24:40.564Z</time></trkpt><trkpt lat="37.8460758" lon="13.365377"><ele>763.0</ele><time>2026-05-05T08:24:41.565Z</time></trkpt><trkpt lat="37.8461023" lon="13.3652942"><ele>763.0</ele><time>2026-05-05T08:24:42.564Z</time></trkpt><trkpt lat="37.8461352" lon="13.365215"><ele>763.0</ele><time>2026-05-05T08:24:43.563Z</time></trkpt><trkpt lat="37.846163" lon="13.3651318"><ele>761.5714285714286</ele><time>2026-05-05T08:24:44.565Z</time></trkpt><trkpt lat="37.8461739" lon="13.3650428"><ele>760.1428571428571</ele><time>2026-05-05T08:24:45.564Z</time></trkpt><trkpt lat="37.8461626" lon="13.3649591"><ele>758.7142857142858</ele><time>2026-05-05T08:24:46.563Z</time></trkpt><trkpt lat="37.8461371" lon="13.3648837"><ele>757.2857142857142</ele><time>2026-05-05T08:24:47.565Z</time></trkpt><trkpt lat="37.8461102" lon="13.364803"><ele>755.8571428571429</ele><time>2026-05-05T08:24:48.564Z</time></trkpt><trkpt lat="37.8460865" lon="13.3647074"><ele>754.4285714285714</ele><time>2026-05-05T08:24:49.566Z</time></trkpt><trkpt lat="37.8460648" lon="13.3645995"><ele>753.0</ele><time>2026-05-05T08:24:50.565Z</time></trkpt><trkpt lat="37.8460496" lon="13.3644863"><ele>751.1666666666666</ele><time>2026-05-05T08:24:51.566Z</time></trkpt><trkpt lat="37.8460351" lon="13.3643773"><ele>749.3333333333334</ele><time>2026-05-05T08:24:52.565Z</time></trkpt><trkpt lat="37.8460134" lon="13.3642789"><ele>747.5</ele><time>2026-05-05T08:24:53.565Z</time></trkpt><trkpt lat="37.8459792" lon="13.3641866"><ele>745.6666666666667</ele><time>2026-05-05T08:24:54.564Z</time></trkpt><trkpt lat="37.8459302" lon="13.3640958"><ele>743.8333333333334</ele><time>2026-05-05T08:24:55.565Z</time></trkpt><trkpt lat="37.8458669" lon="13.364006"><ele>742.0</ele><time>2026-05-05T08:24:56.563Z</time></trkpt><trkpt lat="37.8457928" lon="13.3639218"><ele>736.0</ele><time>2026-05-05T08:24:57.565Z</time></trkpt><trkpt lat="37.8457072" lon="13.3638488"><ele>730.0</ele><time>2026-05-05T08:24:58.563Z</time></trkpt><trkpt lat="37.8456229" lon="13.363787"><ele>724.0</ele><time>2026-05-05T08:24:59.564Z</time></trkpt><trkpt lat="37.8455488" lon="13.3637183"><ele>718.0</ele><time>2026-05-05T08:25:00.564Z</time></trkpt><trkpt lat="37.8455017" lon="13.3636383"><ele>712.0</ele><time>2026-05-05T08:25:01.563Z</time></trkpt><trkpt lat="37.8454866" lon="13.3635394"><ele>712.0</ele><time>2026-05-05T08:25:02.565Z</time></trkpt><trkpt lat="37.8454872" lon="13.3634441"><ele>712.0</ele><time>2026-05-05T08:25:03.563Z</time></trkpt><trkpt lat="37.845525" lon="13.3633386"><ele>712.0</ele><time>2026-05-05T08:25:04.564Z</time></trkpt><trkpt lat="37.8455744" lon="13.3632322"><ele>712.0</ele><time>2026-05-05T08:25:05.564Z</time></trkpt><trkpt lat="37.8456313" lon="13.3631314"><ele>712.0</ele><time>2026-05-05T08:25:06.563Z</time></trkpt><trkpt lat="37.8456959" lon="13.3630433"><ele>709.8</ele><time>2026-05-05T08:25:07.564Z</time></trkpt><trkpt lat="37.8457703" lon="13.3629746"><ele>707.6</ele><time>2026-05-05T08:25:08.568Z</time></trkpt><trkpt lat="37.8458503" lon="13.3629099"><ele>705.4</ele><time>2026-05-05T08:25:09.563Z</time></trkpt><trkpt lat="37.8459307" lon="13.3628385"><ele>703.1999999999999</ele><time>2026-05-05T08:25:10.564Z</time></trkpt><trkpt lat="37.8459971" lon="13.362747"><ele>701.0</ele><time>2026-05-05T08:25:11.565Z</time></trkpt><trkpt lat="37.8460437" lon="13.3626534"><ele>706.5999999999999</ele><time>2026-05-05T08:25:12.564Z</time></trkpt><trkpt lat="37.8460638" lon="13.3625473"><ele>712.2</ele><time>2026-05-05T08:25:13.564Z</time></trkpt><trkpt lat="37.8460745" lon="13.3624281"><ele>717.8</ele><time>2026-05-05T08:25:14.564Z</time></trkpt><trkpt lat="37.8460893" lon="13.3623031"><ele>723.4000000000001</ele><time>2026-05-05T08:25:15.565Z</time></trkpt><trkpt lat="37.8461086" lon="13.3621798"><ele>729.0</ele><time>2026-05-05T08:25:16.565Z</time></trkpt><trkpt lat="37.8461302" lon="13.362062"><ele>729.0</ele><time>2026-05-05T08:25:17.564Z</time></trkpt><trkpt lat="37.8461441" lon="13.3619437"><ele>729.0</ele><time>2026-05-05T08:25:18.565Z</time></trkpt><trkpt lat="37.8461469" lon="13.3618324"><ele>729.0</ele><time>2026-05-05T08:25:19.565Z</time></trkpt><trkpt lat="37.8461497" lon="13.3617173"><ele>729.0</ele><time>2026-05-05T08:25:20.564Z</time></trkpt><trkpt lat="37.8461594" lon="13.3615958"><ele>729.0</ele><time>2026-05-05T08:25:21.563Z</time></trkpt><trkpt lat="37.8461711" lon="13.3614784"><ele>729.0</ele><time>2026-05-05T08:25:22.563Z</time></trkpt><trkpt lat="37.8461695" lon="13.361369"><ele>729.0</ele><time>2026-05-05T08:25:23.562Z</time></trkpt><trkpt lat="37.8461477" lon="13.3612627"><ele>729.0</ele><time>2026-05-05T08:25:24.563Z</time></trkpt><trkpt lat="37.8461019" lon="13.361165"><ele>729.0</ele><time>2026-05-05T08:25:25.564Z</time></trkpt><trkpt lat="37.8460495" lon="13.3610831"><ele>729.0</ele><time>2026-05-05T08:25:26.564Z</time></trkpt><trkpt lat="37.846012" lon="13.3610092"><ele>729.0</ele><time>2026-05-05T08:25:27.564Z</time></trkpt><trkpt lat="37.8460012" lon="13.3608664"><ele>726.6</ele><time>2026-05-05T08:25:29.567Z</time></trkpt><trkpt lat="37.8460505" lon="13.3607151"><ele>724.2</ele><time>2026-05-05T08:25:31.563Z</time></trkpt><trkpt lat="37.8460856" lon="13.3606333"><ele>721.8000000000001</ele><time>2026-05-05T08:25:32.565Z</time></trkpt><trkpt lat="37.8461221" lon="13.3605642"><ele>719.4000000000001</ele><time>2026-05-05T08:25:33.565Z</time></trkpt><trkpt lat="37.8462102" lon="13.3604833"><ele>717.0</ele><time>2026-05-05T08:25:35.565Z</time></trkpt><trkpt lat="37.8463144" lon="13.3604649"><ele>713.5</ele><time>2026-05-05T08:25:37.564Z</time></trkpt><trkpt lat="37.846414" lon="13.3604805"><ele>710.0</ele><time>2026-05-05T08:25:39.564Z</time></trkpt><trkpt lat="37.8465312" lon="13.3605158"><ele>706.5</ele><time>2026-05-05T08:25:41.565Z</time></trkpt><trkpt lat="37.8465974" lon="13.3605094"><ele>703.0</ele><time>2026-05-05T08:25:42.565Z</time></trkpt><trkpt lat="37.846665" lon="13.3604816"><ele>699.5</ele><time>2026-05-05T08:25:43.564Z</time></trkpt><trkpt lat="37.846729" lon="13.3604382"><ele>696.0</ele><time>2026-05-05T08:25:44.567Z</time></trkpt><trkpt lat="37.8467876" lon="13.3603849"><ele>702.4285714285714</ele><time>2026-05-05T08:25:45.565Z</time></trkpt><trkpt lat="37.8468432" lon="13.3603333"><ele>708.8571428571429</ele><time>2026-05-05T08:25:46.564Z</time></trkpt><trkpt lat="37.8468981" lon="13.3602801"><ele>715.2857142857142</ele><time>2026-05-05T08:25:47.565Z</time></trkpt><trkpt lat="37.8469518" lon="13.3602233"><ele>721.7142857142858</ele><time>2026-05-05T08:25:48.566Z</time></trkpt><trkpt lat="37.8469968" lon="13.3601569"><ele>728.1428571428572</ele><time>2026-05-05T08:25:49.564Z</time></trkpt><trkpt lat="37.8470252" lon="13.3600828"><ele>734.5714285714286</ele><time>2026-05-05T08:25:50.563Z</time></trkpt><trkpt lat="37.8470399" lon="13.3600001"><ele>741.0</ele><time>2026-05-05T08:25:51.564Z</time></trkpt><trkpt lat="37.8470448" lon="13.359905"><ele>741.0</ele><time>2026-05-05T08:25:52.566Z</time></trkpt><trkpt lat="37.8470506" lon="13.3598012"><ele>741.0</ele><time>2026-05-05T08:25:53.565Z</time></trkpt><trkpt lat="37.847057" lon="13.3596988"><ele>741.0</ele><time>2026-05-05T08:25:54.564Z</time></trkpt><trkpt lat="37.8470631" lon="13.3595983"><ele>741.0</ele><time>2026-05-05T08:25:55.565Z</time></trkpt><trkpt lat="37.8470704" lon="13.3594947"><ele>741.0</ele><time>2026-05-05T08:25:56.566Z</time></trkpt><trkpt lat="37.8470882" lon="13.3594002"><ele>741.0</ele><time>2026-05-05T08:25:57.564Z</time></trkpt><trkpt lat="37.8471202" lon="13.3593157"><ele>737.5</ele><time>2026-05-05T08:25:58.563Z</time></trkpt><trkpt lat="37.8471601" lon="13.3592319"><ele>734.0</ele><time>2026-05-05T08:25:59.564Z</time></trkpt><trkpt lat="37.8472028" lon="13.3591489"><ele>730.5</ele><time>2026-05-05T08:26:00.565Z</time></trkpt><trkpt lat="37.8472472" lon="13.359069"><ele>727.0</ele><time>2026-05-05T08:26:01.563Z</time></trkpt><trkpt lat="37.8472954" lon="13.3589942"><ele>723.5</ele><time>2026-05-05T08:26:02.566Z</time></trkpt><trkpt lat="37.847344" lon="13.3589206"><ele>720.0</ele><time>2026-05-05T08:26:03.565Z</time></trkpt><trkpt lat="37.8473928" lon="13.3588409"><ele>717.5</ele><time>2026-05-05T08:26:04.566Z</time></trkpt><trkpt lat="37.8474413" lon="13.3587542"><ele>715.0</ele><time>2026-05-05T08:26:05.565Z</time></trkpt><trkpt lat="37.8474784" lon="13.3586582"><ele>712.5</ele><time>2026-05-05T08:26:06.567Z</time></trkpt><trkpt lat="37.8474968" lon="13.358555"><ele>710.0</ele><time>2026-05-05T08:26:07.564Z</time></trkpt><trkpt lat="37.8475032" lon="13.3584459"><ele>707.5</ele><time>2026-05-05T08:26:08.566Z</time></trkpt><trkpt lat="37.8475011" lon="13.3583393"><ele>705.0</ele><time>2026-05-05T08:26:09.565Z</time></trkpt><trkpt lat="37.847491" lon="13.3582357"><ele>705.0</ele><time>2026-05-05T08:26:10.565Z</time></trkpt><trkpt lat="37.8474696" lon="13.3581269"><ele>705.0</ele><time>2026-05-05T08:26:11.566Z</time></trkpt><trkpt lat="37.8474488" lon="13.358011"><ele>705.0</ele><time>2026-05-05T08:26:12.565Z</time></trkpt><trkpt lat="37.847438" lon="13.3578915"><ele>705.0</ele><time>2026-05-05T08:26:13.565Z</time></trkpt><trkpt lat="37.8474316" lon="13.3577752"><ele>705.0</ele><time>2026-05-05T08:26:14.565Z</time></trkpt><trkpt lat="37.8474257" lon="13.3576585"><ele>703.2</ele><time>2026-05-05T08:26:15.566Z</time></trkpt><trkpt lat="37.8474193" lon="13.3575359"><ele>701.4</ele><time>2026-05-05T08:26:16.565Z</time></trkpt><trkpt lat="37.8474112" lon="13.357406"><ele>699.5999999999999</ele><time>2026-05-05T08:26:17.564Z</time></trkpt><trkpt lat="37.8474032" lon="13.357277"><ele>697.8</ele><time>2026-05-05T08:26:18.566Z</time></trkpt><trkpt lat="37.8473973" lon="13.357152"><ele>696.0</ele><time>2026-05-05T08:26:19.565Z</time></trkpt><trkpt lat="37.847394" lon="13.3570311"><ele>695.0</ele><time>2026-05-05T08:26:20.566Z</time></trkpt><trkpt lat="37.8473897" lon="13.3569108"><ele>694.0</ele><time>2026-05-05T08:26:21.565Z</time></trkpt><trkpt lat="37.8473903" lon="13.3567906"><ele>693.0</ele><time>2026-05-05T08:26:22.566Z</time></trkpt><trkpt lat="37.8473922" lon="13.3566664"><ele>692.0</ele><time>2026-05-05T08:26:23.566Z</time></trkpt><trkpt lat="37.8473973" lon="13.3565415"><ele>691.0</ele><time>2026-05-05T08:26:24.565Z</time></trkpt><trkpt lat="37.8474059" lon="13.3564218"><ele>689.5</ele><time>2026-05-05T08:26:25.566Z</time></trkpt><trkpt lat="37.847414" lon="13.356312"><ele>688.0</ele><time>2026-05-05T08:26:26.567Z</time></trkpt><trkpt lat="37.8474209" lon="13.3562089"><ele>686.5</ele><time>2026-05-05T08:26:27.565Z</time></trkpt><trkpt lat="37.8474264" lon="13.3561058"><ele>685.0</ele><time>2026-05-05T08:26:28.566Z</time></trkpt><trkpt lat="37.8474361" lon="13.3559995"><ele>683.5</ele><time>2026-05-05T08:26:29.565Z</time></trkpt><trkpt lat="37.8474451" lon="13.3558853"><ele>682.0</ele><time>2026-05-05T08:26:30.565Z</time></trkpt><trkpt lat="37.8474541" lon="13.3557657"><ele>682.0</ele><time>2026-05-05T08:26:31.566Z</time></trkpt><trkpt lat="37.8474624" lon="13.3556407"><ele>682.0</ele><time>2026-05-05T08:26:32.566Z</time></trkpt><trkpt lat="37.8474724" lon="13.3555124"><ele>682.0</ele><time>2026-05-05T08:26:33.565Z</time></trkpt><trkpt lat="37.8474824" lon="13.3553822"><ele>682.0</ele><time>2026-05-05T08:26:34.566Z</time></trkpt><trkpt lat="37.8474939" lon="13.3552507"><ele>682.0</ele><time>2026-05-05T08:26:35.566Z</time></trkpt><trkpt lat="37.8475044" lon="13.3551242"><ele>681.5</ele><time>2026-05-05T08:26:36.565Z</time></trkpt><trkpt lat="37.8475124" lon="13.3550057"><ele>681.0</ele><time>2026-05-05T08:26:37.568Z</time></trkpt><trkpt lat="37.8475202" lon="13.3548977"><ele>680.5</ele><time>2026-05-05T08:26:38.566Z</time></trkpt><trkpt lat="37.8475263" lon="13.3547967"><ele>680.0</ele><time>2026-05-05T08:26:39.565Z</time></trkpt><trkpt lat="37.8475331" lon="13.3546973"><ele>679.5</ele><time>2026-05-05T08:26:40.566Z</time></trkpt><trkpt lat="37.8475423" lon="13.3546007"><ele>679.0</ele><time>2026-05-05T08:26:41.566Z</time></trkpt><trkpt lat="37.847551" lon="13.3545072"><ele>679.0</ele><time>2026-05-05T08:26:42.565Z</time></trkpt><trkpt lat="37.8475577" lon="13.354418"><ele>679.0</ele><time>2026-05-05T08:26:43.569Z</time></trkpt><trkpt lat="37.8475621" lon="13.3543271"><ele>679.0</ele><time>2026-05-05T08:26:44.566Z</time></trkpt><trkpt lat="37.8475585" lon="13.3542271"><ele>679.0</ele><time>2026-05-05T08:26:45.566Z</time></trkpt><trkpt lat="37.8475432" lon="13.35412"><ele>679.0</ele><time>2026-05-05T08:26:46.565Z</time></trkpt><trkpt lat="37.8475134" lon="13.3540107"><ele>679.0</ele><time>2026-05-05T08:26:47.566Z</time></trkpt><trkpt lat="37.8474699" lon="13.3539068"><ele>679.1666666666667</ele><time>2026-05-05T08:26:48.565Z</time></trkpt><trkpt lat="37.8474179" lon="13.3538068"><ele>679.3333333333334</ele><time>2026-05-05T08:26:49.565Z</time></trkpt><trkpt lat="37.8473645" lon="13.3537121"><ele>679.5</ele><time>2026-05-05T08:26:50.566Z</time></trkpt><trkpt lat="37.8473134" lon="13.3536243"><ele>679.6666666666666</ele><time>2026-05-05T08:26:51.565Z</time></trkpt><trkpt lat="37.8472665" lon="13.3535368"><ele>679.8333333333333</ele><time>2026-05-05T08:26:52.565Z</time></trkpt><trkpt lat="37.8472218" lon="13.3534498"><ele>680.0</ele><time>2026-05-05T08:26:53.565Z</time></trkpt><trkpt lat="37.8471825" lon="13.3533627"><ele>680.0</ele><time>2026-05-05T08:26:54.565Z</time></trkpt><trkpt lat="37.847149" lon="13.3532768"><ele>680.0</ele><time>2026-05-05T08:26:55.566Z</time></trkpt><trkpt lat="37.8471157" lon="13.3531923"><ele>680.0</ele><time>2026-05-05T08:26:56.567Z</time></trkpt><trkpt lat="37.8470836" lon="13.3531082"><ele>680.0</ele><time>2026-05-05T08:26:57.566Z</time></trkpt><trkpt lat="37.8470506" lon="13.35302"><ele>680.0</ele><time>2026-05-05T08:26:58.565Z</time></trkpt><trkpt lat="37.8470174" lon="13.3529258"><ele>680.0</ele><time>2026-05-05T08:26:59.567Z</time></trkpt><trkpt lat="37.8469869" lon="13.3528278"><ele>680.1666666666666</ele><time>2026-05-05T08:27:00.566Z</time></trkpt><trkpt lat="37.8469662" lon="13.3527272"><ele>680.3333333333333</ele><time>2026-05-05T08:27:01.566Z</time></trkpt><trkpt lat="37.8469587" lon="13.3526234"><ele>680.5</ele><time>2026-05-05T08:27:02.566Z</time></trkpt><trkpt lat="37.8469632" lon="13.3525192"><ele>680.6666666666666</ele><time>2026-05-05T08:27:03.565Z</time></trkpt><trkpt lat="37.846979" lon="13.3524185"><ele>680.8333333333334</ele><time>2026-05-05T08:27:04.565Z</time></trkpt><trkpt lat="37.8470099" lon="13.3523239"><ele>681.0</ele><time>2026-05-05T08:27:05.566Z</time></trkpt><trkpt lat="37.8470501" lon="13.3522314"><ele>679.6666666666666</ele><time>2026-05-05T08:27:06.565Z</time></trkpt><trkpt lat="37.847098" lon="13.3521393"><ele>678.3333333333334</ele><time>2026-05-05T08:27:07.568Z</time></trkpt><trkpt lat="37.8471486" lon="13.3520502"><ele>677.0</ele><time>2026-05-05T08:27:08.565Z</time></trkpt><trkpt lat="37.8471957" lon="13.3519591"><ele>675.6666666666667</ele><time>2026-05-05T08:27:09.564Z</time></trkpt><trkpt lat="37.8472382" lon="13.3518657"><ele>674.3333333333334</ele><time>2026-05-05T08:27:10.565Z</time></trkpt><trkpt lat="37.8472766" lon="13.3517716"><ele>673.0</ele><time>2026-05-05T08:27:11.566Z</time></trkpt><trkpt lat="37.8473095" lon="13.35167"><ele>673.0</ele><time>2026-05-05T08:27:12.565Z</time></trkpt><trkpt lat="37.8473384" lon="13.3515643"><ele>673.0</ele><time>2026-05-05T08:27:13.567Z</time></trkpt><trkpt lat="37.8473636" lon="13.3514633"><ele>673.0</ele><time>2026-05-05T08:27:14.566Z</time></trkpt><trkpt lat="37.8473829" lon="13.3513669"><ele>673.0</ele><time>2026-05-05T08:27:15.565Z</time></trkpt><trkpt lat="37.8473931" lon="13.3512789"><ele>673.0</ele><time>2026-05-05T08:27:16.566Z</time></trkpt><trkpt lat="37.8473707" lon="13.3511352"><ele>673.0</ele><time>2026-05-05T08:27:18.565Z</time></trkpt><trkpt lat="37.8473408" lon="13.3510635"><ele>672.8333333333334</ele><time>2026-05-05T08:27:19.565Z</time></trkpt><trkpt lat="37.8473008" lon="13.3509799"><ele>672.6666666666667</ele><time>2026-05-05T08:27:20.565Z</time></trkpt><trkpt lat="37.8472559" lon="13.3508868"><ele>672.5</ele><time>2026-05-05T08:27:21.566Z</time></trkpt><trkpt lat="37.8472116" lon="13.3507887"><ele>672.3333333333334</ele><time>2026-05-05T08:27:22.566Z</time></trkpt><trkpt lat="37.8471763" lon="13.3506854"><ele>672.1666666666666</ele><time>2026-05-05T08:27:23.566Z</time></trkpt><trkpt lat="37.8471589" lon="13.3505805"><ele>672.0</ele><time>2026-05-05T08:27:24.564Z</time></trkpt><trkpt lat="37.847157" lon="13.3504745"><ele>670.8333333333334</ele><time>2026-05-05T08:27:25.567Z</time></trkpt><trkpt lat="37.8471655" lon="13.3503709"><ele>669.6666666666666</ele><time>2026-05-05T08:27:26.567Z</time></trkpt><trkpt lat="37.8471866" lon="13.3502627"><ele>668.5</ele><time>2026-05-05T08:27:27.564Z</time></trkpt><trkpt lat="37.8472202" lon="13.3501532"><ele>667.3333333333333</ele><time>2026-05-05T08:27:28.565Z</time></trkpt><trkpt lat="37.8472616" lon="13.3500458"><ele>666.1666666666666</ele><time>2026-05-05T08:27:29.566Z</time></trkpt><trkpt lat="37.8473038" lon="13.3499444"><ele>665.0</ele><time>2026-05-05T08:27:30.565Z</time></trkpt><trkpt lat="37.8473441" lon="13.3498464"><ele>665.0</ele><time>2026-05-05T08:27:31.566Z</time></trkpt><trkpt lat="37.8473802" lon="13.3497516"><ele>665.0</ele><time>2026-05-05T08:27:32.565Z</time></trkpt><trkpt lat="37.847415" lon="13.3496593"><ele>665.0</ele><time>2026-05-05T08:27:33.565Z</time></trkpt><trkpt lat="37.847457" lon="13.3495591"><ele>665.0</ele><time>2026-05-05T08:27:34.567Z</time></trkpt><trkpt lat="37.8475021" lon="13.3494495"><ele>665.0</ele><time>2026-05-05T08:27:35.566Z</time></trkpt><trkpt lat="37.8475513" lon="13.3493388"><ele>663.8</ele><time>2026-05-05T08:27:36.565Z</time></trkpt><trkpt lat="37.8476112" lon="13.349228"><ele>662.6</ele><time>2026-05-05T08:27:37.567Z</time></trkpt><trkpt lat="37.84768" lon="13.3491234"><ele>661.4000000000001</ele><time>2026-05-05T08:27:38.564Z</time></trkpt><trkpt lat="37.8477496" lon="13.3490254"><ele>660.2</ele><time>2026-05-05T08:27:39.565Z</time></trkpt><trkpt lat="37.8478178" lon="13.3489345"><ele>659.0</ele><time>2026-05-05T08:27:40.566Z</time></trkpt><trkpt lat="37.8478877" lon="13.3488482"><ele>655.8000000000001</ele><time>2026-05-05T08:27:41.566Z</time></trkpt><trkpt lat="37.8479609" lon="13.3487676"><ele>652.6</ele><time>2026-05-05T08:27:42.564Z</time></trkpt><trkpt lat="37.8480367" lon="13.3486933"><ele>649.4</ele><time>2026-05-05T08:27:43.566Z</time></trkpt><trkpt lat="37.84811" lon="13.3486133"><ele>646.2</ele><time>2026-05-05T08:27:44.566Z</time></trkpt><trkpt lat="37.8481833" lon="13.3485333"><ele>643.0</ele><time>2026-05-05T08:27:45.565Z</time></trkpt><trkpt lat="37.84826" lon="13.3484583"><ele>643.0</ele><time>2026-05-05T08:27:46.565Z</time></trkpt><trkpt lat="37.8483333" lon="13.34838"><ele>643.0</ele><time>2026-05-05T08:27:47.567Z</time></trkpt><trkpt lat="37.848405" lon="13.348295"><ele>643.0</ele><time>2026-05-05T08:27:48.566Z</time></trkpt><trkpt lat="37.8484817" lon="13.3482083"><ele>643.0</ele><time>2026-05-05T08:27:49.565Z</time></trkpt><trkpt lat="37.8485633" lon="13.3481217"><ele>643.0</ele><time>2026-05-05T08:27:50.565Z</time></trkpt><trkpt lat="37.8486483" lon="13.3480333"><ele>641.6</ele><time>2026-05-05T08:27:51.565Z</time></trkpt><trkpt lat="37.84873" lon="13.3479383"><ele>640.1999999999999</ele><time>2026-05-05T08:27:52.564Z</time></trkpt><trkpt lat="37.8488117" lon="13.3478483"><ele>638.8</ele><time>2026-05-05T08:27:53.565Z</time></trkpt><trkpt lat="37.8488917" lon="13.3477617"><ele>637.4</ele><time>2026-05-05T08:27:54.564Z</time></trkpt><trkpt lat="37.8489683" lon="13.34767"><ele>636.0</ele><time>2026-05-05T08:27:55.568Z</time></trkpt><trkpt lat="37.8490383" lon="13.3475733"><ele>636.0</ele><time>2026-05-05T08:27:56.567Z</time></trkpt><trkpt lat="37.8490983" lon="13.3474817"><ele>636.0</ele><time>2026-05-05T08:27:57.565Z</time></trkpt><trkpt lat="37.8491417" lon="13.347385"><ele>636.0</ele><time>2026-05-05T08:27:58.565Z</time></trkpt><trkpt lat="37.8491683" lon="13.3472883"><ele>636.0</ele><time>2026-05-05T08:27:59.565Z</time></trkpt><trkpt lat="37.8491733" lon="13.3471867"><ele>636.0</ele><time>2026-05-05T08:28:00.565Z</time></trkpt><trkpt lat="37.84916" lon="13.3470783"><ele>636.0</ele><time>2026-05-05T08:28:01.565Z</time></trkpt><trkpt lat="37.84913" lon="13.3469833"><ele>634.3333333333334</ele><time>2026-05-05T08:28:02.565Z</time></trkpt><trkpt lat="37.8490833" lon="13.3469083"><ele>632.6666666666666</ele><time>2026-05-05T08:28:03.564Z</time></trkpt><trkpt lat="37.8490267" lon="13.3468517"><ele>631.0</ele><time>2026-05-05T08:28:04.565Z</time></trkpt><trkpt lat="37.8489567" lon="13.34681"><ele>629.3333333333333</ele><time>2026-05-05T08:28:05.566Z</time></trkpt><trkpt lat="37.8488883" lon="13.3467867"><ele>627.6666666666666</ele><time>2026-05-05T08:28:07.565Z</time></trkpt><trkpt lat="37.8488067" lon="13.3467867"><ele>626.0</ele><time>2026-05-05T08:28:09.565Z</time></trkpt><trkpt lat="37.8487233" lon="13.3468317"><ele>626.0</ele><time>2026-05-05T08:28:11.565Z</time></trkpt><trkpt lat="37.8486333" lon="13.346905"><ele>626.0</ele><time>2026-05-05T08:28:13.566Z</time></trkpt><trkpt lat="37.8485783" lon="13.3469567"><ele>626.0</ele><time>2026-05-05T08:28:14.566Z</time></trkpt><trkpt lat="37.8485167" lon="13.3470183"><ele>626.0</ele><time>2026-05-05T08:28:15.565Z</time></trkpt><trkpt lat="37.848455" lon="13.3471"><ele>626.0</ele><time>2026-05-05T08:28:16.565Z</time></trkpt><trkpt lat="37.8483867" lon="13.3471867"><ele>626.0</ele><time>2026-05-05T08:28:17.564Z</time></trkpt><trkpt lat="37.8483133" lon="13.3472767"><ele>626.8</ele><time>2026-05-05T08:28:18.565Z</time></trkpt><trkpt lat="37.84824" lon="13.3473617"><ele>627.6</ele><time>2026-05-05T08:28:19.565Z</time></trkpt><trkpt lat="37.8481717" lon="13.34744"><ele>628.4</ele><time>2026-05-05T08:28:20.566Z</time></trkpt><trkpt lat="37.848105" lon="13.3475183"><ele>629.2</ele><time>2026-05-05T08:28:21.565Z</time></trkpt><trkpt lat="37.8480283" lon="13.3475767"><ele>630.0</ele><time>2026-05-05T08:28:22.564Z</time></trkpt><trkpt lat="37.847945" lon="13.3475983"><ele>630.0</ele><time>2026-05-05T08:28:23.565Z</time></trkpt><trkpt lat="37.8478633" lon="13.347595"><ele>630.0</ele><time>2026-05-05T08:28:24.565Z</time></trkpt><trkpt lat="37.8477883" lon="13.3475667"><ele>630.0</ele><time>2026-05-05T08:28:25.567Z</time></trkpt><trkpt lat="37.8477283" lon="13.3475267"><ele>630.0</ele><time>2026-05-05T08:28:26.566Z</time></trkpt><trkpt lat="37.84768" lon="13.347465"><ele>630.0</ele><time>2026-05-05T08:28:27.565Z</time></trkpt><trkpt lat="37.8476467" lon="13.3473817"><ele>630.0</ele><time>2026-05-05T08:28:28.564Z</time></trkpt><trkpt lat="37.8476317" lon="13.3472833"><ele>630.0</ele><time>2026-05-05T08:28:29.566Z</time></trkpt><trkpt lat="37.8476383" lon="13.347175"><ele>627.8</ele><time>2026-05-05T08:28:30.565Z</time></trkpt><trkpt lat="37.84767" lon="13.3470783"><ele>625.6</ele><time>2026-05-05T08:28:31.565Z</time></trkpt><trkpt lat="37.8477233" lon="13.3469867"><ele>623.4</ele><time>2026-05-05T08:28:32.566Z</time></trkpt><trkpt lat="37.8477883" lon="13.3469033"><ele>621.2</ele><time>2026-05-05T08:28:33.566Z</time></trkpt><trkpt lat="37.8478567" lon="13.3468167"><ele>619.0</ele><time>2026-05-05T08:28:34.566Z</time></trkpt><trkpt lat="37.847925" lon="13.346725"><ele>619.0</ele><time>2026-05-05T08:28:35.566Z</time></trkpt><trkpt lat="37.847985" lon="13.3466383"><ele>619.0</ele><time>2026-05-05T08:28:36.565Z</time></trkpt><trkpt lat="37.84803" lon="13.3465583"><ele>619.0</ele><time>2026-05-05T08:28:37.567Z</time></trkpt><trkpt lat="37.8480667" lon="13.3464667"><ele>619.0</ele><time>2026-05-05T08:28:38.566Z</time></trkpt><trkpt lat="37.8481017" lon="13.3463717"><ele>619.0</ele><time>2026-05-05T08:28:39.568Z</time></trkpt><trkpt lat="37.8481383" lon="13.34627"><ele>619.0</ele><time>2026-05-05T08:28:40.565Z</time></trkpt><trkpt lat="37.848175" lon="13.34616"><ele>616.8333333333334</ele><time>2026-05-05T08:28:41.565Z</time></trkpt><trkpt lat="37.848205" lon="13.346045"><ele>614.6666666666667</ele><time>2026-05-05T08:28:42.566Z</time></trkpt><trkpt lat="37.8482317" lon="13.3459367"><ele>612.5</ele><time>2026-05-05T08:28:43.564Z</time></trkpt><trkpt lat="37.8482583" lon="13.34583"><ele>610.3333333333334</ele><time>2026-05-05T08:28:44.566Z</time></trkpt><trkpt lat="37.8482833" lon="13.345725"><ele>608.1666666666666</ele><time>2026-05-05T08:28:45.564Z</time></trkpt><trkpt lat="37.84831" lon="13.3456267"><ele>606.0</ele><time>2026-05-05T08:28:46.566Z</time></trkpt><trkpt lat="37.848345" lon="13.34553"><ele>606.0</ele><time>2026-05-05T08:28:47.566Z</time></trkpt><trkpt lat="37.848385" lon="13.3454333"><ele>606.0</ele><time>2026-05-05T08:28:48.565Z</time></trkpt><trkpt lat="37.8484333" lon="13.3453367"><ele>606.0</ele><time>2026-05-05T08:28:49.566Z</time></trkpt><trkpt lat="37.84849" lon="13.34524"><ele>606.0</ele><time>2026-05-05T08:28:50.565Z</time></trkpt><trkpt lat="37.8485433" lon="13.3451383"><ele>606.0</ele><time>2026-05-05T08:28:51.564Z</time></trkpt><trkpt lat="37.8486" lon="13.345035"><ele>606.0</ele><time>2026-05-05T08:28:52.565Z</time></trkpt><trkpt lat="37.848655" lon="13.3449383"><ele>606.0</ele><time>2026-05-05T08:28:53.566Z</time></trkpt><trkpt lat="37.848705" lon="13.3448417"><ele>606.0</ele><time>2026-05-05T08:28:54.565Z</time></trkpt><trkpt lat="37.84874" lon="13.3447383"><ele>606.0</ele><time>2026-05-05T08:28:55.565Z</time></trkpt><trkpt lat="37.84877" lon="13.3446367"><ele>606.0</ele><time>2026-05-05T08:28:56.567Z</time></trkpt><trkpt lat="37.8487867" lon="13.34454"><ele>606.0</ele><time>2026-05-05T08:28:57.565Z</time></trkpt><trkpt lat="37.8487883" lon="13.344445"><ele>604.2</ele><time>2026-05-05T08:28:58.565Z</time></trkpt><trkpt lat="37.84878" lon="13.3443617"><ele>602.4000000000001</ele><time>2026-05-05T08:28:59.567Z</time></trkpt><trkpt lat="37.8487383" lon="13.3442183"><ele>600.6</ele><time>2026-05-05T08:29:01.566Z</time></trkpt><trkpt lat="37.84867" lon="13.3441017"><ele>598.8000000000001</ele><time>2026-05-05T08:29:03.565Z</time></trkpt><trkpt lat="37.84857" lon="13.34402"><ele>597.0</ele><time>2026-05-05T08:29:05.571Z</time></trkpt><trkpt lat="37.84851" lon="13.343995"><ele>595.6</ele><time>2026-05-05T08:29:06.565Z</time></trkpt><trkpt lat="37.8484433" lon="13.3439883"><ele>594.2</ele><time>2026-05-05T08:29:07.566Z</time></trkpt><trkpt lat="37.8483267" lon="13.34404"><ele>592.8</ele><time>2026-05-05T08:29:09.564Z</time></trkpt><trkpt lat="37.84821" lon="13.3441117"><ele>591.4</ele><time>2026-05-05T08:29:11.564Z</time></trkpt><trkpt lat="37.8481383" lon="13.3441383"><ele>590.0</ele><time>2026-05-05T08:29:12.564Z</time></trkpt><trkpt lat="37.8480667" lon="13.34416"><ele>590.0000000000001</ele><time>2026-05-05T08:29:13.566Z</time></trkpt><trkpt lat="37.8479883" lon="13.3441817"><ele>590.0</ele><time>2026-05-05T08:29:14.565Z</time></trkpt><trkpt lat="37.8479167" lon="13.3442083"><ele>590.0</ele><time>2026-05-05T08:29:15.566Z</time></trkpt><trkpt lat="37.8478533" lon="13.3442417"><ele>590.0</ele><time>2026-05-05T08:29:16.566Z</time></trkpt><trkpt lat="37.84779" lon="13.344275"><ele>590.0</ele><time>2026-05-05T08:29:17.566Z</time></trkpt><trkpt lat="37.8477283" lon="13.3443067"><ele>590.0000000000001</ele><time>2026-05-05T08:29:18.565Z</time></trkpt><trkpt lat="37.84767" lon="13.3443433"><ele>590.0</ele><time>2026-05-05T08:29:19.565Z</time></trkpt><trkpt lat="37.8476117" lon="13.3443767"><ele>588.2</ele><time>2026-05-05T08:29:20.573Z</time></trkpt><trkpt lat="37.8475133" lon="13.344465"><ele>586.4</ele><time>2026-05-05T08:29:22.564Z</time></trkpt><trkpt lat="37.8474067" lon="13.3445067"><ele>584.6</ele><time>2026-05-05T08:29:24.565Z</time></trkpt><trkpt lat="37.8472933" lon="13.344485"><ele>582.8</ele><time>2026-05-05T08:29:26.568Z</time></trkpt><trkpt lat="37.84723" lon="13.344455"><ele>581.0</ele><time>2026-05-05T08:29:27.566Z</time></trkpt><trkpt lat="37.8471683" lon="13.3444117"><ele>581.0</ele><time>2026-05-05T08:29:28.566Z</time></trkpt><trkpt lat="37.8471133" lon="13.34436"><ele>581.0</ele><time>2026-05-05T08:29:29.566Z</time></trkpt><trkpt lat="37.8470417" lon="13.34425"><ele>581.0</ele><time>2026-05-05T08:29:31.565Z</time></trkpt><trkpt lat="37.8470033" lon="13.3441017"><ele>581.0</ele><time>2026-05-05T08:29:33.565Z</time></trkpt><trkpt lat="37.8469933" lon="13.3439533"><ele>581.0</ele><time>2026-05-05T08:29:35.565Z</time></trkpt><trkpt lat="37.8470267" lon="13.3438033"><ele>579.1666666666666</ele><time>2026-05-05T08:29:37.563Z</time></trkpt><trkpt lat="37.8470583" lon="13.3437233"><ele>577.3333333333333</ele><time>2026-05-05T08:29:38.567Z</time></trkpt><trkpt lat="37.8471033" lon="13.34364"><ele>575.5</ele><time>2026-05-05T08:29:39.568Z</time></trkpt><trkpt lat="37.8471533" lon="13.343555"><ele>573.6666666666666</ele><time>2026-05-05T08:29:40.565Z</time></trkpt><trkpt lat="37.8472067" lon="13.343465"><ele>571.8333333333334</ele><time>2026-05-05T08:29:41.565Z</time></trkpt><trkpt lat="37.8472633" lon="13.3433767"><ele>570.0</ele><time>2026-05-05T08:29:42.565Z</time></trkpt><trkpt lat="37.84732" lon="13.3432867"><ele>570.0</ele><time>2026-05-05T08:29:43.571Z</time></trkpt><trkpt lat="37.8473733" lon="13.3431967"><ele>570.0</ele><time>2026-05-05T08:29:44.565Z</time></trkpt><trkpt lat="37.8474217" lon="13.343105"><ele>570.0</ele><time>2026-05-05T08:29:45.564Z</time></trkpt><trkpt lat="37.8474717" lon="13.3430133"><ele>570.0</ele><time>2026-05-05T08:29:46.565Z</time></trkpt><trkpt lat="37.847525" lon="13.3429283"><ele>570.0</ele><time>2026-05-05T08:29:47.566Z</time></trkpt><trkpt lat="37.84758" lon="13.3428483"><ele>570.0</ele><time>2026-05-05T08:29:48.565Z</time></trkpt><trkpt lat="37.8476333" lon="13.34277"><ele>569.5</ele><time>2026-05-05T08:29:49.566Z</time></trkpt><trkpt lat="37.84769" lon="13.3426983"><ele>569.0</ele><time>2026-05-05T08:29:50.564Z</time></trkpt><trkpt lat="37.847745" lon="13.342625"><ele>568.5</ele><time>2026-05-05T08:29:51.566Z</time></trkpt><trkpt lat="37.8477967" lon="13.3425483"><ele>568.0</ele><time>2026-05-05T08:29:52.566Z</time></trkpt><trkpt lat="37.8478467" lon="13.3424717"><ele>567.5</ele><time>2026-05-05T08:29:53.564Z</time></trkpt><trkpt lat="37.8478933" lon="13.342395"><ele>567.0</ele><time>2026-05-05T08:29:54.565Z</time></trkpt><trkpt lat="37.8479433" lon="13.3423233"><ele>567.0</ele><time>2026-05-05T08:29:55.566Z</time></trkpt><trkpt lat="37.8479867" lon="13.34225"><ele>567.0</ele><time>2026-05-05T08:29:56.568Z</time></trkpt><trkpt lat="37.84803" lon="13.3421733"><ele>567.0</ele><time>2026-05-05T08:29:57.564Z</time></trkpt><trkpt lat="37.8480767" lon="13.3420983"><ele>567.0</ele><time>2026-05-05T08:29:58.566Z</time></trkpt><trkpt lat="37.8481267" lon="13.3420183"><ele>567.0</ele><time>2026-05-05T08:29:59.565Z</time></trkpt><trkpt lat="37.8481767" lon="13.3419417"><ele>567.0</ele><time>2026-05-05T08:30:00.565Z</time></trkpt><trkpt lat="37.8482283" lon="13.3418633"><ele>566.0</ele><time>2026-05-05T08:30:01.566Z</time></trkpt><trkpt lat="37.8482783" lon="13.3417867"><ele>565.0</ele><time>2026-05-05T08:30:02.567Z</time></trkpt><trkpt lat="37.8483283" lon="13.3417133"><ele>564.0</ele><time>2026-05-05T08:30:03.564Z</time></trkpt><trkpt lat="37.8483783" lon="13.34164"><ele>563.0</ele><time>2026-05-05T08:30:04.566Z</time></trkpt><trkpt lat="37.848425" lon="13.341565"><ele>562.0</ele><time>2026-05-05T08:30:05.565Z</time></trkpt><trkpt lat="37.848475" lon="13.341485"><ele>561.0</ele><time>2026-05-05T08:30:06.566Z</time></trkpt><trkpt lat="37.8485283" lon="13.341395"><ele>558.8</ele><time>2026-05-05T08:30:07.566Z</time></trkpt><trkpt lat="37.8485867" lon="13.3413017"><ele>556.6</ele><time>2026-05-05T08:30:08.566Z</time></trkpt><trkpt lat="37.8486533" lon="13.3412067"><ele>554.4</ele><time>2026-05-05T08:30:09.565Z</time></trkpt><trkpt lat="37.8487233" lon="13.3411067"><ele>552.2</ele><time>2026-05-05T08:30:10.565Z</time></trkpt><trkpt lat="37.848795" lon="13.341"><ele>550.0</ele><time>2026-05-05T08:30:11.565Z</time></trkpt><trkpt lat="37.8488683" lon="13.340885"><ele>550.0</ele><time>2026-05-05T08:30:12.565Z</time></trkpt><trkpt lat="37.8489383" lon="13.34077"><ele>550.0</ele><time>2026-05-05T08:30:13.566Z</time></trkpt><trkpt lat="37.849" lon="13.340655"><ele>550.0</ele><time>2026-05-05T08:30:14.565Z</time></trkpt><trkpt lat="37.84907" lon="13.3405483"><ele>550.0</ele><time>2026-05-05T08:30:15.566Z</time></trkpt><trkpt lat="37.8491383" lon="13.340445"><ele>550.0</ele><time>2026-05-05T08:30:16.566Z</time></trkpt><trkpt lat="37.8492083" lon="13.340345"><ele>550.0</ele><time>2026-05-05T08:30:17.565Z</time></trkpt><trkpt lat="37.8492767" lon="13.3402517"><ele>550.0</ele><time>2026-05-05T08:30:18.564Z</time></trkpt><trkpt lat="37.8493417" lon="13.340155"><ele>550.0</ele><time>2026-05-05T08:30:19.565Z</time></trkpt><trkpt lat="37.8493883" lon="13.3400467"><ele>550.0</ele><time>2026-05-05T08:30:20.566Z</time></trkpt><trkpt lat="37.8494167" lon="13.33993"><ele>550.0</ele><time>2026-05-05T08:30:21.566Z</time></trkpt><trkpt lat="37.849435" lon="13.3397967"><ele>549.0</ele><time>2026-05-05T08:30:22.565Z</time></trkpt><trkpt lat="37.8494383" lon="13.3396583"><ele>548.0</ele><time>2026-05-05T08:30:23.566Z</time></trkpt><trkpt lat="37.8494233" lon="13.3395283"><ele>547.0</ele><time>2026-05-05T08:30:24.565Z</time></trkpt><trkpt lat="37.8493833" lon="13.3394117"><ele>546.0</ele><time>2026-05-05T08:30:25.566Z</time></trkpt><trkpt lat="37.84933" lon="13.3393067"><ele>545.0</ele><time>2026-05-05T08:30:26.566Z</time></trkpt><trkpt lat="37.8492617" lon="13.3392167"><ele>543.2</ele><time>2026-05-05T08:30:27.565Z</time></trkpt><trkpt lat="37.8491833" lon="13.33915"><ele>541.4</ele><time>2026-05-05T08:30:28.564Z</time></trkpt><trkpt lat="37.8490933" lon="13.33911"><ele>539.6</ele><time>2026-05-05T08:30:29.566Z</time></trkpt><trkpt lat="37.849" lon="13.339085"><ele>537.8</ele><time>2026-05-05T08:30:30.565Z</time></trkpt><trkpt lat="37.8489083" lon="13.3390833"><ele>536.0</ele><time>2026-05-05T08:30:31.567Z</time></trkpt><trkpt lat="37.84882" lon="13.33909"><ele>536.0</ele><time>2026-05-05T08:30:32.567Z</time></trkpt><trkpt lat="37.84873" lon="13.3390917"><ele>536.0</ele><time>2026-05-05T08:30:33.564Z</time></trkpt><trkpt lat="37.8486417" lon="13.339105"><ele>536.0</ele><time>2026-05-05T08:30:34.565Z</time></trkpt><trkpt lat="37.84856" lon="13.3391217"><ele>536.0</ele><time>2026-05-05T08:30:35.564Z</time></trkpt><trkpt lat="37.8484817" lon="13.339135"><ele>536.0</ele><time>2026-05-05T08:30:36.565Z</time></trkpt><trkpt lat="37.84841" lon="13.3391467"><ele>536.0</ele><time>2026-05-05T08:30:37.565Z</time></trkpt><trkpt lat="37.8483383" lon="13.3391517"><ele>534.7142857142858</ele><time>2026-05-05T08:30:38.566Z</time></trkpt><trkpt lat="37.8482667" lon="13.3391583"><ele>533.4285714285714</ele><time>2026-05-05T08:30:39.564Z</time></trkpt><trkpt lat="37.8482" lon="13.339185"><ele>532.1428571428571</ele><time>2026-05-05T08:30:40.565Z</time></trkpt><trkpt lat="37.848135" lon="13.339205"><ele>530.8571428571429</ele><time>2026-05-05T08:30:41.566Z</time></trkpt><trkpt lat="37.848065" lon="13.3392267"><ele>529.5714285714286</ele><time>2026-05-05T08:30:42.565Z</time></trkpt><trkpt lat="37.84799" lon="13.3392483"><ele>528.2857142857143</ele><time>2026-05-05T08:30:43.566Z</time></trkpt><trkpt lat="37.8479117" lon="13.3392717"><ele>527.0</ele><time>2026-05-05T08:30:44.564Z</time></trkpt><trkpt lat="37.8478317" lon="13.3392917"><ele>527.0000000000001</ele><time>2026-05-05T08:30:45.565Z</time></trkpt><trkpt lat="37.8477533" lon="13.3393067"><ele>527.0</ele><time>2026-05-05T08:30:46.565Z</time></trkpt><trkpt lat="37.84768" lon="13.3393117"><ele>527.0</ele><time>2026-05-05T08:30:47.565Z</time></trkpt><trkpt lat="37.8476083" lon="13.3393133"><ele>527.0</ele><time>2026-05-05T08:30:48.564Z</time></trkpt><trkpt lat="37.8475333" lon="13.3393133"><ele>527.0</ele><time>2026-05-05T08:30:49.565Z</time></trkpt><trkpt lat="37.8474617" lon="13.3392933"><ele>527.0000000000001</ele><time>2026-05-05T08:30:50.565Z</time></trkpt><trkpt lat="37.8473967" lon="13.3392617"><ele>527.0</ele><time>2026-05-05T08:30:51.566Z</time></trkpt><trkpt lat="37.8473383" lon="13.3392067"><ele>525.8333333333333</ele><time>2026-05-05T08:30:52.565Z</time></trkpt><trkpt lat="37.8472867" lon="13.3391367"><ele>524.6666666666666</ele><time>2026-05-05T08:30:53.565Z</time></trkpt><trkpt lat="37.8472467" lon="13.3390533"><ele>523.5</ele><time>2026-05-05T08:30:54.565Z</time></trkpt><trkpt lat="37.847225" lon="13.3389617"><ele>522.3333333333334</ele><time>2026-05-05T08:30:55.566Z</time></trkpt><trkpt lat="37.8472267" lon="13.3388633"><ele>521.1666666666667</ele><time>2026-05-05T08:30:56.566Z</time></trkpt><trkpt lat="37.84724" lon="13.3387633"><ele>520.0</ele><time>2026-05-05T08:30:57.565Z</time></trkpt><trkpt lat="37.8472517" lon="13.3386833"><ele>518.6</ele><time>2026-05-05T08:30:58.565Z</time></trkpt><trkpt lat="37.8472983" lon="13.3385333"><ele>517.2</ele><time>2026-05-05T08:31:00.564Z</time></trkpt><trkpt lat="37.8473283" lon="13.338445"><ele>515.8</ele><time>2026-05-05T08:31:01.565Z</time></trkpt><trkpt lat="37.8473633" lon="13.338345"><ele>514.4</ele><time>2026-05-05T08:31:02.566Z</time></trkpt><trkpt lat="37.8473967" lon="13.3382467"><ele>513.0</ele><time>2026-05-05T08:31:03.565Z</time></trkpt><trkpt lat="37.8474267" lon="13.3381483"><ele>513.0</ele><time>2026-05-05T08:31:04.566Z</time></trkpt><trkpt lat="37.8474483" lon="13.3380533"><ele>513.0</ele><time>2026-05-05T08:31:05.565Z</time></trkpt><trkpt lat="37.847475" lon="13.33796"><ele>513.0</ele><time>2026-05-05T08:31:06.565Z</time></trkpt><trkpt lat="37.8475033" lon="13.3378667"><ele>513.0</ele><time>2026-05-05T08:31:07.566Z</time></trkpt><trkpt lat="37.8475417" lon="13.3377833"><ele>513.0</ele><time>2026-05-05T08:31:08.567Z</time></trkpt><trkpt lat="37.8475767" lon="13.3376967"><ele>513.0</ele><time>2026-05-05T08:31:09.564Z</time></trkpt><trkpt lat="37.8476017" lon="13.3375983"><ele>513.0000000000001</ele><time>2026-05-05T08:31:10.566Z</time></trkpt><trkpt lat="37.847625" lon="13.3375033"><ele>513.0</ele><time>2026-05-05T08:31:11.566Z</time></trkpt><trkpt lat="37.8476533" lon="13.33741"><ele>513.0</ele><time>2026-05-05T08:31:12.565Z</time></trkpt><trkpt lat="37.847685" lon="13.33732"><ele>513.0</ele><time>2026-05-05T08:31:13.566Z</time></trkpt><trkpt lat="37.847715" lon="13.3372333"><ele>513.0</ele><time>2026-05-05T08:31:14.565Z</time></trkpt><trkpt lat="37.8477517" lon="13.3371583"><ele>513.0000000000001</ele><time>2026-05-05T08:31:15.565Z</time></trkpt><trkpt lat="37.8478017" lon="13.3371017"><ele>513.0</ele><time>2026-05-05T08:31:16.566Z</time></trkpt><trkpt lat="37.8478583" lon="13.3370567"><ele>512.0</ele><time>2026-05-05T08:31:17.565Z</time></trkpt><trkpt lat="37.8479217" lon="13.3370183"><ele>511.0</ele><time>2026-05-05T08:31:18.565Z</time></trkpt><trkpt lat="37.8479867" lon="13.3369833"><ele>510.0</ele><time>2026-05-05T08:31:19.566Z</time></trkpt><trkpt lat="37.848055" lon="13.336955"><ele>509.0</ele><time>2026-05-05T08:31:20.566Z</time></trkpt><trkpt lat="37.8481167" lon="13.3369233"><ele>508.0</ele><time>2026-05-05T08:31:21.564Z</time></trkpt><trkpt lat="37.848225" lon="13.3368683"><ele>507.0</ele><time>2026-05-05T08:31:23.565Z</time></trkpt><trkpt lat="37.8482883" lon="13.3368433"><ele>507.0</ele><time>2026-05-05T08:31:24.565Z</time></trkpt><trkpt lat="37.848355" lon="13.33681"><ele>507.0</ele><time>2026-05-05T08:31:25.566Z</time></trkpt><trkpt lat="37.8484233" lon="13.3367667"><ele>507.0</ele><time>2026-05-05T08:31:26.566Z</time></trkpt><trkpt lat="37.8484917" lon="13.3367133"><ele>507.0</ele><time>2026-05-05T08:31:27.565Z</time></trkpt><trkpt lat="37.8485517" lon="13.3366617"><ele>507.0</ele><time>2026-05-05T08:31:28.565Z</time></trkpt><trkpt lat="37.8486067" lon="13.3366083"><ele>507.0</ele><time>2026-05-05T08:31:29.566Z</time></trkpt><trkpt lat="37.8486833" lon="13.3365133"><ele>507.20000000000005</ele><time>2026-05-05T08:31:31.563Z</time></trkpt><trkpt lat="37.8487367" lon="13.3364467"><ele>507.40000000000003</ele><time>2026-05-05T08:31:34.566Z</time></trkpt><trkpt lat="37.8488" lon="13.3363733"><ele>507.59999999999997</ele><time>2026-05-05T08:31:37.566Z</time></trkpt><trkpt lat="37.848875" lon="13.33632"><ele>507.79999999999995</ele><time>2026-05-05T08:31:39.565Z</time></trkpt><trkpt lat="37.8489667" lon="13.3362383"><ele>508.0</ele><time>2026-05-05T08:31:41.566Z</time></trkpt><trkpt lat="37.8490667" lon="13.3361517"><ele>508.00000000000006</ele><time>2026-05-05T08:31:43.567Z</time></trkpt><trkpt lat="37.8491267" lon="13.3360917"><ele>508.0</ele><time>2026-05-05T08:31:44.565Z</time></trkpt><trkpt lat="37.849185" lon="13.3360317"><ele>508.0</ele><time>2026-05-05T08:31:45.565Z</time></trkpt><trkpt lat="37.8492483" lon="13.3359767"><ele>508.0</ele><time>2026-05-05T08:31:46.564Z</time></trkpt><trkpt lat="37.8493083" lon="13.3359167"><ele>508.00000000000006</ele><time>2026-05-05T08:31:47.566Z</time></trkpt><trkpt lat="37.84937" lon="13.3358567"><ele>508.0</ele><time>2026-05-05T08:31:48.569Z</time></trkpt><trkpt lat="37.8494283" lon="13.3358083"><ele>509.33333333333337</ele><time>2026-05-05T08:31:49.566Z</time></trkpt><trkpt lat="37.84948" lon="13.3357467"><ele>510.6666666666667</ele><time>2026-05-05T08:31:50.566Z</time></trkpt><trkpt lat="37.8495317" lon="13.33568"><ele>512.0</ele><time>2026-05-05T08:31:51.566Z</time></trkpt><trkpt lat="37.8495867" lon="13.3356117"><ele>513.3333333333334</ele><time>2026-05-05T08:31:52.566Z</time></trkpt><trkpt lat="37.8496467" lon="13.3355467"><ele>514.6666666666666</ele><time>2026-05-05T08:31:53.566Z</time></trkpt><trkpt lat="37.8497117" lon="13.33548"><ele>516.0</ele><time>2026-05-05T08:31:54.565Z</time></trkpt><trkpt lat="37.849775" lon="13.3354133"><ele>516.0</ele><time>2026-05-05T08:31:55.566Z</time></trkpt><trkpt lat="37.8498367" lon="13.3353433"><ele>516.0</ele><time>2026-05-05T08:31:56.566Z</time></trkpt><trkpt lat="37.8498983" lon="13.33527"><ele>516.0</ele><time>2026-05-05T08:31:57.564Z</time></trkpt><trkpt lat="37.84996" lon="13.335195"><ele>516.0</ele><time>2026-05-05T08:31:58.566Z</time></trkpt><trkpt lat="37.850015" lon="13.3351167"><ele>516.0</ele><time>2026-05-05T08:31:59.566Z</time></trkpt><trkpt lat="37.85007" lon="13.3350317"><ele>516.0</ele><time>2026-05-05T08:32:00.569Z</time></trkpt><trkpt lat="37.8501217" lon="13.33494"><ele>516.6666666666666</ele><time>2026-05-05T08:32:01.565Z</time></trkpt><trkpt lat="37.850175" lon="13.33485"><ele>517.3333333333334</ele><time>2026-05-05T08:32:02.566Z</time></trkpt><trkpt lat="37.8502267" lon="13.3347583"><ele>518.0</ele><time>2026-05-05T08:32:03.565Z</time></trkpt><trkpt lat="37.8502783" lon="13.3346633"><ele>518.6666666666667</ele><time>2026-05-05T08:32:04.565Z</time></trkpt><trkpt lat="37.85033" lon="13.3345833"><ele>519.3333333333334</ele><time>2026-05-05T08:32:05.566Z</time></trkpt><trkpt lat="37.850385" lon="13.3345233"><ele>520.0</ele><time>2026-05-05T08:32:06.565Z</time></trkpt><trkpt lat="37.8504483" lon="13.3344717"><ele>520.0</ele><time>2026-05-05T08:32:07.566Z</time></trkpt><trkpt lat="37.85051" lon="13.3344217"><ele>520.0</ele><time>2026-05-05T08:32:08.565Z</time></trkpt><trkpt lat="37.8505683" lon="13.33438"><ele>520.0</ele><time>2026-05-05T08:32:09.564Z</time></trkpt><trkpt lat="37.85063" lon="13.3343383"><ele>520.0</ele><time>2026-05-05T08:32:10.565Z</time></trkpt><trkpt lat="37.8506917" lon="13.3342933"><ele>520.0</ele><time>2026-05-05T08:32:11.565Z</time></trkpt><trkpt lat="37.8507867" lon="13.33421"><ele>520.0</ele><time>2026-05-05T08:32:13.566Z</time></trkpt><trkpt lat="37.8508733" lon="13.334095"><ele>520.0</ele><time>2026-05-05T08:32:15.565Z</time></trkpt><trkpt lat="37.850915" lon="13.3340183"><ele>520.0</ele><time>2026-05-05T08:32:16.565Z</time></trkpt><trkpt lat="37.8509633" lon="13.333945"><ele>520.0</ele><time>2026-05-05T08:32:17.565Z</time></trkpt><trkpt lat="37.8510217" lon="13.333875"><ele>520.0</ele><time>2026-05-05T08:32:18.565Z</time></trkpt><trkpt lat="37.851085" lon="13.3338083"><ele>520.0</ele><time>2026-05-05T08:32:19.564Z</time></trkpt><trkpt lat="37.8511383" lon="13.3337483"><ele>520.0</ele><time>2026-05-05T08:32:20.566Z</time></trkpt><trkpt lat="37.851215" lon="13.333645"><ele>520.6666666666667</ele><time>2026-05-05T08:32:22.565Z</time></trkpt><trkpt lat="37.8512983" lon="13.3335383"><ele>521.3333333333334</ele><time>2026-05-05T08:32:24.566Z</time></trkpt><trkpt lat="37.851395" lon="13.33343"><ele>522.0</ele><time>2026-05-05T08:32:26.567Z</time></trkpt><trkpt lat="37.8514433" lon="13.3333783"><ele>522.6666666666666</ele><time>2026-05-05T08:32:27.565Z</time></trkpt><trkpt lat="37.8514917" lon="13.333325"><ele>523.3333333333333</ele><time>2026-05-05T08:32:28.566Z</time></trkpt><trkpt lat="37.8515467" lon="13.3332767"><ele>524.0</ele><time>2026-05-05T08:32:29.566Z</time></trkpt><trkpt lat="37.8516267" lon="13.33318"><ele>524.0</ele><time>2026-05-05T08:32:31.565Z</time></trkpt><trkpt lat="37.8516983" lon="13.3330667"><ele>524.0</ele><time>2026-05-05T08:32:33.564Z</time></trkpt><trkpt lat="37.85177" lon="13.3329533"><ele>524.0</ele><time>2026-05-05T08:32:35.565Z</time></trkpt><trkpt lat="37.8518483" lon="13.332835"><ele>524.0</ele><time>2026-05-05T08:32:37.566Z</time></trkpt><trkpt lat="37.85193" lon="13.33272"><ele>525.8</ele><time>2026-05-05T08:32:39.566Z</time></trkpt><trkpt lat="37.851995" lon="13.3326217"><ele>527.5999999999999</ele><time>2026-05-05T08:32:41.565Z</time></trkpt><trkpt lat="37.85206" lon="13.3325283"><ele>529.4</ele><time>2026-05-05T08:32:43.566Z</time></trkpt><trkpt lat="37.85212" lon="13.33243"><ele>531.1999999999999</ele><time>2026-05-05T08:32:45.565Z</time></trkpt><trkpt lat="37.8521633" lon="13.3323367"><ele>533.0</ele><time>2026-05-05T08:32:47.566Z</time></trkpt><trkpt lat="37.8521733" lon="13.3322167"><ele>533.8</ele><time>2026-05-05T08:32:49.565Z</time></trkpt><trkpt lat="37.852155" lon="13.3320833"><ele>534.5999999999999</ele><time>2026-05-05T08:32:51.565Z</time></trkpt><trkpt lat="37.852145" lon="13.3319517"><ele>535.4000000000001</ele><time>2026-05-05T08:32:53.564Z</time></trkpt><trkpt lat="37.8521683" lon="13.3318133"><ele>536.2</ele><time>2026-05-05T08:32:55.566Z</time></trkpt><trkpt lat="37.8522217" lon="13.3316967"><ele>537.0</ele><time>2026-05-05T08:32:57.565Z</time></trkpt><trkpt lat="37.8522583" lon="13.331555"><ele>537.0</ele><time>2026-05-05T08:32:59.565Z</time></trkpt><trkpt lat="37.852295" lon="13.33143"><ele>537.0</ele><time>2026-05-05T08:33:01.566Z</time></trkpt><trkpt lat="37.8523317" lon="13.33134"><ele>537.0</ele><time>2026-05-05T08:33:03.565Z</time></trkpt><trkpt lat="37.8524217" lon="13.3311683"><ele>537.0</ele><time>2026-05-05T08:33:18.563Z</time></trkpt><trkpt lat="37.8524517" lon="13.3310933"><ele>537.0</ele><time>2026-05-05T08:33:19.564Z</time></trkpt><trkpt lat="37.852475" lon="13.3310133"><ele>538.0</ele><time>2026-05-05T08:33:20.566Z</time></trkpt><trkpt lat="37.85254" lon="13.330885"><ele>539.0</ele><time>2026-05-05T08:33:22.565Z</time></trkpt><trkpt lat="37.8526283" lon="13.330775"><ele>540.0</ele><time>2026-05-05T08:33:24.564Z</time></trkpt><trkpt lat="37.85272" lon="13.330665"><ele>541.0</ele><time>2026-05-05T08:33:26.565Z</time></trkpt><trkpt lat="37.8528067" lon="13.3305517"><ele>543.0</ele><time>2026-05-05T08:33:28.564Z</time></trkpt><trkpt lat="37.8528517" lon="13.3304867"><ele>545.0</ele><time>2026-05-05T08:33:29.568Z</time></trkpt><trkpt lat="37.8528967" lon="13.3304233"><ele>547.0</ele><time>2026-05-05T08:33:30.564Z</time></trkpt><trkpt lat="37.85295" lon="13.3303617"><ele>549.0</ele><time>2026-05-05T08:33:31.565Z</time></trkpt><trkpt lat="37.85301" lon="13.330305"><ele>551.0</ele><time>2026-05-05T08:33:32.566Z</time></trkpt><trkpt lat="37.8530567" lon="13.330245"><ele>553.0</ele><time>2026-05-05T08:33:33.564Z</time></trkpt><trkpt lat="37.8531233" lon="13.3301167"><ele>553.0</ele><time>2026-05-05T08:33:35.566Z</time></trkpt><trkpt lat="37.8531733" lon="13.3300283"><ele>553.0</ele><time>2026-05-05T08:33:37.566Z</time></trkpt><trkpt lat="37.8531717" lon="13.3298667"><ele>553.0</ele><time>2026-05-05T08:34:09.565Z</time></trkpt><trkpt lat="37.853105" lon="13.3298167"><ele>553.0</ele><time>2026-05-05T08:34:12.567Z</time></trkpt><trkpt lat="37.8530433" lon="13.3297983"><ele>553.0</ele><time>2026-05-05T08:34:14.565Z</time></trkpt><trkpt lat="37.8529667" lon="13.3297817"><ele>553.0</ele><time>2026-05-05T08:34:17.565Z</time></trkpt><trkpt lat="37.852885" lon="13.3297567"><ele>553.0</ele><time>2026-05-05T08:34:20.566Z</time></trkpt><trkpt lat="37.8528183" lon="13.3297583"><ele>553.0</ele><time>2026-05-05T08:34:36.565Z</time></trkpt><trkpt lat="37.852725" lon="13.32973"><ele>553.0</ele><time>2026-05-05T08:34:37.567Z</time></trkpt><trkpt lat="37.8526583" lon="13.329695"><ele>553.0</ele><time>2026-05-05T08:34:39.564Z</time></trkpt><trkpt lat="37.85271" lon="13.3297617"><ele>553.0</ele><time>2026-05-05T08:34:44.566Z</time></trkpt><trkpt lat="37.85278" lon="13.3297767"><ele>553.0</ele><time>2026-05-05T08:34:46.564Z</time></trkpt><trkpt lat="37.8528433" lon="13.3297867"><ele>553.0</ele><time>2026-05-05T08:34:48.564Z</time></trkpt><trkpt lat="37.852915" lon="13.329805"><ele>553.0</ele><time>2026-05-05T08:34:50.566Z</time></trkpt><trkpt lat="37.8529983" lon="13.3298317"><ele>553.0</ele><time>2026-05-05T08:34:52.566Z</time></trkpt><trkpt lat="37.8530883" lon="13.3298733"><ele>553.0</ele><time>2026-05-05T08:34:54.565Z</time></trkpt><trkpt lat="37.8531367" lon="13.3299383"><ele>553.0</ele><time>2026-05-05T08:34:56.566Z</time></trkpt><trkpt lat="37.8531267" lon="13.330045"><ele>553.0</ele><time>2026-05-05T08:34:59.565Z</time></trkpt><trkpt lat="37.8531033" lon="13.33014"><ele>553.0</ele><time>2026-05-05T08:35:02.564Z</time></trkpt><trkpt lat="37.8530617" lon="13.3302133"><ele>553.0</ele><time>2026-05-05T08:35:04.564Z</time></trkpt><trkpt lat="37.8530016" lon="13.3302857"><ele>553.0</ele><time>2026-05-05T08:35:06.566Z</time></trkpt><trkpt lat="37.8529461" lon="13.3303339"><ele>553.0</ele><time>2026-05-05T08:35:07.566Z</time></trkpt><trkpt lat="37.852876" lon="13.3304148"><ele>553.0</ele><time>2026-05-05T08:35:09.565Z</time></trkpt><trkpt lat="37.8528241" lon="13.3304858"><ele>553.0</ele><time>2026-05-05T08:35:11.566Z</time></trkpt><trkpt lat="37.8527672" lon="13.3305617"><ele>553.0</ele><time>2026-05-05T08:35:13.565Z</time></trkpt><trkpt lat="37.852702" lon="13.3306429"><ele>553.8</ele><time>2026-05-05T08:35:15.564Z</time></trkpt><trkpt lat="37.8526248" lon="13.330733"><ele>554.5999999999999</ele><time>2026-05-05T08:35:17.564Z</time></trkpt><trkpt lat="37.852553" lon="13.3308283"><ele>555.4000000000001</ele><time>2026-05-05T08:35:19.565Z</time></trkpt><trkpt lat="37.8524947" lon="13.3309167"><ele>556.2</ele><time>2026-05-05T08:35:21.564Z</time></trkpt><trkpt lat="37.8524562" lon="13.3310225"><ele>557.0</ele><time>2026-05-05T08:35:24.565Z</time></trkpt><trkpt lat="37.8524288" lon="13.3311138"><ele>554.3333333333333</ele><time>2026-05-05T08:35:26.565Z</time></trkpt><trkpt lat="37.8523791" lon="13.3312229"><ele>551.6666666666666</ele><time>2026-05-05T08:35:28.565Z</time></trkpt><trkpt lat="37.852327" lon="13.3313165"><ele>549.0</ele><time>2026-05-05T08:35:30.564Z</time></trkpt><trkpt lat="37.8522952" lon="13.3314092"><ele>546.3333333333334</ele><time>2026-05-05T08:35:32.567Z</time></trkpt><trkpt lat="37.8522618" lon="13.3315037"><ele>543.6666666666667</ele><time>2026-05-05T08:35:34.563Z</time></trkpt><trkpt lat="37.8522356" lon="13.3316007"><ele>541.0</ele><time>2026-05-05T08:35:36.565Z</time></trkpt><trkpt lat="37.8522025" lon="13.3316905"><ele>540.3333333333334</ele><time>2026-05-05T08:35:38.566Z</time></trkpt><trkpt lat="37.8521493" lon="13.3317908"><ele>539.6666666666667</ele><time>2026-05-05T08:35:40.564Z</time></trkpt><trkpt lat="37.8521127" lon="13.331902"><ele>539.0</ele><time>2026-05-05T08:35:42.565Z</time></trkpt><trkpt lat="37.8521136" lon="13.3320088"><ele>538.3333333333334</ele><time>2026-05-05T08:35:44.564Z</time></trkpt><trkpt lat="37.8521298" lon="13.3321084"><ele>537.6666666666666</ele><time>2026-05-05T08:35:46.564Z</time></trkpt><trkpt lat="37.8521497" lon="13.3322107"><ele>537.0</ele><time>2026-05-05T08:35:48.565Z</time></trkpt><trkpt lat="37.8521361" lon="13.332309"><ele>536.2</ele><time>2026-05-05T08:35:50.566Z</time></trkpt><trkpt lat="37.8520925" lon="13.3324053"><ele>535.4000000000001</ele><time>2026-05-05T08:35:52.565Z</time></trkpt><trkpt lat="37.8520307" lon="13.3325133"><ele>534.5999999999999</ele><time>2026-05-05T08:35:54.566Z</time></trkpt><trkpt lat="37.851966" lon="13.3326175"><ele>533.8</ele><time>2026-05-05T08:35:56.565Z</time></trkpt><trkpt lat="37.8518977" lon="13.3327264"><ele>533.0</ele><time>2026-05-05T08:35:58.564Z</time></trkpt><trkpt lat="37.8518242" lon="13.3328406"><ele>531.1999999999999</ele><time>2026-05-05T08:36:00.564Z</time></trkpt><trkpt lat="37.851755" lon="13.3329512"><ele>529.4</ele><time>2026-05-05T08:36:02.566Z</time></trkpt><trkpt lat="37.8517083" lon="13.3330333"><ele>527.5999999999999</ele><time>2026-05-05T08:36:04.565Z</time></trkpt><trkpt lat="37.8516583" lon="13.3331167"><ele>525.8</ele><time>2026-05-05T08:36:06.563Z</time></trkpt><trkpt lat="37.8515783" lon="13.333205"><ele>524.0</ele><time>2026-05-05T08:36:08.566Z</time></trkpt><trkpt lat="37.85148" lon="13.3332983"><ele>524.0</ele><time>2026-05-05T08:36:10.564Z</time></trkpt><trkpt lat="37.8513867" lon="13.3334083"><ele>524.0</ele><time>2026-05-05T08:36:12.566Z</time></trkpt><trkpt lat="37.8513383" lon="13.3334683"><ele>524.0</ele><time>2026-05-05T08:36:13.565Z</time></trkpt><trkpt lat="37.85129" lon="13.33353"><ele>524.0</ele><time>2026-05-05T08:36:14.565Z</time></trkpt><trkpt lat="37.8512383" lon="13.3335917"><ele>524.0</ele><time>2026-05-05T08:36:15.564Z</time></trkpt><trkpt lat="37.8511883" lon="13.333655"><ele>524.0</ele><time>2026-05-05T08:36:16.566Z</time></trkpt><trkpt lat="37.8511417" lon="13.3337167"><ele>524.0</ele><time>2026-05-05T08:36:17.565Z</time></trkpt><trkpt lat="37.8510933" lon="13.3337683"><ele>524.0</ele><time>2026-05-05T08:36:18.565Z</time></trkpt><trkpt lat="37.8510017" lon="13.3338733"><ele>524.0</ele><time>2026-05-05T08:36:20.566Z</time></trkpt><trkpt lat="37.8509583" lon="13.3339333"><ele>524.0</ele><time>2026-05-05T08:36:21.565Z</time></trkpt><trkpt lat="37.8508883" lon="13.334065"><ele>524.0</ele><time>2026-05-05T08:36:23.566Z</time></trkpt><trkpt lat="37.8508067" lon="13.3341717"><ele>523.3333333333333</ele><time>2026-05-05T08:36:25.565Z</time></trkpt><trkpt lat="37.8507033" lon="13.3342517"><ele>522.6666666666666</ele><time>2026-05-05T08:36:27.564Z</time></trkpt><trkpt lat="37.8506467" lon="13.334295"><ele>522.0</ele><time>2026-05-05T08:36:28.567Z</time></trkpt><trkpt lat="37.8505883" lon="13.334335"><ele>521.3333333333334</ele><time>2026-05-05T08:36:29.564Z</time></trkpt><trkpt lat="37.8505283" lon="13.3343783"><ele>520.6666666666667</ele><time>2026-05-05T08:36:30.563Z</time></trkpt><trkpt lat="37.8504717" lon="13.3344183"><ele>520.0</ele><time>2026-05-05T08:36:31.566Z</time></trkpt><trkpt lat="37.8504167" lon="13.3344617"><ele>520.0</ele><time>2026-05-05T08:36:32.565Z</time></trkpt><trkpt lat="37.8503233" lon="13.3345633"><ele>520.0</ele><time>2026-05-05T08:36:34.565Z</time></trkpt><trkpt lat="37.8502767" lon="13.3346333"><ele>520.0</ele><time>2026-05-05T08:36:35.566Z</time></trkpt><trkpt lat="37.8502333" lon="13.3347117"><ele>520.0</ele><time>2026-05-05T08:36:36.565Z</time></trkpt><trkpt lat="37.8501883" lon="13.3347933"><ele>520.0</ele><time>2026-05-05T08:36:37.566Z</time></trkpt><trkpt lat="37.85014" lon="13.33488"><ele>520.0</ele><time>2026-05-05T08:36:38.566Z</time></trkpt><trkpt lat="37.85009" lon="13.334965"><ele>519.3333333333334</ele><time>2026-05-05T08:36:39.565Z</time></trkpt><trkpt lat="37.8500417" lon="13.335045"><ele>518.6666666666667</ele><time>2026-05-05T08:36:40.565Z</time></trkpt><trkpt lat="37.8499917" lon="13.3351233"><ele>518.0</ele><time>2026-05-05T08:36:41.565Z</time></trkpt><trkpt lat="37.84994" lon="13.3351917"><ele>517.3333333333334</ele><time>2026-05-05T08:36:42.564Z</time></trkpt><trkpt lat="37.84988" lon="13.3352617"><ele>516.6666666666666</ele><time>2026-05-05T08:36:43.565Z</time></trkpt><trkpt lat="37.8498167" lon="13.3353333"><ele>516.0</ele><time>2026-05-05T08:36:44.565Z</time></trkpt><trkpt lat="37.849755" lon="13.3354017"><ele>516.0</ele><time>2026-05-05T08:36:45.565Z</time></trkpt><trkpt lat="37.8496917" lon="13.3354683"><ele>516.0</ele><time>2026-05-05T08:36:46.565Z</time></trkpt><trkpt lat="37.849625" lon="13.3355433"><ele>516.0</ele><time>2026-05-05T08:36:47.565Z</time></trkpt><trkpt lat="37.8495567" lon="13.3356217"><ele>516.0</ele><time>2026-05-05T08:36:48.564Z</time></trkpt><trkpt lat="37.84949" lon="13.3357"><ele>516.0</ele><time>2026-05-05T08:36:49.566Z</time></trkpt><trkpt lat="37.849425" lon="13.335775"><ele>516.0</ele><time>2026-05-05T08:36:50.565Z</time></trkpt><trkpt lat="37.8493533" lon="13.3358517"><ele>514.6666666666666</ele><time>2026-05-05T08:36:51.565Z</time></trkpt><trkpt lat="37.849285" lon="13.33592"><ele>513.3333333333334</ele><time>2026-05-05T08:36:52.566Z</time></trkpt><trkpt lat="37.8492167" lon="13.3359867"><ele>512.0</ele><time>2026-05-05T08:36:53.565Z</time></trkpt><trkpt lat="37.8491517" lon="13.33605"><ele>510.6666666666667</ele><time>2026-05-05T08:36:54.566Z</time></trkpt><trkpt lat="37.8490917" lon="13.3361083"><ele>509.33333333333337</ele><time>2026-05-05T08:36:55.564Z</time></trkpt><trkpt lat="37.849035" lon="13.3361583"><ele>508.0</ele><time>2026-05-05T08:36:56.565Z</time></trkpt><trkpt lat="37.8489817" lon="13.3362033"><ele>508.00000000000006</ele><time>2026-05-05T08:36:57.563Z</time></trkpt><trkpt lat="37.8489017" lon="13.33629"><ele>508.0</ele><time>2026-05-05T08:36:59.567Z</time></trkpt><trkpt lat="37.848845" lon="13.336235"><ele>508.0</ele><time>2026-05-05T08:37:04.565Z</time></trkpt><trkpt lat="37.8488783" lon="13.336145"><ele>508.0</ele><time>2026-05-05T08:37:07.565Z</time></trkpt><trkpt lat="37.8488867" lon="13.3360517"><ele>508.00000000000006</ele><time>2026-05-05T08:37:10.565Z</time></trkpt><trkpt lat="37.8488917" lon="13.33596"><ele>508.0</ele><time>2026-05-05T08:37:13.565Z</time></trkpt><trkpt lat="37.8488933" lon="13.3358717"><ele>508.00000000000006</ele><time>2026-05-05T08:37:15.565Z</time></trkpt><trkpt lat="37.8488933" lon="13.3357683"><ele>508.0</ele><time>2026-05-05T08:37:17.564Z</time></trkpt><trkpt lat="37.8488917" lon="13.3356483"><ele>508.0</ele><time>2026-05-05T08:37:19.565Z</time></trkpt><trkpt lat="37.8488883" lon="13.3355083"><ele>508.0</ele><time>2026-05-05T08:37:21.566Z</time></trkpt><trkpt lat="37.848885" lon="13.335425"><ele>508.00000000000006</ele><time>2026-05-05T08:37:22.565Z</time></trkpt><trkpt lat="37.8488783" lon="13.335335"><ele>508.0</ele><time>2026-05-05T08:37:23.565Z</time></trkpt><trkpt lat="37.8488717" lon="13.335245"><ele>507.28571428571433</ele><time>2026-05-05T08:37:24.564Z</time></trkpt><trkpt lat="37.848865" lon="13.3351567"><ele>506.57142857142856</ele><time>2026-05-05T08:37:25.566Z</time></trkpt><trkpt lat="37.84886" lon="13.33507"><ele>505.8571428571429</ele><time>2026-05-05T08:37:26.566Z</time></trkpt><trkpt lat="37.8488583" lon="13.3349833"><ele>505.14285714285717</ele><time>2026-05-05T08:37:27.565Z</time></trkpt><trkpt lat="37.8488567" lon="13.3349"><ele>504.42857142857144</ele><time>2026-05-05T08:37:28.565Z</time></trkpt><trkpt lat="37.8488517" lon="13.334815"><ele>503.7142857142857</ele><time>2026-05-05T08:37:29.566Z</time></trkpt><trkpt lat="37.84885" lon="13.3347317"><ele>503.0</ele><time>2026-05-05T08:37:30.565Z</time></trkpt><trkpt lat="37.8488433" lon="13.3346467"><ele>502.8333333333333</ele><time>2026-05-05T08:37:31.564Z</time></trkpt><trkpt lat="37.8488367" lon="13.3345633"><ele>502.66666666666663</ele><time>2026-05-05T08:37:32.565Z</time></trkpt><trkpt lat="37.84883" lon="13.334475"><ele>502.5</ele><time>2026-05-05T08:37:33.565Z</time></trkpt><trkpt lat="37.848825" lon="13.33437"><ele>502.33333333333337</ele><time>2026-05-05T08:37:34.566Z</time></trkpt><trkpt lat="37.8488233" lon="13.33426"><ele>502.1666666666667</ele><time>2026-05-05T08:37:35.565Z</time></trkpt><trkpt lat="37.84882" lon="13.334145"><ele>502.0</ele><time>2026-05-05T08:37:36.565Z</time></trkpt><trkpt lat="37.8488133" lon="13.3340267"><ele>502.00000000000006</ele><time>2026-05-05T08:37:37.564Z</time></trkpt><trkpt lat="37.8488083" lon="13.3339083"><ele>502.0</ele><time>2026-05-05T08:37:38.565Z</time></trkpt><trkpt lat="37.8488067" lon="13.3337967"><ele>502.0</ele><time>2026-05-05T08:37:39.566Z</time></trkpt><trkpt lat="37.8488167" lon="13.33369"><ele>502.0</ele><time>2026-05-05T08:37:40.563Z</time></trkpt><trkpt lat="37.8488333" lon="13.33359"><ele>502.00000000000006</ele><time>2026-05-05T08:37:41.564Z</time></trkpt><trkpt lat="37.8488517" lon="13.3335067"><ele>502.0</ele><time>2026-05-05T08:37:42.566Z</time></trkpt><trkpt lat="37.848875" lon="13.3334267"><ele>500.8571428571428</ele><time>2026-05-05T08:37:43.565Z</time></trkpt><trkpt lat="37.8488967" lon="13.3333467"><ele>499.71428571428567</ele><time>2026-05-05T08:37:44.568Z</time></trkpt><trkpt lat="37.8489267" lon="13.333265"><ele>498.57142857142856</ele><time>2026-05-05T08:37:45.564Z</time></trkpt><trkpt lat="37.8489617" lon="13.33318"><ele>497.4285714285714</ele><time>2026-05-05T08:37:46.565Z</time></trkpt><trkpt lat="37.8490017" lon="13.3330967"><ele>496.2857142857142</ele><time>2026-05-05T08:37:47.565Z</time></trkpt><trkpt lat="37.849045" lon="13.3330133"><ele>495.14285714285717</ele><time>2026-05-05T08:37:48.565Z</time></trkpt><trkpt lat="37.8490883" lon="13.3329367"><ele>494.0</ele><time>2026-05-05T08:37:49.564Z</time></trkpt><trkpt lat="37.8491383" lon="13.3328567"><ele>493.57142857142856</ele><time>2026-05-05T08:37:50.564Z</time></trkpt><trkpt lat="37.8491883" lon="13.33277"><ele>493.1428571428571</ele><time>2026-05-05T08:37:51.565Z</time></trkpt><trkpt lat="37.8492317" lon="13.3326833"><ele>492.71428571428567</ele><time>2026-05-05T08:37:52.565Z</time></trkpt><trkpt lat="37.84927" lon="13.3325967"><ele>492.2857142857143</ele><time>2026-05-05T08:37:53.565Z</time></trkpt><trkpt lat="37.8493033" lon="13.3325183"><ele>491.8571428571428</ele><time>2026-05-05T08:37:54.563Z</time></trkpt><trkpt lat="37.8493317" lon="13.3324433"><ele>491.4285714285714</ele><time>2026-05-05T08:37:55.564Z</time></trkpt><trkpt lat="37.8493633" lon="13.3323717"><ele>491.0</ele><time>2026-05-05T08:37:56.566Z</time></trkpt><trkpt lat="37.849405" lon="13.332235"><ele>491.6</ele><time>2026-05-05T08:37:58.564Z</time></trkpt><trkpt lat="37.8494167" lon="13.3320783"><ele>492.20000000000005</ele><time>2026-05-05T08:38:00.565Z</time></trkpt><trkpt lat="37.84941" lon="13.3319967"><ele>492.79999999999995</ele><time>2026-05-05T08:38:01.566Z</time></trkpt><trkpt lat="37.84939" lon="13.33192"><ele>493.4</ele><time>2026-05-05T08:38:02.566Z</time></trkpt><trkpt lat="37.849335" lon="13.3317867"><ele>494.0</ele><time>2026-05-05T08:38:04.566Z</time></trkpt><trkpt lat="37.8492583" lon="13.3316783"><ele>491.99999999999994</ele><time>2026-05-05T08:38:06.564Z</time></trkpt><trkpt lat="37.8491783" lon="13.331585"><ele>490.0</ele><time>2026-05-05T08:38:08.565Z</time></trkpt><trkpt lat="37.849115" lon="13.331465"><ele>488.0</ele><time>2026-05-05T08:38:10.566Z</time></trkpt><trkpt lat="37.849095" lon="13.3313867"><ele>486.0</ele><time>2026-05-05T08:38:11.565Z</time></trkpt><trkpt lat="37.849075" lon="13.331305"><ele>483.99999999999994</ele><time>2026-05-05T08:38:12.564Z</time></trkpt><trkpt lat="37.8490367" lon="13.33123"><ele>482.0</ele><time>2026-05-05T08:38:13.565Z</time></trkpt><trkpt lat="37.8489967" lon="13.3311483"><ele>481.99999999999994</ele><time>2026-05-05T08:38:14.567Z</time></trkpt><trkpt lat="37.8489517" lon="13.3310583"><ele>482.0</ele><time>2026-05-05T08:38:15.565Z</time></trkpt><trkpt lat="37.8489033" lon="13.3309667"><ele>482.0</ele><time>2026-05-05T08:38:16.566Z</time></trkpt><trkpt lat="37.8488533" lon="13.3308733"><ele>482.0</ele><time>2026-05-05T08:38:17.565Z</time></trkpt><trkpt lat="37.8488067" lon="13.330785"><ele>481.99999999999994</ele><time>2026-05-05T08:38:18.565Z</time></trkpt><trkpt lat="37.8487567" lon="13.3307017"><ele>482.0</ele><time>2026-05-05T08:38:19.565Z</time></trkpt><trkpt lat="37.84871" lon="13.3306217"><ele>482.0</ele><time>2026-05-05T08:38:20.564Z</time></trkpt><trkpt lat="37.84866" lon="13.33055"><ele>482.00000000000006</ele><time>2026-05-05T08:38:21.566Z</time></trkpt><trkpt lat="37.848615" lon="13.3304783"><ele>482.0</ele><time>2026-05-05T08:38:22.565Z</time></trkpt><trkpt lat="37.8485717" lon="13.33041"><ele>482.0</ele><time>2026-05-05T08:38:23.565Z</time></trkpt><trkpt lat="37.84853" lon="13.3303433"><ele>482.00000000000006</ele><time>2026-05-05T08:38:24.566Z</time></trkpt><trkpt lat="37.8484917" lon="13.3302767"><ele>482.0</ele><time>2026-05-05T08:38:25.563Z</time></trkpt><trkpt lat="37.8484517" lon="13.3302117"><ele>482.0</ele><time>2026-05-05T08:38:26.566Z</time></trkpt><trkpt lat="37.8484183" lon="13.3301367"><ele>479.8333333333333</ele><time>2026-05-05T08:38:27.564Z</time></trkpt><trkpt lat="37.84839" lon="13.3300567"><ele>477.66666666666663</ele><time>2026-05-05T08:38:28.565Z</time></trkpt><trkpt lat="37.8483583" lon="13.329965"><ele>475.5</ele><time>2026-05-05T08:38:29.566Z</time></trkpt><trkpt lat="37.8483233" lon="13.3298683"><ele>473.33333333333337</ele><time>2026-05-05T08:38:30.564Z</time></trkpt><trkpt lat="37.848295" lon="13.3297783"><ele>471.1666666666667</ele><time>2026-05-05T08:38:31.566Z</time></trkpt><trkpt lat="37.8482767" lon="13.3296933"><ele>469.0</ele><time>2026-05-05T08:38:32.566Z</time></trkpt><trkpt lat="37.8482617" lon="13.3295367"><ele>468.50000000000006</ele><time>2026-05-05T08:38:34.565Z</time></trkpt><trkpt lat="37.8482683" lon="13.329385"><ele>468.0</ele><time>2026-05-05T08:38:36.565Z</time></trkpt><trkpt lat="37.84829" lon="13.32923"><ele>467.5</ele><time>2026-05-05T08:38:38.565Z</time></trkpt><trkpt lat="37.8483083" lon="13.3291483"><ele>467.0</ele><time>2026-05-05T08:38:39.565Z</time></trkpt><trkpt lat="37.84833" lon="13.3290683"><ele>466.50000000000006</ele><time>2026-05-05T08:38:40.565Z</time></trkpt><trkpt lat="37.8483567" lon="13.32899"><ele>466.0</ele><time>2026-05-05T08:38:41.565Z</time></trkpt><trkpt lat="37.8483783" lon="13.32891"><ele>465.33333333333337</ele><time>2026-05-05T08:38:42.566Z</time></trkpt><trkpt lat="37.8483917" lon="13.32882"><ele>464.6666666666667</ele><time>2026-05-05T08:38:43.566Z</time></trkpt><trkpt lat="37.8483983" lon="13.3287233"><ele>464.0</ele><time>2026-05-05T08:38:44.565Z</time></trkpt><trkpt lat="37.848405" lon="13.3286217"><ele>463.33333333333337</ele><time>2026-05-05T08:38:45.564Z</time></trkpt><trkpt lat="37.8484117" lon="13.32852"><ele>462.6666666666667</ele><time>2026-05-05T08:38:46.564Z</time></trkpt><trkpt lat="37.84842" lon="13.3284233"><ele>462.0</ele><time>2026-05-05T08:38:47.565Z</time></trkpt><trkpt lat="37.8484333" lon="13.3283283"><ele>462.0</ele><time>2026-05-05T08:38:48.565Z</time></trkpt><trkpt lat="37.84844" lon="13.3282283"><ele>462.00000000000006</ele><time>2026-05-05T08:38:49.563Z</time></trkpt><trkpt lat="37.8484483" lon="13.3281217"><ele>462.00000000000006</ele><time>2026-05-05T08:38:50.566Z</time></trkpt><trkpt lat="37.84846" lon="13.3279983"><ele>462.0</ele><time>2026-05-05T08:38:51.565Z</time></trkpt><trkpt lat="37.8484733" lon="13.327865"><ele>462.0</ele><time>2026-05-05T08:38:52.564Z</time></trkpt><trkpt lat="37.8484833" lon="13.3277233"><ele>463.0</ele><time>2026-05-05T08:38:53.563Z</time></trkpt><trkpt lat="37.848495" lon="13.327575"><ele>464.0</ele><time>2026-05-05T08:38:54.564Z</time></trkpt><trkpt lat="37.848505" lon="13.3274183"><ele>465.0</ele><time>2026-05-05T08:38:55.566Z</time></trkpt><trkpt lat="37.8485133" lon="13.32725"><ele>466.0</ele><time>2026-05-05T08:38:56.565Z</time></trkpt><trkpt lat="37.84852" lon="13.3270783"><ele>466.0</ele><time>2026-05-05T08:38:57.564Z</time></trkpt><trkpt lat="37.8485267" lon="13.3269017"><ele>466.0</ele><time>2026-05-05T08:38:58.565Z</time></trkpt><trkpt lat="37.8485367" lon="13.326725"><ele>466.0</ele><time>2026-05-05T08:38:59.563Z</time></trkpt><trkpt lat="37.8485483" lon="13.3265533"><ele>466.0</ele><time>2026-05-05T08:39:00.563Z</time></trkpt><trkpt lat="37.84856" lon="13.326405"><ele>464.6666666666667</ele><time>2026-05-05T08:39:01.564Z</time></trkpt><trkpt lat="37.84857" lon="13.326285"><ele>463.33333333333337</ele><time>2026-05-05T08:39:02.565Z</time></trkpt><trkpt lat="37.8485767" lon="13.326185"><ele>462.0</ele><time>2026-05-05T08:39:03.564Z</time></trkpt><trkpt lat="37.848585" lon="13.3260867"><ele>460.66666666666663</ele><time>2026-05-05T08:39:04.565Z</time></trkpt><trkpt lat="37.8485917" lon="13.3259883"><ele>459.3333333333333</ele><time>2026-05-05T08:39:05.565Z</time></trkpt><trkpt lat="37.8485933" lon="13.325895"><ele>458.0</ele><time>2026-05-05T08:39:06.565Z</time></trkpt><trkpt lat="37.848595" lon="13.3258033"><ele>457.99999999999994</ele><time>2026-05-05T08:39:07.565Z</time></trkpt><trkpt lat="37.8486017" lon="13.3257167"><ele>458.0</ele><time>2026-05-05T08:39:08.565Z</time></trkpt><trkpt lat="37.84861" lon="13.32563"><ele>458.0</ele><time>2026-05-05T08:39:09.565Z</time></trkpt><trkpt lat="37.8486167" lon="13.3255483"><ele>458.0</ele><time>2026-05-05T08:39:10.564Z</time></trkpt><trkpt lat="37.8486283" lon="13.3254045"><ele>457.99999999999994</ele><time>2026-05-05T08:39:12.564Z</time></trkpt><trkpt lat="37.8486348" lon="13.3252439"><ele>458.0</ele><time>2026-05-05T08:39:14.566Z</time></trkpt><trkpt lat="37.8486331" lon="13.3251635"><ele>457.57142857142856</ele><time>2026-05-05T08:39:15.564Z</time></trkpt><trkpt lat="37.8486298" lon="13.3250838"><ele>457.14285714285717</ele><time>2026-05-05T08:39:16.565Z</time></trkpt><trkpt lat="37.8486156" lon="13.3250028"><ele>456.7142857142857</ele><time>2026-05-05T08:39:17.564Z</time></trkpt><trkpt lat="37.8485953" lon="13.3249181"><ele>456.2857142857143</ele><time>2026-05-05T08:39:18.563Z</time></trkpt><trkpt lat="37.8485655" lon="13.3248359"><ele>455.8571428571429</ele><time>2026-05-05T08:39:19.566Z</time></trkpt><trkpt lat="37.8485379" lon="13.324756"><ele>455.42857142857144</ele><time>2026-05-05T08:39:20.564Z</time></trkpt><trkpt lat="37.8485108" lon="13.3246835"><ele>455.0</ele><time>2026-05-05T08:39:21.563Z</time></trkpt><trkpt lat="37.8484582" lon="13.3245547"><ele>452.0</ele><time>2026-05-05T08:39:23.566Z</time></trkpt><trkpt lat="37.8484149" lon="13.3244265"><ele>449.0</ele><time>2026-05-05T08:39:25.565Z</time></trkpt><trkpt lat="37.8483912" lon="13.324268"><ele>446.0</ele><time>2026-05-05T08:39:27.564Z</time></trkpt><trkpt lat="37.8483889" lon="13.3241697"><ele>443.0</ele><time>2026-05-05T08:39:28.566Z</time></trkpt><trkpt lat="37.8483791" lon="13.3240601"><ele>440.0</ele><time>2026-05-05T08:39:29.566Z</time></trkpt><trkpt lat="37.8483623" lon="13.3239439"><ele>439.6</ele><time>2026-05-05T08:39:30.563Z</time></trkpt><trkpt lat="37.848341" lon="13.3238197"><ele>439.2</ele><time>2026-05-05T08:39:31.567Z</time></trkpt><trkpt lat="37.8483293" lon="13.3236842"><ele>438.79999999999995</ele><time>2026-05-05T08:39:32.566Z</time></trkpt><trkpt lat="37.848326" lon="13.3235376"><ele>438.4</ele><time>2026-05-05T08:39:33.564Z</time></trkpt><trkpt lat="37.8483163" lon="13.3233866"><ele>438.0</ele><time>2026-05-05T08:39:34.565Z</time></trkpt><trkpt lat="37.8483026" lon="13.3232324"><ele>438.0</ele><time>2026-05-05T08:39:35.565Z</time></trkpt><trkpt lat="37.84829" lon="13.3230804"><ele>438.0</ele><time>2026-05-05T08:39:36.564Z</time></trkpt><trkpt lat="37.8482789" lon="13.3229316"><ele>438.0</ele><time>2026-05-05T08:39:37.571Z</time></trkpt><trkpt lat="37.8482739" lon="13.3227849"><ele>438.0</ele><time>2026-05-05T08:39:38.566Z</time></trkpt><trkpt lat="37.8482734" lon="13.3226464"><ele>437.59999999999997</ele><time>2026-05-05T08:39:39.564Z</time></trkpt><trkpt lat="37.8482653" lon="13.3225201"><ele>437.19999999999993</ele><time>2026-05-05T08:39:40.566Z</time></trkpt><trkpt lat="37.8482458" lon="13.3223931"><ele>436.8</ele><time>2026-05-05T08:39:41.565Z</time></trkpt><trkpt lat="37.8482098" lon="13.3222668"><ele>436.4</ele><time>2026-05-05T08:39:42.564Z</time></trkpt><trkpt lat="37.8481608" lon="13.3221544"><ele>436.0</ele><time>2026-05-05T08:39:43.565Z</time></trkpt><trkpt lat="37.8481003" lon="13.322056"><ele>437.0</ele><time>2026-05-05T08:39:44.566Z</time></trkpt><trkpt lat="37.8480374" lon="13.3219632"><ele>438.0</ele><time>2026-05-05T08:39:45.565Z</time></trkpt><trkpt lat="37.8479788" lon="13.3218701"><ele>439.0</ele><time>2026-05-05T08:39:46.564Z</time></trkpt><trkpt lat="37.8479239" lon="13.3217812"><ele>440.0</ele><time>2026-05-05T08:39:47.565Z</time></trkpt><trkpt lat="37.8478669" lon="13.3216987"><ele>441.0</ele><time>2026-05-05T08:39:48.564Z</time></trkpt><trkpt lat="37.8478083" lon="13.3216183"><ele>441.0</ele><time>2026-05-05T08:39:49.565Z</time></trkpt><trkpt lat="37.8477537" lon="13.3215346"><ele>441.0</ele><time>2026-05-05T08:39:50.566Z</time></trkpt><trkpt lat="37.8477005" lon="13.3214517"><ele>441.0</ele><time>2026-05-05T08:39:51.564Z</time></trkpt><trkpt lat="37.847651" lon="13.3213699"><ele>441.0</ele><time>2026-05-05T08:39:52.565Z</time></trkpt><trkpt lat="37.8476058" lon="13.321296"><ele>441.0</ele><time>2026-05-05T08:39:53.564Z</time></trkpt><trkpt lat="37.8475671" lon="13.3212165"><ele>441.0</ele><time>2026-05-05T08:39:54.565Z</time></trkpt><trkpt lat="37.8475375" lon="13.3211265"><ele>437.20000000000005</ele><time>2026-05-05T08:39:55.564Z</time></trkpt><trkpt lat="37.8475178" lon="13.3210251"><ele>433.40000000000003</ele><time>2026-05-05T08:39:56.564Z</time></trkpt><trkpt lat="37.847502" lon="13.3209095"><ele>429.6</ele><time>2026-05-05T08:39:57.564Z</time></trkpt><trkpt lat="37.8474949" lon="13.3207798"><ele>425.8</ele><time>2026-05-05T08:39:58.565Z</time></trkpt><trkpt lat="37.8474952" lon="13.3206399"><ele>422.0</ele><time>2026-05-05T08:39:59.565Z</time></trkpt><trkpt lat="37.8475009" lon="13.3204977"><ele>421.6</ele><time>2026-05-05T08:40:00.565Z</time></trkpt><trkpt lat="37.847507" lon="13.3203627"><ele>421.20000000000005</ele><time>2026-05-05T08:40:01.565Z</time></trkpt><trkpt lat="37.8475131" lon="13.3202355"><ele>420.8</ele><time>2026-05-05T08:40:02.567Z</time></trkpt><trkpt lat="37.847521" lon="13.3201142"><ele>420.4</ele><time>2026-05-05T08:40:03.563Z</time></trkpt><trkpt lat="37.8475357" lon="13.3199962"><ele>420.0</ele><time>2026-05-05T08:40:04.564Z</time></trkpt><trkpt lat="37.847563" lon="13.3198782"><ele>420.0</ele><time>2026-05-05T08:40:05.563Z</time></trkpt><trkpt lat="37.8476023" lon="13.3197603"><ele>420.0</ele><time>2026-05-05T08:40:06.566Z</time></trkpt><trkpt lat="37.8476441" lon="13.3196439"><ele>420.0</ele><time>2026-05-05T08:40:07.567Z</time></trkpt><trkpt lat="37.8476797" lon="13.3195377"><ele>420.0</ele><time>2026-05-05T08:40:08.564Z</time></trkpt><trkpt lat="37.8477089" lon="13.3194387"><ele>420.0</ele><time>2026-05-05T08:40:09.565Z</time></trkpt><trkpt lat="37.8477346" lon="13.3193492"><ele>421.42857142857144</ele><time>2026-05-05T08:40:10.565Z</time></trkpt><trkpt lat="37.847754" lon="13.3192636"><ele>422.8571428571429</ele><time>2026-05-05T08:40:11.565Z</time></trkpt><trkpt lat="37.8477641" lon="13.3191722"><ele>424.2857142857143</ele><time>2026-05-05T08:40:12.565Z</time></trkpt><trkpt lat="37.8477669" lon="13.3190785"><ele>425.7142857142857</ele><time>2026-05-05T08:40:13.565Z</time></trkpt><trkpt lat="37.8477662" lon="13.3189898"><ele>427.14285714285717</ele><time>2026-05-05T08:40:14.566Z</time></trkpt><trkpt lat="37.8477661" lon="13.3189033"><ele>428.57142857142856</ele><time>2026-05-05T08:40:15.564Z</time></trkpt><trkpt lat="37.8477675" lon="13.3188097"><ele>430.0</ele><time>2026-05-05T08:40:16.564Z</time></trkpt><trkpt lat="37.8477748" lon="13.3187076"><ele>430.0</ele><time>2026-05-05T08:40:17.563Z</time></trkpt><trkpt lat="37.8477956" lon="13.3185966"><ele>430.0</ele><time>2026-05-05T08:40:18.563Z</time></trkpt><trkpt lat="37.8478195" lon="13.3184711"><ele>430.0</ele><time>2026-05-05T08:40:19.564Z</time></trkpt><trkpt lat="37.8478341" lon="13.3183327"><ele>430.0</ele><time>2026-05-05T08:40:20.564Z</time></trkpt><trkpt lat="37.8478382" lon="13.3181844"><ele>430.0</ele><time>2026-05-05T08:40:21.564Z</time></trkpt><trkpt lat="37.8478346" lon="13.3180278"><ele>430.0</ele><time>2026-05-05T08:40:22.564Z</time></trkpt><trkpt lat="37.8478267" lon="13.3178638"><ele>430.0</ele><time>2026-05-05T08:40:23.565Z</time></trkpt><trkpt lat="37.8478171" lon="13.3176926"><ele>430.0</ele><time>2026-05-05T08:40:24.565Z</time></trkpt><trkpt lat="37.8478073" lon="13.3175166"><ele>430.0</ele><time>2026-05-05T08:40:25.565Z</time></trkpt><trkpt lat="37.8477993" lon="13.317346"><ele>429.75</ele><time>2026-05-05T08:40:26.566Z</time></trkpt><trkpt lat="37.8477929" lon="13.3171865"><ele>429.5</ele><time>2026-05-05T08:40:27.565Z</time></trkpt><trkpt lat="37.8477822" lon="13.3170376"><ele>429.25</ele><time>2026-05-05T08:40:28.564Z</time></trkpt><trkpt lat="37.8477672" lon="13.3168879"><ele>429.0</ele><time>2026-05-05T08:40:29.565Z</time></trkpt><trkpt lat="37.8477482" lon="13.3167362"><ele>429.0</ele><time>2026-05-05T08:40:30.565Z</time></trkpt><trkpt lat="37.8477229" lon="13.3165781"><ele>429.0</ele><time>2026-05-05T08:40:31.564Z</time></trkpt><trkpt lat="37.84769" lon="13.3164115"><ele>429.0</ele><time>2026-05-05T08:40:32.564Z</time></trkpt><trkpt lat="37.8476581" lon="13.3162365"><ele>429.0</ele><time>2026-05-05T08:40:33.564Z</time></trkpt><trkpt lat="37.8476313" lon="13.3160535"><ele>426.66666666666663</ele><time>2026-05-05T08:40:34.565Z</time></trkpt><trkpt lat="37.8476037" lon="13.315866"><ele>424.3333333333333</ele><time>2026-05-05T08:40:35.566Z</time></trkpt><trkpt lat="37.8475713" lon="13.3156752"><ele>422.0</ele><time>2026-05-05T08:40:36.565Z</time></trkpt><trkpt lat="37.8475415" lon="13.3154832"><ele>422.0</ele><time>2026-05-05T08:40:37.566Z</time></trkpt><trkpt lat="37.847518" lon="13.3152955"><ele>422.0</ele><time>2026-05-05T08:40:38.566Z</time></trkpt><trkpt lat="37.8475067" lon="13.3151224"><ele>422.0</ele><time>2026-05-05T08:40:39.564Z</time></trkpt><trkpt lat="37.8475045" lon="13.3149661"><ele>422.0</ele><time>2026-05-05T08:40:40.565Z</time></trkpt><trkpt lat="37.8475055" lon="13.3148247"><ele>423.25</ele><time>2026-05-05T08:40:41.565Z</time></trkpt><trkpt lat="37.8475043" lon="13.314688"><ele>424.5</ele><time>2026-05-05T08:40:42.566Z</time></trkpt><trkpt lat="37.8475021" lon="13.3145484"><ele>425.75</ele><time>2026-05-05T08:40:43.564Z</time></trkpt><trkpt lat="37.8474987" lon="13.3144019"><ele>427.0</ele><time>2026-05-05T08:40:44.566Z</time></trkpt><trkpt lat="37.847493" lon="13.3142489"><ele>427.0</ele><time>2026-05-05T08:40:45.564Z</time></trkpt><trkpt lat="37.8474961" lon="13.3140933"><ele>427.0</ele><time>2026-05-05T08:40:46.563Z</time></trkpt><trkpt lat="37.8475189" lon="13.3139348"><ele>427.0</ele><time>2026-05-05T08:40:47.565Z</time></trkpt><trkpt lat="37.8475564" lon="13.3137731"><ele>427.0</ele><time>2026-05-05T08:40:48.564Z</time></trkpt><trkpt lat="37.84761" lon="13.3136083"><ele>430.75</ele><time>2026-05-05T08:40:49.567Z</time></trkpt><trkpt lat="37.8476567" lon="13.31344"><ele>434.5</ele><time>2026-05-05T08:40:50.565Z</time></trkpt><trkpt lat="37.8477067" lon="13.3132667"><ele>438.25</ele><time>2026-05-05T08:40:51.564Z</time></trkpt><trkpt lat="37.847755" lon="13.3130883"><ele>442.0</ele><time>2026-05-05T08:40:52.564Z</time></trkpt><trkpt lat="37.8478067" lon="13.3129133"><ele>442.25</ele><time>2026-05-05T08:40:53.565Z</time></trkpt><trkpt lat="37.8478583" lon="13.3127383"><ele>442.5</ele><time>2026-05-05T08:40:54.563Z</time></trkpt><trkpt lat="37.8479083" lon="13.312565"><ele>442.75</ele><time>2026-05-05T08:40:55.565Z</time></trkpt><trkpt lat="37.8479533" lon="13.31239"><ele>443.0</ele><time>2026-05-05T08:40:56.565Z</time></trkpt><trkpt lat="37.8479983" lon="13.3122133"><ele>442.25</ele><time>2026-05-05T08:40:57.564Z</time></trkpt><trkpt lat="37.8480467" lon="13.3120467"><ele>441.5</ele><time>2026-05-05T08:40:58.564Z</time></trkpt><trkpt lat="37.8480883" lon="13.3119"><ele>440.75</ele><time>2026-05-05T08:40:59.565Z</time></trkpt><trkpt lat="37.8481267" lon="13.31178"><ele>440.0</ele><time>2026-05-05T08:41:00.564Z</time></trkpt><trkpt lat="37.8481717" lon="13.3116717"><ele>440.0</ele><time>2026-05-05T08:41:01.567Z</time></trkpt><trkpt lat="37.84823" lon="13.3115783"><ele>440.0</ele><time>2026-05-05T08:41:02.566Z</time></trkpt><trkpt lat="37.8483117" lon="13.311515"><ele>440.0</ele><time>2026-05-05T08:41:03.565Z</time></trkpt><trkpt lat="37.8484083" lon="13.3114933"><ele>440.0</ele><time>2026-05-05T08:41:04.565Z</time></trkpt><trkpt lat="37.8485033" lon="13.31151"><ele>440.0</ele><time>2026-05-05T08:41:05.565Z</time></trkpt><trkpt lat="37.8485783" lon="13.3115733"><ele>443.2</ele><time>2026-05-05T08:41:06.565Z</time></trkpt><trkpt lat="37.84864" lon="13.311665"><ele>446.4</ele><time>2026-05-05T08:41:07.565Z</time></trkpt><trkpt lat="37.84868" lon="13.3117833"><ele>449.6</ele><time>2026-05-05T08:41:08.564Z</time></trkpt><trkpt lat="37.8487" lon="13.3119283"><ele>452.8</ele><time>2026-05-05T08:41:09.565Z</time></trkpt><trkpt lat="37.8487167" lon="13.3120867"><ele>456.0</ele><time>2026-05-05T08:41:10.564Z</time></trkpt><trkpt lat="37.848735" lon="13.3122617"><ele>457.25</ele><time>2026-05-05T08:41:11.565Z</time></trkpt><trkpt lat="37.8487567" lon="13.31244"><ele>458.5</ele><time>2026-05-05T08:41:12.565Z</time></trkpt><trkpt lat="37.848785" lon="13.31261"><ele>459.75</ele><time>2026-05-05T08:41:13.564Z</time></trkpt><trkpt lat="37.848825" lon="13.3127767"><ele>461.0</ele><time>2026-05-05T08:41:14.566Z</time></trkpt><trkpt lat="37.8488783" lon="13.3129333"><ele>459.5</ele><time>2026-05-05T08:41:15.564Z</time></trkpt><trkpt lat="37.8489517" lon="13.31308"><ele>458.0</ele><time>2026-05-05T08:41:16.565Z</time></trkpt><trkpt lat="37.8490467" lon="13.3132067"><ele>456.5</ele><time>2026-05-05T08:41:17.566Z</time></trkpt><trkpt lat="37.8491567" lon="13.313325"><ele>455.0</ele><time>2026-05-05T08:41:18.565Z</time></trkpt><trkpt lat="37.8492717" lon="13.3134433"><ele>460.66666666666663</ele><time>2026-05-05T08:41:19.565Z</time></trkpt><trkpt lat="37.8493883" lon="13.3135633"><ele>466.33333333333337</ele><time>2026-05-05T08:41:20.565Z</time></trkpt><trkpt lat="37.8495067" lon="13.313685"><ele>472.0</ele><time>2026-05-05T08:41:21.565Z</time></trkpt><trkpt lat="37.8496317" lon="13.313805"><ele>470.0</ele><time>2026-05-05T08:41:22.565Z</time></trkpt><trkpt lat="37.849755" lon="13.313925"><ele>468.0</ele><time>2026-05-05T08:41:23.566Z</time></trkpt><trkpt lat="37.8498817" lon="13.3140483"><ele>466.0</ele><time>2026-05-05T08:41:24.565Z</time></trkpt><trkpt lat="37.8500067" lon="13.31417"><ele>469.6666666666667</ele><time>2026-05-05T08:41:25.566Z</time></trkpt><trkpt lat="37.850135" lon="13.31429"><ele>473.33333333333337</ele><time>2026-05-05T08:41:26.565Z</time></trkpt><trkpt lat="37.8502667" lon="13.31441"><ele>477.0</ele><time>2026-05-05T08:41:27.564Z</time></trkpt><trkpt lat="37.8503933" lon="13.3145267"><ele>477.0</ele><time>2026-05-05T08:41:28.564Z</time></trkpt><trkpt lat="37.85051" lon="13.3146333"><ele>477.0</ele><time>2026-05-05T08:41:29.57Z</time></trkpt><trkpt lat="37.85062" lon="13.3147267"><ele>477.0</ele><time>2026-05-05T08:41:30.565Z</time></trkpt><trkpt lat="37.8507183" lon="13.314815"><ele>477.0</ele><time>2026-05-05T08:41:31.566Z</time></trkpt><trkpt lat="37.8508167" lon="13.31491"><ele>478.25</ele><time>2026-05-05T08:41:32.566Z</time></trkpt><trkpt lat="37.850915" lon="13.3150083"><ele>479.5</ele><time>2026-05-05T08:41:33.564Z</time></trkpt><trkpt lat="37.851015" lon="13.3151133"><ele>480.75</ele><time>2026-05-05T08:41:34.566Z</time></trkpt><trkpt lat="37.8511017" lon="13.3152317"><ele>482.0</ele><time>2026-05-05T08:41:35.565Z</time></trkpt><trkpt lat="37.8511733" lon="13.315365"><ele>482.0</ele><time>2026-05-05T08:41:36.565Z</time></trkpt><trkpt lat="37.8512317" lon="13.31551"><ele>482.0</ele><time>2026-05-05T08:41:37.566Z</time></trkpt><trkpt lat="37.8512783" lon="13.3156667"><ele>482.0</ele><time>2026-05-05T08:41:38.567Z</time></trkpt><trkpt lat="37.8513147" lon="13.3158303"><ele>482.0</ele><time>2026-05-05T08:41:39.563Z</time></trkpt><trkpt lat="37.851337" lon="13.3159956"><ele>482.40000000000003</ele><time>2026-05-05T08:41:40.565Z</time></trkpt><trkpt lat="37.8513443" lon="13.3161595"><ele>482.80000000000007</ele><time>2026-05-05T08:41:41.564Z</time></trkpt><trkpt lat="37.8513478" lon="13.3163108"><ele>483.2</ele><time>2026-05-05T08:41:42.565Z</time></trkpt><trkpt lat="37.8513599" lon="13.3164433"><ele>483.6</ele><time>2026-05-05T08:41:43.565Z</time></trkpt><trkpt lat="37.8513914" lon="13.3165458"><ele>484.0</ele><time>2026-05-05T08:41:44.566Z</time></trkpt><trkpt lat="37.8514428" lon="13.3166349"><ele>484.33333333333337</ele><time>2026-05-05T08:41:45.566Z</time></trkpt><trkpt lat="37.8515006" lon="13.3167155"><ele>484.6666666666667</ele><time>2026-05-05T08:41:46.563Z</time></trkpt><trkpt lat="37.8515717" lon="13.3167686"><ele>485.0</ele><time>2026-05-05T08:41:47.565Z</time></trkpt><trkpt lat="37.8516552" lon="13.3167957"><ele>485.33333333333337</ele><time>2026-05-05T08:41:48.565Z</time></trkpt><trkpt lat="37.8517452" lon="13.3167931"><ele>485.6666666666667</ele><time>2026-05-05T08:41:49.564Z</time></trkpt><trkpt lat="37.8518446" lon="13.3167529"><ele>486.0</ele><time>2026-05-05T08:41:50.57Z</time></trkpt><trkpt lat="37.851946" lon="13.3166757"><ele>487.5</ele><time>2026-05-05T08:41:51.564Z</time></trkpt><trkpt lat="37.852039" lon="13.3165623"><ele>489.0</ele><time>2026-05-05T08:41:52.565Z</time></trkpt><trkpt lat="37.8521262" lon="13.3164212"><ele>490.5</ele><time>2026-05-05T08:41:53.564Z</time></trkpt><trkpt lat="37.8522186" lon="13.316282"><ele>492.0</ele><time>2026-05-05T08:41:54.565Z</time></trkpt><trkpt lat="37.852311" lon="13.3161383"><ele>492.0</ele><time>2026-05-05T08:41:55.566Z</time></trkpt><trkpt lat="37.8524026" lon="13.3159917"><ele>492.0</ele><time>2026-05-05T08:41:56.565Z</time></trkpt><trkpt lat="37.8525029" lon="13.315837"><ele>492.0</ele><time>2026-05-05T08:41:57.564Z</time></trkpt><trkpt lat="37.8526013" lon="13.3156844"><ele>493.75</ele><time>2026-05-05T08:41:58.566Z</time></trkpt><trkpt lat="37.852693" lon="13.3155443"><ele>495.5</ele><time>2026-05-05T08:41:59.565Z</time></trkpt><trkpt lat="37.8527787" lon="13.3154185"><ele>497.25</ele><time>2026-05-05T08:42:00.564Z</time></trkpt><trkpt lat="37.8528657" lon="13.3152935"><ele>499.0</ele><time>2026-05-05T08:42:01.565Z</time></trkpt><trkpt lat="37.8529603" lon="13.3151746"><ele>499.0</ele><time>2026-05-05T08:42:02.567Z</time></trkpt><trkpt lat="37.8530685" lon="13.3150646"><ele>499.0</ele><time>2026-05-05T08:42:03.567Z</time></trkpt><trkpt lat="37.853185" lon="13.3149573"><ele>499.0</ele><time>2026-05-05T08:42:04.564Z</time></trkpt><trkpt lat="37.8533049" lon="13.3148484"><ele>499.0</ele><time>2026-05-05T08:42:05.564Z</time></trkpt><trkpt lat="37.8534243" lon="13.3147329"><ele>500.5</ele><time>2026-05-05T08:42:06.563Z</time></trkpt><trkpt lat="37.8535433" lon="13.3146132"><ele>502.0</ele><time>2026-05-05T08:42:07.566Z</time></trkpt><trkpt lat="37.8536598" lon="13.3144901"><ele>503.5</ele><time>2026-05-05T08:42:08.566Z</time></trkpt><trkpt lat="37.8537709" lon="13.3143742"><ele>505.0</ele><time>2026-05-05T08:42:09.566Z</time></trkpt><trkpt lat="37.8538731" lon="13.3142724"><ele>505.0</ele><time>2026-05-05T08:42:10.566Z</time></trkpt><trkpt lat="37.8539652" lon="13.3141793"><ele>505.0</ele><time>2026-05-05T08:42:11.565Z</time></trkpt><trkpt lat="37.8540507" lon="13.3140919"><ele>505.0</ele><time>2026-05-05T08:42:12.565Z</time></trkpt><trkpt lat="37.8541382" lon="13.3140037"><ele>505.0</ele><time>2026-05-05T08:42:13.565Z</time></trkpt><trkpt lat="37.8542315" lon="13.3139108"><ele>505.75</ele><time>2026-05-05T08:42:14.565Z</time></trkpt><trkpt lat="37.8543307" lon="13.3138115"><ele>506.5</ele><time>2026-05-05T08:42:15.565Z</time></trkpt><trkpt lat="37.8544358" lon="13.3137072"><ele>507.25</ele><time>2026-05-05T08:42:16.565Z</time></trkpt><trkpt lat="37.8545395" lon="13.3136051"><ele>508.0</ele><time>2026-05-05T08:42:17.565Z</time></trkpt><trkpt lat="37.8546336" lon="13.3135136"><ele>508.0</ele><time>2026-05-05T08:42:18.565Z</time></trkpt><trkpt lat="37.8547204" lon="13.3134335"><ele>508.0</ele><time>2026-05-05T08:42:19.563Z</time></trkpt><trkpt lat="37.854819" lon="13.3133698"><ele>508.0</ele><time>2026-05-05T08:42:20.565Z</time></trkpt><trkpt lat="37.8549348" lon="13.3133309"><ele>508.0</ele><time>2026-05-05T08:42:21.565Z</time></trkpt><trkpt lat="37.8550621" lon="13.3133186"><ele>508.0</ele><time>2026-05-05T08:42:22.564Z</time></trkpt><trkpt lat="37.8551959" lon="13.3133244"><ele>508.0</ele><time>2026-05-05T08:42:23.564Z</time></trkpt><trkpt lat="37.8553355" lon="13.3133329"><ele>508.0</ele><time>2026-05-05T08:42:24.563Z</time></trkpt><trkpt lat="37.855481" lon="13.3133372"><ele>508.0</ele><time>2026-05-05T08:42:25.565Z</time></trkpt><trkpt lat="37.8556318" lon="13.3133402"><ele>508.0</ele><time>2026-05-05T08:42:26.565Z</time></trkpt><trkpt lat="37.8557897" lon="13.3133414"><ele>508.0</ele><time>2026-05-05T08:42:27.565Z</time></trkpt><trkpt lat="37.8559514" lon="13.3133396"><ele>508.0</ele><time>2026-05-05T08:42:28.566Z</time></trkpt><trkpt lat="37.8561167" lon="13.3133325"><ele>509.33333333333337</ele><time>2026-05-05T08:42:29.564Z</time></trkpt><trkpt lat="37.856284" lon="13.313316"><ele>510.66666666666663</ele><time>2026-05-05T08:42:30.565Z</time></trkpt><trkpt lat="37.8564466" lon="13.313287"><ele>512.0</ele><time>2026-05-05T08:42:31.565Z</time></trkpt><trkpt lat="37.8565985" lon="13.3132494"><ele>512.0</ele><time>2026-05-05T08:42:32.566Z</time></trkpt><trkpt lat="37.8567385" lon="13.3132083"><ele>512.0</ele><time>2026-05-05T08:42:33.564Z</time></trkpt><trkpt lat="37.85687" lon="13.3131714"><ele>512.0</ele><time>2026-05-05T08:42:34.565Z</time></trkpt><trkpt lat="37.8569981" lon="13.3131382"><ele>512.0</ele><time>2026-05-05T08:42:35.566Z</time></trkpt><trkpt lat="37.8571274" lon="13.3131068"><ele>512.0</ele><time>2026-05-05T08:42:36.564Z</time></trkpt><trkpt lat="37.8572599" lon="13.3130763"><ele>512.0</ele><time>2026-05-05T08:42:37.566Z</time></trkpt><trkpt lat="37.8573941" lon="13.3130516"><ele>512.0</ele><time>2026-05-05T08:42:38.565Z</time></trkpt><trkpt lat="37.8575305" lon="13.3130321"><ele>512.0</ele><time>2026-05-05T08:42:39.566Z</time></trkpt><trkpt lat="37.8576679" lon="13.3130166"><ele>511.75</ele><time>2026-05-05T08:42:40.565Z</time></trkpt><trkpt lat="37.8578083" lon="13.313001"><ele>511.5</ele><time>2026-05-05T08:42:41.565Z</time></trkpt><trkpt lat="37.8579511" lon="13.3129829"><ele>511.25</ele><time>2026-05-05T08:42:42.564Z</time></trkpt><trkpt lat="37.8580916" lon="13.3129645"><ele>511.0</ele><time>2026-05-05T08:42:43.564Z</time></trkpt><trkpt lat="37.8582239" lon="13.3129496"><ele>511.0</ele><time>2026-05-05T08:42:44.567Z</time></trkpt><trkpt lat="37.8583519" lon="13.3129369"><ele>511.0</ele><time>2026-05-05T08:42:45.564Z</time></trkpt><trkpt lat="37.8584829" lon="13.3129221"><ele>511.0</ele><time>2026-05-05T08:42:46.564Z</time></trkpt><trkpt lat="37.8586182" lon="13.3129079"><ele>511.0</ele><time>2026-05-05T08:42:47.565Z</time></trkpt><trkpt lat="37.8587562" lon="13.3128931"><ele>511.5</ele><time>2026-05-05T08:42:48.566Z</time></trkpt><trkpt lat="37.8588966" lon="13.3128812"><ele>512.0</ele><time>2026-05-05T08:42:49.564Z</time></trkpt><trkpt lat="37.8590373" lon="13.3128681"><ele>512.5</ele><time>2026-05-05T08:42:50.565Z</time></trkpt><trkpt lat="37.8591791" lon="13.312852"><ele>513.0</ele><time>2026-05-05T08:42:51.565Z</time></trkpt><trkpt lat="37.8593203" lon="13.3128355"><ele>513.25</ele><time>2026-05-05T08:42:52.565Z</time></trkpt><trkpt lat="37.8594607" lon="13.3128199"><ele>513.5</ele><time>2026-05-05T08:42:53.564Z</time></trkpt><trkpt lat="37.8596031" lon="13.3128053"><ele>513.75</ele><time>2026-05-05T08:42:54.565Z</time></trkpt><trkpt lat="37.8597452" lon="13.3127909"><ele>514.0</ele><time>2026-05-05T08:42:55.566Z</time></trkpt><trkpt lat="37.8598879" lon="13.3127751"><ele>514.0</ele><time>2026-05-05T08:42:56.565Z</time></trkpt><trkpt lat="37.8600334" lon="13.3127587"><ele>514.0</ele><time>2026-05-05T08:42:57.564Z</time></trkpt><trkpt lat="37.8601802" lon="13.3127409"><ele>514.0</ele><time>2026-05-05T08:42:58.565Z</time></trkpt><trkpt lat="37.8603274" lon="13.3127177"><ele>514.0</ele><time>2026-05-05T08:42:59.565Z</time></trkpt><trkpt lat="37.8604722" lon="13.312679"><ele>515.25</ele><time>2026-05-05T08:43:00.564Z</time></trkpt><trkpt lat="37.8606052" lon="13.3126014"><ele>516.5</ele><time>2026-05-05T08:43:01.564Z</time></trkpt><trkpt lat="37.8607322" lon="13.3125129"><ele>517.75</ele><time>2026-05-05T08:43:02.565Z</time></trkpt><trkpt lat="37.8608487" lon="13.3124009"><ele>519.0</ele><time>2026-05-05T08:43:03.564Z</time></trkpt><trkpt lat="37.860959" lon="13.3122758"><ele>521.3333333333334</ele><time>2026-05-05T08:43:04.565Z</time></trkpt><trkpt lat="37.8610624" lon="13.3121391"><ele>523.6666666666667</ele><time>2026-05-05T08:43:05.565Z</time></trkpt><trkpt lat="37.8611633" lon="13.311997"><ele>526.0</ele><time>2026-05-05T08:43:06.565Z</time></trkpt><trkpt lat="37.8612659" lon="13.3118566"><ele>526.0</ele><time>2026-05-05T08:43:07.566Z</time></trkpt><trkpt lat="37.8613703" lon="13.3117166"><ele>526.0</ele><time>2026-05-05T08:43:08.566Z</time></trkpt><trkpt lat="37.861476" lon="13.3115746"><ele>526.0</ele><time>2026-05-05T08:43:09.565Z</time></trkpt><trkpt lat="37.8615815" lon="13.3114326"><ele>526.3333333333334</ele><time>2026-05-05T08:43:10.565Z</time></trkpt><trkpt lat="37.8616887" lon="13.3112877"><ele>526.6666666666666</ele><time>2026-05-05T08:43:11.564Z</time></trkpt><trkpt lat="37.8617974" lon="13.3111409"><ele>527.0</ele><time>2026-05-05T08:43:12.565Z</time></trkpt><trkpt lat="37.8619062" lon="13.3109927"><ele>527.0</ele><time>2026-05-05T08:43:13.565Z</time></trkpt><trkpt lat="37.8620148" lon="13.3108449"><ele>527.0</ele><time>2026-05-05T08:43:14.565Z</time></trkpt><trkpt lat="37.8621198" lon="13.3106985"><ele>527.0</ele><time>2026-05-05T08:43:15.565Z</time></trkpt><trkpt lat="37.8622253" lon="13.3105557"><ele>523.6666666666666</ele><time>2026-05-05T08:43:16.565Z</time></trkpt><trkpt lat="37.8623301" lon="13.310416"><ele>520.3333333333334</ele><time>2026-05-05T08:43:17.566Z</time></trkpt><trkpt lat="37.8624324" lon="13.310274"><ele>517.0</ele><time>2026-05-05T08:43:18.565Z</time></trkpt><trkpt lat="37.8625329" lon="13.3101309"><ele>517.3333333333334</ele><time>2026-05-05T08:43:19.565Z</time></trkpt><trkpt lat="37.8626349" lon="13.309989"><ele>517.6666666666666</ele><time>2026-05-05T08:43:20.565Z</time></trkpt><trkpt lat="37.8627411" lon="13.3098499"><ele>518.0</ele><time>2026-05-05T08:43:21.565Z</time></trkpt><trkpt lat="37.862851" lon="13.3097135"><ele>518.0</ele><time>2026-05-05T08:43:22.565Z</time></trkpt><trkpt lat="37.8629677" lon="13.3095799"><ele>518.0</ele><time>2026-05-05T08:43:23.565Z</time></trkpt><trkpt lat="37.8630885" lon="13.3094506"><ele>518.0</ele><time>2026-05-05T08:43:24.564Z</time></trkpt><trkpt lat="37.8632161" lon="13.3093251"><ele>518.0</ele><time>2026-05-05T08:43:25.565Z</time></trkpt><trkpt lat="37.8633497" lon="13.3092057"><ele>518.0</ele><time>2026-05-05T08:43:26.565Z</time></trkpt><trkpt lat="37.8634915" lon="13.3090943"><ele>518.0</ele><time>2026-05-05T08:43:27.565Z</time></trkpt><trkpt lat="37.8636415" lon="13.3089924"><ele>515.3333333333333</ele><time>2026-05-05T08:43:28.565Z</time></trkpt><trkpt lat="37.8637995" lon="13.3088988"><ele>512.6666666666666</ele><time>2026-05-05T08:43:29.565Z</time></trkpt><trkpt lat="37.8639596" lon="13.3088152"><ele>510.0</ele><time>2026-05-05T08:43:30.564Z</time></trkpt><trkpt lat="37.8641175" lon="13.3087456"><ele>510.0</ele><time>2026-05-05T08:43:31.57Z</time></trkpt><trkpt lat="37.8642706" lon="13.30869"><ele>510.0</ele><time>2026-05-05T08:43:32.566Z</time></trkpt><trkpt lat="37.8644198" lon="13.3086446"><ele>510.0</ele><time>2026-05-05T08:43:33.564Z</time></trkpt><trkpt lat="37.8645712" lon="13.308608"><ele>509.33333333333337</ele><time>2026-05-05T08:43:34.565Z</time></trkpt><trkpt lat="37.8647269" lon="13.3085799"><ele>508.6666666666667</ele><time>2026-05-05T08:43:35.564Z</time></trkpt><trkpt lat="37.8648878" lon="13.3085594"><ele>508.0</ele><time>2026-05-05T08:43:36.565Z</time></trkpt><trkpt lat="37.8650543" lon="13.308551"><ele>507.0</ele><time>2026-05-05T08:43:37.565Z</time></trkpt><trkpt lat="37.865226" lon="13.3085569"><ele>506.0</ele><time>2026-05-05T08:43:38.565Z</time></trkpt><trkpt lat="37.8654032" lon="13.3085729"><ele>505.0</ele><time>2026-05-05T08:43:39.565Z</time></trkpt><trkpt lat="37.865579" lon="13.3085949"><ele>505.0</ele><time>2026-05-05T08:43:40.564Z</time></trkpt><trkpt lat="37.8657485" lon="13.3086205"><ele>505.0</ele><time>2026-05-05T08:43:41.564Z</time></trkpt><trkpt lat="37.8659009" lon="13.3086483"><ele>505.0</ele><time>2026-05-05T08:43:42.564Z</time></trkpt><trkpt lat="37.8660369" lon="13.3086727"><ele>503.5</ele><time>2026-05-05T08:43:43.565Z</time></trkpt><trkpt lat="37.8661599" lon="13.3086934"><ele>502.0</ele><time>2026-05-05T08:43:44.566Z</time></trkpt><trkpt lat="37.8662766" lon="13.3087136"><ele>500.5</ele><time>2026-05-05T08:43:45.564Z</time></trkpt><trkpt lat="37.8663899" lon="13.3087328"><ele>499.0</ele><time>2026-05-05T08:43:46.564Z</time></trkpt><trkpt lat="37.8665003" lon="13.30875"><ele>499.0</ele><time>2026-05-05T08:43:47.564Z</time></trkpt><trkpt lat="37.8666089" lon="13.3087658"><ele>499.0</ele><time>2026-05-05T08:43:48.565Z</time></trkpt><trkpt lat="37.8667136" lon="13.3087859"><ele>499.0</ele><time>2026-05-05T08:43:49.566Z</time></trkpt><trkpt lat="37.8668136" lon="13.3088058"><ele>499.0</ele><time>2026-05-05T08:43:50.564Z</time></trkpt><trkpt lat="37.8669101" lon="13.3088233"><ele>499.0</ele><time>2026-05-05T08:43:51.565Z</time></trkpt><trkpt lat="37.867002" lon="13.3088385"><ele>499.00000000000006</ele><time>2026-05-05T08:43:52.565Z</time></trkpt><trkpt lat="37.8670898" lon="13.3088521"><ele>499.0</ele><time>2026-05-05T08:43:53.563Z</time></trkpt><trkpt lat="37.8671733" lon="13.3088672"><ele>499.0</ele><time>2026-05-05T08:43:54.564Z</time></trkpt><trkpt lat="37.8672545" lon="13.3088833"><ele>499.0</ele><time>2026-05-05T08:43:55.566Z</time></trkpt><trkpt lat="37.8673314" lon="13.3089002"><ele>499.00000000000006</ele><time>2026-05-05T08:43:56.566Z</time></trkpt><trkpt lat="37.8674003" lon="13.3089111"><ele>499.0</ele><time>2026-05-05T08:43:57.565Z</time></trkpt><trkpt lat="37.8674904" lon="13.3088837"><ele>499.00000000000006</ele><time>2026-05-05T08:43:59.565Z</time></trkpt><trkpt lat="37.8674667" lon="13.3088075"><ele>499.0</ele><time>2026-05-05T08:44:01.564Z</time></trkpt><trkpt lat="37.8674056" lon="13.3087633"><ele>499.0</ele><time>2026-05-05T08:44:03.565Z</time></trkpt><trkpt lat="37.8673407" lon="13.3086961"><ele>499.0</ele><time>2026-05-05T08:44:05.565Z</time></trkpt><trkpt lat="37.8673306" lon="13.3085668"><ele>499.00000000000006</ele><time>2026-05-05T08:44:07.565Z</time></trkpt><trkpt lat="37.8673597" lon="13.3084478"><ele>499.0</ele><time>2026-05-05T08:44:09.563Z</time></trkpt><trkpt lat="37.8673848" lon="13.3083402"><ele>499.0</ele><time>2026-05-05T08:44:13.564Z</time></trkpt><trkpt lat="37.8673967" lon="13.3082464"><ele>499.0</ele><time>2026-05-05T08:44:16.563Z</time></trkpt><trkpt lat="37.8673332" lon="13.3081665"><ele>499.0</ele><time>2026-05-05T08:44:19.562Z</time></trkpt><trkpt lat="37.8672648" lon="13.3081291"><ele>499.0</ele><time>2026-05-05T08:44:21.564Z</time></trkpt><trkpt lat="37.8671887" lon="13.3080482"><ele>499.0</ele><time>2026-05-05T08:44:23.564Z</time></trkpt><trkpt lat="37.867105" lon="13.3079341"><ele>497.50000000000006</ele><time>2026-05-05T08:44:25.566Z</time></trkpt><trkpt lat="37.867025" lon="13.3078248"><ele>496.0</ele><time>2026-05-05T08:44:27.564Z</time></trkpt><trkpt lat="37.8669807" lon="13.3077603"><ele>494.5</ele><time>2026-05-05T08:44:28.565Z</time></trkpt><trkpt lat="37.8669317" lon="13.3076815"><ele>493.0</ele><time>2026-05-05T08:44:29.565Z</time></trkpt><trkpt lat="37.8668859" lon="13.307592"><ele>491.50000000000006</ele><time>2026-05-05T08:44:30.564Z</time></trkpt><trkpt lat="37.8668439" lon="13.3074963"><ele>490.0</ele><time>2026-05-05T08:44:31.565Z</time></trkpt><trkpt lat="37.8668018" lon="13.3073994"><ele>490.4</ele><time>2026-05-05T08:44:32.565Z</time></trkpt><trkpt lat="37.866758" lon="13.3073036"><ele>490.8</ele><time>2026-05-05T08:44:33.564Z</time></trkpt><trkpt lat="37.8667107" lon="13.3072059"><ele>491.20000000000005</ele><time>2026-05-05T08:44:34.564Z</time></trkpt><trkpt lat="37.8666636" lon="13.3071035"><ele>491.6</ele><time>2026-05-05T08:44:35.565Z</time></trkpt><trkpt lat="37.8666152" lon="13.3069979"><ele>492.0</ele><time>2026-05-05T08:44:36.564Z</time></trkpt><trkpt lat="37.8665648" lon="13.3068916"><ele>491.0</ele><time>2026-05-05T08:44:37.567Z</time></trkpt><trkpt lat="37.8665116" lon="13.3067844"><ele>490.00000000000006</ele><time>2026-05-05T08:44:38.566Z</time></trkpt><trkpt lat="37.8664579" lon="13.3066732"><ele>489.00000000000006</ele><time>2026-05-05T08:44:39.567Z</time></trkpt><trkpt lat="37.8664065" lon="13.3065635"><ele>488.0</ele><time>2026-05-05T08:44:40.566Z</time></trkpt><trkpt lat="37.8663571" lon="13.3064597"><ele>487.0</ele><time>2026-05-05T08:44:41.565Z</time></trkpt><trkpt lat="37.8663074" lon="13.3063539"><ele>486.20000000000005</ele><time>2026-05-05T08:44:42.565Z</time></trkpt><trkpt lat="37.8662576" lon="13.3062448"><ele>485.40000000000003</ele><time>2026-05-05T08:44:43.566Z</time></trkpt><trkpt lat="37.8662056" lon="13.3061313"><ele>484.59999999999997</ele><time>2026-05-05T08:44:44.565Z</time></trkpt><trkpt lat="37.8661521" lon="13.3060168"><ele>483.79999999999995</ele><time>2026-05-05T08:44:45.564Z</time></trkpt><trkpt lat="37.8660973" lon="13.3059057"><ele>483.0</ele><time>2026-05-05T08:44:46.565Z</time></trkpt><trkpt lat="37.8660394" lon="13.3057953"><ele>483.0</ele><time>2026-05-05T08:44:47.563Z</time></trkpt><trkpt lat="37.8659802" lon="13.3056799"><ele>482.99999999999994</ele><time>2026-05-05T08:44:48.564Z</time></trkpt><trkpt lat="37.8659228" lon="13.3055603"><ele>482.99999999999994</ele><time>2026-05-05T08:44:49.564Z</time></trkpt><trkpt lat="37.8658665" lon="13.3054392"><ele>483.0</ele><time>2026-05-05T08:44:50.566Z</time></trkpt><trkpt lat="37.8658063" lon="13.3053198"><ele>483.0</ele><time>2026-05-05T08:44:51.567Z</time></trkpt><trkpt lat="37.8657452" lon="13.3051982"><ele>483.0</ele><time>2026-05-05T08:44:52.564Z</time></trkpt><trkpt lat="37.8656839" lon="13.3050736"><ele>483.0</ele><time>2026-05-05T08:44:53.565Z</time></trkpt><trkpt lat="37.8656224" lon="13.3049424"><ele>483.0</ele><time>2026-05-05T08:44:54.565Z</time></trkpt><trkpt lat="37.8655709" lon="13.3048124"><ele>483.0</ele><time>2026-05-05T08:44:55.564Z</time></trkpt><trkpt lat="37.8655287" lon="13.3046854"><ele>482.6666666666667</ele><time>2026-05-05T08:44:56.569Z</time></trkpt><trkpt lat="37.8655023" lon="13.3045655"><ele>482.33333333333337</ele><time>2026-05-05T08:44:57.564Z</time></trkpt><trkpt lat="37.8654918" lon="13.3044531"><ele>482.0</ele><time>2026-05-05T08:44:58.564Z</time></trkpt><trkpt lat="37.8654921" lon="13.304342"><ele>481.6666666666667</ele><time>2026-05-05T08:44:59.563Z</time></trkpt><trkpt lat="37.8654998" lon="13.3042323"><ele>481.33333333333337</ele><time>2026-05-05T08:45:00.565Z</time></trkpt><trkpt lat="37.8655095" lon="13.3041278"><ele>481.0</ele><time>2026-05-05T08:45:01.565Z</time></trkpt><trkpt lat="37.8655204" lon="13.3040276"><ele>481.00000000000006</ele><time>2026-05-05T08:45:02.564Z</time></trkpt><trkpt lat="37.8655315" lon="13.3039303"><ele>481.0</ele><time>2026-05-05T08:45:03.564Z</time></trkpt><trkpt lat="37.8655407" lon="13.3038327"><ele>481.0</ele><time>2026-05-05T08:45:04.565Z</time></trkpt><trkpt lat="37.8655484" lon="13.3037347"><ele>481.0</ele><time>2026-05-05T08:45:05.565Z</time></trkpt><trkpt lat="37.8655565" lon="13.3036359"><ele>481.00000000000006</ele><time>2026-05-05T08:45:06.565Z</time></trkpt><trkpt lat="37.8655662" lon="13.3035326"><ele>481.0</ele><time>2026-05-05T08:45:07.565Z</time></trkpt><trkpt lat="37.8655779" lon="13.303426"><ele>481.0</ele><time>2026-05-05T08:45:08.565Z</time></trkpt><trkpt lat="37.8655901" lon="13.3033143"><ele>481.0</ele><time>2026-05-05T08:45:09.564Z</time></trkpt><trkpt lat="37.865601" lon="13.3031993"><ele>481.0</ele><time>2026-05-05T08:45:10.564Z</time></trkpt><trkpt lat="37.865611" lon="13.3030802"><ele>481.0</ele><time>2026-05-05T08:45:11.565Z</time></trkpt><trkpt lat="37.8656214" lon="13.3029602"><ele>481.0</ele><time>2026-05-05T08:45:12.565Z</time></trkpt><trkpt lat="37.865634" lon="13.3028444"><ele>481.6666666666667</ele><time>2026-05-05T08:45:13.564Z</time></trkpt><trkpt lat="37.8656541" lon="13.3027359"><ele>482.33333333333337</ele><time>2026-05-05T08:45:14.566Z</time></trkpt><trkpt lat="37.8656882" lon="13.3026356"><ele>483.0</ele><time>2026-05-05T08:45:15.565Z</time></trkpt><trkpt lat="37.8657328" lon="13.3025409"><ele>483.66666666666663</ele><time>2026-05-05T08:45:16.566Z</time></trkpt><trkpt lat="37.8657808" lon="13.3024515"><ele>484.3333333333333</ele><time>2026-05-05T08:45:17.563Z</time></trkpt><trkpt lat="37.865832" lon="13.3023656"><ele>485.0</ele><time>2026-05-05T08:45:18.565Z</time></trkpt><trkpt lat="37.8658889" lon="13.3022884"><ele>484.99999999999994</ele><time>2026-05-05T08:45:19.565Z</time></trkpt><trkpt lat="37.8659539" lon="13.3022199"><ele>485.0</ele><time>2026-05-05T08:45:20.565Z</time></trkpt><trkpt lat="37.8660256" lon="13.3021622"><ele>485.0</ele><time>2026-05-05T08:45:21.564Z</time></trkpt><trkpt lat="37.8660962" lon="13.3021063"><ele>485.0</ele><time>2026-05-05T08:45:22.564Z</time></trkpt><trkpt lat="37.8661593" lon="13.3020391"><ele>484.99999999999994</ele><time>2026-05-05T08:45:23.564Z</time></trkpt><trkpt lat="37.8662181" lon="13.3019537"><ele>485.0</ele><time>2026-05-05T08:45:24.563Z</time></trkpt><trkpt lat="37.8662705" lon="13.3018531"><ele>484.99999999999994</ele><time>2026-05-05T08:45:25.566Z</time></trkpt><trkpt lat="37.8663146" lon="13.3017505"><ele>485.0</ele><time>2026-05-05T08:45:26.565Z</time></trkpt><trkpt lat="37.866348" lon="13.3016455"><ele>485.0</ele><time>2026-05-05T08:45:27.563Z</time></trkpt><trkpt lat="37.8663674" lon="13.3015469"><ele>485.0</ele><time>2026-05-05T08:45:28.564Z</time></trkpt><trkpt lat="37.8663747" lon="13.301457"><ele>484.99999999999994</ele><time>2026-05-05T08:45:29.566Z</time></trkpt><trkpt lat="37.8663754" lon="13.3013753"><ele>485.0</ele><time>2026-05-05T08:45:30.566Z</time></trkpt><trkpt lat="37.8663692" lon="13.3012318"><ele>485.0</ele><time>2026-05-05T08:45:32.566Z</time></trkpt><trkpt lat="37.8663588" lon="13.3011486"><ele>485.0</ele><time>2026-05-05T08:45:34.566Z</time></trkpt><trkpt lat="37.8663419" lon="13.3010082"><ele>485.0</ele><time>2026-05-05T08:46:19.566Z</time></trkpt><trkpt lat="37.8663392" lon="13.3008818"><ele>485.0</ele><time>2026-05-05T08:46:21.565Z</time></trkpt><trkpt lat="37.8663369" lon="13.3007278"><ele>485.0</ele><time>2026-05-05T08:46:23.566Z</time></trkpt><trkpt lat="37.8663319" lon="13.3006415"><ele>484.8333333333333</ele><time>2026-05-05T08:46:24.565Z</time></trkpt><trkpt lat="37.8663239" lon="13.3005479"><ele>484.66666666666663</ele><time>2026-05-05T08:46:25.566Z</time></trkpt><trkpt lat="37.8663115" lon="13.3004361"><ele>484.5</ele><time>2026-05-05T08:46:26.566Z</time></trkpt><trkpt lat="37.8663032" lon="13.3003097"><ele>484.33333333333337</ele><time>2026-05-05T08:46:27.565Z</time></trkpt><trkpt lat="37.8663017" lon="13.3001833"><ele>484.1666666666667</ele><time>2026-05-05T08:46:28.566Z</time></trkpt><trkpt lat="37.866295" lon="13.3000767"><ele>484.0</ele><time>2026-05-05T08:46:29.566Z</time></trkpt><trkpt lat="37.8662867" lon="13.2999833"><ele>484.0</ele><time>2026-05-05T08:46:30.564Z</time></trkpt><trkpt lat="37.8662817" lon="13.2999017"><ele>484.0</ele><time>2026-05-05T08:46:31.565Z</time></trkpt><trkpt lat="37.86627" lon="13.299765"><ele>484.0</ele><time>2026-05-05T08:46:33.566Z</time></trkpt><trkpt lat="37.8662533" lon="13.2996467"><ele>484.0</ele><time>2026-05-05T08:46:35.566Z</time></trkpt><trkpt lat="37.8662283" lon="13.2995217"><ele>484.0</ele><time>2026-05-05T08:46:37.566Z</time></trkpt><trkpt lat="37.8661833" lon="13.2994"><ele>485.0</ele><time>2026-05-05T08:46:39.566Z</time></trkpt><trkpt lat="37.866115" lon="13.299285"><ele>486.0</ele><time>2026-05-05T08:46:41.566Z</time></trkpt><trkpt lat="37.8660267" lon="13.2991917"><ele>487.0</ele><time>2026-05-05T08:46:43.569Z</time></trkpt><trkpt lat="37.8659317" lon="13.299105"><ele>488.0</ele><time>2026-05-05T08:46:45.566Z</time></trkpt><trkpt lat="37.8658317" lon="13.2990383"><ele>487.59999999999997</ele><time>2026-05-05T08:46:47.566Z</time></trkpt><trkpt lat="37.8657283" lon="13.298975"><ele>487.19999999999993</ele><time>2026-05-05T08:46:49.566Z</time></trkpt><trkpt lat="37.8656233" lon="13.2989083"><ele>486.8</ele><time>2026-05-05T08:47:13.566Z</time></trkpt><trkpt lat="37.8655367" lon="13.2988217"><ele>486.4</ele><time>2026-05-05T08:47:15.565Z</time></trkpt><trkpt lat="37.8654833" lon="13.2987617"><ele>486.0</ele><time>2026-05-05T08:47:16.565Z</time></trkpt><trkpt lat="37.8654283" lon="13.2987083"><ele>486.0</ele><time>2026-05-05T08:47:17.565Z</time></trkpt><trkpt lat="37.8653683" lon="13.2986717"><ele>486.0</ele><time>2026-05-05T08:47:18.565Z</time></trkpt><trkpt lat="37.8653017" lon="13.2986517"><ele>486.0</ele><time>2026-05-05T08:47:19.566Z</time></trkpt><trkpt lat="37.8652283" lon="13.298645"><ele>486.0</ele><time>2026-05-05T08:47:20.567Z</time></trkpt><trkpt lat="37.86515" lon="13.298645"><ele>486.0</ele><time>2026-05-05T08:47:21.566Z</time></trkpt><trkpt lat="37.8650667" lon="13.2986533"><ele>486.0</ele><time>2026-05-05T08:47:22.566Z</time></trkpt><trkpt lat="37.864985" lon="13.2986717"><ele>485.1666666666667</ele><time>2026-05-05T08:47:23.566Z</time></trkpt><trkpt lat="37.8649067" lon="13.2986967"><ele>484.33333333333337</ele><time>2026-05-05T08:47:24.567Z</time></trkpt><trkpt lat="37.86483" lon="13.2987233"><ele>483.5</ele><time>2026-05-05T08:47:25.564Z</time></trkpt><trkpt lat="37.8647617" lon="13.2987483"><ele>482.6666666666667</ele><time>2026-05-05T08:47:26.565Z</time></trkpt><trkpt lat="37.86469" lon="13.2987767"><ele>481.83333333333337</ele><time>2026-05-05T08:47:27.565Z</time></trkpt><trkpt lat="37.864615" lon="13.2988033"><ele>481.0</ele><time>2026-05-05T08:47:28.566Z</time></trkpt><trkpt lat="37.8645367" lon="13.29882"><ele>481.00000000000006</ele><time>2026-05-05T08:47:29.566Z</time></trkpt><trkpt lat="37.8644567" lon="13.2988317"><ele>481.0</ele><time>2026-05-05T08:47:30.564Z</time></trkpt><trkpt lat="37.86438" lon="13.2988383"><ele>481.0</ele><time>2026-05-05T08:47:31.565Z</time></trkpt><trkpt lat="37.8643017" lon="13.2988417"><ele>481.0</ele><time>2026-05-05T08:47:32.567Z</time></trkpt><trkpt lat="37.864225" lon="13.2988317"><ele>481.00000000000006</ele><time>2026-05-05T08:47:33.566Z</time></trkpt><trkpt lat="37.86415" lon="13.2988117"><ele>481.0</ele><time>2026-05-05T08:47:34.565Z</time></trkpt><trkpt lat="37.8640733" lon="13.2987917"><ele>480.33333333333337</ele><time>2026-05-05T08:47:35.566Z</time></trkpt><trkpt lat="37.864" lon="13.2987567"><ele>479.6666666666667</ele><time>2026-05-05T08:47:36.566Z</time></trkpt><trkpt lat="37.8639267" lon="13.2987167"><ele>479.0</ele><time>2026-05-05T08:47:37.566Z</time></trkpt><trkpt lat="37.863855" lon="13.2986733"><ele>478.33333333333337</ele><time>2026-05-05T08:47:38.566Z</time></trkpt><trkpt lat="37.86378" lon="13.298625"><ele>477.6666666666667</ele><time>2026-05-05T08:47:39.564Z</time></trkpt><trkpt lat="37.86371" lon="13.298575"><ele>477.0</ele><time>2026-05-05T08:47:40.566Z</time></trkpt><trkpt lat="37.86364" lon="13.29852"><ele>477.0</ele><time>2026-05-05T08:47:41.566Z</time></trkpt><trkpt lat="37.863575" lon="13.29846"><ele>477.0</ele><time>2026-05-05T08:47:42.566Z</time></trkpt><trkpt lat="37.8635033" lon="13.2984"><ele>477.0</ele><time>2026-05-05T08:47:43.565Z</time></trkpt><trkpt lat="37.86343" lon="13.2983367"><ele>477.0</ele><time>2026-05-05T08:47:44.565Z</time></trkpt><trkpt lat="37.8633617" lon="13.2982617"><ele>477.0</ele><time>2026-05-05T08:47:45.566Z</time></trkpt><trkpt lat="37.863305" lon="13.2981817"><ele>477.0</ele><time>2026-05-05T08:47:46.565Z</time></trkpt><trkpt lat="37.863265" lon="13.2981017"><ele>476.0</ele><time>2026-05-05T08:47:47.566Z</time></trkpt><trkpt lat="37.8632333" lon="13.2980133"><ele>475.0</ele><time>2026-05-05T08:47:48.565Z</time></trkpt><trkpt lat="37.86321" lon="13.2979133"><ele>474.0</ele><time>2026-05-05T08:47:49.565Z</time></trkpt><trkpt lat="37.8631933" lon="13.2978083"><ele>473.0</ele><time>2026-05-05T08:47:50.567Z</time></trkpt><trkpt lat="37.863185" lon="13.2977017"><ele>472.0</ele><time>2026-05-05T08:47:51.565Z</time></trkpt><trkpt lat="37.86319" lon="13.2975983"><ele>471.0</ele><time>2026-05-05T08:47:52.565Z</time></trkpt><trkpt lat="37.8632017" lon="13.2974983"><ele>471.0</ele><time>2026-05-05T08:47:53.565Z</time></trkpt><trkpt lat="37.8632267" lon="13.2974017"><ele>471.0</ele><time>2026-05-05T08:47:54.566Z</time></trkpt><trkpt lat="37.8632617" lon="13.2973067"><ele>471.0</ele><time>2026-05-05T08:47:55.565Z</time></trkpt><trkpt lat="37.8633067" lon="13.2972217"><ele>471.0</ele><time>2026-05-05T08:47:56.564Z</time></trkpt><trkpt lat="37.8633583" lon="13.2971433"><ele>471.0</ele><time>2026-05-05T08:47:57.565Z</time></trkpt><trkpt lat="37.8634183" lon="13.2970683"><ele>471.0</ele><time>2026-05-05T08:47:58.566Z</time></trkpt><trkpt lat="37.8634833" lon="13.296995"><ele>471.6</ele><time>2026-05-05T08:47:59.565Z</time></trkpt><trkpt lat="37.86355" lon="13.2969033"><ele>472.20000000000005</ele><time>2026-05-05T08:48:00.567Z</time></trkpt><trkpt lat="37.8636083" lon="13.2967983"><ele>472.79999999999995</ele><time>2026-05-05T08:48:01.564Z</time></trkpt><trkpt lat="37.863655" lon="13.2966933"><ele>473.4</ele><time>2026-05-05T08:48:02.566Z</time></trkpt><trkpt lat="37.8636933" lon="13.296595"><ele>474.0</ele><time>2026-05-05T08:48:03.565Z</time></trkpt><trkpt lat="37.8637267" lon="13.2964833"><ele>473.79999999999995</ele><time>2026-05-05T08:48:04.565Z</time></trkpt><trkpt lat="37.8637517" lon="13.2963583"><ele>473.59999999999997</ele><time>2026-05-05T08:48:05.565Z</time></trkpt><trkpt lat="37.863765" lon="13.29623"><ele>473.4</ele><time>2026-05-05T08:48:06.564Z</time></trkpt><trkpt lat="37.86378" lon="13.2960967"><ele>473.2</ele><time>2026-05-05T08:48:07.565Z</time></trkpt><trkpt lat="37.8637917" lon="13.29596"><ele>473.0</ele><time>2026-05-05T08:48:08.566Z</time></trkpt><trkpt lat="37.863805" lon="13.2958167"><ele>473.0</ele><time>2026-05-05T08:48:09.566Z</time></trkpt><trkpt lat="37.8638217" lon="13.2956733"><ele>473.0</ele><time>2026-05-05T08:48:10.566Z</time></trkpt><trkpt lat="37.8638367" lon="13.2955233"><ele>473.0</ele><time>2026-05-05T08:48:11.565Z</time></trkpt><trkpt lat="37.8638517" lon="13.2953717"><ele>473.0</ele><time>2026-05-05T08:48:12.566Z</time></trkpt><trkpt lat="37.8638683" lon="13.29522"><ele>471.75</ele><time>2026-05-05T08:48:13.566Z</time></trkpt><trkpt lat="37.8638833" lon="13.2950683"><ele>470.5</ele><time>2026-05-05T08:48:14.566Z</time></trkpt><trkpt lat="37.8638983" lon="13.2949167"><ele>469.25</ele><time>2026-05-05T08:48:15.565Z</time></trkpt><trkpt lat="37.8639183" lon="13.2947583"><ele>468.0</ele><time>2026-05-05T08:48:16.566Z</time></trkpt><trkpt lat="37.8639367" lon="13.2946"><ele>467.25</ele><time>2026-05-05T08:48:17.566Z</time></trkpt><trkpt lat="37.863945" lon="13.2944417"><ele>466.5</ele><time>2026-05-05T08:48:18.564Z</time></trkpt><trkpt lat="37.8639467" lon="13.294285"><ele>465.75</ele><time>2026-05-05T08:48:19.565Z</time></trkpt><trkpt lat="37.863935" lon="13.29413"><ele>465.0</ele><time>2026-05-05T08:48:20.566Z</time></trkpt><trkpt lat="37.8639033" lon="13.2939767"><ele>465.8</ele><time>2026-05-05T08:48:21.564Z</time></trkpt><trkpt lat="37.863855" lon="13.293835"><ele>466.6</ele><time>2026-05-05T08:48:22.566Z</time></trkpt><trkpt lat="37.8637917" lon="13.29371"><ele>467.4</ele><time>2026-05-05T08:48:23.57Z</time></trkpt><trkpt lat="37.8637233" lon="13.2936083"><ele>468.2</ele><time>2026-05-05T08:48:24.564Z</time></trkpt><trkpt lat="37.86365" lon="13.293525"><ele>469.0</ele><time>2026-05-05T08:48:25.565Z</time></trkpt><trkpt lat="37.8635767" lon="13.293445"><ele>469.0</ele><time>2026-05-05T08:48:26.566Z</time></trkpt><trkpt lat="37.8635" lon="13.2933617"><ele>469.0</ele><time>2026-05-05T08:48:27.565Z</time></trkpt><trkpt lat="37.8634183" lon="13.2932767"><ele>469.0</ele><time>2026-05-05T08:48:28.565Z</time></trkpt><trkpt lat="37.8633417" lon="13.2931817"><ele>469.0</ele><time>2026-05-05T08:48:29.567Z</time></trkpt><trkpt lat="37.8632783" lon="13.2930883"><ele>469.0</ele><time>2026-05-05T08:48:30.566Z</time></trkpt><trkpt lat="37.8632233" lon="13.2929933"><ele>467.6666666666667</ele><time>2026-05-05T08:48:31.564Z</time></trkpt><trkpt lat="37.8631817" lon="13.2928967"><ele>466.33333333333337</ele><time>2026-05-05T08:48:32.567Z</time></trkpt><trkpt lat="37.8631467" lon="13.2927933"><ele>465.0</ele><time>2026-05-05T08:48:33.564Z</time></trkpt><trkpt lat="37.8631267" lon="13.29269"><ele>463.66666666666663</ele><time>2026-05-05T08:48:34.564Z</time></trkpt><trkpt lat="37.8631167" lon="13.2925917"><ele>462.3333333333333</ele><time>2026-05-05T08:48:35.566Z</time></trkpt><trkpt lat="37.8631167" lon="13.2924967"><ele>461.0</ele><time>2026-05-05T08:48:36.565Z</time></trkpt><trkpt lat="37.8631183" lon="13.292405"><ele>461.0</ele><time>2026-05-05T08:48:37.564Z</time></trkpt><trkpt lat="37.8631217" lon="13.292315"><ele>461.00000000000006</ele><time>2026-05-05T08:48:38.567Z</time></trkpt><trkpt lat="37.8631283" lon="13.2922183"><ele>461.0</ele><time>2026-05-05T08:48:39.565Z</time></trkpt><trkpt lat="37.86313" lon="13.292125"><ele>461.0</ele><time>2026-05-05T08:48:40.566Z</time></trkpt><trkpt lat="37.863125" lon="13.2920317"><ele>461.00000000000006</ele><time>2026-05-05T08:48:41.564Z</time></trkpt><trkpt lat="37.8631183" lon="13.29194"><ele>461.0</ele><time>2026-05-05T08:48:42.565Z</time></trkpt><trkpt lat="37.86311" lon="13.2918533"><ele>461.0</ele><time>2026-05-05T08:48:43.565Z</time></trkpt><trkpt lat="37.8631133" lon="13.2917617"><ele>460.66666666666663</ele><time>2026-05-05T08:48:44.567Z</time></trkpt><trkpt lat="37.8631183" lon="13.2916633"><ele>460.3333333333333</ele><time>2026-05-05T08:48:45.566Z</time></trkpt><trkpt lat="37.863125" lon="13.2915683"><ele>460.0</ele><time>2026-05-05T08:48:46.566Z</time></trkpt><trkpt lat="37.8631217" lon="13.29147"><ele>459.66666666666663</ele><time>2026-05-05T08:48:47.565Z</time></trkpt><trkpt lat="37.8631117" lon="13.2913683"><ele>459.3333333333333</ele><time>2026-05-05T08:48:48.566Z</time></trkpt><trkpt lat="37.8631017" lon="13.2912633"><ele>459.0</ele><time>2026-05-05T08:48:49.566Z</time></trkpt><trkpt lat="37.863095" lon="13.2911533"><ele>459.0</ele><time>2026-05-05T08:48:50.567Z</time></trkpt><trkpt lat="37.8630817" lon="13.2910467"><ele>459.0</ele><time>2026-05-05T08:48:51.566Z</time></trkpt><trkpt lat="37.8630567" lon="13.2909417"><ele>459.0</ele><time>2026-05-05T08:48:52.565Z</time></trkpt><trkpt lat="37.8630283" lon="13.2908367"><ele>459.0</ele><time>2026-05-05T08:48:53.567Z</time></trkpt><trkpt lat="37.8629867" lon="13.2907383"><ele>459.0</ele><time>2026-05-05T08:48:54.565Z</time></trkpt><trkpt lat="37.8629383" lon="13.29065"><ele>459.0</ele><time>2026-05-05T08:48:55.565Z</time></trkpt><trkpt lat="37.8628833" lon="13.2905583"><ele>460.0</ele><time>2026-05-05T08:48:56.566Z</time></trkpt><trkpt lat="37.8628183" lon="13.2904667"><ele>461.0</ele><time>2026-05-05T08:48:57.565Z</time></trkpt><trkpt lat="37.8627517" lon="13.2903817"><ele>462.0</ele><time>2026-05-05T08:48:58.565Z</time></trkpt><trkpt lat="37.86268" lon="13.2902983"><ele>463.0</ele><time>2026-05-05T08:48:59.565Z</time></trkpt><trkpt lat="37.8626067" lon="13.2902117"><ele>464.0</ele><time>2026-05-05T08:49:00.565Z</time></trkpt><trkpt lat="37.8625367" lon="13.2901267"><ele>462.3333333333333</ele><time>2026-05-05T08:49:01.565Z</time></trkpt><trkpt lat="37.8624717" lon="13.2900383"><ele>460.66666666666663</ele><time>2026-05-05T08:49:02.566Z</time></trkpt><trkpt lat="37.86241" lon="13.2899517"><ele>459.0</ele><time>2026-05-05T08:49:03.566Z</time></trkpt><trkpt lat="37.86235" lon="13.289865"><ele>457.33333333333337</ele><time>2026-05-05T08:49:04.565Z</time></trkpt><trkpt lat="37.8622967" lon="13.289775"><ele>455.6666666666667</ele><time>2026-05-05T08:49:05.565Z</time></trkpt><trkpt lat="37.8622567" lon="13.2896867"><ele>454.0</ele><time>2026-05-05T08:49:06.566Z</time></trkpt><trkpt lat="37.8622233" lon="13.2896017"><ele>454.0</ele><time>2026-05-05T08:49:07.566Z</time></trkpt><trkpt lat="37.862185" lon="13.2895133"><ele>454.00000000000006</ele><time>2026-05-05T08:49:08.565Z</time></trkpt><trkpt lat="37.862155" lon="13.289425"><ele>454.0</ele><time>2026-05-05T08:49:09.565Z</time></trkpt><trkpt lat="37.862135" lon="13.2893383"><ele>454.0</ele><time>2026-05-05T08:49:10.564Z</time></trkpt><trkpt lat="37.86212" lon="13.28925"><ele>454.00000000000006</ele><time>2026-05-05T08:49:11.566Z</time></trkpt><trkpt lat="37.8621117" lon="13.289165"><ele>454.0</ele><time>2026-05-05T08:49:12.565Z</time></trkpt><trkpt lat="37.862105" lon="13.2890783"><ele>454.0</ele><time>2026-05-05T08:49:13.566Z</time></trkpt><trkpt lat="37.8621033" lon="13.2889867"><ele>454.14285714285717</ele><time>2026-05-05T08:49:14.566Z</time></trkpt><trkpt lat="37.8620967" lon="13.2889"><ele>454.28571428571433</ele><time>2026-05-05T08:49:15.566Z</time></trkpt><trkpt lat="37.86209" lon="13.2888033"><ele>454.42857142857144</ele><time>2026-05-05T08:49:16.566Z</time></trkpt><trkpt lat="37.8620833" lon="13.28871"><ele>454.57142857142856</ele><time>2026-05-05T08:49:17.566Z</time></trkpt><trkpt lat="37.8620783" lon="13.2886117"><ele>454.7142857142857</ele><time>2026-05-05T08:49:18.564Z</time></trkpt><trkpt lat="37.862075" lon="13.2885167"><ele>454.8571428571429</ele><time>2026-05-05T08:49:19.566Z</time></trkpt><trkpt lat="37.862075" lon="13.2884333"><ele>455.0</ele><time>2026-05-05T08:49:20.568Z</time></trkpt><trkpt lat="37.8620683" lon="13.2882783"><ele>454.99999999999994</ele><time>2026-05-05T08:49:22.566Z</time></trkpt><trkpt lat="37.8620667" lon="13.2881917"><ele>455.0</ele><time>2026-05-05T08:49:23.566Z</time></trkpt><trkpt lat="37.8620583" lon="13.2880933"><ele>455.0</ele><time>2026-05-05T08:49:24.566Z</time></trkpt><trkpt lat="37.8620383" lon="13.287995"><ele>455.0</ele><time>2026-05-05T08:49:25.564Z</time></trkpt><trkpt lat="37.8620183" lon="13.2879117"><ele>454.99999999999994</ele><time>2026-05-05T08:49:26.566Z</time></trkpt><trkpt lat="37.8619883" lon="13.28782"><ele>455.0</ele><time>2026-05-05T08:49:27.565Z</time></trkpt><trkpt lat="37.86196" lon="13.28772"><ele>455.8</ele><time>2026-05-05T08:49:28.565Z</time></trkpt><trkpt lat="37.8619317" lon="13.287615"><ele>456.6</ele><time>2026-05-05T08:49:29.564Z</time></trkpt><trkpt lat="37.8618983" lon="13.2875067"><ele>457.4</ele><time>2026-05-05T08:49:30.565Z</time></trkpt><trkpt lat="37.8618617" lon="13.2873917"><ele>458.2</ele><time>2026-05-05T08:49:31.567Z</time></trkpt><trkpt lat="37.8618283" lon="13.2872817"><ele>459.0</ele><time>2026-05-05T08:49:32.567Z</time></trkpt><trkpt lat="37.8617933" lon="13.28718"><ele>457.0</ele><time>2026-05-05T08:49:33.566Z</time></trkpt><trkpt lat="37.8617567" lon="13.28708"><ele>455.0</ele><time>2026-05-05T08:49:34.565Z</time></trkpt><trkpt lat="37.8617233" lon="13.2869767"><ele>453.0</ele><time>2026-05-05T08:49:35.565Z</time></trkpt><trkpt lat="37.86169" lon="13.2868683"><ele>451.0</ele><time>2026-05-05T08:49:36.565Z</time></trkpt><trkpt lat="37.8616567" lon="13.2867633"><ele>449.0</ele><time>2026-05-05T08:49:37.566Z</time></trkpt><trkpt lat="37.861615" lon="13.2866617"><ele>447.0</ele><time>2026-05-05T08:49:38.566Z</time></trkpt><trkpt lat="37.8615683" lon="13.2865667"><ele>447.0</ele><time>2026-05-05T08:49:39.565Z</time></trkpt><trkpt lat="37.86152" lon="13.2864717"><ele>447.00000000000006</ele><time>2026-05-05T08:49:40.566Z</time></trkpt><trkpt lat="37.86147" lon="13.28637"><ele>447.00000000000006</ele><time>2026-05-05T08:49:41.565Z</time></trkpt><trkpt lat="37.8614217" lon="13.2862733"><ele>447.0</ele><time>2026-05-05T08:49:42.565Z</time></trkpt><trkpt lat="37.8613717" lon="13.286165"><ele>447.0</ele><time>2026-05-05T08:49:43.566Z</time></trkpt><trkpt lat="37.8613133" lon="13.28606"><ele>446.8333333333333</ele><time>2026-05-05T08:49:44.565Z</time></trkpt><trkpt lat="37.8612533" lon="13.2859583"><ele>446.66666666666663</ele><time>2026-05-05T08:49:45.565Z</time></trkpt><trkpt lat="37.8612017" lon="13.2858633"><ele>446.5</ele><time>2026-05-05T08:49:46.565Z</time></trkpt><trkpt lat="37.861155" lon="13.2857717"><ele>446.3333333333333</ele><time>2026-05-05T08:49:47.565Z</time></trkpt><trkpt lat="37.8611117" lon="13.285685"><ele>446.16666666666663</ele><time>2026-05-05T08:49:48.565Z</time></trkpt><trkpt lat="37.8610767" lon="13.2856017"><ele>446.0</ele><time>2026-05-05T08:49:49.564Z</time></trkpt><trkpt lat="37.8610483" lon="13.2855183"><ele>446.0</ele><time>2026-05-05T08:49:50.565Z</time></trkpt><trkpt lat="37.86103" lon="13.2854383"><ele>446.0</ele><time>2026-05-05T08:49:51.565Z</time></trkpt><trkpt lat="37.861015" lon="13.28536"><ele>446.0</ele><time>2026-05-05T08:49:52.566Z</time></trkpt><trkpt lat="37.861005" lon="13.2852783"><ele>446.0</ele><time>2026-05-05T08:49:53.566Z</time></trkpt><trkpt lat="37.8609983" lon="13.2851917"><ele>446.0</ele><time>2026-05-05T08:49:54.565Z</time></trkpt><trkpt lat="37.8610033" lon="13.2850983"><ele>446.0</ele><time>2026-05-05T08:49:55.565Z</time></trkpt><trkpt lat="37.8610167" lon="13.285"><ele>446.0</ele><time>2026-05-05T08:49:56.567Z</time></trkpt><trkpt lat="37.8610383" lon="13.284905"><ele>445.99999999999994</ele><time>2026-05-05T08:49:57.565Z</time></trkpt><trkpt lat="37.8610683" lon="13.2848133"><ele>446.0</ele><time>2026-05-05T08:49:58.565Z</time></trkpt><trkpt lat="37.861105" lon="13.284725"><ele>446.0</ele><time>2026-05-05T08:49:59.564Z</time></trkpt><trkpt lat="37.8611467" lon="13.2846317"><ele>446.0</ele><time>2026-05-05T08:50:00.565Z</time></trkpt><trkpt lat="37.8611883" lon="13.2845417"><ele>445.99999999999994</ele><time>2026-05-05T08:50:01.565Z</time></trkpt><trkpt lat="37.8612333" lon="13.284445"><ele>446.0</ele><time>2026-05-05T08:50:02.566Z</time></trkpt><trkpt lat="37.86128" lon="13.2843517"><ele>445.20000000000005</ele><time>2026-05-05T08:50:03.565Z</time></trkpt><trkpt lat="37.8613333" lon="13.2842583"><ele>444.40000000000003</ele><time>2026-05-05T08:50:04.565Z</time></trkpt><trkpt lat="37.8613983" lon="13.2841633"><ele>443.6</ele><time>2026-05-05T08:50:05.565Z</time></trkpt><trkpt lat="37.8614633" lon="13.2840583"><ele>442.8</ele><time>2026-05-05T08:50:06.564Z</time></trkpt><trkpt lat="37.8615217" lon="13.28395"><ele>442.0</ele><time>2026-05-05T08:50:07.566Z</time></trkpt><trkpt lat="37.8615767" lon="13.2838483"><ele>442.00000000000006</ele><time>2026-05-05T08:50:08.565Z</time></trkpt><trkpt lat="37.86163" lon="13.2837533"><ele>442.0</ele><time>2026-05-05T08:50:09.565Z</time></trkpt><trkpt lat="37.861675" lon="13.28366"><ele>442.0</ele><time>2026-05-05T08:50:10.565Z</time></trkpt><trkpt lat="37.86172" lon="13.28357"><ele>442.0</ele><time>2026-05-05T08:50:11.565Z</time></trkpt><trkpt lat="37.8617667" lon="13.2834767"><ele>442.00000000000006</ele><time>2026-05-05T08:50:12.565Z</time></trkpt><trkpt lat="37.861815" lon="13.283385"><ele>442.0</ele><time>2026-05-05T08:50:13.565Z</time></trkpt><trkpt lat="37.8618583" lon="13.28329"><ele>442.0</ele><time>2026-05-05T08:50:14.567Z</time></trkpt><trkpt lat="37.8619033" lon="13.2831883"><ele>442.00000000000006</ele><time>2026-05-05T08:50:15.564Z</time></trkpt><trkpt lat="37.861955" lon="13.2830917"><ele>442.00000000000006</ele><time>2026-05-05T08:50:16.566Z</time></trkpt><trkpt lat="37.862005" lon="13.282995"><ele>442.0</ele><time>2026-05-05T08:50:17.566Z</time></trkpt><trkpt lat="37.862055" lon="13.2828917"><ele>442.0</ele><time>2026-05-05T08:50:18.566Z</time></trkpt><trkpt lat="37.862095" lon="13.2827817"><ele>440.8</ele><time>2026-05-05T08:50:19.566Z</time></trkpt><trkpt lat="37.8621283" lon="13.282665"><ele>439.6</ele><time>2026-05-05T08:50:20.566Z</time></trkpt><trkpt lat="37.8621533" lon="13.2825467"><ele>438.40000000000003</ele><time>2026-05-05T08:50:21.565Z</time></trkpt><trkpt lat="37.8621683" lon="13.2824267"><ele>437.20000000000005</ele><time>2026-05-05T08:50:22.565Z</time></trkpt><trkpt lat="37.8621817" lon="13.2823133"><ele>436.0</ele><time>2026-05-05T08:50:23.565Z</time></trkpt><trkpt lat="37.8621883" lon="13.2822"><ele>436.0</ele><time>2026-05-05T08:50:24.566Z</time></trkpt><trkpt lat="37.8621883" lon="13.2820833"><ele>436.0</ele><time>2026-05-05T08:50:25.564Z</time></trkpt><trkpt lat="37.862185" lon="13.2819617"><ele>436.0</ele><time>2026-05-05T08:50:26.566Z</time></trkpt><trkpt lat="37.862175" lon="13.2818367"><ele>436.0</ele><time>2026-05-05T08:50:27.565Z</time></trkpt><trkpt lat="37.8621617" lon="13.2817133"><ele>436.0</ele><time>2026-05-05T08:50:28.565Z</time></trkpt><trkpt lat="37.8621417" lon="13.28158"><ele>436.5</ele><time>2026-05-05T08:50:29.564Z</time></trkpt><trkpt lat="37.862115" lon="13.28143"><ele>437.0</ele><time>2026-05-05T08:50:30.565Z</time></trkpt><trkpt lat="37.8620817" lon="13.28127"><ele>437.5</ele><time>2026-05-05T08:50:31.565Z</time></trkpt><trkpt lat="37.8620483" lon="13.28111"><ele>438.0</ele><time>2026-05-05T08:50:32.569Z</time></trkpt><trkpt lat="37.8620183" lon="13.2809483"><ele>438.0</ele><time>2026-05-05T08:50:33.566Z</time></trkpt><trkpt lat="37.86199" lon="13.2808033"><ele>437.99999999999994</ele><time>2026-05-05T08:50:34.565Z</time></trkpt><trkpt lat="37.8619667" lon="13.2806717"><ele>437.99999999999994</ele><time>2026-05-05T08:50:35.566Z</time></trkpt><trkpt lat="37.86196" lon="13.2805517"><ele>438.0</ele><time>2026-05-05T08:50:36.565Z</time></trkpt><trkpt lat="37.8619633" lon="13.2804417"><ele>438.0</ele><time>2026-05-05T08:50:37.566Z</time></trkpt><trkpt lat="37.861975" lon="13.28034"><ele>437.5</ele><time>2026-05-05T08:50:38.565Z</time></trkpt><trkpt lat="37.8619966" lon="13.2802411"><ele>437.0</ele><time>2026-05-05T08:50:39.564Z</time></trkpt><trkpt lat="37.8620316" lon="13.2801427"><ele>436.5</ele><time>2026-05-05T08:50:40.565Z</time></trkpt><trkpt lat="37.8620703" lon="13.2800557"><ele>436.0</ele><time>2026-05-05T08:50:41.566Z</time></trkpt><trkpt lat="37.8621175" lon="13.2799785"><ele>435.5</ele><time>2026-05-05T08:50:42.564Z</time></trkpt><trkpt lat="37.862169" lon="13.2799079"><ele>435.0</ele><time>2026-05-05T08:50:43.565Z</time></trkpt><trkpt lat="37.8622285" lon="13.2798449"><ele>435.0</ele><time>2026-05-05T08:50:44.566Z</time></trkpt><trkpt lat="37.8623004" lon="13.2797858"><ele>435.0</ele><time>2026-05-05T08:50:45.565Z</time></trkpt><trkpt lat="37.8623864" lon="13.279725"><ele>435.0</ele><time>2026-05-05T08:50:46.566Z</time></trkpt><trkpt lat="37.8624842" lon="13.2796667"><ele>435.0</ele><time>2026-05-05T08:50:47.564Z</time></trkpt><trkpt lat="37.8625976" lon="13.2796155"><ele>435.0</ele><time>2026-05-05T08:50:48.564Z</time></trkpt><trkpt lat="37.8627228" lon="13.2795695"><ele>433.5</ele><time>2026-05-05T08:50:49.566Z</time></trkpt><trkpt lat="37.8628579" lon="13.2795226"><ele>432.0</ele><time>2026-05-05T08:50:50.566Z</time></trkpt><trkpt lat="37.8629942" lon="13.279478"><ele>430.5</ele><time>2026-05-05T08:50:51.565Z</time></trkpt><trkpt lat="37.8631139" lon="13.2794272"><ele>429.0</ele><time>2026-05-05T08:50:52.565Z</time></trkpt><trkpt lat="37.8632096" lon="13.2793652"><ele>429.0</ele><time>2026-05-05T08:50:53.564Z</time></trkpt><trkpt lat="37.8632792" lon="13.2792945"><ele>429.0</ele><time>2026-05-05T08:50:54.565Z</time></trkpt><trkpt lat="37.8633337" lon="13.2792166"><ele>429.0</ele><time>2026-05-05T08:50:55.565Z</time></trkpt><trkpt lat="37.8633839" lon="13.2791238"><ele>429.0</ele><time>2026-05-05T08:50:56.565Z</time></trkpt><trkpt lat="37.863423" lon="13.2790019"><ele>429.0</ele><time>2026-05-05T08:50:57.565Z</time></trkpt><trkpt lat="37.8634641" lon="13.2788734"><ele>431.2</ele><time>2026-05-05T08:50:58.565Z</time></trkpt><trkpt lat="37.8634976" lon="13.2787368"><ele>433.4</ele><time>2026-05-05T08:50:59.565Z</time></trkpt><trkpt lat="37.8635186" lon="13.2786114"><ele>435.6</ele><time>2026-05-05T08:51:00.567Z</time></trkpt><trkpt lat="37.8635125" lon="13.2784869"><ele>437.8</ele><time>2026-05-05T08:51:01.566Z</time></trkpt><trkpt lat="37.8634904" lon="13.2783577"><ele>440.0</ele><time>2026-05-05T08:51:02.565Z</time></trkpt><trkpt lat="37.8634668" lon="13.2782363"><ele>439.99999999999994</ele><time>2026-05-05T08:51:03.565Z</time></trkpt><trkpt lat="37.8634514" lon="13.2781314"><ele>440.0</ele><time>2026-05-05T08:51:04.564Z</time></trkpt><trkpt lat="37.8634394" lon="13.2780455"><ele>440.0</ele><time>2026-05-05T08:51:05.564Z</time></trkpt><trkpt lat="37.8634118" lon="13.2778921"><ele>440.0</ele><time>2026-05-05T08:51:07.565Z</time></trkpt><trkpt lat="37.863381" lon="13.2777972"><ele>439.99999999999994</ele><time>2026-05-05T08:51:08.565Z</time></trkpt><trkpt lat="37.86335" lon="13.2776943"><ele>440.0</ele><time>2026-05-05T08:51:09.565Z</time></trkpt><trkpt lat="37.8633236" lon="13.2775868"><ele>436.8</ele><time>2026-05-05T08:51:10.566Z</time></trkpt><trkpt lat="37.8632995" lon="13.2774744"><ele>433.6</ele><time>2026-05-05T08:51:11.566Z</time></trkpt><trkpt lat="37.8632753" lon="13.2773648"><ele>430.4</ele><time>2026-05-05T08:51:12.565Z</time></trkpt><trkpt lat="37.8632516" lon="13.277254"><ele>427.2</ele><time>2026-05-05T08:51:13.566Z</time></trkpt><trkpt lat="37.8632276" lon="13.2771297"><ele>424.0</ele><time>2026-05-05T08:51:14.567Z</time></trkpt><trkpt lat="37.8632009" lon="13.2769988"><ele>424.0</ele><time>2026-05-05T08:51:15.565Z</time></trkpt><trkpt lat="37.8631737" lon="13.2768664"><ele>424.0</ele><time>2026-05-05T08:51:16.566Z</time></trkpt><trkpt lat="37.8631468" lon="13.2767363"><ele>424.0</ele><time>2026-05-05T08:51:17.564Z</time></trkpt><trkpt lat="37.8631217" lon="13.276608"><ele>424.0</ele><time>2026-05-05T08:51:18.566Z</time></trkpt><trkpt lat="37.863095" lon="13.2764795"><ele>424.0</ele><time>2026-05-05T08:51:19.565Z</time></trkpt><trkpt lat="37.8630681" lon="13.276345"><ele>423.6</ele><time>2026-05-05T08:51:20.566Z</time></trkpt><trkpt lat="37.8630439" lon="13.2762058"><ele>423.2</ele><time>2026-05-05T08:51:21.565Z</time></trkpt><trkpt lat="37.8630214" lon="13.2760687"><ele>422.8</ele><time>2026-05-05T08:51:22.564Z</time></trkpt><trkpt lat="37.8630059" lon="13.2759338"><ele>422.40000000000003</ele><time>2026-05-05T08:51:23.567Z</time></trkpt><trkpt lat="37.8629983" lon="13.2757937"><ele>422.0</ele><time>2026-05-05T08:51:24.565Z</time></trkpt><trkpt lat="37.8629931" lon="13.2756532"><ele>421.40000000000003</ele><time>2026-05-05T08:51:25.566Z</time></trkpt><trkpt lat="37.862996" lon="13.2755195"><ele>420.8</ele><time>2026-05-05T08:51:26.566Z</time></trkpt><trkpt lat="37.8630045" lon="13.275396"><ele>420.2</ele><time>2026-05-05T08:51:27.566Z</time></trkpt><trkpt lat="37.8630133" lon="13.2752874"><ele>419.6</ele><time>2026-05-05T08:51:28.565Z</time></trkpt><trkpt lat="37.8630248" lon="13.2751886"><ele>419.0</ele><time>2026-05-05T08:51:29.565Z</time></trkpt><trkpt lat="37.8630392" lon="13.2750863"><ele>419.0</ele><time>2026-05-05T08:51:30.564Z</time></trkpt><trkpt lat="37.8630647" lon="13.2749755"><ele>419.0</ele><time>2026-05-05T08:51:31.565Z</time></trkpt><trkpt lat="37.8630944" lon="13.2748607"><ele>419.0</ele><time>2026-05-05T08:51:32.566Z</time></trkpt><trkpt lat="37.8631281" lon="13.2747495"><ele>419.0</ele><time>2026-05-05T08:51:33.564Z</time></trkpt><trkpt lat="37.8631634" lon="13.2746469"><ele>419.0</ele><time>2026-05-05T08:51:34.565Z</time></trkpt><trkpt lat="37.863208" lon="13.2745452"><ele>419.0</ele><time>2026-05-05T08:51:35.567Z</time></trkpt><trkpt lat="37.863257" lon="13.2744471"><ele>419.0</ele><time>2026-05-05T08:51:36.564Z</time></trkpt><trkpt lat="37.8633118" lon="13.2743509"><ele>419.0</ele><time>2026-05-05T08:51:37.566Z</time></trkpt><trkpt lat="37.863362" lon="13.2742617"><ele>419.0</ele><time>2026-05-05T08:51:38.568Z</time></trkpt><trkpt lat="37.8634192" lon="13.2741787"><ele>419.0</ele><time>2026-05-05T08:51:39.565Z</time></trkpt><trkpt lat="37.8634789" lon="13.2740884"><ele>419.0</ele><time>2026-05-05T08:51:40.566Z</time></trkpt><trkpt lat="37.863546" lon="13.2740008"><ele>419.0</ele><time>2026-05-05T08:51:41.563Z</time></trkpt><trkpt lat="37.863622" lon="13.2739173"><ele>419.0</ele><time>2026-05-05T08:51:42.566Z</time></trkpt><trkpt lat="37.8637011" lon="13.2738367"><ele>419.0</ele><time>2026-05-05T08:51:43.565Z</time></trkpt><trkpt lat="37.8637809" lon="13.2737636"><ele>419.0</ele><time>2026-05-05T08:51:44.565Z</time></trkpt><trkpt lat="37.8638572" lon="13.2737003"><ele>417.0</ele><time>2026-05-05T08:51:45.564Z</time></trkpt><trkpt lat="37.8639337" lon="13.2736384"><ele>415.0</ele><time>2026-05-05T08:51:46.565Z</time></trkpt><trkpt lat="37.8640157" lon="13.2735791"><ele>413.0</ele><time>2026-05-05T08:51:47.563Z</time></trkpt><trkpt lat="37.8641005" lon="13.2735209"><ele>411.0</ele><time>2026-05-05T08:51:48.564Z</time></trkpt><trkpt lat="37.864185" lon="13.2734605"><ele>409.0</ele><time>2026-05-05T08:51:49.566Z</time></trkpt><trkpt lat="37.8642644" lon="13.2733946"><ele>408.79999999999995</ele><time>2026-05-05T08:51:50.566Z</time></trkpt><trkpt lat="37.8643394" lon="13.2733239"><ele>408.59999999999997</ele><time>2026-05-05T08:51:51.564Z</time></trkpt><trkpt lat="37.8644112" lon="13.273242"><ele>408.4</ele><time>2026-05-05T08:51:52.564Z</time></trkpt><trkpt lat="37.8644788" lon="13.2731461"><ele>408.2</ele><time>2026-05-05T08:51:53.566Z</time></trkpt><trkpt lat="37.8645421" lon="13.2730384"><ele>408.0</ele><time>2026-05-05T08:51:54.565Z</time></trkpt><trkpt lat="37.8646042" lon="13.2729272"><ele>408.0</ele><time>2026-05-05T08:51:55.566Z</time></trkpt><trkpt lat="37.864667" lon="13.2728169"><ele>408.0</ele><time>2026-05-05T08:51:56.566Z</time></trkpt><trkpt lat="37.864721" lon="13.2727109"><ele>408.0</ele><time>2026-05-05T08:51:57.564Z</time></trkpt><trkpt lat="37.864765" lon="13.2726136"><ele>408.0</ele><time>2026-05-05T08:51:58.566Z</time></trkpt><trkpt lat="37.8648058" lon="13.2725233"><ele>408.0</ele><time>2026-05-05T08:51:59.566Z</time></trkpt><trkpt lat="37.8648494" lon="13.2724399"><ele>408.0</ele><time>2026-05-05T08:52:00.564Z</time></trkpt><trkpt lat="37.8649012" lon="13.2723604"><ele>408.0</ele><time>2026-05-05T08:52:01.566Z</time></trkpt><trkpt lat="37.8649585" lon="13.2722773"><ele>408.0</ele><time>2026-05-05T08:52:02.567Z</time></trkpt><trkpt lat="37.8650204" lon="13.2721894"><ele>408.0</ele><time>2026-05-05T08:52:03.564Z</time></trkpt><trkpt lat="37.8650782" lon="13.2721096"><ele>408.0</ele><time>2026-05-05T08:52:04.565Z</time></trkpt><trkpt lat="37.865139" lon="13.2720325"><ele>408.0</ele><time>2026-05-05T08:52:05.566Z</time></trkpt><trkpt lat="37.8652013" lon="13.2719516"><ele>407.8333333333333</ele><time>2026-05-05T08:52:06.565Z</time></trkpt><trkpt lat="37.8652701" lon="13.2718713"><ele>407.66666666666663</ele><time>2026-05-05T08:52:07.566Z</time></trkpt><trkpt lat="37.8653416" lon="13.2717909"><ele>407.5</ele><time>2026-05-05T08:52:08.566Z</time></trkpt><trkpt lat="37.8654113" lon="13.2717201"><ele>407.3333333333333</ele><time>2026-05-05T08:52:09.565Z</time></trkpt><trkpt lat="37.8654758" lon="13.2716542"><ele>407.16666666666663</ele><time>2026-05-05T08:52:10.564Z</time></trkpt><trkpt lat="37.8655371" lon="13.271592"><ele>407.0</ele><time>2026-05-05T08:52:11.566Z</time></trkpt><trkpt lat="37.8655965" lon="13.2715323"><ele>406.99999999999994</ele><time>2026-05-05T08:52:12.564Z</time></trkpt><trkpt lat="37.8656535" lon="13.2714761"><ele>407.0</ele><time>2026-05-05T08:52:13.568Z</time></trkpt><trkpt lat="37.8657035" lon="13.2714248"><ele>407.0</ele><time>2026-05-05T08:52:14.567Z</time></trkpt><trkpt lat="37.8657561" lon="13.2713653"><ele>407.0</ele><time>2026-05-05T08:52:16.567Z</time></trkpt><trkpt lat="37.8658134" lon="13.271305"><ele>406.99999999999994</ele><time>2026-05-05T08:52:20.567Z</time></trkpt><trkpt lat="37.8659126" lon="13.271277"><ele>407.0</ele><time>2026-05-05T08:53:46.565Z</time></trkpt><trkpt lat="37.865957" lon="13.2711981"><ele>406.3333333333333</ele><time>2026-05-05T08:59:31.564Z</time></trkpt><trkpt lat="37.8659948" lon="13.271128"><ele>405.66666666666663</ele><time>2026-05-05T08:59:32.566Z</time></trkpt><trkpt lat="37.8660629" lon="13.271055"><ele>405.0</ele><time>2026-05-05T08:59:34.563Z</time></trkpt><trkpt lat="37.8661154" lon="13.2709928"><ele>404.33333333333337</ele><time>2026-05-05T08:59:36.564Z</time></trkpt><trkpt lat="37.8661825" lon="13.270926"><ele>403.6666666666667</ele><time>2026-05-05T08:59:38.566Z</time></trkpt><trkpt lat="37.8662537" lon="13.2708538"><ele>403.0</ele><time>2026-05-05T08:59:40.564Z</time></trkpt><trkpt lat="37.8663286" lon="13.2707821"><ele>403.0</ele><time>2026-05-05T08:59:42.564Z</time></trkpt><trkpt lat="37.8664251" lon="13.270683"><ele>403.0</ele><time>2026-05-05T08:59:44.566Z</time></trkpt><trkpt lat="37.8664781" lon="13.2706255"><ele>403.0</ele><time>2026-05-05T08:59:45.565Z</time></trkpt><trkpt lat="37.8665295" lon="13.2705737"><ele>403.0</ele><time>2026-05-05T08:59:46.566Z</time></trkpt><trkpt lat="37.8666264" lon="13.2704687"><ele>403.0</ele><time>2026-05-05T08:59:48.566Z</time></trkpt><trkpt lat="37.8666765" lon="13.2704092"><ele>403.50000000000006</ele><time>2026-05-05T08:59:49.565Z</time></trkpt><trkpt lat="37.8667201" lon="13.2703483"><ele>404.0</ele><time>2026-05-05T08:59:50.567Z</time></trkpt><trkpt lat="37.8667558" lon="13.2702806"><ele>404.5</ele><time>2026-05-05T08:59:51.566Z</time></trkpt><trkpt lat="37.8667903" lon="13.270209"><ele>405.0</ele><time>2026-05-05T08:59:52.566Z</time></trkpt><trkpt lat="37.8668273" lon="13.2701411"><ele>405.50000000000006</ele><time>2026-05-05T08:59:53.565Z</time></trkpt><trkpt lat="37.866892" lon="13.2700279"><ele>406.0</ele><time>2026-05-05T08:59:55.564Z</time></trkpt><trkpt lat="37.8669338" lon="13.2699145"><ele>404.5</ele><time>2026-05-05T08:59:57.565Z</time></trkpt><trkpt lat="37.8669406" lon="13.2697746"><ele>403.0</ele><time>2026-05-05T08:59:59.567Z</time></trkpt><trkpt lat="37.8669441" lon="13.2696204"><ele>401.5</ele><time>2026-05-05T09:00:01.567Z</time></trkpt><trkpt lat="37.8669582" lon="13.2694746"><ele>400.0</ele><time>2026-05-05T09:00:03.565Z</time></trkpt><trkpt lat="37.866991" lon="13.2693208"><ele>400.00000000000006</ele><time>2026-05-05T09:00:05.566Z</time></trkpt><trkpt lat="37.8670084" lon="13.269233"><ele>400.0</ele><time>2026-05-05T09:00:06.564Z</time></trkpt><trkpt lat="37.8670326" lon="13.2691434"><ele>400.0</ele><time>2026-05-05T09:00:07.566Z</time></trkpt><trkpt lat="37.8670638" lon="13.26905"><ele>400.0</ele><time>2026-05-05T09:00:08.566Z</time></trkpt><trkpt lat="37.8671032" lon="13.2689549"><ele>400.00000000000006</ele><time>2026-05-05T09:00:09.565Z</time></trkpt><trkpt lat="37.8671452" lon="13.2688571"><ele>400.0</ele><time>2026-05-05T09:00:10.565Z</time></trkpt><trkpt lat="37.8671845" lon="13.2687641"><ele>399.00000000000006</ele><time>2026-05-05T09:00:11.566Z</time></trkpt><trkpt lat="37.8672254" lon="13.2686771"><ele>398.0</ele><time>2026-05-05T09:00:12.563Z</time></trkpt><trkpt lat="37.867269" lon="13.2685891"><ele>397.0</ele><time>2026-05-05T09:00:13.565Z</time></trkpt><trkpt lat="37.8673113" lon="13.2684977"><ele>396.0</ele><time>2026-05-05T09:00:14.566Z</time></trkpt><trkpt lat="37.8673484" lon="13.268406"><ele>395.00000000000006</ele><time>2026-05-05T09:00:15.568Z</time></trkpt><trkpt lat="37.8673774" lon="13.2683187"><ele>394.0</ele><time>2026-05-05T09:00:16.565Z</time></trkpt><trkpt lat="37.8674012" lon="13.2682342"><ele>394.0</ele><time>2026-05-05T09:00:17.566Z</time></trkpt><trkpt lat="37.8674175" lon="13.2681497"><ele>394.0</ele><time>2026-05-05T09:00:18.566Z</time></trkpt><trkpt lat="37.8674277" lon="13.2680667"><ele>394.0</ele><time>2026-05-05T09:00:19.567Z</time></trkpt><trkpt lat="37.8674296" lon="13.2679822"><ele>394.0</ele><time>2026-05-05T09:00:20.567Z</time></trkpt><trkpt lat="37.8674256" lon="13.2678953"><ele>394.0</ele><time>2026-05-05T09:00:21.565Z</time></trkpt><trkpt lat="37.8674179" lon="13.2678044"><ele>394.0</ele><time>2026-05-05T09:00:22.566Z</time></trkpt><trkpt lat="37.8674039" lon="13.267711"><ele>394.0</ele><time>2026-05-05T09:00:23.565Z</time></trkpt><trkpt lat="37.8673792" lon="13.267617"><ele>394.00000000000006</ele><time>2026-05-05T09:00:24.565Z</time></trkpt><trkpt lat="37.8673498" lon="13.2675294"><ele>394.0</ele><time>2026-05-05T09:00:25.563Z</time></trkpt><trkpt lat="37.8673177" lon="13.2674508"><ele>394.0</ele><time>2026-05-05T09:00:26.565Z</time></trkpt><trkpt lat="37.8672836" lon="13.2673812"><ele>394.0</ele><time>2026-05-05T09:00:27.566Z</time></trkpt><trkpt lat="37.8672112" lon="13.2672704"><ele>394.00000000000006</ele><time>2026-05-05T09:00:29.567Z</time></trkpt><trkpt lat="37.867133" lon="13.2671713"><ele>394.0</ele><time>2026-05-05T09:00:31.565Z</time></trkpt><trkpt lat="37.867042" lon="13.2670806"><ele>394.0</ele><time>2026-05-05T09:00:33.566Z</time></trkpt><trkpt lat="37.8669512" lon="13.2670232"><ele>394.0</ele><time>2026-05-05T09:00:35.565Z</time></trkpt><trkpt lat="37.8668629" lon="13.2669835"><ele>394.0</ele><time>2026-05-05T09:00:37.568Z</time></trkpt><trkpt lat="37.8667877" lon="13.2669686"><ele>394.0</ele><time>2026-05-05T09:00:39.565Z</time></trkpt><trkpt lat="37.8667225" lon="13.2669704"><ele>394.0</ele><time>2026-05-05T09:00:42.565Z</time></trkpt><trkpt lat="37.8664561" lon="13.2668799"><ele>393.50000000000006</ele><time>2026-05-05T09:06:32.566Z</time></trkpt><trkpt lat="37.866386" lon="13.2668761"><ele>393.0</ele><time>2026-05-05T09:06:33.565Z</time></trkpt><trkpt lat="37.8662786" lon="13.2668792"><ele>392.5</ele><time>2026-05-05T09:06:35.565Z</time></trkpt><trkpt lat="37.8661724" lon="13.2668744"><ele>392.0</ele><time>2026-05-05T09:06:37.565Z</time></trkpt><trkpt lat="37.8660994" lon="13.2668818"><ele>391.50000000000006</ele><time>2026-05-05T09:06:38.565Z</time></trkpt><trkpt lat="37.8660184" lon="13.2668975"><ele>391.0</ele><time>2026-05-05T09:06:39.565Z</time></trkpt><trkpt lat="37.8659406" lon="13.2669121"><ele>390.57142857142856</ele><time>2026-05-05T09:06:40.565Z</time></trkpt><trkpt lat="37.8658673" lon="13.2669268"><ele>390.1428571428571</ele><time>2026-05-05T09:06:41.566Z</time></trkpt><trkpt lat="37.8657994" lon="13.2669413"><ele>389.71428571428567</ele><time>2026-05-05T09:06:42.569Z</time></trkpt><trkpt lat="37.8657321" lon="13.2669504"><ele>389.2857142857143</ele><time>2026-05-05T09:06:43.566Z</time></trkpt><trkpt lat="37.8656587" lon="13.2669547"><ele>388.8571428571429</ele><time>2026-05-05T09:06:44.565Z</time></trkpt><trkpt lat="37.8655806" lon="13.2669578"><ele>388.4285714285714</ele><time>2026-05-05T09:06:45.564Z</time></trkpt><trkpt lat="37.8654989" lon="13.2669586"><ele>388.0</ele><time>2026-05-05T09:06:46.566Z</time></trkpt><trkpt lat="37.8654187" lon="13.2669508"><ele>388.00000000000006</ele><time>2026-05-05T09:06:47.567Z</time></trkpt><trkpt lat="37.8653407" lon="13.2669324"><ele>388.0</ele><time>2026-05-05T09:06:48.565Z</time></trkpt><trkpt lat="37.8652674" lon="13.2669164"><ele>388.0</ele><time>2026-05-05T09:06:49.567Z</time></trkpt><trkpt lat="37.8651972" lon="13.2668976"><ele>388.0</ele><time>2026-05-05T09:06:50.565Z</time></trkpt><trkpt lat="37.8651294" lon="13.2668755"><ele>388.00000000000006</ele><time>2026-05-05T09:06:51.565Z</time></trkpt><trkpt lat="37.8650667" lon="13.2668543"><ele>388.0</ele><time>2026-05-05T09:06:52.565Z</time></trkpt><trkpt lat="37.864946" lon="13.2668214"><ele>387.33333333333337</ele><time>2026-05-05T09:06:54.565Z</time></trkpt><trkpt lat="37.8648759" lon="13.2668085"><ele>386.6666666666667</ele><time>2026-05-05T09:06:55.565Z</time></trkpt><trkpt lat="37.8647999" lon="13.2667936"><ele>386.0</ele><time>2026-05-05T09:06:56.564Z</time></trkpt><trkpt lat="37.8647161" lon="13.2667733"><ele>385.33333333333337</ele><time>2026-05-05T09:06:57.565Z</time></trkpt><trkpt lat="37.8646287" lon="13.2667527"><ele>384.6666666666667</ele><time>2026-05-05T09:06:58.565Z</time></trkpt><trkpt lat="37.8645382" lon="13.266733"><ele>384.0</ele><time>2026-05-05T09:06:59.565Z</time></trkpt><trkpt lat="37.8644473" lon="13.2667084"><ele>384.0</ele><time>2026-05-05T09:07:00.565Z</time></trkpt><trkpt lat="37.8643588" lon="13.2666878"><ele>384.0</ele><time>2026-05-05T09:07:01.564Z</time></trkpt><trkpt lat="37.8642736" lon="13.266669"><ele>384.0</ele><time>2026-05-05T09:07:02.567Z</time></trkpt><trkpt lat="37.8641939" lon="13.2666497"><ele>384.0</ele><time>2026-05-05T09:07:03.57Z</time></trkpt><trkpt lat="37.8641212" lon="13.2666315"><ele>384.0</ele><time>2026-05-05T09:07:04.564Z</time></trkpt><trkpt lat="37.8640538" lon="13.2666121"><ele>384.0</ele><time>2026-05-05T09:07:05.566Z</time></trkpt><trkpt lat="37.8639504" lon="13.2665317"><ele>384.0</ele><time>2026-05-05T09:07:07.565Z</time></trkpt><trkpt lat="37.8638483" lon="13.2664287"><ele>384.0</ele><time>2026-05-05T09:07:09.565Z</time></trkpt><trkpt lat="37.8637914" lon="13.2663761"><ele>384.0</ele><time>2026-05-05T09:07:10.565Z</time></trkpt><trkpt lat="37.8637427" lon="13.2663222"><ele>384.0</ele><time>2026-05-05T09:07:11.565Z</time></trkpt><trkpt lat="37.8636789" lon="13.2661797"><ele>384.0</ele><time>2026-05-05T09:07:13.565Z</time></trkpt><trkpt lat="37.8636537" lon="13.2660949"><ele>383.99999999999994</ele><time>2026-05-05T09:07:14.566Z</time></trkpt><trkpt lat="37.8636267" lon="13.2660112"><ele>384.0</ele><time>2026-05-05T09:07:15.565Z</time></trkpt><trkpt lat="37.8635954" lon="13.2659248"><ele>384.0</ele><time>2026-05-05T09:07:16.567Z</time></trkpt><trkpt lat="37.8635638" lon="13.2658342"><ele>384.0</ele><time>2026-05-05T09:07:17.564Z</time></trkpt><trkpt lat="37.8635328" lon="13.2657441"><ele>384.0</ele><time>2026-05-05T09:07:18.565Z</time></trkpt><trkpt lat="37.8635012" lon="13.2656624"><ele>383.99999999999994</ele><time>2026-05-05T09:07:19.566Z</time></trkpt><trkpt lat="37.8634731" lon="13.2655893"><ele>384.0</ele><time>2026-05-05T09:07:20.565Z</time></trkpt><trkpt lat="37.8634512" lon="13.2654581"><ele>384.0</ele><time>2026-05-05T09:07:22.564Z</time></trkpt><trkpt lat="37.8635015" lon="13.2653684"><ele>384.0</ele><time>2026-05-05T09:07:24.564Z</time></trkpt><trkpt lat="37.8635948" lon="13.2653253"><ele>384.0</ele><time>2026-05-05T09:07:26.566Z</time></trkpt><trkpt lat="37.8637084" lon="13.2652759"><ele>384.0</ele><time>2026-05-05T09:07:28.565Z</time></trkpt><trkpt lat="37.8637679" lon="13.2652412"><ele>384.0</ele><time>2026-05-05T09:07:29.565Z</time></trkpt><trkpt lat="37.8638311" lon="13.265201"><ele>384.0</ele><time>2026-05-05T09:07:30.564Z</time></trkpt><trkpt lat="37.8639013" lon="13.2651602"><ele>384.0</ele><time>2026-05-05T09:07:31.565Z</time></trkpt><trkpt lat="37.8639756" lon="13.2651207"><ele>384.0</ele><time>2026-05-05T09:07:32.566Z</time></trkpt><trkpt lat="37.8640519" lon="13.2650794"><ele>384.0</ele><time>2026-05-05T09:07:33.565Z</time></trkpt><trkpt lat="37.8641306" lon="13.2650356"><ele>384.0</ele><time>2026-05-05T09:07:34.565Z</time></trkpt><trkpt lat="37.8642125" lon="13.2649923"><ele>384.0</ele><time>2026-05-05T09:07:35.565Z</time></trkpt><trkpt lat="37.8642966" lon="13.2649468"><ele>384.0</ele><time>2026-05-05T09:07:36.564Z</time></trkpt><trkpt lat="37.8643828" lon="13.2648955"><ele>384.0</ele><time>2026-05-05T09:07:37.566Z</time></trkpt><trkpt lat="37.8644734" lon="13.2648418"><ele>384.0</ele><time>2026-05-05T09:07:38.566Z</time></trkpt><trkpt lat="37.8645679" lon="13.264791"><ele>384.0</ele><time>2026-05-05T09:07:39.565Z</time></trkpt><trkpt lat="37.8646636" lon="13.2647376"><ele>384.0</ele><time>2026-05-05T09:07:40.565Z</time></trkpt><trkpt lat="37.8647615" lon="13.2646817"><ele>384.0</ele><time>2026-05-05T09:07:41.566Z</time></trkpt><trkpt lat="37.8648601" lon="13.2646261"><ele>384.0</ele><time>2026-05-05T09:07:42.565Z</time></trkpt><trkpt lat="37.8649626" lon="13.2645732"><ele>384.0</ele><time>2026-05-05T09:07:43.564Z</time></trkpt><trkpt lat="37.8650663" lon="13.2645216"><ele>384.0</ele><time>2026-05-05T09:07:44.566Z</time></trkpt><trkpt lat="37.8651723" lon="13.2644662"><ele>384.0</ele><time>2026-05-05T09:07:45.565Z</time></trkpt><trkpt lat="37.8652792" lon="13.2644121"><ele>384.5</ele><time>2026-05-05T09:07:46.566Z</time></trkpt><trkpt lat="37.8653807" lon="13.2643665"><ele>385.0</ele><time>2026-05-05T09:07:47.565Z</time></trkpt><trkpt lat="37.8654753" lon="13.2643317"><ele>385.5</ele><time>2026-05-05T09:07:48.567Z</time></trkpt><trkpt lat="37.8655597" lon="13.264317"><ele>386.0</ele><time>2026-05-05T09:07:49.564Z</time></trkpt><trkpt lat="37.865638" lon="13.2643206"><ele>386.5</ele><time>2026-05-05T09:07:50.565Z</time></trkpt><trkpt lat="37.8657101" lon="13.2643388"><ele>387.0</ele><time>2026-05-05T09:07:51.564Z</time></trkpt><trkpt lat="37.8657839" lon="13.2643636"><ele>387.0</ele><time>2026-05-05T09:07:52.565Z</time></trkpt><trkpt lat="37.8658628" lon="13.2643922"><ele>387.0</ele><time>2026-05-05T09:07:53.565Z</time></trkpt><trkpt lat="37.8659439" lon="13.2644181"><ele>387.0</ele><time>2026-05-05T09:07:54.566Z</time></trkpt><trkpt lat="37.8660263" lon="13.264444"><ele>387.0</ele><time>2026-05-05T09:07:55.566Z</time></trkpt><trkpt lat="37.866112" lon="13.2644758"><ele>387.0</ele><time>2026-05-05T09:07:56.566Z</time></trkpt><trkpt lat="37.8661987" lon="13.2645075"><ele>387.0</ele><time>2026-05-05T09:07:57.565Z</time></trkpt><trkpt lat="37.8662871" lon="13.2645359"><ele>386.40000000000003</ele><time>2026-05-05T09:07:58.564Z</time></trkpt><trkpt lat="37.866376" lon="13.2645645"><ele>385.8</ele><time>2026-05-05T09:07:59.566Z</time></trkpt><trkpt lat="37.8664636" lon="13.2645938"><ele>385.2</ele><time>2026-05-05T09:08:00.565Z</time></trkpt><trkpt lat="37.8665543" lon="13.2646238"><ele>384.6</ele><time>2026-05-05T09:08:01.565Z</time></trkpt><trkpt lat="37.8666445" lon="13.2646534"><ele>384.0</ele><time>2026-05-05T09:08:02.565Z</time></trkpt><trkpt lat="37.8667278" lon="13.2646789"><ele>384.0</ele><time>2026-05-05T09:08:03.565Z</time></trkpt><trkpt lat="37.8668039" lon="13.2647031"><ele>384.0</ele><time>2026-05-05T09:08:04.565Z</time></trkpt><trkpt lat="37.8668751" lon="13.264719"><ele>384.0</ele><time>2026-05-05T09:08:05.566Z</time></trkpt><trkpt lat="37.8669397" lon="13.2647258"><ele>384.0</ele><time>2026-05-05T09:08:06.564Z</time></trkpt><trkpt lat="37.8670034" lon="13.264721"><ele>384.0</ele><time>2026-05-05T09:08:07.565Z</time></trkpt><trkpt lat="37.8671277" lon="13.2646919"><ele>384.0</ele><time>2026-05-05T09:08:09.565Z</time></trkpt><trkpt lat="37.8671931" lon="13.2646585"><ele>384.0</ele><time>2026-05-05T09:08:10.566Z</time></trkpt><trkpt lat="37.8672645" lon="13.2646153"><ele>384.0</ele><time>2026-05-05T09:08:11.565Z</time></trkpt><trkpt lat="37.8673417" lon="13.2645645"><ele>384.0</ele><time>2026-05-05T09:08:12.564Z</time></trkpt><trkpt lat="37.8674222" lon="13.2645109"><ele>384.0</ele><time>2026-05-05T09:08:13.566Z</time></trkpt><trkpt lat="37.8675042" lon="13.2644508"><ele>384.0</ele><time>2026-05-05T09:08:14.565Z</time></trkpt><trkpt lat="37.8675869" lon="13.2643851"><ele>384.0</ele><time>2026-05-05T09:08:15.566Z</time></trkpt><trkpt lat="37.8676657" lon="13.2643231"><ele>384.0</ele><time>2026-05-05T09:08:16.565Z</time></trkpt><trkpt lat="37.8677401" lon="13.2642671"><ele>384.0</ele><time>2026-05-05T09:08:17.564Z</time></trkpt><trkpt lat="37.8678083" lon="13.2642167"><ele>384.0</ele><time>2026-05-05T09:08:18.567Z</time></trkpt><trkpt lat="37.8678738" lon="13.264175"><ele>384.0</ele><time>2026-05-05T09:08:19.565Z</time></trkpt><trkpt lat="37.8679394" lon="13.2641466"><ele>384.0</ele><time>2026-05-05T09:08:20.566Z</time></trkpt><trkpt lat="37.8680528" lon="13.2641136"><ele>384.0</ele><time>2026-05-05T09:08:22.565Z</time></trkpt><trkpt lat="37.8681375" lon="13.2640621"><ele>384.0</ele><time>2026-05-05T09:08:24.564Z</time></trkpt><trkpt lat="37.8681812" lon="13.2639629"><ele>384.0</ele><time>2026-05-05T09:08:26.566Z</time></trkpt><trkpt lat="37.868244" lon="13.263859"><ele>384.0</ele><time>2026-05-05T09:08:28.565Z</time></trkpt><trkpt lat="37.8683029" lon="13.2638226"><ele>384.0</ele><time>2026-05-05T09:08:29.566Z</time></trkpt><trkpt lat="37.8683711" lon="13.2637831"><ele>384.0</ele><time>2026-05-05T09:08:30.565Z</time></trkpt><trkpt lat="37.868442" lon="13.2637336"><ele>384.0</ele><time>2026-05-05T09:08:31.566Z</time></trkpt><trkpt lat="37.8685148" lon="13.2636745"><ele>383.6</ele><time>2026-05-05T09:08:32.566Z</time></trkpt><trkpt lat="37.8685903" lon="13.2636144"><ele>383.2</ele><time>2026-05-05T09:08:33.565Z</time></trkpt><trkpt lat="37.8686751" lon="13.2635527"><ele>382.8</ele><time>2026-05-05T09:08:34.566Z</time></trkpt><trkpt lat="37.8687653" lon="13.2634875"><ele>382.40000000000003</ele><time>2026-05-05T09:08:35.566Z</time></trkpt><trkpt lat="37.868859" lon="13.2634209"><ele>382.0</ele><time>2026-05-05T09:08:36.565Z</time></trkpt><trkpt lat="37.8689518" lon="13.2633518"><ele>382.0</ele><time>2026-05-05T09:08:37.566Z</time></trkpt><trkpt lat="37.8690416" lon="13.2632875"><ele>382.0</ele><time>2026-05-05T09:08:38.566Z</time></trkpt><trkpt lat="37.869125" lon="13.2632268"><ele>382.0</ele><time>2026-05-05T09:08:39.566Z</time></trkpt><trkpt lat="37.869201" lon="13.2631677"><ele>382.0</ele><time>2026-05-05T09:08:40.567Z</time></trkpt><trkpt lat="37.8692746" lon="13.263114"><ele>382.0</ele><time>2026-05-05T09:08:41.564Z</time></trkpt><trkpt lat="37.8693457" lon="13.2630653"><ele>381.66666666666663</ele><time>2026-05-05T09:08:42.565Z</time></trkpt><trkpt lat="37.8694452" lon="13.263007"><ele>381.3333333333333</ele><time>2026-05-05T09:08:44.566Z</time></trkpt><trkpt lat="37.8695165" lon="13.2629832"><ele>381.0</ele><time>2026-05-05T09:08:47.565Z</time></trkpt><trkpt lat="37.8695731" lon="13.2629275"><ele>380.6666666666667</ele><time>2026-05-05T09:09:04.566Z</time></trkpt><trkpt lat="37.8695974" lon="13.2628439"><ele>380.33333333333337</ele><time>2026-05-05T09:09:06.565Z</time></trkpt><trkpt lat="37.8695795" lon="13.2627638"><ele>380.0</ele><time>2026-05-05T09:09:08.566Z</time></trkpt><trkpt lat="37.8695225" lon="13.2626702"><ele>380.0</ele><time>2026-05-05T09:09:10.567Z</time></trkpt><trkpt lat="37.8694338" lon="13.2625462"><ele>380.0</ele><time>2026-05-05T09:09:12.566Z</time></trkpt><trkpt lat="37.869373" lon="13.2624764"><ele>380.0</ele><time>2026-05-05T09:09:13.565Z</time></trkpt><trkpt lat="37.8693052" lon="13.2623941"><ele>380.0</ele><time>2026-05-05T09:09:14.566Z</time></trkpt><trkpt lat="37.8692371" lon="13.2623041"><ele>380.0</ele><time>2026-05-05T09:09:15.565Z</time></trkpt><trkpt lat="37.8691649" lon="13.2622094"><ele>380.6</ele><time>2026-05-05T09:09:16.566Z</time></trkpt><trkpt lat="37.8690912" lon="13.2621104"><ele>381.2</ele><time>2026-05-05T09:09:17.565Z</time></trkpt><trkpt lat="37.8690151" lon="13.2620118"><ele>381.79999999999995</ele><time>2026-05-05T09:09:18.566Z</time></trkpt><trkpt lat="37.8689302" lon="13.2619195"><ele>382.4</ele><time>2026-05-05T09:09:19.565Z</time></trkpt><trkpt lat="37.8688473" lon="13.2618245"><ele>383.0</ele><time>2026-05-05T09:09:20.566Z</time></trkpt><trkpt lat="37.8687669" lon="13.2617259"><ele>383.0</ele><time>2026-05-05T09:09:21.567Z</time></trkpt><trkpt lat="37.8686861" lon="13.2616254"><ele>383.0</ele><time>2026-05-05T09:09:22.566Z</time></trkpt><trkpt lat="37.8686057" lon="13.2615269"><ele>383.0</ele><time>2026-05-05T09:09:23.566Z</time></trkpt><trkpt lat="37.8685274" lon="13.2614283"><ele>383.0</ele><time>2026-05-05T09:09:24.565Z</time></trkpt><trkpt lat="37.8684545" lon="13.2613399"><ele>383.0</ele><time>2026-05-05T09:09:25.564Z</time></trkpt><trkpt lat="37.8683895" lon="13.261263"><ele>383.6666666666667</ele><time>2026-05-05T09:09:26.565Z</time></trkpt><trkpt lat="37.8683281" lon="13.26119"><ele>384.33333333333337</ele><time>2026-05-05T09:09:27.566Z</time></trkpt><trkpt lat="37.8682634" lon="13.261116"><ele>385.0</ele><time>2026-05-05T09:09:28.566Z</time></trkpt><trkpt lat="37.8681958" lon="13.261042"><ele>385.6666666666667</ele><time>2026-05-05T09:09:29.566Z</time></trkpt><trkpt lat="37.8681341" lon="13.2609711"><ele>386.3333333333333</ele><time>2026-05-05T09:09:30.565Z</time></trkpt><trkpt lat="37.8680799" lon="13.260906"><ele>387.0</ele><time>2026-05-05T09:09:31.564Z</time></trkpt><trkpt lat="37.8680312" lon="13.2608498"><ele>387.0</ele><time>2026-05-05T09:09:32.567Z</time></trkpt><trkpt lat="37.8679816" lon="13.2607923"><ele>387.0</ele><time>2026-05-05T09:09:33.565Z</time></trkpt><trkpt lat="37.8679306" lon="13.2607271"><ele>387.0</ele><time>2026-05-05T09:09:34.566Z</time></trkpt><trkpt lat="37.8678796" lon="13.2606556"><ele>387.0</ele><time>2026-05-05T09:09:35.566Z</time></trkpt><trkpt lat="37.867827" lon="13.2605781"><ele>387.0</ele><time>2026-05-05T09:09:36.565Z</time></trkpt><trkpt lat="37.8677728" lon="13.260496"><ele>387.0</ele><time>2026-05-05T09:09:37.565Z</time></trkpt><trkpt lat="37.8677197" lon="13.2604111"><ele>387.1666666666667</ele><time>2026-05-05T09:09:38.565Z</time></trkpt><trkpt lat="37.8676705" lon="13.2603289"><ele>387.33333333333337</ele><time>2026-05-05T09:09:39.565Z</time></trkpt><trkpt lat="37.8676232" lon="13.2602487"><ele>387.5</ele><time>2026-05-05T09:09:40.565Z</time></trkpt><trkpt lat="37.8675734" lon="13.2601681"><ele>387.6666666666667</ele><time>2026-05-05T09:09:41.568Z</time></trkpt><trkpt lat="37.8675227" lon="13.260085"><ele>387.83333333333337</ele><time>2026-05-05T09:09:42.565Z</time></trkpt><trkpt lat="37.867474" lon="13.2600044"><ele>388.0</ele><time>2026-05-05T09:09:43.566Z</time></trkpt><trkpt lat="37.8674289" lon="13.2599264"><ele>387.4</ele><time>2026-05-05T09:09:44.568Z</time></trkpt><trkpt lat="37.8673859" lon="13.2598535"><ele>386.79999999999995</ele><time>2026-05-05T09:09:45.566Z</time></trkpt><trkpt lat="37.8673436" lon="13.2597846"><ele>386.2</ele><time>2026-05-05T09:09:46.566Z</time></trkpt><trkpt lat="37.8673024" lon="13.259721"><ele>385.6</ele><time>2026-05-05T09:09:47.564Z</time></trkpt><trkpt lat="37.8672269" lon="13.2595997"><ele>385.0</ele><time>2026-05-05T09:09:49.567Z</time></trkpt><trkpt lat="37.8671566" lon="13.2594605"><ele>384.83333333333337</ele><time>2026-05-05T09:09:51.565Z</time></trkpt><trkpt lat="37.8671131" lon="13.2593858"><ele>384.6666666666667</ele><time>2026-05-05T09:09:52.566Z</time></trkpt><trkpt lat="37.8670683" lon="13.2593088"><ele>384.5</ele><time>2026-05-05T09:09:53.567Z</time></trkpt><trkpt lat="37.8670208" lon="13.2592259"><ele>384.33333333333337</ele><time>2026-05-05T09:09:54.565Z</time></trkpt><trkpt lat="37.8669716" lon="13.2591448"><ele>384.1666666666667</ele><time>2026-05-05T09:09:55.565Z</time></trkpt><trkpt lat="37.8669258" lon="13.2590684"><ele>384.0</ele><time>2026-05-05T09:09:56.567Z</time></trkpt><trkpt lat="37.8668827" lon="13.2589941"><ele>383.4</ele><time>2026-05-05T09:09:57.565Z</time></trkpt><trkpt lat="37.866841" lon="13.2589256"><ele>382.79999999999995</ele><time>2026-05-05T09:09:58.566Z</time></trkpt><trkpt lat="37.8668006" lon="13.2588611"><ele>382.20000000000005</ele><time>2026-05-05T09:09:59.564Z</time></trkpt><trkpt lat="37.8667208" lon="13.2587445"><ele>381.6</ele><time>2026-05-05T09:10:01.565Z</time></trkpt><trkpt lat="37.8666393" lon="13.25862"><ele>381.0</ele><time>2026-05-05T09:10:03.566Z</time></trkpt><trkpt lat="37.8665939" lon="13.2585466"><ele>380.1666666666667</ele><time>2026-05-05T09:10:04.566Z</time></trkpt><trkpt lat="37.8665461" lon="13.2584697"><ele>379.3333333333333</ele><time>2026-05-05T09:10:05.564Z</time></trkpt><trkpt lat="37.866496" lon="13.2583902"><ele>378.5</ele><time>2026-05-05T09:10:06.566Z</time></trkpt><trkpt lat="37.8664446" lon="13.2583094"><ele>377.66666666666663</ele><time>2026-05-05T09:10:07.566Z</time></trkpt><trkpt lat="37.8663929" lon="13.2582292"><ele>376.8333333333333</ele><time>2026-05-05T09:10:08.566Z</time></trkpt><trkpt lat="37.866345" lon="13.2581533"><ele>376.0</ele><time>2026-05-05T09:10:09.566Z</time></trkpt><trkpt lat="37.8663" lon="13.2580783"><ele>375.57142857142856</ele><time>2026-05-05T09:10:10.564Z</time></trkpt><trkpt lat="37.866255" lon="13.2579933"><ele>375.1428571428571</ele><time>2026-05-05T09:10:11.566Z</time></trkpt><trkpt lat="37.86621" lon="13.2579133"><ele>374.7142857142857</ele><time>2026-05-05T09:10:12.563Z</time></trkpt><trkpt lat="37.86617" lon="13.2578383"><ele>374.2857142857143</ele><time>2026-05-05T09:10:13.565Z</time></trkpt><trkpt lat="37.8661267" lon="13.2577667"><ele>373.8571428571429</ele><time>2026-05-05T09:10:14.567Z</time></trkpt><trkpt lat="37.86608" lon="13.2576933"><ele>373.42857142857144</ele><time>2026-05-05T09:10:15.566Z</time></trkpt><trkpt lat="37.866035" lon="13.2576233"><ele>373.0</ele><time>2026-05-05T09:10:16.565Z</time></trkpt><trkpt lat="37.86599" lon="13.25755"><ele>373.0</ele><time>2026-05-05T09:10:17.566Z</time></trkpt><trkpt lat="37.8659467" lon="13.2574783"><ele>373.0</ele><time>2026-05-05T09:10:18.566Z</time></trkpt><trkpt lat="37.865905" lon="13.2574067"><ele>373.0</ele><time>2026-05-05T09:10:19.566Z</time></trkpt><trkpt lat="37.8658617" lon="13.2573367"><ele>373.0</ele><time>2026-05-05T09:10:20.566Z</time></trkpt><trkpt lat="37.8658183" lon="13.2572633"><ele>373.0</ele><time>2026-05-05T09:10:21.565Z</time></trkpt><trkpt lat="37.865775" lon="13.2571883"><ele>373.0</ele><time>2026-05-05T09:10:22.566Z</time></trkpt><trkpt lat="37.8657267" lon="13.2571067"><ele>373.0</ele><time>2026-05-05T09:10:23.566Z</time></trkpt><trkpt lat="37.8656833" lon="13.2570283"><ele>372.66666666666663</ele><time>2026-05-05T09:10:24.567Z</time></trkpt><trkpt lat="37.8656383" lon="13.2569483"><ele>372.3333333333333</ele><time>2026-05-05T09:10:25.564Z</time></trkpt><trkpt lat="37.8655967" lon="13.2568617"><ele>372.0</ele><time>2026-05-05T09:10:26.566Z</time></trkpt><trkpt lat="37.86555" lon="13.25677"><ele>371.6666666666667</ele><time>2026-05-05T09:10:27.564Z</time></trkpt><trkpt lat="37.8655033" lon="13.25668"><ele>371.33333333333337</ele><time>2026-05-05T09:10:28.566Z</time></trkpt><trkpt lat="37.8654533" lon="13.2565867"><ele>371.0</ele><time>2026-05-05T09:10:29.565Z</time></trkpt><trkpt lat="37.8653983" lon="13.2564917"><ele>371.6</ele><time>2026-05-05T09:10:30.566Z</time></trkpt><trkpt lat="37.8653417" lon="13.2563967"><ele>372.20000000000005</ele><time>2026-05-05T09:10:31.565Z</time></trkpt><trkpt lat="37.8652817" lon="13.2563"><ele>372.79999999999995</ele><time>2026-05-05T09:10:32.567Z</time></trkpt><trkpt lat="37.8652233" lon="13.2561983"><ele>373.4</ele><time>2026-05-05T09:10:33.566Z</time></trkpt><trkpt lat="37.8651683" lon="13.2560933"><ele>374.0</ele><time>2026-05-05T09:10:34.565Z</time></trkpt><trkpt lat="37.8651117" lon="13.25599"><ele>374.4</ele><time>2026-05-05T09:10:35.565Z</time></trkpt><trkpt lat="37.8650567" lon="13.2558867"><ele>374.79999999999995</ele><time>2026-05-05T09:10:36.565Z</time></trkpt><trkpt lat="37.8650017" lon="13.2557867"><ele>375.20000000000005</ele><time>2026-05-05T09:10:37.566Z</time></trkpt><trkpt lat="37.86495" lon="13.25569"><ele>375.6</ele><time>2026-05-05T09:10:38.564Z</time></trkpt><trkpt lat="37.8649067" lon="13.2555933"><ele>376.0</ele><time>2026-05-05T09:10:39.565Z</time></trkpt><trkpt lat="37.8648667" lon="13.2555083"><ele>376.16666666666663</ele><time>2026-05-05T09:10:40.565Z</time></trkpt><trkpt lat="37.8648283" lon="13.2554333"><ele>376.3333333333333</ele><time>2026-05-05T09:10:41.566Z</time></trkpt><trkpt lat="37.8647617" lon="13.2553017"><ele>376.5</ele><time>2026-05-05T09:10:43.564Z</time></trkpt><trkpt lat="37.8647217" lon="13.2552333"><ele>376.6666666666667</ele><time>2026-05-05T09:10:44.566Z</time></trkpt><trkpt lat="37.8646717" lon="13.2551467"><ele>376.83333333333337</ele><time>2026-05-05T09:10:45.567Z</time></trkpt><trkpt lat="37.8646217" lon="13.2550517"><ele>377.0</ele><time>2026-05-05T09:10:46.567Z</time></trkpt><trkpt lat="37.8645683" lon="13.2549567"><ele>377.0</ele><time>2026-05-05T09:10:47.566Z</time></trkpt><trkpt lat="37.8645083" lon="13.254855"><ele>377.0</ele><time>2026-05-05T09:10:48.565Z</time></trkpt><trkpt lat="37.8644417" lon="13.2547533"><ele>377.0</ele><time>2026-05-05T09:10:49.566Z</time></trkpt><trkpt lat="37.86437" lon="13.2546533"><ele>377.0</ele><time>2026-05-05T09:10:50.567Z</time></trkpt><trkpt lat="37.864295" lon="13.2545533"><ele>377.0</ele><time>2026-05-05T09:10:51.567Z</time></trkpt><trkpt lat="37.864225" lon="13.2544617"><ele>376.40000000000003</ele><time>2026-05-05T09:10:52.564Z</time></trkpt><trkpt lat="37.8641617" lon="13.2543717"><ele>375.8</ele><time>2026-05-05T09:10:53.567Z</time></trkpt><trkpt lat="37.8641" lon="13.2542833"><ele>375.2</ele><time>2026-05-05T09:10:54.566Z</time></trkpt><trkpt lat="37.8640367" lon="13.2542017"><ele>374.6</ele><time>2026-05-05T09:10:55.565Z</time></trkpt><trkpt lat="37.8639717" lon="13.25411"><ele>374.0</ele><time>2026-05-05T09:10:56.566Z</time></trkpt><trkpt lat="37.8639" lon="13.254015"><ele>372.79999999999995</ele><time>2026-05-05T09:10:57.564Z</time></trkpt><trkpt lat="37.8638267" lon="13.2539167"><ele>371.59999999999997</ele><time>2026-05-05T09:10:58.566Z</time></trkpt><trkpt lat="37.8637517" lon="13.2538117"><ele>370.4</ele><time>2026-05-05T09:10:59.566Z</time></trkpt><trkpt lat="37.8636783" lon="13.2537117"><ele>369.2</ele><time>2026-05-05T09:11:00.567Z</time></trkpt><trkpt lat="37.8636067" lon="13.2536117"><ele>368.0</ele><time>2026-05-05T09:11:01.566Z</time></trkpt><trkpt lat="37.8635333" lon="13.253515"><ele>368.0</ele><time>2026-05-05T09:11:02.567Z</time></trkpt><trkpt lat="37.8634633" lon="13.253425"><ele>368.0</ele><time>2026-05-05T09:11:03.565Z</time></trkpt><trkpt lat="37.86339" lon="13.2533433"><ele>368.0</ele><time>2026-05-05T09:11:04.564Z</time></trkpt><trkpt lat="37.863325" lon="13.2532633"><ele>368.0</ele><time>2026-05-05T09:11:05.565Z</time></trkpt><trkpt lat="37.8632633" lon="13.2531917"><ele>368.0</ele><time>2026-05-05T09:11:06.565Z</time></trkpt><trkpt lat="37.8632017" lon="13.2531233"><ele>367.59999999999997</ele><time>2026-05-05T09:11:07.565Z</time></trkpt><trkpt lat="37.8631483" lon="13.253065"><ele>367.2</ele><time>2026-05-05T09:11:08.566Z</time></trkpt><trkpt lat="37.8630617" lon="13.2529717"><ele>366.8</ele><time>2026-05-05T09:11:10.565Z</time></trkpt><trkpt lat="37.8629933" lon="13.2529033"><ele>366.4</ele><time>2026-05-05T09:11:12.566Z</time></trkpt><trkpt lat="37.862915" lon="13.2527917"><ele>366.0</ele><time>2026-05-05T09:11:14.567Z</time></trkpt><trkpt lat="37.8628617" lon="13.2527217"><ele>366.0</ele><time>2026-05-05T09:11:15.566Z</time></trkpt><trkpt lat="37.8628067" lon="13.2526483"><ele>366.0</ele><time>2026-05-05T09:11:16.566Z</time></trkpt><trkpt lat="37.8627467" lon="13.2525717"><ele>366.0</ele><time>2026-05-05T09:11:17.566Z</time></trkpt><trkpt lat="37.86269" lon="13.2525067"><ele>366.0</ele><time>2026-05-05T09:11:18.566Z</time></trkpt><trkpt lat="37.862625" lon="13.25243"><ele>366.0</ele><time>2026-05-05T09:11:19.565Z</time></trkpt><trkpt lat="37.86257" lon="13.2523483"><ele>366.0</ele><time>2026-05-05T09:11:20.566Z</time></trkpt><trkpt lat="37.8625233" lon="13.2522633"><ele>364.6666666666667</ele><time>2026-05-05T09:11:21.565Z</time></trkpt><trkpt lat="37.8624817" lon="13.25217"><ele>363.3333333333333</ele><time>2026-05-05T09:11:22.565Z</time></trkpt><trkpt lat="37.8624367" lon="13.25207"><ele>362.0</ele><time>2026-05-05T09:11:23.566Z</time></trkpt><trkpt lat="37.8624" lon="13.251975"><ele>360.66666666666663</ele><time>2026-05-05T09:11:24.565Z</time></trkpt><trkpt lat="37.86237" lon="13.2518833"><ele>359.3333333333333</ele><time>2026-05-05T09:11:25.565Z</time></trkpt><trkpt lat="37.862345" lon="13.2517967"><ele>358.0</ele><time>2026-05-05T09:11:26.565Z</time></trkpt><trkpt lat="37.8623183" lon="13.2517083"><ele>358.0</ele><time>2026-05-05T09:11:27.564Z</time></trkpt><trkpt lat="37.8622933" lon="13.251625"><ele>358.0</ele><time>2026-05-05T09:11:28.564Z</time></trkpt><trkpt lat="37.8622683" lon="13.25154"><ele>358.0</ele><time>2026-05-05T09:11:29.567Z</time></trkpt><trkpt lat="37.8622417" lon="13.2514483"><ele>358.0</ele><time>2026-05-05T09:11:30.567Z</time></trkpt><trkpt lat="37.8622117" lon="13.251355"><ele>358.0</ele><time>2026-05-05T09:11:31.565Z</time></trkpt><trkpt lat="37.8621717" lon="13.25127"><ele>358.0</ele><time>2026-05-05T09:11:32.566Z</time></trkpt><trkpt lat="37.8621233" lon="13.2511967"><ele>357.2</ele><time>2026-05-05T09:11:33.566Z</time></trkpt><trkpt lat="37.8620717" lon="13.2511483"><ele>356.4</ele><time>2026-05-05T09:11:34.566Z</time></trkpt><trkpt lat="37.8619617" lon="13.2510933"><ele>355.59999999999997</ele><time>2026-05-05T09:11:36.566Z</time></trkpt><trkpt lat="37.86185" lon="13.251065"><ele>354.79999999999995</ele><time>2026-05-05T09:11:38.566Z</time></trkpt><trkpt lat="37.8617382" lon="13.2510853"><ele>354.0</ele><time>2026-05-05T09:11:40.566Z</time></trkpt><trkpt lat="37.8616764" lon="13.2511147"><ele>354.0</ele><time>2026-05-05T09:11:41.565Z</time></trkpt><trkpt lat="37.8616084" lon="13.2511512"><ele>354.0</ele><time>2026-05-05T09:11:42.566Z</time></trkpt><trkpt lat="37.8615433" lon="13.2511821"><ele>354.0</ele><time>2026-05-05T09:11:43.565Z</time></trkpt><trkpt lat="37.8614457" lon="13.2512026"><ele>354.0</ele><time>2026-05-05T09:11:45.565Z</time></trkpt><trkpt lat="37.8614703" lon="13.2511027"><ele>354.0</ele><time>2026-05-05T09:11:49.566Z</time></trkpt><trkpt lat="37.8615451" lon="13.2510556"><ele>354.0</ele><time>2026-05-05T09:11:51.565Z</time></trkpt><trkpt lat="37.8616184" lon="13.2510006"><ele>354.0</ele><time>2026-05-05T09:11:53.566Z</time></trkpt><trkpt lat="37.8617017" lon="13.2509499"><ele>354.0</ele><time>2026-05-05T09:11:55.567Z</time></trkpt><trkpt lat="37.86176" lon="13.2509139"><ele>354.0</ele><time>2026-05-05T09:11:56.566Z</time></trkpt><trkpt lat="37.8618263" lon="13.2508745"><ele>354.0</ele><time>2026-05-05T09:11:57.566Z</time></trkpt><trkpt lat="37.8619027" lon="13.2508295"><ele>354.0</ele><time>2026-05-05T09:11:58.566Z</time></trkpt><trkpt lat="37.861988" lon="13.2507807"><ele>354.0</ele><time>2026-05-05T09:11:59.565Z</time></trkpt><trkpt lat="37.8620802" lon="13.2507308"><ele>353.75</ele><time>2026-05-05T09:12:00.565Z</time></trkpt><trkpt lat="37.8621782" lon="13.2506831"><ele>353.5</ele><time>2026-05-05T09:12:01.565Z</time></trkpt><trkpt lat="37.8622807" lon="13.2506335"><ele>353.25</ele><time>2026-05-05T09:12:02.565Z</time></trkpt><trkpt lat="37.8623897" lon="13.25058"><ele>353.0</ele><time>2026-05-05T09:12:03.564Z</time></trkpt><trkpt lat="37.8625017" lon="13.2505272"><ele>353.0</ele><time>2026-05-05T09:12:04.566Z</time></trkpt><trkpt lat="37.8626157" lon="13.2504773"><ele>353.0</ele><time>2026-05-05T09:12:05.564Z</time></trkpt><trkpt lat="37.8627322" lon="13.2504228"><ele>353.0</ele><time>2026-05-05T09:12:06.565Z</time></trkpt><trkpt lat="37.862852" lon="13.2503644"><ele>353.0</ele><time>2026-05-05T09:12:07.566Z</time></trkpt><trkpt lat="37.8629739" lon="13.2503044"><ele>353.0</ele><time>2026-05-05T09:12:08.567Z</time></trkpt><trkpt lat="37.8630989" lon="13.250244"><ele>353.0</ele><time>2026-05-05T09:12:09.566Z</time></trkpt><trkpt lat="37.863227" lon="13.2501831"><ele>353.0</ele><time>2026-05-05T09:12:10.566Z</time></trkpt><trkpt lat="37.8633558" lon="13.2501195"><ele>353.0</ele><time>2026-05-05T09:12:11.566Z</time></trkpt><trkpt lat="37.8634874" lon="13.2500565"><ele>354.25</ele><time>2026-05-05T09:12:12.565Z</time></trkpt><trkpt lat="37.8636196" lon="13.2499898"><ele>355.5</ele><time>2026-05-05T09:12:13.566Z</time></trkpt><trkpt lat="37.8637514" lon="13.2499243"><ele>356.75</ele><time>2026-05-05T09:12:14.567Z</time></trkpt><trkpt lat="37.8638844" lon="13.2498602"><ele>358.0</ele><time>2026-05-05T09:12:15.566Z</time></trkpt><trkpt lat="37.864018" lon="13.2497974"><ele>356.25</ele><time>2026-05-05T09:12:16.564Z</time></trkpt><trkpt lat="37.8641531" lon="13.2497317"><ele>354.5</ele><time>2026-05-05T09:12:17.566Z</time></trkpt><trkpt lat="37.8642882" lon="13.2496632"><ele>352.75</ele><time>2026-05-05T09:12:18.565Z</time></trkpt><trkpt lat="37.8644247" lon="13.2495957"><ele>351.0</ele><time>2026-05-05T09:12:19.566Z</time></trkpt><trkpt lat="37.8645627" lon="13.2495275"><ele>351.0</ele><time>2026-05-05T09:12:20.565Z</time></trkpt><trkpt lat="37.8647025" lon="13.249459"><ele>351.0</ele><time>2026-05-05T09:12:21.564Z</time></trkpt><trkpt lat="37.8648428" lon="13.2493893"><ele>351.0</ele><time>2026-05-05T09:12:22.565Z</time></trkpt><trkpt lat="37.8649837" lon="13.2493178"><ele>352.6666666666667</ele><time>2026-05-05T09:12:23.566Z</time></trkpt><trkpt lat="37.8651249" lon="13.2492494"><ele>354.33333333333337</ele><time>2026-05-05T09:12:24.566Z</time></trkpt><trkpt lat="37.8652658" lon="13.2491789"><ele>356.0</ele><time>2026-05-05T09:12:25.565Z</time></trkpt><trkpt lat="37.8654066" lon="13.2491109"><ele>356.0</ele><time>2026-05-05T09:12:26.567Z</time></trkpt><trkpt lat="37.8655467" lon="13.2490403"><ele>356.0</ele><time>2026-05-05T09:12:27.566Z</time></trkpt><trkpt lat="37.8656862" lon="13.2489712"><ele>356.0</ele><time>2026-05-05T09:12:28.566Z</time></trkpt><trkpt lat="37.8658251" lon="13.2489036"><ele>356.0</ele><time>2026-05-05T09:12:29.566Z</time></trkpt><trkpt lat="37.8659632" lon="13.2488393"><ele>356.5</ele><time>2026-05-05T09:12:30.566Z</time></trkpt><trkpt lat="37.8660992" lon="13.2487764"><ele>357.0</ele><time>2026-05-05T09:12:31.567Z</time></trkpt><trkpt lat="37.8662348" lon="13.2487112"><ele>357.5</ele><time>2026-05-05T09:12:32.566Z</time></trkpt><trkpt lat="37.8663712" lon="13.2486437"><ele>358.0</ele><time>2026-05-05T09:12:33.565Z</time></trkpt><trkpt lat="37.8665096" lon="13.2485787"><ele>358.0</ele><time>2026-05-05T09:12:34.565Z</time></trkpt><trkpt lat="37.8666514" lon="13.2485153"><ele>358.0</ele><time>2026-05-05T09:12:35.566Z</time></trkpt><trkpt lat="37.8667966" lon="13.2484491"><ele>358.0</ele><time>2026-05-05T09:12:36.565Z</time></trkpt><trkpt lat="37.8669436" lon="13.2483798"><ele>359.66666666666663</ele><time>2026-05-05T09:12:37.566Z</time></trkpt><trkpt lat="37.8670914" lon="13.2483062"><ele>361.3333333333333</ele><time>2026-05-05T09:12:38.567Z</time></trkpt><trkpt lat="37.8672385" lon="13.2482318"><ele>363.0</ele><time>2026-05-05T09:12:39.565Z</time></trkpt><trkpt lat="37.8673771" lon="13.2481573"><ele>363.0</ele><time>2026-05-05T09:12:40.567Z</time></trkpt><trkpt lat="37.8674992" lon="13.2480758"><ele>363.0</ele><time>2026-05-05T09:12:41.565Z</time></trkpt><trkpt lat="37.8676027" lon="13.2479713"><ele>363.0</ele><time>2026-05-05T09:12:42.566Z</time></trkpt><trkpt lat="37.8676932" lon="13.2478396"><ele>363.0</ele><time>2026-05-05T09:12:43.566Z</time></trkpt><trkpt lat="37.8677813" lon="13.247695"><ele>363.0</ele><time>2026-05-05T09:12:44.566Z</time></trkpt><trkpt lat="37.8678715" lon="13.2475449"><ele>363.0</ele><time>2026-05-05T09:12:45.566Z</time></trkpt><trkpt lat="37.8679658" lon="13.2473934"><ele>363.0</ele><time>2026-05-05T09:12:46.565Z</time></trkpt><trkpt lat="37.8680647" lon="13.2472396"><ele>362.6666666666667</ele><time>2026-05-05T09:12:47.566Z</time></trkpt><trkpt lat="37.8681655" lon="13.2470809"><ele>362.33333333333337</ele><time>2026-05-05T09:12:48.566Z</time></trkpt><trkpt lat="37.8682671" lon="13.2469169"><ele>362.0</ele><time>2026-05-05T09:12:49.566Z</time></trkpt><trkpt lat="37.8683724" lon="13.2467508"><ele>361.6666666666667</ele><time>2026-05-05T09:12:50.565Z</time></trkpt><trkpt lat="37.8684839" lon="13.2465847"><ele>361.3333333333333</ele><time>2026-05-05T09:12:51.563Z</time></trkpt><trkpt lat="37.8685976" lon="13.2464141"><ele>361.0</ele><time>2026-05-05T09:12:52.566Z</time></trkpt><trkpt lat="37.8687114" lon="13.2462394"><ele>361.66666666666663</ele><time>2026-05-05T09:12:53.566Z</time></trkpt><trkpt lat="37.8688276" lon="13.2460623"><ele>362.3333333333333</ele><time>2026-05-05T09:12:54.566Z</time></trkpt><trkpt lat="37.8689471" lon="13.2458842"><ele>363.0</ele><time>2026-05-05T09:12:55.565Z</time></trkpt><trkpt lat="37.8690702" lon="13.2457054"><ele>362.0</ele><time>2026-05-05T09:12:56.567Z</time></trkpt><trkpt lat="37.8691943" lon="13.2455266"><ele>361.0</ele><time>2026-05-05T09:12:57.565Z</time></trkpt><trkpt lat="37.8693191" lon="13.2453481"><ele>360.0</ele><time>2026-05-05T09:12:58.565Z</time></trkpt><trkpt lat="37.8694407" lon="13.2451702"><ele>360.0</ele><time>2026-05-05T09:12:59.564Z</time></trkpt><trkpt lat="37.8695608" lon="13.2449914"><ele>360.0</ele><time>2026-05-05T09:13:00.57Z</time></trkpt><trkpt lat="37.8696757" lon="13.2448207"><ele>360.0</ele><time>2026-05-05T09:13:01.565Z</time></trkpt><trkpt lat="37.8697875" lon="13.2446599"><ele>359.6666666666667</ele><time>2026-05-05T09:13:02.564Z</time></trkpt><trkpt lat="37.8698948" lon="13.2445079"><ele>359.33333333333337</ele><time>2026-05-05T09:13:03.564Z</time></trkpt><trkpt lat="37.8699953" lon="13.2443613"><ele>359.0</ele><time>2026-05-05T09:13:04.566Z</time></trkpt><trkpt lat="37.8700897" lon="13.2442222"><ele>359.0</ele><time>2026-05-05T09:13:05.564Z</time></trkpt><trkpt lat="37.8701803" lon="13.244087"><ele>359.0</ele><time>2026-05-05T09:13:06.564Z</time></trkpt><trkpt lat="37.8702675" lon="13.2439558"><ele>359.0</ele><time>2026-05-05T09:13:07.565Z</time></trkpt><trkpt lat="37.8703583" lon="13.2438283"><ele>359.0</ele><time>2026-05-05T09:13:08.566Z</time></trkpt><trkpt lat="37.8704567" lon="13.2436967"><ele>359.0</ele><time>2026-05-05T09:13:09.564Z</time></trkpt><trkpt lat="37.8705533" lon="13.24356"><ele>359.0</ele><time>2026-05-05T09:13:10.565Z</time></trkpt><trkpt lat="37.87065" lon="13.24342"><ele>359.0</ele><time>2026-05-05T09:13:11.565Z</time></trkpt><trkpt lat="37.8707483" lon="13.243275"><ele>359.0</ele><time>2026-05-05T09:13:12.565Z</time></trkpt><trkpt lat="37.87085" lon="13.2431283"><ele>358.6666666666667</ele><time>2026-05-05T09:13:13.563Z</time></trkpt><trkpt lat="37.87095" lon="13.2429783"><ele>358.3333333333333</ele><time>2026-05-05T09:13:14.566Z</time></trkpt><trkpt lat="37.8710517" lon="13.2428267"><ele>358.0</ele><time>2026-05-05T09:13:15.565Z</time></trkpt><trkpt lat="37.8711567" lon="13.2426717"><ele>358.0</ele><time>2026-05-05T09:13:16.565Z</time></trkpt><trkpt lat="37.87126" lon="13.24252"><ele>358.0</ele><time>2026-05-05T09:13:17.566Z</time></trkpt><trkpt lat="37.871365" lon="13.24237"><ele>358.0</ele><time>2026-05-05T09:13:18.566Z</time></trkpt><trkpt lat="37.871465" lon="13.2422267"><ele>358.0</ele><time>2026-05-05T09:13:19.567Z</time></trkpt><trkpt lat="37.87156" lon="13.24209"><ele>358.0</ele><time>2026-05-05T09:13:20.567Z</time></trkpt><trkpt lat="37.871645" lon="13.2419533"><ele>358.0</ele><time>2026-05-05T09:13:21.567Z</time></trkpt><trkpt lat="37.8717167" lon="13.2418167"><ele>358.0</ele><time>2026-05-05T09:13:22.566Z</time></trkpt><trkpt lat="37.871775" lon="13.2416767"><ele>358.0</ele><time>2026-05-05T09:13:23.565Z</time></trkpt><trkpt lat="37.8718183" lon="13.2415283"><ele>358.0</ele><time>2026-05-05T09:13:24.564Z</time></trkpt><trkpt lat="37.8718567" lon="13.2413733"><ele>358.0</ele><time>2026-05-05T09:13:25.564Z</time></trkpt><trkpt lat="37.8718917" lon="13.2412133"><ele>358.0</ele><time>2026-05-05T09:13:26.565Z</time></trkpt><trkpt lat="37.87193" lon="13.2410483"><ele>358.25</ele><time>2026-05-05T09:13:27.565Z</time></trkpt><trkpt lat="37.8719717" lon="13.24088"><ele>358.5</ele><time>2026-05-05T09:13:28.567Z</time></trkpt><trkpt lat="37.87202" lon="13.2407117"><ele>358.75</ele><time>2026-05-05T09:13:29.565Z</time></trkpt><trkpt lat="37.8720833" lon="13.2405517"><ele>359.0</ele><time>2026-05-05T09:13:30.565Z</time></trkpt><trkpt lat="37.8721617" lon="13.240405"><ele>358.5</ele><time>2026-05-05T09:13:31.565Z</time></trkpt><trkpt lat="37.87225" lon="13.2402683"><ele>358.0</ele><time>2026-05-05T09:13:32.565Z</time></trkpt><trkpt lat="37.8723383" lon="13.2401383"><ele>357.5</ele><time>2026-05-05T09:13:33.565Z</time></trkpt><trkpt lat="37.8724267" lon="13.2400033"><ele>357.0</ele><time>2026-05-05T09:13:34.564Z</time></trkpt><trkpt lat="37.87251" lon="13.239865"><ele>356.5</ele><time>2026-05-05T09:13:35.565Z</time></trkpt><trkpt lat="37.87259" lon="13.2397183"><ele>356.0</ele><time>2026-05-05T09:13:36.569Z</time></trkpt><trkpt lat="37.8726617" lon="13.239565"><ele>355.5</ele><time>2026-05-05T09:13:37.564Z</time></trkpt><trkpt lat="37.8727117" lon="13.239405"><ele>355.0</ele><time>2026-05-05T09:13:38.565Z</time></trkpt><trkpt lat="37.8727383" lon="13.2392467"><ele>355.0</ele><time>2026-05-05T09:13:39.565Z</time></trkpt><trkpt lat="37.8727467" lon="13.2390917"><ele>355.0</ele><time>2026-05-05T09:13:40.564Z</time></trkpt><trkpt lat="37.8727483" lon="13.2389367"><ele>355.0</ele><time>2026-05-05T09:13:41.565Z</time></trkpt><trkpt lat="37.87276" lon="13.2387833"><ele>355.0</ele><time>2026-05-05T09:13:42.564Z</time></trkpt><trkpt lat="37.8727867" lon="13.2386417"><ele>354.8</ele><time>2026-05-05T09:13:43.565Z</time></trkpt><trkpt lat="37.87283" lon="13.2385133"><ele>354.6</ele><time>2026-05-05T09:13:44.566Z</time></trkpt><trkpt lat="37.87289" lon="13.2384017"><ele>354.4</ele><time>2026-05-05T09:13:45.565Z</time></trkpt><trkpt lat="37.8729633" lon="13.2382967"><ele>354.2</ele><time>2026-05-05T09:13:46.565Z</time></trkpt><trkpt lat="37.8730467" lon="13.23819"><ele>354.0</ele><time>2026-05-05T09:13:47.565Z</time></trkpt><trkpt lat="37.8731333" lon="13.2380717"><ele>353.75</ele><time>2026-05-05T09:13:48.564Z</time></trkpt><trkpt lat="37.873225" lon="13.2379433"><ele>353.5</ele><time>2026-05-05T09:13:49.565Z</time></trkpt><trkpt lat="37.87332" lon="13.237815"><ele>353.25</ele><time>2026-05-05T09:13:50.566Z</time></trkpt><trkpt lat="37.873415" lon="13.23769"><ele>353.0</ele><time>2026-05-05T09:13:51.565Z</time></trkpt><trkpt lat="37.8735033" lon="13.2375717"><ele>353.0</ele><time>2026-05-05T09:13:52.564Z</time></trkpt><trkpt lat="37.8735867" lon="13.2374567"><ele>353.0</ele><time>2026-05-05T09:13:53.567Z</time></trkpt><trkpt lat="37.87367" lon="13.2373467"><ele>353.0</ele><time>2026-05-05T09:13:54.565Z</time></trkpt><trkpt lat="37.87375" lon="13.2372433"><ele>353.0</ele><time>2026-05-05T09:13:55.564Z</time></trkpt><trkpt lat="37.87383" lon="13.2371483"><ele>352.5</ele><time>2026-05-05T09:13:56.567Z</time></trkpt><trkpt lat="37.87391" lon="13.2370583"><ele>352.0</ele><time>2026-05-05T09:13:57.565Z</time></trkpt><trkpt lat="37.8739933" lon="13.236965"><ele>351.5</ele><time>2026-05-05T09:13:58.564Z</time></trkpt><trkpt lat="37.8740833" lon="13.23687"><ele>351.0</ele><time>2026-05-05T09:13:59.564Z</time></trkpt><trkpt lat="37.87418" lon="13.2367733"><ele>350.75</ele><time>2026-05-05T09:14:00.565Z</time></trkpt><trkpt lat="37.8742817" lon="13.236675"><ele>350.5</ele><time>2026-05-05T09:14:01.566Z</time></trkpt><trkpt lat="37.87439" lon="13.23658"><ele>350.25</ele><time>2026-05-05T09:14:02.565Z</time></trkpt><trkpt lat="37.8745033" lon="13.2364867"><ele>350.0</ele><time>2026-05-05T09:14:03.565Z</time></trkpt><trkpt lat="37.8746167" lon="13.2363867"><ele>350.0</ele><time>2026-05-05T09:14:04.565Z</time></trkpt><trkpt lat="37.87473" lon="13.236285"><ele>350.0</ele><time>2026-05-05T09:14:05.565Z</time></trkpt><trkpt lat="37.8748483" lon="13.236185"><ele>350.0</ele><time>2026-05-05T09:14:06.564Z</time></trkpt><trkpt lat="37.8749667" lon="13.2360917"><ele>350.0</ele><time>2026-05-05T09:14:07.564Z</time></trkpt><trkpt lat="37.8750867" lon="13.2359967"><ele>349.5</ele><time>2026-05-05T09:14:08.566Z</time></trkpt><trkpt lat="37.8752067" lon="13.2358983"><ele>349.0</ele><time>2026-05-05T09:14:09.565Z</time></trkpt><trkpt lat="37.875325" lon="13.2357983"><ele>348.5</ele><time>2026-05-05T09:14:10.566Z</time></trkpt><trkpt lat="37.8754433" lon="13.2356933"><ele>348.0</ele><time>2026-05-05T09:14:11.564Z</time></trkpt><trkpt lat="37.8755617" lon="13.235595"><ele>349.25</ele><time>2026-05-05T09:14:12.567Z</time></trkpt><trkpt lat="37.8756817" lon="13.2354983"><ele>350.5</ele><time>2026-05-05T09:14:13.565Z</time></trkpt><trkpt lat="37.8758017" lon="13.2354017"><ele>351.75</ele><time>2026-05-05T09:14:14.566Z</time></trkpt><trkpt lat="37.87592" lon="13.235305"><ele>353.0</ele><time>2026-05-05T09:14:15.565Z</time></trkpt><trkpt lat="37.8760317" lon="13.2352117"><ele>354.4</ele><time>2026-05-05T09:14:16.565Z</time></trkpt><trkpt lat="37.876135" lon="13.2351267"><ele>355.79999999999995</ele><time>2026-05-05T09:14:17.565Z</time></trkpt><trkpt lat="37.8762333" lon="13.2350533"><ele>357.2</ele><time>2026-05-05T09:14:18.564Z</time></trkpt><trkpt lat="37.8763267" lon="13.235"><ele>358.6</ele><time>2026-05-05T09:14:19.564Z</time></trkpt><trkpt lat="37.8764167" lon="13.234975"><ele>360.0</ele><time>2026-05-05T09:14:20.566Z</time></trkpt><trkpt lat="37.8764983" lon="13.2349783"><ele>360.0</ele><time>2026-05-05T09:14:21.564Z</time></trkpt><trkpt lat="37.87656" lon="13.2350133"><ele>360.0</ele><time>2026-05-05T09:14:22.565Z</time></trkpt><trkpt lat="37.8766167" lon="13.235085"><ele>360.0</ele><time>2026-05-05T09:14:23.565Z</time></trkpt><trkpt lat="37.8766767" lon="13.23517"><ele>360.0</ele><time>2026-05-05T09:14:24.564Z</time></trkpt><trkpt lat="37.876745" lon="13.2352633"><ele>360.0</ele><time>2026-05-05T09:14:25.564Z</time></trkpt><trkpt lat="37.8768233" lon="13.2353467"><ele>360.0</ele><time>2026-05-05T09:14:26.566Z</time></trkpt><trkpt lat="37.876915" lon="13.2354017"><ele>359.2</ele><time>2026-05-05T09:14:27.565Z</time></trkpt><trkpt lat="37.877015" lon="13.235415"><ele>358.4</ele><time>2026-05-05T09:14:28.565Z</time></trkpt><trkpt lat="37.8771167" lon="13.2353983"><ele>357.6</ele><time>2026-05-05T09:14:29.564Z</time></trkpt><trkpt lat="37.8772167" lon="13.23535"><ele>356.8</ele><time>2026-05-05T09:14:30.563Z</time></trkpt><trkpt lat="37.8773117" lon="13.2352717"><ele>356.0</ele><time>2026-05-05T09:14:31.565Z</time></trkpt><trkpt lat="37.8774" lon="13.2351717"><ele>356.0</ele><time>2026-05-05T09:14:32.564Z</time></trkpt><trkpt lat="37.8774867" lon="13.23505"><ele>356.0</ele><time>2026-05-05T09:14:33.565Z</time></trkpt><trkpt lat="37.8775733" lon="13.2349083"><ele>356.0</ele><time>2026-05-05T09:14:34.565Z</time></trkpt><trkpt lat="37.8776517" lon="13.2347517"><ele>356.0</ele><time>2026-05-05T09:14:35.565Z</time></trkpt><trkpt lat="37.877715" lon="13.23459"><ele>353.5</ele><time>2026-05-05T09:14:36.564Z</time></trkpt><trkpt lat="37.8777717" lon="13.2344217"><ele>351.0</ele><time>2026-05-05T09:14:37.564Z</time></trkpt><trkpt lat="37.8778283" lon="13.2342467"><ele>348.5</ele><time>2026-05-05T09:14:38.565Z</time></trkpt><trkpt lat="37.8778867" lon="13.2340667"><ele>346.0</ele><time>2026-05-05T09:14:39.565Z</time></trkpt><trkpt lat="37.8779417" lon="13.2338867"><ele>346.0</ele><time>2026-05-05T09:14:40.565Z</time></trkpt><trkpt lat="37.877995" lon="13.2337133"><ele>346.0</ele><time>2026-05-05T09:14:41.564Z</time></trkpt><trkpt lat="37.8780617" lon="13.2335517"><ele>346.0</ele><time>2026-05-05T09:14:42.566Z</time></trkpt><trkpt lat="37.87815" lon="13.2334133"><ele>346.0</ele><time>2026-05-05T09:14:43.563Z</time></trkpt><trkpt lat="37.87825" lon="13.2332967"><ele>346.0</ele><time>2026-05-05T09:14:44.565Z</time></trkpt><trkpt lat="37.878355" lon="13.2331933"><ele>346.0</ele><time>2026-05-05T09:14:45.564Z</time></trkpt><trkpt lat="37.8784617" lon="13.2330933"><ele>346.0</ele><time>2026-05-05T09:14:46.563Z</time></trkpt><trkpt lat="37.8785783" lon="13.233"><ele>346.0</ele><time>2026-05-05T09:14:47.564Z</time></trkpt><trkpt lat="37.8787083" lon="13.2329267"><ele>345.0</ele><time>2026-05-05T09:14:48.565Z</time></trkpt><trkpt lat="37.8788483" lon="13.2328633"><ele>344.0</ele><time>2026-05-05T09:14:49.564Z</time></trkpt><trkpt lat="37.87899" lon="13.2328033"><ele>343.0</ele><time>2026-05-05T09:14:50.565Z</time></trkpt><trkpt lat="37.879125" lon="13.2327433"><ele>342.0</ele><time>2026-05-05T09:14:51.565Z</time></trkpt><trkpt lat="37.8792567" lon="13.2326833"><ele>339.25</ele><time>2026-05-05T09:14:52.564Z</time></trkpt><trkpt lat="37.8793833" lon="13.23262"><ele>336.5</ele><time>2026-05-05T09:14:53.564Z</time></trkpt><trkpt lat="37.8795067" lon="13.232545"><ele>333.75</ele><time>2026-05-05T09:14:54.565Z</time></trkpt><trkpt lat="37.8796217" lon="13.232455"><ele>331.0</ele><time>2026-05-05T09:14:55.565Z</time></trkpt><trkpt lat="37.8797267" lon="13.23235"><ele>332.5</ele><time>2026-05-05T09:14:56.565Z</time></trkpt><trkpt lat="37.87983" lon="13.2322367"><ele>334.0</ele><time>2026-05-05T09:14:57.564Z</time></trkpt><trkpt lat="37.8799367" lon="13.23212"><ele>335.5</ele><time>2026-05-05T09:14:58.565Z</time></trkpt><trkpt lat="37.880045" lon="13.231995"><ele>337.0</ele><time>2026-05-05T09:14:59.563Z</time></trkpt><trkpt lat="37.8801483" lon="13.2318617"><ele>334.25</ele><time>2026-05-05T09:15:00.565Z</time></trkpt><trkpt lat="37.8802467" lon="13.23172"><ele>331.5</ele><time>2026-05-05T09:15:01.565Z</time></trkpt><trkpt lat="37.8803383" lon="13.231575"><ele>328.75</ele><time>2026-05-05T09:15:02.565Z</time></trkpt><trkpt lat="37.880425" lon="13.231425"><ele>326.0</ele><time>2026-05-05T09:15:03.565Z</time></trkpt><trkpt lat="37.88051" lon="13.2312767"><ele>326.0</ele><time>2026-05-05T09:15:04.564Z</time></trkpt><trkpt lat="37.8805917" lon="13.2311283"><ele>326.0</ele><time>2026-05-05T09:15:05.564Z</time></trkpt><trkpt lat="37.8806717" lon="13.2309833"><ele>326.0</ele><time>2026-05-05T09:15:06.564Z</time></trkpt><trkpt lat="37.8807467" lon="13.2308367"><ele>326.0</ele><time>2026-05-05T09:15:07.565Z</time></trkpt><trkpt lat="37.8808217" lon="13.2306917"><ele>325.5</ele><time>2026-05-05T09:15:08.565Z</time></trkpt><trkpt lat="37.880895" lon="13.230545"><ele>325.0</ele><time>2026-05-05T09:15:09.565Z</time></trkpt><trkpt lat="37.88097" lon="13.2303917"><ele>324.5</ele><time>2026-05-05T09:15:10.566Z</time></trkpt><trkpt lat="37.8810467" lon="13.230235"><ele>324.0</ele><time>2026-05-05T09:15:11.564Z</time></trkpt><trkpt lat="37.8811217" lon="13.2300767"><ele>324.0</ele><time>2026-05-05T09:15:12.564Z</time></trkpt><trkpt lat="37.881195" lon="13.229915"><ele>324.0</ele><time>2026-05-05T09:15:13.565Z</time></trkpt><trkpt lat="37.8812667" lon="13.2297517"><ele>324.0</ele><time>2026-05-05T09:15:14.566Z</time></trkpt><trkpt lat="37.8813417" lon="13.2295833"><ele>324.0</ele><time>2026-05-05T09:15:15.563Z</time></trkpt><trkpt lat="37.8814233" lon="13.2294233"><ele>324.0</ele><time>2026-05-05T09:15:16.566Z</time></trkpt><trkpt lat="37.8815067" lon="13.2292833"><ele>324.0</ele><time>2026-05-05T09:15:17.564Z</time></trkpt><trkpt lat="37.8815967" lon="13.2291633"><ele>324.0</ele><time>2026-05-05T09:15:18.565Z</time></trkpt><trkpt lat="37.8817033" lon="13.229065"><ele>324.0</ele><time>2026-05-05T09:15:19.565Z</time></trkpt><trkpt lat="37.8818167" lon="13.2289783"><ele>324.5</ele><time>2026-05-05T09:15:20.566Z</time></trkpt><trkpt lat="37.8819367" lon="13.2288933"><ele>325.0</ele><time>2026-05-05T09:15:21.564Z</time></trkpt><trkpt lat="37.88206" lon="13.2288133"><ele>325.5</ele><time>2026-05-05T09:15:22.564Z</time></trkpt><trkpt lat="37.8821867" lon="13.2287433"><ele>326.0</ele><time>2026-05-05T09:15:23.565Z</time></trkpt><trkpt lat="37.8823117" lon="13.2286717"><ele>326.0</ele><time>2026-05-05T09:15:24.565Z</time></trkpt><trkpt lat="37.8824367" lon="13.228585"><ele>326.0</ele><time>2026-05-05T09:15:25.566Z</time></trkpt><trkpt lat="37.882545" lon="13.22849"><ele>326.0</ele><time>2026-05-05T09:15:26.568Z</time></trkpt><trkpt lat="37.8826383" lon="13.2283917"><ele>326.0</ele><time>2026-05-05T09:15:27.566Z</time></trkpt><trkpt lat="37.8827183" lon="13.2282917"><ele>326.75</ele><time>2026-05-05T09:15:28.569Z</time></trkpt><trkpt lat="37.8827983" lon="13.2281867"><ele>327.5</ele><time>2026-05-05T09:15:29.565Z</time></trkpt><trkpt lat="37.8828783" lon="13.2280767"><ele>328.25</ele><time>2026-05-05T09:15:30.565Z</time></trkpt><trkpt lat="37.8829583" lon="13.2279633"><ele>329.0</ele><time>2026-05-05T09:15:31.565Z</time></trkpt><trkpt lat="37.88304" lon="13.2278417"><ele>329.0</ele><time>2026-05-05T09:15:32.566Z</time></trkpt><trkpt lat="37.88312" lon="13.22772"><ele>329.0</ele><time>2026-05-05T09:15:33.565Z</time></trkpt><trkpt lat="37.8832067" lon="13.2276"><ele>329.0</ele><time>2026-05-05T09:15:34.565Z</time></trkpt><trkpt lat="37.8832967" lon="13.2274983"><ele>329.0</ele><time>2026-05-05T09:15:35.563Z</time></trkpt><trkpt lat="37.8833933" lon="13.2274267"><ele>328.75</ele><time>2026-05-05T09:15:36.566Z</time></trkpt><trkpt lat="37.8834967" lon="13.227375"><ele>328.5</ele><time>2026-05-05T09:15:37.564Z</time></trkpt><trkpt lat="37.8836083" lon="13.2273367"><ele>328.25</ele><time>2026-05-05T09:15:38.566Z</time></trkpt><trkpt lat="37.883725" lon="13.2273033"><ele>328.0</ele><time>2026-05-05T09:15:39.564Z</time></trkpt><trkpt lat="37.88385" lon="13.2272717"><ele>328.0</ele><time>2026-05-05T09:15:40.566Z</time></trkpt><trkpt lat="37.8839817" lon="13.2272383"><ele>328.0</ele><time>2026-05-05T09:15:41.564Z</time></trkpt><trkpt lat="37.8841217" lon="13.2272"><ele>328.0</ele><time>2026-05-05T09:15:42.565Z</time></trkpt><trkpt lat="37.8842683" lon="13.2271633"><ele>328.0</ele><time>2026-05-05T09:15:43.565Z</time></trkpt><trkpt lat="37.8844233" lon="13.227125"><ele>328.66666666666663</ele><time>2026-05-05T09:15:44.564Z</time></trkpt><trkpt lat="37.8845817" lon="13.2270867"><ele>329.3333333333333</ele><time>2026-05-05T09:15:45.565Z</time></trkpt><trkpt lat="37.8847417" lon="13.2270517"><ele>330.0</ele><time>2026-05-05T09:15:46.565Z</time></trkpt><trkpt lat="37.8849" lon="13.22703"><ele>330.0</ele><time>2026-05-05T09:15:47.565Z</time></trkpt><trkpt lat="37.88505" lon="13.22703"><ele>330.0</ele><time>2026-05-05T09:15:48.563Z</time></trkpt><trkpt lat="37.8851983" lon="13.2270467"><ele>330.0</ele><time>2026-05-05T09:15:49.565Z</time></trkpt><trkpt lat="37.88535" lon="13.2270767"><ele>330.0</ele><time>2026-05-05T09:15:50.565Z</time></trkpt><trkpt lat="37.8855" lon="13.22712"><ele>330.0</ele><time>2026-05-05T09:15:51.565Z</time></trkpt><trkpt lat="37.8856367" lon="13.22718"><ele>330.0</ele><time>2026-05-05T09:15:52.565Z</time></trkpt><trkpt lat="37.88576" lon="13.2272533"><ele>330.0</ele><time>2026-05-05T09:15:53.565Z</time></trkpt><trkpt lat="37.8858717" lon="13.2273317"><ele>330.5</ele><time>2026-05-05T09:15:54.564Z</time></trkpt><trkpt lat="37.8859783" lon="13.2274083"><ele>331.0</ele><time>2026-05-05T09:15:55.565Z</time></trkpt><trkpt lat="37.88608" lon="13.2274817"><ele>331.5</ele><time>2026-05-05T09:15:56.565Z</time></trkpt><trkpt lat="37.8861833" lon="13.227555"><ele>332.0</ele><time>2026-05-05T09:15:57.565Z</time></trkpt><trkpt lat="37.8862917" lon="13.2276083"><ele>332.0</ele><time>2026-05-05T09:15:58.566Z</time></trkpt><trkpt lat="37.8864017" lon="13.22763"><ele>332.0</ele><time>2026-05-05T09:15:59.565Z</time></trkpt><trkpt lat="37.8865167" lon="13.2276217"><ele>332.0</ele><time>2026-05-05T09:16:00.564Z</time></trkpt><trkpt lat="37.8866317" lon="13.227585"><ele>332.0</ele><time>2026-05-05T09:16:01.565Z</time></trkpt><trkpt lat="37.8867467" lon="13.2275333"><ele>332.25</ele><time>2026-05-05T09:16:02.565Z</time></trkpt><trkpt lat="37.8868667" lon="13.2274733"><ele>332.5</ele><time>2026-05-05T09:16:03.565Z</time></trkpt><trkpt lat="37.8869917" lon="13.22741"><ele>332.75</ele><time>2026-05-05T09:16:04.566Z</time></trkpt><trkpt lat="37.8871217" lon="13.2273433"><ele>333.0</ele><time>2026-05-05T09:16:05.564Z</time></trkpt><trkpt lat="37.8872567" lon="13.2272733"><ele>333.0</ele><time>2026-05-05T09:16:06.565Z</time></trkpt><trkpt lat="37.887395" lon="13.2272017"><ele>333.0</ele><time>2026-05-05T09:16:07.564Z</time></trkpt><trkpt lat="37.8875367" lon="13.2271267"><ele>333.0</ele><time>2026-05-05T09:16:08.564Z</time></trkpt><trkpt lat="37.8876817" lon="13.2270467"><ele>333.0</ele><time>2026-05-05T09:16:09.566Z</time></trkpt><trkpt lat="37.8878283" lon="13.2269667"><ele>333.0</ele><time>2026-05-05T09:16:10.564Z</time></trkpt><trkpt lat="37.8879733" lon="13.22689"><ele>333.0</ele><time>2026-05-05T09:16:11.564Z</time></trkpt><trkpt lat="37.88811" lon="13.2268233"><ele>333.0</ele><time>2026-05-05T09:16:12.564Z</time></trkpt><trkpt lat="37.8882417" lon="13.2267783"><ele>333.0</ele><time>2026-05-05T09:16:13.566Z</time></trkpt><trkpt lat="37.888375" lon="13.2267617"><ele>333.0</ele><time>2026-05-05T09:16:14.565Z</time></trkpt><trkpt lat="37.8885033" lon="13.22676"><ele>333.0</ele><time>2026-05-05T09:16:15.567Z</time></trkpt><trkpt lat="37.88862" lon="13.2267567"><ele>333.5</ele><time>2026-05-05T09:16:16.564Z</time></trkpt><trkpt lat="37.888725" lon="13.226745"><ele>334.0</ele><time>2026-05-05T09:16:17.565Z</time></trkpt><trkpt lat="37.8888217" lon="13.2267233"><ele>334.5</ele><time>2026-05-05T09:16:18.563Z</time></trkpt><trkpt lat="37.8889083" lon="13.2266933"><ele>335.0</ele><time>2026-05-05T09:16:19.566Z</time></trkpt><trkpt lat="37.888985" lon="13.2266617"><ele>335.5</ele><time>2026-05-05T09:16:20.566Z</time></trkpt><trkpt lat="37.8890533" lon="13.2266317"><ele>336.0</ele><time>2026-05-05T09:16:21.565Z</time></trkpt><trkpt lat="37.8891367" lon="13.226545"><ele>337.0</ele><time>2026-05-05T09:16:23.566Z</time></trkpt><trkpt lat="37.8891367" lon="13.2264517"><ele>338.0</ele><time>2026-05-05T09:16:25.566Z</time></trkpt><trkpt lat="37.889115" lon="13.2263583"><ele>339.0</ele><time>2026-05-05T09:16:27.566Z</time></trkpt><trkpt lat="37.8890883" lon="13.2262017"><ele>340.0</ele><time>2026-05-05T09:16:29.565Z</time></trkpt><trkpt lat="37.8890533" lon="13.22606"><ele>341.0</ele><time>2026-05-05T09:16:30.563Z</time></trkpt><trkpt lat="37.88901" lon="13.2259083"><ele>341.0</ele><time>2026-05-05T09:16:31.564Z</time></trkpt><trkpt lat="37.8889617" lon="13.2257633"><ele>341.0</ele><time>2026-05-05T09:16:32.565Z</time></trkpt><trkpt lat="37.8889167" lon="13.225625"><ele>341.0</ele><time>2026-05-05T09:16:33.565Z</time></trkpt><trkpt lat="37.8888767" lon="13.2254767"><ele>341.0</ele><time>2026-05-05T09:16:34.565Z</time></trkpt><trkpt lat="37.888835" lon="13.2253317"><ele>341.75</ele><time>2026-05-05T09:16:35.565Z</time></trkpt><trkpt lat="37.8887883" lon="13.22519"><ele>342.5</ele><time>2026-05-05T09:16:36.565Z</time></trkpt><trkpt lat="37.8887433" lon="13.2250467"><ele>343.25</ele><time>2026-05-05T09:16:37.564Z</time></trkpt><trkpt lat="37.8887033" lon="13.2249083"><ele>344.0</ele><time>2026-05-05T09:16:38.565Z</time></trkpt><trkpt lat="37.8886667" lon="13.2247867"><ele>344.2</ele><time>2026-05-05T09:16:39.565Z</time></trkpt><trkpt lat="37.88863" lon="13.2246733"><ele>344.4</ele><time>2026-05-05T09:16:40.566Z</time></trkpt><trkpt lat="37.8885917" lon="13.22456"><ele>344.6</ele><time>2026-05-05T09:16:41.565Z</time></trkpt><trkpt lat="37.888555" lon="13.22444"><ele>344.8</ele><time>2026-05-05T09:16:42.565Z</time></trkpt><trkpt lat="37.8885183" lon="13.2243133"><ele>345.0</ele><time>2026-05-05T09:16:43.565Z</time></trkpt><trkpt lat="37.8884867" lon="13.22418"><ele>345.0</ele><time>2026-05-05T09:16:44.566Z</time></trkpt><trkpt lat="37.8884633" lon="13.22404"><ele>345.0</ele><time>2026-05-05T09:16:45.565Z</time></trkpt><trkpt lat="37.8884467" lon="13.2238933"><ele>345.0</ele><time>2026-05-05T09:16:46.564Z</time></trkpt><trkpt lat="37.888435" lon="13.2237383"><ele>345.0</ele><time>2026-05-05T09:16:47.565Z</time></trkpt><trkpt lat="37.8884233" lon="13.22358"><ele>345.5</ele><time>2026-05-05T09:16:48.565Z</time></trkpt><trkpt lat="37.8884083" lon="13.2234233"><ele>346.0</ele><time>2026-05-05T09:16:49.564Z</time></trkpt><trkpt lat="37.8884017" lon="13.223265"><ele>346.5</ele><time>2026-05-05T09:16:50.565Z</time></trkpt><trkpt lat="37.8884067" lon="13.2231067"><ele>347.0</ele><time>2026-05-05T09:16:51.565Z</time></trkpt><trkpt lat="37.888425" lon="13.2229483"><ele>347.40000000000003</ele><time>2026-05-05T09:16:52.564Z</time></trkpt><trkpt lat="37.8884483" lon="13.2228"><ele>347.8</ele><time>2026-05-05T09:16:53.565Z</time></trkpt><trkpt lat="37.8884733" lon="13.222665"><ele>348.2</ele><time>2026-05-05T09:16:54.564Z</time></trkpt><trkpt lat="37.8884983" lon="13.22254"><ele>348.6</ele><time>2026-05-05T09:16:55.566Z</time></trkpt><trkpt lat="37.8885217" lon="13.222415"><ele>349.0</ele><time>2026-05-05T09:16:56.565Z</time></trkpt><trkpt lat="37.888545" lon="13.2222867"><ele>349.4</ele><time>2026-05-05T09:16:57.564Z</time></trkpt><trkpt lat="37.8885683" lon="13.222155"><ele>349.79999999999995</ele><time>2026-05-05T09:16:58.566Z</time></trkpt><trkpt lat="37.88859" lon="13.2220167"><ele>350.20000000000005</ele><time>2026-05-05T09:16:59.566Z</time></trkpt><trkpt lat="37.8886133" lon="13.2218767"><ele>350.6</ele><time>2026-05-05T09:17:00.564Z</time></trkpt><trkpt lat="37.8886367" lon="13.2217333"><ele>351.0</ele><time>2026-05-05T09:17:01.565Z</time></trkpt><trkpt lat="37.8886633" lon="13.2215867"><ele>351.0</ele><time>2026-05-05T09:17:02.565Z</time></trkpt><trkpt lat="37.8886933" lon="13.2214383"><ele>351.0</ele><time>2026-05-05T09:17:03.565Z</time></trkpt><trkpt lat="37.8887267" lon="13.2212933"><ele>351.0</ele><time>2026-05-05T09:17:04.563Z</time></trkpt><trkpt lat="37.88876" lon="13.2211483"><ele>351.0</ele><time>2026-05-05T09:17:05.568Z</time></trkpt><trkpt lat="37.88879" lon="13.221"><ele>351.0</ele><time>2026-05-05T09:17:06.565Z</time></trkpt><trkpt lat="37.8888183" lon="13.2208517"><ele>351.0</ele><time>2026-05-05T09:17:07.566Z</time></trkpt><trkpt lat="37.8888533" lon="13.220705"><ele>351.0</ele><time>2026-05-05T09:17:08.566Z</time></trkpt><trkpt lat="37.8888833" lon="13.2205567"><ele>351.0</ele><time>2026-05-05T09:17:09.565Z</time></trkpt><trkpt lat="37.8889133" lon="13.2204117"><ele>351.4</ele><time>2026-05-05T09:17:10.566Z</time></trkpt><trkpt lat="37.88894" lon="13.22027"><ele>351.8</ele><time>2026-05-05T09:17:11.567Z</time></trkpt><trkpt lat="37.88896" lon="13.2201317"><ele>352.2</ele><time>2026-05-05T09:17:12.566Z</time></trkpt><trkpt lat="37.8889817" lon="13.2199933"><ele>352.59999999999997</ele><time>2026-05-05T09:17:13.565Z</time></trkpt><trkpt lat="37.8890033" lon="13.2198617"><ele>353.0</ele><time>2026-05-05T09:17:14.566Z</time></trkpt><trkpt lat="37.8890167" lon="13.2197433"><ele>353.5</ele><time>2026-05-05T09:17:15.564Z</time></trkpt><trkpt lat="37.8890267" lon="13.2196317"><ele>354.0</ele><time>2026-05-05T09:17:16.565Z</time></trkpt><trkpt lat="37.8890317" lon="13.21952"><ele>354.5</ele><time>2026-05-05T09:17:17.566Z</time></trkpt><trkpt lat="37.8890233" lon="13.2194117"><ele>355.0</ele><time>2026-05-05T09:17:18.565Z</time></trkpt><trkpt lat="37.889" lon="13.21931"><ele>355.5</ele><time>2026-05-05T09:17:19.565Z</time></trkpt><trkpt lat="37.888965" lon="13.2192067"><ele>356.0</ele><time>2026-05-05T09:17:20.565Z</time></trkpt><trkpt lat="37.88893" lon="13.2190967"><ele>357.6</ele><time>2026-05-05T09:17:21.565Z</time></trkpt><trkpt lat="37.8888917" lon="13.2189817"><ele>359.20000000000005</ele><time>2026-05-05T09:17:22.565Z</time></trkpt><trkpt lat="37.8888433" lon="13.2188733"><ele>360.79999999999995</ele><time>2026-05-05T09:17:23.565Z</time></trkpt><trkpt lat="37.888795" lon="13.218765"><ele>362.4</ele><time>2026-05-05T09:17:24.565Z</time></trkpt><trkpt lat="37.8887483" lon="13.2186567"><ele>364.0</ele><time>2026-05-05T09:17:25.564Z</time></trkpt><trkpt lat="37.8886967" lon="13.2185483"><ele>364.0</ele><time>2026-05-05T09:17:26.564Z</time></trkpt><trkpt lat="37.8886433" lon="13.2184417"><ele>364.0</ele><time>2026-05-05T09:17:27.564Z</time></trkpt><trkpt lat="37.8886017" lon="13.2183283"><ele>364.0</ele><time>2026-05-05T09:17:28.565Z</time></trkpt><trkpt lat="37.8885667" lon="13.21821"><ele>364.0</ele><time>2026-05-05T09:17:29.564Z</time></trkpt><trkpt lat="37.8885367" lon="13.2181"><ele>364.0</ele><time>2026-05-05T09:17:30.564Z</time></trkpt><trkpt lat="37.8885167" lon="13.21799"><ele>364.3333333333333</ele><time>2026-05-05T09:17:31.565Z</time></trkpt><trkpt lat="37.8885033" lon="13.2178733"><ele>364.66666666666663</ele><time>2026-05-05T09:17:32.564Z</time></trkpt><trkpt lat="37.8884967" lon="13.2177617"><ele>365.0</ele><time>2026-05-05T09:17:33.564Z</time></trkpt><trkpt lat="37.8884917" lon="13.21766"><ele>365.3333333333333</ele><time>2026-05-05T09:17:34.565Z</time></trkpt><trkpt lat="37.8884783" lon="13.217565"><ele>365.6666666666667</ele><time>2026-05-05T09:17:35.565Z</time></trkpt><trkpt lat="37.8884683" lon="13.2174767"><ele>366.0</ele><time>2026-05-05T09:17:36.565Z</time></trkpt><trkpt lat="37.8884633" lon="13.2173833"><ele>365.1666666666667</ele><time>2026-05-05T09:17:37.564Z</time></trkpt><trkpt lat="37.8884683" lon="13.2172817"><ele>364.3333333333333</ele><time>2026-05-05T09:17:38.564Z</time></trkpt><trkpt lat="37.888475" lon="13.21717"><ele>363.5</ele><time>2026-05-05T09:17:39.565Z</time></trkpt><trkpt lat="37.8884883" lon="13.217055"><ele>362.66666666666663</ele><time>2026-05-05T09:17:40.566Z</time></trkpt><trkpt lat="37.888505" lon="13.21695"><ele>361.8333333333333</ele><time>2026-05-05T09:17:41.563Z</time></trkpt><trkpt lat="37.8885217" lon="13.2168533"><ele>361.0</ele><time>2026-05-05T09:17:42.565Z</time></trkpt><trkpt lat="37.88854" lon="13.21676"><ele>361.0</ele><time>2026-05-05T09:17:43.565Z</time></trkpt><trkpt lat="37.8885633" lon="13.2166733"><ele>361.0</ele><time>2026-05-05T09:17:44.567Z</time></trkpt><trkpt lat="37.88859" lon="13.2165917"><ele>361.0</ele><time>2026-05-05T09:17:45.565Z</time></trkpt><trkpt lat="37.88862" lon="13.2165033"><ele>361.0</ele><time>2026-05-05T09:17:46.566Z</time></trkpt><trkpt lat="37.88866" lon="13.21641"><ele>361.0</ele><time>2026-05-05T09:17:47.565Z</time></trkpt><trkpt lat="37.8886983" lon="13.21632"><ele>361.0</ele><time>2026-05-05T09:17:48.565Z</time></trkpt><trkpt lat="37.8887483" lon="13.2162267"><ele>359.20000000000005</ele><time>2026-05-05T09:17:49.565Z</time></trkpt><trkpt lat="37.8888067" lon="13.2161317"><ele>357.40000000000003</ele><time>2026-05-05T09:17:50.567Z</time></trkpt><trkpt lat="37.88887" lon="13.216035"><ele>355.6</ele><time>2026-05-05T09:17:51.564Z</time></trkpt><trkpt lat="37.8889367" lon="13.21594"><ele>353.8</ele><time>2026-05-05T09:17:52.567Z</time></trkpt><trkpt lat="37.8890083" lon="13.2158433"><ele>352.0</ele><time>2026-05-05T09:17:53.565Z</time></trkpt><trkpt lat="37.8890867" lon="13.2157517"><ele>352.0</ele><time>2026-05-05T09:17:54.566Z</time></trkpt><trkpt lat="37.8891667" lon="13.215665"><ele>352.0</ele><time>2026-05-05T09:17:55.565Z</time></trkpt><trkpt lat="37.8892517" lon="13.2155833"><ele>352.0</ele><time>2026-05-05T09:17:56.567Z</time></trkpt><trkpt lat="37.8893367" lon="13.21551"><ele>352.0</ele><time>2026-05-05T09:17:57.564Z</time></trkpt><trkpt lat="37.8894133" lon="13.21544"><ele>352.0</ele><time>2026-05-05T09:17:58.565Z</time></trkpt><trkpt lat="37.889485" lon="13.2153717"><ele>350.8</ele><time>2026-05-05T09:17:59.565Z</time></trkpt><trkpt lat="37.889545" lon="13.2152967"><ele>349.6</ele><time>2026-05-05T09:18:00.566Z</time></trkpt><trkpt lat="37.8896133" lon="13.21522"><ele>348.40000000000003</ele><time>2026-05-05T09:18:01.565Z</time></trkpt><trkpt lat="37.8896917" lon="13.2151533"><ele>347.20000000000005</ele><time>2026-05-05T09:18:02.566Z</time></trkpt><trkpt lat="37.8897783" lon="13.2150933"><ele>346.0</ele><time>2026-05-05T09:18:03.564Z</time></trkpt><trkpt lat="37.8898567" lon="13.2150433"><ele>346.0</ele><time>2026-05-05T09:18:04.565Z</time></trkpt><trkpt lat="37.8899417" lon="13.2150117"><ele>346.0</ele><time>2026-05-05T09:18:05.566Z</time></trkpt><trkpt lat="37.8900367" lon="13.2149917"><ele>346.0</ele><time>2026-05-05T09:18:06.566Z</time></trkpt><trkpt lat="37.8901283" lon="13.214985"><ele>346.0</ele><time>2026-05-05T09:18:07.565Z</time></trkpt><trkpt lat="37.8902167" lon="13.2149683"><ele>346.0</ele><time>2026-05-05T09:18:08.566Z</time></trkpt><trkpt lat="37.8903" lon="13.2149417"><ele>346.3333333333333</ele><time>2026-05-05T09:18:09.566Z</time></trkpt><trkpt lat="37.89038" lon="13.2149"><ele>346.66666666666663</ele><time>2026-05-05T09:18:10.564Z</time></trkpt><trkpt lat="37.8904417" lon="13.2148367"><ele>347.0</ele><time>2026-05-05T09:18:11.566Z</time></trkpt><trkpt lat="37.8904917" lon="13.2147583"><ele>347.3333333333333</ele><time>2026-05-05T09:18:12.565Z</time></trkpt><trkpt lat="37.8905433" lon="13.2146883"><ele>347.6666666666667</ele><time>2026-05-05T09:18:13.565Z</time></trkpt><trkpt lat="37.8905967" lon="13.21463"><ele>348.0</ele><time>2026-05-05T09:18:14.565Z</time></trkpt><trkpt lat="37.8906567" lon="13.214565"><ele>348.3333333333333</ele><time>2026-05-05T09:18:15.565Z</time></trkpt><trkpt lat="37.8907233" lon="13.2145133"><ele>348.6666666666667</ele><time>2026-05-05T09:18:16.565Z</time></trkpt><trkpt lat="37.8907983" lon="13.214485"><ele>349.0</ele><time>2026-05-05T09:18:17.568Z</time></trkpt><trkpt lat="37.890875" lon="13.2144733"><ele>349.33333333333337</ele><time>2026-05-05T09:18:18.565Z</time></trkpt><trkpt lat="37.8909517" lon="13.21448"><ele>349.6666666666667</ele><time>2026-05-05T09:18:19.565Z</time></trkpt><trkpt lat="37.8910283" lon="13.214505"><ele>350.0</ele><time>2026-05-05T09:18:20.566Z</time></trkpt><trkpt lat="37.89111" lon="13.2145283"><ele>350.83333333333337</ele><time>2026-05-05T09:18:21.564Z</time></trkpt><trkpt lat="37.8911967" lon="13.21455"><ele>351.6666666666667</ele><time>2026-05-05T09:18:22.566Z</time></trkpt><trkpt lat="37.8912833" lon="13.2145733"><ele>352.5</ele><time>2026-05-05T09:18:23.566Z</time></trkpt><trkpt lat="37.8913717" lon="13.2145883"><ele>353.3333333333333</ele><time>2026-05-05T09:18:24.564Z</time></trkpt><trkpt lat="37.8914617" lon="13.2145917"><ele>354.16666666666663</ele><time>2026-05-05T09:18:25.565Z</time></trkpt><trkpt lat="37.89155" lon="13.21459"><ele>355.0</ele><time>2026-05-05T09:18:26.566Z</time></trkpt><trkpt lat="37.8916433" lon="13.2145783"><ele>355.0</ele><time>2026-05-05T09:18:27.565Z</time></trkpt><trkpt lat="37.891735" lon="13.2145633"><ele>355.0</ele><time>2026-05-05T09:18:28.564Z</time></trkpt><trkpt lat="37.8918217" lon="13.214535"><ele>355.0</ele><time>2026-05-05T09:18:29.564Z</time></trkpt><trkpt lat="37.8918917" lon="13.2145083"><ele>355.0</ele><time>2026-05-05T09:18:30.565Z</time></trkpt><trkpt lat="37.891965" lon="13.2144733"><ele>355.0</ele><time>2026-05-05T09:18:31.566Z</time></trkpt><trkpt lat="37.8920333" lon="13.2144233"><ele>355.0</ele><time>2026-05-05T09:18:32.566Z</time></trkpt><trkpt lat="37.8920983" lon="13.2143583"><ele>354.8333333333333</ele><time>2026-05-05T09:18:33.564Z</time></trkpt><trkpt lat="37.8921567" lon="13.2142833"><ele>354.66666666666663</ele><time>2026-05-05T09:18:34.566Z</time></trkpt><trkpt lat="37.8922117" lon="13.2142"><ele>354.5</ele><time>2026-05-05T09:18:35.566Z</time></trkpt><trkpt lat="37.8922567" lon="13.214105"><ele>354.3333333333333</ele><time>2026-05-05T09:18:36.565Z</time></trkpt><trkpt lat="37.8922917" lon="13.214"><ele>354.1666666666667</ele><time>2026-05-05T09:18:37.565Z</time></trkpt><trkpt lat="37.8923217" lon="13.21389"><ele>354.0</ele><time>2026-05-05T09:18:38.568Z</time></trkpt><trkpt lat="37.89235" lon="13.2137767"><ele>355.0</ele><time>2026-05-05T09:18:39.565Z</time></trkpt><trkpt lat="37.8923767" lon="13.21366"><ele>356.0</ele><time>2026-05-05T09:18:40.565Z</time></trkpt><trkpt lat="37.8924033" lon="13.2135433"><ele>357.0</ele><time>2026-05-05T09:18:41.566Z</time></trkpt><trkpt lat="37.8924267" lon="13.213425"><ele>358.0</ele><time>2026-05-05T09:18:42.565Z</time></trkpt><trkpt lat="37.8924483" lon="13.2133017"><ele>359.0</ele><time>2026-05-05T09:18:43.564Z</time></trkpt><trkpt lat="37.892465" lon="13.2131767"><ele>359.4</ele><time>2026-05-05T09:18:44.566Z</time></trkpt><trkpt lat="37.8924733" lon="13.2130467"><ele>359.79999999999995</ele><time>2026-05-05T09:18:45.564Z</time></trkpt><trkpt lat="37.892465" lon="13.212915"><ele>360.20000000000005</ele><time>2026-05-05T09:18:46.565Z</time></trkpt><trkpt lat="37.892445" lon="13.21278"><ele>360.6</ele><time>2026-05-05T09:18:47.566Z</time></trkpt><trkpt lat="37.89241" lon="13.2126417"><ele>361.0</ele><time>2026-05-05T09:18:48.565Z</time></trkpt><trkpt lat="37.8923717" lon="13.2124983"><ele>361.0</ele><time>2026-05-05T09:18:49.565Z</time></trkpt><trkpt lat="37.892335" lon="13.2123583"><ele>361.0</ele><time>2026-05-05T09:18:50.564Z</time></trkpt><trkpt lat="37.892295" lon="13.2122217"><ele>361.0</ele><time>2026-05-05T09:18:51.566Z</time></trkpt><trkpt lat="37.8922567" lon="13.2120933"><ele>361.0</ele><time>2026-05-05T09:18:52.565Z</time></trkpt><trkpt lat="37.8922217" lon="13.211975"><ele>361.0</ele><time>2026-05-05T09:18:53.565Z</time></trkpt><trkpt lat="37.892185" lon="13.2118567"><ele>361.0</ele><time>2026-05-05T09:18:54.565Z</time></trkpt><trkpt lat="37.8921467" lon="13.2117283"><ele>361.0</ele><time>2026-05-05T09:18:55.564Z</time></trkpt><trkpt lat="37.89211" lon="13.2115933"><ele>361.0</ele><time>2026-05-05T09:18:56.565Z</time></trkpt><trkpt lat="37.8920717" lon="13.2114583"><ele>361.0</ele><time>2026-05-05T09:18:57.564Z</time></trkpt><trkpt lat="37.8920317" lon="13.2113183"><ele>361.0</ele><time>2026-05-05T09:18:58.566Z</time></trkpt><trkpt lat="37.8919917" lon="13.2111717"><ele>361.0</ele><time>2026-05-05T09:18:59.565Z</time></trkpt><trkpt lat="37.8919483" lon="13.21102"><ele>361.0</ele><time>2026-05-05T09:19:00.564Z</time></trkpt><trkpt lat="37.891905" lon="13.21087"><ele>361.0</ele><time>2026-05-05T09:19:01.564Z</time></trkpt><trkpt lat="37.8918633" lon="13.2107283"><ele>360.4</ele><time>2026-05-05T09:19:02.565Z</time></trkpt><trkpt lat="37.89182" lon="13.2105967"><ele>359.8</ele><time>2026-05-05T09:19:03.564Z</time></trkpt><trkpt lat="37.89177" lon="13.210475"><ele>359.2</ele><time>2026-05-05T09:19:04.565Z</time></trkpt><trkpt lat="37.8917133" lon="13.2103667"><ele>358.59999999999997</ele><time>2026-05-05T09:19:05.564Z</time></trkpt><trkpt lat="37.8916483" lon="13.2102733"><ele>358.0</ele><time>2026-05-05T09:19:06.565Z</time></trkpt><trkpt lat="37.8915867" lon="13.21018"><ele>357.4</ele><time>2026-05-05T09:19:07.565Z</time></trkpt><trkpt lat="37.8915267" lon="13.2100933"><ele>356.79999999999995</ele><time>2026-05-05T09:19:08.566Z</time></trkpt><trkpt lat="37.8914717" lon="13.2100167"><ele>356.2</ele><time>2026-05-05T09:19:09.565Z</time></trkpt><trkpt lat="37.89143" lon="13.2099517"><ele>355.6</ele><time>2026-05-05T09:19:10.564Z</time></trkpt><trkpt lat="37.8913517" lon="13.20983"><ele>355.0</ele><time>2026-05-05T09:19:12.564Z</time></trkpt><trkpt lat="37.8913033" lon="13.20971"><ele>354.6</ele><time>2026-05-05T09:19:14.564Z</time></trkpt><trkpt lat="37.8913067" lon="13.2095817"><ele>354.2</ele><time>2026-05-05T09:19:16.564Z</time></trkpt><trkpt lat="37.8913417" lon="13.209445"><ele>353.79999999999995</ele><time>2026-05-05T09:19:18.565Z</time></trkpt><trkpt lat="37.891355" lon="13.2093617"><ele>353.4</ele><time>2026-05-05T09:19:19.564Z</time></trkpt><trkpt lat="37.8913617" lon="13.2092783"><ele>353.0</ele><time>2026-05-05T09:19:20.566Z</time></trkpt><trkpt lat="37.89137" lon="13.2091267"><ele>352.33333333333337</ele><time>2026-05-05T09:19:22.565Z</time></trkpt><trkpt lat="37.8913833" lon="13.20898"><ele>351.6666666666667</ele><time>2026-05-05T09:19:24.565Z</time></trkpt><trkpt lat="37.8914" lon="13.208895"><ele>351.0</ele><time>2026-05-05T09:19:25.565Z</time></trkpt><trkpt lat="37.8914283" lon="13.2088067"><ele>350.3333333333333</ele><time>2026-05-05T09:19:26.565Z</time></trkpt><trkpt lat="37.8914483" lon="13.2087117"><ele>349.66666666666663</ele><time>2026-05-05T09:19:27.564Z</time></trkpt><trkpt lat="37.8914667" lon="13.208605"><ele>349.0</ele><time>2026-05-05T09:19:28.565Z</time></trkpt><trkpt lat="37.89149" lon="13.2084883"><ele>349.0</ele><time>2026-05-05T09:19:29.565Z</time></trkpt><trkpt lat="37.89151" lon="13.208365"><ele>349.0</ele><time>2026-05-05T09:19:30.565Z</time></trkpt><trkpt lat="37.8915267" lon="13.2082317"><ele>349.0</ele><time>2026-05-05T09:19:31.564Z</time></trkpt><trkpt lat="37.8915483" lon="13.2080883"><ele>349.0</ele><time>2026-05-05T09:19:32.566Z</time></trkpt><trkpt lat="37.891575" lon="13.2079417"><ele>349.0</ele><time>2026-05-05T09:19:33.565Z</time></trkpt><trkpt lat="37.8916" lon="13.207795"><ele>349.0</ele><time>2026-05-05T09:19:34.565Z</time></trkpt><trkpt lat="37.8916133" lon="13.207645"><ele>349.0</ele><time>2026-05-05T09:19:35.565Z</time></trkpt><trkpt lat="37.8916083" lon="13.207505"><ele>349.0</ele><time>2026-05-05T09:19:36.565Z</time></trkpt><trkpt lat="37.891595" lon="13.2073783"><ele>349.0</ele><time>2026-05-05T09:19:37.566Z</time></trkpt><trkpt lat="37.891575" lon="13.207265"><ele>349.0</ele><time>2026-05-05T09:19:38.565Z</time></trkpt><trkpt lat="37.8915533" lon="13.2071533"><ele>349.79999999999995</ele><time>2026-05-05T09:19:39.563Z</time></trkpt><trkpt lat="37.8915317" lon="13.2070417"><ele>350.59999999999997</ele><time>2026-05-05T09:19:40.565Z</time></trkpt><trkpt lat="37.8915133" lon="13.2069267"><ele>351.4</ele><time>2026-05-05T09:19:41.565Z</time></trkpt><trkpt lat="37.8914933" lon="13.2068117"><ele>352.2</ele><time>2026-05-05T09:19:42.563Z</time></trkpt><trkpt lat="37.8914767" lon="13.206695"><ele>353.0</ele><time>2026-05-05T09:19:43.565Z</time></trkpt><trkpt lat="37.89146" lon="13.206575"><ele>354.0</ele><time>2026-05-05T09:19:44.567Z</time></trkpt><trkpt lat="37.8914333" lon="13.2064617"><ele>355.0</ele><time>2026-05-05T09:19:45.565Z</time></trkpt><trkpt lat="37.8913983" lon="13.2063533"><ele>356.0</ele><time>2026-05-05T09:19:46.564Z</time></trkpt><trkpt lat="37.8913583" lon="13.206245"><ele>357.0</ele><time>2026-05-05T09:19:47.565Z</time></trkpt><trkpt lat="37.8913167" lon="13.2061367"><ele>358.0</ele><time>2026-05-05T09:19:48.564Z</time></trkpt><trkpt lat="37.8912733" lon="13.2060267"><ele>358.0</ele><time>2026-05-05T09:19:49.565Z</time></trkpt><trkpt lat="37.8912317" lon="13.2059133"><ele>358.0</ele><time>2026-05-05T09:19:50.565Z</time></trkpt><trkpt lat="37.8911867" lon="13.2057967"><ele>358.0</ele><time>2026-05-05T09:19:51.565Z</time></trkpt><trkpt lat="37.89115" lon="13.20567"><ele>358.0</ele><time>2026-05-05T09:19:52.565Z</time></trkpt><trkpt lat="37.8911233" lon="13.205535"><ele>358.0</ele><time>2026-05-05T09:19:53.565Z</time></trkpt><trkpt lat="37.8910767" lon="13.2054117"><ele>358.25</ele><time>2026-05-05T09:19:54.564Z</time></trkpt><trkpt lat="37.891015" lon="13.2052983"><ele>358.5</ele><time>2026-05-05T09:19:55.565Z</time></trkpt><trkpt lat="37.89096" lon="13.205175"><ele>358.75</ele><time>2026-05-05T09:19:56.565Z</time></trkpt><trkpt lat="37.8909117" lon="13.2050417"><ele>359.0</ele><time>2026-05-05T09:19:57.563Z</time></trkpt><trkpt lat="37.89086" lon="13.2049083"><ele>358.0</ele><time>2026-05-05T09:19:58.566Z</time></trkpt><trkpt lat="37.8908133" lon="13.2047833"><ele>357.0</ele><time>2026-05-05T09:19:59.565Z</time></trkpt><trkpt lat="37.890765" lon="13.204675"><ele>356.0</ele><time>2026-05-05T09:20:00.565Z</time></trkpt><trkpt lat="37.8907083" lon="13.2045917"><ele>355.0</ele><time>2026-05-05T09:20:01.566Z</time></trkpt><trkpt lat="37.89064" lon="13.2045283"><ele>354.0</ele><time>2026-05-05T09:20:02.566Z</time></trkpt><trkpt lat="37.8905633" lon="13.2044767"><ele>354.0</ele><time>2026-05-05T09:20:03.565Z</time></trkpt><trkpt lat="37.8904783" lon="13.2044433"><ele>354.0</ele><time>2026-05-05T09:20:04.565Z</time></trkpt><trkpt lat="37.8903983" lon="13.2043983"><ele>354.0</ele><time>2026-05-05T09:20:05.565Z</time></trkpt><trkpt lat="37.890325" lon="13.2043367"><ele>354.0</ele><time>2026-05-05T09:20:06.564Z</time></trkpt><trkpt lat="37.89027" lon="13.2042667"><ele>354.0</ele><time>2026-05-05T09:20:07.565Z</time></trkpt><trkpt lat="37.89022" lon="13.2041833"><ele>354.0</ele><time>2026-05-05T09:20:08.564Z</time></trkpt><trkpt lat="37.8901733" lon="13.2040867"><ele>354.6</ele><time>2026-05-05T09:20:09.565Z</time></trkpt><trkpt lat="37.8901283" lon="13.203985"><ele>355.2</ele><time>2026-05-05T09:20:10.565Z</time></trkpt><trkpt lat="37.8900767" lon="13.2038783"><ele>355.8</ele><time>2026-05-05T09:20:11.565Z</time></trkpt><trkpt lat="37.890025" lon="13.2037683"><ele>356.40000000000003</ele><time>2026-05-05T09:20:12.565Z</time></trkpt><trkpt lat="37.88997" lon="13.20366"><ele>357.0</ele><time>2026-05-05T09:20:13.567Z</time></trkpt><trkpt lat="37.8899133" lon="13.2035517"><ele>357.0</ele><time>2026-05-05T09:20:14.566Z</time></trkpt><trkpt lat="37.8898683" lon="13.203445"><ele>357.0</ele><time>2026-05-05T09:20:15.565Z</time></trkpt><trkpt lat="37.8898183" lon="13.20334"><ele>357.0</ele><time>2026-05-05T09:20:16.564Z</time></trkpt><trkpt lat="37.889755" lon="13.20324"><ele>357.0</ele><time>2026-05-05T09:20:17.564Z</time></trkpt><trkpt lat="37.8896883" lon="13.2031383"><ele>357.0</ele><time>2026-05-05T09:20:18.565Z</time></trkpt><trkpt lat="37.889615" lon="13.2030317"><ele>358.75</ele><time>2026-05-05T09:20:19.564Z</time></trkpt><trkpt lat="37.88954" lon="13.2029233"><ele>360.5</ele><time>2026-05-05T09:20:20.565Z</time></trkpt><trkpt lat="37.8894617" lon="13.2028117"><ele>362.25</ele><time>2026-05-05T09:20:21.564Z</time></trkpt><trkpt lat="37.8893817" lon="13.2026967"><ele>364.0</ele><time>2026-05-05T09:20:22.565Z</time></trkpt><trkpt lat="37.8892983" lon="13.2025783"><ele>363.5</ele><time>2026-05-05T09:20:23.565Z</time></trkpt><trkpt lat="37.8892133" lon="13.2024567"><ele>363.0</ele><time>2026-05-05T09:20:24.565Z</time></trkpt><trkpt lat="37.889135" lon="13.2023417"><ele>362.5</ele><time>2026-05-05T09:20:25.565Z</time></trkpt><trkpt lat="37.889065" lon="13.2022367"><ele>362.0</ele><time>2026-05-05T09:20:26.567Z</time></trkpt><trkpt lat="37.889" lon="13.2021467"><ele>362.0</ele><time>2026-05-05T09:20:27.565Z</time></trkpt><trkpt lat="37.88894" lon="13.202065"><ele>362.0</ele><time>2026-05-05T09:20:28.566Z</time></trkpt><trkpt lat="37.8888833" lon="13.201985"><ele>362.0</ele><time>2026-05-05T09:20:29.565Z</time></trkpt><trkpt lat="37.8888267" lon="13.2018883"><ele>362.0</ele><time>2026-05-05T09:20:30.567Z</time></trkpt><trkpt lat="37.8887683" lon="13.201805"><ele>362.0</ele><time>2026-05-05T09:20:31.566Z</time></trkpt><trkpt lat="37.8887183" lon="13.2017233"><ele>362.0</ele><time>2026-05-05T09:20:32.566Z</time></trkpt><trkpt lat="37.888665" lon="13.2016367"><ele>362.0</ele><time>2026-05-05T09:20:33.565Z</time></trkpt><trkpt lat="37.8886017" lon="13.2015583"><ele>362.0</ele><time>2026-05-05T09:20:34.565Z</time></trkpt><trkpt lat="37.8885383" lon="13.2014667"><ele>362.0</ele><time>2026-05-05T09:20:35.565Z</time></trkpt><trkpt lat="37.8884717" lon="13.2013667"><ele>362.0</ele><time>2026-05-05T09:20:36.565Z</time></trkpt><trkpt lat="37.8884033" lon="13.2012633"><ele>362.0</ele><time>2026-05-05T09:20:37.564Z</time></trkpt><trkpt lat="37.88833" lon="13.20116"><ele>361.5</ele><time>2026-05-05T09:20:38.566Z</time></trkpt><trkpt lat="37.8882533" lon="13.2010583"><ele>361.0</ele><time>2026-05-05T09:20:39.565Z</time></trkpt><trkpt lat="37.888175" lon="13.2009567"><ele>360.5</ele><time>2026-05-05T09:20:40.567Z</time></trkpt><trkpt lat="37.8881" lon="13.20085"><ele>360.0</ele><time>2026-05-05T09:20:41.566Z</time></trkpt><trkpt lat="37.8880233" lon="13.2007433"><ele>361.75</ele><time>2026-05-05T09:20:42.566Z</time></trkpt><trkpt lat="37.887945" lon="13.200635"><ele>363.5</ele><time>2026-05-05T09:20:43.566Z</time></trkpt><trkpt lat="37.8878667" lon="13.2005283"><ele>365.25</ele><time>2026-05-05T09:20:44.566Z</time></trkpt><trkpt lat="37.8877867" lon="13.20042"><ele>367.0</ele><time>2026-05-05T09:20:45.565Z</time></trkpt><trkpt lat="37.8877083" lon="13.200315"><ele>367.0</ele><time>2026-05-05T09:20:46.565Z</time></trkpt><trkpt lat="37.88764" lon="13.2002167"><ele>367.0</ele><time>2026-05-05T09:20:47.566Z</time></trkpt><trkpt lat="37.8875783" lon="13.2001283"><ele>367.0</ele><time>2026-05-05T09:20:48.564Z</time></trkpt><trkpt lat="37.8875267" lon="13.200045"><ele>367.0</ele><time>2026-05-05T09:20:49.565Z</time></trkpt><trkpt lat="37.8874933" lon="13.1999583"><ele>367.0</ele><time>2026-05-05T09:20:50.565Z</time></trkpt><trkpt lat="37.8874683" lon="13.1998733"><ele>367.0</ele><time>2026-05-05T09:20:51.567Z</time></trkpt><trkpt lat="37.88745" lon="13.1997883"><ele>365.0</ele><time>2026-05-05T09:20:52.565Z</time></trkpt><trkpt lat="37.887415" lon="13.1996383"><ele>363.0</ele><time>2026-05-05T09:20:54.565Z</time></trkpt><trkpt lat="37.88737" lon="13.1994867"><ele>361.0</ele><time>2026-05-05T09:20:56.565Z</time></trkpt><trkpt lat="37.88735" lon="13.1994017"><ele>359.0</ele><time>2026-05-05T09:20:57.565Z</time></trkpt><trkpt lat="37.8873367" lon="13.199315"><ele>357.0</ele><time>2026-05-05T09:20:58.565Z</time></trkpt><trkpt lat="37.8873317" lon="13.1992233"><ele>357.0</ele><time>2026-05-05T09:20:59.565Z</time></trkpt><trkpt lat="37.8873417" lon="13.1991333"><ele>357.0</ele><time>2026-05-05T09:21:00.564Z</time></trkpt><trkpt lat="37.8873633" lon="13.199035"><ele>357.0</ele><time>2026-05-05T09:21:01.565Z</time></trkpt><trkpt lat="37.8873983" lon="13.1989283"><ele>357.0</ele><time>2026-05-05T09:21:02.567Z</time></trkpt><trkpt lat="37.8874317" lon="13.1988183"><ele>357.0</ele><time>2026-05-05T09:21:03.564Z</time></trkpt><trkpt lat="37.8874617" lon="13.198695"><ele>357.0</ele><time>2026-05-05T09:21:04.565Z</time></trkpt><trkpt lat="37.8874983" lon="13.1985683"><ele>357.40000000000003</ele><time>2026-05-05T09:21:05.565Z</time></trkpt><trkpt lat="37.8875383" lon="13.198445"><ele>357.8</ele><time>2026-05-05T09:21:06.564Z</time></trkpt><trkpt lat="37.8875733" lon="13.1983433"><ele>358.2</ele><time>2026-05-05T09:21:07.565Z</time></trkpt><trkpt lat="37.8876183" lon="13.1982067"><ele>358.6</ele><time>2026-05-05T09:21:09.565Z</time></trkpt><trkpt lat="37.8876583" lon="13.198085"><ele>359.0</ele><time>2026-05-05T09:21:11.564Z</time></trkpt><trkpt lat="37.8876917" lon="13.1979683"><ele>359.0</ele><time>2026-05-05T09:21:13.566Z</time></trkpt><trkpt lat="37.8877317" lon="13.1978417"><ele>359.0</ele><time>2026-05-05T09:21:15.566Z</time></trkpt><trkpt lat="37.8877767" lon="13.1976833"><ele>359.0</ele><time>2026-05-05T09:21:17.567Z</time></trkpt><trkpt lat="37.88781" lon="13.197595"><ele>359.0</ele><time>2026-05-05T09:21:18.564Z</time></trkpt><trkpt lat="37.8878533" lon="13.1975"><ele>359.0</ele><time>2026-05-05T09:21:19.565Z</time></trkpt><trkpt lat="37.8878917" lon="13.1974"><ele>358.6</ele><time>2026-05-05T09:21:20.567Z</time></trkpt><trkpt lat="37.887925" lon="13.19729"><ele>358.2</ele><time>2026-05-05T09:21:21.565Z</time></trkpt><trkpt lat="37.887955" lon="13.1971733"><ele>357.8</ele><time>2026-05-05T09:21:22.565Z</time></trkpt><trkpt lat="37.88798" lon="13.1970567"><ele>357.40000000000003</ele><time>2026-05-05T09:21:23.565Z</time></trkpt><trkpt lat="37.8879933" lon="13.196945"><ele>357.0</ele><time>2026-05-05T09:21:24.565Z</time></trkpt><trkpt lat="37.888005" lon="13.1968267"><ele>357.0</ele><time>2026-05-05T09:21:25.568Z</time></trkpt><trkpt lat="37.888005" lon="13.19672"><ele>357.0</ele><time>2026-05-05T09:21:26.565Z</time></trkpt><trkpt lat="37.8879983" lon="13.19662"><ele>357.0</ele><time>2026-05-05T09:21:27.568Z</time></trkpt><trkpt lat="37.8879967" lon="13.1965183"><ele>357.0</ele><time>2026-05-05T09:21:28.565Z</time></trkpt><trkpt lat="37.887995" lon="13.19641"><ele>357.0</ele><time>2026-05-05T09:21:29.566Z</time></trkpt><trkpt lat="37.8879833" lon="13.1963"><ele>357.0</ele><time>2026-05-05T09:21:30.565Z</time></trkpt><trkpt lat="37.88797" lon="13.1961817"><ele>356.6</ele><time>2026-05-05T09:21:31.566Z</time></trkpt><trkpt lat="37.88796" lon="13.1960567"><ele>356.20000000000005</ele><time>2026-05-05T09:21:32.566Z</time></trkpt><trkpt lat="37.88795" lon="13.1959283"><ele>355.8</ele><time>2026-05-05T09:21:33.565Z</time></trkpt><trkpt lat="37.8879367" lon="13.1957983"><ele>355.4</ele><time>2026-05-05T09:21:34.564Z</time></trkpt><trkpt lat="37.8879283" lon="13.19566"><ele>355.0</ele><time>2026-05-05T09:21:35.565Z</time></trkpt><trkpt lat="37.88792" lon="13.1955167"><ele>354.2</ele><time>2026-05-05T09:21:36.564Z</time></trkpt><trkpt lat="37.8879133" lon="13.19537"><ele>353.4</ele><time>2026-05-05T09:21:37.566Z</time></trkpt><trkpt lat="37.88791" lon="13.19522"><ele>352.6</ele><time>2026-05-05T09:21:38.567Z</time></trkpt><trkpt lat="37.8879033" lon="13.1950867"><ele>351.8</ele><time>2026-05-05T09:21:39.565Z</time></trkpt><trkpt lat="37.8878933" lon="13.1949667"><ele>351.0</ele><time>2026-05-05T09:21:40.564Z</time></trkpt><trkpt lat="37.887885" lon="13.1948567"><ele>350.6666666666667</ele><time>2026-05-05T09:21:41.565Z</time></trkpt><trkpt lat="37.8878733" lon="13.1947533"><ele>350.3333333333333</ele><time>2026-05-05T09:21:42.565Z</time></trkpt><trkpt lat="37.8878633" lon="13.1946533"><ele>350.0</ele><time>2026-05-05T09:21:43.565Z</time></trkpt><trkpt lat="37.8878533" lon="13.1945467"><ele>349.66666666666663</ele><time>2026-05-05T09:21:44.566Z</time></trkpt><trkpt lat="37.8878467" lon="13.1944333"><ele>349.3333333333333</ele><time>2026-05-05T09:21:45.565Z</time></trkpt><trkpt lat="37.8878367" lon="13.1943167"><ele>349.0</ele><time>2026-05-05T09:21:46.566Z</time></trkpt><trkpt lat="37.887825" lon="13.1941967"><ele>349.0</ele><time>2026-05-05T09:21:47.565Z</time></trkpt><trkpt lat="37.8878083" lon="13.19408"><ele>349.0</ele><time>2026-05-05T09:21:48.566Z</time></trkpt><trkpt lat="37.8877883" lon="13.1939717"><ele>349.0</ele><time>2026-05-05T09:21:49.566Z</time></trkpt><trkpt lat="37.887765" lon="13.19387"><ele>349.0</ele><time>2026-05-05T09:21:50.566Z</time></trkpt><trkpt lat="37.88774" lon="13.1937767"><ele>349.0</ele><time>2026-05-05T09:21:51.565Z</time></trkpt><trkpt lat="37.88771" lon="13.1936917"><ele>349.0</ele><time>2026-05-05T09:21:52.564Z</time></trkpt><trkpt lat="37.8876817" lon="13.1935967"><ele>349.0</ele><time>2026-05-05T09:21:53.565Z</time></trkpt><trkpt lat="37.8876483" lon="13.193495"><ele>349.0</ele><time>2026-05-05T09:21:54.566Z</time></trkpt><trkpt lat="37.8876167" lon="13.19338"><ele>349.0</ele><time>2026-05-05T09:21:55.565Z</time></trkpt><trkpt lat="37.8875833" lon="13.1932583"><ele>349.0</ele><time>2026-05-05T09:21:56.565Z</time></trkpt><trkpt lat="37.88755" lon="13.193145"><ele>349.0</ele><time>2026-05-05T09:21:57.566Z</time></trkpt><trkpt lat="37.88752" lon="13.1930383"><ele>348.8333333333333</ele><time>2026-05-05T09:21:58.565Z</time></trkpt><trkpt lat="37.8875067" lon="13.192935"><ele>348.66666666666663</ele><time>2026-05-05T09:21:59.566Z</time></trkpt><trkpt lat="37.8875133" lon="13.1928333"><ele>348.5</ele><time>2026-05-05T09:22:00.565Z</time></trkpt><trkpt lat="37.8875367" lon="13.1927367"><ele>348.3333333333333</ele><time>2026-05-05T09:22:01.565Z</time></trkpt><trkpt lat="37.8875683" lon="13.1926567"><ele>348.1666666666667</ele><time>2026-05-05T09:22:02.564Z</time></trkpt><trkpt lat="37.8875967" lon="13.192585"><ele>348.0</ele><time>2026-05-05T09:22:03.565Z</time></trkpt><trkpt lat="37.88766" lon="13.1924517"><ele>346.5</ele><time>2026-05-05T09:22:05.565Z</time></trkpt><trkpt lat="37.88772" lon="13.192335"><ele>345.0</ele><time>2026-05-05T09:22:07.565Z</time></trkpt><trkpt lat="37.8877883" lon="13.192215"><ele>343.5</ele><time>2026-05-05T09:22:09.565Z</time></trkpt><trkpt lat="37.887825" lon="13.1921483"><ele>342.0</ele><time>2026-05-05T09:22:10.566Z</time></trkpt><trkpt lat="37.8878633" lon="13.1920767"><ele>340.5</ele><time>2026-05-05T09:22:11.565Z</time></trkpt><trkpt lat="37.8879033" lon="13.1920033"><ele>339.0</ele><time>2026-05-05T09:22:12.567Z</time></trkpt><trkpt lat="37.887945" lon="13.19193"><ele>339.0</ele><time>2026-05-05T09:22:13.564Z</time></trkpt><trkpt lat="37.8879833" lon="13.1918617"><ele>339.0</ele><time>2026-05-05T09:22:14.566Z</time></trkpt><trkpt lat="37.8880267" lon="13.19179"><ele>339.0</ele><time>2026-05-05T09:22:15.565Z</time></trkpt><trkpt lat="37.8880683" lon="13.1917183"><ele>339.0</ele><time>2026-05-05T09:22:16.566Z</time></trkpt><trkpt lat="37.88811" lon="13.1916433"><ele>339.0</ele><time>2026-05-05T09:22:17.564Z</time></trkpt><trkpt lat="37.8881483" lon="13.19157"><ele>339.0</ele><time>2026-05-05T09:22:18.565Z</time></trkpt><trkpt lat="37.888185" lon="13.191505"><ele>339.0</ele><time>2026-05-05T09:22:19.565Z</time></trkpt><trkpt lat="37.8882233" lon="13.19144"><ele>339.0</ele><time>2026-05-05T09:22:20.565Z</time></trkpt><trkpt lat="37.8882933" lon="13.1913083"><ele>339.0</ele><time>2026-05-05T09:22:22.565Z</time></trkpt><trkpt lat="37.8883283" lon="13.19124"><ele>339.0</ele><time>2026-05-05T09:22:23.565Z</time></trkpt><trkpt lat="37.888365" lon="13.1911717"><ele>339.0</ele><time>2026-05-05T09:22:24.565Z</time></trkpt><trkpt lat="37.8884" lon="13.1910983"><ele>339.0</ele><time>2026-05-05T09:22:25.566Z</time></trkpt><trkpt lat="37.88847" lon="13.1909633"><ele>339.0</ele><time>2026-05-05T09:22:27.566Z</time></trkpt><trkpt lat="37.8885367" lon="13.1908483"><ele>339.0</ele><time>2026-05-05T09:22:29.565Z</time></trkpt><trkpt lat="37.8885867" lon="13.190755"><ele>339.0</ele><time>2026-05-05T09:22:31.565Z</time></trkpt><trkpt lat="37.8886567" lon="13.1906433"><ele>339.0</ele><time>2026-05-05T09:22:33.564Z</time></trkpt><trkpt lat="37.88872" lon="13.1905183"><ele>339.0</ele><time>2026-05-05T09:22:35.569Z</time></trkpt><trkpt lat="37.8887817" lon="13.190395"><ele>337.2</ele><time>2026-05-05T09:22:37.565Z</time></trkpt><trkpt lat="37.888845" lon="13.1902717"><ele>335.4</ele><time>2026-05-05T09:22:39.565Z</time></trkpt><trkpt lat="37.888885" lon="13.19021"><ele>333.6</ele><time>2026-05-05T09:22:40.564Z</time></trkpt><trkpt lat="37.8889417" lon="13.1900917"><ele>331.8</ele><time>2026-05-05T09:22:42.565Z</time></trkpt><trkpt lat="37.8889717" lon="13.189975"><ele>330.0</ele><time>2026-05-05T09:22:44.566Z</time></trkpt><trkpt lat="37.8889567" lon="13.18988"><ele>329.4</ele><time>2026-05-05T09:22:46.565Z</time></trkpt><trkpt lat="37.88904" lon="13.1898"><ele>328.8</ele><time>2026-05-05T09:23:30.565Z</time></trkpt><trkpt lat="37.8889417" lon="13.1897517"><ele>328.20000000000005</ele><time>2026-05-05T09:32:26.565Z</time></trkpt><trkpt lat="37.8888833" lon="13.1896467"><ele>327.6</ele><time>2026-05-05T09:32:28.565Z</time></trkpt><trkpt lat="37.8888533" lon="13.1895567"><ele>327.0</ele><time>2026-05-05T09:32:29.562Z</time></trkpt><trkpt lat="37.8888033" lon="13.1894717"><ele>327.0</ele><time>2026-05-05T09:32:30.565Z</time></trkpt><trkpt lat="37.8887367" lon="13.1893967"><ele>327.0</ele><time>2026-05-05T09:32:31.565Z</time></trkpt><trkpt lat="37.8886583" lon="13.1893283"><ele>327.0</ele><time>2026-05-05T09:32:32.565Z</time></trkpt><trkpt lat="37.8885667" lon="13.189275"><ele>327.0</ele><time>2026-05-05T09:32:33.565Z</time></trkpt><trkpt lat="37.8884683" lon="13.189225"><ele>327.0</ele><time>2026-05-05T09:32:34.565Z</time></trkpt><trkpt lat="37.8883667" lon="13.18917"><ele>327.20000000000005</ele><time>2026-05-05T09:32:35.566Z</time></trkpt><trkpt lat="37.8882617" lon="13.1891267"><ele>327.4</ele><time>2026-05-05T09:32:36.564Z</time></trkpt><trkpt lat="37.8881583" lon="13.189075"><ele>327.6</ele><time>2026-05-05T09:32:37.566Z</time></trkpt><trkpt lat="37.8880567" lon="13.18901"><ele>327.79999999999995</ele><time>2026-05-05T09:32:38.565Z</time></trkpt><trkpt lat="37.88797" lon="13.1889333"><ele>328.0</ele><time>2026-05-05T09:32:39.564Z</time></trkpt><trkpt lat="37.88791" lon="13.188845"><ele>329.59999999999997</ele><time>2026-05-05T09:32:40.565Z</time></trkpt><trkpt lat="37.8878767" lon="13.1887433"><ele>331.2</ele><time>2026-05-05T09:32:41.566Z</time></trkpt><trkpt lat="37.887855" lon="13.1886217"><ele>332.8</ele><time>2026-05-05T09:32:42.564Z</time></trkpt><trkpt lat="37.8878517" lon="13.1884883"><ele>334.4</ele><time>2026-05-05T09:32:43.566Z</time></trkpt><trkpt lat="37.8878533" lon="13.18834"><ele>336.0</ele><time>2026-05-05T09:32:44.565Z</time></trkpt><trkpt lat="37.8878567" lon="13.1881783"><ele>336.5</ele><time>2026-05-05T09:32:45.566Z</time></trkpt><trkpt lat="37.88786" lon="13.1880117"><ele>337.0</ele><time>2026-05-05T09:32:46.565Z</time></trkpt><trkpt lat="37.887865" lon="13.187855"><ele>337.5</ele><time>2026-05-05T09:32:47.566Z</time></trkpt><trkpt lat="37.8878783" lon="13.18772"><ele>338.0</ele><time>2026-05-05T09:32:48.564Z</time></trkpt><trkpt lat="37.8878983" lon="13.1875933"><ele>338.0</ele><time>2026-05-05T09:32:49.562Z</time></trkpt><trkpt lat="37.8879267" lon="13.187465"><ele>338.0</ele><time>2026-05-05T09:32:50.565Z</time></trkpt><trkpt lat="37.8879567" lon="13.1873517"><ele>338.0</ele><time>2026-05-05T09:32:51.565Z</time></trkpt><trkpt lat="37.8879817" lon="13.1872517"><ele>338.0</ele><time>2026-05-05T09:32:52.564Z</time></trkpt><trkpt lat="37.8880083" lon="13.18716"><ele>338.0</ele><time>2026-05-05T09:32:53.563Z</time></trkpt><trkpt lat="37.88803" lon="13.1870817"><ele>338.0</ele><time>2026-05-05T09:32:54.566Z</time></trkpt><trkpt lat="37.8880667" lon="13.1869817"><ele>337.79999999999995</ele><time>2026-05-05T09:32:56.566Z</time></trkpt><trkpt lat="37.8880683" lon="13.1868233"><ele>337.6</ele><time>2026-05-05T09:33:41.566Z</time></trkpt><trkpt lat="37.8881067" lon="13.18672"><ele>337.4</ele><time>2026-05-05T09:33:44.566Z</time></trkpt><trkpt lat="37.88814" lon="13.1866083"><ele>337.20000000000005</ele><time>2026-05-05T09:33:46.566Z</time></trkpt><trkpt lat="37.8881867" lon="13.1864817"><ele>337.0</ele><time>2026-05-05T09:33:48.566Z</time></trkpt><trkpt lat="37.8882333" lon="13.1863817"><ele>337.40000000000003</ele><time>2026-05-05T09:33:50.566Z</time></trkpt><trkpt lat="37.8882967" lon="13.1862817"><ele>337.8</ele><time>2026-05-05T09:33:52.566Z</time></trkpt><trkpt lat="37.8883817" lon="13.1861683"><ele>338.2</ele><time>2026-05-05T09:33:54.566Z</time></trkpt><trkpt lat="37.8884267" lon="13.1861017"><ele>338.6</ele><time>2026-05-05T09:33:55.567Z</time></trkpt><trkpt lat="37.888465" lon="13.18603"><ele>339.0</ele><time>2026-05-05T09:33:56.566Z</time></trkpt><trkpt lat="37.8885317" lon="13.1858933"><ele>339.0</ele><time>2026-05-05T09:33:58.565Z</time></trkpt><trkpt lat="37.8885667" lon="13.185825"><ele>339.0</ele><time>2026-05-05T09:33:59.565Z</time></trkpt><trkpt lat="37.8886067" lon="13.1857583"><ele>339.0</ele><time>2026-05-05T09:34:00.566Z</time></trkpt><trkpt lat="37.8886467" lon="13.1856883"><ele>339.0</ele><time>2026-05-05T09:34:01.565Z</time></trkpt><trkpt lat="37.8886867" lon="13.1856083"><ele>339.0</ele><time>2026-05-05T09:34:02.566Z</time></trkpt><trkpt lat="37.8887217" lon="13.1855283"><ele>339.0</ele><time>2026-05-05T09:34:03.565Z</time></trkpt><trkpt lat="37.8887833" lon="13.1854"><ele>337.75</ele><time>2026-05-05T09:34:05.565Z</time></trkpt><trkpt lat="37.88884" lon="13.1852983"><ele>336.5</ele><time>2026-05-05T09:34:07.564Z</time></trkpt><trkpt lat="37.8889" lon="13.1851733"><ele>335.25</ele><time>2026-05-05T09:34:09.566Z</time></trkpt><trkpt lat="37.8889583" lon="13.1850517"><ele>334.0</ele><time>2026-05-05T09:34:11.564Z</time></trkpt><trkpt lat="37.8890134" lon="13.184907"><ele>333.85714285714283</ele><time>2026-05-05T09:34:13.565Z</time></trkpt><trkpt lat="37.889034" lon="13.1848309"><ele>333.7142857142857</ele><time>2026-05-05T09:34:14.565Z</time></trkpt><trkpt lat="37.8890596" lon="13.1846858"><ele>333.57142857142856</ele><time>2026-05-05T09:34:16.566Z</time></trkpt><trkpt lat="37.8890611" lon="13.1846036"><ele>333.42857142857144</ele><time>2026-05-05T09:34:17.566Z</time></trkpt><trkpt lat="37.8890573" lon="13.1845204"><ele>333.2857142857143</ele><time>2026-05-05T09:34:18.565Z</time></trkpt><trkpt lat="37.8890413" lon="13.1844391"><ele>333.14285714285717</ele><time>2026-05-05T09:34:19.565Z</time></trkpt><trkpt lat="37.8890151" lon="13.1843575"><ele>333.0</ele><time>2026-05-05T09:34:20.566Z</time></trkpt><trkpt lat="37.8889773" lon="13.1842814"><ele>333.0</ele><time>2026-05-05T09:34:21.564Z</time></trkpt><trkpt lat="37.8889362" lon="13.1842146"><ele>333.0</ele><time>2026-05-05T09:34:22.566Z</time></trkpt><trkpt lat="37.8888963" lon="13.1841516"><ele>333.0</ele><time>2026-05-05T09:34:23.566Z</time></trkpt><trkpt lat="37.88885" lon="13.1840811"><ele>333.0</ele><time>2026-05-05T09:34:24.565Z</time></trkpt><trkpt lat="37.8888028" lon="13.1839982"><ele>333.0</ele><time>2026-05-05T09:34:25.566Z</time></trkpt><trkpt lat="37.8887559" lon="13.1839084"><ele>333.0</ele><time>2026-05-05T09:34:26.566Z</time></trkpt><trkpt lat="37.8887075" lon="13.1838137"><ele>333.3333333333333</ele><time>2026-05-05T09:34:27.565Z</time></trkpt><trkpt lat="37.8886628" lon="13.18372"><ele>333.6666666666667</ele><time>2026-05-05T09:34:28.565Z</time></trkpt><trkpt lat="37.8886287" lon="13.183632"><ele>334.0</ele><time>2026-05-05T09:34:29.566Z</time></trkpt><trkpt lat="37.8886022" lon="13.1835475"><ele>334.33333333333337</ele><time>2026-05-05T09:34:30.566Z</time></trkpt><trkpt lat="37.8885767" lon="13.1834611"><ele>334.6666666666667</ele><time>2026-05-05T09:34:31.569Z</time></trkpt><trkpt lat="37.8885485" lon="13.183366"><ele>335.0</ele><time>2026-05-05T09:34:32.566Z</time></trkpt><trkpt lat="37.8885251" lon="13.1832668"><ele>334.83333333333337</ele><time>2026-05-05T09:34:33.566Z</time></trkpt><trkpt lat="37.88851" lon="13.1831699"><ele>334.6666666666667</ele><time>2026-05-05T09:34:34.565Z</time></trkpt><trkpt lat="37.8884917" lon="13.1830749"><ele>334.5</ele><time>2026-05-05T09:34:35.565Z</time></trkpt><trkpt lat="37.8884691" lon="13.1829727"><ele>334.3333333333333</ele><time>2026-05-05T09:34:36.564Z</time></trkpt><trkpt lat="37.8884469" lon="13.182862"><ele>334.16666666666663</ele><time>2026-05-05T09:34:37.565Z</time></trkpt><trkpt lat="37.8884221" lon="13.1827505"><ele>334.0</ele><time>2026-05-05T09:34:38.567Z</time></trkpt><trkpt lat="37.8883959" lon="13.1826463"><ele>332.0</ele><time>2026-05-05T09:34:39.565Z</time></trkpt><trkpt lat="37.888371" lon="13.1825496"><ele>330.0</ele><time>2026-05-05T09:34:40.564Z</time></trkpt><trkpt lat="37.8883472" lon="13.1824576"><ele>328.0</ele><time>2026-05-05T09:34:41.564Z</time></trkpt><trkpt lat="37.8883254" lon="13.182375"><ele>326.0</ele><time>2026-05-05T09:34:42.565Z</time></trkpt><trkpt lat="37.8883101" lon="13.1822958"><ele>324.0</ele><time>2026-05-05T09:34:43.565Z</time></trkpt><trkpt lat="37.8882992" lon="13.182214"><ele>322.0</ele><time>2026-05-05T09:34:44.566Z</time></trkpt><trkpt lat="37.8882763" lon="13.1820706"><ele>321.5</ele><time>2026-05-05T09:34:46.565Z</time></trkpt><trkpt lat="37.8882531" lon="13.1819576"><ele>321.0</ele><time>2026-05-05T09:34:48.566Z</time></trkpt><trkpt lat="37.8882302" lon="13.1818597"><ele>320.5</ele><time>2026-05-05T09:34:50.567Z</time></trkpt><trkpt lat="37.8882185" lon="13.1817437"><ele>320.0</ele><time>2026-05-05T09:34:52.566Z</time></trkpt><trkpt lat="37.8881918" lon="13.1816355"><ele>319.5</ele><time>2026-05-05T09:34:54.568Z</time></trkpt><trkpt lat="37.8881658" lon="13.1815347"><ele>319.0</ele><time>2026-05-05T09:34:56.566Z</time></trkpt><trkpt lat="37.8881356" lon="13.1813934"><ele>318.66666666666663</ele><time>2026-05-05T09:34:58.566Z</time></trkpt><trkpt lat="37.8881225" lon="13.1813129"><ele>318.3333333333333</ele><time>2026-05-05T09:34:59.566Z</time></trkpt><trkpt lat="37.8880956" lon="13.181168"><ele>318.0</ele><time>2026-05-05T09:35:01.565Z</time></trkpt><trkpt lat="37.8880637" lon="13.1810256"><ele>317.6666666666667</ele><time>2026-05-05T09:35:03.565Z</time></trkpt><trkpt lat="37.888042" lon="13.1809452"><ele>317.33333333333337</ele><time>2026-05-05T09:35:04.566Z</time></trkpt><trkpt lat="37.8880093" lon="13.1808648"><ele>317.0</ele><time>2026-05-05T09:35:05.565Z</time></trkpt><trkpt lat="37.8879661" lon="13.1807911"><ele>317.0</ele><time>2026-05-05T09:35:06.565Z</time></trkpt><trkpt lat="37.8879143" lon="13.1807278"><ele>317.0</ele><time>2026-05-05T09:35:07.565Z</time></trkpt><trkpt lat="37.8878645" lon="13.1806739"><ele>317.0</ele><time>2026-05-05T09:35:08.565Z</time></trkpt><trkpt lat="37.8877751" lon="13.1805809"><ele>317.0</ele><time>2026-05-05T09:35:10.565Z</time></trkpt><trkpt lat="37.8876885" lon="13.1805099"><ele>317.0</ele><time>2026-05-05T09:35:12.566Z</time></trkpt><trkpt lat="37.8876073" lon="13.1804105"><ele>315.1666666666667</ele><time>2026-05-05T09:35:14.565Z</time></trkpt><trkpt lat="37.8875645" lon="13.1803486"><ele>313.33333333333337</ele><time>2026-05-05T09:35:15.566Z</time></trkpt><trkpt lat="37.8875186" lon="13.1802848"><ele>311.5</ele><time>2026-05-05T09:35:16.564Z</time></trkpt><trkpt lat="37.8874696" lon="13.1802196"><ele>309.6666666666667</ele><time>2026-05-05T09:35:17.566Z</time></trkpt><trkpt lat="37.8874202" lon="13.1801602"><ele>307.8333333333333</ele><time>2026-05-05T09:35:18.565Z</time></trkpt><trkpt lat="37.887374" lon="13.1801036"><ele>306.0</ele><time>2026-05-05T09:35:19.565Z</time></trkpt><trkpt lat="37.8872859" lon="13.1799922"><ele>306.0</ele><time>2026-05-05T09:35:21.563Z</time></trkpt><trkpt lat="37.8872373" lon="13.1799321"><ele>306.0</ele><time>2026-05-05T09:35:22.566Z</time></trkpt><trkpt lat="37.8871873" lon="13.1798725"><ele>306.0</ele><time>2026-05-05T09:35:23.564Z</time></trkpt><trkpt lat="37.8871376" lon="13.1798087"><ele>306.0</ele><time>2026-05-05T09:35:24.566Z</time></trkpt><trkpt lat="37.8870909" lon="13.1797413"><ele>306.0</ele><time>2026-05-05T09:35:25.564Z</time></trkpt><trkpt lat="37.8870521" lon="13.1796706"><ele>306.0</ele><time>2026-05-05T09:35:26.566Z</time></trkpt><trkpt lat="37.887025" lon="13.1795953"><ele>306.0</ele><time>2026-05-05T09:35:27.564Z</time></trkpt><trkpt lat="37.8870046" lon="13.1795157"><ele>305.1666666666667</ele><time>2026-05-05T09:35:28.564Z</time></trkpt><trkpt lat="37.8869928" lon="13.1794293"><ele>304.3333333333333</ele><time>2026-05-05T09:35:29.564Z</time></trkpt><trkpt lat="37.8869918" lon="13.1793404"><ele>303.5</ele><time>2026-05-05T09:35:30.564Z</time></trkpt><trkpt lat="37.8870017" lon="13.1792555"><ele>302.66666666666663</ele><time>2026-05-05T09:35:31.565Z</time></trkpt><trkpt lat="37.8870594" lon="13.1791208"><ele>301.8333333333333</ele><time>2026-05-05T09:35:33.564Z</time></trkpt><trkpt lat="37.8871343" lon="13.1790182"><ele>301.0</ele><time>2026-05-05T09:35:35.565Z</time></trkpt><trkpt lat="37.8872368" lon="13.1789587"><ele>299.8333333333333</ele><time>2026-05-05T09:35:37.565Z</time></trkpt><trkpt lat="37.8873531" lon="13.1788903"><ele>298.66666666666663</ele><time>2026-05-05T09:35:39.564Z</time></trkpt><trkpt lat="37.8874159" lon="13.1788402"><ele>297.5</ele><time>2026-05-05T09:35:40.565Z</time></trkpt><trkpt lat="37.8874804" lon="13.1787839"><ele>296.3333333333333</ele><time>2026-05-05T09:35:41.565Z</time></trkpt><trkpt lat="37.8875382" lon="13.1787237"><ele>295.1666666666667</ele><time>2026-05-05T09:35:42.565Z</time></trkpt><trkpt lat="37.8875904" lon="13.1786699"><ele>294.0</ele><time>2026-05-05T09:35:43.563Z</time></trkpt><trkpt lat="37.8876348" lon="13.1786118"><ele>294.0</ele><time>2026-05-05T09:35:44.564Z</time></trkpt><trkpt lat="37.8877118" lon="13.1784913"><ele>294.0</ele><time>2026-05-05T09:35:46.565Z</time></trkpt><trkpt lat="37.8877783" lon="13.1783667"><ele>294.0</ele><time>2026-05-05T09:35:48.564Z</time></trkpt><trkpt lat="37.8878667" lon="13.178245"><ele>294.0</ele><time>2026-05-05T09:35:50.565Z</time></trkpt><trkpt lat="37.8879183" lon="13.178185"><ele>294.0</ele><time>2026-05-05T09:35:51.565Z</time></trkpt><trkpt lat="37.8880067" lon="13.1780683"><ele>293.0</ele><time>2026-05-05T09:35:53.565Z</time></trkpt><trkpt lat="37.8880417" lon="13.1779933"><ele>292.0</ele><time>2026-05-05T09:35:54.565Z</time></trkpt><trkpt lat="37.8880667" lon="13.1779183"><ele>291.0</ele><time>2026-05-05T09:35:55.565Z</time></trkpt><trkpt lat="37.8880883" lon="13.1778433"><ele>290.0</ele><time>2026-05-05T09:35:56.566Z</time></trkpt><trkpt lat="37.88813" lon="13.1777167"><ele>289.0</ele><time>2026-05-05T09:35:58.566Z</time></trkpt><trkpt lat="37.8881583" lon="13.1776"><ele>288.0</ele><time>2026-05-05T09:36:00.564Z</time></trkpt><trkpt lat="37.8881867" lon="13.1774683"><ele>287.2</ele><time>2026-05-05T09:36:02.566Z</time></trkpt><trkpt lat="37.8882217" lon="13.17732"><ele>286.4</ele><time>2026-05-05T09:36:04.565Z</time></trkpt><trkpt lat="37.8882633" lon="13.1771767"><ele>285.59999999999997</ele><time>2026-05-05T09:36:06.565Z</time></trkpt><trkpt lat="37.8882817" lon="13.17709"><ele>284.8</ele><time>2026-05-05T09:36:07.564Z</time></trkpt><trkpt lat="37.8883017" lon="13.177005"><ele>284.0</ele><time>2026-05-05T09:36:08.565Z</time></trkpt><trkpt lat="37.888325" lon="13.1769183"><ele>284.0</ele><time>2026-05-05T09:36:09.565Z</time></trkpt><trkpt lat="37.88835" lon="13.1768383"><ele>284.0</ele><time>2026-05-05T09:36:10.563Z</time></trkpt><trkpt lat="37.8883667" lon="13.176755"><ele>284.0</ele><time>2026-05-05T09:36:11.567Z</time></trkpt><trkpt lat="37.88838" lon="13.1765983"><ele>284.0</ele><time>2026-05-05T09:36:13.565Z</time></trkpt><trkpt lat="37.8883883" lon="13.1764567"><ele>284.0</ele><time>2026-05-05T09:36:15.565Z</time></trkpt><trkpt lat="37.8884017" lon="13.1763433"><ele>283.5</ele><time>2026-05-05T09:36:17.566Z</time></trkpt><trkpt lat="37.8884033" lon="13.1762217"><ele>283.0</ele><time>2026-05-05T09:36:19.566Z</time></trkpt><trkpt lat="37.8883883" lon="13.1761383"><ele>282.5</ele><time>2026-05-05T09:36:21.563Z</time></trkpt><trkpt lat="37.88842" lon="13.1760067"><ele>282.0</ele><time>2026-05-05T09:36:39.564Z</time></trkpt><trkpt lat="37.888425" lon="13.175865"><ele>281.5</ele><time>2026-05-05T09:36:41.565Z</time></trkpt><trkpt lat="37.8884267" lon="13.175785"><ele>281.0</ele><time>2026-05-05T09:36:42.564Z</time></trkpt><trkpt lat="37.8884117" lon="13.1756367"><ele>280.7142857142857</ele><time>2026-05-05T09:36:44.566Z</time></trkpt><trkpt lat="37.8884133" lon="13.175555"><ele>280.42857142857144</ele><time>2026-05-05T09:36:45.565Z</time></trkpt><trkpt lat="37.8884183" lon="13.1754683"><ele>280.1428571428571</ele><time>2026-05-05T09:36:46.564Z</time></trkpt><trkpt lat="37.88842" lon="13.1753783"><ele>279.8571428571429</ele><time>2026-05-05T09:36:47.564Z</time></trkpt><trkpt lat="37.8884217" lon="13.1752833"><ele>279.57142857142856</ele><time>2026-05-05T09:36:48.563Z</time></trkpt><trkpt lat="37.8884253" lon="13.1751815"><ele>279.2857142857143</ele><time>2026-05-05T09:36:49.565Z</time></trkpt><trkpt lat="37.8884298" lon="13.1750742"><ele>279.0</ele><time>2026-05-05T09:36:50.565Z</time></trkpt><trkpt lat="37.8884304" lon="13.1749631"><ele>279.0</ele><time>2026-05-05T09:36:51.565Z</time></trkpt><trkpt lat="37.8884318" lon="13.1748477"><ele>279.0</ele><time>2026-05-05T09:36:52.564Z</time></trkpt><trkpt lat="37.8884338" lon="13.1747318"><ele>279.0</ele><time>2026-05-05T09:36:53.566Z</time></trkpt><trkpt lat="37.8884322" lon="13.1746248"><ele>279.0</ele><time>2026-05-05T09:36:54.565Z</time></trkpt><trkpt lat="37.8884358" lon="13.1745202"><ele>279.0</ele><time>2026-05-05T09:36:55.565Z</time></trkpt><trkpt lat="37.8884391" lon="13.1744081"><ele>279.0</ele><time>2026-05-05T09:36:56.565Z</time></trkpt><trkpt lat="37.8884435" lon="13.1742922"><ele>279.0</ele><time>2026-05-05T09:36:57.565Z</time></trkpt><trkpt lat="37.8884444" lon="13.1741788"><ele>279.0</ele><time>2026-05-05T09:36:58.565Z</time></trkpt><trkpt lat="37.8884472" lon="13.1740704"><ele>279.0</ele><time>2026-05-05T09:36:59.566Z</time></trkpt><trkpt lat="37.8884494" lon="13.1739683"><ele>279.0</ele><time>2026-05-05T09:37:00.564Z</time></trkpt><trkpt lat="37.8884509" lon="13.1738664"><ele>279.0</ele><time>2026-05-05T09:37:01.565Z</time></trkpt><trkpt lat="37.888452" lon="13.1737648"><ele>279.0</ele><time>2026-05-05T09:37:02.565Z</time></trkpt><trkpt lat="37.8884588" lon="13.1736589"><ele>280.2857142857143</ele><time>2026-05-05T09:37:03.565Z</time></trkpt><trkpt lat="37.8884719" lon="13.1735597"><ele>281.57142857142856</ele><time>2026-05-05T09:37:04.564Z</time></trkpt><trkpt lat="37.8884938" lon="13.1734695"><ele>282.8571428571429</ele><time>2026-05-05T09:37:05.565Z</time></trkpt><trkpt lat="37.8885292" lon="13.1733917"><ele>284.1428571428571</ele><time>2026-05-05T09:37:06.565Z</time></trkpt><trkpt lat="37.8885793" lon="13.1733269"><ele>285.42857142857144</ele><time>2026-05-05T09:37:07.566Z</time></trkpt><trkpt lat="37.8886374" lon="13.1732778"><ele>286.7142857142857</ele><time>2026-05-05T09:37:08.566Z</time></trkpt><trkpt lat="37.888699" lon="13.1732494"><ele>288.0</ele><time>2026-05-05T09:37:09.562Z</time></trkpt><trkpt lat="37.8887639" lon="13.1732376"><ele>288.0</ele><time>2026-05-05T09:37:10.564Z</time></trkpt><trkpt lat="37.8888328" lon="13.1732393"><ele>288.0</ele><time>2026-05-05T09:37:11.564Z</time></trkpt><trkpt lat="37.8888977" lon="13.1732566"><ele>288.0</ele><time>2026-05-05T09:37:12.564Z</time></trkpt><trkpt lat="37.8889556" lon="13.1732936"><ele>288.0</ele><time>2026-05-05T09:37:13.565Z</time></trkpt><trkpt lat="37.8890066" lon="13.1733425"><ele>288.0</ele><time>2026-05-05T09:37:14.566Z</time></trkpt><trkpt lat="37.8891182" lon="13.1734232"><ele>288.0</ele><time>2026-05-05T09:37:16.566Z</time></trkpt><trkpt lat="37.8891782" lon="13.1734533"><ele>288.6</ele><time>2026-05-05T09:37:17.565Z</time></trkpt><trkpt lat="37.8892989" lon="13.1734572"><ele>289.20000000000005</ele><time>2026-05-05T09:37:19.565Z</time></trkpt><trkpt lat="37.8893828" lon="13.1733868"><ele>289.8</ele><time>2026-05-05T09:37:21.565Z</time></trkpt><trkpt lat="37.8893945" lon="13.1732563"><ele>290.40000000000003</ele><time>2026-05-05T09:37:23.565Z</time></trkpt><trkpt lat="37.8893433" lon="13.1731268"><ele>291.0</ele><time>2026-05-05T09:37:25.566Z</time></trkpt><trkpt lat="37.8892428" lon="13.1730517"><ele>292.40000000000003</ele><time>2026-05-05T09:37:27.564Z</time></trkpt><trkpt lat="37.8891507" lon="13.1729639"><ele>293.8</ele><time>2026-05-05T09:37:29.565Z</time></trkpt><trkpt lat="37.8890657" lon="13.1728494"><ele>295.20000000000005</ele><time>2026-05-05T09:37:31.565Z</time></trkpt><trkpt lat="37.8890178" lon="13.1727929"><ele>296.6</ele><time>2026-05-05T09:37:32.566Z</time></trkpt><trkpt lat="37.8889205" lon="13.1726982"><ele>298.0</ele><time>2026-05-05T09:37:34.565Z</time></trkpt><trkpt lat="37.8887973" lon="13.1726754"><ele>298.0</ele><time>2026-05-05T09:37:36.565Z</time></trkpt><trkpt lat="37.8887289" lon="13.1726887"><ele>298.0</ele><time>2026-05-05T09:37:37.565Z</time></trkpt><trkpt lat="37.8886647" lon="13.1726946"><ele>298.0</ele><time>2026-05-05T09:37:38.565Z</time></trkpt><trkpt lat="37.8885989" lon="13.1726842"><ele>298.0</ele><time>2026-05-05T09:37:39.565Z</time></trkpt><trkpt lat="37.8885326" lon="13.17267"><ele>298.0</ele><time>2026-05-05T09:37:40.564Z</time></trkpt><trkpt lat="37.8884718" lon="13.1726461"><ele>298.0</ele><time>2026-05-05T09:37:41.565Z</time></trkpt><trkpt lat="37.8884145" lon="13.1726052"><ele>298.0</ele><time>2026-05-05T09:37:42.563Z</time></trkpt><trkpt lat="37.8883663" lon="13.1725425"><ele>298.85714285714283</ele><time>2026-05-05T09:37:43.565Z</time></trkpt><trkpt lat="37.8883428" lon="13.1724502"><ele>299.71428571428567</ele><time>2026-05-05T09:37:44.565Z</time></trkpt><trkpt lat="37.8883295" lon="13.1723608"><ele>300.57142857142856</ele><time>2026-05-05T09:37:45.565Z</time></trkpt><trkpt lat="37.8883463" lon="13.1722792"><ele>301.42857142857144</ele><time>2026-05-05T09:37:46.564Z</time></trkpt><trkpt lat="37.8883835" lon="13.172205"><ele>302.28571428571433</ele><time>2026-05-05T09:37:47.566Z</time></trkpt><trkpt lat="37.88843" lon="13.1721273"><ele>303.1428571428571</ele><time>2026-05-05T09:37:48.565Z</time></trkpt><trkpt lat="37.8884745" lon="13.1720395"><ele>304.0</ele><time>2026-05-05T09:37:49.566Z</time></trkpt><trkpt lat="37.8885183" lon="13.1719358"><ele>304.0</ele><time>2026-05-05T09:37:50.566Z</time></trkpt><trkpt lat="37.8885606" lon="13.1718194"><ele>304.0</ele><time>2026-05-05T09:37:51.564Z</time></trkpt><trkpt lat="37.8886039" lon="13.1716933"><ele>304.0</ele><time>2026-05-05T09:37:52.565Z</time></trkpt><trkpt lat="37.8886527" lon="13.1715801"><ele>304.0</ele><time>2026-05-05T09:37:53.564Z</time></trkpt><trkpt lat="37.8887038" lon="13.1714682"><ele>304.0</ele><time>2026-05-05T09:37:54.565Z</time></trkpt><trkpt lat="37.8887519" lon="13.171365"><ele>303.66666666666663</ele><time>2026-05-05T09:37:55.565Z</time></trkpt><trkpt lat="37.888796" lon="13.1712726"><ele>303.3333333333333</ele><time>2026-05-05T09:37:56.566Z</time></trkpt><trkpt lat="37.8888316" lon="13.1711859"><ele>303.0</ele><time>2026-05-05T09:37:57.565Z</time></trkpt><trkpt lat="37.8888583" lon="13.1710973"><ele>302.6666666666667</ele><time>2026-05-05T09:37:58.565Z</time></trkpt><trkpt lat="37.8888687" lon="13.1710139"><ele>302.33333333333337</ele><time>2026-05-05T09:37:59.565Z</time></trkpt><trkpt lat="37.8888412" lon="13.170865"><ele>302.0</ele><time>2026-05-05T09:38:01.564Z</time></trkpt><trkpt lat="37.8887697" lon="13.1707645"><ele>302.0</ele><time>2026-05-05T09:38:03.565Z</time></trkpt><trkpt lat="37.8886799" lon="13.1706969"><ele>302.0</ele><time>2026-05-05T09:38:05.565Z</time></trkpt><trkpt lat="37.8885633" lon="13.1706505"><ele>302.0</ele><time>2026-05-05T09:38:07.566Z</time></trkpt><trkpt lat="37.8885021" lon="13.1706246"><ele>302.0</ele><time>2026-05-05T09:38:08.565Z</time></trkpt><trkpt lat="37.888444" lon="13.1705919"><ele>302.0</ele><time>2026-05-05T09:38:09.564Z</time></trkpt><trkpt lat="37.8883851" lon="13.170547"><ele>302.0</ele><time>2026-05-05T09:38:10.563Z</time></trkpt><trkpt lat="37.888326" lon="13.1704881"><ele>301.0</ele><time>2026-05-05T09:38:11.565Z</time></trkpt><trkpt lat="37.8882699" lon="13.1704138"><ele>300.0</ele><time>2026-05-05T09:38:12.564Z</time></trkpt><trkpt lat="37.8882195" lon="13.1703214"><ele>299.0</ele><time>2026-05-05T09:38:13.564Z</time></trkpt><trkpt lat="37.8881746" lon="13.1702136"><ele>298.0</ele><time>2026-05-05T09:38:14.565Z</time></trkpt><trkpt lat="37.8881329" lon="13.170096"><ele>297.0</ele><time>2026-05-05T09:38:15.564Z</time></trkpt><trkpt lat="37.8880914" lon="13.1699797"><ele>297.0</ele><time>2026-05-05T09:38:16.565Z</time></trkpt><trkpt lat="37.8880491" lon="13.1698737"><ele>297.0</ele><time>2026-05-05T09:38:17.565Z</time></trkpt><trkpt lat="37.8880104" lon="13.1697863"><ele>297.0</ele><time>2026-05-05T09:38:18.566Z</time></trkpt><trkpt lat="37.8879595" lon="13.1697151"><ele>297.0</ele><time>2026-05-05T09:38:19.566Z</time></trkpt><trkpt lat="37.8878854" lon="13.1696636"><ele>297.0</ele><time>2026-05-05T09:38:20.566Z</time></trkpt><trkpt lat="37.8878084" lon="13.1696173"><ele>297.0</ele><time>2026-05-05T09:38:21.565Z</time></trkpt><trkpt lat="37.8877265" lon="13.1695716"><ele>296.8333333333333</ele><time>2026-05-05T09:38:22.565Z</time></trkpt><trkpt lat="37.887646" lon="13.169524"><ele>296.6666666666667</ele><time>2026-05-05T09:38:23.566Z</time></trkpt><trkpt lat="37.8875707" lon="13.1694765"><ele>296.5</ele><time>2026-05-05T09:38:24.566Z</time></trkpt><trkpt lat="37.8875027" lon="13.1694166"><ele>296.33333333333337</ele><time>2026-05-05T09:38:25.564Z</time></trkpt><trkpt lat="37.8874417" lon="13.1693367"><ele>296.1666666666667</ele><time>2026-05-05T09:38:26.565Z</time></trkpt><trkpt lat="37.8873733" lon="13.169265"><ele>296.0</ele><time>2026-05-05T09:38:27.564Z</time></trkpt><trkpt lat="37.8873067" lon="13.16919"><ele>296.0</ele><time>2026-05-05T09:38:28.565Z</time></trkpt><trkpt lat="37.8872417" lon="13.1691217"><ele>296.0</ele><time>2026-05-05T09:38:29.565Z</time></trkpt><trkpt lat="37.887175" lon="13.16906"><ele>296.0</ele><time>2026-05-05T09:38:30.565Z</time></trkpt><trkpt lat="37.88711" lon="13.168995"><ele>296.0</ele><time>2026-05-05T09:38:31.566Z</time></trkpt><trkpt lat="37.88705" lon="13.1689167"><ele>296.0</ele><time>2026-05-05T09:38:32.57Z</time></trkpt><trkpt lat="37.886985" lon="13.1688333"><ele>296.0</ele><time>2026-05-05T09:38:33.565Z</time></trkpt><trkpt lat="37.886915" lon="13.1687517"><ele>295.6</ele><time>2026-05-05T09:38:34.564Z</time></trkpt><trkpt lat="37.886845" lon="13.1686667"><ele>295.20000000000005</ele><time>2026-05-05T09:38:35.565Z</time></trkpt><trkpt lat="37.8867833" lon="13.1685733"><ele>294.79999999999995</ele><time>2026-05-05T09:38:36.566Z</time></trkpt><trkpt lat="37.8867217" lon="13.1684783"><ele>294.4</ele><time>2026-05-05T09:38:37.566Z</time></trkpt><trkpt lat="37.886665" lon="13.168375"><ele>294.0</ele><time>2026-05-05T09:38:38.565Z</time></trkpt><trkpt lat="37.8866117" lon="13.168265"><ele>295.59999999999997</ele><time>2026-05-05T09:38:39.565Z</time></trkpt><trkpt lat="37.886565" lon="13.1681483"><ele>297.2</ele><time>2026-05-05T09:38:40.565Z</time></trkpt><trkpt lat="37.8865233" lon="13.1680367"><ele>298.79999999999995</ele><time>2026-05-05T09:38:41.566Z</time></trkpt><trkpt lat="37.8864817" lon="13.16794"><ele>300.4</ele><time>2026-05-05T09:38:42.566Z</time></trkpt><trkpt lat="37.88645" lon="13.1678483"><ele>302.0</ele><time>2026-05-05T09:38:43.566Z</time></trkpt><trkpt lat="37.8864317" lon="13.167745"><ele>302.0</ele><time>2026-05-05T09:38:44.566Z</time></trkpt><trkpt lat="37.88642" lon="13.167645"><ele>302.0</ele><time>2026-05-05T09:38:45.566Z</time></trkpt><trkpt lat="37.8864217" lon="13.167545"><ele>302.0</ele><time>2026-05-05T09:38:46.565Z</time></trkpt><trkpt lat="37.88643" lon="13.1674417"><ele>302.0</ele><time>2026-05-05T09:38:47.566Z</time></trkpt><trkpt lat="37.886435" lon="13.16735"><ele>302.0</ele><time>2026-05-05T09:38:48.566Z</time></trkpt><trkpt lat="37.886435" lon="13.16726"><ele>302.0</ele><time>2026-05-05T09:38:49.564Z</time></trkpt><trkpt lat="37.8864333" lon="13.1671633"><ele>302.1666666666667</ele><time>2026-05-05T09:38:50.566Z</time></trkpt><trkpt lat="37.88643" lon="13.1670617"><ele>302.33333333333337</ele><time>2026-05-05T09:38:51.564Z</time></trkpt><trkpt lat="37.8864267" lon="13.166955"><ele>302.5</ele><time>2026-05-05T09:38:52.566Z</time></trkpt><trkpt lat="37.88642" lon="13.1668417"><ele>302.6666666666667</ele><time>2026-05-05T09:38:53.569Z</time></trkpt><trkpt lat="37.8864133" lon="13.1667283"><ele>302.8333333333333</ele><time>2026-05-05T09:38:54.566Z</time></trkpt><trkpt lat="37.8864133" lon="13.16661"><ele>303.0</ele><time>2026-05-05T09:38:55.565Z</time></trkpt><trkpt lat="37.8864267" lon="13.1664967"><ele>303.1666666666667</ele><time>2026-05-05T09:38:56.566Z</time></trkpt><trkpt lat="37.8864367" lon="13.1663817"><ele>303.3333333333333</ele><time>2026-05-05T09:38:57.566Z</time></trkpt><trkpt lat="37.886435" lon="13.1662717"><ele>303.5</ele><time>2026-05-05T09:38:58.566Z</time></trkpt><trkpt lat="37.8864333" lon="13.16616"><ele>303.66666666666663</ele><time>2026-05-05T09:38:59.57Z</time></trkpt><trkpt lat="37.8864367" lon="13.1660533"><ele>303.8333333333333</ele><time>2026-05-05T09:39:00.565Z</time></trkpt><trkpt lat="37.8864433" lon="13.1659533"><ele>304.0</ele><time>2026-05-05T09:39:01.565Z</time></trkpt><trkpt lat="37.8864533" lon="13.165855"><ele>304.0</ele><time>2026-05-05T09:39:02.565Z</time></trkpt><trkpt lat="37.88646" lon="13.1657633"><ele>304.0</ele><time>2026-05-05T09:39:03.566Z</time></trkpt><trkpt lat="37.88645" lon="13.1656083"><ele>304.0</ele><time>2026-05-05T09:39:05.565Z</time></trkpt><trkpt lat="37.8863917" lon="13.1654683"><ele>304.0</ele><time>2026-05-05T09:39:07.565Z</time></trkpt><trkpt lat="37.88634" lon="13.1654083"><ele>304.0</ele><time>2026-05-05T09:39:08.566Z</time></trkpt><trkpt lat="37.8862767" lon="13.165365"><ele>304.1428571428571</ele><time>2026-05-05T09:39:09.565Z</time></trkpt><trkpt lat="37.88621" lon="13.165335"><ele>304.28571428571433</ele><time>2026-05-05T09:39:10.565Z</time></trkpt><trkpt lat="37.8861467" lon="13.1653083"><ele>304.42857142857144</ele><time>2026-05-05T09:39:11.566Z</time></trkpt><trkpt lat="37.8860783" lon="13.16528"><ele>304.57142857142856</ele><time>2026-05-05T09:39:12.567Z</time></trkpt><trkpt lat="37.886005" lon="13.1652617"><ele>304.71428571428567</ele><time>2026-05-05T09:39:13.565Z</time></trkpt><trkpt lat="37.8859233" lon="13.1652567"><ele>304.8571428571429</ele><time>2026-05-05T09:39:14.565Z</time></trkpt><trkpt lat="37.885845" lon="13.16527"><ele>305.0</ele><time>2026-05-05T09:39:15.564Z</time></trkpt><trkpt lat="37.8857733" lon="13.1652933"><ele>305.0</ele><time>2026-05-05T09:39:16.567Z</time></trkpt><trkpt lat="37.88566" lon="13.1653433"><ele>305.0</ele><time>2026-05-05T09:39:18.564Z</time></trkpt><trkpt lat="37.885535" lon="13.1653783"><ele>305.0</ele><time>2026-05-05T09:39:20.567Z</time></trkpt><trkpt lat="37.8854733" lon="13.1654017"><ele>305.0</ele><time>2026-05-05T09:39:21.565Z</time></trkpt><trkpt lat="37.8853683" lon="13.1654417"><ele>305.0</ele><time>2026-05-05T09:39:23.566Z</time></trkpt><trkpt lat="37.8852767" lon="13.1655033"><ele>305.0</ele><time>2026-05-05T09:39:25.565Z</time></trkpt><trkpt lat="37.8851983" lon="13.1656133"><ele>305.0</ele><time>2026-05-05T09:39:27.566Z</time></trkpt><trkpt lat="37.8851333" lon="13.1657333"><ele>305.0</ele><time>2026-05-05T09:39:29.566Z</time></trkpt><trkpt lat="37.88508" lon="13.1658667"><ele>305.0</ele><time>2026-05-05T09:39:31.566Z</time></trkpt><trkpt lat="37.8850667" lon="13.165945"><ele>305.0</ele><time>2026-05-05T09:39:32.566Z</time></trkpt><trkpt lat="37.885075" lon="13.1660283"><ele>305.0</ele><time>2026-05-05T09:39:33.565Z</time></trkpt><trkpt lat="37.8850833" lon="13.1661183"><ele>305.0</ele><time>2026-05-05T09:39:34.565Z</time></trkpt><trkpt lat="37.8850867" lon="13.166205"><ele>305.0</ele><time>2026-05-05T09:39:35.565Z</time></trkpt><trkpt lat="37.8850917" lon="13.1662883"><ele>305.0</ele><time>2026-05-05T09:39:36.566Z</time></trkpt><trkpt lat="37.8850883" lon="13.1663733"><ele>305.0</ele><time>2026-05-05T09:39:37.566Z</time></trkpt><trkpt lat="37.8850383" lon="13.1665133"><ele>305.0</ele><time>2026-05-05T09:39:39.566Z</time></trkpt><trkpt lat="37.8849967" lon="13.1665767"><ele>304.6666666666667</ele><time>2026-05-05T09:39:40.566Z</time></trkpt><trkpt lat="37.88495" lon="13.1666383"><ele>304.33333333333337</ele><time>2026-05-05T09:39:41.563Z</time></trkpt><trkpt lat="37.8848433" lon="13.1667033"><ele>304.0</ele><time>2026-05-05T09:39:43.565Z</time></trkpt><trkpt lat="37.8847167" lon="13.1666983"><ele>303.6666666666667</ele><time>2026-05-05T09:39:45.565Z</time></trkpt><trkpt lat="37.88465" lon="13.166685"><ele>303.3333333333333</ele><time>2026-05-05T09:39:46.566Z</time></trkpt><trkpt lat="37.8845883" lon="13.16666"><ele>303.0</ele><time>2026-05-05T09:39:47.566Z</time></trkpt><trkpt lat="37.88449" lon="13.1665683"><ele>303.3333333333333</ele><time>2026-05-05T09:39:49.567Z</time></trkpt><trkpt lat="37.884435" lon="13.16643"><ele>303.6666666666667</ele><time>2026-05-05T09:39:51.565Z</time></trkpt><trkpt lat="37.88442" lon="13.16635"><ele>304.0</ele><time>2026-05-05T09:39:52.567Z</time></trkpt><trkpt lat="37.8844117" lon="13.1662633"><ele>304.33333333333337</ele><time>2026-05-05T09:39:53.566Z</time></trkpt><trkpt lat="37.8844067" lon="13.1661733"><ele>304.6666666666667</ele><time>2026-05-05T09:39:54.568Z</time></trkpt><trkpt lat="37.8844017" lon="13.16608"><ele>305.0</ele><time>2026-05-05T09:39:55.568Z</time></trkpt><trkpt lat="37.8843917" lon="13.1659817"><ele>305.0</ele><time>2026-05-05T09:39:56.567Z</time></trkpt><trkpt lat="37.8843783" lon="13.1658817"><ele>305.0</ele><time>2026-05-05T09:39:57.565Z</time></trkpt><trkpt lat="37.8843667" lon="13.1657833"><ele>305.0</ele><time>2026-05-05T09:39:58.565Z</time></trkpt><trkpt lat="37.884355" lon="13.16569"><ele>305.0</ele><time>2026-05-05T09:39:59.567Z</time></trkpt><trkpt lat="37.8843433" lon="13.16561"><ele>305.0</ele><time>2026-05-05T09:40:00.565Z</time></trkpt><trkpt lat="37.88432" lon="13.1654483"><ele>305.0</ele><time>2026-05-05T09:40:02.566Z</time></trkpt><trkpt lat="37.8843117" lon="13.16536"><ele>306.0</ele><time>2026-05-05T09:40:03.565Z</time></trkpt><trkpt lat="37.8843133" lon="13.1652617"><ele>307.0</ele><time>2026-05-05T09:40:04.567Z</time></trkpt><trkpt lat="37.8843199" lon="13.1651703"><ele>308.0</ele><time>2026-05-05T09:40:05.566Z</time></trkpt><trkpt lat="37.8843372" lon="13.165085"><ele>309.0</ele><time>2026-05-05T09:40:06.566Z</time></trkpt><trkpt lat="37.8843639" lon="13.1650015"><ele>310.0</ele><time>2026-05-05T09:40:07.566Z</time></trkpt><trkpt lat="37.8843933" lon="13.1649173"><ele>311.0</ele><time>2026-05-05T09:40:08.567Z</time></trkpt><trkpt lat="37.8844304" lon="13.1648384"><ele>312.0</ele><time>2026-05-05T09:40:09.565Z</time></trkpt><trkpt lat="37.8844739" lon="13.1647748"><ele>313.6666666666667</ele><time>2026-05-05T09:40:10.566Z</time></trkpt><trkpt lat="37.8845294" lon="13.1647291"><ele>315.3333333333333</ele><time>2026-05-05T09:40:11.566Z</time></trkpt><trkpt lat="37.8845952" lon="13.1646937"><ele>317.0</ele><time>2026-05-05T09:40:12.564Z</time></trkpt><trkpt lat="37.8846577" lon="13.1646539"><ele>318.66666666666663</ele><time>2026-05-05T09:40:13.567Z</time></trkpt><trkpt lat="37.8847193" lon="13.164606"><ele>320.3333333333333</ele><time>2026-05-05T09:40:14.565Z</time></trkpt><trkpt lat="37.8847836" lon="13.1645653"><ele>322.0</ele><time>2026-05-05T09:40:15.566Z</time></trkpt><trkpt lat="37.8848784" lon="13.1644869"><ele>322.0</ele><time>2026-05-05T09:40:17.565Z</time></trkpt><trkpt lat="37.8849263" lon="13.1643946"><ele>322.0</ele><time>2026-05-05T09:40:19.566Z</time></trkpt><trkpt lat="37.8849446" lon="13.1642873"><ele>322.0</ele><time>2026-05-05T09:40:21.565Z</time></trkpt><trkpt lat="37.8849193" lon="13.1641645"><ele>322.0</ele><time>2026-05-05T09:40:23.564Z</time></trkpt><trkpt lat="37.8848491" lon="13.1640516"><ele>322.0</ele><time>2026-05-05T09:40:25.565Z</time></trkpt><trkpt lat="37.8847597" lon="13.163939"><ele>322.14285714285717</ele><time>2026-05-05T09:40:27.566Z</time></trkpt><trkpt lat="37.8847113" lon="13.1638801"><ele>322.2857142857143</ele><time>2026-05-05T09:40:28.566Z</time></trkpt><trkpt lat="37.8846583" lon="13.1638182"><ele>322.42857142857144</ele><time>2026-05-05T09:40:29.566Z</time></trkpt><trkpt lat="37.8846043" lon="13.1637493"><ele>322.57142857142856</ele><time>2026-05-05T09:40:30.565Z</time></trkpt><trkpt lat="37.8845526" lon="13.1636768"><ele>322.7142857142857</ele><time>2026-05-05T09:40:31.566Z</time></trkpt><trkpt lat="37.8845026" lon="13.163608"><ele>322.8571428571429</ele><time>2026-05-05T09:40:32.566Z</time></trkpt><trkpt lat="37.8844498" lon="13.1635431"><ele>323.0</ele><time>2026-05-05T09:40:33.564Z</time></trkpt><trkpt lat="37.8843928" lon="13.1634804"><ele>323.0</ele><time>2026-05-05T09:40:34.566Z</time></trkpt><trkpt lat="37.8843394" lon="13.1634162"><ele>323.0</ele><time>2026-05-05T09:40:35.565Z</time></trkpt><trkpt lat="37.8842936" lon="13.1633378"><ele>323.0</ele><time>2026-05-05T09:40:36.564Z</time></trkpt><trkpt lat="37.8842545" lon="13.1632422"><ele>323.0</ele><time>2026-05-05T09:40:37.565Z</time></trkpt><trkpt lat="37.8842336" lon="13.1631328"><ele>323.0</ele><time>2026-05-05T09:40:38.564Z</time></trkpt><trkpt lat="37.8842278" lon="13.1630178"><ele>323.0</ele><time>2026-05-05T09:40:39.566Z</time></trkpt><trkpt lat="37.8842335" lon="13.162901"><ele>323.79999999999995</ele><time>2026-05-05T09:40:40.567Z</time></trkpt><trkpt lat="37.884248" lon="13.1627825"><ele>324.6</ele><time>2026-05-05T09:40:41.564Z</time></trkpt><trkpt lat="37.8842616" lon="13.1626621"><ele>325.4</ele><time>2026-05-05T09:40:42.565Z</time></trkpt><trkpt lat="37.8842648" lon="13.1625401"><ele>326.20000000000005</ele><time>2026-05-05T09:40:43.565Z</time></trkpt><trkpt lat="37.8842612" lon="13.1624202"><ele>327.0</ele><time>2026-05-05T09:40:44.566Z</time></trkpt><trkpt lat="37.8842516" lon="13.1623051"><ele>329.40000000000003</ele><time>2026-05-05T09:40:45.565Z</time></trkpt><trkpt lat="37.8842349" lon="13.1621894"><ele>331.8</ele><time>2026-05-05T09:40:46.566Z</time></trkpt><trkpt lat="37.8842174" lon="13.1620714"><ele>334.2</ele><time>2026-05-05T09:40:47.566Z</time></trkpt><trkpt lat="37.8841966" lon="13.1619503"><ele>336.6</ele><time>2026-05-05T09:40:48.565Z</time></trkpt><trkpt lat="37.8841673" lon="13.1618293"><ele>339.0</ele><time>2026-05-05T09:40:49.567Z</time></trkpt><trkpt lat="37.8841228" lon="13.1617172"><ele>339.0</ele><time>2026-05-05T09:40:50.568Z</time></trkpt><trkpt lat="37.8840562" lon="13.1616376"><ele>339.0</ele><time>2026-05-05T09:40:51.564Z</time></trkpt><trkpt lat="37.8839835" lon="13.1615706"><ele>339.0</ele><time>2026-05-05T09:40:52.565Z</time></trkpt><trkpt lat="37.8838867" lon="13.1615417"><ele>339.0</ele><time>2026-05-05T09:40:53.565Z</time></trkpt><trkpt lat="37.8837967" lon="13.161505"><ele>339.0</ele><time>2026-05-05T09:40:54.565Z</time></trkpt><trkpt lat="37.8837033" lon="13.1614617"><ele>339.0</ele><time>2026-05-05T09:40:55.566Z</time></trkpt><trkpt lat="37.883615" lon="13.16142"><ele>339.0</ele><time>2026-05-05T09:40:56.567Z</time></trkpt><trkpt lat="37.8835467" lon="13.1613683"><ele>339.0</ele><time>2026-05-05T09:40:57.565Z</time></trkpt><trkpt lat="37.8834867" lon="13.161305"><ele>339.0</ele><time>2026-05-05T09:40:58.566Z</time></trkpt><trkpt lat="37.883435" lon="13.1612317"><ele>339.0</ele><time>2026-05-05T09:40:59.565Z</time></trkpt><trkpt lat="37.883385" lon="13.1611533"><ele>339.0</ele><time>2026-05-05T09:41:00.566Z</time></trkpt><trkpt lat="37.8833367" lon="13.1610767"><ele>339.0</ele><time>2026-05-05T09:41:01.567Z</time></trkpt><trkpt lat="37.8832983" lon="13.1609917"><ele>339.0</ele><time>2026-05-05T09:41:02.567Z</time></trkpt><trkpt lat="37.8832633" lon="13.1609017"><ele>339.0</ele><time>2026-05-05T09:41:03.565Z</time></trkpt><trkpt lat="37.8832317" lon="13.1608083"><ele>339.0</ele><time>2026-05-05T09:41:04.565Z</time></trkpt><trkpt lat="37.8832017" lon="13.1607033"><ele>339.0</ele><time>2026-05-05T09:41:05.565Z</time></trkpt><trkpt lat="37.88316" lon="13.1605967"><ele>339.0</ele><time>2026-05-05T09:41:06.566Z</time></trkpt><trkpt lat="37.8831083" lon="13.16049"><ele>340.0</ele><time>2026-05-05T09:41:07.566Z</time></trkpt><trkpt lat="37.8830533" lon="13.1603817"><ele>341.0</ele><time>2026-05-05T09:41:08.567Z</time></trkpt><trkpt lat="37.8830033" lon="13.160275"><ele>342.0</ele><time>2026-05-05T09:41:09.565Z</time></trkpt><trkpt lat="37.88296" lon="13.1601667"><ele>343.0</ele><time>2026-05-05T09:41:10.565Z</time></trkpt><trkpt lat="37.88293" lon="13.16006"><ele>344.0</ele><time>2026-05-05T09:41:11.565Z</time></trkpt><trkpt lat="37.8829133" lon="13.159955"><ele>342.83333333333337</ele><time>2026-05-05T09:41:12.566Z</time></trkpt><trkpt lat="37.8828967" lon="13.159855"><ele>341.6666666666667</ele><time>2026-05-05T09:41:13.564Z</time></trkpt><trkpt lat="37.8828833" lon="13.1597567"><ele>340.5</ele><time>2026-05-05T09:41:14.567Z</time></trkpt><trkpt lat="37.8828833" lon="13.1596617"><ele>339.3333333333333</ele><time>2026-05-05T09:41:15.565Z</time></trkpt><trkpt lat="37.8828933" lon="13.15957"><ele>338.16666666666663</ele><time>2026-05-05T09:41:16.565Z</time></trkpt><trkpt lat="37.8829083" lon="13.1594817"><ele>337.0</ele><time>2026-05-05T09:41:17.566Z</time></trkpt><trkpt lat="37.8829267" lon="13.159395"><ele>337.00000000000006</ele><time>2026-05-05T09:41:18.565Z</time></trkpt><trkpt lat="37.8829533" lon="13.1593083"><ele>337.0</ele><time>2026-05-05T09:41:19.567Z</time></trkpt><trkpt lat="37.88298" lon="13.15922"><ele>337.0</ele><time>2026-05-05T09:41:20.565Z</time></trkpt><trkpt lat="37.8830067" lon="13.1591333"><ele>337.0</ele><time>2026-05-05T09:41:21.565Z</time></trkpt><trkpt lat="37.8830367" lon="13.1590483"><ele>337.0</ele><time>2026-05-05T09:41:22.566Z</time></trkpt><trkpt lat="37.8830667" lon="13.1589683"><ele>337.00000000000006</ele><time>2026-05-05T09:41:23.567Z</time></trkpt><trkpt lat="37.883095" lon="13.1588917"><ele>337.0</ele><time>2026-05-05T09:41:24.567Z</time></trkpt><trkpt lat="37.88312" lon="13.15881"><ele>335.66666666666663</ele><time>2026-05-05T09:41:25.567Z</time></trkpt><trkpt lat="37.8831483" lon="13.1587233"><ele>334.3333333333333</ele><time>2026-05-05T09:41:26.567Z</time></trkpt><trkpt lat="37.8831783" lon="13.1586383"><ele>333.0</ele><time>2026-05-05T09:41:27.565Z</time></trkpt><trkpt lat="37.8832117" lon="13.1585533"><ele>331.6666666666667</ele><time>2026-05-05T09:41:28.565Z</time></trkpt><trkpt lat="37.883245" lon="13.158465"><ele>330.33333333333337</ele><time>2026-05-05T09:41:29.565Z</time></trkpt><trkpt lat="37.8832817" lon="13.1583717"><ele>329.0</ele><time>2026-05-05T09:41:30.567Z</time></trkpt><trkpt lat="37.8833183" lon="13.1582783"><ele>328.1666666666667</ele><time>2026-05-05T09:41:31.564Z</time></trkpt><trkpt lat="37.8833533" lon="13.1581833"><ele>327.33333333333337</ele><time>2026-05-05T09:41:32.566Z</time></trkpt><trkpt lat="37.8833883" lon="13.158085"><ele>326.5</ele><time>2026-05-05T09:41:33.565Z</time></trkpt><trkpt lat="37.8834217" lon="13.157985"><ele>325.6666666666667</ele><time>2026-05-05T09:41:34.564Z</time></trkpt><trkpt lat="37.883455" lon="13.1578817"><ele>324.8333333333333</ele><time>2026-05-05T09:41:35.566Z</time></trkpt><trkpt lat="37.88349" lon="13.1577733"><ele>324.0</ele><time>2026-05-05T09:41:36.565Z</time></trkpt><trkpt lat="37.8835267" lon="13.15766"><ele>324.79999999999995</ele><time>2026-05-05T09:41:37.565Z</time></trkpt><trkpt lat="37.8835633" lon="13.1575433"><ele>325.59999999999997</ele><time>2026-05-05T09:41:38.566Z</time></trkpt><trkpt lat="37.8836017" lon="13.157435"><ele>326.4</ele><time>2026-05-05T09:41:39.565Z</time></trkpt><trkpt lat="37.883635" lon="13.157335"><ele>327.2</ele><time>2026-05-05T09:41:40.565Z</time></trkpt><trkpt lat="37.8836633" lon="13.1572333"><ele>328.0</ele><time>2026-05-05T09:41:41.566Z</time></trkpt><trkpt lat="37.8836983" lon="13.1571267"><ele>328.0</ele><time>2026-05-05T09:41:42.564Z</time></trkpt><trkpt lat="37.8837333" lon="13.1570133"><ele>328.0</ele><time>2026-05-05T09:41:43.565Z</time></trkpt><trkpt lat="37.8837717" lon="13.1569017"><ele>328.0</ele><time>2026-05-05T09:41:44.566Z</time></trkpt><trkpt lat="37.88381" lon="13.15679"><ele>328.0</ele><time>2026-05-05T09:41:45.565Z</time></trkpt><trkpt lat="37.8838467" lon="13.1566767"><ele>328.0</ele><time>2026-05-05T09:41:46.565Z</time></trkpt><trkpt lat="37.8838867" lon="13.15657"><ele>328.0</ele><time>2026-05-05T09:41:47.565Z</time></trkpt><trkpt lat="37.88392" lon="13.156465"><ele>328.0</ele><time>2026-05-05T09:41:48.566Z</time></trkpt><trkpt lat="37.88395" lon="13.156355"><ele>328.0</ele><time>2026-05-05T09:41:49.564Z</time></trkpt><trkpt lat="37.8839833" lon="13.15624"><ele>328.0</ele><time>2026-05-05T09:41:50.566Z</time></trkpt><trkpt lat="37.88402" lon="13.1561283"><ele>328.0</ele><time>2026-05-05T09:41:51.566Z</time></trkpt><trkpt lat="37.884055" lon="13.1560183"><ele>328.0</ele><time>2026-05-05T09:41:52.566Z</time></trkpt><trkpt lat="37.8840917" lon="13.1559083"><ele>328.0</ele><time>2026-05-05T09:41:53.567Z</time></trkpt><trkpt lat="37.884125" lon="13.1557933"><ele>328.0</ele><time>2026-05-05T09:41:54.565Z</time></trkpt><trkpt lat="37.8841567" lon="13.1556783"><ele>328.0</ele><time>2026-05-05T09:41:55.564Z</time></trkpt><trkpt lat="37.88419" lon="13.1555667"><ele>328.0</ele><time>2026-05-05T09:41:56.566Z</time></trkpt><trkpt lat="37.8842233" lon="13.1554567"><ele>328.4</ele><time>2026-05-05T09:41:57.565Z</time></trkpt><trkpt lat="37.884245" lon="13.15534"><ele>328.79999999999995</ele><time>2026-05-05T09:41:58.565Z</time></trkpt><trkpt lat="37.8842583" lon="13.1552183"><ele>329.2</ele><time>2026-05-05T09:41:59.565Z</time></trkpt><trkpt lat="37.884265" lon="13.1550967"><ele>329.6</ele><time>2026-05-05T09:42:00.566Z</time></trkpt><trkpt lat="37.88426" lon="13.1549767"><ele>330.0</ele><time>2026-05-05T09:42:01.569Z</time></trkpt><trkpt lat="37.884255" lon="13.1548533"><ele>330.8</ele><time>2026-05-05T09:42:02.566Z</time></trkpt><trkpt lat="37.8842483" lon="13.1547333"><ele>331.6</ele><time>2026-05-05T09:42:03.565Z</time></trkpt><trkpt lat="37.8842467" lon="13.15461"><ele>332.4</ele><time>2026-05-05T09:42:04.566Z</time></trkpt><trkpt lat="37.8842383" lon="13.1544883"><ele>333.2</ele><time>2026-05-05T09:42:05.566Z</time></trkpt><trkpt lat="37.8842233" lon="13.15437"><ele>334.0</ele><time>2026-05-05T09:42:06.565Z</time></trkpt><trkpt lat="37.8842033" lon="13.1542517"><ele>334.0</ele><time>2026-05-05T09:42:07.565Z</time></trkpt><trkpt lat="37.8841717" lon="13.15414"><ele>334.0</ele><time>2026-05-05T09:42:08.565Z</time></trkpt><trkpt lat="37.8841317" lon="13.15403"><ele>334.0</ele><time>2026-05-05T09:42:09.565Z</time></trkpt><trkpt lat="37.8840817" lon="13.1539283"><ele>334.0</ele><time>2026-05-05T09:42:10.566Z</time></trkpt><trkpt lat="37.8840183" lon="13.15383"><ele>334.0</ele><time>2026-05-05T09:42:11.567Z</time></trkpt><trkpt lat="37.8839483" lon="13.1537383"><ele>333.4</ele><time>2026-05-05T09:42:12.565Z</time></trkpt><trkpt lat="37.8838767" lon="13.1536467"><ele>332.79999999999995</ele><time>2026-05-05T09:42:13.567Z</time></trkpt><trkpt lat="37.883805" lon="13.1535517"><ele>332.20000000000005</ele><time>2026-05-05T09:42:14.566Z</time></trkpt><trkpt lat="37.8837367" lon="13.1534567"><ele>331.6</ele><time>2026-05-05T09:42:15.566Z</time></trkpt><trkpt lat="37.8836683" lon="13.1533617"><ele>331.0</ele><time>2026-05-05T09:42:16.566Z</time></trkpt><trkpt lat="37.8835967" lon="13.1532683"><ele>330.5</ele><time>2026-05-05T09:42:17.566Z</time></trkpt><trkpt lat="37.8835233" lon="13.1531783"><ele>330.0</ele><time>2026-05-05T09:42:18.566Z</time></trkpt><trkpt lat="37.88345" lon="13.1531017"><ele>329.5</ele><time>2026-05-05T09:42:19.564Z</time></trkpt><trkpt lat="37.8833767" lon="13.1530433"><ele>329.0</ele><time>2026-05-05T09:42:20.566Z</time></trkpt><trkpt lat="37.8832967" lon="13.153"><ele>328.5</ele><time>2026-05-05T09:42:21.563Z</time></trkpt><trkpt lat="37.8832217" lon="13.1529717"><ele>328.0</ele><time>2026-05-05T09:42:22.565Z</time></trkpt><trkpt lat="37.8831517" lon="13.152945"><ele>328.0</ele><time>2026-05-05T09:42:23.566Z</time></trkpt><trkpt lat="37.883085" lon="13.15292"><ele>328.0</ele><time>2026-05-05T09:42:24.565Z</time></trkpt><trkpt lat="37.88302" lon="13.1529"><ele>328.0</ele><time>2026-05-05T09:42:25.565Z</time></trkpt><trkpt lat="37.8829117" lon="13.1528667"><ele>328.0</ele><time>2026-05-05T09:42:27.564Z</time></trkpt><trkpt lat="37.8828433" lon="13.1528483"><ele>328.0</ele><time>2026-05-05T09:42:29.563Z</time></trkpt><trkpt lat="37.8827733" lon="13.1528"><ele>328.0</ele><time>2026-05-05T09:42:43.565Z</time></trkpt><trkpt lat="37.8826733" lon="13.152725"><ele>327.99999999999994</ele><time>2026-05-05T09:42:45.566Z</time></trkpt><trkpt lat="37.8826133" lon="13.152675"><ele>328.0</ele><time>2026-05-05T09:42:46.566Z</time></trkpt><trkpt lat="37.8825517" lon="13.15263"><ele>328.0</ele><time>2026-05-05T09:42:47.564Z</time></trkpt><trkpt lat="37.882485" lon="13.15258"><ele>328.0</ele><time>2026-05-05T09:42:48.565Z</time></trkpt><trkpt lat="37.8824233" lon="13.152525"><ele>328.0</ele><time>2026-05-05T09:42:49.565Z</time></trkpt><trkpt lat="37.8823683" lon="13.1524683"><ele>327.99999999999994</ele><time>2026-05-05T09:42:50.564Z</time></trkpt><trkpt lat="37.882325" lon="13.1524067"><ele>328.0</ele><time>2026-05-05T09:42:51.564Z</time></trkpt><trkpt lat="37.88227" lon="13.15227"><ele>328.5</ele><time>2026-05-05T09:42:53.565Z</time></trkpt><trkpt lat="37.88226" lon="13.1521833"><ele>329.0</ele><time>2026-05-05T09:42:54.565Z</time></trkpt><trkpt lat="37.8822667" lon="13.1520917"><ele>329.5</ele><time>2026-05-05T09:42:55.565Z</time></trkpt><trkpt lat="37.8822967" lon="13.1520083"><ele>330.0</ele><time>2026-05-05T09:42:56.566Z</time></trkpt><trkpt lat="37.8823917" lon="13.1519067"><ele>330.5</ele><time>2026-05-05T09:42:58.565Z</time></trkpt><trkpt lat="37.88245" lon="13.1518633"><ele>331.0</ele><time>2026-05-05T09:42:59.565Z</time></trkpt><trkpt lat="37.8825233" lon="13.15182"><ele>330.4</ele><time>2026-05-05T09:43:00.564Z</time></trkpt><trkpt lat="37.88261" lon="13.1517733"><ele>329.8</ele><time>2026-05-05T09:43:01.565Z</time></trkpt><trkpt lat="37.8827033" lon="13.1517333"><ele>329.2</ele><time>2026-05-05T09:43:02.564Z</time></trkpt><trkpt lat="37.8828083" lon="13.1516967"><ele>328.59999999999997</ele><time>2026-05-05T09:43:03.565Z</time></trkpt><trkpt lat="37.8829217" lon="13.1516633"><ele>328.0</ele><time>2026-05-05T09:43:04.565Z</time></trkpt><trkpt lat="37.8830417" lon="13.1516333"><ele>328.0</ele><time>2026-05-05T09:43:05.565Z</time></trkpt><trkpt lat="37.88316" lon="13.1516067"><ele>328.0</ele><time>2026-05-05T09:43:06.564Z</time></trkpt><trkpt lat="37.883285" lon="13.1515817"><ele>328.0</ele><time>2026-05-05T09:43:07.565Z</time></trkpt><trkpt lat="37.883415" lon="13.15155"><ele>328.0</ele><time>2026-05-05T09:43:08.565Z</time></trkpt><trkpt lat="37.88355" lon="13.1515167"><ele>328.25</ele><time>2026-05-05T09:43:09.564Z</time></trkpt><trkpt lat="37.8836783" lon="13.1514833"><ele>328.5</ele><time>2026-05-05T09:43:10.564Z</time></trkpt><trkpt lat="37.8838" lon="13.1514517"><ele>328.75</ele><time>2026-05-05T09:43:11.564Z</time></trkpt><trkpt lat="37.8839133" lon="13.1514167"><ele>329.0</ele><time>2026-05-05T09:43:12.565Z</time></trkpt><trkpt lat="37.8840267" lon="13.1513833"><ele>329.0</ele><time>2026-05-05T09:43:13.564Z</time></trkpt><trkpt lat="37.8841483" lon="13.1513433"><ele>329.0</ele><time>2026-05-05T09:43:14.565Z</time></trkpt><trkpt lat="37.8842783" lon="13.1513017"><ele>329.0</ele><time>2026-05-05T09:43:15.57Z</time></trkpt><trkpt lat="37.8844233" lon="13.151265"><ele>329.0</ele><time>2026-05-05T09:43:16.564Z</time></trkpt><trkpt lat="37.8845767" lon="13.1512317"><ele>328.33333333333337</ele><time>2026-05-05T09:43:17.565Z</time></trkpt><trkpt lat="37.8847383" lon="13.1511967"><ele>327.6666666666667</ele><time>2026-05-05T09:43:18.566Z</time></trkpt><trkpt lat="37.8849033" lon="13.1511583"><ele>327.0</ele><time>2026-05-05T09:43:19.565Z</time></trkpt><trkpt lat="37.8850733" lon="13.1511183"><ele>326.6666666666667</ele><time>2026-05-05T09:43:20.566Z</time></trkpt><trkpt lat="37.88525" lon="13.1510817"><ele>326.33333333333337</ele><time>2026-05-05T09:43:21.564Z</time></trkpt><trkpt lat="37.88543" lon="13.151045"><ele>326.0</ele><time>2026-05-05T09:43:22.564Z</time></trkpt><trkpt lat="37.8856167" lon="13.1510083"><ele>326.0</ele><time>2026-05-05T09:43:23.565Z</time></trkpt><trkpt lat="37.8858083" lon="13.15097"><ele>326.0</ele><time>2026-05-05T09:43:24.565Z</time></trkpt><trkpt lat="37.885995" lon="13.1509333"><ele>326.0</ele><time>2026-05-05T09:43:25.564Z</time></trkpt><trkpt lat="37.8861717" lon="13.1508983"><ele>325.0</ele><time>2026-05-05T09:43:26.564Z</time></trkpt><trkpt lat="37.8863383" lon="13.1508633"><ele>324.0</ele><time>2026-05-05T09:43:27.563Z</time></trkpt><trkpt lat="37.8864983" lon="13.15083"><ele>323.0</ele><time>2026-05-05T09:43:28.565Z</time></trkpt><trkpt lat="37.886655" lon="13.1508"><ele>323.33333333333337</ele><time>2026-05-05T09:43:29.565Z</time></trkpt><trkpt lat="37.886815" lon="13.1507667"><ele>323.6666666666667</ele><time>2026-05-05T09:43:30.565Z</time></trkpt><trkpt lat="37.8869783" lon="13.1507317"><ele>324.0</ele><time>2026-05-05T09:43:31.565Z</time></trkpt><trkpt lat="37.8871467" lon="13.1506967"><ele>324.0</ele><time>2026-05-05T09:43:32.565Z</time></trkpt><trkpt lat="37.88732" lon="13.1506617"><ele>324.0</ele><time>2026-05-05T09:43:33.564Z</time></trkpt><trkpt lat="37.8874933" lon="13.1506283"><ele>324.0</ele><time>2026-05-05T09:43:34.565Z</time></trkpt><trkpt lat="37.8876683" lon="13.150595"><ele>321.3333333333333</ele><time>2026-05-05T09:43:35.564Z</time></trkpt><trkpt lat="37.8878417" lon="13.1505583"><ele>318.66666666666663</ele><time>2026-05-05T09:43:36.565Z</time></trkpt><trkpt lat="37.8880167" lon="13.15052"><ele>316.0</ele><time>2026-05-05T09:43:37.564Z</time></trkpt><trkpt lat="37.8881917" lon="13.1504817"><ele>316.0</ele><time>2026-05-05T09:43:38.565Z</time></trkpt><trkpt lat="37.8883633" lon="13.150445"><ele>316.0</ele><time>2026-05-05T09:43:39.565Z</time></trkpt><trkpt lat="37.88853" lon="13.15041"><ele>316.0</ele><time>2026-05-05T09:43:40.565Z</time></trkpt><trkpt lat="37.8886933" lon="13.150375"><ele>316.66666666666663</ele><time>2026-05-05T09:43:41.564Z</time></trkpt><trkpt lat="37.8888583" lon="13.15034"><ele>317.3333333333333</ele><time>2026-05-05T09:43:42.565Z</time></trkpt><trkpt lat="37.8890233" lon="13.1503067"><ele>318.0</ele><time>2026-05-05T09:43:43.565Z</time></trkpt><trkpt lat="37.8891883" lon="13.1502717"><ele>319.6666666666667</ele><time>2026-05-05T09:43:44.566Z</time></trkpt><trkpt lat="37.8893583" lon="13.150235"><ele>321.33333333333337</ele><time>2026-05-05T09:43:45.565Z</time></trkpt><trkpt lat="37.88953" lon="13.1502"><ele>323.0</ele><time>2026-05-05T09:43:46.564Z</time></trkpt><trkpt lat="37.8897067" lon="13.1501617"><ele>323.0</ele><time>2026-05-05T09:43:47.564Z</time></trkpt><trkpt lat="37.889885" lon="13.1501233"><ele>323.0</ele><time>2026-05-05T09:43:48.565Z</time></trkpt><trkpt lat="37.89007" lon="13.1500833"><ele>323.0</ele><time>2026-05-05T09:43:49.565Z</time></trkpt><trkpt lat="37.8902583" lon="13.1500483"><ele>323.6666666666667</ele><time>2026-05-05T09:43:50.564Z</time></trkpt><trkpt lat="37.8904483" lon="13.1500133"><ele>324.3333333333333</ele><time>2026-05-05T09:43:51.565Z</time></trkpt><trkpt lat="37.890635" lon="13.1499733"><ele>325.0</ele><time>2026-05-05T09:43:52.565Z</time></trkpt><trkpt lat="37.8908217" lon="13.1499333"><ele>326.0</ele><time>2026-05-05T09:43:53.565Z</time></trkpt><trkpt lat="37.89101" lon="13.1498933"><ele>327.0</ele><time>2026-05-05T09:43:54.564Z</time></trkpt><trkpt lat="37.8911967" lon="13.1498583"><ele>328.0</ele><time>2026-05-05T09:43:55.566Z</time></trkpt><trkpt lat="37.8913817" lon="13.1498233"><ele>330.3333333333333</ele><time>2026-05-05T09:43:56.567Z</time></trkpt><trkpt lat="37.8915683" lon="13.1497867"><ele>332.6666666666667</ele><time>2026-05-05T09:43:57.565Z</time></trkpt><trkpt lat="37.8917533" lon="13.1497433"><ele>335.0</ele><time>2026-05-05T09:43:58.565Z</time></trkpt><trkpt lat="37.8919417" lon="13.1496967"><ele>335.6666666666667</ele><time>2026-05-05T09:43:59.564Z</time></trkpt><trkpt lat="37.8921283" lon="13.149645"><ele>336.3333333333333</ele><time>2026-05-05T09:44:00.565Z</time></trkpt><trkpt lat="37.892315" lon="13.149585"><ele>337.0</ele><time>2026-05-05T09:44:01.566Z</time></trkpt><trkpt lat="37.8925" lon="13.1495233"><ele>338.0</ele><time>2026-05-05T09:44:02.565Z</time></trkpt><trkpt lat="37.892685" lon="13.14946"><ele>339.0</ele><time>2026-05-05T09:44:03.564Z</time></trkpt><trkpt lat="37.89287" lon="13.1493883"><ele>340.0</ele><time>2026-05-05T09:44:04.565Z</time></trkpt><trkpt lat="37.8930567" lon="13.14931"><ele>340.0</ele><time>2026-05-05T09:44:05.565Z</time></trkpt><trkpt lat="37.893245" lon="13.14923"><ele>340.0</ele><time>2026-05-05T09:44:06.564Z</time></trkpt><trkpt lat="37.8934333" lon="13.1491467"><ele>340.0</ele><time>2026-05-05T09:44:07.563Z</time></trkpt><trkpt lat="37.893625" lon="13.1490617"><ele>342.0</ele><time>2026-05-05T09:44:08.565Z</time></trkpt><trkpt lat="37.8938183" lon="13.1489733"><ele>344.0</ele><time>2026-05-05T09:44:09.564Z</time></trkpt><trkpt lat="37.8940133" lon="13.1488833"><ele>346.0</ele><time>2026-05-05T09:44:10.565Z</time></trkpt><trkpt lat="37.89421" lon="13.148795"><ele>347.3333333333333</ele><time>2026-05-05T09:44:11.564Z</time></trkpt><trkpt lat="37.89441" lon="13.148705"><ele>348.6666666666667</ele><time>2026-05-05T09:44:12.565Z</time></trkpt><trkpt lat="37.89461" lon="13.1486133"><ele>350.0</ele><time>2026-05-05T09:44:13.565Z</time></trkpt><trkpt lat="37.89481" lon="13.14852"><ele>350.0</ele><time>2026-05-05T09:44:14.566Z</time></trkpt><trkpt lat="37.8949983" lon="13.1484317"><ele>350.0</ele><time>2026-05-05T09:44:15.563Z</time></trkpt><trkpt lat="37.895175" lon="13.1483483"><ele>350.0</ele><time>2026-05-05T09:44:16.565Z</time></trkpt><trkpt lat="37.8953433" lon="13.14827"><ele>350.0</ele><time>2026-05-05T09:44:17.565Z</time></trkpt><trkpt lat="37.8955033" lon="13.1481967"><ele>350.0</ele><time>2026-05-05T09:44:18.565Z</time></trkpt><trkpt lat="37.89566" lon="13.1481267"><ele>350.0</ele><time>2026-05-05T09:44:19.566Z</time></trkpt><trkpt lat="37.8958117" lon="13.1480583"><ele>347.33333333333337</ele><time>2026-05-05T09:44:20.564Z</time></trkpt><trkpt lat="37.8959633" lon="13.147985"><ele>344.6666666666667</ele><time>2026-05-05T09:44:21.563Z</time></trkpt><trkpt lat="37.8961183" lon="13.1479083"><ele>342.0</ele><time>2026-05-05T09:44:22.564Z</time></trkpt><trkpt lat="37.8962783" lon="13.147835"><ele>342.0</ele><time>2026-05-05T09:44:23.565Z</time></trkpt><trkpt lat="37.8964433" lon="13.1477667"><ele>342.0</ele><time>2026-05-05T09:44:24.564Z</time></trkpt><trkpt lat="37.8966117" lon="13.147705"><ele>342.0</ele><time>2026-05-05T09:44:25.565Z</time></trkpt><trkpt lat="37.8967883" lon="13.147655"><ele>340.0</ele><time>2026-05-05T09:44:26.565Z</time></trkpt><trkpt lat="37.8969733" lon="13.1476133"><ele>338.0</ele><time>2026-05-05T09:44:27.565Z</time></trkpt><trkpt lat="37.8971633" lon="13.1475867"><ele>336.0</ele><time>2026-05-05T09:44:28.564Z</time></trkpt><trkpt lat="37.897355" lon="13.14757"><ele>336.0</ele><time>2026-05-05T09:44:29.565Z</time></trkpt><trkpt lat="37.8975417" lon="13.1475733"><ele>336.0</ele><time>2026-05-05T09:44:30.566Z</time></trkpt><trkpt lat="37.8977233" lon="13.1475917"><ele>336.0</ele><time>2026-05-05T09:44:31.565Z</time></trkpt><trkpt lat="37.8979083" lon="13.14762"><ele>334.0</ele><time>2026-05-05T09:44:32.565Z</time></trkpt><trkpt lat="37.8980967" lon="13.1476583"><ele>332.0</ele><time>2026-05-05T09:44:33.565Z</time></trkpt><trkpt lat="37.8982867" lon="13.147705"><ele>330.0</ele><time>2026-05-05T09:44:34.565Z</time></trkpt><trkpt lat="37.89848" lon="13.1477617"><ele>328.0</ele><time>2026-05-05T09:44:35.565Z</time></trkpt><trkpt lat="37.8986767" lon="13.147825"><ele>326.0</ele><time>2026-05-05T09:44:36.565Z</time></trkpt><trkpt lat="37.8988783" lon="13.1478917"><ele>324.0</ele><time>2026-05-05T09:44:37.564Z</time></trkpt><trkpt lat="37.89908" lon="13.1479633"><ele>321.6666666666667</ele><time>2026-05-05T09:44:38.565Z</time></trkpt><trkpt lat="37.8992883" lon="13.148035"><ele>319.33333333333337</ele><time>2026-05-05T09:44:39.565Z</time></trkpt><trkpt lat="37.8994983" lon="13.1481083"><ele>317.0</ele><time>2026-05-05T09:44:40.565Z</time></trkpt><trkpt lat="37.8997133" lon="13.1481833"><ele>316.0</ele><time>2026-05-05T09:44:41.564Z</time></trkpt><trkpt lat="37.8999317" lon="13.1482583"><ele>315.0</ele><time>2026-05-05T09:44:42.565Z</time></trkpt><trkpt lat="37.9001467" lon="13.1483317"><ele>314.0</ele><time>2026-05-05T09:44:43.564Z</time></trkpt><trkpt lat="37.9003567" lon="13.1484033"><ele>314.0</ele><time>2026-05-05T09:44:44.566Z</time></trkpt><trkpt lat="37.90056" lon="13.1484717"><ele>314.0</ele><time>2026-05-05T09:44:45.565Z</time></trkpt><trkpt lat="37.9007583" lon="13.1485283"><ele>314.0</ele><time>2026-05-05T09:44:46.565Z</time></trkpt><trkpt lat="37.9009583" lon="13.148575"><ele>311.6666666666667</ele><time>2026-05-05T09:44:47.565Z</time></trkpt><trkpt lat="37.90116" lon="13.1486133"><ele>309.3333333333333</ele><time>2026-05-05T09:44:48.565Z</time></trkpt><trkpt lat="37.9013667" lon="13.14864"><ele>307.0</ele><time>2026-05-05T09:44:49.566Z</time></trkpt><trkpt lat="37.9015767" lon="13.14865"><ele>305.3333333333333</ele><time>2026-05-05T09:44:50.566Z</time></trkpt><trkpt lat="37.9017767" lon="13.1486467"><ele>303.6666666666667</ele><time>2026-05-05T09:44:51.565Z</time></trkpt><trkpt lat="37.90197" lon="13.14863"><ele>302.0</ele><time>2026-05-05T09:44:52.565Z</time></trkpt><trkpt lat="37.9021617" lon="13.1486017"><ele>302.0</ele><time>2026-05-05T09:44:53.565Z</time></trkpt><trkpt lat="37.9023517" lon="13.1485567"><ele>302.0</ele><time>2026-05-05T09:44:54.565Z</time></trkpt><trkpt lat="37.9025417" lon="13.1485"><ele>302.0</ele><time>2026-05-05T09:44:55.566Z</time></trkpt><trkpt lat="37.9027333" lon="13.1484283"><ele>300.6666666666667</ele><time>2026-05-05T09:44:56.566Z</time></trkpt><trkpt lat="37.902925" lon="13.1483433"><ele>299.3333333333333</ele><time>2026-05-05T09:44:57.563Z</time></trkpt><trkpt lat="37.9031183" lon="13.1482467"><ele>298.0</ele><time>2026-05-05T09:44:58.565Z</time></trkpt><trkpt lat="37.9033133" lon="13.1481383"><ele>294.3333333333333</ele><time>2026-05-05T09:44:59.566Z</time></trkpt><trkpt lat="37.9035083" lon="13.1480167"><ele>290.6666666666667</ele><time>2026-05-05T09:45:00.564Z</time></trkpt><trkpt lat="37.9037033" lon="13.147885"><ele>287.0</ele><time>2026-05-05T09:45:01.564Z</time></trkpt><trkpt lat="37.9038967" lon="13.1477417"><ele>287.0</ele><time>2026-05-05T09:45:02.566Z</time></trkpt><trkpt lat="37.904085" lon="13.1475967"><ele>287.0</ele><time>2026-05-05T09:45:03.566Z</time></trkpt><trkpt lat="37.9042667" lon="13.147455"><ele>287.0</ele><time>2026-05-05T09:45:04.565Z</time></trkpt><trkpt lat="37.90444" lon="13.147315"><ele>287.0</ele><time>2026-05-05T09:45:05.567Z</time></trkpt><trkpt lat="37.9046133" lon="13.1471783"><ele>287.0</ele><time>2026-05-05T09:45:06.565Z</time></trkpt><trkpt lat="37.9047867" lon="13.1470417"><ele>287.0</ele><time>2026-05-05T09:45:07.565Z</time></trkpt><trkpt lat="37.90496" lon="13.1469033"><ele>285.6666666666667</ele><time>2026-05-05T09:45:08.565Z</time></trkpt><trkpt lat="37.905135" lon="13.146765"><ele>284.3333333333333</ele><time>2026-05-05T09:45:09.564Z</time></trkpt><trkpt lat="37.9053117" lon="13.1466217"><ele>283.0</ele><time>2026-05-05T09:45:10.564Z</time></trkpt><trkpt lat="37.90549" lon="13.1464767"><ele>283.0</ele><time>2026-05-05T09:45:11.564Z</time></trkpt><trkpt lat="37.9056717" lon="13.14633"><ele>283.0</ele><time>2026-05-05T09:45:12.565Z</time></trkpt><trkpt lat="37.905855" lon="13.146185"><ele>283.0</ele><time>2026-05-05T09:45:13.564Z</time></trkpt><trkpt lat="37.9060417" lon="13.1460367"><ele>283.3333333333333</ele><time>2026-05-05T09:45:14.566Z</time></trkpt><trkpt lat="37.9062267" lon="13.1458833"><ele>283.6666666666667</ele><time>2026-05-05T09:45:15.565Z</time></trkpt><trkpt lat="37.9064067" lon="13.1457283"><ele>284.0</ele><time>2026-05-05T09:45:16.564Z</time></trkpt><trkpt lat="37.9065867" lon="13.1455767"><ele>282.0</ele><time>2026-05-05T09:45:17.564Z</time></trkpt><trkpt lat="37.9067667" lon="13.14543"><ele>280.0</ele><time>2026-05-05T09:45:18.564Z</time></trkpt><trkpt lat="37.9069517" lon="13.14529"><ele>278.0</ele><time>2026-05-05T09:45:19.565Z</time></trkpt><trkpt lat="37.9071367" lon="13.1451467"><ele>278.0</ele><time>2026-05-05T09:45:20.566Z</time></trkpt><trkpt lat="37.90732" lon="13.145"><ele>278.0</ele><time>2026-05-05T09:45:21.565Z</time></trkpt><trkpt lat="37.9075067" lon="13.1448533"><ele>278.0</ele><time>2026-05-05T09:45:22.565Z</time></trkpt><trkpt lat="37.9076917" lon="13.1447033"><ele>278.33333333333337</ele><time>2026-05-05T09:45:23.564Z</time></trkpt><trkpt lat="37.9078783" lon="13.1445517"><ele>278.6666666666667</ele><time>2026-05-05T09:45:24.565Z</time></trkpt><trkpt lat="37.9080683" lon="13.1444033"><ele>279.0</ele><time>2026-05-05T09:45:25.564Z</time></trkpt><trkpt lat="37.90826" lon="13.1442533"><ele>278.3333333333333</ele><time>2026-05-05T09:45:26.565Z</time></trkpt><trkpt lat="37.9084483" lon="13.1441117"><ele>277.66666666666663</ele><time>2026-05-05T09:45:27.565Z</time></trkpt><trkpt lat="37.90863" lon="13.1439833"><ele>277.0</ele><time>2026-05-05T09:45:28.565Z</time></trkpt><trkpt lat="37.9088067" lon="13.14387"><ele>277.0</ele><time>2026-05-05T09:45:29.564Z</time></trkpt><trkpt lat="37.908985" lon="13.14377"><ele>277.0</ele><time>2026-05-05T09:45:30.565Z</time></trkpt><trkpt lat="37.9091683" lon="13.14368"><ele>277.0</ele><time>2026-05-05T09:45:31.565Z</time></trkpt><trkpt lat="37.909355" lon="13.143605"><ele>273.3333333333333</ele><time>2026-05-05T09:45:32.566Z</time></trkpt><trkpt lat="37.9095467" lon="13.1435433"><ele>269.6666666666667</ele><time>2026-05-05T09:45:33.565Z</time></trkpt><trkpt lat="37.9097433" lon="13.1434967"><ele>266.0</ele><time>2026-05-05T09:45:34.564Z</time></trkpt><trkpt lat="37.909945" lon="13.14348"><ele>265.0</ele><time>2026-05-05T09:45:35.566Z</time></trkpt><trkpt lat="37.9101483" lon="13.1434817"><ele>264.0</ele><time>2026-05-05T09:45:36.564Z</time></trkpt><trkpt lat="37.9103583" lon="13.1434983"><ele>263.0</ele><time>2026-05-05T09:45:37.566Z</time></trkpt><trkpt lat="37.9105683" lon="13.143525"><ele>263.0</ele><time>2026-05-05T09:45:38.565Z</time></trkpt><trkpt lat="37.91078" lon="13.143565"><ele>263.0</ele><time>2026-05-05T09:45:39.565Z</time></trkpt><trkpt lat="37.9109933" lon="13.1436167"><ele>263.0</ele><time>2026-05-05T09:45:40.566Z</time></trkpt><trkpt lat="37.9112067" lon="13.1436733"><ele>264.33333333333337</ele><time>2026-05-05T09:45:41.565Z</time></trkpt><trkpt lat="37.9114217" lon="13.143735"><ele>265.6666666666667</ele><time>2026-05-05T09:45:42.565Z</time></trkpt><trkpt lat="37.9116367" lon="13.1438"><ele>267.0</ele><time>2026-05-05T09:45:43.565Z</time></trkpt><trkpt lat="37.9118517" lon="13.14387"><ele>268.0</ele><time>2026-05-05T09:45:44.566Z</time></trkpt><trkpt lat="37.912065" lon="13.14394"><ele>269.0</ele><time>2026-05-05T09:45:45.564Z</time></trkpt><trkpt lat="37.9122767" lon="13.1440067"><ele>270.0</ele><time>2026-05-05T09:45:46.566Z</time></trkpt><trkpt lat="37.912485" lon="13.1440733"><ele>272.3333333333333</ele><time>2026-05-05T09:45:47.566Z</time></trkpt><trkpt lat="37.9126917" lon="13.1441383"><ele>274.66666666666663</ele><time>2026-05-05T09:45:48.564Z</time></trkpt><trkpt lat="37.9128933" lon="13.1442067"><ele>277.0</ele><time>2026-05-05T09:45:49.565Z</time></trkpt><trkpt lat="37.9130933" lon="13.14427"><ele>277.0</ele><time>2026-05-05T09:45:50.566Z</time></trkpt><trkpt lat="37.91329" lon="13.144335"><ele>277.0</ele><time>2026-05-05T09:45:51.565Z</time></trkpt><trkpt lat="37.9134833" lon="13.1444"><ele>277.0</ele><time>2026-05-05T09:45:52.566Z</time></trkpt><trkpt lat="37.9136733" lon="13.1444633"><ele>279.0</ele><time>2026-05-05T09:45:53.564Z</time></trkpt><trkpt lat="37.913865" lon="13.1445267"><ele>281.0</ele><time>2026-05-05T09:45:54.566Z</time></trkpt><trkpt lat="37.914055" lon="13.14459"><ele>283.0</ele><time>2026-05-05T09:45:55.564Z</time></trkpt><trkpt lat="37.9142433" lon="13.144655"><ele>284.0</ele><time>2026-05-05T09:45:56.565Z</time></trkpt><trkpt lat="37.9144317" lon="13.1447183"><ele>285.0</ele><time>2026-05-05T09:45:57.564Z</time></trkpt><trkpt lat="37.9146183" lon="13.1447867"><ele>286.0</ele><time>2026-05-05T09:45:58.565Z</time></trkpt><trkpt lat="37.9148" lon="13.1448533"><ele>287.0</ele><time>2026-05-05T09:45:59.564Z</time></trkpt><trkpt lat="37.9149817" lon="13.1449233"><ele>288.0</ele><time>2026-05-05T09:46:00.566Z</time></trkpt><trkpt lat="37.91516" lon="13.1450067"><ele>289.0</ele><time>2026-05-05T09:46:01.565Z</time></trkpt><trkpt lat="37.91534" lon="13.1450967"><ele>292.0</ele><time>2026-05-05T09:46:02.566Z</time></trkpt><trkpt lat="37.915515" lon="13.1451917"><ele>295.0</ele><time>2026-05-05T09:46:03.565Z</time></trkpt><trkpt lat="37.9156883" lon="13.145295"><ele>298.0</ele><time>2026-05-05T09:46:04.563Z</time></trkpt><trkpt lat="37.9158583" lon="13.1454083"><ele>299.66666666666663</ele><time>2026-05-05T09:46:05.565Z</time></trkpt><trkpt lat="37.9160233" lon="13.1455367"><ele>301.3333333333333</ele><time>2026-05-05T09:46:06.565Z</time></trkpt><trkpt lat="37.9161783" lon="13.1456783"><ele>303.0</ele><time>2026-05-05T09:46:07.565Z</time></trkpt><trkpt lat="37.9163283" lon="13.1458317"><ele>303.0</ele><time>2026-05-05T09:46:08.565Z</time></trkpt><trkpt lat="37.9164683" lon="13.145995"><ele>303.0</ele><time>2026-05-05T09:46:09.565Z</time></trkpt><trkpt lat="37.9166" lon="13.1461667"><ele>303.0</ele><time>2026-05-05T09:46:10.564Z</time></trkpt><trkpt lat="37.916725" lon="13.1463467"><ele>306.3333333333333</ele><time>2026-05-05T09:46:11.564Z</time></trkpt><trkpt lat="37.9168417" lon="13.1465383"><ele>309.66666666666663</ele><time>2026-05-05T09:46:12.563Z</time></trkpt><trkpt lat="37.91695" lon="13.1467367"><ele>313.0</ele><time>2026-05-05T09:46:13.566Z</time></trkpt><trkpt lat="37.9170533" lon="13.1469367"><ele>313.0</ele><time>2026-05-05T09:46:14.565Z</time></trkpt><trkpt lat="37.9171567" lon="13.14714"><ele>313.0</ele><time>2026-05-05T09:46:15.564Z</time></trkpt><trkpt lat="37.917255" lon="13.14735"><ele>313.0</ele><time>2026-05-05T09:46:16.566Z</time></trkpt><trkpt lat="37.91735" lon="13.14756"><ele>313.3333333333333</ele><time>2026-05-05T09:46:17.567Z</time></trkpt><trkpt lat="37.91744" lon="13.147775"><ele>313.6666666666667</ele><time>2026-05-05T09:46:18.565Z</time></trkpt><trkpt lat="37.91753" lon="13.1479917"><ele>314.0</ele><time>2026-05-05T09:46:19.566Z</time></trkpt><trkpt lat="37.91762" lon="13.14821"><ele>321.33333333333337</ele><time>2026-05-05T09:46:20.566Z</time></trkpt><trkpt lat="37.91771" lon="13.1484283"><ele>328.6666666666667</ele><time>2026-05-05T09:46:21.566Z</time></trkpt><trkpt lat="37.9178017" lon="13.1486483"><ele>336.0</ele><time>2026-05-05T09:46:22.565Z</time></trkpt><trkpt lat="37.9178933" lon="13.1488667"><ele>333.3333333333333</ele><time>2026-05-05T09:46:23.565Z</time></trkpt><trkpt lat="37.917985" lon="13.1490867"><ele>330.66666666666663</ele><time>2026-05-05T09:46:24.565Z</time></trkpt><trkpt lat="37.9180783" lon="13.14931"><ele>328.0</ele><time>2026-05-05T09:46:25.564Z</time></trkpt><trkpt lat="37.9181733" lon="13.1495333"><ele>328.0</ele><time>2026-05-05T09:46:26.566Z</time></trkpt><trkpt lat="37.9182717" lon="13.149755"><ele>328.0</ele><time>2026-05-05T09:46:27.566Z</time></trkpt><trkpt lat="37.9183733" lon="13.1499783"><ele>328.0</ele><time>2026-05-05T09:46:28.564Z</time></trkpt><trkpt lat="37.91848" lon="13.1502"><ele>329.0</ele><time>2026-05-05T09:46:29.566Z</time></trkpt><trkpt lat="37.918595" lon="13.1504167"><ele>330.0</ele><time>2026-05-05T09:46:30.566Z</time></trkpt><trkpt lat="37.9187133" lon="13.1506317"><ele>331.0</ele><time>2026-05-05T09:46:31.565Z</time></trkpt><trkpt lat="37.9188383" lon="13.1508483"><ele>328.0</ele><time>2026-05-05T09:46:32.564Z</time></trkpt><trkpt lat="37.91896" lon="13.1510617"><ele>325.0</ele><time>2026-05-05T09:46:33.565Z</time></trkpt><trkpt lat="37.919085" lon="13.151275"><ele>322.0</ele><time>2026-05-05T09:46:34.566Z</time></trkpt><trkpt lat="37.919215" lon="13.1514867"><ele>319.66666666666663</ele><time>2026-05-05T09:46:35.564Z</time></trkpt><trkpt lat="37.9193467" lon="13.1516983"><ele>317.3333333333333</ele><time>2026-05-05T09:46:36.566Z</time></trkpt><trkpt lat="37.9194817" lon="13.15191"><ele>315.0</ele><time>2026-05-05T09:46:37.565Z</time></trkpt><trkpt lat="37.9196133" lon="13.1521217"><ele>315.0</ele><time>2026-05-05T09:46:38.565Z</time></trkpt><trkpt lat="37.9197467" lon="13.1523333"><ele>315.0</ele><time>2026-05-05T09:46:39.564Z</time></trkpt><trkpt lat="37.9198817" lon="13.1525467"><ele>315.0</ele><time>2026-05-05T09:46:40.564Z</time></trkpt><trkpt lat="37.9200133" lon="13.1527567"><ele>315.3333333333333</ele><time>2026-05-05T09:46:41.565Z</time></trkpt><trkpt lat="37.92014" lon="13.1529567"><ele>315.66666666666663</ele><time>2026-05-05T09:46:42.565Z</time></trkpt><trkpt lat="37.9202583" lon="13.1531467"><ele>316.0</ele><time>2026-05-05T09:46:43.566Z</time></trkpt><trkpt lat="37.9203733" lon="13.1533317"><ele>316.0</ele><time>2026-05-05T09:46:44.565Z</time></trkpt><trkpt lat="37.9204883" lon="13.1535133"><ele>316.0</ele><time>2026-05-05T09:46:45.565Z</time></trkpt><trkpt lat="37.9206067" lon="13.1536967"><ele>316.0</ele><time>2026-05-05T09:46:46.565Z</time></trkpt><trkpt lat="37.920725" lon="13.1538833"><ele>313.3333333333333</ele><time>2026-05-05T09:46:47.566Z</time></trkpt><trkpt lat="37.9208433" lon="13.1540717"><ele>310.6666666666667</ele><time>2026-05-05T09:46:48.564Z</time></trkpt><trkpt lat="37.9209633" lon="13.1542633"><ele>308.0</ele><time>2026-05-05T09:46:49.566Z</time></trkpt><trkpt lat="37.9210867" lon="13.154455"><ele>308.0</ele><time>2026-05-05T09:46:50.567Z</time></trkpt><trkpt lat="37.9212133" lon="13.1546517"><ele>308.0</ele><time>2026-05-05T09:46:51.565Z</time></trkpt><trkpt lat="37.92134" lon="13.15485"><ele>308.0</ele><time>2026-05-05T09:46:52.566Z</time></trkpt><trkpt lat="37.92147" lon="13.15505"><ele>309.0</ele><time>2026-05-05T09:46:53.565Z</time></trkpt><trkpt lat="37.9216" lon="13.1552533"><ele>310.0</ele><time>2026-05-05T09:46:54.565Z</time></trkpt><trkpt lat="37.92173" lon="13.1554617"><ele>311.0</ele><time>2026-05-05T09:46:55.564Z</time></trkpt><trkpt lat="37.9218617" lon="13.1556733"><ele>308.33333333333337</ele><time>2026-05-05T09:46:56.566Z</time></trkpt><trkpt lat="37.9219983" lon="13.1558867"><ele>305.6666666666667</ele><time>2026-05-05T09:46:57.564Z</time></trkpt><trkpt lat="37.922135" lon="13.1561"><ele>303.0</ele><time>2026-05-05T09:46:58.564Z</time></trkpt><trkpt lat="37.9222717" lon="13.156315"><ele>303.0</ele><time>2026-05-05T09:46:59.564Z</time></trkpt><trkpt lat="37.92241" lon="13.1565317"><ele>303.0</ele><time>2026-05-05T09:47:00.565Z</time></trkpt><trkpt lat="37.92255" lon="13.1567483"><ele>303.0</ele><time>2026-05-05T09:47:01.567Z</time></trkpt><trkpt lat="37.9226867" lon="13.1569633"><ele>302.3333333333333</ele><time>2026-05-05T09:47:02.566Z</time></trkpt><trkpt lat="37.9228233" lon="13.157175"><ele>301.66666666666663</ele><time>2026-05-05T09:47:03.565Z</time></trkpt><trkpt lat="37.9229567" lon="13.1573833"><ele>301.0</ele><time>2026-05-05T09:47:04.565Z</time></trkpt><trkpt lat="37.9230883" lon="13.1575883"><ele>301.0</ele><time>2026-05-05T09:47:05.565Z</time></trkpt><trkpt lat="37.9232183" lon="13.1577933"><ele>301.0</ele><time>2026-05-05T09:47:06.565Z</time></trkpt><trkpt lat="37.9233483" lon="13.1579983"><ele>301.0</ele><time>2026-05-05T09:47:07.563Z</time></trkpt><trkpt lat="37.9234783" lon="13.1582067"><ele>298.3333333333333</ele><time>2026-05-05T09:47:08.566Z</time></trkpt><trkpt lat="37.92361" lon="13.158415"><ele>295.6666666666667</ele><time>2026-05-05T09:47:09.565Z</time></trkpt><trkpt lat="37.923745" lon="13.1586267"><ele>293.0</ele><time>2026-05-05T09:47:10.565Z</time></trkpt><trkpt lat="37.9238833" lon="13.1588367"><ele>294.33333333333337</ele><time>2026-05-05T09:47:11.563Z</time></trkpt><trkpt lat="37.9240233" lon="13.15905"><ele>295.6666666666667</ele><time>2026-05-05T09:47:12.565Z</time></trkpt><trkpt lat="37.9241667" lon="13.1592617"><ele>297.0</ele><time>2026-05-05T09:47:13.564Z</time></trkpt><trkpt lat="37.924315" lon="13.1594733"><ele>292.5</ele><time>2026-05-05T09:47:14.565Z</time></trkpt><trkpt lat="37.9244683" lon="13.1596817"><ele>288.0</ele><time>2026-05-05T09:47:15.564Z</time></trkpt><trkpt lat="37.9246267" lon="13.1598867"><ele>285.5</ele><time>2026-05-05T09:47:16.565Z</time></trkpt><trkpt lat="37.9247917" lon="13.1600867"><ele>283.0</ele><time>2026-05-05T09:47:17.566Z</time></trkpt><trkpt lat="37.9249617" lon="13.16028"><ele>278.0</ele><time>2026-05-05T09:47:18.564Z</time></trkpt><trkpt lat="37.9251367" lon="13.1604683"><ele>273.0</ele><time>2026-05-05T09:47:19.565Z</time></trkpt><trkpt lat="37.925315" lon="13.1606517"><ele>276.5</ele><time>2026-05-05T09:47:20.567Z</time></trkpt><trkpt lat="37.9255" lon="13.1608283"><ele>280.0</ele><time>2026-05-05T09:47:21.564Z</time></trkpt><trkpt lat="37.9256883" lon="13.160995"><ele>280.0</ele><time>2026-05-05T09:47:22.566Z</time></trkpt><trkpt lat="37.9258817" lon="13.1611533"><ele>280.0</ele><time>2026-05-05T09:47:23.566Z</time></trkpt><trkpt lat="37.9260767" lon="13.1613083"><ele>281.0</ele><time>2026-05-05T09:47:24.565Z</time></trkpt><trkpt lat="37.926275" lon="13.161455"><ele>282.0</ele><time>2026-05-05T09:47:25.565Z</time></trkpt><trkpt lat="37.9264767" lon="13.161595"><ele>283.5</ele><time>2026-05-05T09:47:26.567Z</time></trkpt><trkpt lat="37.9266817" lon="13.1617283"><ele>285.0</ele><time>2026-05-05T09:47:27.566Z</time></trkpt><trkpt lat="37.9268883" lon="13.1618517"><ele>281.0</ele><time>2026-05-05T09:47:28.565Z</time></trkpt><trkpt lat="37.9271" lon="13.161965"><ele>277.0</ele><time>2026-05-05T09:47:29.566Z</time></trkpt><trkpt lat="37.9273167" lon="13.1620667"><ele>277.0</ele><time>2026-05-05T09:47:30.565Z</time></trkpt><trkpt lat="37.9275367" lon="13.16216"><ele>277.0</ele><time>2026-05-05T09:47:31.565Z</time></trkpt><trkpt lat="37.92776" lon="13.1622467"><ele>276.0</ele><time>2026-05-05T09:47:32.567Z</time></trkpt><trkpt lat="37.9279833" lon="13.1623217"><ele>275.0</ele><time>2026-05-05T09:47:33.565Z</time></trkpt><trkpt lat="37.9282083" lon="13.1623883"><ele>272.5</ele><time>2026-05-05T09:47:34.565Z</time></trkpt><trkpt lat="37.92844" lon="13.162445"><ele>270.0</ele><time>2026-05-05T09:47:35.566Z</time></trkpt><trkpt lat="37.9286717" lon="13.1624917"><ele>270.0</ele><time>2026-05-05T09:47:36.565Z</time></trkpt><trkpt lat="37.9289" lon="13.1625333"><ele>270.0</ele><time>2026-05-05T09:47:37.57Z</time></trkpt><trkpt lat="37.92913" lon="13.162565"><ele>267.5</ele><time>2026-05-05T09:47:38.566Z</time></trkpt><trkpt lat="37.9293583" lon="13.1625933"><ele>265.0</ele><time>2026-05-05T09:47:39.568Z</time></trkpt><trkpt lat="37.9295883" lon="13.1626117"><ele>265.0</ele><time>2026-05-05T09:47:40.565Z</time></trkpt><trkpt lat="37.929815" lon="13.162625"><ele>265.0</ele><time>2026-05-05T09:47:41.565Z</time></trkpt><trkpt lat="37.9300433" lon="13.162635"><ele>265.5</ele><time>2026-05-05T09:47:42.564Z</time></trkpt><trkpt lat="37.93027" lon="13.1626433"><ele>266.0</ele><time>2026-05-05T09:47:43.565Z</time></trkpt><trkpt lat="37.9304967" lon="13.162655"><ele>266.0</ele><time>2026-05-05T09:47:44.565Z</time></trkpt><trkpt lat="37.9307217" lon="13.1626667"><ele>266.0</ele><time>2026-05-05T09:47:45.568Z</time></trkpt><trkpt lat="37.9309467" lon="13.1626767"><ele>267.33333333333337</ele><time>2026-05-05T09:47:46.566Z</time></trkpt><trkpt lat="37.93117" lon="13.1626883"><ele>268.6666666666667</ele><time>2026-05-05T09:47:47.568Z</time></trkpt><trkpt lat="37.9313883" lon="13.162695"><ele>270.0</ele><time>2026-05-05T09:47:48.565Z</time></trkpt><trkpt lat="37.9316033" lon="13.162705"><ele>270.0</ele><time>2026-05-05T09:47:49.565Z</time></trkpt><trkpt lat="37.9318083" lon="13.1627117"><ele>270.0</ele><time>2026-05-05T09:47:50.565Z</time></trkpt><trkpt lat="37.932005" lon="13.16272"><ele>270.0</ele><time>2026-05-05T09:47:51.564Z</time></trkpt><trkpt lat="37.9321917" lon="13.1627267"><ele>270.0</ele><time>2026-05-05T09:47:52.566Z</time></trkpt><trkpt lat="37.93237" lon="13.162735"><ele>270.0</ele><time>2026-05-05T09:47:53.567Z</time></trkpt><trkpt lat="37.932545" lon="13.1627383"><ele>270.0</ele><time>2026-05-05T09:47:54.566Z</time></trkpt><trkpt lat="37.93272" lon="13.1627433"><ele>270.3333333333333</ele><time>2026-05-05T09:47:55.565Z</time></trkpt><trkpt lat="37.9328983" lon="13.162745"><ele>270.66666666666663</ele><time>2026-05-05T09:47:56.565Z</time></trkpt><trkpt lat="37.93308" lon="13.16275"><ele>271.0</ele><time>2026-05-05T09:47:57.566Z</time></trkpt><trkpt lat="37.9332633" lon="13.1627533"><ele>271.66666666666663</ele><time>2026-05-05T09:47:58.565Z</time></trkpt><trkpt lat="37.9334483" lon="13.1627567"><ele>272.3333333333333</ele><time>2026-05-05T09:47:59.565Z</time></trkpt><trkpt lat="37.933635" lon="13.16276"><ele>273.0</ele><time>2026-05-05T09:48:00.566Z</time></trkpt><trkpt lat="37.9338233" lon="13.162765"><ele>273.0</ele><time>2026-05-05T09:48:01.565Z</time></trkpt><trkpt lat="37.9340133" lon="13.16277"><ele>273.0</ele><time>2026-05-05T09:48:02.566Z</time></trkpt><trkpt lat="37.934205" lon="13.1627767"><ele>273.0</ele><time>2026-05-05T09:48:03.565Z</time></trkpt><trkpt lat="37.9343967" lon="13.1627817"><ele>273.6666666666667</ele><time>2026-05-05T09:48:04.565Z</time></trkpt><trkpt lat="37.9345917" lon="13.1627883"><ele>274.33333333333337</ele><time>2026-05-05T09:48:05.566Z</time></trkpt><trkpt lat="37.9347883" lon="13.162795"><ele>275.0</ele><time>2026-05-05T09:48:06.566Z</time></trkpt><trkpt lat="37.9349867" lon="13.1628"><ele>276.0</ele><time>2026-05-05T09:48:07.566Z</time></trkpt><trkpt lat="37.9351883" lon="13.1628067"><ele>277.0</ele><time>2026-05-05T09:48:08.566Z</time></trkpt><trkpt lat="37.9353917" lon="13.1628133"><ele>278.0</ele><time>2026-05-05T09:48:09.564Z</time></trkpt><trkpt lat="37.9355967" lon="13.16282"><ele>278.0</ele><time>2026-05-05T09:48:10.565Z</time></trkpt><trkpt lat="37.9358017" lon="13.162825"><ele>278.0</ele><time>2026-05-05T09:48:11.567Z</time></trkpt><trkpt lat="37.9360083" lon="13.16283"><ele>278.0</ele><time>2026-05-05T09:48:12.564Z</time></trkpt><trkpt lat="37.9362167" lon="13.162835"><ele>278.33333333333337</ele><time>2026-05-05T09:48:13.566Z</time></trkpt><trkpt lat="37.936425" lon="13.16284"><ele>278.6666666666667</ele><time>2026-05-05T09:48:14.566Z</time></trkpt><trkpt lat="37.936635" lon="13.162845"><ele>279.0</ele><time>2026-05-05T09:48:15.565Z</time></trkpt><trkpt lat="37.936845" lon="13.16285"><ele>279.3333333333333</ele><time>2026-05-05T09:48:16.564Z</time></trkpt><trkpt lat="37.937055" lon="13.1628567"><ele>279.66666666666663</ele><time>2026-05-05T09:48:17.566Z</time></trkpt><trkpt lat="37.9372667" lon="13.1628633"><ele>280.0</ele><time>2026-05-05T09:48:18.567Z</time></trkpt><trkpt lat="37.9374767" lon="13.1628683"><ele>280.66666666666663</ele><time>2026-05-05T09:48:19.566Z</time></trkpt><trkpt lat="37.9376883" lon="13.1628733"><ele>281.3333333333333</ele><time>2026-05-05T09:48:20.568Z</time></trkpt><trkpt lat="37.9379017" lon="13.1628783"><ele>282.0</ele><time>2026-05-05T09:48:21.566Z</time></trkpt><trkpt lat="37.9381167" lon="13.1628817"><ele>282.0</ele><time>2026-05-05T09:48:22.567Z</time></trkpt><trkpt lat="37.9383317" lon="13.1628883"><ele>282.0</ele><time>2026-05-05T09:48:23.566Z</time></trkpt><trkpt lat="37.9385467" lon="13.16289"><ele>282.0</ele><time>2026-05-05T09:48:24.565Z</time></trkpt><trkpt lat="37.9387633" lon="13.162895"><ele>283.6666666666667</ele><time>2026-05-05T09:48:25.566Z</time></trkpt><trkpt lat="37.9389833" lon="13.1629"><ele>285.33333333333337</ele><time>2026-05-05T09:48:26.566Z</time></trkpt><trkpt lat="37.9392" lon="13.162905"><ele>287.0</ele><time>2026-05-05T09:48:27.564Z</time></trkpt><trkpt lat="37.93942" lon="13.1629133"><ele>288.6666666666667</ele><time>2026-05-05T09:48:28.565Z</time></trkpt><trkpt lat="37.9396383" lon="13.16292"><ele>290.3333333333333</ele><time>2026-05-05T09:48:29.564Z</time></trkpt><trkpt lat="37.9398567" lon="13.1629267"><ele>292.0</ele><time>2026-05-05T09:48:30.564Z</time></trkpt><trkpt lat="37.9400733" lon="13.1629317"><ele>295.0</ele><time>2026-05-05T09:48:31.565Z</time></trkpt><trkpt lat="37.9402933" lon="13.16294"><ele>298.0</ele><time>2026-05-05T09:48:32.568Z</time></trkpt><trkpt lat="37.94051" lon="13.1629433"><ele>301.0</ele><time>2026-05-05T09:48:33.564Z</time></trkpt><trkpt lat="37.9407283" lon="13.1629483"><ele>302.3333333333333</ele><time>2026-05-05T09:48:34.566Z</time></trkpt><trkpt lat="37.940945" lon="13.162955"><ele>303.6666666666667</ele><time>2026-05-05T09:48:35.565Z</time></trkpt><trkpt lat="37.94116" lon="13.1629617"><ele>305.0</ele><time>2026-05-05T09:48:36.565Z</time></trkpt><trkpt lat="37.9413733" lon="13.16297"><ele>305.0</ele><time>2026-05-05T09:48:37.565Z</time></trkpt><trkpt lat="37.9415867" lon="13.162985"><ele>305.0</ele><time>2026-05-05T09:48:38.567Z</time></trkpt><trkpt lat="37.9418033" lon="13.1630067"><ele>305.0</ele><time>2026-05-05T09:48:39.565Z</time></trkpt><trkpt lat="37.942015" lon="13.163035"><ele>305.0</ele><time>2026-05-05T09:48:40.564Z</time></trkpt><trkpt lat="37.9422283" lon="13.16307"><ele>305.0</ele><time>2026-05-05T09:48:41.563Z</time></trkpt><trkpt lat="37.9424383" lon="13.1631117"><ele>305.0</ele><time>2026-05-05T09:48:42.565Z</time></trkpt><trkpt lat="37.942645" lon="13.1631633"><ele>302.0</ele><time>2026-05-05T09:48:43.566Z</time></trkpt><trkpt lat="37.9428533" lon="13.1632217"><ele>299.0</ele><time>2026-05-05T09:48:44.566Z</time></trkpt><trkpt lat="37.9430583" lon="13.16329"><ele>296.0</ele><time>2026-05-05T09:48:45.564Z</time></trkpt><trkpt lat="37.94326" lon="13.1633717"><ele>299.0</ele><time>2026-05-05T09:48:46.565Z</time></trkpt><trkpt lat="37.9434583" lon="13.1634667"><ele>302.0</ele><time>2026-05-05T09:48:47.566Z</time></trkpt><trkpt lat="37.943655" lon="13.16357"><ele>305.0</ele><time>2026-05-05T09:48:48.565Z</time></trkpt><trkpt lat="37.9438483" lon="13.1636817"><ele>305.0</ele><time>2026-05-05T09:48:49.565Z</time></trkpt><trkpt lat="37.9440367" lon="13.1638033"><ele>305.0</ele><time>2026-05-05T09:48:50.566Z</time></trkpt><trkpt lat="37.9442217" lon="13.1639333"><ele>305.0</ele><time>2026-05-05T09:48:51.565Z</time></trkpt><trkpt lat="37.9444033" lon="13.16407"><ele>304.0</ele><time>2026-05-05T09:48:52.566Z</time></trkpt><trkpt lat="37.944585" lon="13.16421"><ele>303.0</ele><time>2026-05-05T09:48:53.564Z</time></trkpt><trkpt lat="37.9447633" lon="13.1643517"><ele>302.0</ele><time>2026-05-05T09:48:54.566Z</time></trkpt><trkpt lat="37.9449417" lon="13.1644967"><ele>303.0</ele><time>2026-05-05T09:48:55.566Z</time></trkpt><trkpt lat="37.9451167" lon="13.164645"><ele>304.0</ele><time>2026-05-05T09:48:56.564Z</time></trkpt><trkpt lat="37.9452883" lon="13.1647967"><ele>305.0</ele><time>2026-05-05T09:48:57.565Z</time></trkpt><trkpt lat="37.9454617" lon="13.16495"><ele>307.33333333333337</ele><time>2026-05-05T09:48:58.565Z</time></trkpt><trkpt lat="37.9456367" lon="13.1651"><ele>309.6666666666667</ele><time>2026-05-05T09:48:59.566Z</time></trkpt><trkpt lat="37.9458083" lon="13.1652517"><ele>312.0</ele><time>2026-05-05T09:49:00.564Z</time></trkpt><trkpt lat="37.94598" lon="13.1654017"><ele>315.0</ele><time>2026-05-05T09:49:01.565Z</time></trkpt><trkpt lat="37.94615" lon="13.1655517"><ele>318.0</ele><time>2026-05-05T09:49:02.566Z</time></trkpt><trkpt lat="37.9463217" lon="13.1656983"><ele>321.0</ele><time>2026-05-05T09:49:03.566Z</time></trkpt><trkpt lat="37.946495" lon="13.16584"><ele>322.0</ele><time>2026-05-05T09:49:04.566Z</time></trkpt><trkpt lat="37.9466717" lon="13.1659733"><ele>323.0</ele><time>2026-05-05T09:49:05.566Z</time></trkpt><trkpt lat="37.9468533" lon="13.1660983"><ele>324.0</ele><time>2026-05-05T09:49:06.565Z</time></trkpt><trkpt lat="37.9470383" lon="13.1662117"><ele>326.6666666666667</ele><time>2026-05-05T09:49:07.566Z</time></trkpt><trkpt lat="37.9472283" lon="13.1663117"><ele>329.33333333333337</ele><time>2026-05-05T09:49:08.565Z</time></trkpt><trkpt lat="37.9474233" lon="13.1663967"><ele>332.0</ele><time>2026-05-05T09:49:09.564Z</time></trkpt><trkpt lat="37.9476233" lon="13.1664617"><ele>333.6666666666667</ele><time>2026-05-05T09:49:10.564Z</time></trkpt><trkpt lat="37.9478283" lon="13.1665083"><ele>335.3333333333333</ele><time>2026-05-05T09:49:11.566Z</time></trkpt><trkpt lat="37.948035" lon="13.16654"><ele>337.0</ele><time>2026-05-05T09:49:12.565Z</time></trkpt><trkpt lat="37.9482417" lon="13.1665567"><ele>337.66666666666663</ele><time>2026-05-05T09:49:13.565Z</time></trkpt><trkpt lat="37.94845" lon="13.166555"><ele>338.3333333333333</ele><time>2026-05-05T09:49:14.567Z</time></trkpt><trkpt lat="37.9486617" lon="13.1665367"><ele>339.0</ele><time>2026-05-05T09:49:15.566Z</time></trkpt><trkpt lat="37.9488717" lon="13.1665083"><ele>339.0</ele><time>2026-05-05T09:49:16.566Z</time></trkpt><trkpt lat="37.9490783" lon="13.1664733"><ele>339.0</ele><time>2026-05-05T09:49:17.565Z</time></trkpt><trkpt lat="37.9492883" lon="13.1664233"><ele>339.0</ele><time>2026-05-05T09:49:18.566Z</time></trkpt><trkpt lat="37.9494967" lon="13.1663683"><ele>339.6666666666667</ele><time>2026-05-05T09:49:19.567Z</time></trkpt><trkpt lat="37.949705" lon="13.16631"><ele>340.33333333333337</ele><time>2026-05-05T09:49:20.564Z</time></trkpt><trkpt lat="37.9499167" lon="13.16625"><ele>341.0</ele><time>2026-05-05T09:49:21.564Z</time></trkpt><trkpt lat="37.95013" lon="13.166195"><ele>341.33333333333337</ele><time>2026-05-05T09:49:22.565Z</time></trkpt><trkpt lat="37.9503417" lon="13.1661367"><ele>341.6666666666667</ele><time>2026-05-05T09:49:23.566Z</time></trkpt><trkpt lat="37.9505533" lon="13.166075"><ele>342.0</ele><time>2026-05-05T09:49:24.565Z</time></trkpt><trkpt lat="37.9507633" lon="13.1660133"><ele>341.0</ele><time>2026-05-05T09:49:25.565Z</time></trkpt><trkpt lat="37.9509633" lon="13.1659517"><ele>340.0</ele><time>2026-05-05T09:49:26.565Z</time></trkpt><trkpt lat="37.9511483" lon="13.1658933"><ele>339.0</ele><time>2026-05-05T09:49:27.566Z</time></trkpt><trkpt lat="37.951325" lon="13.16584"><ele>339.0</ele><time>2026-05-05T09:49:28.566Z</time></trkpt><trkpt lat="37.9514917" lon="13.16579"><ele>339.0</ele><time>2026-05-05T09:49:29.565Z</time></trkpt><trkpt lat="37.951655" lon="13.1657433"><ele>339.0</ele><time>2026-05-05T09:49:30.566Z</time></trkpt><trkpt lat="37.9518167" lon="13.1656967"><ele>341.0</ele><time>2026-05-05T09:49:31.565Z</time></trkpt><trkpt lat="37.9519783" lon="13.16565"><ele>343.0</ele><time>2026-05-05T09:49:32.566Z</time></trkpt><trkpt lat="37.9521433" lon="13.1656017"><ele>345.0</ele><time>2026-05-05T09:49:33.566Z</time></trkpt><trkpt lat="37.9523133" lon="13.1655567"><ele>345.0</ele><time>2026-05-05T09:49:34.564Z</time></trkpt><trkpt lat="37.9524883" lon="13.1655233"><ele>345.0</ele><time>2026-05-05T09:49:35.565Z</time></trkpt><trkpt lat="37.9526683" lon="13.1655083"><ele>345.0</ele><time>2026-05-05T09:49:36.565Z</time></trkpt><trkpt lat="37.9528517" lon="13.1655133"><ele>345.0</ele><time>2026-05-05T09:49:37.564Z</time></trkpt><trkpt lat="37.953035" lon="13.165535"><ele>345.0</ele><time>2026-05-05T09:49:38.565Z</time></trkpt><trkpt lat="37.9532167" lon="13.165575"><ele>345.0</ele><time>2026-05-05T09:49:39.563Z</time></trkpt><trkpt lat="37.9534" lon="13.1656383"><ele>345.0</ele><time>2026-05-05T09:49:40.564Z</time></trkpt><trkpt lat="37.9535783" lon="13.1657217"><ele>345.0</ele><time>2026-05-05T09:49:41.565Z</time></trkpt><trkpt lat="37.9537533" lon="13.1658217"><ele>345.0</ele><time>2026-05-05T09:49:42.565Z</time></trkpt><trkpt lat="37.9539233" lon="13.1659333"><ele>345.0</ele><time>2026-05-05T09:49:43.566Z</time></trkpt><trkpt lat="37.9540867" lon="13.1660667"><ele>345.0</ele><time>2026-05-05T09:49:44.571Z</time></trkpt><trkpt lat="37.95424" lon="13.1662183"><ele>345.0</ele><time>2026-05-05T09:49:45.565Z</time></trkpt><trkpt lat="37.95438" lon="13.1663933"><ele>346.6666666666667</ele><time>2026-05-05T09:49:46.566Z</time></trkpt><trkpt lat="37.95451" lon="13.1665817"><ele>348.33333333333337</ele><time>2026-05-05T09:49:47.565Z</time></trkpt><trkpt lat="37.9546267" lon="13.166785"><ele>350.0</ele><time>2026-05-05T09:49:48.564Z</time></trkpt><trkpt lat="37.95474" lon="13.166995"><ele>350.0</ele><time>2026-05-05T09:49:49.565Z</time></trkpt><trkpt lat="37.954855" lon="13.1672017"><ele>350.0</ele><time>2026-05-05T09:49:50.566Z</time></trkpt><trkpt lat="37.9549783" lon="13.16741"><ele>350.0</ele><time>2026-05-05T09:49:51.566Z</time></trkpt><trkpt lat="37.9551033" lon="13.1676133"><ele>346.6666666666667</ele><time>2026-05-05T09:49:52.568Z</time></trkpt><trkpt lat="37.95523" lon="13.16781"><ele>343.3333333333333</ele><time>2026-05-05T09:49:53.566Z</time></trkpt><trkpt lat="37.95536" lon="13.1679983"><ele>340.0</ele><time>2026-05-05T09:49:54.565Z</time></trkpt><trkpt lat="37.955495" lon="13.1681783"><ele>340.66666666666663</ele><time>2026-05-05T09:49:55.565Z</time></trkpt><trkpt lat="37.9556383" lon="13.168345"><ele>341.3333333333333</ele><time>2026-05-05T09:49:56.566Z</time></trkpt><trkpt lat="37.9557917" lon="13.1684983"><ele>342.0</ele><time>2026-05-05T09:49:57.565Z</time></trkpt><trkpt lat="37.9559533" lon="13.1686383"><ele>340.0</ele><time>2026-05-05T09:49:58.564Z</time></trkpt><trkpt lat="37.9561267" lon="13.16876"><ele>338.0</ele><time>2026-05-05T09:49:59.565Z</time></trkpt><trkpt lat="37.9563017" lon="13.1688683"><ele>336.0</ele><time>2026-05-05T09:50:00.566Z</time></trkpt><trkpt lat="37.9564817" lon="13.1689633"><ele>339.3333333333333</ele><time>2026-05-05T09:50:01.565Z</time></trkpt><trkpt lat="37.956665" lon="13.1690533"><ele>342.66666666666663</ele><time>2026-05-05T09:50:02.566Z</time></trkpt><trkpt lat="37.9568483" lon="13.169135"><ele>346.0</ele><time>2026-05-05T09:50:03.565Z</time></trkpt><trkpt lat="37.9570233" lon="13.1692017"><ele>347.0</ele><time>2026-05-05T09:50:04.565Z</time></trkpt><trkpt lat="37.9571883" lon="13.1692633"><ele>348.0</ele><time>2026-05-05T09:50:05.565Z</time></trkpt><trkpt lat="37.957345" lon="13.1693217"><ele>349.0</ele><time>2026-05-05T09:50:06.565Z</time></trkpt><trkpt lat="37.9574917" lon="13.1693783"><ele>349.0</ele><time>2026-05-05T09:50:07.564Z</time></trkpt><trkpt lat="37.9576317" lon="13.1694333"><ele>349.0</ele><time>2026-05-05T09:50:08.565Z</time></trkpt><trkpt lat="37.9577683" lon="13.1694867"><ele>349.0</ele><time>2026-05-05T09:50:09.564Z</time></trkpt><trkpt lat="37.9579" lon="13.169535"><ele>349.0</ele><time>2026-05-05T09:50:10.565Z</time></trkpt><trkpt lat="37.9580283" lon="13.16958"><ele>349.0</ele><time>2026-05-05T09:50:11.566Z</time></trkpt><trkpt lat="37.958155" lon="13.1696217"><ele>349.0</ele><time>2026-05-05T09:50:12.566Z</time></trkpt><trkpt lat="37.958275" lon="13.1696667"><ele>349.0</ele><time>2026-05-05T09:50:13.564Z</time></trkpt><trkpt lat="37.9583833" lon="13.1697217"><ele>349.0</ele><time>2026-05-05T09:50:14.564Z</time></trkpt><trkpt lat="37.95848" lon="13.1697933"><ele>348.75</ele><time>2026-05-05T09:50:15.566Z</time></trkpt><trkpt lat="37.958575" lon="13.1698783"><ele>348.5</ele><time>2026-05-05T09:50:16.565Z</time></trkpt><trkpt lat="37.9586683" lon="13.1699767"><ele>348.25</ele><time>2026-05-05T09:50:17.566Z</time></trkpt><trkpt lat="37.9587533" lon="13.1700917"><ele>348.0</ele><time>2026-05-05T09:50:18.565Z</time></trkpt><trkpt lat="37.9588417" lon="13.1702117"><ele>348.0</ele><time>2026-05-05T09:50:19.566Z</time></trkpt><trkpt lat="37.9589267" lon="13.17034"><ele>348.0</ele><time>2026-05-05T09:50:20.566Z</time></trkpt><trkpt lat="37.9590067" lon="13.1704783"><ele>348.0</ele><time>2026-05-05T09:50:21.565Z</time></trkpt><trkpt lat="37.9590767" lon="13.17063"><ele>348.0</ele><time>2026-05-05T09:50:22.566Z</time></trkpt><trkpt lat="37.9591367" lon="13.17079"><ele>349.25</ele><time>2026-05-05T09:50:23.565Z</time></trkpt><trkpt lat="37.95919" lon="13.1709583"><ele>350.5</ele><time>2026-05-05T09:50:24.565Z</time></trkpt><trkpt lat="37.9592283" lon="13.1711333"><ele>351.75</ele><time>2026-05-05T09:50:25.566Z</time></trkpt><trkpt lat="37.9592567" lon="13.1712933"><ele>353.0</ele><time>2026-05-05T09:50:26.567Z</time></trkpt><trkpt lat="37.9592867" lon="13.17143"><ele>355.0</ele><time>2026-05-05T09:50:27.564Z</time></trkpt><trkpt lat="37.95933" lon="13.171545"><ele>357.0</ele><time>2026-05-05T09:50:28.565Z</time></trkpt><trkpt lat="37.9593767" lon="13.1716333"><ele>359.0</ele><time>2026-05-05T09:50:29.566Z</time></trkpt><trkpt lat="37.9594267" lon="13.1717167"><ele>361.0</ele><time>2026-05-05T09:50:31.565Z</time></trkpt><trkpt lat="37.95947" lon="13.1717867"><ele>363.0</ele><time>2026-05-05T09:50:34.565Z</time></trkpt><trkpt lat="37.95951" lon="13.17185"><ele>365.0</ele><time>2026-05-05T09:50:36.565Z</time></trkpt><trkpt lat="37.959545" lon="13.1719583"><ele>365.0</ele><time>2026-05-05T09:50:38.565Z</time></trkpt><trkpt lat="37.959535" lon="13.1721283"><ele>365.0</ele><time>2026-05-05T09:50:40.565Z</time></trkpt><trkpt lat="37.95953" lon="13.1722417"><ele>365.0</ele><time>2026-05-05T09:50:41.565Z</time></trkpt><trkpt lat="37.9595233" lon="13.1723533"><ele>365.0</ele><time>2026-05-05T09:50:42.565Z</time></trkpt><trkpt lat="37.959515" lon="13.1724767"><ele>365.0</ele><time>2026-05-05T09:50:43.566Z</time></trkpt><trkpt lat="37.9595033" lon="13.1726067"><ele>365.6</ele><time>2026-05-05T09:50:44.567Z</time></trkpt><trkpt lat="37.9594983" lon="13.17274"><ele>366.2</ele><time>2026-05-05T09:50:45.565Z</time></trkpt><trkpt lat="37.9594983" lon="13.1728717"><ele>366.79999999999995</ele><time>2026-05-05T09:50:46.565Z</time></trkpt><trkpt lat="37.9594983" lon="13.1729983"><ele>367.4</ele><time>2026-05-05T09:50:47.566Z</time></trkpt><trkpt lat="37.9595" lon="13.1731133"><ele>368.0</ele><time>2026-05-05T09:50:48.565Z</time></trkpt><trkpt lat="37.9595" lon="13.1732233"><ele>368.0</ele><time>2026-05-05T09:50:49.567Z</time></trkpt><trkpt lat="37.9595" lon="13.1733383"><ele>368.0</ele><time>2026-05-05T09:50:50.566Z</time></trkpt><trkpt lat="37.9595033" lon="13.1734583"><ele>368.0</ele><time>2026-05-05T09:50:51.566Z</time></trkpt><trkpt lat="37.9595067" lon="13.173585"><ele>368.0</ele><time>2026-05-05T09:50:52.564Z</time></trkpt><trkpt lat="37.95951" lon="13.17372"><ele>368.0</ele><time>2026-05-05T09:50:53.564Z</time></trkpt><trkpt lat="37.959515" lon="13.1738633"><ele>368.0</ele><time>2026-05-05T09:50:54.565Z</time></trkpt><trkpt lat="37.95952" lon="13.1740133"><ele>368.0</ele><time>2026-05-05T09:50:55.566Z</time></trkpt><trkpt lat="37.9595267" lon="13.174165"><ele>368.0</ele><time>2026-05-05T09:50:56.566Z</time></trkpt><trkpt lat="37.95953" lon="13.174315"><ele>368.0</ele><time>2026-05-05T09:50:57.566Z</time></trkpt><trkpt lat="37.95953" lon="13.174465"><ele>368.5</ele><time>2026-05-05T09:50:58.566Z</time></trkpt><trkpt lat="37.95953" lon="13.174615"><ele>369.0</ele><time>2026-05-05T09:50:59.565Z</time></trkpt><trkpt lat="37.9595317" lon="13.174765"><ele>369.5</ele><time>2026-05-05T09:51:00.565Z</time></trkpt><trkpt lat="37.9595333" lon="13.1749133"><ele>370.0</ele><time>2026-05-05T09:51:01.564Z</time></trkpt><trkpt lat="37.9595333" lon="13.175055"><ele>370.8</ele><time>2026-05-05T09:51:02.567Z</time></trkpt><trkpt lat="37.9595317" lon="13.1751867"><ele>371.6</ele><time>2026-05-05T09:51:03.566Z</time></trkpt><trkpt lat="37.9595267" lon="13.1753117"><ele>372.4</ele><time>2026-05-05T09:51:04.565Z</time></trkpt><trkpt lat="37.9595217" lon="13.1754317"><ele>373.2</ele><time>2026-05-05T09:51:05.566Z</time></trkpt><trkpt lat="37.959515" lon="13.175545"><ele>374.0</ele><time>2026-05-05T09:51:06.565Z</time></trkpt><trkpt lat="37.9595083" lon="13.1756483"><ele>374.0</ele><time>2026-05-05T09:51:07.567Z</time></trkpt><trkpt lat="37.9595017" lon="13.1757317"><ele>370.0</ele><time>2026-05-05T09:51:08.564Z</time></trkpt><trkpt lat="37.95949" lon="13.1758467"><ele>370.0</ele><time>2026-05-05T09:51:10.564Z</time></trkpt><trkpt lat="37.9594217" lon="13.1759083"><ele>370.0</ele><time>2026-05-05T09:51:13.566Z</time></trkpt><trkpt lat="37.95941" lon="13.175995"><ele>370.0</ele><time>2026-05-05T09:51:16.566Z</time></trkpt><trkpt lat="37.9593217" lon="13.17608"><ele>370.0</ele><time>2026-05-05T09:52:53.566Z</time></trkpt></trkseg><trkseg><trkpt lat="37.9593567" lon="13.17605"><ele>370.0</ele><time>2026-05-05T10:08:54.566Z</time></trkpt><trkpt lat="37.95942" lon="13.175965"><ele>370.0</ele><time>2026-05-05T10:08:56.567Z</time></trkpt><trkpt lat="37.9594967" lon="13.1758367"><ele>370.0</ele><time>2026-05-05T10:08:58.565Z</time></trkpt><trkpt lat="37.959525" lon="13.1757117"><ele>370.0</ele><time>2026-05-05T10:08:59.566Z</time></trkpt><trkpt lat="37.95955" lon="13.1755717"><ele>370.0</ele><time>2026-05-05T10:09:00.566Z</time></trkpt><trkpt lat="37.9595683" lon="13.1754483"><ele>370.8</ele><time>2026-05-05T10:09:01.566Z</time></trkpt><trkpt lat="37.9595867" lon="13.1753367"><ele>371.6</ele><time>2026-05-05T10:09:02.566Z</time></trkpt><trkpt lat="37.9596" lon="13.1752367"><ele>372.4</ele><time>2026-05-05T10:09:03.567Z</time></trkpt><trkpt lat="37.9596" lon="13.1751533"><ele>373.2</ele><time>2026-05-05T10:09:04.566Z</time></trkpt><trkpt lat="37.9595883" lon="13.175015"><ele>374.0</ele><time>2026-05-05T10:09:06.566Z</time></trkpt><trkpt lat="37.95959" lon="13.1748583"><ele>373.33333333333337</ele><time>2026-05-05T10:09:08.566Z</time></trkpt><trkpt lat="37.9595917" lon="13.1747717"><ele>372.6666666666667</ele><time>2026-05-05T10:09:09.566Z</time></trkpt><trkpt lat="37.95959" lon="13.17468"><ele>372.0</ele><time>2026-05-05T10:09:10.565Z</time></trkpt><trkpt lat="37.9595883" lon="13.174595"><ele>371.3333333333333</ele><time>2026-05-05T10:09:11.564Z</time></trkpt><trkpt lat="37.959585" lon="13.1744567"><ele>370.66666666666663</ele><time>2026-05-05T10:09:13.564Z</time></trkpt><trkpt lat="37.9595867" lon="13.1743483"><ele>370.0</ele><time>2026-05-05T10:09:15.564Z</time></trkpt><trkpt lat="37.9595867" lon="13.1742217"><ele>370.0</ele><time>2026-05-05T10:09:17.564Z</time></trkpt><trkpt lat="37.9595833" lon="13.1740633"><ele>370.0</ele><time>2026-05-05T10:09:19.565Z</time></trkpt><trkpt lat="37.95958" lon="13.1739817"><ele>370.0</ele><time>2026-05-05T10:09:20.564Z</time></trkpt><trkpt lat="37.9595783" lon="13.1738983"><ele>370.0</ele><time>2026-05-05T10:09:21.564Z</time></trkpt><trkpt lat="37.9595783" lon="13.1737583"><ele>370.0</ele><time>2026-05-05T10:09:23.565Z</time></trkpt><trkpt lat="37.9595733" lon="13.1736183"><ele>370.0</ele><time>2026-05-05T10:09:25.564Z</time></trkpt><trkpt lat="37.9595817" lon="13.1734783"><ele>370.0</ele><time>2026-05-05T10:09:27.563Z</time></trkpt><trkpt lat="37.9595867" lon="13.1733933"><ele>370.0</ele><time>2026-05-05T10:09:28.564Z</time></trkpt><trkpt lat="37.9595883" lon="13.173305"><ele>370.0</ele><time>2026-05-05T10:09:29.564Z</time></trkpt><trkpt lat="37.9595867" lon="13.1732183"><ele>370.0</ele><time>2026-05-05T10:09:30.564Z</time></trkpt><trkpt lat="37.959585" lon="13.1731283"><ele>370.0</ele><time>2026-05-05T10:09:31.564Z</time></trkpt><trkpt lat="37.9595833" lon="13.1730267"><ele>370.0</ele><time>2026-05-05T10:09:32.565Z</time></trkpt><trkpt lat="37.9595817" lon="13.1729183"><ele>370.0</ele><time>2026-05-05T10:09:33.563Z</time></trkpt><trkpt lat="37.9595783" lon="13.17281"><ele>370.0</ele><time>2026-05-05T10:09:34.565Z</time></trkpt><trkpt lat="37.9595767" lon="13.17271"><ele>370.0</ele><time>2026-05-05T10:09:35.564Z</time></trkpt><trkpt lat="37.959575" lon="13.1726217"><ele>370.0</ele><time>2026-05-05T10:09:36.563Z</time></trkpt><trkpt lat="37.9595767" lon="13.172535"><ele>370.0</ele><time>2026-05-05T10:09:37.565Z</time></trkpt><trkpt lat="37.9595783" lon="13.17244"><ele>369.16666666666663</ele><time>2026-05-05T10:09:38.565Z</time></trkpt><trkpt lat="37.9595817" lon="13.17234"><ele>368.3333333333333</ele><time>2026-05-05T10:09:39.565Z</time></trkpt><trkpt lat="37.9595883" lon="13.17224"><ele>367.5</ele><time>2026-05-05T10:09:40.563Z</time></trkpt><trkpt lat="37.9595967" lon="13.172135"><ele>366.6666666666667</ele><time>2026-05-05T10:09:41.565Z</time></trkpt><trkpt lat="37.9596033" lon="13.1720267"><ele>365.83333333333337</ele><time>2026-05-05T10:09:42.564Z</time></trkpt><trkpt lat="37.95961" lon="13.1719167"><ele>365.0</ele><time>2026-05-05T10:09:43.563Z</time></trkpt><trkpt lat="37.9596183" lon="13.171795"><ele>365.0</ele><time>2026-05-05T10:09:44.564Z</time></trkpt><trkpt lat="37.9596317" lon="13.1716633"><ele>365.0</ele><time>2026-05-05T10:09:45.565Z</time></trkpt><trkpt lat="37.9596483" lon="13.171515"><ele>365.0</ele><time>2026-05-05T10:09:46.564Z</time></trkpt><trkpt lat="37.95966" lon="13.17137"><ele>365.0</ele><time>2026-05-05T10:09:47.565Z</time></trkpt><trkpt lat="37.959665" lon="13.1712333"><ele>365.0</ele><time>2026-05-05T10:09:48.565Z</time></trkpt><trkpt lat="37.9596733" lon="13.1711017"><ele>363.4</ele><time>2026-05-05T10:09:49.565Z</time></trkpt><trkpt lat="37.959685" lon="13.1709717"><ele>361.8</ele><time>2026-05-05T10:09:50.565Z</time></trkpt><trkpt lat="37.9597" lon="13.17085"><ele>360.20000000000005</ele><time>2026-05-05T10:09:51.563Z</time></trkpt><trkpt lat="37.959725" lon="13.170735"><ele>358.6</ele><time>2026-05-05T10:09:52.564Z</time></trkpt><trkpt lat="37.9597633" lon="13.1706267"><ele>357.0</ele><time>2026-05-05T10:09:53.564Z</time></trkpt><trkpt lat="37.9598167" lon="13.1705333"><ele>355.8</ele><time>2026-05-05T10:09:54.565Z</time></trkpt><trkpt lat="37.9598883" lon="13.1704533"><ele>354.6</ele><time>2026-05-05T10:09:55.564Z</time></trkpt><trkpt lat="37.9599767" lon="13.170385"><ele>353.40000000000003</ele><time>2026-05-05T10:09:56.565Z</time></trkpt><trkpt lat="37.9600767" lon="13.170345"><ele>352.20000000000005</ele><time>2026-05-05T10:09:57.564Z</time></trkpt><trkpt lat="37.9601817" lon="13.1703283"><ele>351.0</ele><time>2026-05-05T10:09:58.564Z</time></trkpt><trkpt lat="37.96028" lon="13.17033"><ele>350.4</ele><time>2026-05-05T10:09:59.565Z</time></trkpt><trkpt lat="37.9603733" lon="13.1703383"><ele>349.8</ele><time>2026-05-05T10:10:00.564Z</time></trkpt><trkpt lat="37.9604617" lon="13.170355"><ele>349.2</ele><time>2026-05-05T10:10:01.565Z</time></trkpt><trkpt lat="37.9605617" lon="13.1703717"><ele>348.59999999999997</ele><time>2026-05-05T10:10:02.565Z</time></trkpt><trkpt lat="37.960675" lon="13.1703917"><ele>348.0</ele><time>2026-05-05T10:10:03.564Z</time></trkpt><trkpt lat="37.960795" lon="13.17041"><ele>346.5</ele><time>2026-05-05T10:10:04.565Z</time></trkpt><trkpt lat="37.9609233" lon="13.1704317"><ele>345.0</ele><time>2026-05-05T10:10:05.565Z</time></trkpt><trkpt lat="37.9610583" lon="13.1704517"><ele>343.5</ele><time>2026-05-05T10:10:06.564Z</time></trkpt><trkpt lat="37.9612033" lon="13.1704717"><ele>342.0</ele><time>2026-05-05T10:10:07.564Z</time></trkpt><trkpt lat="37.9613517" lon="13.1704883"><ele>342.0</ele><time>2026-05-05T10:10:08.566Z</time></trkpt><trkpt lat="37.9615017" lon="13.1705017"><ele>342.0</ele><time>2026-05-05T10:10:09.564Z</time></trkpt><trkpt lat="37.961655" lon="13.1705117"><ele>342.0</ele><time>2026-05-05T10:10:10.564Z</time></trkpt><trkpt lat="37.9618117" lon="13.1705183"><ele>341.0</ele><time>2026-05-05T10:10:11.565Z</time></trkpt><trkpt lat="37.9619683" lon="13.17052"><ele>340.0</ele><time>2026-05-05T10:10:12.565Z</time></trkpt><trkpt lat="37.9621283" lon="13.17052"><ele>339.0</ele><time>2026-05-05T10:10:13.564Z</time></trkpt><trkpt lat="37.9622883" lon="13.1705183"><ele>339.0</ele><time>2026-05-05T10:10:14.565Z</time></trkpt><trkpt lat="37.9624517" lon="13.1705183"><ele>339.0</ele><time>2026-05-05T10:10:15.563Z</time></trkpt><trkpt lat="37.962615" lon="13.170515"><ele>339.0</ele><time>2026-05-05T10:10:16.564Z</time></trkpt><trkpt lat="37.9627783" lon="13.17051"><ele>340.6666666666667</ele><time>2026-05-05T10:10:17.563Z</time></trkpt><trkpt lat="37.9629433" lon="13.1705017"><ele>342.33333333333337</ele><time>2026-05-05T10:10:18.564Z</time></trkpt><trkpt lat="37.9631117" lon="13.1704967"><ele>344.0</ele><time>2026-05-05T10:10:19.565Z</time></trkpt><trkpt lat="37.9632783" lon="13.1704917"><ele>346.33333333333337</ele><time>2026-05-05T10:10:20.566Z</time></trkpt><trkpt lat="37.9634467" lon="13.1704883"><ele>348.6666666666667</ele><time>2026-05-05T10:10:21.565Z</time></trkpt><trkpt lat="37.963615" lon="13.170485"><ele>351.0</ele><time>2026-05-05T10:10:22.563Z</time></trkpt><trkpt lat="37.9637867" lon="13.170485"><ele>351.0</ele><time>2026-05-05T10:10:23.566Z</time></trkpt><trkpt lat="37.9639617" lon="13.1704867"><ele>351.0</ele><time>2026-05-05T10:10:24.564Z</time></trkpt><trkpt lat="37.9641383" lon="13.170495"><ele>351.0</ele><time>2026-05-05T10:10:25.563Z</time></trkpt><trkpt lat="37.96432" lon="13.17051"><ele>353.0</ele><time>2026-05-05T10:10:26.565Z</time></trkpt><trkpt lat="37.9645033" lon="13.1705317"><ele>355.0</ele><time>2026-05-05T10:10:27.564Z</time></trkpt><trkpt lat="37.9646883" lon="13.1705583"><ele>357.0</ele><time>2026-05-05T10:10:28.564Z</time></trkpt><trkpt lat="37.9648717" lon="13.170595"><ele>356.3333333333333</ele><time>2026-05-05T10:10:29.564Z</time></trkpt><trkpt lat="37.9650533" lon="13.170635"><ele>355.66666666666663</ele><time>2026-05-05T10:10:30.564Z</time></trkpt><trkpt lat="37.9652233" lon="13.1706817"><ele>355.0</ele><time>2026-05-05T10:10:31.564Z</time></trkpt><trkpt lat="37.9653833" lon="13.17074"><ele>355.0</ele><time>2026-05-05T10:10:32.565Z</time></trkpt><trkpt lat="37.9655383" lon="13.1708083"><ele>355.0</ele><time>2026-05-05T10:10:33.564Z</time></trkpt><trkpt lat="37.965685" lon="13.1708867"><ele>355.0</ele><time>2026-05-05T10:10:34.564Z</time></trkpt><trkpt lat="37.96583" lon="13.1709667"><ele>351.0</ele><time>2026-05-05T10:10:35.564Z</time></trkpt><trkpt lat="37.965975" lon="13.1710533"><ele>347.0</ele><time>2026-05-05T10:10:36.565Z</time></trkpt><trkpt lat="37.96612" lon="13.171145"><ele>343.0</ele><time>2026-05-05T10:10:37.565Z</time></trkpt><trkpt lat="37.9662683" lon="13.171245"><ele>343.0</ele><time>2026-05-05T10:10:38.564Z</time></trkpt><trkpt lat="37.9664183" lon="13.1713517"><ele>343.0</ele><time>2026-05-05T10:10:39.563Z</time></trkpt><trkpt lat="37.96657" lon="13.1714617"><ele>343.0</ele><time>2026-05-05T10:10:40.567Z</time></trkpt><trkpt lat="37.966725" lon="13.1715767"><ele>342.66666666666663</ele><time>2026-05-05T10:10:41.564Z</time></trkpt><trkpt lat="37.96688" lon="13.1716967"><ele>342.3333333333333</ele><time>2026-05-05T10:10:42.565Z</time></trkpt><trkpt lat="37.967035" lon="13.17182"><ele>342.0</ele><time>2026-05-05T10:10:43.564Z</time></trkpt><trkpt lat="37.9671933" lon="13.171945"><ele>342.0</ele><time>2026-05-05T10:10:44.564Z</time></trkpt><trkpt lat="37.9673517" lon="13.1720733"><ele>342.0</ele><time>2026-05-05T10:10:45.564Z</time></trkpt><trkpt lat="37.9675117" lon="13.1722"><ele>342.0</ele><time>2026-05-05T10:10:46.564Z</time></trkpt><trkpt lat="37.967675" lon="13.1723283"><ele>345.0</ele><time>2026-05-05T10:10:47.565Z</time></trkpt><trkpt lat="37.9678417" lon="13.1724583"><ele>348.0</ele><time>2026-05-05T10:10:48.565Z</time></trkpt><trkpt lat="37.96801" lon="13.1725867"><ele>351.0</ele><time>2026-05-05T10:10:49.565Z</time></trkpt><trkpt lat="37.96818" lon="13.1727133"><ele>351.0</ele><time>2026-05-05T10:10:50.565Z</time></trkpt><trkpt lat="37.9683517" lon="13.1728367"><ele>351.0</ele><time>2026-05-05T10:10:51.564Z</time></trkpt><trkpt lat="37.9685267" lon="13.1729583"><ele>351.0</ele><time>2026-05-05T10:10:52.565Z</time></trkpt><trkpt lat="37.9687033" lon="13.173075"><ele>350.0</ele><time>2026-05-05T10:10:53.564Z</time></trkpt><trkpt lat="37.9688817" lon="13.1731883"><ele>349.0</ele><time>2026-05-05T10:10:54.565Z</time></trkpt><trkpt lat="37.9690633" lon="13.173295"><ele>348.0</ele><time>2026-05-05T10:10:55.565Z</time></trkpt><trkpt lat="37.969245" lon="13.1733967"><ele>352.0</ele><time>2026-05-05T10:10:56.565Z</time></trkpt><trkpt lat="37.9694283" lon="13.173495"><ele>356.0</ele><time>2026-05-05T10:10:57.564Z</time></trkpt><trkpt lat="37.96961" lon="13.1735917"><ele>360.0</ele><time>2026-05-05T10:10:58.565Z</time></trkpt><trkpt lat="37.9697917" lon="13.173685"><ele>360.0</ele><time>2026-05-05T10:10:59.565Z</time></trkpt><trkpt lat="37.9699683" lon="13.1737733"><ele>360.0</ele><time>2026-05-05T10:11:00.564Z</time></trkpt><trkpt lat="37.9701433" lon="13.173855"><ele>360.0</ele><time>2026-05-05T10:11:01.565Z</time></trkpt><trkpt lat="37.9703117" lon="13.1739317"><ele>359.6666666666667</ele><time>2026-05-05T10:11:02.565Z</time></trkpt><trkpt lat="37.97048" lon="13.174005"><ele>359.33333333333337</ele><time>2026-05-05T10:11:03.564Z</time></trkpt><trkpt lat="37.97066" lon="13.17408"><ele>359.0</ele><time>2026-05-05T10:11:04.564Z</time></trkpt><trkpt lat="37.97085" lon="13.174165"><ele>363.33333333333337</ele><time>2026-05-05T10:11:05.564Z</time></trkpt><trkpt lat="37.9710533" lon="13.17426"><ele>367.6666666666667</ele><time>2026-05-05T10:11:06.565Z</time></trkpt><trkpt lat="37.9712617" lon="13.1743667"><ele>372.0</ele><time>2026-05-05T10:11:07.565Z</time></trkpt><trkpt lat="37.9714567" lon="13.1744783"><ele>372.0</ele><time>2026-05-05T10:11:08.564Z</time></trkpt><trkpt lat="37.9716433" lon="13.1745867"><ele>372.0</ele><time>2026-05-05T10:11:09.565Z</time></trkpt><trkpt lat="37.9718217" lon="13.1746933"><ele>372.0</ele><time>2026-05-05T10:11:10.565Z</time></trkpt><trkpt lat="37.9719933" lon="13.1748"><ele>373.6666666666667</ele><time>2026-05-05T10:11:11.565Z</time></trkpt><trkpt lat="37.9721567" lon="13.1749033"><ele>375.33333333333337</ele><time>2026-05-05T10:11:12.565Z</time></trkpt><trkpt lat="37.97231" lon="13.17501"><ele>377.0</ele><time>2026-05-05T10:11:13.564Z</time></trkpt><trkpt lat="37.9724567" lon="13.17512"><ele>374.6666666666667</ele><time>2026-05-05T10:11:14.564Z</time></trkpt><trkpt lat="37.9726017" lon="13.175235"><ele>372.3333333333333</ele><time>2026-05-05T10:11:15.564Z</time></trkpt><trkpt lat="37.9727467" lon="13.1753567"><ele>370.0</ele><time>2026-05-05T10:11:16.563Z</time></trkpt><trkpt lat="37.9728883" lon="13.175485"><ele>370.0</ele><time>2026-05-05T10:11:17.565Z</time></trkpt><trkpt lat="37.973025" lon="13.1756233"><ele>370.0</ele><time>2026-05-05T10:11:18.565Z</time></trkpt><trkpt lat="37.97316" lon="13.1757717"><ele>370.0</ele><time>2026-05-05T10:11:19.565Z</time></trkpt><trkpt lat="37.9732883" lon="13.1759283"><ele>368.0</ele><time>2026-05-05T10:11:20.565Z</time></trkpt><trkpt lat="37.973415" lon="13.176095"><ele>366.0</ele><time>2026-05-05T10:11:21.563Z</time></trkpt><trkpt lat="37.9735367" lon="13.1762667"><ele>364.0</ele><time>2026-05-05T10:11:22.566Z</time></trkpt><trkpt lat="37.9736533" lon="13.176445"><ele>367.3333333333333</ele><time>2026-05-05T10:11:23.564Z</time></trkpt><trkpt lat="37.973765" lon="13.1766267"><ele>370.6666666666667</ele><time>2026-05-05T10:11:24.563Z</time></trkpt><trkpt lat="37.973875" lon="13.1768133"><ele>374.0</ele><time>2026-05-05T10:11:25.564Z</time></trkpt><trkpt lat="37.9739867" lon="13.17701"><ele>374.0</ele><time>2026-05-05T10:11:26.564Z</time></trkpt><trkpt lat="37.9741" lon="13.1772217"><ele>374.0</ele><time>2026-05-05T10:11:27.563Z</time></trkpt><trkpt lat="37.9742133" lon="13.1774483"><ele>374.0</ele><time>2026-05-05T10:11:28.564Z</time></trkpt><trkpt lat="37.9743233" lon="13.1776867"><ele>375.6666666666667</ele><time>2026-05-05T10:11:29.564Z</time></trkpt><trkpt lat="37.974425" lon="13.177935"><ele>377.3333333333333</ele><time>2026-05-05T10:11:30.565Z</time></trkpt><trkpt lat="37.974525" lon="13.1781867"><ele>379.0</ele><time>2026-05-05T10:11:31.564Z</time></trkpt><trkpt lat="37.9746217" lon="13.17844"><ele>382.3333333333333</ele><time>2026-05-05T10:11:32.565Z</time></trkpt><trkpt lat="37.97472" lon="13.1786933"><ele>385.66666666666663</ele><time>2026-05-05T10:11:33.565Z</time></trkpt><trkpt lat="37.97482" lon="13.178945"><ele>389.0</ele><time>2026-05-05T10:11:34.564Z</time></trkpt><trkpt lat="37.9749217" lon="13.179195"><ele>388.66666666666663</ele><time>2026-05-05T10:11:35.565Z</time></trkpt><trkpt lat="37.975025" lon="13.1794417"><ele>388.33333333333337</ele><time>2026-05-05T10:11:36.564Z</time></trkpt><trkpt lat="37.9751233" lon="13.1796867"><ele>388.0</ele><time>2026-05-05T10:11:37.565Z</time></trkpt><trkpt lat="37.9752233" lon="13.1799283"><ele>390.6666666666667</ele><time>2026-05-05T10:11:38.568Z</time></trkpt><trkpt lat="37.9753217" lon="13.1801667"><ele>393.33333333333337</ele><time>2026-05-05T10:11:39.564Z</time></trkpt><trkpt lat="37.9754183" lon="13.1804033"><ele>396.0</ele><time>2026-05-05T10:11:40.563Z</time></trkpt><trkpt lat="37.97551" lon="13.1806417"><ele>398.33333333333337</ele><time>2026-05-05T10:11:41.565Z</time></trkpt><trkpt lat="37.9756" lon="13.1808767"><ele>400.6666666666667</ele><time>2026-05-05T10:11:42.564Z</time></trkpt><trkpt lat="37.9756867" lon="13.18111"><ele>403.0</ele><time>2026-05-05T10:11:43.564Z</time></trkpt><trkpt lat="37.97577" lon="13.1813417"><ele>401.6666666666667</ele><time>2026-05-05T10:11:44.564Z</time></trkpt><trkpt lat="37.9758483" lon="13.1815733"><ele>400.33333333333337</ele><time>2026-05-05T10:11:45.564Z</time></trkpt><trkpt lat="37.975925" lon="13.1818083"><ele>399.0</ele><time>2026-05-05T10:11:46.563Z</time></trkpt><trkpt lat="37.9760017" lon="13.1820433"><ele>399.0</ele><time>2026-05-05T10:11:47.565Z</time></trkpt><trkpt lat="37.976075" lon="13.1822817"><ele>399.0</ele><time>2026-05-05T10:11:48.564Z</time></trkpt><trkpt lat="37.9761483" lon="13.1825217"><ele>399.0</ele><time>2026-05-05T10:11:49.565Z</time></trkpt><trkpt lat="37.9762167" lon="13.182765"><ele>398.66666666666663</ele><time>2026-05-05T10:11:50.565Z</time></trkpt><trkpt lat="37.976285" lon="13.1830117"><ele>398.3333333333333</ele><time>2026-05-05T10:11:51.564Z</time></trkpt><trkpt lat="37.9763517" lon="13.1832567"><ele>398.0</ele><time>2026-05-05T10:11:52.564Z</time></trkpt><trkpt lat="37.9764167" lon="13.183505"><ele>398.66666666666663</ele><time>2026-05-05T10:11:53.565Z</time></trkpt><trkpt lat="37.9764783" lon="13.1837533"><ele>399.33333333333337</ele><time>2026-05-05T10:11:54.565Z</time></trkpt><trkpt lat="37.97654" lon="13.184"><ele>400.0</ele><time>2026-05-05T10:11:55.563Z</time></trkpt><trkpt lat="37.9765983" lon="13.184245"><ele>400.0</ele><time>2026-05-05T10:11:56.565Z</time></trkpt><trkpt lat="37.9766533" lon="13.1844917"><ele>400.0</ele><time>2026-05-05T10:11:57.565Z</time></trkpt><trkpt lat="37.97671" lon="13.1847383"><ele>400.0</ele><time>2026-05-05T10:11:58.564Z</time></trkpt><trkpt lat="37.976765" lon="13.184985"><ele>402.33333333333337</ele><time>2026-05-05T10:11:59.565Z</time></trkpt><trkpt lat="37.97682" lon="13.1852317"><ele>404.66666666666663</ele><time>2026-05-05T10:12:00.565Z</time></trkpt><trkpt lat="37.9768733" lon="13.185475"><ele>407.0</ele><time>2026-05-05T10:12:01.565Z</time></trkpt><trkpt lat="37.97693" lon="13.1857183"><ele>408.3333333333333</ele><time>2026-05-05T10:12:02.564Z</time></trkpt><trkpt lat="37.9769867" lon="13.18596"><ele>409.66666666666663</ele><time>2026-05-05T10:12:03.564Z</time></trkpt><trkpt lat="37.9770433" lon="13.1862"><ele>411.0</ele><time>2026-05-05T10:12:04.565Z</time></trkpt><trkpt lat="37.9770967" lon="13.1864417"><ele>413.66666666666663</ele><time>2026-05-05T10:12:05.564Z</time></trkpt><trkpt lat="37.9771483" lon="13.1866833"><ele>416.3333333333333</ele><time>2026-05-05T10:12:06.565Z</time></trkpt><trkpt lat="37.9772" lon="13.1869233"><ele>419.0</ele><time>2026-05-05T10:12:07.565Z</time></trkpt><trkpt lat="37.97725" lon="13.187165"><ele>419.66666666666663</ele><time>2026-05-05T10:12:08.564Z</time></trkpt><trkpt lat="37.9772933" lon="13.1874033"><ele>420.33333333333337</ele><time>2026-05-05T10:12:09.563Z</time></trkpt><trkpt lat="37.9773333" lon="13.187625"><ele>421.0</ele><time>2026-05-05T10:12:10.563Z</time></trkpt><trkpt lat="37.977365" lon="13.1878333"><ele>421.0</ele><time>2026-05-05T10:12:11.564Z</time></trkpt><trkpt lat="37.9773933" lon="13.18803"><ele>421.0</ele><time>2026-05-05T10:12:12.565Z</time></trkpt><trkpt lat="37.9774183" lon="13.1882133"><ele>421.0</ele><time>2026-05-05T10:12:13.564Z</time></trkpt><trkpt lat="37.97744" lon="13.1883917"><ele>421.0</ele><time>2026-05-05T10:12:14.565Z</time></trkpt><trkpt lat="37.9774567" lon="13.1885717"><ele>423.6666666666667</ele><time>2026-05-05T10:12:15.564Z</time></trkpt><trkpt lat="37.9774717" lon="13.1887583"><ele>426.33333333333337</ele><time>2026-05-05T10:12:16.563Z</time></trkpt><trkpt lat="37.9774867" lon="13.18895"><ele>429.0</ele><time>2026-05-05T10:12:17.564Z</time></trkpt><trkpt lat="37.9774983" lon="13.1891483"><ele>427.66666666666663</ele><time>2026-05-05T10:12:18.565Z</time></trkpt><trkpt lat="37.9775083" lon="13.189355"><ele>426.3333333333333</ele><time>2026-05-05T10:12:19.564Z</time></trkpt><trkpt lat="37.9775167" lon="13.189565"><ele>425.0</ele><time>2026-05-05T10:12:20.565Z</time></trkpt><trkpt lat="37.9775233" lon="13.18978"><ele>426.3333333333333</ele><time>2026-05-05T10:12:21.566Z</time></trkpt><trkpt lat="37.9775217" lon="13.1899983"><ele>427.66666666666663</ele><time>2026-05-05T10:12:22.565Z</time></trkpt><trkpt lat="37.97752" lon="13.1902217"><ele>429.0</ele><time>2026-05-05T10:12:23.565Z</time></trkpt><trkpt lat="37.9775133" lon="13.1904467"><ele>432.66666666666663</ele><time>2026-05-05T10:12:24.564Z</time></trkpt><trkpt lat="37.9775033" lon="13.1906767"><ele>436.3333333333333</ele><time>2026-05-05T10:12:25.564Z</time></trkpt><trkpt lat="37.9774917" lon="13.1909067"><ele>440.0</ele><time>2026-05-05T10:12:26.564Z</time></trkpt><trkpt lat="37.9774767" lon="13.1911367"><ele>440.0</ele><time>2026-05-05T10:12:27.565Z</time></trkpt><trkpt lat="37.97746" lon="13.191365"><ele>440.0</ele><time>2026-05-05T10:12:28.563Z</time></trkpt><trkpt lat="37.9774467" lon="13.1915883"><ele>440.0</ele><time>2026-05-05T10:12:29.565Z</time></trkpt><trkpt lat="37.977435" lon="13.191805"><ele>439.3333333333333</ele><time>2026-05-05T10:12:30.564Z</time></trkpt><trkpt lat="37.97742" lon="13.1920183"><ele>438.66666666666663</ele><time>2026-05-05T10:12:31.565Z</time></trkpt><trkpt lat="37.977405" lon="13.19223"><ele>438.0</ele><time>2026-05-05T10:12:32.567Z</time></trkpt><trkpt lat="37.97739" lon="13.1924367"><ele>437.66666666666663</ele><time>2026-05-05T10:12:33.565Z</time></trkpt><trkpt lat="37.9773733" lon="13.1926417"><ele>437.3333333333333</ele><time>2026-05-05T10:12:34.565Z</time></trkpt><trkpt lat="37.9773567" lon="13.1928467"><ele>437.0</ele><time>2026-05-05T10:12:35.565Z</time></trkpt><trkpt lat="37.97734" lon="13.1930533"><ele>437.3333333333333</ele><time>2026-05-05T10:12:36.564Z</time></trkpt><trkpt lat="37.9773217" lon="13.1932617"><ele>437.66666666666663</ele><time>2026-05-05T10:12:37.566Z</time></trkpt><trkpt lat="37.9773033" lon="13.1934733"><ele>438.0</ele><time>2026-05-05T10:12:38.564Z</time></trkpt><trkpt lat="37.9772867" lon="13.1936867"><ele>438.0</ele><time>2026-05-05T10:12:39.565Z</time></trkpt><trkpt lat="37.9772717" lon="13.1939033"><ele>438.0</ele><time>2026-05-05T10:12:40.564Z</time></trkpt><trkpt lat="37.9772567" lon="13.194125"><ele>438.0</ele><time>2026-05-05T10:12:41.563Z</time></trkpt><trkpt lat="37.97724" lon="13.1943483"><ele>438.66666666666663</ele><time>2026-05-05T10:12:42.564Z</time></trkpt><trkpt lat="37.977225" lon="13.1945717"><ele>439.3333333333333</ele><time>2026-05-05T10:12:43.564Z</time></trkpt><trkpt lat="37.9772083" lon="13.1947983"><ele>440.0</ele><time>2026-05-05T10:12:44.565Z</time></trkpt><trkpt lat="37.9771917" lon="13.1950233"><ele>440.66666666666663</ele><time>2026-05-05T10:12:45.565Z</time></trkpt><trkpt lat="37.9771753" lon="13.1952533"><ele>441.33333333333337</ele><time>2026-05-05T10:12:46.564Z</time></trkpt><trkpt lat="37.9771576" lon="13.1954835"><ele>442.0</ele><time>2026-05-05T10:12:47.565Z</time></trkpt><trkpt lat="37.9771394" lon="13.1957135"><ele>442.0</ele><time>2026-05-05T10:12:48.564Z</time></trkpt><trkpt lat="37.9771199" lon="13.1959436"><ele>442.0</ele><time>2026-05-05T10:12:49.564Z</time></trkpt><trkpt lat="37.9770957" lon="13.1961747"><ele>442.0</ele><time>2026-05-05T10:12:50.565Z</time></trkpt><trkpt lat="37.9770655" lon="13.1964034"><ele>442.33333333333337</ele><time>2026-05-05T10:12:51.565Z</time></trkpt><trkpt lat="37.9770313" lon="13.1966303"><ele>442.66666666666663</ele><time>2026-05-05T10:12:52.563Z</time></trkpt><trkpt lat="37.9769944" lon="13.1968585"><ele>443.0</ele><time>2026-05-05T10:12:53.565Z</time></trkpt><trkpt lat="37.9769587" lon="13.1970812"><ele>443.0</ele><time>2026-05-05T10:12:54.565Z</time></trkpt><trkpt lat="37.9769204" lon="13.1973015"><ele>443.0</ele><time>2026-05-05T10:12:55.564Z</time></trkpt><trkpt lat="37.9768777" lon="13.1975212"><ele>443.0</ele><time>2026-05-05T10:12:56.564Z</time></trkpt><trkpt lat="37.9768314" lon="13.1977393"><ele>443.66666666666663</ele><time>2026-05-05T10:12:57.565Z</time></trkpt><trkpt lat="37.9767838" lon="13.1979577"><ele>444.33333333333337</ele><time>2026-05-05T10:12:58.564Z</time></trkpt><trkpt lat="37.9767369" lon="13.1981758"><ele>445.0</ele><time>2026-05-05T10:12:59.564Z</time></trkpt><trkpt lat="37.9766878" lon="13.1983953"><ele>450.6666666666667</ele><time>2026-05-05T10:13:00.564Z</time></trkpt><trkpt lat="37.9766372" lon="13.198613"><ele>456.33333333333337</ele><time>2026-05-05T10:13:01.566Z</time></trkpt><trkpt lat="37.9765858" lon="13.1988305"><ele>462.0</ele><time>2026-05-05T10:13:02.565Z</time></trkpt><trkpt lat="37.9765322" lon="13.1990487"><ele>463.33333333333337</ele><time>2026-05-05T10:13:03.565Z</time></trkpt><trkpt lat="37.9764796" lon="13.1992688"><ele>464.6666666666667</ele><time>2026-05-05T10:13:04.565Z</time></trkpt><trkpt lat="37.9764266" lon="13.1994888"><ele>466.0</ele><time>2026-05-05T10:13:05.564Z</time></trkpt><trkpt lat="37.9763742" lon="13.1997078"><ele>467.33333333333337</ele><time>2026-05-05T10:13:06.565Z</time></trkpt><trkpt lat="37.9763192" lon="13.1999274"><ele>468.66666666666663</ele><time>2026-05-05T10:13:07.564Z</time></trkpt><trkpt lat="37.9762652" lon="13.2001449"><ele>470.0</ele><time>2026-05-05T10:13:08.566Z</time></trkpt><trkpt lat="37.9762099" lon="13.2003638"><ele>470.0</ele><time>2026-05-05T10:13:09.566Z</time></trkpt><trkpt lat="37.9761555" lon="13.2005824"><ele>470.0</ele><time>2026-05-05T10:13:10.564Z</time></trkpt><trkpt lat="37.9760995" lon="13.2008033"><ele>470.0</ele><time>2026-05-05T10:13:11.564Z</time></trkpt><trkpt lat="37.9760441" lon="13.2010278"><ele>471.0</ele><time>2026-05-05T10:13:12.565Z</time></trkpt><trkpt lat="37.9759887" lon="13.2012522"><ele>472.0</ele><time>2026-05-05T10:13:13.565Z</time></trkpt><trkpt lat="37.9759313" lon="13.2014782"><ele>473.0</ele><time>2026-05-05T10:13:14.565Z</time></trkpt><trkpt lat="37.9758758" lon="13.2017041"><ele>478.0</ele><time>2026-05-05T10:13:15.564Z</time></trkpt><trkpt lat="37.9758238" lon="13.201934"><ele>483.0</ele><time>2026-05-05T10:13:16.564Z</time></trkpt><trkpt lat="37.9757687" lon="13.2021649"><ele>488.0</ele><time>2026-05-05T10:13:17.565Z</time></trkpt><trkpt lat="37.9757087" lon="13.2023956"><ele>488.0</ele><time>2026-05-05T10:13:18.564Z</time></trkpt><trkpt lat="37.9756486" lon="13.2026246"><ele>488.0</ele><time>2026-05-05T10:13:19.564Z</time></trkpt><trkpt lat="37.975591" lon="13.2028514"><ele>488.0</ele><time>2026-05-05T10:13:20.565Z</time></trkpt><trkpt lat="37.9755332" lon="13.203076"><ele>488.0</ele><time>2026-05-05T10:13:21.565Z</time></trkpt><trkpt lat="37.9754774" lon="13.2032979"><ele>488.0</ele><time>2026-05-05T10:13:22.564Z</time></trkpt><trkpt lat="37.9754235" lon="13.2035168"><ele>488.0</ele><time>2026-05-05T10:13:23.564Z</time></trkpt><trkpt lat="37.9753722" lon="13.203736"><ele>488.0</ele><time>2026-05-05T10:13:24.565Z</time></trkpt><trkpt lat="37.9753207" lon="13.2039521"><ele>488.0</ele><time>2026-05-05T10:13:25.564Z</time></trkpt><trkpt lat="37.9752672" lon="13.2041692"><ele>488.0</ele><time>2026-05-05T10:13:26.565Z</time></trkpt><trkpt lat="37.9752126" lon="13.2043882"><ele>487.66666666666663</ele><time>2026-05-05T10:13:27.564Z</time></trkpt><trkpt lat="37.9751575" lon="13.20461"><ele>487.33333333333337</ele><time>2026-05-05T10:13:28.564Z</time></trkpt><trkpt lat="37.9751068" lon="13.2048335"><ele>487.0</ele><time>2026-05-05T10:13:29.565Z</time></trkpt><trkpt lat="37.9750573" lon="13.2050602"><ele>492.6666666666667</ele><time>2026-05-05T10:13:30.564Z</time></trkpt><trkpt lat="37.9750075" lon="13.2052872"><ele>498.33333333333337</ele><time>2026-05-05T10:13:31.563Z</time></trkpt><trkpt lat="37.9749574" lon="13.2055168"><ele>504.0</ele><time>2026-05-05T10:13:32.564Z</time></trkpt><trkpt lat="37.9749084" lon="13.2057472"><ele>504.0</ele><time>2026-05-05T10:13:33.564Z</time></trkpt><trkpt lat="37.9748618" lon="13.2059805"><ele>504.0</ele><time>2026-05-05T10:13:34.564Z</time></trkpt><trkpt lat="37.9748153" lon="13.2062142"><ele>504.0</ele><time>2026-05-05T10:13:35.566Z</time></trkpt><trkpt lat="37.9747731" lon="13.2064505"><ele>504.66666666666663</ele><time>2026-05-05T10:13:36.564Z</time></trkpt><trkpt lat="37.9747351" lon="13.2066915"><ele>505.3333333333333</ele><time>2026-05-05T10:13:37.565Z</time></trkpt><trkpt lat="37.9747041" lon="13.206931"><ele>506.0</ele><time>2026-05-05T10:13:38.565Z</time></trkpt><trkpt lat="37.9746779" lon="13.2071736"><ele>507.66666666666663</ele><time>2026-05-05T10:13:39.564Z</time></trkpt><trkpt lat="37.9746572" lon="13.2074196"><ele>509.33333333333337</ele><time>2026-05-05T10:13:40.564Z</time></trkpt><trkpt lat="37.9746397" lon="13.2076665"><ele>511.0</ele><time>2026-05-05T10:13:41.564Z</time></trkpt><trkpt lat="37.9746267" lon="13.2079147"><ele>511.0</ele><time>2026-05-05T10:13:42.564Z</time></trkpt><trkpt lat="37.9746185" lon="13.2081659"><ele>511.0</ele><time>2026-05-05T10:13:43.565Z</time></trkpt><trkpt lat="37.9746165" lon="13.2084189"><ele>511.0</ele><time>2026-05-05T10:13:44.564Z</time></trkpt><trkpt lat="37.9746218" lon="13.208671"><ele>511.0</ele><time>2026-05-05T10:13:45.564Z</time></trkpt><trkpt lat="37.9746343" lon="13.2089241"><ele>511.0</ele><time>2026-05-05T10:13:46.563Z</time></trkpt><trkpt lat="37.974654" lon="13.2091775"><ele>511.0</ele><time>2026-05-05T10:13:47.564Z</time></trkpt><trkpt lat="37.9746781" lon="13.2094281"><ele>513.3333333333334</ele><time>2026-05-05T10:13:48.565Z</time></trkpt><trkpt lat="37.9747077" lon="13.209678"><ele>515.6666666666666</ele><time>2026-05-05T10:13:49.564Z</time></trkpt><trkpt lat="37.974743" lon="13.2099267"><ele>518.0</ele><time>2026-05-05T10:13:50.565Z</time></trkpt><trkpt lat="37.9747834" lon="13.2101735"><ele>519.0</ele><time>2026-05-05T10:13:51.565Z</time></trkpt><trkpt lat="37.9748282" lon="13.2104199"><ele>520.0</ele><time>2026-05-05T10:13:52.564Z</time></trkpt><trkpt lat="37.9748778" lon="13.2106638"><ele>521.0</ele><time>2026-05-05T10:13:53.565Z</time></trkpt><trkpt lat="37.9749311" lon="13.2109082"><ele>521.6666666666666</ele><time>2026-05-05T10:13:54.563Z</time></trkpt><trkpt lat="37.9749872" lon="13.2111515"><ele>522.3333333333334</ele><time>2026-05-05T10:13:55.565Z</time></trkpt><trkpt lat="37.9750439" lon="13.2113959"><ele>523.0</ele><time>2026-05-05T10:13:56.564Z</time></trkpt><trkpt lat="37.9750994" lon="13.2116382"><ele>521.3333333333334</ele><time>2026-05-05T10:13:57.564Z</time></trkpt><trkpt lat="37.9751571" lon="13.21188"><ele>519.6666666666666</ele><time>2026-05-05T10:13:58.564Z</time></trkpt><trkpt lat="37.9752159" lon="13.2121202"><ele>518.0</ele><time>2026-05-05T10:13:59.564Z</time></trkpt><trkpt lat="37.9752743" lon="13.2123587"><ele>518.0</ele><time>2026-05-05T10:14:00.563Z</time></trkpt><trkpt lat="37.9753365" lon="13.212597"><ele>518.0</ele><time>2026-05-05T10:14:01.565Z</time></trkpt><trkpt lat="37.9754002" lon="13.2128338"><ele>518.0</ele><time>2026-05-05T10:14:02.564Z</time></trkpt><trkpt lat="37.9754637" lon="13.2130717"><ele>520.6666666666666</ele><time>2026-05-05T10:14:03.564Z</time></trkpt><trkpt lat="37.9755259" lon="13.2133098"><ele>523.3333333333334</ele><time>2026-05-05T10:14:04.565Z</time></trkpt><trkpt lat="37.9755876" lon="13.2135481"><ele>526.0</ele><time>2026-05-05T10:14:05.565Z</time></trkpt><trkpt lat="37.9756474" lon="13.2137867"><ele>528.0</ele><time>2026-05-05T10:14:06.566Z</time></trkpt><trkpt lat="37.9757096" lon="13.2140234"><ele>530.0</ele><time>2026-05-05T10:14:07.565Z</time></trkpt><trkpt lat="37.9757721" lon="13.2142584"><ele>532.0</ele><time>2026-05-05T10:14:08.566Z</time></trkpt><trkpt lat="37.9758327" lon="13.214493"><ele>531.6666666666667</ele><time>2026-05-05T10:14:09.564Z</time></trkpt><trkpt lat="37.9758929" lon="13.2147253"><ele>531.3333333333334</ele><time>2026-05-05T10:14:10.564Z</time></trkpt><trkpt lat="37.9759527" lon="13.2149582"><ele>531.0</ele><time>2026-05-05T10:14:11.564Z</time></trkpt><trkpt lat="37.9760133" lon="13.215194"><ele>531.0</ele><time>2026-05-05T10:14:12.563Z</time></trkpt><trkpt lat="37.9760754" lon="13.2154293"><ele>531.0</ele><time>2026-05-05T10:14:13.565Z</time></trkpt><trkpt lat="37.9761386" lon="13.2156632"><ele>531.0</ele><time>2026-05-05T10:14:14.565Z</time></trkpt><trkpt lat="37.9762039" lon="13.2158976"><ele>533.6666666666666</ele><time>2026-05-05T10:14:15.565Z</time></trkpt><trkpt lat="37.9762723" lon="13.2161312"><ele>536.3333333333333</ele><time>2026-05-05T10:14:16.564Z</time></trkpt><trkpt lat="37.976342" lon="13.2163632"><ele>539.0</ele><time>2026-05-05T10:14:17.565Z</time></trkpt><trkpt lat="37.9764126" lon="13.2165923"><ele>542.0</ele><time>2026-05-05T10:14:18.565Z</time></trkpt><trkpt lat="37.9764828" lon="13.2168202"><ele>545.0</ele><time>2026-05-05T10:14:19.564Z</time></trkpt><trkpt lat="37.9765558" lon="13.217044"><ele>548.0</ele><time>2026-05-05T10:14:20.566Z</time></trkpt><trkpt lat="37.9766299" lon="13.217261"><ele>546.0</ele><time>2026-05-05T10:14:21.564Z</time></trkpt><trkpt lat="37.9767035" lon="13.2174656"><ele>544.0</ele><time>2026-05-05T10:14:22.565Z</time></trkpt><trkpt lat="37.9767738" lon="13.2176562"><ele>542.0</ele><time>2026-05-05T10:14:23.564Z</time></trkpt><trkpt lat="37.9768421" lon="13.2178421"><ele>542.0</ele><time>2026-05-05T10:14:24.564Z</time></trkpt><trkpt lat="37.9769117" lon="13.218028"><ele>542.0</ele><time>2026-05-05T10:14:25.564Z</time></trkpt><trkpt lat="37.9769849" lon="13.2182183"><ele>542.0</ele><time>2026-05-05T10:14:26.567Z</time></trkpt><trkpt lat="37.9770617" lon="13.2184098"><ele>545.3333333333333</ele><time>2026-05-05T10:14:27.565Z</time></trkpt><trkpt lat="37.9771404" lon="13.2186056"><ele>548.6666666666666</ele><time>2026-05-05T10:14:28.565Z</time></trkpt><trkpt lat="37.9772174" lon="13.2188053"><ele>552.0</ele><time>2026-05-05T10:14:29.564Z</time></trkpt><trkpt lat="37.9772939" lon="13.2190072"><ele>553.3333333333334</ele><time>2026-05-05T10:14:30.565Z</time></trkpt><trkpt lat="37.9773737" lon="13.2192094"><ele>554.6666666666667</ele><time>2026-05-05T10:14:31.564Z</time></trkpt><trkpt lat="37.9774569" lon="13.2194143"><ele>556.0</ele><time>2026-05-05T10:14:32.564Z</time></trkpt><trkpt lat="37.9775388" lon="13.2196224"><ele>558.0</ele><time>2026-05-05T10:14:33.565Z</time></trkpt><trkpt lat="37.9776232" lon="13.2198327"><ele>560.0</ele><time>2026-05-05T10:14:34.565Z</time></trkpt><trkpt lat="37.9777071" lon="13.220046"><ele>562.0</ele><time>2026-05-05T10:14:35.563Z</time></trkpt><trkpt lat="37.9777935" lon="13.2202613"><ele>562.0</ele><time>2026-05-05T10:14:36.565Z</time></trkpt><trkpt lat="37.9778822" lon="13.2204779"><ele>562.0</ele><time>2026-05-05T10:14:37.565Z</time></trkpt><trkpt lat="37.977972" lon="13.2206966"><ele>562.0</ele><time>2026-05-05T10:14:38.565Z</time></trkpt><trkpt lat="37.9780604" lon="13.2209182"><ele>564.0</ele><time>2026-05-05T10:14:39.564Z</time></trkpt><trkpt lat="37.9781501" lon="13.2211416"><ele>566.0</ele><time>2026-05-05T10:14:40.564Z</time></trkpt><trkpt lat="37.9782389" lon="13.2213665"><ele>568.0</ele><time>2026-05-05T10:14:41.565Z</time></trkpt><trkpt lat="37.9783273" lon="13.2215913"><ele>567.0</ele><time>2026-05-05T10:14:42.564Z</time></trkpt><trkpt lat="37.9784155" lon="13.2218148"><ele>566.0</ele><time>2026-05-05T10:14:43.564Z</time></trkpt><trkpt lat="37.9785037" lon="13.2220368"><ele>565.0</ele><time>2026-05-05T10:14:44.565Z</time></trkpt><trkpt lat="37.9785907" lon="13.2222569"><ele>567.3333333333334</ele><time>2026-05-05T10:14:45.564Z</time></trkpt><trkpt lat="37.9786773" lon="13.2224751"><ele>569.6666666666666</ele><time>2026-05-05T10:14:46.563Z</time></trkpt><trkpt lat="37.9787643" lon="13.222693"><ele>572.0</ele><time>2026-05-05T10:14:47.564Z</time></trkpt><trkpt lat="37.9788519" lon="13.2229116"><ele>572.0</ele><time>2026-05-05T10:14:48.565Z</time></trkpt><trkpt lat="37.97894" lon="13.2231315"><ele>572.0</ele><time>2026-05-05T10:14:49.564Z</time></trkpt><trkpt lat="37.9790284" lon="13.2233529"><ele>572.0</ele><time>2026-05-05T10:14:50.565Z</time></trkpt><trkpt lat="37.9791156" lon="13.2235734"><ele>571.6666666666666</ele><time>2026-05-05T10:14:51.564Z</time></trkpt><trkpt lat="37.9792049" lon="13.2237951"><ele>571.3333333333334</ele><time>2026-05-05T10:14:52.564Z</time></trkpt><trkpt lat="37.9792936" lon="13.224017"><ele>571.0</ele><time>2026-05-05T10:14:53.564Z</time></trkpt><trkpt lat="37.9793833" lon="13.2242401"><ele>574.0</ele><time>2026-05-05T10:14:54.564Z</time></trkpt><trkpt lat="37.9794723" lon="13.2244622"><ele>577.0</ele><time>2026-05-05T10:14:55.564Z</time></trkpt><trkpt lat="37.9795625" lon="13.2246864"><ele>580.0</ele><time>2026-05-05T10:14:56.565Z</time></trkpt><trkpt lat="37.9796522" lon="13.2249128"><ele>582.3333333333334</ele><time>2026-05-05T10:14:57.564Z</time></trkpt><trkpt lat="37.9797433" lon="13.2251398"><ele>584.6666666666666</ele><time>2026-05-05T10:14:58.564Z</time></trkpt><trkpt lat="37.9798324" lon="13.2253653"><ele>587.0</ele><time>2026-05-05T10:14:59.565Z</time></trkpt><trkpt lat="37.9799222" lon="13.2255917"><ele>587.0</ele><time>2026-05-05T10:15:00.565Z</time></trkpt><trkpt lat="37.9800108" lon="13.2258199"><ele>587.0</ele><time>2026-05-05T10:15:01.565Z</time></trkpt><trkpt lat="37.9800987" lon="13.2260487"><ele>587.0</ele><time>2026-05-05T10:15:02.565Z</time></trkpt><trkpt lat="37.9801855" lon="13.2262811"><ele>589.6666666666666</ele><time>2026-05-05T10:15:03.565Z</time></trkpt><trkpt lat="37.9802706" lon="13.2265148"><ele>592.3333333333334</ele><time>2026-05-05T10:15:04.565Z</time></trkpt><trkpt lat="37.980353" lon="13.226751"><ele>595.0</ele><time>2026-05-05T10:15:05.565Z</time></trkpt><trkpt lat="37.9804341" lon="13.2269878"><ele>595.0</ele><time>2026-05-05T10:15:06.564Z</time></trkpt><trkpt lat="37.9805129" lon="13.2272263"><ele>595.0</ele><time>2026-05-05T10:15:07.565Z</time></trkpt><trkpt lat="37.9805864" lon="13.2274678"><ele>595.0</ele><time>2026-05-05T10:15:08.566Z</time></trkpt><trkpt lat="37.9806576" lon="13.2277123"><ele>596.6666666666667</ele><time>2026-05-05T10:15:09.565Z</time></trkpt><trkpt lat="37.9807246" lon="13.2279591"><ele>598.3333333333334</ele><time>2026-05-05T10:15:10.565Z</time></trkpt><trkpt lat="37.9807881" lon="13.2282076"><ele>600.0</ele><time>2026-05-05T10:15:11.565Z</time></trkpt><trkpt lat="37.9808456" lon="13.2284575"><ele>600.0</ele><time>2026-05-05T10:15:12.565Z</time></trkpt><trkpt lat="37.9809003" lon="13.2287092"><ele>600.0</ele><time>2026-05-05T10:15:13.565Z</time></trkpt><trkpt lat="37.9809499" lon="13.2289613"><ele>600.0</ele><time>2026-05-05T10:15:14.565Z</time></trkpt><trkpt lat="37.9809976" lon="13.2292145"><ele>600.0</ele><time>2026-05-05T10:15:15.564Z</time></trkpt><trkpt lat="37.9810457" lon="13.2294679"><ele>600.0</ele><time>2026-05-05T10:15:16.565Z</time></trkpt><trkpt lat="37.9810928" lon="13.2297217"><ele>600.0</ele><time>2026-05-05T10:15:17.568Z</time></trkpt><trkpt lat="37.9811381" lon="13.2299733"><ele>602.0</ele><time>2026-05-05T10:15:18.563Z</time></trkpt><trkpt lat="37.9811837" lon="13.2302255"><ele>604.0</ele><time>2026-05-05T10:15:19.566Z</time></trkpt><trkpt lat="37.9812287" lon="13.2304771"><ele>606.0</ele><time>2026-05-05T10:15:20.568Z</time></trkpt><trkpt lat="37.9812724" lon="13.2307286"><ele>607.3333333333334</ele><time>2026-05-05T10:15:21.566Z</time></trkpt><trkpt lat="37.9813152" lon="13.2309803"><ele>608.6666666666667</ele><time>2026-05-05T10:15:22.566Z</time></trkpt><trkpt lat="37.9813577" lon="13.231232"><ele>610.0</ele><time>2026-05-05T10:15:23.567Z</time></trkpt><trkpt lat="37.9814001" lon="13.2314849"><ele>612.0</ele><time>2026-05-05T10:15:24.567Z</time></trkpt><trkpt lat="37.9814407" lon="13.231737"><ele>614.0</ele><time>2026-05-05T10:15:25.566Z</time></trkpt><trkpt lat="37.9814821" lon="13.2319888"><ele>616.0</ele><time>2026-05-05T10:15:26.567Z</time></trkpt><trkpt lat="37.9815249" lon="13.2322419"><ele>619.6666666666667</ele><time>2026-05-05T10:15:27.567Z</time></trkpt><trkpt lat="37.9815681" lon="13.232494"><ele>623.3333333333334</ele><time>2026-05-05T10:15:28.567Z</time></trkpt><trkpt lat="37.9816114" lon="13.232748"><ele>627.0</ele><time>2026-05-05T10:15:29.565Z</time></trkpt><trkpt lat="37.9816547" lon="13.233003"><ele>623.0</ele><time>2026-05-05T10:15:30.565Z</time></trkpt><trkpt lat="37.9816957" lon="13.233258"><ele>619.0</ele><time>2026-05-05T10:15:31.564Z</time></trkpt><trkpt lat="37.9817359" lon="13.2335105"><ele>615.0</ele><time>2026-05-05T10:15:32.565Z</time></trkpt><trkpt lat="37.9817784" lon="13.2337648"><ele>617.6666666666666</ele><time>2026-05-05T10:15:33.564Z</time></trkpt><trkpt lat="37.9818224" lon="13.2340184"><ele>620.3333333333333</ele><time>2026-05-05T10:15:34.564Z</time></trkpt><trkpt lat="37.9818685" lon="13.2342718"><ele>623.0</ele><time>2026-05-05T10:15:35.565Z</time></trkpt><trkpt lat="37.981917" lon="13.2345237"><ele>623.0</ele><time>2026-05-05T10:15:36.565Z</time></trkpt><trkpt lat="37.9819656" lon="13.2347767"><ele>623.0</ele><time>2026-05-05T10:15:37.565Z</time></trkpt><trkpt lat="37.9820197" lon="13.2350285"><ele>623.0</ele><time>2026-05-05T10:15:38.564Z</time></trkpt><trkpt lat="37.9820778" lon="13.2352785"><ele>624.0</ele><time>2026-05-05T10:15:39.564Z</time></trkpt><trkpt lat="37.9821414" lon="13.2355256"><ele>625.0</ele><time>2026-05-05T10:15:40.564Z</time></trkpt><trkpt lat="37.9822109" lon="13.235769"><ele>626.0</ele><time>2026-05-05T10:15:41.565Z</time></trkpt><trkpt lat="37.9822893" lon="13.2360089"><ele>627.3333333333333</ele><time>2026-05-05T10:15:42.564Z</time></trkpt><trkpt lat="37.9823764" lon="13.236244"><ele>628.6666666666666</ele><time>2026-05-05T10:15:43.564Z</time></trkpt><trkpt lat="37.9824723" lon="13.2364742"><ele>630.0</ele><time>2026-05-05T10:15:44.565Z</time></trkpt><trkpt lat="37.982576" lon="13.236699"><ele>630.0</ele><time>2026-05-05T10:15:45.564Z</time></trkpt><trkpt lat="37.9826862" lon="13.2369178"><ele>630.0</ele><time>2026-05-05T10:15:46.563Z</time></trkpt><trkpt lat="37.982807" lon="13.2371269"><ele>630.0</ele><time>2026-05-05T10:15:47.563Z</time></trkpt><trkpt lat="37.9829401" lon="13.2373253"><ele>633.3333333333334</ele><time>2026-05-05T10:15:48.565Z</time></trkpt><trkpt lat="37.9830846" lon="13.2375112"><ele>636.6666666666667</ele><time>2026-05-05T10:15:49.565Z</time></trkpt><trkpt lat="37.9832368" lon="13.2376902"><ele>640.0</ele><time>2026-05-05T10:15:50.566Z</time></trkpt><trkpt lat="37.9833967" lon="13.23786"><ele>640.0</ele><time>2026-05-05T10:15:51.565Z</time></trkpt><trkpt lat="37.9835618" lon="13.2380218"><ele>640.0</ele><time>2026-05-05T10:15:52.565Z</time></trkpt><trkpt lat="37.983731" lon="13.2381748"><ele>640.0</ele><time>2026-05-05T10:15:53.565Z</time></trkpt><trkpt lat="37.9839058" lon="13.2383197"><ele>645.3333333333334</ele><time>2026-05-05T10:15:54.564Z</time></trkpt><trkpt lat="37.9840843" lon="13.2384592"><ele>650.6666666666666</ele><time>2026-05-05T10:15:55.567Z</time></trkpt><trkpt lat="37.9842634" lon="13.2385939"><ele>656.0</ele><time>2026-05-05T10:15:56.564Z</time></trkpt><trkpt lat="37.9844464" lon="13.2387208"><ele>658.0</ele><time>2026-05-05T10:15:57.564Z</time></trkpt><trkpt lat="37.9846314" lon="13.2388393"><ele>660.0</ele><time>2026-05-05T10:15:58.565Z</time></trkpt><trkpt lat="37.984818" lon="13.2389538"><ele>662.0</ele><time>2026-05-05T10:15:59.565Z</time></trkpt><trkpt lat="37.9850062" lon="13.2390669"><ele>665.3333333333333</ele><time>2026-05-05T10:16:00.564Z</time></trkpt><trkpt lat="37.9851933" lon="13.2391833"><ele>668.6666666666666</ele><time>2026-05-05T10:16:01.564Z</time></trkpt><trkpt lat="37.9853767" lon="13.2392983"><ele>672.0</ele><time>2026-05-05T10:16:02.565Z</time></trkpt><trkpt lat="37.9855633" lon="13.2394183"><ele>672.0</ele><time>2026-05-05T10:16:03.564Z</time></trkpt><trkpt lat="37.9857483" lon="13.2395367"><ele>672.0</ele><time>2026-05-05T10:16:04.565Z</time></trkpt><trkpt lat="37.9859333" lon="13.2396533"><ele>672.0</ele><time>2026-05-05T10:16:05.563Z</time></trkpt><trkpt lat="37.9861183" lon="13.23977"><ele>674.0</ele><time>2026-05-05T10:16:06.565Z</time></trkpt><trkpt lat="37.9863033" lon="13.2398867"><ele>676.0</ele><time>2026-05-05T10:16:07.563Z</time></trkpt><trkpt lat="37.9864883" lon="13.2400083"><ele>678.0</ele><time>2026-05-05T10:16:08.564Z</time></trkpt><trkpt lat="37.9866767" lon="13.2401233"><ele>676.3333333333334</ele><time>2026-05-05T10:16:09.565Z</time></trkpt><trkpt lat="37.9868683" lon="13.2402283"><ele>674.6666666666667</ele><time>2026-05-05T10:16:10.564Z</time></trkpt><trkpt lat="37.9870667" lon="13.24032"><ele>673.0</ele><time>2026-05-05T10:16:11.564Z</time></trkpt><trkpt lat="37.9872733" lon="13.2403933"><ele>673.0</ele><time>2026-05-05T10:16:12.565Z</time></trkpt><trkpt lat="37.9874833" lon="13.2404483"><ele>673.0</ele><time>2026-05-05T10:16:13.565Z</time></trkpt><trkpt lat="37.987695" lon="13.2404883"><ele>673.0</ele><time>2026-05-05T10:16:14.564Z</time></trkpt><trkpt lat="37.9879083" lon="13.240515"><ele>672.6666666666667</ele><time>2026-05-05T10:16:15.563Z</time></trkpt><trkpt lat="37.9881233" lon="13.2405267"><ele>672.3333333333334</ele><time>2026-05-05T10:16:16.564Z</time></trkpt><trkpt lat="37.9883417" lon="13.2405233"><ele>672.0</ele><time>2026-05-05T10:16:17.565Z</time></trkpt><trkpt lat="37.9885583" lon="13.240505"><ele>672.0</ele><time>2026-05-05T10:16:18.564Z</time></trkpt><trkpt lat="37.9887733" lon="13.2404683"><ele>672.0</ele><time>2026-05-05T10:16:19.565Z</time></trkpt><trkpt lat="37.9889867" lon="13.2404133"><ele>672.0</ele><time>2026-05-05T10:16:20.565Z</time></trkpt><trkpt lat="37.9891983" lon="13.240345"><ele>673.6666666666666</ele><time>2026-05-05T10:16:21.565Z</time></trkpt><trkpt lat="37.989405" lon="13.2402633"><ele>675.3333333333333</ele><time>2026-05-05T10:16:22.565Z</time></trkpt><trkpt lat="37.9896067" lon="13.240165"><ele>677.0</ele><time>2026-05-05T10:16:23.564Z</time></trkpt><trkpt lat="37.9898033" lon="13.2400467"><ele>677.0</ele><time>2026-05-05T10:16:24.566Z</time></trkpt><trkpt lat="37.9899917" lon="13.2399167"><ele>677.0</ele><time>2026-05-05T10:16:25.565Z</time></trkpt><trkpt lat="37.9901767" lon="13.239775"><ele>677.0</ele><time>2026-05-05T10:16:26.566Z</time></trkpt><trkpt lat="37.9903583" lon="13.239625"><ele>675.0</ele><time>2026-05-05T10:16:27.565Z</time></trkpt><trkpt lat="37.9905367" lon="13.2394767"><ele>673.0</ele><time>2026-05-05T10:16:28.564Z</time></trkpt><trkpt lat="37.990715" lon="13.23933"><ele>671.0</ele><time>2026-05-05T10:16:29.564Z</time></trkpt><trkpt lat="37.9908917" lon="13.239185"><ele>675.0</ele><time>2026-05-05T10:16:30.564Z</time></trkpt><trkpt lat="37.991065" lon="13.2390433"><ele>679.0</ele><time>2026-05-05T10:16:31.564Z</time></trkpt><trkpt lat="37.9912383" lon="13.2389033"><ele>683.0</ele><time>2026-05-05T10:16:32.564Z</time></trkpt><trkpt lat="37.99141" lon="13.2387633"><ele>683.0</ele><time>2026-05-05T10:16:33.565Z</time></trkpt><trkpt lat="37.99158" lon="13.238625"><ele>683.0</ele><time>2026-05-05T10:16:34.565Z</time></trkpt><trkpt lat="37.9917467" lon="13.2384883"><ele>683.0</ele><time>2026-05-05T10:16:35.564Z</time></trkpt><trkpt lat="37.9919133" lon="13.238355"><ele>680.6666666666666</ele><time>2026-05-05T10:16:36.564Z</time></trkpt><trkpt lat="37.99208" lon="13.2382233"><ele>678.3333333333334</ele><time>2026-05-05T10:16:37.565Z</time></trkpt><trkpt lat="37.9922467" lon="13.238095"><ele>676.0</ele><time>2026-05-05T10:16:38.564Z</time></trkpt><trkpt lat="37.992415" lon="13.2379717"><ele>682.3333333333334</ele><time>2026-05-05T10:16:39.565Z</time></trkpt><trkpt lat="37.9925817" lon="13.2378533"><ele>688.6666666666666</ele><time>2026-05-05T10:16:40.565Z</time></trkpt><trkpt lat="37.9927517" lon="13.2377433"><ele>695.0</ele><time>2026-05-05T10:16:41.564Z</time></trkpt><trkpt lat="37.9929217" lon="13.237645"><ele>695.0</ele><time>2026-05-05T10:16:42.564Z</time></trkpt><trkpt lat="37.993095" lon="13.2375617"><ele>695.0</ele><time>2026-05-05T10:16:43.564Z</time></trkpt><trkpt lat="37.9932667" lon="13.2374933"><ele>695.0</ele><time>2026-05-05T10:16:44.565Z</time></trkpt><trkpt lat="37.9934417" lon="13.2374383"><ele>695.6666666666666</ele><time>2026-05-05T10:16:45.563Z</time></trkpt><trkpt lat="37.9936167" lon="13.237395"><ele>696.3333333333334</ele><time>2026-05-05T10:16:46.564Z</time></trkpt><trkpt lat="37.9937933" lon="13.2373633"><ele>697.0</ele><time>2026-05-05T10:16:47.564Z</time></trkpt><trkpt lat="37.9939717" lon="13.2373433"><ele>697.0</ele><time>2026-05-05T10:16:48.565Z</time></trkpt><trkpt lat="37.99415" lon="13.23734"><ele>697.0</ele><time>2026-05-05T10:16:49.565Z</time></trkpt><trkpt lat="37.9943267" lon="13.237355"><ele>697.0</ele><time>2026-05-05T10:16:50.565Z</time></trkpt><trkpt lat="37.994505" lon="13.2373867"><ele>686.6666666666667</ele><time>2026-05-05T10:16:51.565Z</time></trkpt><trkpt lat="37.9946817" lon="13.2374333"><ele>676.3333333333334</ele><time>2026-05-05T10:16:52.566Z</time></trkpt><trkpt lat="37.9948617" lon="13.2374917"><ele>666.0</ele><time>2026-05-05T10:16:53.565Z</time></trkpt><trkpt lat="37.9950383" lon="13.237565"><ele>658.6666666666666</ele><time>2026-05-05T10:16:54.565Z</time></trkpt><trkpt lat="37.9952167" lon="13.2376517"><ele>651.3333333333333</ele><time>2026-05-05T10:16:55.564Z</time></trkpt><trkpt lat="37.9953933" lon="13.2377467"><ele>644.0</ele><time>2026-05-05T10:16:56.565Z</time></trkpt><trkpt lat="37.9955683" lon="13.2378517"><ele>644.0</ele><time>2026-05-05T10:16:57.564Z</time></trkpt><trkpt lat="37.9957417" lon="13.2379633"><ele>644.0</ele><time>2026-05-05T10:16:58.565Z</time></trkpt><trkpt lat="37.9959133" lon="13.2380817"><ele>644.0</ele><time>2026-05-05T10:16:59.565Z</time></trkpt><trkpt lat="37.9960833" lon="13.2382017"><ele>653.6666666666666</ele><time>2026-05-05T10:17:00.566Z</time></trkpt><trkpt lat="37.9962517" lon="13.238325"><ele>663.3333333333334</ele><time>2026-05-05T10:17:01.565Z</time></trkpt><trkpt lat="37.9964217" lon="13.23845"><ele>673.0</ele><time>2026-05-05T10:17:02.564Z</time></trkpt><trkpt lat="37.99659" lon="13.2385733"><ele>670.6666666666667</ele><time>2026-05-05T10:17:03.564Z</time></trkpt><trkpt lat="37.99676" lon="13.2386983"><ele>668.3333333333334</ele><time>2026-05-05T10:17:04.565Z</time></trkpt><trkpt lat="37.9969317" lon="13.238825"><ele>666.0</ele><time>2026-05-05T10:17:05.564Z</time></trkpt><trkpt lat="37.9971017" lon="13.2389517"><ele>673.3333333333334</ele><time>2026-05-05T10:17:06.564Z</time></trkpt><trkpt lat="37.9972717" lon="13.2390783"><ele>680.6666666666667</ele><time>2026-05-05T10:17:07.565Z</time></trkpt><trkpt lat="37.9974433" lon="13.2392033"><ele>688.0</ele><time>2026-05-05T10:17:08.564Z</time></trkpt><trkpt lat="37.9976133" lon="13.2393267"><ele>688.0</ele><time>2026-05-05T10:17:09.565Z</time></trkpt><trkpt lat="37.997785" lon="13.23945"><ele>688.0</ele><time>2026-05-05T10:17:10.564Z</time></trkpt><trkpt lat="37.9979567" lon="13.2395767"><ele>688.0</ele><time>2026-05-05T10:17:11.564Z</time></trkpt><trkpt lat="37.9981267" lon="13.2397017"><ele>695.6666666666667</ele><time>2026-05-05T10:17:12.565Z</time></trkpt><trkpt lat="37.9982967" lon="13.239825"><ele>703.3333333333334</ele><time>2026-05-05T10:17:13.564Z</time></trkpt><trkpt lat="37.9984683" lon="13.23995"><ele>711.0</ele><time>2026-05-05T10:17:14.564Z</time></trkpt><trkpt lat="37.9986383" lon="13.2400767"><ele>711.0</ele><time>2026-05-05T10:17:15.567Z</time></trkpt><trkpt lat="37.99881" lon="13.2402067"><ele>711.0</ele><time>2026-05-05T10:17:16.564Z</time></trkpt><trkpt lat="37.99898" lon="13.2403333"><ele>711.0</ele><time>2026-05-05T10:17:17.565Z</time></trkpt><trkpt lat="37.99915" lon="13.2404617"><ele>714.3333333333334</ele><time>2026-05-05T10:17:18.565Z</time></trkpt><trkpt lat="37.9993233" lon="13.2405883"><ele>717.6666666666667</ele><time>2026-05-05T10:17:19.565Z</time></trkpt><trkpt lat="37.9994967" lon="13.240715"><ele>721.0</ele><time>2026-05-05T10:17:20.564Z</time></trkpt><trkpt lat="37.99967" lon="13.2408417"><ele>723.3333333333334</ele><time>2026-05-05T10:17:21.565Z</time></trkpt><trkpt lat="37.999845" lon="13.24097"><ele>725.6666666666666</ele><time>2026-05-05T10:17:22.565Z</time></trkpt><trkpt lat="38.0000217" lon="13.2410933"><ele>728.0</ele><time>2026-05-05T10:17:23.565Z</time></trkpt><trkpt lat="38.0002033" lon="13.2412167"><ele>728.0</ele><time>2026-05-05T10:17:24.565Z</time></trkpt><trkpt lat="38.0003867" lon="13.2413383"><ele>728.0</ele><time>2026-05-05T10:17:25.565Z</time></trkpt><trkpt lat="38.0005767" lon="13.2414567"><ele>728.0</ele><time>2026-05-05T10:17:26.565Z</time></trkpt><trkpt lat="38.0007733" lon="13.2415683"><ele>727.6666666666666</ele><time>2026-05-05T10:17:27.565Z</time></trkpt><trkpt lat="38.000975" lon="13.24167"><ele>727.3333333333334</ele><time>2026-05-05T10:17:28.563Z</time></trkpt><trkpt lat="38.001185" lon="13.24176"><ele>727.0</ele><time>2026-05-05T10:17:29.564Z</time></trkpt><trkpt lat="38.0013967" lon="13.2418367"><ele>727.0</ele><time>2026-05-05T10:17:30.564Z</time></trkpt><trkpt lat="38.0016117" lon="13.2418967"><ele>727.0</ele><time>2026-05-05T10:17:31.564Z</time></trkpt><trkpt lat="38.0018317" lon="13.2419417"><ele>727.0</ele><time>2026-05-05T10:17:32.564Z</time></trkpt><trkpt lat="38.0020517" lon="13.2419717"><ele>728.0</ele><time>2026-05-05T10:17:33.563Z</time></trkpt><trkpt lat="38.00227" lon="13.2419933"><ele>729.0</ele><time>2026-05-05T10:17:34.564Z</time></trkpt><trkpt lat="38.00249" lon="13.2420083"><ele>730.0</ele><time>2026-05-05T10:17:35.564Z</time></trkpt><trkpt lat="38.00271" lon="13.2420167"><ele>730.0</ele><time>2026-05-05T10:17:36.564Z</time></trkpt><trkpt lat="38.00293" lon="13.2420167"><ele>730.0</ele><time>2026-05-05T10:17:37.565Z</time></trkpt><trkpt lat="38.0031483" lon="13.242015"><ele>730.0</ele><time>2026-05-05T10:17:38.565Z</time></trkpt><trkpt lat="38.0033667" lon="13.2420083"><ele>734.0</ele><time>2026-05-05T10:17:39.564Z</time></trkpt><trkpt lat="38.0035833" lon="13.2420017"><ele>738.0</ele><time>2026-05-05T10:17:40.563Z</time></trkpt><trkpt lat="38.0038" lon="13.2419983"><ele>742.0</ele><time>2026-05-05T10:17:41.565Z</time></trkpt><trkpt lat="38.0040167" lon="13.241995"><ele>740.6666666666667</ele><time>2026-05-05T10:17:42.565Z</time></trkpt><trkpt lat="38.0042317" lon="13.2419933"><ele>739.3333333333334</ele><time>2026-05-05T10:17:43.565Z</time></trkpt><trkpt lat="38.0044433" lon="13.2419933"><ele>738.0</ele><time>2026-05-05T10:17:44.565Z</time></trkpt><trkpt lat="38.0046533" lon="13.2419883"><ele>738.0</ele><time>2026-05-05T10:17:45.564Z</time></trkpt><trkpt lat="38.00486" lon="13.2419833"><ele>738.0</ele><time>2026-05-05T10:17:46.565Z</time></trkpt><trkpt lat="38.005065" lon="13.2419767"><ele>738.0</ele><time>2026-05-05T10:17:47.564Z</time></trkpt><trkpt lat="38.0052717" lon="13.2419717"><ele>745.0</ele><time>2026-05-05T10:17:48.565Z</time></trkpt><trkpt lat="38.005475" lon="13.2419667"><ele>752.0</ele><time>2026-05-05T10:17:49.564Z</time></trkpt><trkpt lat="37.9993233" lon="13.2405883"><ele>744.0</ele><time>2026-05-05T10:17:19.565Z</time></trkpt><trkpt lat="37.9994967" lon="13.240715"><ele>736.0</ele><time>2026-05-05T10:17:20.564Z</time></trkpt><trkpt lat="37.99967" lon="13.2408417"><ele>728.0</ele><time>2026-05-05T10:17:21.565Z</time></trkpt><trkpt lat="37.999845" lon="13.24097"><ele>728.0</ele><time>2026-05-05T10:17:22.565Z</time></trkpt><trkpt lat="38.0000217" lon="13.2410933"><ele>728.0</ele><time>2026-05-05T10:17:23.565Z</time></trkpt><trkpt lat="38.0002033" lon="13.2412167"><ele>728.0</ele><time>2026-05-05T10:17:24.565Z</time></trkpt><trkpt lat="38.0003867" lon="13.2413383"><ele>728.0</ele><time>2026-05-05T10:17:25.565Z</time></trkpt><trkpt lat="38.0005767" lon="13.2414567"><ele>728.0</ele><time>2026-05-05T10:17:26.565Z</time></trkpt><trkpt lat="38.0007733" lon="13.2415683"><ele>728.0</ele><time>2026-05-05T10:17:27.565Z</time></trkpt><trkpt lat="38.000975" lon="13.24167"><ele>727.6666666666666</ele><time>2026-05-05T10:17:28.563Z</time></trkpt><trkpt lat="38.001185" lon="13.24176"><ele>727.3333333333334</ele><time>2026-05-05T10:17:29.564Z</time></trkpt><trkpt lat="38.0013967" lon="13.2418367"><ele>727.0</ele><time>2026-05-05T10:17:30.564Z</time></trkpt><trkpt lat="38.0016117" lon="13.2418967"><ele>729.3333333333334</ele><time>2026-05-05T10:17:31.564Z</time></trkpt><trkpt lat="38.0018317" lon="13.2419417"><ele>731.6666666666666</ele><time>2026-05-05T10:17:32.564Z</time></trkpt><trkpt lat="38.0020517" lon="13.2419717"><ele>734.0</ele><time>2026-05-05T10:17:33.563Z</time></trkpt><trkpt lat="38.00227" lon="13.2419933"><ele>734.0</ele><time>2026-05-05T10:17:34.564Z</time></trkpt><trkpt lat="38.00249" lon="13.2420083"><ele>734.0</ele><time>2026-05-05T10:17:35.564Z</time></trkpt><trkpt lat="38.00271" lon="13.2420167"><ele>734.0</ele><time>2026-05-05T10:17:36.564Z</time></trkpt><trkpt lat="38.00293" lon="13.2420167"><ele>732.6666666666666</ele><time>2026-05-05T10:17:37.565Z</time></trkpt><trkpt lat="38.0031483" lon="13.242015"><ele>731.3333333333334</ele><time>2026-05-05T10:17:38.565Z</time></trkpt><trkpt lat="38.0033667" lon="13.2420083"><ele>730.0</ele><time>2026-05-05T10:17:39.564Z</time></trkpt><trkpt lat="38.0035833" lon="13.2420017"><ele>732.6666666666667</ele><time>2026-05-05T10:17:40.563Z</time></trkpt><trkpt lat="38.0038" lon="13.2419983"><ele>735.3333333333334</ele><time>2026-05-05T10:17:41.565Z</time></trkpt><trkpt lat="38.0040167" lon="13.241995"><ele>738.0</ele><time>2026-05-05T10:17:42.565Z</time></trkpt><trkpt lat="38.0042317" lon="13.2419933"><ele>738.0</ele><time>2026-05-05T10:17:43.565Z</time></trkpt><trkpt lat="38.0044433" lon="13.2419933"><ele>738.0</ele><time>2026-05-05T10:17:44.565Z</time></trkpt><trkpt lat="38.0046533" lon="13.2419883"><ele>738.0</ele><time>2026-05-05T10:17:45.564Z</time></trkpt><trkpt lat="38.00486" lon="13.2419833"><ele>742.6666666666666</ele><time>2026-05-05T10:17:46.565Z</time></trkpt><trkpt lat="38.005065" lon="13.2419767"><ele>747.3333333333333</ele><time>2026-05-05T10:17:47.564Z</time></trkpt><trkpt lat="38.0052717" lon="13.2419717"><ele>752.0</ele><time>2026-05-05T10:17:48.565Z</time></trkpt><trkpt lat="38.005475" lon="13.2419667"><ele>752.0</ele><time>2026-05-05T10:17:49.564Z</time></trkpt><trkpt lat="38.0056783" lon="13.2419617"><ele>752.0</ele><time>2026-05-05T10:17:50.564Z</time></trkpt><trkpt lat="38.00588" lon="13.2419583"><ele>752.0</ele><time>2026-05-05T10:17:51.565Z</time></trkpt><trkpt lat="38.0060833" lon="13.241955"><ele>761.6666666666666</ele><time>2026-05-05T10:17:52.565Z</time></trkpt><trkpt lat="38.0062883" lon="13.241955"><ele>771.3333333333333</ele><time>2026-05-05T10:17:53.564Z</time></trkpt><trkpt lat="38.0064933" lon="13.24196"><ele>781.0</ele><time>2026-05-05T10:17:54.565Z</time></trkpt><trkpt lat="38.0066967" lon="13.24197"><ele>786.3333333333333</ele><time>2026-05-05T10:17:55.564Z</time></trkpt><trkpt lat="38.0069" lon="13.2419917"><ele>791.6666666666667</ele><time>2026-05-05T10:17:56.565Z</time></trkpt><trkpt lat="38.0071033" lon="13.2420267"><ele>797.0</ele><time>2026-05-05T10:17:57.564Z</time></trkpt><trkpt lat="38.007305" lon="13.242075"><ele>797.0</ele><time>2026-05-05T10:17:58.565Z</time></trkpt><trkpt lat="38.007505" lon="13.24213"><ele>797.0</ele><time>2026-05-05T10:17:59.563Z</time></trkpt><trkpt lat="38.007705" lon="13.24219"><ele>797.0</ele><time>2026-05-05T10:18:00.564Z</time></trkpt><trkpt lat="38.0079017" lon="13.2422617"><ele>793.0</ele><time>2026-05-05T10:18:01.564Z</time></trkpt><trkpt lat="38.0080983" lon="13.2423467"><ele>789.0</ele><time>2026-05-05T10:18:02.565Z</time></trkpt><trkpt lat="38.0082933" lon="13.24244"><ele>785.0</ele><time>2026-05-05T10:18:03.564Z</time></trkpt><trkpt lat="38.0084867" lon="13.2425383"><ele>785.0</ele><time>2026-05-05T10:18:04.567Z</time></trkpt><trkpt lat="38.008675" lon="13.2426483"><ele>785.0</ele><time>2026-05-05T10:18:05.565Z</time></trkpt><trkpt lat="38.008865" lon="13.242765"><ele>785.0</ele><time>2026-05-05T10:18:06.564Z</time></trkpt><trkpt lat="38.0090517" lon="13.242885"><ele>786.6666666666667</ele><time>2026-05-05T10:18:07.564Z</time></trkpt><trkpt lat="38.0092417" lon="13.2430067"><ele>788.3333333333333</ele><time>2026-05-05T10:18:08.565Z</time></trkpt><trkpt lat="38.009435" lon="13.2431317"><ele>790.0</ele><time>2026-05-05T10:18:09.565Z</time></trkpt><trkpt lat="38.0096267" lon="13.24326"><ele>791.0</ele><time>2026-05-05T10:18:10.564Z</time></trkpt><trkpt lat="38.0098183" lon="13.2433967"><ele>792.0</ele><time>2026-05-05T10:18:11.564Z</time></trkpt><trkpt lat="38.01001" lon="13.2435383"><ele>793.0</ele><time>2026-05-05T10:18:12.565Z</time></trkpt><trkpt lat="38.0102017" lon="13.2436833"><ele>793.0</ele><time>2026-05-05T10:18:13.564Z</time></trkpt><trkpt lat="38.010395" lon="13.24383"><ele>793.0</ele><time>2026-05-05T10:18:14.564Z</time></trkpt><trkpt lat="38.01059" lon="13.243975"><ele>796.0</ele><time>2026-05-05T10:18:15.564Z</time></trkpt><trkpt lat="38.0107883" lon="13.2441133"><ele>799.0</ele><time>2026-05-05T10:18:16.563Z</time></trkpt><trkpt lat="38.0109883" lon="13.2442483"><ele>801.0</ele><time>2026-05-05T10:18:17.564Z</time></trkpt><trkpt lat="38.01119" lon="13.244385"><ele>803.0</ele><time>2026-05-05T10:18:18.565Z</time></trkpt><trkpt lat="38.0113933" lon="13.2445217"><ele>803.0</ele><time>2026-05-05T10:18:19.564Z</time></trkpt><trkpt lat="38.0116" lon="13.2446583"><ele>803.0</ele><time>2026-05-05T10:18:20.565Z</time></trkpt><trkpt lat="38.0118067" lon="13.24479"><ele>799.5</ele><time>2026-05-05T10:18:21.563Z</time></trkpt><trkpt lat="38.0120133" lon="13.2449217"><ele>796.0</ele><time>2026-05-05T10:18:22.565Z</time></trkpt><trkpt lat="38.012215" lon="13.245045"><ele>796.0</ele><time>2026-05-05T10:18:23.563Z</time></trkpt><trkpt lat="38.0124167" lon="13.2451617"><ele>796.0</ele><time>2026-05-05T10:18:24.564Z</time></trkpt><trkpt lat="38.012615" lon="13.2452717"><ele>796.0</ele><time>2026-05-05T10:18:25.564Z</time></trkpt><trkpt lat="38.012815" lon="13.2453833"><ele>796.3333333333333</ele><time>2026-05-05T10:18:26.565Z</time></trkpt><trkpt lat="38.0130133" lon="13.245495"><ele>796.6666666666667</ele><time>2026-05-05T10:18:27.564Z</time></trkpt><trkpt lat="38.013215" lon="13.2456"><ele>797.0</ele><time>2026-05-05T10:18:28.564Z</time></trkpt><trkpt lat="38.0134233" lon="13.2457033"><ele>791.0</ele><time>2026-05-05T10:18:29.566Z</time></trkpt><trkpt lat="38.0136317" lon="13.2458017"><ele>785.0</ele><time>2026-05-05T10:18:30.564Z</time></trkpt><trkpt lat="38.013845" lon="13.2459017"><ele>785.0</ele><time>2026-05-05T10:18:31.565Z</time></trkpt><trkpt lat="38.0140667" lon="13.2459883"><ele>785.0</ele><time>2026-05-05T10:18:32.564Z</time></trkpt><trkpt lat="38.0142867" lon="13.2460767"><ele>784.5</ele><time>2026-05-05T10:18:33.565Z</time></trkpt><trkpt lat="38.0145067" lon="13.2461683"><ele>784.0</ele><time>2026-05-05T10:18:34.564Z</time></trkpt><trkpt lat="38.01473" lon="13.2462633"><ele>784.0</ele><time>2026-05-05T10:18:35.564Z</time></trkpt><trkpt lat="38.014955" lon="13.24636"><ele>784.0</ele><time>2026-05-05T10:18:36.564Z</time></trkpt><trkpt lat="38.01518" lon="13.246455"><ele>776.0</ele><time>2026-05-05T10:18:37.564Z</time></trkpt><trkpt lat="38.0154067" lon="13.2465517"><ele>768.0</ele><time>2026-05-05T10:18:38.565Z</time></trkpt><trkpt lat="38.015635" lon="13.24665"><ele>766.0</ele><time>2026-05-05T10:18:39.564Z</time></trkpt><trkpt lat="38.0158633" lon="13.2467467"><ele>764.0</ele><time>2026-05-05T10:18:40.565Z</time></trkpt><trkpt lat="38.0160933" lon="13.2468467"><ele>764.0</ele><time>2026-05-05T10:18:41.564Z</time></trkpt><trkpt lat="38.0163217" lon="13.246945"><ele>764.0</ele><time>2026-05-05T10:18:42.563Z</time></trkpt><trkpt lat="38.01655" lon="13.2470417"><ele>762.5</ele><time>2026-05-05T10:18:43.564Z</time></trkpt><trkpt lat="38.016775" lon="13.2471333"><ele>761.0</ele><time>2026-05-05T10:18:44.565Z</time></trkpt><trkpt lat="38.017" lon="13.2472283"><ele>756.5</ele><time>2026-05-05T10:18:45.564Z</time></trkpt><trkpt lat="38.01722" lon="13.2473217"><ele>752.0</ele><time>2026-05-05T10:18:46.564Z</time></trkpt><trkpt lat="38.0174367" lon="13.2474133"><ele>751.0</ele><time>2026-05-05T10:18:47.563Z</time></trkpt><trkpt lat="38.0176467" lon="13.2475"><ele>750.0</ele><time>2026-05-05T10:18:48.565Z</time></trkpt><trkpt lat="38.01785" lon="13.247585"><ele>749.0</ele><time>2026-05-05T10:18:49.564Z</time></trkpt><trkpt lat="38.01805" lon="13.247665"><ele>749.0</ele><time>2026-05-05T10:18:50.565Z</time></trkpt><trkpt lat="38.0182417" lon="13.2477367"><ele>749.0</ele><time>2026-05-05T10:18:51.566Z</time></trkpt><trkpt lat="38.0184217" lon="13.247795"><ele>749.0</ele><time>2026-05-05T10:18:52.564Z</time></trkpt><trkpt lat="38.0185883" lon="13.2478483"><ele>749.0</ele><time>2026-05-05T10:18:53.565Z</time></trkpt><trkpt lat="38.0187417" lon="13.2478983"><ele>749.0</ele><time>2026-05-05T10:18:54.564Z</time></trkpt><trkpt lat="38.0188883" lon="13.2479433"><ele>749.0</ele><time>2026-05-05T10:18:55.563Z</time></trkpt><trkpt lat="38.0190333" lon="13.2479833"><ele>748.25</ele><time>2026-05-05T10:18:56.565Z</time></trkpt><trkpt lat="38.01918" lon="13.2480167"><ele>747.5</ele><time>2026-05-05T10:18:57.564Z</time></trkpt><trkpt lat="38.0193283" lon="13.248045"><ele>746.75</ele><time>2026-05-05T10:18:58.563Z</time></trkpt><trkpt lat="38.0194733" lon="13.2480617"><ele>746.0</ele><time>2026-05-05T10:18:59.564Z</time></trkpt><trkpt lat="38.01962" lon="13.24807"><ele>746.0</ele><time>2026-05-05T10:19:00.565Z</time></trkpt><trkpt lat="38.0197683" lon="13.2480667"><ele>746.0</ele><time>2026-05-05T10:19:01.565Z</time></trkpt><trkpt lat="38.0199217" lon="13.2480533"><ele>746.0</ele><time>2026-05-05T10:19:02.565Z</time></trkpt><trkpt lat="38.0200767" lon="13.2480317"><ele>743.6666666666666</ele><time>2026-05-05T10:19:03.565Z</time></trkpt><trkpt lat="38.0202317" lon="13.2479967"><ele>741.3333333333334</ele><time>2026-05-05T10:19:04.563Z</time></trkpt><trkpt lat="38.0203817" lon="13.2479517"><ele>739.0</ele><time>2026-05-05T10:19:05.563Z</time></trkpt><trkpt lat="38.0205317" lon="13.2478983"><ele>739.0</ele><time>2026-05-05T10:19:06.565Z</time></trkpt><trkpt lat="38.02068" lon="13.2478367"><ele>739.0</ele><time>2026-05-05T10:19:07.565Z</time></trkpt><trkpt lat="38.0208333" lon="13.247765"><ele>739.0</ele><time>2026-05-05T10:19:08.565Z</time></trkpt><trkpt lat="38.0209883" lon="13.2476883"><ele>736.3333333333334</ele><time>2026-05-05T10:19:09.565Z</time></trkpt><trkpt lat="38.0211417" lon="13.2476117"><ele>733.6666666666666</ele><time>2026-05-05T10:19:10.564Z</time></trkpt><trkpt lat="38.0212967" lon="13.2475367"><ele>731.0</ele><time>2026-05-05T10:19:11.564Z</time></trkpt><trkpt lat="38.0214517" lon="13.247465"><ele>731.0</ele><time>2026-05-05T10:19:12.563Z</time></trkpt><trkpt lat="38.0215983" lon="13.2473917"><ele>731.0</ele><time>2026-05-05T10:19:13.565Z</time></trkpt><trkpt lat="38.02173" lon="13.2473267"><ele>731.0</ele><time>2026-05-05T10:19:14.564Z</time></trkpt><trkpt lat="38.021845" lon="13.2472767"><ele>731.0</ele><time>2026-05-05T10:19:15.564Z</time></trkpt><trkpt lat="38.0219483" lon="13.247255"><ele>731.4</ele><time>2026-05-05T10:19:16.565Z</time></trkpt><trkpt lat="38.0220467" lon="13.247275"><ele>731.8</ele><time>2026-05-05T10:19:17.565Z</time></trkpt><trkpt lat="38.02214" lon="13.24733"><ele>732.1999999999999</ele><time>2026-05-05T10:19:18.563Z</time></trkpt><trkpt lat="38.022225" lon="13.247395"><ele>732.5999999999999</ele><time>2026-05-05T10:19:19.564Z</time></trkpt><trkpt lat="38.022305" lon="13.2474583"><ele>733.0</ele><time>2026-05-05T10:19:20.565Z</time></trkpt><trkpt lat="38.0223833" lon="13.247515"><ele>731.3333333333334</ele><time>2026-05-05T10:19:21.565Z</time></trkpt><trkpt lat="38.0224633" lon="13.2475633"><ele>729.6666666666667</ele><time>2026-05-05T10:19:22.565Z</time></trkpt><trkpt lat="38.0225417" lon="13.2475967"><ele>728.0</ele><time>2026-05-05T10:19:23.564Z</time></trkpt><trkpt lat="38.022615" lon="13.2476083"><ele>726.3333333333334</ele><time>2026-05-05T10:19:24.563Z</time></trkpt><trkpt lat="38.02268" lon="13.247615"><ele>724.6666666666666</ele><time>2026-05-05T10:19:25.564Z</time></trkpt><trkpt lat="38.0227883" lon="13.247625"><ele>723.0</ele><time>2026-05-05T10:19:27.565Z</time></trkpt><trkpt lat="38.0228983" lon="13.2476483"><ele>721.4</ele><time>2026-05-05T10:19:29.564Z</time></trkpt><trkpt lat="38.0229717" lon="13.247645"><ele>719.8</ele><time>2026-05-05T10:19:30.565Z</time></trkpt><trkpt lat="38.02305" lon="13.2476183"><ele>718.2</ele><time>2026-05-05T10:19:31.564Z</time></trkpt><trkpt lat="38.023135" lon="13.24757"><ele>716.6</ele><time>2026-05-05T10:19:32.565Z</time></trkpt><trkpt lat="38.0232233" lon="13.2475083"><ele>715.0</ele><time>2026-05-05T10:19:33.565Z</time></trkpt><trkpt lat="38.0233183" lon="13.24744"><ele>714.75</ele><time>2026-05-05T10:19:34.565Z</time></trkpt><trkpt lat="38.0234183" lon="13.247365"><ele>714.5</ele><time>2026-05-05T10:19:35.565Z</time></trkpt><trkpt lat="38.02352" lon="13.2472833"><ele>714.25</ele><time>2026-05-05T10:19:36.565Z</time></trkpt><trkpt lat="38.023625" lon="13.2471967"><ele>714.0</ele><time>2026-05-05T10:19:37.564Z</time></trkpt><trkpt lat="38.0237267" lon="13.2471033"><ele>714.0</ele><time>2026-05-05T10:19:38.565Z</time></trkpt><trkpt lat="38.0238317" lon="13.2470083"><ele>714.0</ele><time>2026-05-05T10:19:39.564Z</time></trkpt><trkpt lat="38.02394" lon="13.24691"><ele>714.0</ele><time>2026-05-05T10:19:40.563Z</time></trkpt><trkpt lat="38.0240517" lon="13.24681"><ele>714.0</ele><time>2026-05-05T10:19:41.565Z</time></trkpt><trkpt lat="38.024165" lon="13.2467067"><ele>712.75</ele><time>2026-05-05T10:19:42.564Z</time></trkpt><trkpt lat="38.02428" lon="13.2466067"><ele>711.5</ele><time>2026-05-05T10:19:43.565Z</time></trkpt><trkpt lat="38.0243967" lon="13.246505"><ele>710.25</ele><time>2026-05-05T10:19:44.565Z</time></trkpt><trkpt lat="38.02452" lon="13.2464017"><ele>709.0</ele><time>2026-05-05T10:19:45.564Z</time></trkpt><trkpt lat="38.0246433" lon="13.2462967"><ele>709.0</ele><time>2026-05-05T10:19:46.564Z</time></trkpt><trkpt lat="38.02477" lon="13.2461867"><ele>709.0</ele><time>2026-05-05T10:19:47.565Z</time></trkpt><trkpt lat="38.024905" lon="13.2460833"><ele>709.0</ele><time>2026-05-05T10:19:48.563Z</time></trkpt><trkpt lat="38.025045" lon="13.2459917"><ele>706.0</ele><time>2026-05-05T10:19:49.564Z</time></trkpt><trkpt lat="38.0251883" lon="13.2459117"><ele>703.0</ele><time>2026-05-05T10:19:50.565Z</time></trkpt><trkpt lat="38.0253383" lon="13.2458433"><ele>700.0</ele><time>2026-05-05T10:19:51.563Z</time></trkpt><trkpt lat="38.02549" lon="13.245785"><ele>700.0</ele><time>2026-05-05T10:19:52.564Z</time></trkpt><trkpt lat="38.0256433" lon="13.245735"><ele>700.0</ele><time>2026-05-05T10:19:53.564Z</time></trkpt><trkpt lat="38.025795" lon="13.2456883"><ele>700.0</ele><time>2026-05-05T10:19:54.565Z</time></trkpt><trkpt lat="38.0259367" lon="13.2456367"><ele>700.75</ele><time>2026-05-05T10:19:55.564Z</time></trkpt><trkpt lat="38.0260667" lon="13.245575"><ele>701.5</ele><time>2026-05-05T10:19:56.565Z</time></trkpt><trkpt lat="38.0261867" lon="13.2454917"><ele>702.25</ele><time>2026-05-05T10:19:57.565Z</time></trkpt><trkpt lat="38.026295" lon="13.24539"><ele>703.0</ele><time>2026-05-05T10:19:58.564Z</time></trkpt><trkpt lat="38.026395" lon="13.2452683"><ele>703.0</ele><time>2026-05-05T10:19:59.565Z</time></trkpt><trkpt lat="38.026485" lon="13.245125"><ele>703.0</ele><time>2026-05-05T10:20:00.565Z</time></trkpt><trkpt lat="38.0265617" lon="13.2449583"><ele>703.0</ele><time>2026-05-05T10:20:01.564Z</time></trkpt><trkpt lat="38.0266233" lon="13.244775"><ele>701.6666666666667</ele><time>2026-05-05T10:20:02.564Z</time></trkpt><trkpt lat="38.0266717" lon="13.2445767"><ele>700.3333333333334</ele><time>2026-05-05T10:20:03.563Z</time></trkpt><trkpt lat="38.0267017" lon="13.244365"><ele>699.0</ele><time>2026-05-05T10:20:04.565Z</time></trkpt><trkpt lat="38.0267283" lon="13.2441483"><ele>700.6666666666666</ele><time>2026-05-05T10:20:05.564Z</time></trkpt><trkpt lat="38.0267533" lon="13.24393"><ele>702.3333333333333</ele><time>2026-05-05T10:20:06.568Z</time></trkpt><trkpt lat="38.0267783" lon="13.2437117"><ele>704.0</ele><time>2026-05-05T10:20:07.564Z</time></trkpt><trkpt lat="38.0268033" lon="13.2434917"><ele>704.0</ele><time>2026-05-05T10:20:08.565Z</time></trkpt><trkpt lat="38.0268283" lon="13.2432733"><ele>704.0</ele><time>2026-05-05T10:20:09.564Z</time></trkpt><trkpt lat="38.0268567" lon="13.2430583"><ele>704.0</ele><time>2026-05-05T10:20:10.564Z</time></trkpt><trkpt lat="38.0268867" lon="13.24285"><ele>704.3333333333333</ele><time>2026-05-05T10:20:11.571Z</time></trkpt><trkpt lat="38.026915" lon="13.24265"><ele>704.6666666666666</ele><time>2026-05-05T10:20:12.564Z</time></trkpt><trkpt lat="38.0269383" lon="13.2424583"><ele>705.0</ele><time>2026-05-05T10:20:13.566Z</time></trkpt><trkpt lat="38.02696" lon="13.2422683"><ele>705.6666666666666</ele><time>2026-05-05T10:20:14.565Z</time></trkpt><trkpt lat="38.0269867" lon="13.2420783"><ele>706.3333333333333</ele><time>2026-05-05T10:20:15.564Z</time></trkpt><trkpt lat="38.0270167" lon="13.2418867"><ele>707.0</ele><time>2026-05-05T10:20:16.564Z</time></trkpt><trkpt lat="38.0270533" lon="13.2416933"><ele>707.0</ele><time>2026-05-05T10:20:17.564Z</time></trkpt><trkpt lat="38.0270967" lon="13.2415"><ele>707.0</ele><time>2026-05-05T10:20:18.565Z</time></trkpt><trkpt lat="38.027155" lon="13.2413067"><ele>707.0</ele><time>2026-05-05T10:20:19.565Z</time></trkpt><trkpt lat="38.02722" lon="13.2411167"><ele>707.6666666666666</ele><time>2026-05-05T10:20:20.565Z</time></trkpt><trkpt lat="38.027295" lon="13.2409283"><ele>708.3333333333334</ele><time>2026-05-05T10:20:21.564Z</time></trkpt><trkpt lat="38.027375" lon="13.240745"><ele>709.0</ele><time>2026-05-05T10:20:22.564Z</time></trkpt><trkpt lat="38.027465" lon="13.2405633"><ele>705.3333333333334</ele><time>2026-05-05T10:20:23.564Z</time></trkpt><trkpt lat="38.02756" lon="13.2403883"><ele>701.6666666666666</ele><time>2026-05-05T10:20:24.565Z</time></trkpt><trkpt lat="38.0276533" lon="13.2402217"><ele>698.0</ele><time>2026-05-05T10:20:25.564Z</time></trkpt><trkpt lat="38.0277433" lon="13.2400533"><ele>698.0</ele><time>2026-05-05T10:20:26.564Z</time></trkpt><trkpt lat="38.027825" lon="13.2398867"><ele>698.0</ele><time>2026-05-05T10:20:27.564Z</time></trkpt><trkpt lat="38.0279033" lon="13.2397217"><ele>698.0</ele><time>2026-05-05T10:20:28.564Z</time></trkpt><trkpt lat="38.0279767" lon="13.23956"><ele>698.75</ele><time>2026-05-05T10:20:29.564Z</time></trkpt><trkpt lat="38.0280467" lon="13.2394"><ele>699.5</ele><time>2026-05-05T10:20:30.565Z</time></trkpt><trkpt lat="38.028115" lon="13.23924"><ele>700.25</ele><time>2026-05-05T10:20:31.564Z</time></trkpt><trkpt lat="38.0281817" lon="13.239085"><ele>701.0</ele><time>2026-05-05T10:20:32.565Z</time></trkpt><trkpt lat="38.02825" lon="13.238935"><ele>699.25</ele><time>2026-05-05T10:20:33.563Z</time></trkpt><trkpt lat="38.0283167" lon="13.2387933"><ele>697.5</ele><time>2026-05-05T10:20:34.564Z</time></trkpt><trkpt lat="38.0283817" lon="13.2386717"><ele>695.75</ele><time>2026-05-05T10:20:35.564Z</time></trkpt><trkpt lat="38.0284467" lon="13.23857"><ele>694.0</ele><time>2026-05-05T10:20:36.564Z</time></trkpt><trkpt lat="38.0285233" lon="13.238485"><ele>694.0</ele><time>2026-05-05T10:20:37.564Z</time></trkpt><trkpt lat="38.0286067" lon="13.2384117"><ele>694.0</ele><time>2026-05-05T10:20:38.565Z</time></trkpt><trkpt lat="38.0286983" lon="13.23835"><ele>694.0</ele><time>2026-05-05T10:20:39.565Z</time></trkpt><trkpt lat="38.0287883" lon="13.23828"><ele>694.0</ele><time>2026-05-05T10:20:40.565Z</time></trkpt><trkpt lat="38.0288817" lon="13.238205"><ele>694.0</ele><time>2026-05-05T10:20:41.564Z</time></trkpt><trkpt lat="38.02897" lon="13.238115"><ele>694.8000000000001</ele><time>2026-05-05T10:20:42.564Z</time></trkpt><trkpt lat="38.0290483" lon="13.2380117"><ele>695.6</ele><time>2026-05-05T10:20:43.565Z</time></trkpt><trkpt lat="38.02912" lon="13.2379083"><ele>696.4</ele><time>2026-05-05T10:20:44.564Z</time></trkpt><trkpt lat="38.0291867" lon="13.237815"><ele>697.2</ele><time>2026-05-05T10:20:45.563Z</time></trkpt><trkpt lat="38.0292567" lon="13.2377383"><ele>698.0</ele><time>2026-05-05T10:20:46.565Z</time></trkpt><trkpt lat="38.0293233" lon="13.2376783"><ele>698.0</ele><time>2026-05-05T10:20:47.563Z</time></trkpt><trkpt lat="38.0293983" lon="13.2376333"><ele>698.0</ele><time>2026-05-05T10:20:48.564Z</time></trkpt><trkpt lat="38.0294833" lon="13.2376067"><ele>698.0</ele><time>2026-05-05T10:20:49.565Z</time></trkpt><trkpt lat="38.0295833" lon="13.2376"><ele>698.0</ele><time>2026-05-05T10:20:50.567Z</time></trkpt><trkpt lat="38.029695" lon="13.2375917"><ele>698.0</ele><time>2026-05-05T10:20:51.565Z</time></trkpt><trkpt lat="38.02981" lon="13.237585"><ele>698.0</ele><time>2026-05-05T10:20:52.565Z</time></trkpt><trkpt lat="38.0299333" lon="13.237575"><ele>698.0</ele><time>2026-05-05T10:20:53.564Z</time></trkpt><trkpt lat="38.0300633" lon="13.2375633"><ele>698.0</ele><time>2026-05-05T10:20:54.564Z</time></trkpt><trkpt lat="38.0301933" lon="13.237555"><ele>698.0</ele><time>2026-05-05T10:20:55.564Z</time></trkpt><trkpt lat="38.0303183" lon="13.2375383"><ele>697.5</ele><time>2026-05-05T10:20:56.565Z</time></trkpt><trkpt lat="38.0304433" lon="13.2375017"><ele>697.0</ele><time>2026-05-05T10:20:57.565Z</time></trkpt><trkpt lat="38.030565" lon="13.2374383"><ele>696.5</ele><time>2026-05-05T10:20:58.564Z</time></trkpt><trkpt lat="38.0306817" lon="13.237355"><ele>696.0</ele><time>2026-05-05T10:20:59.565Z</time></trkpt><trkpt lat="38.0308" lon="13.2372717"><ele>693.25</ele><time>2026-05-05T10:21:00.563Z</time></trkpt><trkpt lat="38.0309183" lon="13.2372017"><ele>690.5</ele><time>2026-05-05T10:21:01.566Z</time></trkpt><trkpt lat="38.0310433" lon="13.2371617"><ele>687.75</ele><time>2026-05-05T10:21:02.565Z</time></trkpt><trkpt lat="38.031165" lon="13.2371367"><ele>685.0</ele><time>2026-05-05T10:21:03.565Z</time></trkpt><trkpt lat="38.0312867" lon="13.2371233"><ele>685.0</ele><time>2026-05-05T10:21:04.564Z</time></trkpt><trkpt lat="38.0314033" lon="13.2371117"><ele>685.0</ele><time>2026-05-05T10:21:05.565Z</time></trkpt><trkpt lat="38.0315117" lon="13.2370983"><ele>685.0</ele><time>2026-05-05T10:21:06.564Z</time></trkpt><trkpt lat="38.03162" lon="13.23708"><ele>685.0</ele><time>2026-05-05T10:21:07.565Z</time></trkpt><trkpt lat="38.0317283" lon="13.2370417"><ele>685.0</ele><time>2026-05-05T10:21:08.565Z</time></trkpt><trkpt lat="38.031835" lon="13.236975"><ele>681.75</ele><time>2026-05-05T10:21:09.564Z</time></trkpt><trkpt lat="38.0319367" lon="13.2368883"><ele>678.5</ele><time>2026-05-05T10:21:10.565Z</time></trkpt><trkpt lat="38.0320267" lon="13.2367817"><ele>675.25</ele><time>2026-05-05T10:21:11.563Z</time></trkpt><trkpt lat="38.0320983" lon="13.2366533"><ele>672.0</ele><time>2026-05-05T10:21:12.564Z</time></trkpt><trkpt lat="38.0321517" lon="13.2365167"><ele>674.0</ele><time>2026-05-05T10:21:13.565Z</time></trkpt><trkpt lat="38.0321867" lon="13.2363633"><ele>676.0</ele><time>2026-05-05T10:21:14.565Z</time></trkpt><trkpt lat="38.0322" lon="13.2362033"><ele>678.0</ele><time>2026-05-05T10:21:15.565Z</time></trkpt><trkpt lat="38.0321967" lon="13.2360383"><ele>680.0</ele><time>2026-05-05T10:21:16.564Z</time></trkpt><trkpt lat="38.0321867" lon="13.2358683"><ele>680.0</ele><time>2026-05-05T10:21:17.564Z</time></trkpt><trkpt lat="38.0321833" lon="13.2356983"><ele>680.0</ele><time>2026-05-05T10:21:18.563Z</time></trkpt><trkpt lat="38.0322017" lon="13.2355367"><ele>680.0</ele><time>2026-05-05T10:21:19.564Z</time></trkpt><trkpt lat="38.0322483" lon="13.2353883"><ele>680.0</ele><time>2026-05-05T10:21:20.565Z</time></trkpt><trkpt lat="38.0323233" lon="13.2352583"><ele>680.5</ele><time>2026-05-05T10:21:21.565Z</time></trkpt><trkpt lat="38.03242" lon="13.2351317"><ele>681.0</ele><time>2026-05-05T10:21:22.563Z</time></trkpt><trkpt lat="38.0325217" lon="13.235005"><ele>681.5</ele><time>2026-05-05T10:21:23.565Z</time></trkpt><trkpt lat="38.0326167" lon="13.2348683"><ele>682.0</ele><time>2026-05-05T10:21:24.564Z</time></trkpt><trkpt lat="38.0327067" lon="13.2347233"><ele>682.0</ele><time>2026-05-05T10:21:25.565Z</time></trkpt><trkpt lat="38.0327867" lon="13.2345767"><ele>682.0</ele><time>2026-05-05T10:21:26.564Z</time></trkpt><trkpt lat="38.0328667" lon="13.2344383"><ele>682.0</ele><time>2026-05-05T10:21:27.564Z</time></trkpt><trkpt lat="38.032945" lon="13.23431"><ele>682.0</ele><time>2026-05-05T10:21:28.564Z</time></trkpt><trkpt lat="38.03302" lon="13.2342033"><ele>682.0</ele><time>2026-05-05T10:21:29.563Z</time></trkpt><trkpt lat="38.033105" lon="13.2341217"><ele>682.0</ele><time>2026-05-05T10:21:30.565Z</time></trkpt><trkpt lat="38.0332017" lon="13.2340667"><ele>682.0</ele><time>2026-05-05T10:21:31.564Z</time></trkpt><trkpt lat="38.0332917" lon="13.234035"><ele>682.0</ele><time>2026-05-05T10:21:32.565Z</time></trkpt><trkpt lat="38.0333883" lon="13.234015"><ele>682.0</ele><time>2026-05-05T10:21:33.564Z</time></trkpt><trkpt lat="38.03349" lon="13.2339883"><ele>679.75</ele><time>2026-05-05T10:21:34.564Z</time></trkpt><trkpt lat="38.0335967" lon="13.2339633"><ele>677.5</ele><time>2026-05-05T10:21:35.564Z</time></trkpt><trkpt lat="38.03371" lon="13.2339233"><ele>675.25</ele><time>2026-05-05T10:21:36.563Z</time></trkpt><trkpt lat="38.0338267" lon="13.23388"><ele>673.0</ele><time>2026-05-05T10:21:37.564Z</time></trkpt><trkpt lat="38.0339483" lon="13.2338217"><ele>673.0</ele><time>2026-05-05T10:21:38.565Z</time></trkpt><trkpt lat="38.0340667" lon="13.23374"><ele>673.0</ele><time>2026-05-05T10:21:39.566Z</time></trkpt><trkpt lat="38.0341867" lon="13.2336433"><ele>673.0</ele><time>2026-05-05T10:21:40.563Z</time></trkpt><trkpt lat="38.034305" lon="13.2335417"><ele>673.0</ele><time>2026-05-05T10:21:41.563Z</time></trkpt><trkpt lat="38.034425" lon="13.233445"><ele>670.25</ele><time>2026-05-05T10:21:42.565Z</time></trkpt><trkpt lat="38.0345467" lon="13.23335"><ele>667.5</ele><time>2026-05-05T10:21:43.564Z</time></trkpt><trkpt lat="38.03467" lon="13.2332517"><ele>664.75</ele><time>2026-05-05T10:21:44.565Z</time></trkpt><trkpt lat="38.0347933" lon="13.2331517"><ele>662.0</ele><time>2026-05-05T10:21:45.564Z</time></trkpt><trkpt lat="38.0349217" lon="13.2330483"><ele>659.5</ele><time>2026-05-05T10:21:46.564Z</time></trkpt><trkpt lat="38.03505" lon="13.2329433"><ele>657.0</ele><time>2026-05-05T10:21:47.565Z</time></trkpt><trkpt lat="38.0351733" lon="13.2328417"><ele>654.5</ele><time>2026-05-05T10:21:48.565Z</time></trkpt><trkpt lat="38.03529" lon="13.2327433"><ele>652.0</ele><time>2026-05-05T10:21:49.565Z</time></trkpt><trkpt lat="38.0353933" lon="13.2326383"><ele>652.0</ele><time>2026-05-05T10:21:50.564Z</time></trkpt><trkpt lat="38.0354783" lon="13.232515"><ele>652.0</ele><time>2026-05-05T10:21:51.565Z</time></trkpt><trkpt lat="38.0355433" lon="13.232375"><ele>652.0</ele><time>2026-05-05T10:21:52.565Z</time></trkpt><trkpt lat="38.035595" lon="13.2322233"><ele>652.0</ele><time>2026-05-05T10:21:53.565Z</time></trkpt><trkpt lat="38.0356333" lon="13.232065"><ele>652.0</ele><time>2026-05-05T10:21:54.563Z</time></trkpt><trkpt lat="38.0356517" lon="13.2319033"><ele>652.0</ele><time>2026-05-05T10:21:55.563Z</time></trkpt><trkpt lat="38.0356433" lon="13.2317367"><ele>652.0</ele><time>2026-05-05T10:21:56.565Z</time></trkpt><trkpt lat="38.0356217" lon="13.2315667"><ele>652.0</ele><time>2026-05-05T10:21:57.565Z</time></trkpt><trkpt lat="38.0355933" lon="13.2313933"><ele>650.25</ele><time>2026-05-05T10:21:58.564Z</time></trkpt><trkpt lat="38.0355667" lon="13.2312167"><ele>648.5</ele><time>2026-05-05T10:21:59.564Z</time></trkpt><trkpt lat="38.0355467" lon="13.23104"><ele>646.75</ele><time>2026-05-05T10:22:00.565Z</time></trkpt><trkpt lat="38.0355333" lon="13.2308683"><ele>645.0</ele><time>2026-05-05T10:22:01.563Z</time></trkpt><trkpt lat="38.0355417" lon="13.2307117"><ele>645.25</ele><time>2026-05-05T10:22:02.564Z</time></trkpt><trkpt lat="38.0355667" lon="13.230565"><ele>645.5</ele><time>2026-05-05T10:22:03.565Z</time></trkpt><trkpt lat="38.035605" lon="13.2304283"><ele>645.75</ele><time>2026-05-05T10:22:04.564Z</time></trkpt><trkpt lat="38.0356383" lon="13.2302917"><ele>646.0</ele><time>2026-05-05T10:22:05.564Z</time></trkpt><trkpt lat="38.03567" lon="13.23016"><ele>646.0</ele><time>2026-05-05T10:22:06.563Z</time></trkpt><trkpt lat="38.0357033" lon="13.2300383"><ele>646.0</ele><time>2026-05-05T10:22:07.564Z</time></trkpt><trkpt lat="38.0357433" lon="13.2299267"><ele>646.0</ele><time>2026-05-05T10:22:08.564Z</time></trkpt><trkpt lat="38.0357967" lon="13.22982"><ele>646.0</ele><time>2026-05-05T10:22:09.565Z</time></trkpt><trkpt lat="38.0358683" lon="13.2297183"><ele>646.0</ele><time>2026-05-05T10:22:10.565Z</time></trkpt><trkpt lat="38.0359533" lon="13.2296283"><ele>644.75</ele><time>2026-05-05T10:22:11.564Z</time></trkpt><trkpt lat="38.03605" lon="13.2295483"><ele>643.5</ele><time>2026-05-05T10:22:12.564Z</time></trkpt><trkpt lat="38.0361567" lon="13.2294717"><ele>642.25</ele><time>2026-05-05T10:22:13.565Z</time></trkpt><trkpt lat="38.03626" lon="13.229395"><ele>641.0</ele><time>2026-05-05T10:22:14.565Z</time></trkpt><trkpt lat="38.0363467" lon="13.2293067"><ele>641.0</ele><time>2026-05-05T10:22:15.565Z</time></trkpt><trkpt lat="38.0364083" lon="13.2292033"><ele>641.0</ele><time>2026-05-05T10:22:16.564Z</time></trkpt><trkpt lat="38.0364433" lon="13.22909"><ele>641.0</ele><time>2026-05-05T10:22:17.566Z</time></trkpt><trkpt lat="38.0364567" lon="13.228975"><ele>641.0</ele><time>2026-05-05T10:22:18.565Z</time></trkpt><trkpt lat="38.0364483" lon="13.2288583"><ele>641.0</ele><time>2026-05-05T10:22:19.565Z</time></trkpt><trkpt lat="38.03643" lon="13.2287417"><ele>640.5999999999999</ele><time>2026-05-05T10:22:20.565Z</time></trkpt><trkpt lat="38.0364067" lon="13.22862"><ele>640.1999999999999</ele><time>2026-05-05T10:22:21.565Z</time></trkpt><trkpt lat="38.0363817" lon="13.2285"><ele>639.8</ele><time>2026-05-05T10:22:22.565Z</time></trkpt><trkpt lat="38.036365" lon="13.22838"><ele>639.4</ele><time>2026-05-05T10:22:23.566Z</time></trkpt><trkpt lat="38.0363517" lon="13.228265"><ele>639.0</ele><time>2026-05-05T10:22:24.565Z</time></trkpt><trkpt lat="38.0363417" lon="13.22815"><ele>638.4</ele><time>2026-05-05T10:22:25.564Z</time></trkpt><trkpt lat="38.0363483" lon="13.2280333"><ele>637.8</ele><time>2026-05-05T10:22:26.565Z</time></trkpt><trkpt lat="38.03636" lon="13.2279067"><ele>637.2</ele><time>2026-05-05T10:22:27.564Z</time></trkpt><trkpt lat="38.0363767" lon="13.2277767"><ele>636.6</ele><time>2026-05-05T10:22:28.563Z</time></trkpt><trkpt lat="38.0364017" lon="13.2276433"><ele>636.0</ele><time>2026-05-05T10:22:29.565Z</time></trkpt><trkpt lat="38.0364233" lon="13.227505"><ele>636.0</ele><time>2026-05-05T10:22:30.564Z</time></trkpt><trkpt lat="38.0364467" lon="13.2273583"><ele>636.0</ele><time>2026-05-05T10:22:31.565Z</time></trkpt><trkpt lat="38.0364667" lon="13.2272083"><ele>636.0</ele><time>2026-05-05T10:22:32.566Z</time></trkpt><trkpt lat="38.0364867" lon="13.227055"><ele>636.0</ele><time>2026-05-05T10:22:33.564Z</time></trkpt><trkpt lat="38.0365083" lon="13.2269"><ele>635.75</ele><time>2026-05-05T10:22:34.564Z</time></trkpt><trkpt lat="38.0365267" lon="13.226735"><ele>635.5</ele><time>2026-05-05T10:22:35.566Z</time></trkpt><trkpt lat="38.0365417" lon="13.2265617"><ele>635.25</ele><time>2026-05-05T10:22:36.563Z</time></trkpt><trkpt lat="38.0365517" lon="13.226385"><ele>635.0</ele><time>2026-05-05T10:22:37.563Z</time></trkpt><trkpt lat="38.0365633" lon="13.226205"><ele>634.75</ele><time>2026-05-05T10:22:38.566Z</time></trkpt><trkpt lat="38.03659" lon="13.2260233"><ele>634.5</ele><time>2026-05-05T10:22:39.564Z</time></trkpt><trkpt lat="38.0366233" lon="13.2258417"><ele>634.25</ele><time>2026-05-05T10:22:40.565Z</time></trkpt><trkpt lat="38.0366567" lon="13.2256533"><ele>634.0</ele><time>2026-05-05T10:22:41.564Z</time></trkpt><trkpt lat="38.0366933" lon="13.22546"><ele>629.3333333333334</ele><time>2026-05-05T10:22:42.564Z</time></trkpt><trkpt lat="38.03673" lon="13.225265"><ele>624.6666666666666</ele><time>2026-05-05T10:22:43.565Z</time></trkpt><trkpt lat="38.0367733" lon="13.2250683"><ele>620.0</ele><time>2026-05-05T10:22:44.565Z</time></trkpt><trkpt lat="38.0368167" lon="13.2248667"><ele>620.3333333333333</ele><time>2026-05-05T10:22:45.564Z</time></trkpt><trkpt lat="38.03686" lon="13.22466"><ele>620.6666666666666</ele><time>2026-05-05T10:22:46.565Z</time></trkpt><trkpt lat="38.03689" lon="13.224455"><ele>621.0</ele><time>2026-05-05T10:22:47.565Z</time></trkpt><trkpt lat="38.0369133" lon="13.2242533"><ele>621.0</ele><time>2026-05-05T10:22:48.566Z</time></trkpt><trkpt lat="38.0369317" lon="13.224055"><ele>621.0</ele><time>2026-05-05T10:22:49.565Z</time></trkpt><trkpt lat="38.0369483" lon="13.2238683"><ele>621.0</ele><time>2026-05-05T10:22:50.565Z</time></trkpt><trkpt lat="38.03697" lon="13.2237083"><ele>621.0</ele><time>2026-05-05T10:22:51.565Z</time></trkpt><trkpt lat="38.037" lon="13.2235733"><ele>620.8</ele><time>2026-05-05T10:22:52.565Z</time></trkpt><trkpt lat="38.037045" lon="13.22346"><ele>620.6</ele><time>2026-05-05T10:22:53.564Z</time></trkpt><trkpt lat="38.0371133" lon="13.22337"><ele>620.4</ele><time>2026-05-05T10:22:54.565Z</time></trkpt><trkpt lat="38.0371933" lon="13.223305"><ele>620.2</ele><time>2026-05-05T10:22:55.564Z</time></trkpt><trkpt lat="38.037275" lon="13.2232567"><ele>620.0</ele><time>2026-05-05T10:22:56.565Z</time></trkpt><trkpt lat="38.0373567" lon="13.2232067"><ele>620.4</ele><time>2026-05-05T10:22:57.565Z</time></trkpt><trkpt lat="38.0374267" lon="13.223135"><ele>620.8</ele><time>2026-05-05T10:22:58.565Z</time></trkpt><trkpt lat="38.0374883" lon="13.2230433"><ele>621.2</ele><time>2026-05-05T10:22:59.563Z</time></trkpt><trkpt lat="38.0375417" lon="13.2229217"><ele>621.6</ele><time>2026-05-05T10:23:00.564Z</time></trkpt><trkpt lat="38.03759" lon="13.22278"><ele>622.0</ele><time>2026-05-05T10:23:01.564Z</time></trkpt><trkpt lat="38.0376383" lon="13.222625"><ele>620.0</ele><time>2026-05-05T10:23:02.566Z</time></trkpt><trkpt lat="38.03769" lon="13.22246"><ele>618.0</ele><time>2026-05-05T10:23:03.564Z</time></trkpt><trkpt lat="38.0377367" lon="13.222305"><ele>616.0</ele><time>2026-05-05T10:23:04.564Z</time></trkpt><trkpt lat="38.0377833" lon="13.222165"><ele>614.0</ele><time>2026-05-05T10:23:05.564Z</time></trkpt><trkpt lat="38.0378267" lon="13.22204"><ele>613.8</ele><time>2026-05-05T10:23:06.564Z</time></trkpt><trkpt lat="38.037875" lon="13.2219233"><ele>613.5999999999999</ele><time>2026-05-05T10:23:07.565Z</time></trkpt><trkpt lat="38.0379367" lon="13.2218133"><ele>613.4</ele><time>2026-05-05T10:23:08.565Z</time></trkpt><trkpt lat="38.03801" lon="13.2217167"><ele>613.1999999999999</ele><time>2026-05-05T10:23:09.564Z</time></trkpt><trkpt lat="38.0380883" lon="13.2216383"><ele>613.0</ele><time>2026-05-05T10:23:10.564Z</time></trkpt><trkpt lat="38.0381633" lon="13.2215767"><ele>613.0</ele><time>2026-05-05T10:23:11.564Z</time></trkpt><trkpt lat="38.0382333" lon="13.2215217"><ele>613.0</ele><time>2026-05-05T10:23:12.564Z</time></trkpt><trkpt lat="38.038295" lon="13.221465"><ele>613.0</ele><time>2026-05-05T10:23:13.564Z</time></trkpt><trkpt lat="38.0383483" lon="13.22141"><ele>613.0</ele><time>2026-05-05T10:23:14.565Z</time></trkpt><trkpt lat="38.038435" lon="13.2212983"><ele>613.0</ele><time>2026-05-05T10:23:16.564Z</time></trkpt><trkpt lat="38.0384767" lon="13.2212367"><ele>613.0</ele><time>2026-05-05T10:23:17.565Z</time></trkpt><trkpt lat="38.03852" lon="13.2211617"><ele>611.5714285714286</ele><time>2026-05-05T10:23:18.565Z</time></trkpt><trkpt lat="38.0385583" lon="13.2210767"><ele>610.1428571428571</ele><time>2026-05-05T10:23:19.564Z</time></trkpt><trkpt lat="38.038585" lon="13.220995"><ele>608.7142857142858</ele><time>2026-05-05T10:23:20.565Z</time></trkpt><trkpt lat="38.0385983" lon="13.2209133"><ele>607.2857142857142</ele><time>2026-05-05T10:23:21.565Z</time></trkpt><trkpt lat="38.0385967" lon="13.2208267"><ele>605.8571428571428</ele><time>2026-05-05T10:23:22.565Z</time></trkpt><trkpt lat="38.038575" lon="13.22073"><ele>604.4285714285714</ele><time>2026-05-05T10:23:23.565Z</time></trkpt><trkpt lat="38.0385333" lon="13.22063"><ele>603.0</ele><time>2026-05-05T10:23:24.565Z</time></trkpt><trkpt lat="38.03847" lon="13.2205267"><ele>602.5</ele><time>2026-05-05T10:23:25.565Z</time></trkpt><trkpt lat="38.0383933" lon="13.220425"><ele>602.0</ele><time>2026-05-05T10:23:26.564Z</time></trkpt><trkpt lat="38.0383067" lon="13.220315"><ele>601.5</ele><time>2026-05-05T10:23:27.564Z</time></trkpt><trkpt lat="38.038215" lon="13.2202017"><ele>601.0</ele><time>2026-05-05T10:23:28.565Z</time></trkpt><trkpt lat="38.0381167" lon="13.2200883"><ele>603.25</ele><time>2026-05-05T10:23:29.564Z</time></trkpt><trkpt lat="38.0380183" lon="13.219975"><ele>605.5</ele><time>2026-05-05T10:23:30.563Z</time></trkpt><trkpt lat="38.03792" lon="13.2198617"><ele>607.75</ele><time>2026-05-05T10:23:31.564Z</time></trkpt><trkpt lat="38.0378183" lon="13.2197483"><ele>610.0</ele><time>2026-05-05T10:23:32.564Z</time></trkpt><trkpt lat="38.03772" lon="13.219635"><ele>610.0</ele><time>2026-05-05T10:23:33.565Z</time></trkpt><trkpt lat="38.0376233" lon="13.2195217"><ele>610.0</ele><time>2026-05-05T10:23:34.564Z</time></trkpt><trkpt lat="38.03753" lon="13.2194133"><ele>610.0</ele><time>2026-05-05T10:23:35.565Z</time></trkpt><trkpt lat="38.0374383" lon="13.219305"><ele>610.0</ele><time>2026-05-05T10:23:36.565Z</time></trkpt><trkpt lat="38.03735" lon="13.2192017"><ele>611.2</ele><time>2026-05-05T10:23:37.565Z</time></trkpt><trkpt lat="38.0372667" lon="13.21911"><ele>612.4</ele><time>2026-05-05T10:23:38.565Z</time></trkpt><trkpt lat="38.037185" lon="13.2190267"><ele>613.6</ele><time>2026-05-05T10:23:39.563Z</time></trkpt><trkpt lat="38.0370933" lon="13.2189533"><ele>614.8</ele><time>2026-05-05T10:23:40.564Z</time></trkpt><trkpt lat="38.0369983" lon="13.21889"><ele>616.0</ele><time>2026-05-05T10:23:41.564Z</time></trkpt><trkpt lat="38.0368983" lon="13.2188317"><ele>616.0</ele><time>2026-05-05T10:23:42.565Z</time></trkpt><trkpt lat="38.0367883" lon="13.218775"><ele>616.0</ele><time>2026-05-05T10:23:43.564Z</time></trkpt><trkpt lat="38.0366767" lon="13.2187167"><ele>616.0</ele><time>2026-05-05T10:23:44.563Z</time></trkpt><trkpt lat="38.03656" lon="13.21866"><ele>616.0</ele><time>2026-05-05T10:23:45.565Z</time></trkpt><trkpt lat="38.0364433" lon="13.2186067"><ele>618.8</ele><time>2026-05-05T10:23:46.564Z</time></trkpt><trkpt lat="38.0363383" lon="13.2185483"><ele>621.6</ele><time>2026-05-05T10:23:47.565Z</time></trkpt><trkpt lat="38.0362583" lon="13.218475"><ele>624.4</ele><time>2026-05-05T10:23:48.564Z</time></trkpt><trkpt lat="38.0362083" lon="13.2183767"><ele>627.2</ele><time>2026-05-05T10:23:49.565Z</time></trkpt><trkpt lat="38.0361867" lon="13.2182667"><ele>630.0</ele><time>2026-05-05T10:23:50.564Z</time></trkpt><trkpt lat="38.0362083" lon="13.2181517"><ele>633.25</ele><time>2026-05-05T10:23:51.565Z</time></trkpt><trkpt lat="38.0362517" lon="13.218035"><ele>636.5</ele><time>2026-05-05T10:23:52.565Z</time></trkpt><trkpt lat="38.0363083" lon="13.21791"><ele>639.75</ele><time>2026-05-05T10:23:53.565Z</time></trkpt><trkpt lat="38.0363767" lon="13.2177783"><ele>643.0</ele><time>2026-05-05T10:23:54.565Z</time></trkpt><trkpt lat="38.036465" lon="13.2176567"><ele>643.0</ele><time>2026-05-05T10:23:55.563Z</time></trkpt><trkpt lat="38.0365717" lon="13.2175483"><ele>643.0</ele><time>2026-05-05T10:23:56.565Z</time></trkpt><trkpt lat="38.0366883" lon="13.21745"><ele>643.0</ele><time>2026-05-05T10:23:57.563Z</time></trkpt><trkpt lat="38.0368033" lon="13.217375"><ele>643.0</ele><time>2026-05-05T10:23:58.565Z</time></trkpt><trkpt lat="38.03692" lon="13.2173383"><ele>644.25</ele><time>2026-05-05T10:23:59.564Z</time></trkpt><trkpt lat="38.0370433" lon="13.2173317"><ele>645.5</ele><time>2026-05-05T10:24:00.563Z</time></trkpt><trkpt lat="38.0371717" lon="13.21733"><ele>646.75</ele><time>2026-05-05T10:24:01.564Z</time></trkpt><trkpt lat="38.037295" lon="13.2173"><ele>648.0</ele><time>2026-05-05T10:24:02.566Z</time></trkpt><trkpt lat="38.0374067" lon="13.2172233"><ele>644.0</ele><time>2026-05-05T10:24:03.563Z</time></trkpt><trkpt lat="38.0375" lon="13.2171083"><ele>640.0</ele><time>2026-05-05T10:24:04.565Z</time></trkpt><trkpt lat="38.0375717" lon="13.2169683"><ele>636.0</ele><time>2026-05-05T10:24:05.563Z</time></trkpt><trkpt lat="38.03761" lon="13.216815"><ele>632.0</ele><time>2026-05-05T10:24:06.563Z</time></trkpt><trkpt lat="38.0376067" lon="13.2166567"><ele>632.0</ele><time>2026-05-05T10:24:07.563Z</time></trkpt><trkpt lat="38.0375633" lon="13.2165133"><ele>632.0</ele><time>2026-05-05T10:24:08.564Z</time></trkpt><trkpt lat="38.0374933" lon="13.2163767"><ele>632.0</ele><time>2026-05-05T10:24:09.565Z</time></trkpt><trkpt lat="38.0374183" lon="13.21624"><ele>632.0</ele><time>2026-05-05T10:24:10.563Z</time></trkpt><trkpt lat="38.03735" lon="13.2160983"><ele>637.0</ele><time>2026-05-05T10:24:11.564Z</time></trkpt><trkpt lat="38.037295" lon="13.215945"><ele>642.0</ele><time>2026-05-05T10:24:12.564Z</time></trkpt><trkpt lat="38.0372533" lon="13.2157867"><ele>647.0</ele><time>2026-05-05T10:24:13.564Z</time></trkpt><trkpt lat="38.0372233" lon="13.2156233"><ele>652.0</ele><time>2026-05-05T10:24:14.565Z</time></trkpt><trkpt lat="38.0372083" lon="13.2154667"><ele>654.2</ele><time>2026-05-05T10:24:15.564Z</time></trkpt><trkpt lat="38.03722" lon="13.215335"><ele>656.4000000000001</ele><time>2026-05-05T10:24:16.564Z</time></trkpt><trkpt lat="38.03727" lon="13.2152217"><ele>658.5999999999999</ele><time>2026-05-05T10:24:17.565Z</time></trkpt><trkpt lat="38.0373383" lon="13.2151267"><ele>660.8</ele><time>2026-05-05T10:24:18.565Z</time></trkpt><trkpt lat="38.0374167" lon="13.21503"><ele>663.0</ele><time>2026-05-05T10:24:19.565Z</time></trkpt><trkpt lat="38.0374883" lon="13.2149233"><ele>660.25</ele><time>2026-05-05T10:24:20.567Z</time></trkpt><trkpt lat="38.03754" lon="13.2148"><ele>657.5</ele><time>2026-05-05T10:24:21.565Z</time></trkpt><trkpt lat="38.0375667" lon="13.2146583"><ele>654.75</ele><time>2026-05-05T10:24:22.564Z</time></trkpt><trkpt lat="38.03757" lon="13.21451"><ele>652.0</ele><time>2026-05-05T10:24:23.565Z</time></trkpt><trkpt lat="38.0375483" lon="13.2143617"><ele>652.0</ele><time>2026-05-05T10:24:24.565Z</time></trkpt><trkpt lat="38.03752" lon="13.2142117"><ele>652.0</ele><time>2026-05-05T10:24:25.563Z</time></trkpt><trkpt lat="38.0374933" lon="13.2140583"><ele>652.0</ele><time>2026-05-05T10:24:26.565Z</time></trkpt><trkpt lat="38.0374683" lon="13.2139033"><ele>652.0</ele><time>2026-05-05T10:24:27.564Z</time></trkpt><trkpt lat="38.0374383" lon="13.2137483"><ele>656.0</ele><time>2026-05-05T10:24:28.565Z</time></trkpt><trkpt lat="38.037395" lon="13.2136"><ele>660.0</ele><time>2026-05-05T10:24:29.565Z</time></trkpt><trkpt lat="38.0373383" lon="13.2134583"><ele>664.0</ele><time>2026-05-05T10:24:30.564Z</time></trkpt><trkpt lat="38.0372733" lon="13.2133183"><ele>668.0</ele><time>2026-05-05T10:24:31.564Z</time></trkpt><trkpt lat="38.0371967" lon="13.2131783"><ele>666.25</ele><time>2026-05-05T10:24:32.566Z</time></trkpt><trkpt lat="38.03712" lon="13.2130383"><ele>664.5</ele><time>2026-05-05T10:24:33.564Z</time></trkpt><trkpt lat="38.0370467" lon="13.2129"><ele>662.75</ele><time>2026-05-05T10:24:34.564Z</time></trkpt><trkpt lat="38.0369883" lon="13.2127617"><ele>661.0</ele><time>2026-05-05T10:24:35.564Z</time></trkpt><trkpt lat="38.0369617" lon="13.212625"><ele>661.0</ele><time>2026-05-05T10:24:36.564Z</time></trkpt><trkpt lat="38.036965" lon="13.212485"><ele>661.0</ele><time>2026-05-05T10:24:37.563Z</time></trkpt><trkpt lat="38.0369783" lon="13.2123367"><ele>661.0</ele><time>2026-05-05T10:24:38.564Z</time></trkpt><trkpt lat="38.0369933" lon="13.21218"><ele>661.0</ele><time>2026-05-05T10:24:39.563Z</time></trkpt><trkpt lat="38.03701" lon="13.2120167"><ele>660.75</ele><time>2026-05-05T10:24:40.563Z</time></trkpt><trkpt lat="38.037025" lon="13.211845"><ele>660.5</ele><time>2026-05-05T10:24:41.563Z</time></trkpt><trkpt lat="38.0370417" lon="13.211665"><ele>660.25</ele><time>2026-05-05T10:24:42.565Z</time></trkpt><trkpt lat="38.0370583" lon="13.2114817"><ele>660.0</ele><time>2026-05-05T10:24:43.564Z</time></trkpt><trkpt lat="38.0370767" lon="13.21129"><ele>660.0</ele><time>2026-05-05T10:24:44.564Z</time></trkpt><trkpt lat="38.037095" lon="13.2110967"><ele>660.0</ele><time>2026-05-05T10:24:45.565Z</time></trkpt><trkpt lat="38.0371133" lon="13.2109067"><ele>660.0</ele><time>2026-05-05T10:24:46.564Z</time></trkpt><trkpt lat="38.0371333" lon="13.210715"><ele>660.3333333333334</ele><time>2026-05-05T10:24:47.565Z</time></trkpt><trkpt lat="38.037155" lon="13.2105183"><ele>660.6666666666667</ele><time>2026-05-05T10:24:48.565Z</time></trkpt><trkpt lat="38.0371767" lon="13.21032"><ele>661.0</ele><time>2026-05-05T10:24:49.564Z</time></trkpt><trkpt lat="38.0371967" lon="13.210115"><ele>661.0</ele><time>2026-05-05T10:24:50.565Z</time></trkpt><trkpt lat="38.0372183" lon="13.2099083"><ele>661.0</ele><time>2026-05-05T10:24:51.565Z</time></trkpt><trkpt lat="38.0372417" lon="13.2097"><ele>661.0</ele><time>2026-05-05T10:24:52.565Z</time></trkpt><trkpt lat="38.037265" lon="13.2094883"><ele>662.6666666666667</ele><time>2026-05-05T10:24:53.565Z</time></trkpt><trkpt lat="38.037285" lon="13.2092767"><ele>664.3333333333334</ele><time>2026-05-05T10:24:54.565Z</time></trkpt><trkpt lat="38.0372983" lon="13.209065"><ele>666.0</ele><time>2026-05-05T10:24:55.565Z</time></trkpt><trkpt lat="38.0373017" lon="13.2088533"><ele>667.6666666666666</ele><time>2026-05-05T10:24:56.565Z</time></trkpt><trkpt lat="38.0372967" lon="13.2086417"><ele>669.3333333333333</ele><time>2026-05-05T10:24:57.565Z</time></trkpt><trkpt lat="38.0372867" lon="13.2084267"><ele>671.0</ele><time>2026-05-05T10:24:58.564Z</time></trkpt><trkpt lat="38.03728" lon="13.2082133"><ele>674.3333333333333</ele><time>2026-05-05T10:24:59.564Z</time></trkpt><trkpt lat="38.03727" lon="13.2080117"><ele>677.6666666666666</ele><time>2026-05-05T10:25:00.563Z</time></trkpt><trkpt lat="38.0372667" lon="13.20782"><ele>681.0</ele><time>2026-05-05T10:25:01.564Z</time></trkpt><trkpt lat="38.0372833" lon="13.2076433"><ele>681.0</ele><time>2026-05-05T10:25:02.564Z</time></trkpt><trkpt lat="38.0373267" lon="13.2074767"><ele>681.0</ele><time>2026-05-05T10:25:03.563Z</time></trkpt><trkpt lat="38.0373883" lon="13.2073133"><ele>681.0</ele><time>2026-05-05T10:25:04.565Z</time></trkpt><trkpt lat="38.0374617" lon="13.2071467"><ele>681.0</ele><time>2026-05-05T10:25:05.564Z</time></trkpt><trkpt lat="38.0375367" lon="13.2069783"><ele>679.3333333333334</ele><time>2026-05-05T10:25:06.564Z</time></trkpt><trkpt lat="38.0376133" lon="13.206805"><ele>677.6666666666667</ele><time>2026-05-05T10:25:07.564Z</time></trkpt><trkpt lat="38.0376983" lon="13.2066317"><ele>676.0</ele><time>2026-05-05T10:25:08.565Z</time></trkpt><trkpt lat="38.0377883" lon="13.2064583"><ele>681.6666666666667</ele><time>2026-05-05T10:25:09.564Z</time></trkpt><trkpt lat="38.03788" lon="13.2062817"><ele>687.3333333333334</ele><time>2026-05-05T10:25:10.565Z</time></trkpt><trkpt lat="38.03797" lon="13.2061033"><ele>693.0</ele><time>2026-05-05T10:25:11.564Z</time></trkpt><trkpt lat="38.0380583" lon="13.2059217"><ele>693.0</ele><time>2026-05-05T10:25:12.564Z</time></trkpt><trkpt lat="38.0381383" lon="13.2057433"><ele>693.0</ele><time>2026-05-05T10:25:13.564Z</time></trkpt><trkpt lat="38.038205" lon="13.2055683"><ele>693.0</ele><time>2026-05-05T10:25:14.563Z</time></trkpt><trkpt lat="38.0382633" lon="13.2053967"><ele>693.0</ele><time>2026-05-05T10:25:15.565Z</time></trkpt><trkpt lat="38.0383217" lon="13.205235"><ele>693.0</ele><time>2026-05-05T10:25:16.564Z</time></trkpt><trkpt lat="38.0383933" lon="13.205085"><ele>693.0</ele><time>2026-05-05T10:25:17.567Z</time></trkpt><trkpt lat="38.0384833" lon="13.204945"><ele>693.0</ele><time>2026-05-05T10:25:18.564Z</time></trkpt><trkpt lat="38.0385817" lon="13.2048167"><ele>693.0</ele><time>2026-05-05T10:25:19.565Z</time></trkpt><trkpt lat="38.03869" lon="13.2047083"><ele>693.0</ele><time>2026-05-05T10:25:20.565Z</time></trkpt><trkpt lat="38.038805" lon="13.20462"><ele>693.0</ele><time>2026-05-05T10:25:21.565Z</time></trkpt><trkpt lat="38.0389233" lon="13.20454"><ele>693.0</ele><time>2026-05-05T10:25:22.565Z</time></trkpt><trkpt lat="38.0390417" lon="13.2044517"><ele>693.25</ele><time>2026-05-05T10:25:23.565Z</time></trkpt><trkpt lat="38.0391567" lon="13.2043467"><ele>693.5</ele><time>2026-05-05T10:25:24.565Z</time></trkpt><trkpt lat="38.0392617" lon="13.204215"><ele>693.75</ele><time>2026-05-05T10:25:25.564Z</time></trkpt><trkpt lat="38.0393567" lon="13.2040683"><ele>694.0</ele><time>2026-05-05T10:25:26.565Z</time></trkpt><trkpt lat="38.0394533" lon="13.2039117"><ele>694.0</ele><time>2026-05-05T10:25:27.564Z</time></trkpt><trkpt lat="38.03956" lon="13.2037583"><ele>694.0</ele><time>2026-05-05T10:25:28.564Z</time></trkpt><trkpt lat="38.0396783" lon="13.2036133"><ele>694.0</ele><time>2026-05-05T10:25:29.565Z</time></trkpt><trkpt lat="38.0398067" lon="13.203475"><ele>694.0</ele><time>2026-05-05T10:25:30.565Z</time></trkpt><trkpt lat="38.0399367" lon="13.2033417"><ele>694.0</ele><time>2026-05-05T10:25:31.564Z</time></trkpt><trkpt lat="38.0400667" lon="13.2032217"><ele>694.0</ele><time>2026-05-05T10:25:32.567Z</time></trkpt><trkpt lat="38.040195" lon="13.20311"><ele>691.5</ele><time>2026-05-05T10:25:33.564Z</time></trkpt><trkpt lat="38.0403167" lon="13.2030017"><ele>689.0</ele><time>2026-05-05T10:25:34.565Z</time></trkpt><trkpt lat="38.0404333" lon="13.2028967"><ele>686.5</ele><time>2026-05-05T10:25:35.563Z</time></trkpt><trkpt lat="38.0405483" lon="13.2027983"><ele>684.0</ele><time>2026-05-05T10:25:36.565Z</time></trkpt><trkpt lat="38.0406533" lon="13.2027017"><ele>684.0</ele><time>2026-05-05T10:25:37.564Z</time></trkpt><trkpt lat="38.0407567" lon="13.2026083"><ele>684.0</ele><time>2026-05-05T10:25:38.565Z</time></trkpt><trkpt lat="38.040865" lon="13.2025217"><ele>684.0</ele><time>2026-05-05T10:25:39.564Z</time></trkpt><trkpt lat="38.0409783" lon="13.2024533"><ele>684.0</ele><time>2026-05-05T10:25:40.564Z</time></trkpt><trkpt lat="38.0410967" lon="13.2024033"><ele>683.5</ele><time>2026-05-05T10:25:41.563Z</time></trkpt><trkpt lat="38.041215" lon="13.2023683"><ele>683.0</ele><time>2026-05-05T10:25:42.564Z</time></trkpt><trkpt lat="38.0413283" lon="13.2023183"><ele>682.5</ele><time>2026-05-05T10:25:43.564Z</time></trkpt><trkpt lat="38.04143" lon="13.2022317"><ele>682.0</ele><time>2026-05-05T10:25:44.565Z</time></trkpt><trkpt lat="38.0415167" lon="13.20212"><ele>682.0</ele><time>2026-05-05T10:25:45.564Z</time></trkpt><trkpt lat="38.0415867" lon="13.2019867"><ele>682.0</ele><time>2026-05-05T10:25:46.565Z</time></trkpt><trkpt lat="38.04164" lon="13.2018383"><ele>682.0</ele><time>2026-05-05T10:25:47.566Z</time></trkpt><trkpt lat="38.0416683" lon="13.2016767"><ele>682.0</ele><time>2026-05-05T10:25:48.565Z</time></trkpt><trkpt lat="38.0416583" lon="13.2015217"><ele>680.5</ele><time>2026-05-05T10:25:49.564Z</time></trkpt><trkpt lat="38.0416183" lon="13.2013833"><ele>679.0</ele><time>2026-05-05T10:25:50.565Z</time></trkpt><trkpt lat="38.0415383" lon="13.2012783"><ele>677.5</ele><time>2026-05-05T10:25:51.564Z</time></trkpt><trkpt lat="38.04143" lon="13.2011867"><ele>676.0</ele><time>2026-05-05T10:25:52.565Z</time></trkpt><trkpt lat="38.0413217" lon="13.2010733"><ele>676.0</ele><time>2026-05-05T10:25:53.564Z</time></trkpt><trkpt lat="38.041225" lon="13.20093"><ele>676.0</ele><time>2026-05-05T10:25:54.565Z</time></trkpt><trkpt lat="38.0411567" lon="13.20077"><ele>676.0</ele><time>2026-05-05T10:25:55.563Z</time></trkpt><trkpt lat="38.0411133" lon="13.200605"><ele>676.0</ele><time>2026-05-05T10:25:56.564Z</time></trkpt><trkpt lat="38.0410817" lon="13.2004417"><ele>671.75</ele><time>2026-05-05T10:25:57.565Z</time></trkpt><trkpt lat="38.0410383" lon="13.2002867"><ele>667.5</ele><time>2026-05-05T10:25:58.565Z</time></trkpt><trkpt lat="38.0409667" lon="13.200155"><ele>663.25</ele><time>2026-05-05T10:25:59.564Z</time></trkpt><trkpt lat="38.0408833" lon="13.20004"><ele>659.0</ele><time>2026-05-05T10:26:00.565Z</time></trkpt><trkpt lat="38.0408083" lon="13.19993"><ele>659.0</ele><time>2026-05-05T10:26:01.565Z</time></trkpt><trkpt lat="38.0407617" lon="13.1998233"><ele>659.0</ele><time>2026-05-05T10:26:02.563Z</time></trkpt><trkpt lat="38.040755" lon="13.1997133"><ele>659.0</ele><time>2026-05-05T10:26:03.564Z</time></trkpt><trkpt lat="38.0407883" lon="13.1996167"><ele>659.0</ele><time>2026-05-05T10:26:04.565Z</time></trkpt><trkpt lat="38.04085" lon="13.1995383"><ele>659.0</ele><time>2026-05-05T10:26:05.564Z</time></trkpt><trkpt lat="38.0409317" lon="13.1995033"><ele>659.0</ele><time>2026-05-05T10:26:06.563Z</time></trkpt><trkpt lat="38.04103" lon="13.1995083"><ele>659.0</ele><time>2026-05-05T10:26:07.565Z</time></trkpt><trkpt lat="38.0411417" lon="13.199545"><ele>659.0</ele><time>2026-05-05T10:26:08.564Z</time></trkpt><trkpt lat="38.041255" lon="13.199575"><ele>659.0</ele><time>2026-05-05T10:26:09.564Z</time></trkpt><trkpt lat="38.041375" lon="13.1996"><ele>659.0</ele><time>2026-05-05T10:26:10.564Z</time></trkpt><trkpt lat="38.0414983" lon="13.1996"><ele>659.0</ele><time>2026-05-05T10:26:11.564Z</time></trkpt><trkpt lat="38.041625" lon="13.1995683"><ele>659.0</ele><time>2026-05-05T10:26:12.564Z</time></trkpt><trkpt lat="38.0417483" lon="13.199525"><ele>659.0</ele><time>2026-05-05T10:26:13.564Z</time></trkpt><trkpt lat="38.041875" lon="13.199495"><ele>659.0</ele><time>2026-05-05T10:26:14.564Z</time></trkpt><trkpt lat="38.0420133" lon="13.19949"><ele>656.6666666666666</ele><time>2026-05-05T10:26:15.563Z</time></trkpt><trkpt lat="38.0421583" lon="13.1994983"><ele>654.3333333333334</ele><time>2026-05-05T10:26:16.563Z</time></trkpt><trkpt lat="38.0423083" lon="13.1995083"><ele>652.0</ele><time>2026-05-05T10:26:17.565Z</time></trkpt><trkpt lat="38.042465" lon="13.19952"><ele>651.6666666666667</ele><time>2026-05-05T10:26:18.564Z</time></trkpt><trkpt lat="38.042625" lon="13.1995317"><ele>651.3333333333334</ele><time>2026-05-05T10:26:19.564Z</time></trkpt><trkpt lat="38.0427883" lon="13.1995417"><ele>651.0</ele><time>2026-05-05T10:26:20.565Z</time></trkpt><trkpt lat="38.0429483" lon="13.1995533"><ele>651.0</ele><time>2026-05-05T10:26:21.564Z</time></trkpt><trkpt lat="38.0431033" lon="13.1995633"><ele>651.0</ele><time>2026-05-05T10:26:22.565Z</time></trkpt><trkpt lat="38.0432567" lon="13.19956"><ele>651.0</ele><time>2026-05-05T10:26:23.563Z</time></trkpt><trkpt lat="38.0433983" lon="13.19952"><ele>650.25</ele><time>2026-05-05T10:26:24.564Z</time></trkpt><trkpt lat="38.04353" lon="13.1994483"><ele>649.5</ele><time>2026-05-05T10:26:25.564Z</time></trkpt><trkpt lat="38.0436667" lon="13.1993667"><ele>648.75</ele><time>2026-05-05T10:26:26.564Z</time></trkpt><trkpt lat="38.043805" lon="13.1992817"><ele>648.0</ele><time>2026-05-05T10:26:27.564Z</time></trkpt><trkpt lat="38.0439483" lon="13.199195"><ele>648.0</ele><time>2026-05-05T10:26:28.563Z</time></trkpt><trkpt lat="38.0440967" lon="13.199115"><ele>648.0</ele><time>2026-05-05T10:26:29.564Z</time></trkpt><trkpt lat="38.0442433" lon="13.1990467"><ele>648.0</ele><time>2026-05-05T10:26:30.565Z</time></trkpt><trkpt lat="38.0443917" lon="13.1989967"><ele>652.3333333333334</ele><time>2026-05-05T10:26:31.565Z</time></trkpt><trkpt lat="38.0445433" lon="13.1989633"><ele>656.6666666666667</ele><time>2026-05-05T10:26:32.563Z</time></trkpt><trkpt lat="38.0447" lon="13.1989267"><ele>661.0</ele><time>2026-05-05T10:26:33.564Z</time></trkpt><trkpt lat="38.04486" lon="13.1988883"><ele>657.3333333333334</ele><time>2026-05-05T10:26:34.564Z</time></trkpt><trkpt lat="38.0450167" lon="13.1988417"><ele>653.6666666666666</ele><time>2026-05-05T10:26:35.564Z</time></trkpt><trkpt lat="38.0451683" lon="13.1987933"><ele>650.0</ele><time>2026-05-05T10:26:36.564Z</time></trkpt><trkpt lat="38.0453167" lon="13.19874"><ele>650.0</ele><time>2026-05-05T10:26:37.565Z</time></trkpt><trkpt lat="38.0454567" lon="13.1986883"><ele>650.0</ele><time>2026-05-05T10:26:38.565Z</time></trkpt><trkpt lat="38.04559" lon="13.198635"><ele>650.0</ele><time>2026-05-05T10:26:39.564Z</time></trkpt><trkpt lat="38.04571" lon="13.1985733"><ele>650.0</ele><time>2026-05-05T10:26:40.564Z</time></trkpt><trkpt lat="38.0458117" lon="13.19848"><ele>649.5</ele><time>2026-05-05T10:26:41.564Z</time></trkpt><trkpt lat="38.0458933" lon="13.19836"><ele>649.0</ele><time>2026-05-05T10:26:42.564Z</time></trkpt><trkpt lat="38.045965" lon="13.1982283"><ele>648.5</ele><time>2026-05-05T10:26:43.563Z</time></trkpt><trkpt lat="38.0460467" lon="13.1981"><ele>648.0</ele><time>2026-05-05T10:26:44.565Z</time></trkpt><trkpt lat="38.04615" lon="13.1979917"><ele>648.0</ele><time>2026-05-05T10:26:45.565Z</time></trkpt><trkpt lat="38.0462717" lon="13.1979183"><ele>648.0</ele><time>2026-05-05T10:26:46.563Z</time></trkpt><trkpt lat="38.0464033" lon="13.1978817"><ele>648.0</ele><time>2026-05-05T10:26:47.564Z</time></trkpt><trkpt lat="38.0465417" lon="13.1978583"><ele>648.0</ele><time>2026-05-05T10:26:48.564Z</time></trkpt><trkpt lat="38.04669" lon="13.1978417"><ele>642.6666666666666</ele><time>2026-05-05T10:26:49.565Z</time></trkpt><trkpt lat="38.0468467" lon="13.1978233"><ele>637.3333333333333</ele><time>2026-05-05T10:26:50.569Z</time></trkpt><trkpt lat="38.0470117" lon="13.1978167"><ele>632.0</ele><time>2026-05-05T10:26:51.563Z</time></trkpt><trkpt lat="38.0471817" lon="13.1978283"><ele>632.0</ele><time>2026-05-05T10:26:52.564Z</time></trkpt><trkpt lat="38.0473483" lon="13.1978667"><ele>632.0</ele><time>2026-05-05T10:26:53.565Z</time></trkpt><trkpt lat="38.0475033" lon="13.1979133"><ele>632.0</ele><time>2026-05-05T10:26:54.563Z</time></trkpt><trkpt lat="38.047645" lon="13.1979483"><ele>630.75</ele><time>2026-05-05T10:26:55.566Z</time></trkpt><trkpt lat="38.0477767" lon="13.197965"><ele>629.5</ele><time>2026-05-05T10:26:56.564Z</time></trkpt><trkpt lat="38.0478967" lon="13.1979567"><ele>628.25</ele><time>2026-05-05T10:26:57.564Z</time></trkpt><trkpt lat="38.048005" lon="13.1979267"><ele>627.0</ele><time>2026-05-05T10:26:58.565Z</time></trkpt><trkpt lat="38.0480967" lon="13.197895"><ele>627.0</ele><time>2026-05-05T10:26:59.564Z</time></trkpt><trkpt lat="38.0481733" lon="13.1978683"><ele>627.0</ele><time>2026-05-05T10:27:00.565Z</time></trkpt><trkpt lat="38.0482833" lon="13.197835"><ele>627.0</ele><time>2026-05-05T10:27:02.564Z</time></trkpt><trkpt lat="38.04837" lon="13.1978317"><ele>627.0</ele><time>2026-05-05T10:27:04.564Z</time></trkpt><trkpt lat="38.04842" lon="13.1979183"><ele>627.0</ele><time>2026-05-05T10:27:06.563Z</time></trkpt><trkpt lat="38.048445" lon="13.1980633"><ele>625.1666666666666</ele><time>2026-05-05T10:27:08.565Z</time></trkpt><trkpt lat="38.0484617" lon="13.1981433"><ele>623.3333333333334</ele><time>2026-05-05T10:27:09.565Z</time></trkpt><trkpt lat="38.0484817" lon="13.1982317"><ele>621.5</ele><time>2026-05-05T10:27:10.565Z</time></trkpt><trkpt lat="38.0485017" lon="13.1983283"><ele>619.6666666666667</ele><time>2026-05-05T10:27:11.564Z</time></trkpt><trkpt lat="38.0485317" lon="13.1984217"><ele>617.8333333333334</ele><time>2026-05-05T10:27:12.564Z</time></trkpt><trkpt lat="38.0485817" lon="13.1984983"><ele>616.0</ele><time>2026-05-05T10:27:13.564Z</time></trkpt><trkpt lat="38.0486333" lon="13.1985733"><ele>615.6666666666667</ele><time>2026-05-05T10:27:14.565Z</time></trkpt><trkpt lat="38.0486833" lon="13.1986633"><ele>615.3333333333334</ele><time>2026-05-05T10:27:15.564Z</time></trkpt><trkpt lat="38.0487233" lon="13.19877"><ele>615.0</ele><time>2026-05-05T10:27:16.564Z</time></trkpt><trkpt lat="38.0487667" lon="13.198875"><ele>614.6666666666666</ele><time>2026-05-05T10:27:17.564Z</time></trkpt><trkpt lat="38.04882" lon="13.198955"><ele>614.3333333333333</ele><time>2026-05-05T10:27:18.563Z</time></trkpt><trkpt lat="38.0488933" lon="13.199005"><ele>614.0</ele><time>2026-05-05T10:27:19.565Z</time></trkpt><trkpt lat="38.04898" lon="13.1990317"><ele>614.0</ele><time>2026-05-05T10:27:20.565Z</time></trkpt><trkpt lat="38.0490667" lon="13.1990133"><ele>614.0</ele><time>2026-05-05T10:27:21.564Z</time></trkpt><trkpt lat="38.049155" lon="13.1989783"><ele>614.0</ele><time>2026-05-05T10:27:22.566Z</time></trkpt><trkpt lat="38.04925" lon="13.1989367"><ele>614.0</ele><time>2026-05-05T10:27:23.565Z</time></trkpt><trkpt lat="38.0493567" lon="13.1988967"><ele>614.0</ele><time>2026-05-05T10:27:24.565Z</time></trkpt><trkpt lat="38.0494683" lon="13.1988617"><ele>611.5</ele><time>2026-05-05T10:27:25.564Z</time></trkpt><trkpt lat="38.0495833" lon="13.1988267"><ele>609.0</ele><time>2026-05-05T10:27:26.564Z</time></trkpt><trkpt lat="38.049705" lon="13.1987983"><ele>606.5</ele><time>2026-05-05T10:27:27.564Z</time></trkpt><trkpt lat="38.0498267" lon="13.19878"><ele>604.0</ele><time>2026-05-05T10:27:28.565Z</time></trkpt><trkpt lat="38.0499533" lon="13.1987767"><ele>606.75</ele><time>2026-05-05T10:27:29.565Z</time></trkpt><trkpt lat="38.05008" lon="13.1987917"><ele>609.5</ele><time>2026-05-05T10:27:30.564Z</time></trkpt><trkpt lat="38.0502017" lon="13.1988233"><ele>612.25</ele><time>2026-05-05T10:27:31.564Z</time></trkpt><trkpt lat="38.0503117" lon="13.1988817"><ele>615.0</ele><time>2026-05-05T10:27:32.565Z</time></trkpt><trkpt lat="38.05041" lon="13.19896"><ele>616.25</ele><time>2026-05-05T10:27:33.564Z</time></trkpt><trkpt lat="38.0505033" lon="13.1990467"><ele>617.5</ele><time>2026-05-05T10:27:34.565Z</time></trkpt><trkpt lat="38.0505967" lon="13.199135"><ele>618.75</ele><time>2026-05-05T10:27:35.564Z</time></trkpt><trkpt lat="38.05069" lon="13.1992333"><ele>620.0</ele><time>2026-05-05T10:27:36.564Z</time></trkpt><trkpt lat="38.0507817" lon="13.1993467"><ele>621.25</ele><time>2026-05-05T10:27:37.564Z</time></trkpt><trkpt lat="38.05087" lon="13.1994667"><ele>622.5</ele><time>2026-05-05T10:27:38.564Z</time></trkpt><trkpt lat="38.0509617" lon="13.1995833"><ele>623.75</ele><time>2026-05-05T10:27:39.565Z</time></trkpt><trkpt lat="38.051055" lon="13.1996867"><ele>625.0</ele><time>2026-05-05T10:27:40.563Z</time></trkpt><trkpt lat="38.0511583" lon="13.1997783"><ele>626.75</ele><time>2026-05-05T10:27:41.564Z</time></trkpt><trkpt lat="38.0512683" lon="13.1998533"><ele>628.5</ele><time>2026-05-05T10:27:42.563Z</time></trkpt><trkpt lat="38.0513833" lon="13.1999167"><ele>630.25</ele><time>2026-05-05T10:27:43.564Z</time></trkpt><trkpt lat="38.0515017" lon="13.1999617"><ele>632.0</ele><time>2026-05-05T10:27:44.564Z</time></trkpt><trkpt lat="38.051625" lon="13.199985"><ele>632.0</ele><time>2026-05-05T10:27:45.564Z</time></trkpt><trkpt lat="38.05175" lon="13.1999867"><ele>632.0</ele><time>2026-05-05T10:27:46.564Z</time></trkpt><trkpt lat="38.051875" lon="13.1999867"><ele>632.0</ele><time>2026-05-05T10:27:47.564Z</time></trkpt><trkpt lat="38.052" lon="13.1999883"><ele>632.0</ele><time>2026-05-05T10:27:48.563Z</time></trkpt><trkpt lat="38.052125" lon="13.1999983"><ele>632.0</ele><time>2026-05-05T10:27:49.565Z</time></trkpt><trkpt lat="38.0522483" lon="13.2000233"><ele>632.0</ele><time>2026-05-05T10:27:50.564Z</time></trkpt><trkpt lat="38.052365" lon="13.20007"><ele>632.0</ele><time>2026-05-05T10:27:51.565Z</time></trkpt><trkpt lat="38.0524817" lon="13.2001333"><ele>632.0</ele><time>2026-05-05T10:27:52.564Z</time></trkpt><trkpt lat="38.0525983" lon="13.2002017"><ele>634.75</ele><time>2026-05-05T10:27:53.565Z</time></trkpt><trkpt lat="38.05272" lon="13.200265"><ele>637.5</ele><time>2026-05-05T10:27:54.564Z</time></trkpt><trkpt lat="38.052845" lon="13.2003183"><ele>640.25</ele><time>2026-05-05T10:27:55.565Z</time></trkpt><trkpt lat="38.0529733" lon="13.200365"><ele>643.0</ele><time>2026-05-05T10:27:56.564Z</time></trkpt><trkpt lat="38.0531067" lon="13.2004117"><ele>643.0</ele><time>2026-05-05T10:27:57.565Z</time></trkpt><trkpt lat="38.0532383" lon="13.2004567"><ele>643.0</ele><time>2026-05-05T10:27:58.565Z</time></trkpt><trkpt lat="38.0533717" lon="13.2005017"><ele>643.0</ele><time>2026-05-05T10:27:59.565Z</time></trkpt><trkpt lat="38.0535083" lon="13.2005483"><ele>643.0</ele><time>2026-05-05T10:28:00.563Z</time></trkpt><trkpt lat="38.0536467" lon="13.2006"><ele>643.0</ele><time>2026-05-05T10:28:01.564Z</time></trkpt><trkpt lat="38.0537867" lon="13.2006517"><ele>643.0</ele><time>2026-05-05T10:28:02.565Z</time></trkpt><trkpt lat="38.053925" lon="13.2007083"><ele>643.0</ele><time>2026-05-05T10:28:03.564Z</time></trkpt><trkpt lat="38.0540533" lon="13.2007583"><ele>643.0</ele><time>2026-05-05T10:28:04.565Z</time></trkpt><trkpt lat="38.0541733" lon="13.2007967"><ele>643.5999999999999</ele><time>2026-05-05T10:28:05.565Z</time></trkpt><trkpt lat="38.05428" lon="13.20081"><ele>644.1999999999999</ele><time>2026-05-05T10:28:06.564Z</time></trkpt><trkpt lat="38.054375" lon="13.2007917"><ele>644.8</ele><time>2026-05-05T10:28:07.564Z</time></trkpt><trkpt lat="38.05446" lon="13.2007433"><ele>645.4</ele><time>2026-05-05T10:28:08.564Z</time></trkpt><trkpt lat="38.0545417" lon="13.2006767"><ele>646.0</ele><time>2026-05-05T10:28:09.565Z</time></trkpt><trkpt lat="38.0546267" lon="13.2006033"><ele>647.25</ele><time>2026-05-05T10:28:10.564Z</time></trkpt><trkpt lat="38.0547183" lon="13.200525"><ele>648.5</ele><time>2026-05-05T10:28:11.564Z</time></trkpt><trkpt lat="38.054815" lon="13.2004417"><ele>649.75</ele><time>2026-05-05T10:28:12.565Z</time></trkpt><trkpt lat="38.0549133" lon="13.2003567"><ele>651.0</ele><time>2026-05-05T10:28:13.564Z</time></trkpt><trkpt lat="38.05501" lon="13.20027"><ele>651.0</ele><time>2026-05-05T10:28:14.565Z</time></trkpt><trkpt lat="38.0550983" lon="13.2001833"><ele>651.0</ele><time>2026-05-05T10:28:15.565Z</time></trkpt><trkpt lat="38.055175" lon="13.20008"><ele>651.0</ele><time>2026-05-05T10:28:16.564Z</time></trkpt><trkpt lat="38.055245" lon="13.1999633"><ele>651.0</ele><time>2026-05-05T10:28:17.565Z</time></trkpt><trkpt lat="38.05531" lon="13.199835"><ele>653.0</ele><time>2026-05-05T10:28:18.565Z</time></trkpt><trkpt lat="38.0553733" lon="13.1997"><ele>655.0</ele><time>2026-05-05T10:28:19.564Z</time></trkpt><trkpt lat="38.05543" lon="13.1995667"><ele>657.0</ele><time>2026-05-05T10:28:20.565Z</time></trkpt><trkpt lat="38.0554817" lon="13.19945"><ele>659.0</ele><time>2026-05-05T10:28:21.569Z</time></trkpt><trkpt lat="38.05554" lon="13.1993567"><ele>661.0</ele><time>2026-05-05T10:28:22.564Z</time></trkpt><trkpt lat="38.0556017" lon="13.1992867"><ele>661.0</ele><time>2026-05-05T10:28:23.564Z</time></trkpt><trkpt lat="38.0556783" lon="13.1992433"><ele>661.0</ele><time>2026-05-05T10:28:24.565Z</time></trkpt><trkpt lat="38.0557683" lon="13.199225"><ele>661.0</ele><time>2026-05-05T10:28:25.565Z</time></trkpt><trkpt lat="38.055875" lon="13.1992167"><ele>661.0</ele><time>2026-05-05T10:28:26.566Z</time></trkpt><trkpt lat="38.0559867" lon="13.1992067"><ele>661.0</ele><time>2026-05-05T10:28:27.565Z</time></trkpt><trkpt lat="38.0561" lon="13.1992017"><ele>658.0</ele><time>2026-05-05T10:28:28.565Z</time></trkpt><trkpt lat="38.0562133" lon="13.1992067"><ele>655.0</ele><time>2026-05-05T10:28:29.565Z</time></trkpt><trkpt lat="38.0563217" lon="13.19923"><ele>652.0</ele><time>2026-05-05T10:28:30.564Z</time></trkpt><trkpt lat="38.0564217" lon="13.1992767"><ele>649.0</ele><time>2026-05-05T10:28:31.564Z</time></trkpt><trkpt lat="38.0565133" lon="13.1993467"><ele>646.0</ele><time>2026-05-05T10:28:32.564Z</time></trkpt><trkpt lat="38.056605" lon="13.1994267"><ele>646.5999999999999</ele><time>2026-05-05T10:28:33.564Z</time></trkpt><trkpt lat="38.0567" lon="13.19951"><ele>647.2</ele><time>2026-05-05T10:28:34.563Z</time></trkpt><trkpt lat="38.0567867" lon="13.1995967"><ele>647.8</ele><time>2026-05-05T10:28:35.565Z</time></trkpt><trkpt lat="38.0568583" lon="13.1996883"><ele>648.4000000000001</ele><time>2026-05-05T10:28:36.564Z</time></trkpt><trkpt lat="38.0569117" lon="13.1997883"><ele>649.0</ele><time>2026-05-05T10:28:37.564Z</time></trkpt><trkpt lat="38.0569467" lon="13.1998967"><ele>649.0</ele><time>2026-05-05T10:28:38.565Z</time></trkpt><trkpt lat="38.0569733" lon="13.2000133"><ele>649.0</ele><time>2026-05-05T10:28:39.564Z</time></trkpt><trkpt lat="38.0570017" lon="13.2001317"><ele>649.0</ele><time>2026-05-05T10:28:40.564Z</time></trkpt><trkpt lat="38.0570317" lon="13.2002533"><ele>649.0</ele><time>2026-05-05T10:28:41.563Z</time></trkpt><trkpt lat="38.0570633" lon="13.20037"><ele>649.0</ele><time>2026-05-05T10:28:42.564Z</time></trkpt><trkpt lat="38.0570917" lon="13.2004833"><ele>649.0</ele><time>2026-05-05T10:28:43.563Z</time></trkpt><trkpt lat="38.0571217" lon="13.2005917"><ele>649.0</ele><time>2026-05-05T10:28:44.565Z</time></trkpt><trkpt lat="38.05716" lon="13.2006967"><ele>649.0</ele><time>2026-05-05T10:28:45.565Z</time></trkpt><trkpt lat="38.057215" lon="13.2007933"><ele>649.0</ele><time>2026-05-05T10:28:46.563Z</time></trkpt><trkpt lat="38.057285" lon="13.2008783"><ele>649.0</ele><time>2026-05-05T10:28:47.565Z</time></trkpt><trkpt lat="38.0573667" lon="13.20095"><ele>646.75</ele><time>2026-05-05T10:28:48.564Z</time></trkpt><trkpt lat="38.0574567" lon="13.2010217"><ele>644.5</ele><time>2026-05-05T10:28:49.565Z</time></trkpt><trkpt lat="38.05755" lon="13.2011"><ele>642.25</ele><time>2026-05-05T10:28:50.565Z</time></trkpt><trkpt lat="38.0576483" lon="13.20118"><ele>640.0</ele><time>2026-05-05T10:28:51.565Z</time></trkpt><trkpt lat="38.0577517" lon="13.201265"><ele>640.0</ele><time>2026-05-05T10:28:52.566Z</time></trkpt><trkpt lat="38.05786" lon="13.20135"><ele>640.0</ele><time>2026-05-05T10:28:53.564Z</time></trkpt><trkpt lat="38.05797" lon="13.2014383"><ele>640.0</ele><time>2026-05-05T10:28:54.565Z</time></trkpt><trkpt lat="38.058075" lon="13.2015233"><ele>640.0</ele><time>2026-05-05T10:28:55.565Z</time></trkpt><trkpt lat="38.0581733" lon="13.2016033"><ele>641.5</ele><time>2026-05-05T10:28:56.565Z</time></trkpt><trkpt lat="38.0582683" lon="13.2016767"><ele>643.0</ele><time>2026-05-05T10:28:57.565Z</time></trkpt><trkpt lat="38.0583583" lon="13.2017483"><ele>644.5</ele><time>2026-05-05T10:28:58.565Z</time></trkpt><trkpt lat="38.0584317" lon="13.201795"><ele>646.0</ele><time>2026-05-05T10:28:59.565Z</time></trkpt><trkpt lat="38.058505" lon="13.2018233"><ele>647.5</ele><time>2026-05-05T10:29:00.565Z</time></trkpt><trkpt lat="38.0585767" lon="13.2018317"><ele>649.0</ele><time>2026-05-05T10:29:01.565Z</time></trkpt><trkpt lat="38.0586283" lon="13.201785"><ele>649.0</ele><time>2026-05-05T10:29:02.564Z</time></trkpt><trkpt lat="38.0586767" lon="13.2017217"><ele>649.0</ele><time>2026-05-05T10:29:03.564Z</time></trkpt><trkpt lat="38.05871" lon="13.2016383"><ele>649.0</ele><time>2026-05-05T10:29:04.564Z</time></trkpt><trkpt lat="38.0587267" lon="13.2015217"><ele>649.0</ele><time>2026-05-05T10:29:05.565Z</time></trkpt><trkpt lat="38.0587317" lon="13.2013983"><ele>649.0</ele><time>2026-05-05T10:29:06.564Z</time></trkpt><trkpt lat="38.05873" lon="13.2012533"><ele>649.0</ele><time>2026-05-05T10:29:07.565Z</time></trkpt><trkpt lat="38.05873" lon="13.201105"><ele>646.2</ele><time>2026-05-05T10:29:08.564Z</time></trkpt><trkpt lat="38.05873" lon="13.2009517"><ele>643.4000000000001</ele><time>2026-05-05T10:29:09.565Z</time></trkpt><trkpt lat="38.0587367" lon="13.2008117"><ele>640.6</ele><time>2026-05-05T10:29:10.564Z</time></trkpt><trkpt lat="38.0587583" lon="13.200685"><ele>637.8</ele><time>2026-05-05T10:29:11.564Z</time></trkpt><trkpt lat="38.0588017" lon="13.2005733"><ele>635.0</ele><time>2026-05-05T10:29:12.564Z</time></trkpt><trkpt lat="38.0588683" lon="13.2004667"><ele>635.5</ele><time>2026-05-05T10:29:13.564Z</time></trkpt><trkpt lat="38.0589483" lon="13.200355"><ele>636.0</ele><time>2026-05-05T10:29:14.564Z</time></trkpt><trkpt lat="38.0590367" lon="13.2002383"><ele>636.5</ele><time>2026-05-05T10:29:15.564Z</time></trkpt><trkpt lat="38.0591283" lon="13.200115"><ele>637.0</ele><time>2026-05-05T10:29:16.566Z</time></trkpt><trkpt lat="38.0592217" lon="13.1999867"><ele>637.0</ele><time>2026-05-05T10:29:17.565Z</time></trkpt><trkpt lat="38.0593133" lon="13.1998567"><ele>637.0</ele><time>2026-05-05T10:29:18.565Z</time></trkpt><trkpt lat="38.0594067" lon="13.1997383"><ele>637.0</ele><time>2026-05-05T10:29:19.564Z</time></trkpt><trkpt lat="38.0595067" lon="13.1996433"><ele>637.0</ele><time>2026-05-05T10:29:20.565Z</time></trkpt><trkpt lat="38.0596183" lon="13.1995767"><ele>635.5</ele><time>2026-05-05T10:29:21.565Z</time></trkpt><trkpt lat="38.059735" lon="13.199525"><ele>634.0</ele><time>2026-05-05T10:29:22.565Z</time></trkpt><trkpt lat="38.0598567" lon="13.199475"><ele>632.5</ele><time>2026-05-05T10:29:23.565Z</time></trkpt><trkpt lat="38.0599817" lon="13.1994283"><ele>631.0</ele><time>2026-05-05T10:29:24.566Z</time></trkpt><trkpt lat="38.0601033" lon="13.19939"><ele>631.0</ele><time>2026-05-05T10:29:25.564Z</time></trkpt><trkpt lat="38.06022" lon="13.1993683"><ele>631.0</ele><time>2026-05-05T10:29:26.564Z</time></trkpt><trkpt lat="38.0603333" lon="13.1993533"><ele>631.0</ele><time>2026-05-05T10:29:27.564Z</time></trkpt><trkpt lat="38.0604417" lon="13.1993483"><ele>631.0</ele><time>2026-05-05T10:29:28.564Z</time></trkpt><trkpt lat="38.0605483" lon="13.1993567"><ele>631.0</ele><time>2026-05-05T10:29:29.564Z</time></trkpt><trkpt lat="38.06065" lon="13.1993783"><ele>631.0</ele><time>2026-05-05T10:29:30.565Z</time></trkpt><trkpt lat="38.0607417" lon="13.19941"><ele>631.0</ele><time>2026-05-05T10:29:31.564Z</time></trkpt><trkpt lat="38.06083" lon="13.199445"><ele>631.0</ele><time>2026-05-05T10:29:32.565Z</time></trkpt><trkpt lat="38.060915" lon="13.1994733"><ele>631.0</ele><time>2026-05-05T10:29:33.563Z</time></trkpt><trkpt lat="38.0609967" lon="13.199495"><ele>631.0</ele><time>2026-05-05T10:29:34.565Z</time></trkpt><trkpt lat="38.061075" lon="13.1995"><ele>631.0</ele><time>2026-05-05T10:29:35.564Z</time></trkpt><trkpt lat="38.0611467" lon="13.1994833"><ele>630.3333333333334</ele><time>2026-05-05T10:29:36.564Z</time></trkpt><trkpt lat="38.0612083" lon="13.1994433"><ele>629.6666666666667</ele><time>2026-05-05T10:29:37.565Z</time></trkpt><trkpt lat="38.0612617" lon="13.19939"><ele>629.0</ele><time>2026-05-05T10:29:38.565Z</time></trkpt><trkpt lat="38.0612983" lon="13.1993183"><ele>628.3333333333334</ele><time>2026-05-05T10:29:39.564Z</time></trkpt><trkpt lat="38.061325" lon="13.1992267"><ele>627.6666666666666</ele><time>2026-05-05T10:29:40.564Z</time></trkpt><trkpt lat="38.0613467" lon="13.1991217"><ele>627.0</ele><time>2026-05-05T10:29:41.564Z</time></trkpt><trkpt lat="38.0613683" lon="13.199005"><ele>624.8000000000001</ele><time>2026-05-05T10:29:42.564Z</time></trkpt><trkpt lat="38.06139" lon="13.1988767"><ele>622.6</ele><time>2026-05-05T10:29:43.564Z</time></trkpt><trkpt lat="38.061415" lon="13.1987433"><ele>620.4000000000001</ele><time>2026-05-05T10:29:44.565Z</time></trkpt><trkpt lat="38.0614483" lon="13.1986117"><ele>618.2</ele><time>2026-05-05T10:29:45.564Z</time></trkpt><trkpt lat="38.061495" lon="13.1984883"><ele>616.0</ele><time>2026-05-05T10:29:46.564Z</time></trkpt><trkpt lat="38.0615517" lon="13.1983733"><ele>617.0</ele><time>2026-05-05T10:29:47.565Z</time></trkpt><trkpt lat="38.0616183" lon="13.1982617"><ele>618.0</ele><time>2026-05-05T10:29:48.565Z</time></trkpt><trkpt lat="38.0616983" lon="13.19816"><ele>619.0</ele><time>2026-05-05T10:29:49.564Z</time></trkpt><trkpt lat="38.0617933" lon="13.1980717"><ele>620.0</ele><time>2026-05-05T10:29:50.565Z</time></trkpt><trkpt lat="38.0618933" lon="13.1979967"><ele>620.0</ele><time>2026-05-05T10:29:51.565Z</time></trkpt><trkpt lat="38.061995" lon="13.1979267"><ele>620.0</ele><time>2026-05-05T10:29:52.564Z</time></trkpt><trkpt lat="38.0620933" lon="13.1978567"><ele>620.0</ele><time>2026-05-05T10:29:53.565Z</time></trkpt><trkpt lat="38.06219" lon="13.19779"><ele>620.0</ele><time>2026-05-05T10:29:54.565Z</time></trkpt><trkpt lat="38.062285" lon="13.1977283"><ele>620.0</ele><time>2026-05-05T10:29:55.566Z</time></trkpt><trkpt lat="38.06238" lon="13.1976733"><ele>621.6</ele><time>2026-05-05T10:29:56.565Z</time></trkpt><trkpt lat="38.062475" lon="13.1976267"><ele>623.2</ele><time>2026-05-05T10:29:57.564Z</time></trkpt><trkpt lat="38.0625683" lon="13.1975883"><ele>624.8</ele><time>2026-05-05T10:29:58.564Z</time></trkpt><trkpt lat="38.062665" lon="13.1975667"><ele>626.4</ele><time>2026-05-05T10:29:59.564Z</time></trkpt><trkpt lat="38.0627733" lon="13.197575"><ele>628.0</ele><time>2026-05-05T10:30:00.564Z</time></trkpt><trkpt lat="38.0628883" lon="13.197595"><ele>628.0</ele><time>2026-05-05T10:30:01.564Z</time></trkpt><trkpt lat="38.06301" lon="13.1976183"><ele>628.0</ele><time>2026-05-05T10:30:02.565Z</time></trkpt><trkpt lat="38.06314" lon="13.19764"><ele>628.0</ele><time>2026-05-05T10:30:03.565Z</time></trkpt><trkpt lat="38.0632683" lon="13.197665"><ele>628.0</ele><time>2026-05-05T10:30:04.564Z</time></trkpt><trkpt lat="38.0633917" lon="13.1976883"><ele>627.5</ele><time>2026-05-05T10:30:05.565Z</time></trkpt><trkpt lat="38.0635117" lon="13.1977067"><ele>627.0</ele><time>2026-05-05T10:30:06.565Z</time></trkpt><trkpt lat="38.0636317" lon="13.1977317"><ele>626.5</ele><time>2026-05-05T10:30:07.565Z</time></trkpt><trkpt lat="38.0637533" lon="13.1977583"><ele>626.0</ele><time>2026-05-05T10:30:08.566Z</time></trkpt><trkpt lat="38.063875" lon="13.19778"><ele>626.0</ele><time>2026-05-05T10:30:09.565Z</time></trkpt><trkpt lat="38.0639933" lon="13.1977983"><ele>626.0</ele><time>2026-05-05T10:30:10.565Z</time></trkpt><trkpt lat="38.0641117" lon="13.197815"><ele>626.0</ele><time>2026-05-05T10:30:11.564Z</time></trkpt><trkpt lat="38.06423" lon="13.1978317"><ele>626.0</ele><time>2026-05-05T10:30:12.565Z</time></trkpt><trkpt lat="38.06435" lon="13.1978533"><ele>625.8</ele><time>2026-05-05T10:30:13.564Z</time></trkpt><trkpt lat="38.0644667" lon="13.1978783"><ele>625.6</ele><time>2026-05-05T10:30:14.565Z</time></trkpt><trkpt lat="38.0645733" lon="13.1979183"><ele>625.4</ele><time>2026-05-05T10:30:15.563Z</time></trkpt><trkpt lat="38.064665" lon="13.19798"><ele>625.2</ele><time>2026-05-05T10:30:16.564Z</time></trkpt><trkpt lat="38.0647483" lon="13.1980633"><ele>625.0</ele><time>2026-05-05T10:30:17.566Z</time></trkpt><trkpt lat="38.0648283" lon="13.19816"><ele>625.6</ele><time>2026-05-05T10:30:18.563Z</time></trkpt><trkpt lat="38.06491" lon="13.1982617"><ele>626.2</ele><time>2026-05-05T10:30:19.564Z</time></trkpt><trkpt lat="38.0649833" lon="13.1983533"><ele>626.8</ele><time>2026-05-05T10:30:20.565Z</time></trkpt><trkpt lat="38.0650383" lon="13.1984283"><ele>627.4</ele><time>2026-05-05T10:30:21.564Z</time></trkpt><trkpt lat="38.0650883" lon="13.1985"><ele>628.0</ele><time>2026-05-05T10:30:22.566Z</time></trkpt><trkpt lat="38.065145" lon="13.19858"><ele>628.0</ele><time>2026-05-05T10:30:23.565Z</time></trkpt><trkpt lat="38.065205" lon="13.1986717"><ele>628.0</ele><time>2026-05-05T10:30:24.564Z</time></trkpt><trkpt lat="38.065265" lon="13.1987767"><ele>628.0</ele><time>2026-05-05T10:30:25.565Z</time></trkpt><trkpt lat="38.0653267" lon="13.1988917"><ele>628.0</ele><time>2026-05-05T10:30:26.565Z</time></trkpt><trkpt lat="38.0653933" lon="13.199015"><ele>628.0</ele><time>2026-05-05T10:30:27.565Z</time></trkpt><trkpt lat="38.0654617" lon="13.1991483"><ele>629.75</ele><time>2026-05-05T10:30:28.564Z</time></trkpt><trkpt lat="38.0655317" lon="13.1992917"><ele>631.5</ele><time>2026-05-05T10:30:29.564Z</time></trkpt><trkpt lat="38.0656017" lon="13.19944"><ele>633.25</ele><time>2026-05-05T10:30:30.564Z</time></trkpt><trkpt lat="38.0656733" lon="13.1995967"><ele>635.0</ele><time>2026-05-05T10:30:31.565Z</time></trkpt><trkpt lat="38.065745" lon="13.1997533"><ele>633.0</ele><time>2026-05-05T10:30:32.565Z</time></trkpt><trkpt lat="38.06582" lon="13.1999067"><ele>631.0</ele><time>2026-05-05T10:30:33.565Z</time></trkpt><trkpt lat="38.0658983" lon="13.2000433"><ele>629.0</ele><time>2026-05-05T10:30:34.565Z</time></trkpt><trkpt lat="38.0659883" lon="13.2001517"><ele>627.0</ele><time>2026-05-05T10:30:35.564Z</time></trkpt><trkpt lat="38.0660917" lon="13.200225"><ele>627.0</ele><time>2026-05-05T10:30:36.565Z</time></trkpt><trkpt lat="38.0662083" lon="13.2002717"><ele>627.0</ele><time>2026-05-05T10:30:37.565Z</time></trkpt><trkpt lat="38.0663333" lon="13.2003"><ele>627.0</ele><time>2026-05-05T10:30:38.566Z</time></trkpt><trkpt lat="38.06647" lon="13.2003117"><ele>627.0</ele><time>2026-05-05T10:30:39.565Z</time></trkpt><trkpt lat="38.0666133" lon="13.200315"><ele>623.6666666666666</ele><time>2026-05-05T10:30:40.566Z</time></trkpt><trkpt lat="38.06676" lon="13.200315"><ele>620.3333333333333</ele><time>2026-05-05T10:30:41.563Z</time></trkpt><trkpt lat="38.0669117" lon="13.2003167"><ele>617.0</ele><time>2026-05-05T10:30:42.564Z</time></trkpt><trkpt lat="38.0670683" lon="13.2003167"><ele>617.0</ele><time>2026-05-05T10:30:43.563Z</time></trkpt><trkpt lat="38.0672267" lon="13.2003167"><ele>617.0</ele><time>2026-05-05T10:30:44.565Z</time></trkpt><trkpt lat="38.067375" lon="13.200315"><ele>617.0</ele><time>2026-05-05T10:30:45.565Z</time></trkpt><trkpt lat="38.0675167" lon="13.2002983"><ele>617.0</ele><time>2026-05-05T10:30:46.563Z</time></trkpt><trkpt lat="38.06765" lon="13.20026"><ele>616.5</ele><time>2026-05-05T10:30:47.564Z</time></trkpt><trkpt lat="38.067775" lon="13.2001983"><ele>616.0</ele><time>2026-05-05T10:30:48.564Z</time></trkpt><trkpt lat="38.06789" lon="13.20013"><ele>615.5</ele><time>2026-05-05T10:30:49.564Z</time></trkpt><trkpt lat="38.068" lon="13.2000583"><ele>615.0</ele><time>2026-05-05T10:30:50.564Z</time></trkpt><trkpt lat="38.0681133" lon="13.1999867"><ele>615.0</ele><time>2026-05-05T10:30:51.565Z</time></trkpt><trkpt lat="38.0682267" lon="13.1999167"><ele>615.0</ele><time>2026-05-05T10:30:52.565Z</time></trkpt><trkpt lat="38.068335" lon="13.199855"><ele>615.0</ele><time>2026-05-05T10:30:53.564Z</time></trkpt><trkpt lat="38.0684283" lon="13.1998017"><ele>615.0</ele><time>2026-05-05T10:30:54.565Z</time></trkpt><trkpt lat="38.0684933" lon="13.199765"><ele>615.0</ele><time>2026-05-05T10:30:55.565Z</time></trkpt><trkpt lat="38.0685883" lon="13.19971"><ele>612.4</ele><time>2026-05-05T10:30:57.565Z</time></trkpt><trkpt lat="38.0687083" lon="13.1996467"><ele>609.8</ele><time>2026-05-05T10:30:59.565Z</time></trkpt><trkpt lat="38.0687833" lon="13.199605"><ele>607.2</ele><time>2026-05-05T10:31:00.565Z</time></trkpt><trkpt lat="38.06887" lon="13.1995517"><ele>604.6</ele><time>2026-05-05T10:31:01.565Z</time></trkpt><trkpt lat="38.0689617" lon="13.1994983"><ele>602.0</ele><time>2026-05-05T10:31:02.565Z</time></trkpt><trkpt lat="38.0690567" lon="13.1994433"><ele>603.5</ele><time>2026-05-05T10:31:03.565Z</time></trkpt><trkpt lat="38.0691567" lon="13.199385"><ele>605.0</ele><time>2026-05-05T10:31:04.565Z</time></trkpt><trkpt lat="38.06926" lon="13.1993217"><ele>606.5</ele><time>2026-05-05T10:31:05.564Z</time></trkpt><trkpt lat="38.069365" lon="13.199255"><ele>608.0</ele><time>2026-05-05T10:31:06.564Z</time></trkpt><trkpt lat="38.0694733" lon="13.1991917"><ele>608.0</ele><time>2026-05-05T10:31:07.564Z</time></trkpt><trkpt lat="38.0695783" lon="13.1991333"><ele>608.0</ele><time>2026-05-05T10:31:08.566Z</time></trkpt><trkpt lat="38.0696817" lon="13.199085"><ele>608.0</ele><time>2026-05-05T10:31:09.564Z</time></trkpt><trkpt lat="38.0697933" lon="13.199055"><ele>608.0</ele><time>2026-05-05T10:31:10.565Z</time></trkpt><trkpt lat="38.0699083" lon="13.1990517"><ele>609.25</ele><time>2026-05-05T10:31:11.565Z</time></trkpt><trkpt lat="38.07002" lon="13.199075"><ele>610.5</ele><time>2026-05-05T10:31:12.565Z</time></trkpt><trkpt lat="38.0701317" lon="13.1991083"><ele>611.75</ele><time>2026-05-05T10:31:13.564Z</time></trkpt><trkpt lat="38.070245" lon="13.1991317"><ele>613.0</ele><time>2026-05-05T10:31:14.565Z</time></trkpt><trkpt lat="38.0703533" lon="13.1991383"><ele>613.0</ele><time>2026-05-05T10:31:15.565Z</time></trkpt><trkpt lat="38.0704533" lon="13.1991333"><ele>613.0</ele><time>2026-05-05T10:31:16.565Z</time></trkpt><trkpt lat="38.07055" lon="13.1991267"><ele>613.0</ele><time>2026-05-05T10:31:17.565Z</time></trkpt><trkpt lat="38.07065" lon="13.1991317"><ele>613.0</ele><time>2026-05-05T10:31:18.564Z</time></trkpt><trkpt lat="38.070755" lon="13.1991483"><ele>613.0</ele><time>2026-05-05T10:31:19.564Z</time></trkpt><trkpt lat="38.0708617" lon="13.1991817"><ele>612.4</ele><time>2026-05-05T10:31:20.564Z</time></trkpt><trkpt lat="38.0709683" lon="13.1992267"><ele>611.8</ele><time>2026-05-05T10:31:21.564Z</time></trkpt><trkpt lat="38.07107" lon="13.1992717"><ele>611.2</ele><time>2026-05-05T10:31:22.563Z</time></trkpt><trkpt lat="38.0711667" lon="13.1993133"><ele>610.6</ele><time>2026-05-05T10:31:23.566Z</time></trkpt><trkpt lat="38.0712517" lon="13.1993517"><ele>610.0</ele><time>2026-05-05T10:31:24.565Z</time></trkpt><trkpt lat="38.0713333" lon="13.1993883"><ele>610.0</ele><time>2026-05-05T10:31:25.564Z</time></trkpt><trkpt lat="38.0714117" lon="13.1994267"><ele>610.0</ele><time>2026-05-05T10:31:26.564Z</time></trkpt><trkpt lat="38.0714933" lon="13.1994717"><ele>610.0</ele><time>2026-05-05T10:31:27.565Z</time></trkpt><trkpt lat="38.0715817" lon="13.1995217"><ele>610.0</ele><time>2026-05-05T10:31:28.565Z</time></trkpt><trkpt lat="38.0716733" lon="13.1995783"><ele>610.0</ele><time>2026-05-05T10:31:29.565Z</time></trkpt><trkpt lat="38.0717683" lon="13.1996417"><ele>608.6</ele><time>2026-05-05T10:31:30.565Z</time></trkpt><trkpt lat="38.0718633" lon="13.1997017"><ele>607.2</ele><time>2026-05-05T10:31:31.565Z</time></trkpt><trkpt lat="38.0719583" lon="13.1997567"><ele>605.8</ele><time>2026-05-05T10:31:32.565Z</time></trkpt><trkpt lat="38.0720517" lon="13.1998133"><ele>604.4</ele><time>2026-05-05T10:31:33.565Z</time></trkpt><trkpt lat="38.07214" lon="13.1998767"><ele>603.0</ele><time>2026-05-05T10:31:34.565Z</time></trkpt><trkpt lat="38.072215" lon="13.199955"><ele>602.8</ele><time>2026-05-05T10:31:35.565Z</time></trkpt><trkpt lat="38.0722783" lon="13.2000433"><ele>602.5999999999999</ele><time>2026-05-05T10:31:36.565Z</time></trkpt><trkpt lat="38.072335" lon="13.2001417"><ele>602.4000000000001</ele><time>2026-05-05T10:31:37.564Z</time></trkpt><trkpt lat="38.0723883" lon="13.200245"><ele>602.2</ele><time>2026-05-05T10:31:38.565Z</time></trkpt><trkpt lat="38.0724417" lon="13.20035"><ele>602.0</ele><time>2026-05-05T10:31:39.565Z</time></trkpt><trkpt lat="38.0725" lon="13.2004533"><ele>602.0</ele><time>2026-05-05T10:31:40.565Z</time></trkpt><trkpt lat="38.07256" lon="13.200555"><ele>602.0</ele><time>2026-05-05T10:31:41.564Z</time></trkpt><trkpt lat="38.072615" lon="13.2006617"><ele>602.0</ele><time>2026-05-05T10:31:42.563Z</time></trkpt><trkpt lat="38.0726683" lon="13.2007767"><ele>602.0</ele><time>2026-05-05T10:31:43.565Z</time></trkpt><trkpt lat="38.0727217" lon="13.2009"><ele>602.0</ele><time>2026-05-05T10:31:44.565Z</time></trkpt><trkpt lat="38.0727817" lon="13.2010283"><ele>605.75</ele><time>2026-05-05T10:31:45.565Z</time></trkpt><trkpt lat="38.0728433" lon="13.2011633"><ele>609.5</ele><time>2026-05-05T10:31:46.564Z</time></trkpt><trkpt lat="38.07291" lon="13.201305"><ele>613.25</ele><time>2026-05-05T10:31:47.565Z</time></trkpt><trkpt lat="38.0729833" lon="13.201455"><ele>617.0</ele><time>2026-05-05T10:31:48.564Z</time></trkpt><trkpt lat="38.0730567" lon="13.2016083"><ele>620.0</ele><time>2026-05-05T10:31:49.565Z</time></trkpt><trkpt lat="38.0731283" lon="13.201765"><ele>623.0</ele><time>2026-05-05T10:31:50.565Z</time></trkpt><trkpt lat="38.07319" lon="13.2019217"><ele>626.0</ele><time>2026-05-05T10:31:51.565Z</time></trkpt><trkpt lat="38.073235" lon="13.2020733"><ele>629.0</ele><time>2026-05-05T10:31:52.564Z</time></trkpt><trkpt lat="38.0732617" lon="13.2022283"><ele>628.75</ele><time>2026-05-05T10:31:53.564Z</time></trkpt><trkpt lat="38.0732667" lon="13.2023833"><ele>628.5</ele><time>2026-05-05T10:31:54.565Z</time></trkpt><trkpt lat="38.073265" lon="13.2025417"><ele>628.25</ele><time>2026-05-05T10:31:55.564Z</time></trkpt><trkpt lat="38.0732533" lon="13.2027017"><ele>628.0</ele><time>2026-05-05T10:31:56.565Z</time></trkpt><trkpt lat="38.07324" lon="13.2028617"><ele>628.0</ele><time>2026-05-05T10:31:57.565Z</time></trkpt><trkpt lat="38.0732383" lon="13.203015"><ele>628.0</ele><time>2026-05-05T10:31:58.565Z</time></trkpt><trkpt lat="38.07325" lon="13.203165"><ele>628.0</ele><time>2026-05-05T10:31:59.565Z</time></trkpt><trkpt lat="38.073275" lon="13.2033017"><ele>628.0</ele><time>2026-05-05T10:32:00.565Z</time></trkpt><trkpt lat="38.0732967" lon="13.2034267"><ele>622.25</ele><time>2026-05-05T10:32:01.565Z</time></trkpt><trkpt lat="38.073355" lon="13.2035567"><ele>616.5</ele><time>2026-05-05T10:32:02.565Z</time></trkpt><trkpt lat="38.0734433" lon="13.2036817"><ele>610.75</ele><time>2026-05-05T10:32:03.565Z</time></trkpt><trkpt lat="38.0735267" lon="13.2038067"><ele>605.0</ele><time>2026-05-05T10:32:04.565Z</time></trkpt><trkpt lat="38.073615" lon="13.2039317"><ele>605.0</ele><time>2026-05-05T10:32:05.565Z</time></trkpt><trkpt lat="38.0736917" lon="13.20406"><ele>605.0</ele><time>2026-05-05T10:32:06.565Z</time></trkpt><trkpt lat="38.0737467" lon="13.2041967"><ele>605.0</ele><time>2026-05-05T10:32:07.565Z</time></trkpt><trkpt lat="38.0737817" lon="13.2043467"><ele>605.0</ele><time>2026-05-05T10:32:08.565Z</time></trkpt><trkpt lat="38.0737917" lon="13.204505"><ele>605.0</ele><time>2026-05-05T10:32:09.565Z</time></trkpt><trkpt lat="38.0737983" lon="13.2046717"><ele>605.0</ele><time>2026-05-05T10:32:10.565Z</time></trkpt><trkpt lat="38.073805" lon="13.2048433"><ele>605.0</ele><time>2026-05-05T10:32:11.565Z</time></trkpt><trkpt lat="38.0738133" lon="13.20502"><ele>605.0</ele><time>2026-05-05T10:32:12.564Z</time></trkpt><trkpt lat="38.0738267" lon="13.2051967"><ele>605.25</ele><time>2026-05-05T10:32:13.565Z</time></trkpt><trkpt lat="38.07384" lon="13.2053617"><ele>605.5</ele><time>2026-05-05T10:32:14.566Z</time></trkpt><trkpt lat="38.0738583" lon="13.2055217"><ele>605.75</ele><time>2026-05-05T10:32:15.566Z</time></trkpt><trkpt lat="38.073875" lon="13.205675"><ele>606.0</ele><time>2026-05-05T10:32:16.565Z</time></trkpt><trkpt lat="38.0738883" lon="13.2058167"><ele>606.0</ele><time>2026-05-05T10:32:17.564Z</time></trkpt><trkpt lat="38.0739" lon="13.2059517"><ele>606.0</ele><time>2026-05-05T10:32:18.565Z</time></trkpt><trkpt lat="38.0739117" lon="13.2060833"><ele>606.0</ele><time>2026-05-05T10:32:19.564Z</time></trkpt><trkpt lat="38.0739217" lon="13.20621"><ele>606.0</ele><time>2026-05-05T10:32:20.564Z</time></trkpt><trkpt lat="38.073935" lon="13.2063317"><ele>606.0</ele><time>2026-05-05T10:32:21.565Z</time></trkpt><trkpt lat="38.0739483" lon="13.206445"><ele>608.0</ele><time>2026-05-05T10:32:22.566Z</time></trkpt><trkpt lat="38.073975" lon="13.2065467"><ele>610.0</ele><time>2026-05-05T10:32:23.563Z</time></trkpt><trkpt lat="38.074025" lon="13.2066433"><ele>612.0</ele><time>2026-05-05T10:32:24.564Z</time></trkpt><trkpt lat="38.0740933" lon="13.2067383"><ele>614.0</ele><time>2026-05-05T10:32:25.565Z</time></trkpt><trkpt lat="38.07417" lon="13.2068267"><ele>616.0</ele><time>2026-05-05T10:32:26.565Z</time></trkpt><trkpt lat="38.0742517" lon="13.2069117"><ele>612.0</ele><time>2026-05-05T10:32:27.565Z</time></trkpt><trkpt lat="38.07434" lon="13.2069867"><ele>608.0</ele><time>2026-05-05T10:32:28.566Z</time></trkpt><trkpt lat="38.0744317" lon="13.2070433"><ele>604.0</ele><time>2026-05-05T10:32:29.564Z</time></trkpt><trkpt lat="38.0745317" lon="13.2070867"><ele>600.0</ele><time>2026-05-05T10:32:30.565Z</time></trkpt><trkpt lat="38.0746317" lon="13.2071267"><ele>596.0</ele><time>2026-05-05T10:32:31.565Z</time></trkpt><trkpt lat="38.0747317" lon="13.2071667"><ele>596.0</ele><time>2026-05-05T10:32:32.565Z</time></trkpt><trkpt lat="38.0748367" lon="13.2072017"><ele>596.0</ele><time>2026-05-05T10:32:33.565Z</time></trkpt><trkpt lat="38.0749417" lon="13.207235"><ele>596.0</ele><time>2026-05-05T10:32:34.564Z</time></trkpt><trkpt lat="38.0750433" lon="13.2072733"><ele>596.0</ele><time>2026-05-05T10:32:35.564Z</time></trkpt><trkpt lat="38.0751467" lon="13.2073133"><ele>596.0</ele><time>2026-05-05T10:32:36.564Z</time></trkpt><trkpt lat="38.0752467" lon="13.20736"><ele>598.2</ele><time>2026-05-05T10:32:37.566Z</time></trkpt><trkpt lat="38.0753417" lon="13.2074167"><ele>600.4000000000001</ele><time>2026-05-05T10:32:38.565Z</time></trkpt><trkpt lat="38.07542" lon="13.20749"><ele>602.6</ele><time>2026-05-05T10:32:39.564Z</time></trkpt><trkpt lat="38.07548" lon="13.2075767"><ele>604.8000000000001</ele><time>2026-05-05T10:32:40.565Z</time></trkpt><trkpt lat="38.0755167" lon="13.20767"><ele>607.0</ele><time>2026-05-05T10:32:41.565Z</time></trkpt><trkpt lat="38.0755267" lon="13.2077717"><ele>607.0</ele><time>2026-05-05T10:32:42.563Z</time></trkpt><trkpt lat="38.07552" lon="13.2078833"><ele>607.0</ele><time>2026-05-05T10:32:43.567Z</time></trkpt><trkpt lat="38.0754983" lon="13.207995"><ele>607.0</ele><time>2026-05-05T10:32:44.565Z</time></trkpt><trkpt lat="38.0754667" lon="13.20811"><ele>607.0</ele><time>2026-05-05T10:32:45.565Z</time></trkpt><trkpt lat="38.075405" lon="13.2082417"><ele>607.0</ele><time>2026-05-05T10:32:46.565Z</time></trkpt><trkpt lat="38.07537" lon="13.20837"><ele>608.6</ele><time>2026-05-05T10:32:47.565Z</time></trkpt><trkpt lat="38.0753483" lon="13.2084983"><ele>610.2</ele><time>2026-05-05T10:32:48.563Z</time></trkpt><trkpt lat="38.07535" lon="13.208625"><ele>611.8</ele><time>2026-05-05T10:32:49.566Z</time></trkpt><trkpt lat="38.075365" lon="13.2087517"><ele>613.4</ele><time>2026-05-05T10:32:50.566Z</time></trkpt><trkpt lat="38.0754017" lon="13.2088683"><ele>615.0</ele><time>2026-05-05T10:32:51.564Z</time></trkpt><trkpt lat="38.07546" lon="13.2089617"><ele>616.0</ele><time>2026-05-05T10:32:52.565Z</time></trkpt><trkpt lat="38.0755267" lon="13.2090267"><ele>617.0</ele><time>2026-05-05T10:32:53.565Z</time></trkpt><trkpt lat="38.0756117" lon="13.209065"><ele>618.0</ele><time>2026-05-05T10:32:54.564Z</time></trkpt><trkpt lat="38.0757133" lon="13.2090483"><ele>619.0</ele><time>2026-05-05T10:32:55.564Z</time></trkpt><trkpt lat="38.07581" lon="13.2090083"><ele>620.0</ele><time>2026-05-05T10:32:56.565Z</time></trkpt><trkpt lat="38.0759067" lon="13.20896"><ele>616.0</ele><time>2026-05-05T10:32:57.565Z</time></trkpt><trkpt lat="38.0760083" lon="13.2089067"><ele>612.0</ele><time>2026-05-05T10:32:58.565Z</time></trkpt><trkpt lat="38.0761133" lon="13.2088533"><ele>608.0</ele><time>2026-05-05T10:32:59.565Z</time></trkpt><trkpt lat="38.0762217" lon="13.2088017"><ele>604.0</ele><time>2026-05-05T10:33:00.565Z</time></trkpt><trkpt lat="38.07633" lon="13.208755"><ele>604.0</ele><time>2026-05-05T10:33:01.565Z</time></trkpt><trkpt lat="38.0764433" lon="13.2087067"><ele>604.0</ele><time>2026-05-05T10:33:02.565Z</time></trkpt><trkpt lat="38.07656" lon="13.2086633"><ele>604.0</ele><time>2026-05-05T10:33:03.564Z</time></trkpt><trkpt lat="38.0766783" lon="13.20864"><ele>604.0</ele><time>2026-05-05T10:33:04.565Z</time></trkpt><trkpt lat="38.0768017" lon="13.2086367"><ele>605.25</ele><time>2026-05-05T10:33:05.565Z</time></trkpt><trkpt lat="38.0769233" lon="13.2086467"><ele>606.5</ele><time>2026-05-05T10:33:06.565Z</time></trkpt><trkpt lat="38.0770433" lon="13.2086783"><ele>607.75</ele><time>2026-05-05T10:33:07.564Z</time></trkpt><trkpt lat="38.0771617" lon="13.208735"><ele>609.0</ele><time>2026-05-05T10:33:08.564Z</time></trkpt><trkpt lat="38.0772733" lon="13.2088117"><ele>609.0</ele><time>2026-05-05T10:33:09.565Z</time></trkpt><trkpt lat="38.077385" lon="13.2089"><ele>609.0</ele><time>2026-05-05T10:33:10.565Z</time></trkpt><trkpt lat="38.077495" lon="13.2089983"><ele>609.0</ele><time>2026-05-05T10:33:11.565Z</time></trkpt><trkpt lat="38.07761" lon="13.2091033"><ele>609.0</ele><time>2026-05-05T10:33:12.565Z</time></trkpt><trkpt lat="38.077715" lon="13.2092167"><ele>611.5</ele><time>2026-05-05T10:33:13.565Z</time></trkpt><trkpt lat="38.0778117" lon="13.2093333"><ele>614.0</ele><time>2026-05-05T10:33:14.565Z</time></trkpt><trkpt lat="38.0778967" lon="13.2094533"><ele>616.5</ele><time>2026-05-05T10:33:15.563Z</time></trkpt><trkpt lat="38.0779767" lon="13.2095833"><ele>619.0</ele><time>2026-05-05T10:33:16.565Z</time></trkpt><trkpt lat="38.0780583" lon="13.2097133"><ele>618.75</ele><time>2026-05-05T10:33:17.565Z</time></trkpt><trkpt lat="38.0781367" lon="13.2098417"><ele>618.5</ele><time>2026-05-05T10:33:18.565Z</time></trkpt><trkpt lat="38.0782133" lon="13.2099567"><ele>618.25</ele><time>2026-05-05T10:33:19.565Z</time></trkpt><trkpt lat="38.0782917" lon="13.2100583"><ele>618.0</ele><time>2026-05-05T10:33:20.565Z</time></trkpt><trkpt lat="38.078375" lon="13.2101417"><ele>618.0</ele><time>2026-05-05T10:33:21.565Z</time></trkpt><trkpt lat="38.07847" lon="13.2102167"><ele>618.0</ele><time>2026-05-05T10:33:22.565Z</time></trkpt><trkpt lat="38.078575" lon="13.2102833"><ele>618.0</ele><time>2026-05-05T10:33:23.565Z</time></trkpt><trkpt lat="38.0786867" lon="13.2103467"><ele>618.0</ele><time>2026-05-05T10:33:24.565Z</time></trkpt><trkpt lat="38.0788017" lon="13.2104"><ele>618.0</ele><time>2026-05-05T10:33:25.564Z</time></trkpt><trkpt lat="38.078915" lon="13.2104283"><ele>618.0</ele><time>2026-05-05T10:33:26.565Z</time></trkpt><trkpt lat="38.0790283" lon="13.21044"><ele>618.0</ele><time>2026-05-05T10:33:27.563Z</time></trkpt><trkpt lat="38.07914" lon="13.2104433"><ele>618.0</ele><time>2026-05-05T10:33:28.565Z</time></trkpt><trkpt lat="38.079255" lon="13.2104317"><ele>616.25</ele><time>2026-05-05T10:33:29.565Z</time></trkpt><trkpt lat="38.079365" lon="13.2103933"><ele>614.5</ele><time>2026-05-05T10:33:30.564Z</time></trkpt><trkpt lat="38.079465" lon="13.21033"><ele>612.75</ele><time>2026-05-05T10:33:31.565Z</time></trkpt><trkpt lat="38.07956" lon="13.21024"><ele>611.0</ele><time>2026-05-05T10:33:32.564Z</time></trkpt><trkpt lat="38.079655" lon="13.2101367"><ele>611.0</ele><time>2026-05-05T10:33:33.565Z</time></trkpt><trkpt lat="38.0797517" lon="13.2100283"><ele>611.0</ele><time>2026-05-05T10:33:34.565Z</time></trkpt><trkpt lat="38.07985" lon="13.209925"><ele>611.0</ele><time>2026-05-05T10:33:35.563Z</time></trkpt><trkpt lat="38.079955" lon="13.2098283"><ele>611.0</ele><time>2026-05-05T10:33:36.564Z</time></trkpt><trkpt lat="38.0800633" lon="13.20975"><ele>609.8</ele><time>2026-05-05T10:33:37.563Z</time></trkpt><trkpt lat="38.08017" lon="13.20969"><ele>608.6</ele><time>2026-05-05T10:33:38.565Z</time></trkpt><trkpt lat="38.0802683" lon="13.2096433"><ele>607.4</ele><time>2026-05-05T10:33:39.565Z</time></trkpt><trkpt lat="38.0803633" lon="13.2096133"><ele>606.2</ele><time>2026-05-05T10:33:40.565Z</time></trkpt><trkpt lat="38.0804583" lon="13.209605"><ele>605.0</ele><time>2026-05-05T10:33:41.565Z</time></trkpt><trkpt lat="38.0805567" lon="13.2096067"><ele>605.0</ele><time>2026-05-05T10:33:42.565Z</time></trkpt><trkpt lat="38.08066" lon="13.209615"><ele>605.0</ele><time>2026-05-05T10:33:43.565Z</time></trkpt><trkpt lat="38.0807633" lon="13.2096417"><ele>605.0</ele><time>2026-05-05T10:33:44.565Z</time></trkpt><trkpt lat="38.0808633" lon="13.2096833"><ele>605.0</ele><time>2026-05-05T10:33:45.565Z</time></trkpt><trkpt lat="38.0809633" lon="13.2097267"><ele>605.0</ele><time>2026-05-05T10:33:46.565Z</time></trkpt><trkpt lat="38.0810617" lon="13.2097633"><ele>606.4</ele><time>2026-05-05T10:33:47.564Z</time></trkpt><trkpt lat="38.0811617" lon="13.2097717"><ele>607.8</ele><time>2026-05-05T10:33:48.565Z</time></trkpt><trkpt lat="38.08126" lon="13.20976"><ele>609.2</ele><time>2026-05-05T10:33:49.566Z</time></trkpt><trkpt lat="38.0813633" lon="13.20973"><ele>610.6</ele><time>2026-05-05T10:33:50.565Z</time></trkpt><trkpt lat="38.081455" lon="13.2096967"><ele>612.0</ele><time>2026-05-05T10:33:51.565Z</time></trkpt><trkpt lat="38.08154" lon="13.20966"><ele>613.3333333333334</ele><time>2026-05-05T10:33:52.565Z</time></trkpt><trkpt lat="38.0816183" lon="13.20962"><ele>614.6666666666666</ele><time>2026-05-05T10:33:53.565Z</time></trkpt><trkpt lat="38.08169" lon="13.2095683"><ele>616.0</ele><time>2026-05-05T10:33:54.564Z</time></trkpt><trkpt lat="38.0817567" lon="13.2095017"><ele>617.3333333333333</ele><time>2026-05-05T10:33:55.565Z</time></trkpt><trkpt lat="38.0818017" lon="13.209405"><ele>618.6666666666666</ele><time>2026-05-05T10:33:56.565Z</time></trkpt><trkpt lat="38.0818233" lon="13.2092933"><ele>620.0</ele><time>2026-05-05T10:33:57.564Z</time></trkpt><trkpt lat="38.0818233" lon="13.20917"><ele>620.0</ele><time>2026-05-05T10:33:58.567Z</time></trkpt><trkpt lat="38.0818" lon="13.209045"><ele>620.0</ele><time>2026-05-05T10:33:59.567Z</time></trkpt><trkpt lat="38.08177" lon="13.20892"><ele>620.0</ele><time>2026-05-05T10:34:00.566Z</time></trkpt><trkpt lat="38.081735" lon="13.2087883"><ele>620.0</ele><time>2026-05-05T10:34:01.565Z</time></trkpt><trkpt lat="38.0816967" lon="13.20865"><ele>620.0</ele><time>2026-05-05T10:34:02.565Z</time></trkpt><trkpt lat="38.0816667" lon="13.2085117"><ele>620.75</ele><time>2026-05-05T10:34:03.565Z</time></trkpt><trkpt lat="38.0816383" lon="13.2083733"><ele>621.5</ele><time>2026-05-05T10:34:04.565Z</time></trkpt><trkpt lat="38.0816133" lon="13.2082333"><ele>622.25</ele><time>2026-05-05T10:34:05.566Z</time></trkpt><trkpt lat="38.0815833" lon="13.20809"><ele>623.0</ele><time>2026-05-05T10:34:06.565Z</time></trkpt><trkpt lat="38.081555" lon="13.2079433"><ele>621.0</ele><time>2026-05-05T10:34:07.565Z</time></trkpt><trkpt lat="38.0815233" lon="13.207795"><ele>619.0</ele><time>2026-05-05T10:34:08.566Z</time></trkpt><trkpt lat="38.0814917" lon="13.207645"><ele>617.0</ele><time>2026-05-05T10:34:09.564Z</time></trkpt><trkpt lat="38.08146" lon="13.207495"><ele>615.0</ele><time>2026-05-05T10:34:10.565Z</time></trkpt><trkpt lat="38.0814283" lon="13.20734"><ele>616.25</ele><time>2026-05-05T10:34:11.564Z</time></trkpt><trkpt lat="38.0813983" lon="13.207185"><ele>617.5</ele><time>2026-05-05T10:34:12.566Z</time></trkpt><trkpt lat="38.0813667" lon="13.2070267"><ele>618.75</ele><time>2026-05-05T10:34:13.564Z</time></trkpt><trkpt lat="38.0813333" lon="13.20687"><ele>620.0</ele><time>2026-05-05T10:34:14.57Z</time></trkpt><trkpt lat="38.0812967" lon="13.20671"><ele>620.0</ele><time>2026-05-05T10:34:15.564Z</time></trkpt><trkpt lat="38.0812617" lon="13.2065483"><ele>620.0</ele><time>2026-05-05T10:34:16.564Z</time></trkpt><trkpt lat="38.0812383" lon="13.206385"><ele>620.0</ele><time>2026-05-05T10:34:17.565Z</time></trkpt><trkpt lat="38.0812167" lon="13.20622"><ele>620.0</ele><time>2026-05-05T10:34:18.565Z</time></trkpt><trkpt lat="38.0812033" lon="13.20605"><ele>620.75</ele><time>2026-05-05T10:34:19.565Z</time></trkpt><trkpt lat="38.081195" lon="13.20588"><ele>621.5</ele><time>2026-05-05T10:34:20.567Z</time></trkpt><trkpt lat="38.08119" lon="13.20571"><ele>622.25</ele><time>2026-05-05T10:34:21.565Z</time></trkpt><trkpt lat="38.0811817" lon="13.205535"><ele>623.0</ele><time>2026-05-05T10:34:22.564Z</time></trkpt><trkpt lat="38.0811767" lon="13.2053583"><ele>623.0</ele><time>2026-05-05T10:34:23.566Z</time></trkpt><trkpt lat="38.08118" lon="13.2051817"><ele>623.0</ele><time>2026-05-05T10:34:24.564Z</time></trkpt><trkpt lat="38.0811933" lon="13.205025"><ele>623.0</ele><time>2026-05-05T10:34:25.564Z</time></trkpt><trkpt lat="38.0812283" lon="13.2048817"><ele>623.0</ele><time>2026-05-05T10:34:26.565Z</time></trkpt><trkpt lat="38.0812867" lon="13.2047467"><ele>622.25</ele><time>2026-05-05T10:34:27.565Z</time></trkpt><trkpt lat="38.0813567" lon="13.2046183"><ele>621.5</ele><time>2026-05-05T10:34:28.564Z</time></trkpt><trkpt lat="38.081425" lon="13.2044867"><ele>620.75</ele><time>2026-05-05T10:34:29.566Z</time></trkpt><trkpt lat="38.0814867" lon="13.2043467"><ele>620.0</ele><time>2026-05-05T10:34:30.565Z</time></trkpt><trkpt lat="38.0815317" lon="13.2041967"><ele>620.0</ele><time>2026-05-05T10:34:31.565Z</time></trkpt><trkpt lat="38.0815517" lon="13.204035"><ele>620.0</ele><time>2026-05-05T10:34:32.565Z</time></trkpt><trkpt lat="38.08156" lon="13.20387"><ele>620.0</ele><time>2026-05-05T10:34:33.565Z</time></trkpt><trkpt lat="38.081565" lon="13.2036967"><ele>620.0</ele><time>2026-05-05T10:34:34.563Z</time></trkpt><trkpt lat="38.0815733" lon="13.2035183"><ele>620.5</ele><time>2026-05-05T10:34:35.565Z</time></trkpt><trkpt lat="38.0815817" lon="13.203335"><ele>621.0</ele><time>2026-05-05T10:34:36.564Z</time></trkpt><trkpt lat="38.0815917" lon="13.2031467"><ele>621.5</ele><time>2026-05-05T10:34:37.564Z</time></trkpt><trkpt lat="38.0816017" lon="13.2029533"><ele>622.0</ele><time>2026-05-05T10:34:38.564Z</time></trkpt><trkpt lat="38.0816167" lon="13.20276"><ele>625.3333333333334</ele><time>2026-05-05T10:34:39.564Z</time></trkpt><trkpt lat="38.0816267" lon="13.20257"><ele>628.6666666666666</ele><time>2026-05-05T10:34:40.564Z</time></trkpt><trkpt lat="38.0816333" lon="13.2023817"><ele>632.0</ele><time>2026-05-05T10:34:41.565Z</time></trkpt><trkpt lat="38.0816467" lon="13.2021883"><ele>633.0</ele><time>2026-05-05T10:34:42.564Z</time></trkpt><trkpt lat="38.08166" lon="13.2019917"><ele>634.0</ele><time>2026-05-05T10:34:43.565Z</time></trkpt><trkpt lat="38.08167" lon="13.2017917"><ele>635.0</ele><time>2026-05-05T10:34:44.565Z</time></trkpt><trkpt lat="38.0816783" lon="13.20159"><ele>635.0</ele><time>2026-05-05T10:34:45.564Z</time></trkpt><trkpt lat="38.0816867" lon="13.2014017"><ele>635.0</ele><time>2026-05-05T10:34:46.564Z</time></trkpt><trkpt lat="38.081695" lon="13.2012233"><ele>635.0</ele><time>2026-05-05T10:34:47.566Z</time></trkpt><trkpt lat="38.0817117" lon="13.201065"><ele>635.0</ele><time>2026-05-05T10:34:48.565Z</time></trkpt><trkpt lat="38.0817367" lon="13.2009183"><ele>635.0</ele><time>2026-05-05T10:34:49.565Z</time></trkpt><trkpt lat="38.0817817" lon="13.20078"><ele>635.0</ele><time>2026-05-05T10:34:50.564Z</time></trkpt><trkpt lat="38.0818367" lon="13.2006417"><ele>635.0</ele><time>2026-05-05T10:34:51.565Z</time></trkpt><trkpt lat="38.0818967" lon="13.2005033"><ele>635.0</ele><time>2026-05-05T10:34:52.565Z</time></trkpt><trkpt lat="38.081955" lon="13.2003617"><ele>634.0</ele><time>2026-05-05T10:34:53.565Z</time></trkpt><trkpt lat="38.08201" lon="13.20021"><ele>633.0</ele><time>2026-05-05T10:34:54.565Z</time></trkpt><trkpt lat="38.08207" lon="13.2000583"><ele>632.0</ele><time>2026-05-05T10:34:55.565Z</time></trkpt><trkpt lat="38.082135" lon="13.1999033"><ele>631.0</ele><time>2026-05-05T10:34:56.565Z</time></trkpt><trkpt lat="38.082205" lon="13.1997467"><ele>632.25</ele><time>2026-05-05T10:34:57.565Z</time></trkpt><trkpt lat="38.082275" lon="13.199595"><ele>633.5</ele><time>2026-05-05T10:34:58.565Z</time></trkpt><trkpt lat="38.0823467" lon="13.1994517"><ele>634.75</ele><time>2026-05-05T10:34:59.565Z</time></trkpt><trkpt lat="38.0824217" lon="13.1993267"><ele>636.0</ele><time>2026-05-05T10:35:00.565Z</time></trkpt><trkpt lat="38.0825067" lon="13.1992167"><ele>636.0</ele><time>2026-05-05T10:35:01.565Z</time></trkpt><trkpt lat="38.0825983" lon="13.199115"><ele>636.0</ele><time>2026-05-05T10:35:02.566Z</time></trkpt><trkpt lat="38.08269" lon="13.19901"><ele>636.0</ele><time>2026-05-05T10:35:03.565Z</time></trkpt><trkpt lat="38.0827833" lon="13.1989017"><ele>636.0</ele><time>2026-05-05T10:35:04.565Z</time></trkpt><trkpt lat="38.0828783" lon="13.1987933"><ele>635.25</ele><time>2026-05-05T10:35:05.565Z</time></trkpt><trkpt lat="38.0829733" lon="13.1986833"><ele>634.5</ele><time>2026-05-05T10:35:06.565Z</time></trkpt><trkpt lat="38.0830717" lon="13.19857"><ele>633.75</ele><time>2026-05-05T10:35:07.565Z</time></trkpt><trkpt lat="38.08317" lon="13.1984567"><ele>633.0</ele><time>2026-05-05T10:35:08.566Z</time></trkpt><trkpt lat="38.08326" lon="13.19834"><ele>634.8</ele><time>2026-05-05T10:35:09.564Z</time></trkpt><trkpt lat="38.0833367" lon="13.1982233"><ele>636.5999999999999</ele><time>2026-05-05T10:35:10.565Z</time></trkpt><trkpt lat="38.0833933" lon="13.1981"><ele>638.4000000000001</ele><time>2026-05-05T10:35:11.564Z</time></trkpt><trkpt lat="38.08342" lon="13.1979733"><ele>640.2</ele><time>2026-05-05T10:35:12.564Z</time></trkpt><trkpt lat="38.0834183" lon="13.19784"><ele>642.0</ele><time>2026-05-05T10:35:13.564Z</time></trkpt><trkpt lat="38.083385" lon="13.197715"><ele>642.0</ele><time>2026-05-05T10:35:14.565Z</time></trkpt><trkpt lat="38.0833217" lon="13.19761"><ele>642.0</ele><time>2026-05-05T10:35:15.563Z</time></trkpt><trkpt lat="38.0832317" lon="13.1975167"><ele>642.0</ele><time>2026-05-05T10:35:16.565Z</time></trkpt><trkpt lat="38.0831267" lon="13.1974283"><ele>642.0</ele><time>2026-05-05T10:35:17.565Z</time></trkpt><trkpt lat="38.0830133" lon="13.1973383"><ele>639.0</ele><time>2026-05-05T10:35:18.565Z</time></trkpt><trkpt lat="38.082895" lon="13.19724"><ele>636.0</ele><time>2026-05-05T10:35:19.564Z</time></trkpt><trkpt lat="38.0827683" lon="13.197135"><ele>633.0</ele><time>2026-05-05T10:35:20.565Z</time></trkpt><trkpt lat="38.0826333" lon="13.1970267"><ele>633.0</ele><time>2026-05-05T10:35:21.565Z</time></trkpt><trkpt lat="38.0825" lon="13.19692"><ele>633.0</ele><time>2026-05-05T10:35:22.565Z</time></trkpt><trkpt lat="38.08237" lon="13.1968133"><ele>633.0</ele><time>2026-05-05T10:35:23.565Z</time></trkpt><trkpt lat="38.0822467" lon="13.1967067"><ele>633.25</ele><time>2026-05-05T10:35:24.565Z</time></trkpt><trkpt lat="38.082125" lon="13.1966017"><ele>633.5</ele><time>2026-05-05T10:35:25.565Z</time></trkpt><trkpt lat="38.0820033" lon="13.1965017"><ele>633.75</ele><time>2026-05-05T10:35:26.565Z</time></trkpt><trkpt lat="38.0818867" lon="13.1964033"><ele>634.0</ele><time>2026-05-05T10:35:27.565Z</time></trkpt><trkpt lat="38.08178" lon="13.196305"><ele>634.0</ele><time>2026-05-05T10:35:28.564Z</time></trkpt><trkpt lat="38.0816867" lon="13.1962067"><ele>634.0</ele><time>2026-05-05T10:35:29.564Z</time></trkpt><trkpt lat="38.0816017" lon="13.1961"><ele>634.0</ele><time>2026-05-05T10:35:30.565Z</time></trkpt><trkpt lat="38.081525" lon="13.1959867"><ele>634.0</ele><time>2026-05-05T10:35:31.565Z</time></trkpt><trkpt lat="38.081455" lon="13.1958683"><ele>630.75</ele><time>2026-05-05T10:35:32.565Z</time></trkpt><trkpt lat="38.0813883" lon="13.1957533"><ele>627.5</ele><time>2026-05-05T10:35:33.564Z</time></trkpt><trkpt lat="38.08132" lon="13.1956367"><ele>624.25</ele><time>2026-05-05T10:35:34.566Z</time></trkpt><trkpt lat="38.08125" lon="13.195515"><ele>621.0</ele><time>2026-05-05T10:35:35.564Z</time></trkpt><trkpt lat="38.0811733" lon="13.1953917"><ele>621.0</ele><time>2026-05-05T10:35:36.564Z</time></trkpt><trkpt lat="38.0811" lon="13.195265"><ele>621.0</ele><time>2026-05-05T10:35:37.566Z</time></trkpt><trkpt lat="38.0810267" lon="13.195145"><ele>621.0</ele><time>2026-05-05T10:35:38.565Z</time></trkpt><trkpt lat="38.08095" lon="13.1950383"><ele>621.0</ele><time>2026-05-05T10:35:39.565Z</time></trkpt><trkpt lat="38.0808617" lon="13.1949583"><ele>618.0</ele><time>2026-05-05T10:35:40.563Z</time></trkpt><trkpt lat="38.0807633" lon="13.1949017"><ele>615.0</ele><time>2026-05-05T10:35:41.565Z</time></trkpt><trkpt lat="38.080655" lon="13.194865"><ele>612.0</ele><time>2026-05-05T10:35:42.565Z</time></trkpt><trkpt lat="38.0805367" lon="13.1948433"><ele>609.0</ele><time>2026-05-05T10:35:43.564Z</time></trkpt><trkpt lat="38.0804117" lon="13.1948233"><ele>611.25</ele><time>2026-05-05T10:35:44.565Z</time></trkpt><trkpt lat="38.0802767" lon="13.1948033"><ele>613.5</ele><time>2026-05-05T10:35:45.565Z</time></trkpt><trkpt lat="38.0801383" lon="13.19478"><ele>615.75</ele><time>2026-05-05T10:35:46.565Z</time></trkpt><trkpt lat="38.0800033" lon="13.1947533"><ele>618.0</ele><time>2026-05-05T10:35:47.564Z</time></trkpt><trkpt lat="38.07987" lon="13.194715"><ele>618.0</ele><time>2026-05-05T10:35:48.565Z</time></trkpt><trkpt lat="38.07974" lon="13.1946683"><ele>618.0</ele><time>2026-05-05T10:35:49.569Z</time></trkpt><trkpt lat="38.07961" lon="13.1946167"><ele>618.0</ele><time>2026-05-05T10:35:50.564Z</time></trkpt><trkpt lat="38.0794767" lon="13.1945583"><ele>618.0</ele><time>2026-05-05T10:35:51.566Z</time></trkpt><trkpt lat="38.07934" lon="13.1945067"><ele>618.0</ele><time>2026-05-05T10:35:52.565Z</time></trkpt><trkpt lat="38.0792067" lon="13.1944583"><ele>618.0</ele><time>2026-05-05T10:35:53.565Z</time></trkpt><trkpt lat="38.0790817" lon="13.194395"><ele>618.0</ele><time>2026-05-05T10:35:54.565Z</time></trkpt><trkpt lat="38.0789717" lon="13.194305"><ele>618.0</ele><time>2026-05-05T10:35:55.565Z</time></trkpt><trkpt lat="38.0788733" lon="13.1942033"><ele>611.5</ele><time>2026-05-05T10:35:56.564Z</time></trkpt><trkpt lat="38.078785" lon="13.1940883"><ele>605.0</ele><time>2026-05-05T10:35:57.564Z</time></trkpt><trkpt lat="38.0787017" lon="13.19396"><ele>598.5</ele><time>2026-05-05T10:35:58.566Z</time></trkpt><trkpt lat="38.0786333" lon="13.1938233"><ele>592.0</ele><time>2026-05-05T10:35:59.565Z</time></trkpt><trkpt lat="38.078575" lon="13.1936767"><ele>592.0</ele><time>2026-05-05T10:36:00.565Z</time></trkpt><trkpt lat="38.0785267" lon="13.1935183"><ele>592.0</ele><time>2026-05-05T10:36:01.565Z</time></trkpt><trkpt lat="38.0784833" lon="13.19335"><ele>592.0</ele><time>2026-05-05T10:36:02.566Z</time></trkpt><trkpt lat="38.0784433" lon="13.1931733"><ele>592.0</ele><time>2026-05-05T10:36:03.565Z</time></trkpt><trkpt lat="38.0784117" lon="13.19299"><ele>592.3333333333334</ele><time>2026-05-05T10:36:04.565Z</time></trkpt><trkpt lat="38.07838" lon="13.1928"><ele>592.6666666666666</ele><time>2026-05-05T10:36:05.564Z</time></trkpt><trkpt lat="38.07834" lon="13.19261"><ele>593.0</ele><time>2026-05-05T10:36:06.564Z</time></trkpt><trkpt lat="38.07831" lon="13.19242"><ele>593.0</ele><time>2026-05-05T10:36:07.565Z</time></trkpt><trkpt lat="38.0782933" lon="13.19223"><ele>593.0</ele><time>2026-05-05T10:36:08.564Z</time></trkpt><trkpt lat="38.078285" lon="13.19204"><ele>593.0</ele><time>2026-05-05T10:36:09.565Z</time></trkpt><trkpt lat="38.078285" lon="13.1918533"><ele>593.0</ele><time>2026-05-05T10:36:10.565Z</time></trkpt><trkpt lat="38.0782983" lon="13.1916717"><ele>590.25</ele><time>2026-05-05T10:36:11.565Z</time></trkpt><trkpt lat="38.0783183" lon="13.1914983"><ele>587.5</ele><time>2026-05-05T10:36:12.564Z</time></trkpt><trkpt lat="38.0783483" lon="13.1913333"><ele>584.75</ele><time>2026-05-05T10:36:13.565Z</time></trkpt><trkpt lat="38.07839" lon="13.1911833"><ele>582.0</ele><time>2026-05-05T10:36:14.565Z</time></trkpt><trkpt lat="38.078445" lon="13.191055"><ele>582.0</ele><time>2026-05-05T10:36:15.565Z</time></trkpt><trkpt lat="38.0785117" lon="13.1909467"><ele>582.0</ele><time>2026-05-05T10:36:16.564Z</time></trkpt><trkpt lat="38.0785917" lon="13.1908533"><ele>582.0</ele><time>2026-05-05T10:36:17.565Z</time></trkpt><trkpt lat="38.0786833" lon="13.1907783"><ele>582.0</ele><time>2026-05-05T10:36:18.565Z</time></trkpt><trkpt lat="38.078785" lon="13.190725"><ele>582.0</ele><time>2026-05-05T10:36:19.565Z</time></trkpt><trkpt lat="38.0788983" lon="13.1906883"><ele>578.5</ele><time>2026-05-05T10:36:20.565Z</time></trkpt><trkpt lat="38.0790217" lon="13.19066"><ele>575.0</ele><time>2026-05-05T10:36:21.565Z</time></trkpt><trkpt lat="38.07915" lon="13.1906317"><ele>571.5</ele><time>2026-05-05T10:36:22.565Z</time></trkpt><trkpt lat="38.07928" lon="13.1905967"><ele>568.0</ele><time>2026-05-05T10:36:23.565Z</time></trkpt><trkpt lat="38.0794" lon="13.19054"><ele>568.0</ele><time>2026-05-05T10:36:24.565Z</time></trkpt><trkpt lat="38.0795083" lon="13.1904567"><ele>568.0</ele><time>2026-05-05T10:36:25.565Z</time></trkpt><trkpt lat="38.0796033" lon="13.1903483"><ele>568.0</ele><time>2026-05-05T10:36:26.564Z</time></trkpt><trkpt lat="38.0796867" lon="13.1902183"><ele>568.0</ele><time>2026-05-05T10:36:27.565Z</time></trkpt><trkpt lat="38.079765" lon="13.1900717"><ele>568.0</ele><time>2026-05-05T10:36:28.565Z</time></trkpt><trkpt lat="38.079845" lon="13.189915"><ele>568.0</ele><time>2026-05-05T10:36:29.566Z</time></trkpt><trkpt lat="38.079925" lon="13.1897583"><ele>568.0</ele><time>2026-05-05T10:36:30.565Z</time></trkpt><trkpt lat="38.080005" lon="13.1896067"><ele>568.0</ele><time>2026-05-05T10:36:31.566Z</time></trkpt><trkpt lat="38.0800767" lon="13.1894517"><ele>567.25</ele><time>2026-05-05T10:36:32.565Z</time></trkpt><trkpt lat="38.0801483" lon="13.1893"><ele>566.5</ele><time>2026-05-05T10:36:33.565Z</time></trkpt><trkpt lat="38.080225" lon="13.1891633"><ele>565.75</ele><time>2026-05-05T10:36:34.565Z</time></trkpt><trkpt lat="38.0802983" lon="13.1890267"><ele>565.0</ele><time>2026-05-05T10:36:35.565Z</time></trkpt><trkpt lat="38.0803683" lon="13.1888867"><ele>563.0</ele><time>2026-05-05T10:36:36.565Z</time></trkpt><trkpt lat="38.080435" lon="13.18875"><ele>561.0</ele><time>2026-05-05T10:36:37.564Z</time></trkpt><trkpt lat="38.0805033" lon="13.1886217"><ele>559.0</ele><time>2026-05-05T10:36:38.564Z</time></trkpt><trkpt lat="38.0805733" lon="13.1884967"><ele>557.0</ele><time>2026-05-05T10:36:39.565Z</time></trkpt><trkpt lat="38.0806433" lon="13.18837"><ele>557.0</ele><time>2026-05-05T10:36:40.564Z</time></trkpt><trkpt lat="38.0807183" lon="13.1882433"><ele>557.0</ele><time>2026-05-05T10:36:41.564Z</time></trkpt><trkpt lat="38.0807917" lon="13.188115"><ele>557.0</ele><time>2026-05-05T10:36:42.565Z</time></trkpt><trkpt lat="38.080865" lon="13.187985"><ele>557.0</ele><time>2026-05-05T10:36:43.565Z</time></trkpt><trkpt lat="38.0809317" lon="13.1878467"><ele>556.75</ele><time>2026-05-05T10:36:44.652Z</time></trkpt><trkpt lat="38.0809917" lon="13.1877"><ele>556.5</ele><time>2026-05-05T10:36:45.565Z</time></trkpt><trkpt lat="38.0810483" lon="13.187555"><ele>556.25</ele><time>2026-05-05T10:36:46.565Z</time></trkpt><trkpt lat="38.08111" lon="13.187405"><ele>556.0</ele><time>2026-05-05T10:36:47.565Z</time></trkpt><trkpt lat="38.081175" lon="13.1872567"><ele>553.5</ele><time>2026-05-05T10:36:48.564Z</time></trkpt><trkpt lat="38.0812417" lon="13.1871067"><ele>551.0</ele><time>2026-05-05T10:36:49.565Z</time></trkpt><trkpt lat="38.081315" lon="13.1869567"><ele>548.5</ele><time>2026-05-05T10:36:50.565Z</time></trkpt><trkpt lat="38.0813967" lon="13.18681"><ele>546.0</ele><time>2026-05-05T10:36:51.563Z</time></trkpt><trkpt lat="38.0814867" lon="13.18667"><ele>546.0</ele><time>2026-05-05T10:36:52.564Z</time></trkpt><trkpt lat="38.0815833" lon="13.1865367"><ele>546.0</ele><time>2026-05-05T10:36:53.565Z</time></trkpt><trkpt lat="38.0816783" lon="13.1864067"><ele>546.0</ele><time>2026-05-05T10:36:54.565Z</time></trkpt><trkpt lat="38.0817817" lon="13.186275"><ele>546.0</ele><time>2026-05-05T10:36:55.564Z</time></trkpt><trkpt lat="38.0818833" lon="13.1861467"><ele>547.25</ele><time>2026-05-05T10:36:56.565Z</time></trkpt><trkpt lat="38.08198" lon="13.18602"><ele>548.5</ele><time>2026-05-05T10:36:57.564Z</time></trkpt><trkpt lat="38.0820733" lon="13.1859033"><ele>549.75</ele><time>2026-05-05T10:36:58.566Z</time></trkpt><trkpt lat="38.082165" lon="13.1857983"><ele>551.0</ele><time>2026-05-05T10:36:59.567Z</time></trkpt><trkpt lat="38.0822533" lon="13.185715"><ele>549.4</ele><time>2026-05-05T10:37:00.566Z</time></trkpt><trkpt lat="38.0823467" lon="13.1856517"><ele>547.8</ele><time>2026-05-05T10:37:01.567Z</time></trkpt><trkpt lat="38.08245" lon="13.1856083"><ele>546.1999999999999</ele><time>2026-05-05T10:37:02.567Z</time></trkpt><trkpt lat="38.0825633" lon="13.1855817"><ele>544.6</ele><time>2026-05-05T10:37:03.566Z</time></trkpt><trkpt lat="38.0826817" lon="13.1855683"><ele>543.0</ele><time>2026-05-05T10:37:04.565Z</time></trkpt><trkpt lat="38.0828067" lon="13.1855667"><ele>543.0</ele><time>2026-05-05T10:37:05.568Z</time></trkpt><trkpt lat="38.082935" lon="13.1855767"><ele>543.0</ele><time>2026-05-05T10:37:06.566Z</time></trkpt><trkpt lat="38.0830667" lon="13.1855917"><ele>543.0</ele><time>2026-05-05T10:37:07.564Z</time></trkpt><trkpt lat="38.0832033" lon="13.185605"><ele>543.0</ele><time>2026-05-05T10:37:08.565Z</time></trkpt><trkpt lat="38.0833417" lon="13.1856167"><ele>541.5</ele><time>2026-05-05T10:37:09.564Z</time></trkpt><trkpt lat="38.0834783" lon="13.1856283"><ele>540.0</ele><time>2026-05-05T10:37:10.565Z</time></trkpt><trkpt lat="38.0836083" lon="13.18564"><ele>538.5</ele><time>2026-05-05T10:37:11.564Z</time></trkpt><trkpt lat="38.0837333" lon="13.1856517"><ele>537.0</ele><time>2026-05-05T10:37:12.563Z</time></trkpt><trkpt lat="38.0838533" lon="13.1856633"><ele>537.0</ele><time>2026-05-05T10:37:13.564Z</time></trkpt><trkpt lat="38.08397" lon="13.185675"><ele>537.0</ele><time>2026-05-05T10:37:14.566Z</time></trkpt><trkpt lat="38.0840767" lon="13.18569"><ele>537.0</ele><time>2026-05-05T10:37:15.563Z</time></trkpt><trkpt lat="38.0841767" lon="13.1857183"><ele>537.0</ele><time>2026-05-05T10:37:16.563Z</time></trkpt><trkpt lat="38.084265" lon="13.1857733"><ele>537.0</ele><time>2026-05-05T10:37:17.566Z</time></trkpt><trkpt lat="38.0843417" lon="13.18586"><ele>540.75</ele><time>2026-05-05T10:37:18.566Z</time></trkpt><trkpt lat="38.0844133" lon="13.1859567"><ele>544.5</ele><time>2026-05-05T10:37:19.565Z</time></trkpt><trkpt lat="38.0844833" lon="13.186065"><ele>548.25</ele><time>2026-05-05T10:37:20.565Z</time></trkpt><trkpt lat="38.084555" lon="13.18618"><ele>552.0</ele><time>2026-05-05T10:37:21.565Z</time></trkpt><trkpt lat="38.08463" lon="13.1863"><ele>552.0</ele><time>2026-05-05T10:37:22.564Z</time></trkpt><trkpt lat="38.0847083" lon="13.186425"><ele>552.0</ele><time>2026-05-05T10:37:23.565Z</time></trkpt><trkpt lat="38.084795" lon="13.1865517"><ele>552.0</ele><time>2026-05-05T10:37:24.565Z</time></trkpt><trkpt lat="38.0848817" lon="13.1866817"><ele>552.0</ele><time>2026-05-05T10:37:25.565Z</time></trkpt><trkpt lat="38.084965" lon="13.1868067"><ele>550.75</ele><time>2026-05-05T10:37:26.564Z</time></trkpt><trkpt lat="38.085045" lon="13.186925"><ele>549.5</ele><time>2026-05-05T10:37:27.564Z</time></trkpt><trkpt lat="38.0851267" lon="13.1870417"><ele>548.25</ele><time>2026-05-05T10:37:28.564Z</time></trkpt><trkpt lat="38.08521" lon="13.1871667"><ele>547.0</ele><time>2026-05-05T10:37:29.564Z</time></trkpt><trkpt lat="38.08529" lon="13.1872983"><ele>548.5</ele><time>2026-05-05T10:37:30.564Z</time></trkpt><trkpt lat="38.0853683" lon="13.1874333"><ele>550.0</ele><time>2026-05-05T10:37:31.565Z</time></trkpt><trkpt lat="38.0854367" lon="13.1875733"><ele>551.5</ele><time>2026-05-05T10:37:32.565Z</time></trkpt><trkpt lat="38.0854933" lon="13.1877217"><ele>553.0</ele><time>2026-05-05T10:37:33.563Z</time></trkpt><trkpt lat="38.085545" lon="13.1878767"><ele>553.0</ele><time>2026-05-05T10:37:34.564Z</time></trkpt><trkpt lat="38.0855883" lon="13.18804"><ele>553.0</ele><time>2026-05-05T10:37:35.563Z</time></trkpt><trkpt lat="38.085625" lon="13.1882083"><ele>553.0</ele><time>2026-05-05T10:37:36.566Z</time></trkpt><trkpt lat="38.08566" lon="13.188375"><ele>553.0</ele><time>2026-05-05T10:37:37.565Z</time></trkpt><trkpt lat="38.085695" lon="13.1885317"><ele>552.25</ele><time>2026-05-05T10:37:38.565Z</time></trkpt><trkpt lat="38.0857233" lon="13.1886817"><ele>551.5</ele><time>2026-05-05T10:37:39.564Z</time></trkpt><trkpt lat="38.085755" lon="13.1888333"><ele>550.75</ele><time>2026-05-05T10:37:40.564Z</time></trkpt><trkpt lat="38.0857883" lon="13.18899"><ele>550.0</ele><time>2026-05-05T10:37:41.564Z</time></trkpt><trkpt lat="38.0858167" lon="13.1891483"><ele>550.0</ele><time>2026-05-05T10:37:42.565Z</time></trkpt><trkpt lat="38.0858483" lon="13.1893117"><ele>550.0</ele><time>2026-05-05T10:37:43.564Z</time></trkpt><trkpt lat="38.085885" lon="13.1894733"><ele>550.0</ele><time>2026-05-05T10:37:44.565Z</time></trkpt><trkpt lat="38.0859283" lon="13.1896267"><ele>550.0</ele><time>2026-05-05T10:37:45.564Z</time></trkpt><trkpt lat="38.0859883" lon="13.18976"><ele>553.75</ele><time>2026-05-05T10:37:46.563Z</time></trkpt><trkpt lat="38.0860633" lon="13.1898767"><ele>557.5</ele><time>2026-05-05T10:37:47.565Z</time></trkpt><trkpt lat="38.0861583" lon="13.18998"><ele>561.25</ele><time>2026-05-05T10:37:48.564Z</time></trkpt><trkpt lat="38.086265" lon="13.1900767"><ele>565.0</ele><time>2026-05-05T10:37:49.565Z</time></trkpt><trkpt lat="38.08638" lon="13.1901667"><ele>565.0</ele><time>2026-05-05T10:37:50.566Z</time></trkpt><trkpt lat="38.086495" lon="13.1902583"><ele>565.0</ele><time>2026-05-05T10:37:51.565Z</time></trkpt><trkpt lat="38.0866117" lon="13.1903517"><ele>565.0</ele><time>2026-05-05T10:37:52.563Z</time></trkpt><trkpt lat="38.086725" lon="13.1904483"><ele>565.0</ele><time>2026-05-05T10:37:53.564Z</time></trkpt><trkpt lat="38.0868333" lon="13.1905417"><ele>563.5</ele><time>2026-05-05T10:37:54.563Z</time></trkpt><trkpt lat="38.0869367" lon="13.1906283"><ele>562.0</ele><time>2026-05-05T10:37:55.563Z</time></trkpt><trkpt lat="38.0870383" lon="13.19071"><ele>560.5</ele><time>2026-05-05T10:37:56.564Z</time></trkpt><trkpt lat="38.0871367" lon="13.1907883"><ele>559.0</ele><time>2026-05-05T10:37:57.564Z</time></trkpt><trkpt lat="38.0872367" lon="13.1908617"><ele>559.0</ele><time>2026-05-05T10:37:58.565Z</time></trkpt><trkpt lat="38.0873433" lon="13.1909267"><ele>559.0</ele><time>2026-05-05T10:37:59.565Z</time></trkpt><trkpt lat="38.08745" lon="13.1909883"><ele>559.0</ele><time>2026-05-05T10:38:00.564Z</time></trkpt><trkpt lat="38.0875567" lon="13.1910417"><ele>559.0</ele><time>2026-05-05T10:38:01.565Z</time></trkpt><trkpt lat="38.08766" lon="13.19107"><ele>557.0</ele><time>2026-05-05T10:38:02.565Z</time></trkpt><trkpt lat="38.0877667" lon="13.191075"><ele>555.0</ele><time>2026-05-05T10:38:03.564Z</time></trkpt><trkpt lat="38.0878783" lon="13.1910583"><ele>553.0</ele><time>2026-05-05T10:38:04.564Z</time></trkpt><trkpt lat="38.0879883" lon="13.19102"><ele>551.0</ele><time>2026-05-05T10:38:05.565Z</time></trkpt><trkpt lat="38.088095" lon="13.1909683"><ele>549.0</ele><time>2026-05-05T10:38:06.565Z</time></trkpt><trkpt lat="38.0881933" lon="13.1909067"><ele>549.0</ele><time>2026-05-05T10:38:07.565Z</time></trkpt><trkpt lat="38.0882883" lon="13.1908383"><ele>549.0</ele><time>2026-05-05T10:38:08.564Z</time></trkpt><trkpt lat="38.0883833" lon="13.1907617"><ele>549.0</ele><time>2026-05-05T10:38:09.565Z</time></trkpt><trkpt lat="38.088485" lon="13.1906817"><ele>549.0</ele><time>2026-05-05T10:38:10.565Z</time></trkpt><trkpt lat="38.0885917" lon="13.1906"><ele>545.25</ele><time>2026-05-05T10:38:11.565Z</time></trkpt><trkpt lat="38.088705" lon="13.1905133"><ele>541.5</ele><time>2026-05-05T10:38:12.565Z</time></trkpt><trkpt lat="38.0888233" lon="13.1904233"><ele>537.75</ele><time>2026-05-05T10:38:13.564Z</time></trkpt><trkpt lat="38.0889517" lon="13.190335"><ele>534.0</ele><time>2026-05-05T10:38:14.565Z</time></trkpt><trkpt lat="38.0890883" lon="13.1902517"><ele>536.3333333333334</ele><time>2026-05-05T10:38:15.564Z</time></trkpt><trkpt lat="38.08923" lon="13.1901833"><ele>538.6666666666667</ele><time>2026-05-05T10:38:16.564Z</time></trkpt><trkpt lat="38.0893783" lon="13.1901267"><ele>541.0</ele><time>2026-05-05T10:38:17.565Z</time></trkpt><trkpt lat="38.08953" lon="13.1900817"><ele>541.0</ele><time>2026-05-05T10:38:18.565Z</time></trkpt><trkpt lat="38.08968" lon="13.1900417"><ele>541.0</ele><time>2026-05-05T10:38:19.565Z</time></trkpt><trkpt lat="38.0898217" lon="13.1899967"><ele>541.0</ele><time>2026-05-05T10:38:20.565Z</time></trkpt><trkpt lat="38.0899533" lon="13.18993"><ele>541.0</ele><time>2026-05-05T10:38:21.563Z</time></trkpt><trkpt lat="38.0900667" lon="13.18984"><ele>536.25</ele><time>2026-05-05T10:38:22.564Z</time></trkpt><trkpt lat="38.090175" lon="13.1897367"><ele>531.5</ele><time>2026-05-05T10:38:23.564Z</time></trkpt><trkpt lat="38.090285" lon="13.18963"><ele>526.75</ele><time>2026-05-05T10:38:24.564Z</time></trkpt><trkpt lat="38.0904017" lon="13.1895233"><ele>522.0</ele><time>2026-05-05T10:38:25.563Z</time></trkpt><trkpt lat="38.090525" lon="13.18942"><ele>522.0</ele><time>2026-05-05T10:38:26.565Z</time></trkpt><trkpt lat="38.0906533" lon="13.1893183"><ele>522.0</ele><time>2026-05-05T10:38:27.565Z</time></trkpt><trkpt lat="38.0907867" lon="13.1892183"><ele>522.0</ele><time>2026-05-05T10:38:28.566Z</time></trkpt><trkpt lat="38.0909183" lon="13.189125"><ele>523.75</ele><time>2026-05-05T10:38:29.565Z</time></trkpt><trkpt lat="38.0910517" lon="13.1890433"><ele>525.5</ele><time>2026-05-05T10:38:30.564Z</time></trkpt><trkpt lat="38.0911833" lon="13.1889817"><ele>527.25</ele><time>2026-05-05T10:38:31.564Z</time></trkpt><trkpt lat="38.091305" lon="13.1889433"><ele>529.0</ele><time>2026-05-05T10:38:32.566Z</time></trkpt><trkpt lat="38.0914133" lon="13.1889167"><ele>526.5</ele><time>2026-05-05T10:38:33.563Z</time></trkpt><trkpt lat="38.0915" lon="13.18888"><ele>524.0</ele><time>2026-05-05T10:38:34.565Z</time></trkpt><trkpt lat="38.0915717" lon="13.1888267"><ele>521.5</ele><time>2026-05-05T10:38:35.564Z</time></trkpt><trkpt lat="38.0916" lon="13.1887383"><ele>519.0</ele><time>2026-05-05T10:38:36.564Z</time></trkpt><trkpt lat="38.0916033" lon="13.1886517"><ele>516.5</ele><time>2026-05-05T10:38:37.565Z</time></trkpt><trkpt lat="38.0915683" lon="13.1885683"><ele>514.0</ele><time>2026-05-05T10:38:38.566Z</time></trkpt><trkpt lat="38.0914883" lon="13.1885283"><ele>512.2</ele><time>2026-05-05T10:38:39.564Z</time></trkpt><trkpt lat="38.0913967" lon="13.1885333"><ele>510.4</ele><time>2026-05-05T10:38:40.565Z</time></trkpt><trkpt lat="38.0912967" lon="13.1885883"><ele>508.6</ele><time>2026-05-05T10:38:41.565Z</time></trkpt><trkpt lat="38.0911917" lon="13.18867"><ele>506.8</ele><time>2026-05-05T10:38:42.565Z</time></trkpt><trkpt lat="38.0910917" lon="13.1887467"><ele>505.0</ele><time>2026-05-05T10:38:43.563Z</time></trkpt><trkpt lat="38.09098" lon="13.1888217"><ele>505.0</ele><time>2026-05-05T10:38:44.564Z</time></trkpt><trkpt lat="38.0908583" lon="13.1888917"><ele>505.0</ele><time>2026-05-05T10:38:45.564Z</time></trkpt><trkpt lat="38.09073" lon="13.1889683"><ele>505.0</ele><time>2026-05-05T10:38:46.564Z</time></trkpt><trkpt lat="38.090595" lon="13.1890417"><ele>505.0</ele><time>2026-05-05T10:38:47.564Z</time></trkpt><trkpt lat="38.0904583" lon="13.1891083"><ele>509.25</ele><time>2026-05-05T10:38:48.565Z</time></trkpt><trkpt lat="38.0903267" lon="13.1891667"><ele>513.5</ele><time>2026-05-05T10:38:49.565Z</time></trkpt><trkpt lat="38.09021" lon="13.18921"><ele>517.75</ele><time>2026-05-05T10:38:50.564Z</time></trkpt><trkpt lat="38.0901083" lon="13.1892217"><ele>522.0</ele><time>2026-05-05T10:38:51.564Z</time></trkpt><trkpt lat="38.0900117" lon="13.1891967"><ele>522.0</ele><time>2026-05-05T10:38:52.565Z</time></trkpt><trkpt lat="38.0899183" lon="13.1891283"><ele>522.0</ele><time>2026-05-05T10:38:53.565Z</time></trkpt><trkpt lat="38.089825" lon="13.1890333"><ele>522.0</ele><time>2026-05-05T10:38:54.564Z</time></trkpt><trkpt lat="38.0897317" lon="13.1889317"><ele>522.0</ele><time>2026-05-05T10:38:55.565Z</time></trkpt><trkpt lat="38.089645" lon="13.188835"><ele>520.1428571428571</ele><time>2026-05-05T10:38:56.565Z</time></trkpt><trkpt lat="38.0895733" lon="13.1887517"><ele>518.2857142857142</ele><time>2026-05-05T10:38:57.565Z</time></trkpt><trkpt lat="38.08952" lon="13.1886717"><ele>516.4285714285713</ele><time>2026-05-05T10:38:58.565Z</time></trkpt><trkpt lat="38.0894967" lon="13.1885867"><ele>514.5714285714286</ele><time>2026-05-05T10:38:59.564Z</time></trkpt><trkpt lat="38.0895083" lon="13.188505"><ele>512.7142857142857</ele><time>2026-05-05T10:39:00.564Z</time></trkpt><trkpt lat="38.0895433" lon="13.188435"><ele>510.8571428571428</ele><time>2026-05-05T10:39:01.563Z</time></trkpt><trkpt lat="38.08961" lon="13.1884217"><ele>508.99999999999994</ele><time>2026-05-05T10:39:02.565Z</time></trkpt><trkpt lat="38.0896767" lon="13.1884317"><ele>509.0</ele><time>2026-05-05T10:39:03.565Z</time></trkpt><trkpt lat="38.0897583" lon="13.1884783"><ele>509.0</ele><time>2026-05-05T10:39:04.565Z</time></trkpt><trkpt lat="38.089845" lon="13.1885517"><ele>509.0</ele><time>2026-05-05T10:39:05.564Z</time></trkpt><trkpt lat="38.0899383" lon="13.1886167"><ele>509.0</ele><time>2026-05-05T10:39:06.563Z</time></trkpt><trkpt lat="38.0900433" lon="13.1886683"><ele>509.0</ele><time>2026-05-05T10:39:07.563Z</time></trkpt><trkpt lat="38.0901633" lon="13.1886833"><ele>508.5</ele><time>2026-05-05T10:39:08.564Z</time></trkpt><trkpt lat="38.0902917" lon="13.1886683"><ele>508.0</ele><time>2026-05-05T10:39:09.565Z</time></trkpt><trkpt lat="38.0904167" lon="13.1886383"><ele>507.5</ele><time>2026-05-05T10:39:10.565Z</time></trkpt><trkpt lat="38.090535" lon="13.1886"><ele>507.0</ele><time>2026-05-05T10:39:11.565Z</time></trkpt><trkpt lat="38.090645" lon="13.18855"><ele>507.0</ele><time>2026-05-05T10:39:12.564Z</time></trkpt><trkpt lat="38.0907383" lon="13.188475"><ele>507.00000000000006</ele><time>2026-05-05T10:39:13.565Z</time></trkpt><trkpt lat="38.09082" lon="13.1883817"><ele>507.00000000000006</ele><time>2026-05-05T10:39:14.566Z</time></trkpt><trkpt lat="38.09089" lon="13.188265"><ele>507.0</ele><time>2026-05-05T10:39:15.565Z</time></trkpt><trkpt lat="38.0909567" lon="13.18815"><ele>507.0</ele><time>2026-05-05T10:39:16.563Z</time></trkpt><trkpt lat="38.0910317" lon="13.1880533"><ele>502.0</ele><time>2026-05-05T10:39:17.565Z</time></trkpt><trkpt lat="38.0911133" lon="13.18799"><ele>497.00000000000006</ele><time>2026-05-05T10:39:18.565Z</time></trkpt><trkpt lat="38.091205" lon="13.1879583"><ele>492.00000000000006</ele><time>2026-05-05T10:39:19.565Z</time></trkpt><trkpt lat="38.09131" lon="13.1879517"><ele>487.0</ele><time>2026-05-05T10:39:20.565Z</time></trkpt><trkpt lat="38.0914267" lon="13.1879483"><ele>482.0</ele><time>2026-05-05T10:39:21.565Z</time></trkpt><trkpt lat="38.0915533" lon="13.18794"><ele>482.75</ele><time>2026-05-05T10:39:22.565Z</time></trkpt><trkpt lat="38.0916883" lon="13.18792"><ele>483.5</ele><time>2026-05-05T10:39:23.566Z</time></trkpt><trkpt lat="38.09183" lon="13.1878883"><ele>484.25</ele><time>2026-05-05T10:39:24.565Z</time></trkpt><trkpt lat="38.0919683" lon="13.1878483"><ele>485.0</ele><time>2026-05-05T10:39:25.565Z</time></trkpt><trkpt lat="38.092105" lon="13.1878033"><ele>485.0</ele><time>2026-05-05T10:39:26.565Z</time></trkpt><trkpt lat="38.0922383" lon="13.187755"><ele>485.0</ele><time>2026-05-05T10:39:27.565Z</time></trkpt><trkpt lat="38.0923667" lon="13.18771"><ele>485.0</ele><time>2026-05-05T10:39:28.564Z</time></trkpt><trkpt lat="38.092485" lon="13.1876517"><ele>485.0</ele><time>2026-05-05T10:39:29.564Z</time></trkpt><trkpt lat="38.0925883" lon="13.18757"><ele>485.0</ele><time>2026-05-05T10:39:30.565Z</time></trkpt><trkpt lat="38.09268" lon="13.1874717"><ele>485.0</ele><time>2026-05-05T10:39:31.566Z</time></trkpt><trkpt lat="38.0927667" lon="13.1873733"><ele>485.0</ele><time>2026-05-05T10:39:32.566Z</time></trkpt><trkpt lat="38.0928567" lon="13.1872833"><ele>485.0</ele><time>2026-05-05T10:39:33.564Z</time></trkpt><trkpt lat="38.0929533" lon="13.1872217"><ele>483.6</ele><time>2026-05-05T10:39:34.565Z</time></trkpt><trkpt lat="38.09306" lon="13.1871967"><ele>482.2</ele><time>2026-05-05T10:39:35.567Z</time></trkpt><trkpt lat="38.0931683" lon="13.1872"><ele>480.79999999999995</ele><time>2026-05-05T10:39:36.563Z</time></trkpt><trkpt lat="38.0932767" lon="13.1872267"><ele>479.4</ele><time>2026-05-05T10:39:37.565Z</time></trkpt><trkpt lat="38.0933867" lon="13.1872733"><ele>478.0</ele><time>2026-05-05T10:39:38.565Z</time></trkpt><trkpt lat="38.0934967" lon="13.1873367"><ele>480.0</ele><time>2026-05-05T10:39:39.565Z</time></trkpt><trkpt lat="38.0936033" lon="13.187405"><ele>481.99999999999994</ele><time>2026-05-05T10:39:40.563Z</time></trkpt><trkpt lat="38.0937017" lon="13.1874633"><ele>483.99999999999994</ele><time>2026-05-05T10:39:41.564Z</time></trkpt><trkpt lat="38.0937917" lon="13.187485"><ele>486.0</ele><time>2026-05-05T10:39:42.565Z</time></trkpt><trkpt lat="38.09388" lon="13.187485"><ele>488.0</ele><time>2026-05-05T10:39:43.564Z</time></trkpt><trkpt lat="38.093965" lon="13.1874617"><ele>487.99999999999994</ele><time>2026-05-05T10:39:44.565Z</time></trkpt><trkpt lat="38.0940483" lon="13.1874333"><ele>488.0</ele><time>2026-05-05T10:39:45.564Z</time></trkpt><trkpt lat="38.0941317" lon="13.1874033"><ele>488.0</ele><time>2026-05-05T10:39:46.564Z</time></trkpt><trkpt lat="38.094215" lon="13.1873717"><ele>488.0</ele><time>2026-05-05T10:39:47.565Z</time></trkpt><trkpt lat="38.0942967" lon="13.1873467"><ele>487.99999999999994</ele><time>2026-05-05T10:39:48.566Z</time></trkpt><trkpt lat="38.09437" lon="13.1873233"><ele>488.0</ele><time>2026-05-05T10:39:49.567Z</time></trkpt><trkpt lat="38.0944733" lon="13.18729"><ele>486.0</ele><time>2026-05-05T10:39:51.567Z</time></trkpt><trkpt lat="38.0945483" lon="13.18722"><ele>483.99999999999994</ele><time>2026-05-05T10:39:54.566Z</time></trkpt><trkpt lat="38.0945483" lon="13.1870883"><ele>481.99999999999994</ele><time>2026-05-05T10:39:56.567Z</time></trkpt><trkpt lat="38.0945267" lon="13.1869883"><ele>480.0</ele><time>2026-05-05T10:39:57.567Z</time></trkpt><trkpt lat="38.0944983" lon="13.186865"><ele>478.0</ele><time>2026-05-05T10:39:58.567Z</time></trkpt><trkpt lat="38.094465" lon="13.1867333"><ele>478.0</ele><time>2026-05-05T10:39:59.565Z</time></trkpt><trkpt lat="38.0944317" lon="13.1865867"><ele>478.0</ele><time>2026-05-05T10:40:00.565Z</time></trkpt><trkpt lat="38.0944017" lon="13.1864267"><ele>478.0</ele><time>2026-05-05T10:40:01.563Z</time></trkpt><trkpt lat="38.0943767" lon="13.1862583"><ele>478.0</ele><time>2026-05-05T10:40:02.564Z</time></trkpt><trkpt lat="38.094355" lon="13.186085"><ele>475.5</ele><time>2026-05-05T10:40:03.564Z</time></trkpt><trkpt lat="38.0943417" lon="13.1859167"><ele>473.0</ele><time>2026-05-05T10:40:04.563Z</time></trkpt><trkpt lat="38.09433" lon="13.18575"><ele>470.5</ele><time>2026-05-05T10:40:05.564Z</time></trkpt><trkpt lat="38.0943067" lon="13.18559"><ele>468.0</ele><time>2026-05-05T10:40:06.565Z</time></trkpt><trkpt lat="38.0942617" lon="13.1854383"><ele>468.75</ele><time>2026-05-05T10:40:07.565Z</time></trkpt><trkpt lat="38.0941933" lon="13.1853017"><ele>469.5</ele><time>2026-05-05T10:40:08.565Z</time></trkpt><trkpt lat="38.0941017" lon="13.1851683"><ele>470.25</ele><time>2026-05-05T10:40:09.565Z</time></trkpt><trkpt lat="38.0940183" lon="13.1850317"><ele>471.0</ele><time>2026-05-05T10:40:10.564Z</time></trkpt><trkpt lat="38.0939633" lon="13.1848767"><ele>468.75</ele><time>2026-05-05T10:40:11.566Z</time></trkpt><trkpt lat="38.0939283" lon="13.1847083"><ele>466.5</ele><time>2026-05-05T10:40:12.565Z</time></trkpt><trkpt lat="38.093895" lon="13.1845417"><ele>464.25</ele><time>2026-05-05T10:40:13.565Z</time></trkpt><trkpt lat="38.0938467" lon="13.184385"><ele>462.0</ele><time>2026-05-05T10:40:14.566Z</time></trkpt><trkpt lat="38.0937683" lon="13.1842483"><ele>462.0</ele><time>2026-05-05T10:40:15.566Z</time></trkpt><trkpt lat="38.093665" lon="13.184125"><ele>462.0</ele><time>2026-05-05T10:40:16.565Z</time></trkpt><trkpt lat="38.0935467" lon="13.1840067"><ele>462.0</ele><time>2026-05-05T10:40:17.564Z</time></trkpt><trkpt lat="38.0934367" lon="13.1838767"><ele>462.0</ele><time>2026-05-05T10:40:18.565Z</time></trkpt><trkpt lat="38.0933433" lon="13.183735"><ele>459.5</ele><time>2026-05-05T10:40:19.565Z</time></trkpt><trkpt lat="38.0932583" lon="13.1835867"><ele>457.0</ele><time>2026-05-05T10:40:20.566Z</time></trkpt><trkpt lat="38.0931717" lon="13.18345"><ele>454.5</ele><time>2026-05-05T10:40:21.565Z</time></trkpt><trkpt lat="38.0930667" lon="13.1833333"><ele>452.0</ele><time>2026-05-05T10:40:22.564Z</time></trkpt><trkpt lat="38.0929467" lon="13.1832417"><ele>447.0</ele><time>2026-05-05T10:40:23.565Z</time></trkpt><trkpt lat="38.0928183" lon="13.1831617"><ele>442.0</ele><time>2026-05-05T10:40:24.564Z</time></trkpt><trkpt lat="38.0926933" lon="13.1830867"><ele>437.0</ele><time>2026-05-05T10:40:25.566Z</time></trkpt><trkpt lat="38.0925683" lon="13.1830317"><ele>432.0</ele><time>2026-05-05T10:40:26.565Z</time></trkpt><trkpt lat="38.09245" lon="13.1830117"><ele>433.5</ele><time>2026-05-05T10:40:27.565Z</time></trkpt><trkpt lat="38.09234" lon="13.18303"><ele>435.0</ele><time>2026-05-05T10:40:28.565Z</time></trkpt><trkpt lat="38.0922367" lon="13.1830783"><ele>436.5</ele><time>2026-05-05T10:40:29.565Z</time></trkpt><trkpt lat="38.0921433" lon="13.183165"><ele>438.0</ele><time>2026-05-05T10:40:30.564Z</time></trkpt><trkpt lat="38.0920583" lon="13.18328"><ele>438.75</ele><time>2026-05-05T10:40:31.564Z</time></trkpt><trkpt lat="38.09198" lon="13.1834133"><ele>439.5</ele><time>2026-05-05T10:40:32.564Z</time></trkpt><trkpt lat="38.0919033" lon="13.1835517"><ele>440.25</ele><time>2026-05-05T10:40:33.565Z</time></trkpt><trkpt lat="38.091825" lon="13.183675"><ele>441.0</ele><time>2026-05-05T10:40:34.565Z</time></trkpt><trkpt lat="38.09175" lon="13.18377"><ele>441.0</ele><time>2026-05-05T10:40:35.565Z</time></trkpt><trkpt lat="38.09168" lon="13.183825"><ele>441.0</ele><time>2026-05-05T10:40:36.565Z</time></trkpt><trkpt lat="38.0916067" lon="13.18385"><ele>441.0</ele><time>2026-05-05T10:40:37.565Z</time></trkpt><trkpt lat="38.09153" lon="13.1838483"><ele>441.0</ele><time>2026-05-05T10:40:38.565Z</time></trkpt><trkpt lat="38.091465" lon="13.183785"><ele>441.0</ele><time>2026-05-05T10:40:39.565Z</time></trkpt><trkpt lat="38.091415" lon="13.1837"><ele>441.0</ele><time>2026-05-05T10:40:40.565Z</time></trkpt><trkpt lat="38.0913833" lon="13.1835867"><ele>443.5</ele><time>2026-05-05T10:40:41.565Z</time></trkpt><trkpt lat="38.0913783" lon="13.1834517"><ele>446.0</ele><time>2026-05-05T10:40:42.565Z</time></trkpt><trkpt lat="38.0914067" lon="13.1833033"><ele>448.5</ele><time>2026-05-05T10:40:43.566Z</time></trkpt><trkpt lat="38.0914367" lon="13.18315"><ele>451.0</ele><time>2026-05-05T10:40:44.565Z</time></trkpt><trkpt lat="38.0914717" lon="13.18299"><ele>451.25</ele><time>2026-05-05T10:40:45.565Z</time></trkpt><trkpt lat="38.0915083" lon="13.1828233"><ele>451.5</ele><time>2026-05-05T10:40:46.565Z</time></trkpt><trkpt lat="38.091545" lon="13.1826517"><ele>451.75</ele><time>2026-05-05T10:40:47.565Z</time></trkpt><trkpt lat="38.09158" lon="13.1824767"><ele>452.0</ele><time>2026-05-05T10:40:48.565Z</time></trkpt><trkpt lat="38.0916033" lon="13.1823067"><ele>446.75</ele><time>2026-05-05T10:40:49.564Z</time></trkpt><trkpt lat="38.0916117" lon="13.1821333"><ele>441.5</ele><time>2026-05-05T10:40:50.564Z</time></trkpt><trkpt lat="38.091615" lon="13.181955"><ele>436.25</ele><time>2026-05-05T10:40:51.565Z</time></trkpt><trkpt lat="38.09161" lon="13.1817733"><ele>431.0</ele><time>2026-05-05T10:40:52.657Z</time></trkpt><trkpt lat="38.0916033" lon="13.1815883"><ele>429.75</ele><time>2026-05-05T10:40:53.565Z</time></trkpt><trkpt lat="38.091595" lon="13.1814"><ele>428.5</ele><time>2026-05-05T10:40:54.566Z</time></trkpt><trkpt lat="38.0915867" lon="13.1812117"><ele>427.25</ele><time>2026-05-05T10:40:55.565Z</time></trkpt><trkpt lat="38.09158" lon="13.1810317"><ele>426.0</ele><time>2026-05-05T10:40:56.566Z</time></trkpt><trkpt lat="38.091575" lon="13.1808733"><ele>428.25</ele><time>2026-05-05T10:40:57.565Z</time></trkpt><trkpt lat="38.09156" lon="13.180735"><ele>430.5</ele><time>2026-05-05T10:40:58.565Z</time></trkpt><trkpt lat="38.0915233" lon="13.1806067"><ele>432.75</ele><time>2026-05-05T10:40:59.565Z</time></trkpt><trkpt lat="38.091465" lon="13.18048"><ele>435.0</ele><time>2026-05-05T10:41:00.566Z</time></trkpt><trkpt lat="38.0913983" lon="13.1803567"><ele>435.0</ele><time>2026-05-05T10:41:01.564Z</time></trkpt><trkpt lat="38.0913333" lon="13.1802367"><ele>435.0</ele><time>2026-05-05T10:41:02.565Z</time></trkpt><trkpt lat="38.09128" lon="13.1801083"><ele>435.0</ele><time>2026-05-05T10:41:03.564Z</time></trkpt><trkpt lat="38.09125" lon="13.1799733"><ele>435.0</ele><time>2026-05-05T10:41:04.564Z</time></trkpt><trkpt lat="38.0912483" lon="13.179845"><ele>435.0</ele><time>2026-05-05T10:41:05.565Z</time></trkpt><trkpt lat="38.0912633" lon="13.179735"><ele>433.1666666666667</ele><time>2026-05-05T10:41:06.565Z</time></trkpt><trkpt lat="38.0912783" lon="13.1796383"><ele>431.33333333333337</ele><time>2026-05-05T10:41:07.565Z</time></trkpt><trkpt lat="38.0912883" lon="13.179515"><ele>429.5</ele><time>2026-05-05T10:41:09.564Z</time></trkpt><trkpt lat="38.0912483" lon="13.1794217"><ele>427.6666666666667</ele><time>2026-05-05T10:41:12.565Z</time></trkpt><trkpt lat="38.0912083" lon="13.1793383"><ele>425.83333333333337</ele><time>2026-05-05T10:41:15.565Z</time></trkpt><trkpt lat="38.091165" lon="13.1792717"><ele>424.0</ele><time>2026-05-05T10:41:18.565Z</time></trkpt><trkpt lat="38.09109" lon="13.17923"><ele>424.0</ele><time>2026-05-05T10:41:22.565Z</time></trkpt></trkseg><trkseg><trkpt lat="38.0909867" lon="13.17926"><ele>424.0</ele><time>2026-05-05T11:02:45.565Z</time></trkpt><trkpt lat="38.09116" lon="13.1792483"><ele>424.0</ele><time>2026-05-05T11:02:46.565Z</time></trkpt><trkpt lat="38.091115" lon="13.1791483"><ele>424.0</ele><time>2026-05-05T11:03:35.567Z</time></trkpt><trkpt lat="38.0911583" lon="13.1790833"><ele>424.0</ele><time>2026-05-05T11:03:39.567Z</time></trkpt><trkpt lat="38.09116" lon="13.1789367"><ele>424.0</ele><time>2026-05-05T11:04:03.567Z</time></trkpt><trkpt lat="38.0911283" lon="13.1788417"><ele>420.75</ele><time>2026-05-05T11:04:04.567Z</time></trkpt><trkpt lat="38.0910617" lon="13.1786717"><ele>417.5</ele><time>2026-05-05T11:04:06.566Z</time></trkpt><trkpt lat="38.0910217" lon="13.1785617"><ele>414.25</ele><time>2026-05-05T11:04:07.568Z</time></trkpt><trkpt lat="38.09098" lon="13.1784417"><ele>411.0</ele><time>2026-05-05T11:04:08.567Z</time></trkpt><trkpt lat="38.0909367" lon="13.17832"><ele>411.0</ele><time>2026-05-05T11:04:09.567Z</time></trkpt><trkpt lat="38.09091" lon="13.17822"><ele>411.0</ele><time>2026-05-05T11:04:10.567Z</time></trkpt><trkpt lat="38.0908917" lon="13.1781417"><ele>411.0</ele><time>2026-05-05T11:04:11.566Z</time></trkpt><trkpt lat="38.09091" lon="13.1780233"><ele>411.0</ele><time>2026-05-05T11:04:13.566Z</time></trkpt><trkpt lat="38.0910383" lon="13.1779867"><ele>411.0</ele><time>2026-05-05T11:04:15.568Z</time></trkpt><trkpt lat="38.0911233" lon="13.17799"><ele>410.0</ele><time>2026-05-05T11:04:16.564Z</time></trkpt><trkpt lat="38.0912117" lon="13.177985"><ele>409.0</ele><time>2026-05-05T11:04:17.566Z</time></trkpt><trkpt lat="38.0912967" lon="13.17797"><ele>408.0</ele><time>2026-05-05T11:04:18.564Z</time></trkpt><trkpt lat="38.0913717" lon="13.1779417"><ele>407.0</ele><time>2026-05-05T11:04:19.566Z</time></trkpt><trkpt lat="38.091455" lon="13.1779083"><ele>406.0</ele><time>2026-05-05T11:04:20.566Z</time></trkpt><trkpt lat="38.09153" lon="13.177875"><ele>405.0</ele><time>2026-05-05T11:04:21.567Z</time></trkpt><trkpt lat="38.0915967" lon="13.177835"><ele>405.0</ele><time>2026-05-05T11:04:22.564Z</time></trkpt><trkpt lat="38.0916583" lon="13.177785"><ele>405.0</ele><time>2026-05-05T11:04:23.564Z</time></trkpt><trkpt lat="38.0917167" lon="13.1777217"><ele>405.0</ele><time>2026-05-05T11:04:24.565Z</time></trkpt><trkpt lat="38.0917767" lon="13.177655"><ele>405.0</ele><time>2026-05-05T11:04:25.564Z</time></trkpt><trkpt lat="38.09183" lon="13.1775783"><ele>405.0</ele><time>2026-05-05T11:04:26.568Z</time></trkpt><trkpt lat="38.09188" lon="13.1774917"><ele>405.0</ele><time>2026-05-05T11:04:27.567Z</time></trkpt><trkpt lat="38.0919283" lon="13.1773967"><ele>403.2</ele><time>2026-05-05T11:04:28.567Z</time></trkpt><trkpt lat="38.091975" lon="13.1772883"><ele>401.4</ele><time>2026-05-05T11:04:29.566Z</time></trkpt><trkpt lat="38.0920217" lon="13.1771717"><ele>399.6</ele><time>2026-05-05T11:04:30.567Z</time></trkpt><trkpt lat="38.09207" lon="13.1770467"><ele>397.8</ele><time>2026-05-05T11:04:31.567Z</time></trkpt><trkpt lat="38.0921217" lon="13.1769133"><ele>396.0</ele><time>2026-05-05T11:04:32.568Z</time></trkpt><trkpt lat="38.0921717" lon="13.1767767"><ele>396.0</ele><time>2026-05-05T11:04:33.566Z</time></trkpt><trkpt lat="38.0922167" lon="13.176645"><ele>396.0</ele><time>2026-05-05T11:04:34.566Z</time></trkpt><trkpt lat="38.092255" lon="13.176525"><ele>396.0</ele><time>2026-05-05T11:04:35.567Z</time></trkpt><trkpt lat="38.09228" lon="13.1764067"><ele>396.0</ele><time>2026-05-05T11:04:36.567Z</time></trkpt><trkpt lat="38.0922933" lon="13.17628"><ele>396.0</ele><time>2026-05-05T11:04:37.567Z</time></trkpt><trkpt lat="38.0923033" lon="13.17614"><ele>397.4</ele><time>2026-05-05T11:04:38.566Z</time></trkpt><trkpt lat="38.0923183" lon="13.176"><ele>398.8</ele><time>2026-05-05T11:04:39.567Z</time></trkpt><trkpt lat="38.0923483" lon="13.1758683"><ele>400.2</ele><time>2026-05-05T11:04:40.566Z</time></trkpt><trkpt lat="38.0924" lon="13.1757467"><ele>401.59999999999997</ele><time>2026-05-05T11:04:41.567Z</time></trkpt><trkpt lat="38.0924583" lon="13.17563"><ele>403.0</ele><time>2026-05-05T11:04:42.566Z</time></trkpt><trkpt lat="38.0925233" lon="13.1755217"><ele>403.0</ele><time>2026-05-05T11:04:43.566Z</time></trkpt><trkpt lat="38.09259" lon="13.175415"><ele>403.0</ele><time>2026-05-05T11:04:44.567Z</time></trkpt><trkpt lat="38.09265" lon="13.1753033"><ele>403.0</ele><time>2026-05-05T11:04:45.567Z</time></trkpt><trkpt lat="38.0927117" lon="13.1751933"><ele>403.0</ele><time>2026-05-05T11:04:46.567Z</time></trkpt><trkpt lat="38.092775" lon="13.1750817"><ele>403.0</ele><time>2026-05-05T11:04:47.567Z</time></trkpt><trkpt lat="38.09284" lon="13.1749667"><ele>401.0</ele><time>2026-05-05T11:04:48.567Z</time></trkpt><trkpt lat="38.092905" lon="13.17485"><ele>399.0</ele><time>2026-05-05T11:04:49.567Z</time></trkpt><trkpt lat="38.09297" lon="13.1747333"><ele>397.0</ele><time>2026-05-05T11:04:50.567Z</time></trkpt><trkpt lat="38.09304" lon="13.1746167"><ele>395.0</ele><time>2026-05-05T11:04:51.566Z</time></trkpt><trkpt lat="38.0931133" lon="13.174505"><ele>395.0</ele><time>2026-05-05T11:04:52.566Z</time></trkpt><trkpt lat="38.0931917" lon="13.1744067"><ele>395.0</ele><time>2026-05-05T11:04:53.567Z</time></trkpt><trkpt lat="38.0932717" lon="13.1743167"><ele>395.0</ele><time>2026-05-05T11:04:54.567Z</time></trkpt><trkpt lat="38.0933483" lon="13.174225"><ele>395.0</ele><time>2026-05-05T11:04:55.567Z</time></trkpt><trkpt lat="38.09342" lon="13.1741283"><ele>395.0</ele><time>2026-05-05T11:04:56.567Z</time></trkpt><trkpt lat="38.09349" lon="13.17402"><ele>400.5</ele><time>2026-05-05T11:04:57.567Z</time></trkpt><trkpt lat="38.0935533" lon="13.1739017"><ele>406.0</ele><time>2026-05-05T11:04:58.566Z</time></trkpt><trkpt lat="38.0936117" lon="13.1737767"><ele>411.5</ele><time>2026-05-05T11:04:59.566Z</time></trkpt><trkpt lat="38.0936667" lon="13.173645"><ele>417.0</ele><time>2026-05-05T11:05:00.567Z</time></trkpt><trkpt lat="38.093715" lon="13.1735067"><ele>417.0</ele><time>2026-05-05T11:05:01.567Z</time></trkpt><trkpt lat="38.0937633" lon="13.1733633"><ele>417.0</ele><time>2026-05-05T11:05:02.567Z</time></trkpt><trkpt lat="38.0938067" lon="13.1732167"><ele>417.0</ele><time>2026-05-05T11:05:03.567Z</time></trkpt><trkpt lat="38.0938533" lon="13.1730667"><ele>417.0</ele><time>2026-05-05T11:05:04.566Z</time></trkpt><trkpt lat="38.0939083" lon="13.1729217"><ele>416.0</ele><time>2026-05-05T11:05:05.567Z</time></trkpt><trkpt lat="38.0939717" lon="13.1727867"><ele>415.0</ele><time>2026-05-05T11:05:06.566Z</time></trkpt><trkpt lat="38.094045" lon="13.1726617"><ele>414.0</ele><time>2026-05-05T11:05:07.566Z</time></trkpt><trkpt lat="38.0941233" lon="13.1725433"><ele>413.0</ele><time>2026-05-05T11:05:08.568Z</time></trkpt><trkpt lat="38.0942017" lon="13.17243"><ele>416.0</ele><time>2026-05-05T11:05:09.567Z</time></trkpt><trkpt lat="38.0942833" lon="13.1723183"><ele>419.0</ele><time>2026-05-05T11:05:10.567Z</time></trkpt><trkpt lat="38.0943683" lon="13.1722117"><ele>422.0</ele><time>2026-05-05T11:05:11.566Z</time></trkpt><trkpt lat="38.09446" lon="13.17212"><ele>425.0</ele><time>2026-05-05T11:05:12.567Z</time></trkpt><trkpt lat="38.09456" lon="13.1720417"><ele>425.0</ele><time>2026-05-05T11:05:13.567Z</time></trkpt><trkpt lat="38.094665" lon="13.1719733"><ele>425.0</ele><time>2026-05-05T11:05:14.566Z</time></trkpt><trkpt lat="38.094775" lon="13.1719117"><ele>425.0</ele><time>2026-05-05T11:05:15.564Z</time></trkpt><trkpt lat="38.0948833" lon="13.1718533"><ele>425.0</ele><time>2026-05-05T11:05:16.564Z</time></trkpt><trkpt lat="38.0949833" lon="13.17179"><ele>428.4</ele><time>2026-05-05T11:05:17.565Z</time></trkpt><trkpt lat="38.0950683" lon="13.171715"><ele>431.8</ele><time>2026-05-05T11:05:18.565Z</time></trkpt><trkpt lat="38.095145" lon="13.1716217"><ele>435.20000000000005</ele><time>2026-05-05T11:05:19.565Z</time></trkpt><trkpt lat="38.0952167" lon="13.1715133"><ele>438.6</ele><time>2026-05-05T11:05:20.564Z</time></trkpt><trkpt lat="38.0952817" lon="13.1713933"><ele>442.0</ele><time>2026-05-05T11:05:21.565Z</time></trkpt><trkpt lat="38.0953317" lon="13.1712617"><ele>442.0</ele><time>2026-05-05T11:05:22.564Z</time></trkpt><trkpt lat="38.0953617" lon="13.17112"><ele>442.0</ele><time>2026-05-05T11:05:23.564Z</time></trkpt><trkpt lat="38.0953667" lon="13.1709683"><ele>442.0</ele><time>2026-05-05T11:05:24.566Z</time></trkpt><trkpt lat="38.095355" lon="13.1708117"><ele>442.0</ele><time>2026-05-05T11:05:25.565Z</time></trkpt><trkpt lat="38.0953333" lon="13.1706517"><ele>441.0</ele><time>2026-05-05T11:05:26.565Z</time></trkpt><trkpt lat="38.095305" lon="13.1704833"><ele>440.0</ele><time>2026-05-05T11:05:27.566Z</time></trkpt><trkpt lat="38.0952683" lon="13.1703117"><ele>439.0</ele><time>2026-05-05T11:05:28.565Z</time></trkpt><trkpt lat="38.0952217" lon="13.1701417"><ele>438.0</ele><time>2026-05-05T11:05:29.566Z</time></trkpt><trkpt lat="38.0951667" lon="13.16997"><ele>441.0</ele><time>2026-05-05T11:05:30.565Z</time></trkpt><trkpt lat="38.09511" lon="13.1697967"><ele>444.0</ele><time>2026-05-05T11:05:31.565Z</time></trkpt><trkpt lat="38.0950683" lon="13.16962"><ele>447.0</ele><time>2026-05-05T11:05:32.565Z</time></trkpt><trkpt lat="38.095045" lon="13.1694383"><ele>450.0</ele><time>2026-05-05T11:05:33.565Z</time></trkpt><trkpt lat="38.09504" lon="13.1692517"><ele>450.0</ele><time>2026-05-05T11:05:34.565Z</time></trkpt><trkpt lat="38.0950433" lon="13.1690583"><ele>450.0</ele><time>2026-05-05T11:05:35.564Z</time></trkpt><trkpt lat="38.095055" lon="13.1688583"><ele>450.0</ele><time>2026-05-05T11:05:36.566Z</time></trkpt><trkpt lat="38.0950733" lon="13.1686583"><ele>448.25</ele><time>2026-05-05T11:05:37.565Z</time></trkpt><trkpt lat="38.095095" lon="13.16847"><ele>446.5</ele><time>2026-05-05T11:05:38.565Z</time></trkpt><trkpt lat="38.09512" lon="13.1683017"><ele>444.75</ele><time>2026-05-05T11:05:39.565Z</time></trkpt><trkpt lat="38.09516" lon="13.168155"><ele>443.0</ele><time>2026-05-05T11:05:40.564Z</time></trkpt><trkpt lat="38.0952183" lon="13.1680167"><ele>438.0</ele><time>2026-05-05T11:05:41.563Z</time></trkpt><trkpt lat="38.09529" lon="13.1678783"><ele>433.0</ele><time>2026-05-05T11:05:42.565Z</time></trkpt><trkpt lat="38.0953667" lon="13.1677383"><ele>428.0</ele><time>2026-05-05T11:05:43.564Z</time></trkpt><trkpt lat="38.0954483" lon="13.1676033"><ele>423.0</ele><time>2026-05-05T11:05:44.566Z</time></trkpt><trkpt lat="38.0955417" lon="13.1674817"><ele>423.0</ele><time>2026-05-05T11:05:45.564Z</time></trkpt><trkpt lat="38.095645" lon="13.16738"><ele>423.0</ele><time>2026-05-05T11:05:46.565Z</time></trkpt><trkpt lat="38.0957567" lon="13.167305"><ele>423.0</ele><time>2026-05-05T11:05:47.565Z</time></trkpt><trkpt lat="38.0958783" lon="13.167255"><ele>423.0</ele><time>2026-05-05T11:05:48.565Z</time></trkpt><trkpt lat="38.095995" lon="13.16722"><ele>424.0</ele><time>2026-05-05T11:05:49.565Z</time></trkpt><trkpt lat="38.0961033" lon="13.1671967"><ele>425.0</ele><time>2026-05-05T11:05:50.565Z</time></trkpt><trkpt lat="38.0962033" lon="13.1671817"><ele>425.99999999999994</ele><time>2026-05-05T11:05:51.565Z</time></trkpt><trkpt lat="38.0963067" lon="13.1671833"><ele>427.0</ele><time>2026-05-05T11:05:52.565Z</time></trkpt><trkpt lat="38.09642" lon="13.1672"><ele>428.0</ele><time>2026-05-05T11:05:53.565Z</time></trkpt><trkpt lat="38.0965417" lon="13.1672067"><ele>432.0</ele><time>2026-05-05T11:05:54.564Z</time></trkpt><trkpt lat="38.096665" lon="13.1672067"><ele>436.0</ele><time>2026-05-05T11:05:55.565Z</time></trkpt><trkpt lat="38.0967933" lon="13.167205"><ele>440.0</ele><time>2026-05-05T11:05:56.566Z</time></trkpt><trkpt lat="38.0969233" lon="13.1672"><ele>444.0</ele><time>2026-05-05T11:05:57.565Z</time></trkpt><trkpt lat="38.097055" lon="13.1671967"><ele>444.0</ele><time>2026-05-05T11:05:58.565Z</time></trkpt><trkpt lat="38.0971883" lon="13.1672"><ele>444.0</ele><time>2026-05-05T11:05:59.565Z</time></trkpt><trkpt lat="38.0973217" lon="13.1672183"><ele>444.0</ele><time>2026-05-05T11:06:00.564Z</time></trkpt><trkpt lat="38.097455" lon="13.16725"><ele>444.0</ele><time>2026-05-05T11:06:01.564Z</time></trkpt><trkpt lat="38.0975883" lon="13.167285"><ele>445.25</ele><time>2026-05-05T11:06:02.565Z</time></trkpt><trkpt lat="38.0977167" lon="13.1673267"><ele>446.5</ele><time>2026-05-05T11:06:03.565Z</time></trkpt><trkpt lat="38.09784" lon="13.167385"><ele>447.75</ele><time>2026-05-05T11:06:04.567Z</time></trkpt><trkpt lat="38.0979533" lon="13.167455"><ele>449.0</ele><time>2026-05-05T11:06:05.568Z</time></trkpt><trkpt lat="38.0980583" lon="13.16753"><ele>454.5</ele><time>2026-05-05T11:06:06.567Z</time></trkpt><trkpt lat="38.0981567" lon="13.167615"><ele>460.0</ele><time>2026-05-05T11:06:07.567Z</time></trkpt><trkpt lat="38.0982517" lon="13.16771"><ele>465.5</ele><time>2026-05-05T11:06:08.567Z</time></trkpt><trkpt lat="38.0983467" lon="13.1678117"><ele>471.0</ele><time>2026-05-05T11:06:09.566Z</time></trkpt><trkpt lat="38.0984467" lon="13.1679167"><ele>471.0</ele><time>2026-05-05T11:06:10.565Z</time></trkpt><trkpt lat="38.0985483" lon="13.1680233"><ele>471.0</ele><time>2026-05-05T11:06:11.566Z</time></trkpt><trkpt lat="38.0986517" lon="13.1681367"><ele>471.0</ele><time>2026-05-05T11:06:12.566Z</time></trkpt><trkpt lat="38.0987583" lon="13.1682517"><ele>471.0</ele><time>2026-05-05T11:06:13.566Z</time></trkpt><trkpt lat="38.09887" lon="13.1683633"><ele>478.0</ele><time>2026-05-05T11:06:14.566Z</time></trkpt><trkpt lat="38.09899" lon="13.1684733"><ele>485.0</ele><time>2026-05-05T11:06:15.566Z</time></trkpt><trkpt lat="38.099115" lon="13.16858"><ele>492.0</ele><time>2026-05-05T11:06:16.566Z</time></trkpt><trkpt lat="38.099245" lon="13.1686883"><ele>492.0</ele><time>2026-05-05T11:06:17.566Z</time></trkpt><trkpt lat="38.0993733" lon="13.1687983"><ele>492.0</ele><time>2026-05-05T11:06:18.566Z</time></trkpt><trkpt lat="38.0995" lon="13.1689167"><ele>492.0</ele><time>2026-05-05T11:06:19.565Z</time></trkpt><trkpt lat="38.0996217" lon="13.16904"><ele>494.0</ele><time>2026-05-05T11:06:20.565Z</time></trkpt><trkpt lat="38.099735" lon="13.169175"><ele>496.0</ele><time>2026-05-05T11:06:21.564Z</time></trkpt><trkpt lat="38.0998433" lon="13.1693117"><ele>498.0</ele><time>2026-05-05T11:06:22.563Z</time></trkpt><trkpt lat="38.0999533" lon="13.1694483"><ele>498.0</ele><time>2026-05-05T11:06:23.564Z</time></trkpt><trkpt lat="38.1000617" lon="13.169585"><ele>498.0</ele><time>2026-05-05T11:06:24.564Z</time></trkpt><trkpt lat="38.10017" lon="13.1697217"><ele>498.0</ele><time>2026-05-05T11:06:25.563Z</time></trkpt><trkpt lat="38.1002783" lon="13.1698567"><ele>499.25</ele><time>2026-05-05T11:06:26.564Z</time></trkpt><trkpt lat="38.1003833" lon="13.1699833"><ele>500.5</ele><time>2026-05-05T11:06:27.564Z</time></trkpt><trkpt lat="38.1004833" lon="13.17009"><ele>501.75</ele><time>2026-05-05T11:06:28.563Z</time></trkpt><trkpt lat="38.100585" lon="13.1701817"><ele>503.0</ele><time>2026-05-05T11:06:29.564Z</time></trkpt><trkpt lat="38.10069" lon="13.1702617"><ele>503.0</ele><time>2026-05-05T11:06:30.565Z</time></trkpt><trkpt lat="38.100805" lon="13.170335"><ele>503.0</ele><time>2026-05-05T11:06:31.564Z</time></trkpt><trkpt lat="38.1009233" lon="13.1704083"><ele>503.0</ele><time>2026-05-05T11:06:32.565Z</time></trkpt><trkpt lat="38.1010433" lon="13.17048"><ele>503.0</ele><time>2026-05-05T11:06:33.564Z</time></trkpt><trkpt lat="38.1011567" lon="13.17057"><ele>503.0</ele><time>2026-05-05T11:06:34.564Z</time></trkpt><trkpt lat="38.10127" lon="13.1706817"><ele>503.0</ele><time>2026-05-05T11:06:35.564Z</time></trkpt><trkpt lat="38.10138" lon="13.170805"><ele>503.0</ele><time>2026-05-05T11:06:36.563Z</time></trkpt><trkpt lat="38.101495" lon="13.170925"><ele>503.0</ele><time>2026-05-05T11:06:37.564Z</time></trkpt><trkpt lat="38.101605" lon="13.171035"><ele>503.79999999999995</ele><time>2026-05-05T11:06:38.564Z</time></trkpt><trkpt lat="38.1017117" lon="13.1711183"><ele>504.59999999999997</ele><time>2026-05-05T11:06:39.564Z</time></trkpt><trkpt lat="38.101815" lon="13.171175"><ele>505.40000000000003</ele><time>2026-05-05T11:06:40.564Z</time></trkpt><trkpt lat="38.1019117" lon="13.171215"><ele>506.20000000000005</ele><time>2026-05-05T11:06:41.563Z</time></trkpt><trkpt lat="38.102" lon="13.1712383"><ele>507.0</ele><time>2026-05-05T11:06:42.563Z</time></trkpt><trkpt lat="38.1020767" lon="13.1712533"><ele>507.0</ele><time>2026-05-05T11:06:43.563Z</time></trkpt><trkpt lat="38.10214" lon="13.171265"><ele>507.0</ele><time>2026-05-05T11:06:44.565Z</time></trkpt><trkpt lat="38.1022383" lon="13.1712733"><ele>507.0</ele><time>2026-05-05T11:06:46.564Z</time></trkpt><trkpt lat="38.10231" lon="13.1712367"><ele>507.0</ele><time>2026-05-05T11:06:49.564Z</time></trkpt><trkpt lat="38.1023217" lon="13.17114"><ele>507.0</ele><time>2026-05-05T11:06:53.564Z</time></trkpt><trkpt lat="38.1023117" lon="13.1710233"><ele>507.0</ele><time>2026-05-05T11:06:56.565Z</time></trkpt><trkpt lat="38.1022983" lon="13.1709283"><ele>507.0</ele><time>2026-05-05T11:06:58.564Z</time></trkpt><trkpt lat="38.1022817" lon="13.170815"><ele>507.00000000000006</ele><time>2026-05-05T11:07:00.565Z</time></trkpt><trkpt lat="38.1022667" lon="13.170705"><ele>507.00000000000006</ele><time>2026-05-05T11:07:02.566Z</time></trkpt><trkpt lat="38.10221" lon="13.1706267"><ele>507.0</ele><time>2026-05-05T11:07:04.565Z</time></trkpt><trkpt lat="38.1021433" lon="13.1705483"><ele>507.0</ele><time>2026-05-05T11:07:06.566Z</time></trkpt><trkpt lat="38.1020583" lon="13.17047"><ele>507.6</ele><time>2026-05-05T11:07:08.567Z</time></trkpt><trkpt lat="38.1019667" lon="13.17037"><ele>508.20000000000005</ele><time>2026-05-05T11:07:10.566Z</time></trkpt><trkpt lat="38.1018767" lon="13.170285"><ele>508.8</ele><time>2026-05-05T11:07:12.566Z</time></trkpt><trkpt lat="38.1017967" lon="13.1702"><ele>509.4</ele><time>2026-05-05T11:07:14.564Z</time></trkpt><trkpt lat="38.101735" lon="13.1700817"><ele>510.0</ele><time>2026-05-05T11:07:16.563Z</time></trkpt><trkpt lat="38.10169" lon="13.16993"><ele>511.3333333333333</ele><time>2026-05-05T11:07:18.565Z</time></trkpt><trkpt lat="38.1016433" lon="13.1697883"><ele>512.6666666666666</ele><time>2026-05-05T11:07:20.563Z</time></trkpt><trkpt lat="38.101615" lon="13.1697117"><ele>514.0</ele><time>2026-05-05T11:07:21.564Z</time></trkpt><trkpt lat="38.1015817" lon="13.1696367"><ele>515.3333333333333</ele><time>2026-05-05T11:07:22.562Z</time></trkpt><trkpt lat="38.1015517" lon="13.16956"><ele>516.6666666666666</ele><time>2026-05-05T11:07:23.565Z</time></trkpt><trkpt lat="38.1015217" lon="13.1694783"><ele>518.0</ele><time>2026-05-05T11:07:24.564Z</time></trkpt><trkpt lat="38.1014917" lon="13.169395"><ele>518.0</ele><time>2026-05-05T11:07:25.565Z</time></trkpt><trkpt lat="38.1014633" lon="13.1693067"><ele>518.0</ele><time>2026-05-05T11:07:26.564Z</time></trkpt><trkpt lat="38.1014317" lon="13.1692183"><ele>518.0</ele><time>2026-05-05T11:07:27.564Z</time></trkpt><trkpt lat="38.1013917" lon="13.1691333"><ele>518.0</ele><time>2026-05-05T11:07:28.564Z</time></trkpt><trkpt lat="38.1013467" lon="13.1690517"><ele>518.0</ele><time>2026-05-05T11:07:29.563Z</time></trkpt><trkpt lat="38.1012817" lon="13.1689967"><ele>518.0</ele><time>2026-05-05T11:07:30.564Z</time></trkpt><trkpt lat="38.10121" lon="13.1689583"><ele>520.8333333333333</ele><time>2026-05-05T11:07:31.564Z</time></trkpt><trkpt lat="38.101145" lon="13.1689117"><ele>523.6666666666666</ele><time>2026-05-05T11:07:32.565Z</time></trkpt><trkpt lat="38.1010817" lon="13.1688617"><ele>526.5</ele><time>2026-05-05T11:07:33.564Z</time></trkpt><trkpt lat="38.10103" lon="13.1687967"><ele>529.3333333333334</ele><time>2026-05-05T11:07:34.564Z</time></trkpt><trkpt lat="38.1009567" lon="13.1686867"><ele>532.1666666666667</ele><time>2026-05-05T11:07:36.563Z</time></trkpt><trkpt lat="38.10089" lon="13.16858"><ele>535.0</ele><time>2026-05-05T11:07:38.564Z</time></trkpt><trkpt lat="38.1008" lon="13.1685"><ele>534.5</ele><time>2026-05-05T11:07:40.564Z</time></trkpt><trkpt lat="38.1006967" lon="13.1684367"><ele>534.0</ele><time>2026-05-05T11:07:42.564Z</time></trkpt><trkpt lat="38.1006017" lon="13.1683483"><ele>533.5</ele><time>2026-05-05T11:07:44.563Z</time></trkpt><trkpt lat="38.1005183" lon="13.1682367"><ele>533.0</ele><time>2026-05-05T11:07:46.564Z</time></trkpt><trkpt lat="38.1004333" lon="13.16813"><ele>533.0</ele><time>2026-05-05T11:07:48.564Z</time></trkpt><trkpt lat="38.1003467" lon="13.1680283"><ele>533.0</ele><time>2026-05-05T11:07:50.565Z</time></trkpt><trkpt lat="38.1002983" lon="13.1679717"><ele>533.0</ele><time>2026-05-05T11:07:51.563Z</time></trkpt><trkpt lat="38.1002417" lon="13.167895"><ele>533.0</ele><time>2026-05-05T11:07:52.563Z</time></trkpt><trkpt lat="38.1001783" lon="13.1678017"><ele>533.0</ele><time>2026-05-05T11:07:53.564Z</time></trkpt><trkpt lat="38.1001217" lon="13.16772"><ele>533.0</ele><time>2026-05-05T11:07:54.565Z</time></trkpt><trkpt lat="38.100075" lon="13.16763"><ele>533.0</ele><time>2026-05-05T11:07:55.564Z</time></trkpt><trkpt lat="38.1000433" lon="13.1675267"><ele>533.0</ele><time>2026-05-05T11:07:56.565Z</time></trkpt><trkpt lat="38.1000217" lon="13.1674183"><ele>533.0</ele><time>2026-05-05T11:07:57.564Z</time></trkpt><trkpt lat="38.1000083" lon="13.1673083"><ele>533.0</ele><time>2026-05-05T11:07:58.564Z</time></trkpt><trkpt lat="38.1" lon="13.1672083"><ele>533.0</ele><time>2026-05-05T11:07:59.564Z</time></trkpt><trkpt lat="38.1000033" lon="13.1671117"><ele>533.0</ele><time>2026-05-05T11:08:00.563Z</time></trkpt><trkpt lat="38.10004" lon="13.1670317"><ele>532.1666666666666</ele><time>2026-05-05T11:08:01.564Z</time></trkpt><trkpt lat="38.1000933" lon="13.1669633"><ele>531.3333333333333</ele><time>2026-05-05T11:08:02.565Z</time></trkpt><trkpt lat="38.1001667" lon="13.1669133"><ele>530.5</ele><time>2026-05-05T11:08:03.564Z</time></trkpt><trkpt lat="38.1002467" lon="13.1668717"><ele>529.6666666666666</ele><time>2026-05-05T11:08:04.564Z</time></trkpt><trkpt lat="38.1003267" lon="13.16685"><ele>528.8333333333334</ele><time>2026-05-05T11:08:05.563Z</time></trkpt><trkpt lat="38.100395" lon="13.1668317"><ele>528.0</ele><time>2026-05-05T11:08:06.563Z</time></trkpt><trkpt lat="38.100505" lon="13.166805"><ele>528.0</ele><time>2026-05-05T11:08:08.565Z</time></trkpt><trkpt lat="38.1006033" lon="13.1667933"><ele>528.0</ele><time>2026-05-05T11:08:10.564Z</time></trkpt><trkpt lat="38.1006883" lon="13.1667833"><ele>528.0</ele><time>2026-05-05T11:08:12.564Z</time></trkpt><trkpt lat="38.100775" lon="13.16678"><ele>528.0</ele><time>2026-05-05T11:08:14.563Z</time></trkpt><trkpt lat="38.1008667" lon="13.1667683"><ele>528.0</ele><time>2026-05-05T11:08:16.564Z</time></trkpt><trkpt lat="38.10098" lon="13.166755"><ele>530.6666666666666</ele><time>2026-05-05T11:08:18.564Z</time></trkpt><trkpt lat="38.1010483" lon="13.166745"><ele>533.3333333333334</ele><time>2026-05-05T11:08:19.564Z</time></trkpt><trkpt lat="38.1011183" lon="13.166735"><ele>536.0</ele><time>2026-05-05T11:08:20.564Z</time></trkpt><trkpt lat="38.1011867" lon="13.166725"><ele>538.6666666666667</ele><time>2026-05-05T11:08:21.564Z</time></trkpt><trkpt lat="38.101265" lon="13.1667183"><ele>541.3333333333334</ele><time>2026-05-05T11:08:22.564Z</time></trkpt><trkpt lat="38.1013433" lon="13.166715"><ele>544.0</ele><time>2026-05-05T11:08:23.564Z</time></trkpt><trkpt lat="38.1014283" lon="13.1667083"><ele>544.0</ele><time>2026-05-05T11:08:24.563Z</time></trkpt><trkpt lat="38.101515" lon="13.166695"><ele>544.0</ele><time>2026-05-05T11:08:25.564Z</time></trkpt><trkpt lat="38.1015967" lon="13.16666"><ele>544.0</ele><time>2026-05-05T11:08:26.565Z</time></trkpt><trkpt lat="38.1016783" lon="13.1666317"><ele>544.0</ele><time>2026-05-05T11:08:27.564Z</time></trkpt><trkpt lat="38.101745" lon="13.16656"><ele>544.0</ele><time>2026-05-05T11:08:28.564Z</time></trkpt><trkpt lat="38.1018033" lon="13.1664517"><ele>544.0</ele><time>2026-05-05T11:08:29.565Z</time></trkpt><trkpt lat="38.1018733" lon="13.1663533"><ele>544.6</ele><time>2026-05-05T11:08:30.564Z</time></trkpt><trkpt lat="38.1019517" lon="13.166265"><ele>545.2</ele><time>2026-05-05T11:08:31.564Z</time></trkpt><trkpt lat="38.1020333" lon="13.16618"><ele>545.8000000000001</ele><time>2026-05-05T11:08:32.564Z</time></trkpt><trkpt lat="38.10211" lon="13.166115"><ele>546.4</ele><time>2026-05-05T11:08:33.563Z</time></trkpt><trkpt lat="38.102175" lon="13.166055"><ele>547.0</ele><time>2026-05-05T11:08:34.565Z</time></trkpt><trkpt lat="38.102235" lon="13.1659883"><ele>547.0</ele><time>2026-05-05T11:08:35.563Z</time></trkpt><trkpt lat="38.10229" lon="13.1659267"><ele>547.0</ele><time>2026-05-05T11:08:36.564Z</time></trkpt><trkpt lat="38.1023317" lon="13.1658617"><ele>547.0</ele><time>2026-05-05T11:08:37.564Z</time></trkpt><trkpt lat="38.102365" lon="13.1657817"><ele>547.0</ele><time>2026-05-05T11:08:38.565Z</time></trkpt><trkpt lat="38.1023833" lon="13.1656917"><ele>547.0</ele><time>2026-05-05T11:08:39.564Z</time></trkpt><trkpt lat="38.1024083" lon="13.1655933"><ele>547.0</ele><time>2026-05-05T11:08:40.565Z</time></trkpt><trkpt lat="38.1024367" lon="13.165495"><ele>547.0</ele><time>2026-05-05T11:08:41.566Z</time></trkpt><trkpt lat="38.1024667" lon="13.1653933"><ele>550.6666666666667</ele><time>2026-05-05T11:08:42.564Z</time></trkpt><trkpt lat="38.1024967" lon="13.1652933"><ele>554.3333333333334</ele><time>2026-05-05T11:08:43.564Z</time></trkpt><trkpt lat="38.1025167" lon="13.16519"><ele>558.0</ele><time>2026-05-05T11:08:44.564Z</time></trkpt><trkpt lat="38.1025317" lon="13.165085"><ele>561.6666666666666</ele><time>2026-05-05T11:08:45.565Z</time></trkpt><trkpt lat="38.1025433" lon="13.1649833"><ele>565.3333333333333</ele><time>2026-05-05T11:08:46.564Z</time></trkpt><trkpt lat="38.1025567" lon="13.164885"><ele>569.0</ele><time>2026-05-05T11:08:47.566Z</time></trkpt><trkpt lat="38.102585" lon="13.16479"><ele>570.6666666666666</ele><time>2026-05-05T11:08:48.566Z</time></trkpt><trkpt lat="38.1026167" lon="13.1647"><ele>572.3333333333333</ele><time>2026-05-05T11:08:49.566Z</time></trkpt><trkpt lat="38.1026483" lon="13.1646117"><ele>574.0</ele><time>2026-05-05T11:08:50.564Z</time></trkpt><trkpt lat="38.102675" lon="13.16452"><ele>575.6666666666666</ele><time>2026-05-05T11:08:51.565Z</time></trkpt><trkpt lat="38.1026933" lon="13.16442"><ele>577.3333333333334</ele><time>2026-05-05T11:08:52.564Z</time></trkpt><trkpt lat="38.102695" lon="13.16431"><ele>579.0</ele><time>2026-05-05T11:08:53.565Z</time></trkpt><trkpt lat="38.1026883" lon="13.164205"><ele>579.0</ele><time>2026-05-05T11:08:54.564Z</time></trkpt><trkpt lat="38.1026767" lon="13.164105"><ele>579.0</ele><time>2026-05-05T11:08:55.565Z</time></trkpt><trkpt lat="38.1026667" lon="13.16401"><ele>579.0</ele><time>2026-05-05T11:08:56.565Z</time></trkpt><trkpt lat="38.1026567" lon="13.16391"><ele>579.0</ele><time>2026-05-05T11:08:57.565Z</time></trkpt><trkpt lat="38.102655" lon="13.1638083"><ele>579.0</ele><time>2026-05-05T11:08:58.565Z</time></trkpt><trkpt lat="38.1026583" lon="13.16371"><ele>579.0</ele><time>2026-05-05T11:08:59.565Z</time></trkpt><trkpt lat="38.10266" lon="13.1636033"><ele>579.8333333333334</ele><time>2026-05-05T11:09:00.565Z</time></trkpt><trkpt lat="38.1026567" lon="13.163495"><ele>580.6666666666666</ele><time>2026-05-05T11:09:01.565Z</time></trkpt><trkpt lat="38.10266" lon="13.163385"><ele>581.5</ele><time>2026-05-05T11:09:02.565Z</time></trkpt><trkpt lat="38.1026617" lon="13.1632717"><ele>582.3333333333333</ele><time>2026-05-05T11:09:03.564Z</time></trkpt><trkpt lat="38.1026567" lon="13.163165"><ele>583.1666666666666</ele><time>2026-05-05T11:09:04.565Z</time></trkpt><trkpt lat="38.1026517" lon="13.163065"><ele>584.0</ele><time>2026-05-05T11:09:05.565Z</time></trkpt><trkpt lat="38.1026417" lon="13.1629783"><ele>582.5714285714286</ele><time>2026-05-05T11:09:06.565Z</time></trkpt><trkpt lat="38.102625" lon="13.1628967"><ele>581.1428571428571</ele><time>2026-05-05T11:09:07.565Z</time></trkpt><trkpt lat="38.1026033" lon="13.1628117"><ele>579.7142857142858</ele><time>2026-05-05T11:09:08.566Z</time></trkpt><trkpt lat="38.102575" lon="13.1627283"><ele>578.2857142857142</ele><time>2026-05-05T11:09:09.564Z</time></trkpt><trkpt lat="38.102545" lon="13.1626467"><ele>576.8571428571429</ele><time>2026-05-05T11:09:10.566Z</time></trkpt><trkpt lat="38.1025033" lon="13.16258"><ele>575.4285714285714</ele><time>2026-05-05T11:09:11.565Z</time></trkpt><trkpt lat="38.1024683" lon="13.1625133"><ele>574.0</ele><time>2026-05-05T11:09:12.566Z</time></trkpt><trkpt lat="38.1024433" lon="13.1623983"><ele>574.0</ele><time>2026-05-05T11:09:14.566Z</time></trkpt><trkpt lat="38.1025117" lon="13.1623633"><ele>574.0</ele><time>2026-05-05T11:09:17.568Z</time></trkpt><trkpt lat="38.1026083" lon="13.1623983"><ele>574.0</ele><time>2026-05-05T11:09:19.566Z</time></trkpt><trkpt lat="38.1027117" lon="13.16242"><ele>574.0</ele><time>2026-05-05T11:09:21.566Z</time></trkpt><trkpt lat="38.1028333" lon="13.162425"><ele>574.0</ele><time>2026-05-05T11:09:23.564Z</time></trkpt><trkpt lat="38.1028967" lon="13.16242"><ele>574.0</ele><time>2026-05-05T11:09:24.566Z</time></trkpt><trkpt lat="38.103005" lon="13.162415"><ele>574.0</ele><time>2026-05-05T11:09:26.566Z</time></trkpt><trkpt lat="38.1031067" lon="13.1624217"><ele>574.0</ele><time>2026-05-05T11:09:28.567Z</time></trkpt><trkpt lat="38.1032033" lon="13.16243"><ele>574.0</ele><time>2026-05-05T11:09:30.565Z</time></trkpt><trkpt lat="38.1033083" lon="13.1624617"><ele>574.0</ele><time>2026-05-05T11:09:32.566Z</time></trkpt><trkpt lat="38.1033717" lon="13.1624767"><ele>573.1666666666667</ele><time>2026-05-05T11:09:33.565Z</time></trkpt><trkpt lat="38.103495" lon="13.1625033"><ele>572.3333333333334</ele><time>2026-05-05T11:09:35.565Z</time></trkpt><trkpt lat="38.1035583" lon="13.1625117"><ele>571.5</ele><time>2026-05-05T11:09:36.565Z</time></trkpt><trkpt lat="38.103625" lon="13.16253"><ele>570.6666666666666</ele><time>2026-05-05T11:09:37.566Z</time></trkpt><trkpt lat="38.10369" lon="13.1625417"><ele>569.8333333333333</ele><time>2026-05-05T11:09:38.566Z</time></trkpt><trkpt lat="38.1037533" lon="13.16256"><ele>569.0</ele><time>2026-05-05T11:09:39.565Z</time></trkpt><trkpt lat="38.1038233" lon="13.1625733"><ele>569.0</ele><time>2026-05-05T11:09:40.565Z</time></trkpt><trkpt lat="38.103905" lon="13.1625833"><ele>569.0</ele><time>2026-05-05T11:09:41.565Z</time></trkpt><trkpt lat="38.1039717" lon="13.162595"><ele>569.0</ele><time>2026-05-05T11:09:42.565Z</time></trkpt><trkpt lat="38.104046" lon="13.1626106"><ele>569.0</ele><time>2026-05-05T11:09:43.565Z</time></trkpt><trkpt lat="38.1041224" lon="13.1626315"><ele>569.0</ele><time>2026-05-05T11:09:44.565Z</time></trkpt><trkpt lat="38.1042005" lon="13.1626506"><ele>569.0</ele><time>2026-05-05T11:09:45.564Z</time></trkpt><trkpt lat="38.1042714" lon="13.1626705"><ele>567.5714285714287</ele><time>2026-05-05T11:09:46.564Z</time></trkpt><trkpt lat="38.1043361" lon="13.1626824"><ele>566.1428571428571</ele><time>2026-05-05T11:09:47.564Z</time></trkpt><trkpt lat="38.1044008" lon="13.1626821"><ele>564.7142857142858</ele><time>2026-05-05T11:09:48.565Z</time></trkpt><trkpt lat="38.1044736" lon="13.1626671"><ele>563.2857142857143</ele><time>2026-05-05T11:09:49.565Z</time></trkpt><trkpt lat="38.1045577" lon="13.162643"><ele>561.8571428571429</ele><time>2026-05-05T11:09:50.566Z</time></trkpt><trkpt lat="38.1046388" lon="13.1626119"><ele>560.4285714285714</ele><time>2026-05-05T11:09:51.565Z</time></trkpt><trkpt lat="38.104707" lon="13.1625744"><ele>559.0</ele><time>2026-05-05T11:09:52.565Z</time></trkpt><trkpt lat="38.1047663" lon="13.1625384"><ele>559.0</ele><time>2026-05-05T11:09:53.565Z</time></trkpt><trkpt lat="38.1048755" lon="13.162475"><ele>559.0</ele><time>2026-05-05T11:09:55.565Z</time></trkpt><trkpt lat="38.1049939" lon="13.1624114"><ele>559.0</ele><time>2026-05-05T11:09:57.565Z</time></trkpt><trkpt lat="38.1050629" lon="13.1623659"><ele>559.0</ele><time>2026-05-05T11:09:58.565Z</time></trkpt><trkpt lat="38.1051337" lon="13.1623062"><ele>559.0</ele><time>2026-05-05T11:09:59.566Z</time></trkpt><trkpt lat="38.1052054" lon="13.16224"><ele>556.5</ele><time>2026-05-05T11:10:00.565Z</time></trkpt><trkpt lat="38.1052767" lon="13.1621794"><ele>554.0</ele><time>2026-05-05T11:10:01.565Z</time></trkpt><trkpt lat="38.1053463" lon="13.1621242"><ele>551.5</ele><time>2026-05-05T11:10:02.566Z</time></trkpt><trkpt lat="38.1054224" lon="13.1620679"><ele>549.0</ele><time>2026-05-05T11:10:03.565Z</time></trkpt><trkpt lat="38.1054951" lon="13.1620102"><ele>546.5</ele><time>2026-05-05T11:10:04.565Z</time></trkpt><trkpt lat="38.105565" lon="13.1619507"><ele>544.0</ele><time>2026-05-05T11:10:05.564Z</time></trkpt><trkpt lat="38.1056334" lon="13.1618879"><ele>544.0</ele><time>2026-05-05T11:10:06.566Z</time></trkpt><trkpt lat="38.1056962" lon="13.1618152"><ele>544.0</ele><time>2026-05-05T11:10:07.566Z</time></trkpt><trkpt lat="38.1057559" lon="13.1617381"><ele>544.0</ele><time>2026-05-05T11:10:08.564Z</time></trkpt><trkpt lat="38.1058165" lon="13.1616617"><ele>544.0</ele><time>2026-05-05T11:10:09.565Z</time></trkpt><trkpt lat="38.1058828" lon="13.1615868"><ele>544.0</ele><time>2026-05-05T11:10:10.564Z</time></trkpt><trkpt lat="38.1059543" lon="13.1615186"><ele>544.0</ele><time>2026-05-05T11:10:11.564Z</time></trkpt><trkpt lat="38.1060237" lon="13.1614583"><ele>543.6666666666667</ele><time>2026-05-05T11:10:12.564Z</time></trkpt><trkpt lat="38.1060955" lon="13.1614075"><ele>543.3333333333334</ele><time>2026-05-05T11:10:13.563Z</time></trkpt><trkpt lat="38.1061666" lon="13.1613612"><ele>543.0</ele><time>2026-05-05T11:10:14.564Z</time></trkpt><trkpt lat="38.106235" lon="13.1613134"><ele>542.6666666666666</ele><time>2026-05-05T11:10:15.564Z</time></trkpt><trkpt lat="38.1062925" lon="13.1612606"><ele>542.3333333333333</ele><time>2026-05-05T11:10:16.564Z</time></trkpt><trkpt lat="38.1063506" lon="13.1612079"><ele>542.0</ele><time>2026-05-05T11:10:17.564Z</time></trkpt><trkpt lat="38.1064077" lon="13.1611572"><ele>542.0</ele><time>2026-05-05T11:10:18.564Z</time></trkpt><trkpt lat="38.1064617" lon="13.1611019"><ele>542.0</ele><time>2026-05-05T11:10:19.564Z</time></trkpt><trkpt lat="38.1065122" lon="13.1610422"><ele>542.0</ele><time>2026-05-05T11:10:20.564Z</time></trkpt><trkpt lat="38.1065592" lon="13.1609827"><ele>542.0</ele><time>2026-05-05T11:10:21.564Z</time></trkpt><trkpt lat="38.1066088" lon="13.1609203"><ele>542.0</ele><time>2026-05-05T11:10:22.564Z</time></trkpt><trkpt lat="38.10666" lon="13.1608534"><ele>542.0</ele><time>2026-05-05T11:10:23.563Z</time></trkpt><trkpt lat="38.1067078" lon="13.1607835"><ele>542.0</ele><time>2026-05-05T11:10:24.564Z</time></trkpt><trkpt lat="38.1067504" lon="13.1607204"><ele>541.8000000000001</ele><time>2026-05-05T11:10:25.564Z</time></trkpt><trkpt lat="38.106823" lon="13.1606022"><ele>541.6</ele><time>2026-05-05T11:10:27.563Z</time></trkpt><trkpt lat="38.1068789" lon="13.1604918"><ele>541.4000000000001</ele><time>2026-05-05T11:10:29.564Z</time></trkpt><trkpt lat="38.1069233" lon="13.1603983"><ele>541.2</ele><time>2026-05-05T11:10:31.564Z</time></trkpt><trkpt lat="38.10696" lon="13.160325"><ele>541.0</ele><time>2026-05-05T11:10:33.564Z</time></trkpt><trkpt lat="38.10701" lon="13.1602467"><ele>541.0</ele><time>2026-05-05T11:10:36.564Z</time></trkpt></trkseg><trkseg><trkpt lat="38.1070867" lon="13.16009"><ele>541.0</ele><time>2026-05-05T11:52:38.564Z</time></trkpt><trkpt lat="38.1071" lon="13.1600033"><ele>541.0</ele><time>2026-05-05T11:52:40.564Z</time></trkpt><trkpt lat="38.1071317" lon="13.1599333"><ele>541.0</ele><time>2026-05-05T11:52:42.564Z</time></trkpt><trkpt lat="38.10717" lon="13.1598483"><ele>541.0</ele><time>2026-05-05T11:52:44.565Z</time></trkpt><trkpt lat="38.1072267" lon="13.1597133"><ele>541.0</ele><time>2026-05-05T11:52:46.564Z</time></trkpt><trkpt lat="38.107265" lon="13.159575"><ele>541.0</ele><time>2026-05-05T11:52:48.564Z</time></trkpt><trkpt lat="38.10729" lon="13.1594983"><ele>541.8</ele><time>2026-05-05T11:52:49.563Z</time></trkpt><trkpt lat="38.10732" lon="13.15942"><ele>542.6</ele><time>2026-05-05T11:52:50.565Z</time></trkpt><trkpt lat="38.1073733" lon="13.1593067"><ele>543.4</ele><time>2026-05-05T11:52:52.562Z</time></trkpt><trkpt lat="38.1074217" lon="13.1592133"><ele>544.2</ele><time>2026-05-05T11:52:54.564Z</time></trkpt><trkpt lat="38.1074667" lon="13.1591117"><ele>545.0</ele><time>2026-05-05T11:52:56.565Z</time></trkpt><trkpt lat="38.1075167" lon="13.1589933"><ele>547.0</ele><time>2026-05-05T11:52:58.565Z</time></trkpt><trkpt lat="38.107565" lon="13.15888"><ele>549.0</ele><time>2026-05-05T11:53:00.565Z</time></trkpt><trkpt lat="38.1075867" lon="13.1587717"><ele>551.0</ele><time>2026-05-05T11:53:02.565Z</time></trkpt><trkpt lat="38.1075583" lon="13.158695"><ele>553.0</ele><time>2026-05-05T11:53:04.563Z</time></trkpt><trkpt lat="38.1074883" lon="13.1586483"><ele>555.0</ele><time>2026-05-05T11:53:06.563Z</time></trkpt><trkpt lat="38.107405" lon="13.158615"><ele>557.0</ele><time>2026-05-05T11:53:08.564Z</time></trkpt><trkpt lat="38.1073083" lon="13.15859"><ele>557.1666666666666</ele><time>2026-05-05T11:53:10.563Z</time></trkpt><trkpt lat="38.1071983" lon="13.1585633"><ele>557.3333333333333</ele><time>2026-05-05T11:53:12.563Z</time></trkpt><trkpt lat="38.1070933" lon="13.1585383"><ele>557.5</ele><time>2026-05-05T11:53:14.564Z</time></trkpt><trkpt lat="38.1070283" lon="13.15853"><ele>557.6666666666666</ele><time>2026-05-05T11:53:15.564Z</time></trkpt><trkpt lat="38.106965" lon="13.1585117"><ele>557.8333333333334</ele><time>2026-05-05T11:53:16.564Z</time></trkpt><trkpt lat="38.1068933" lon="13.1585"><ele>558.0</ele><time>2026-05-05T11:53:17.564Z</time></trkpt><trkpt lat="38.1068233" lon="13.1584917"><ele>558.0</ele><time>2026-05-05T11:53:18.565Z</time></trkpt><trkpt lat="38.1067467" lon="13.1584833"><ele>558.0</ele><time>2026-05-05T11:53:19.563Z</time></trkpt><trkpt lat="38.106675" lon="13.1584667"><ele>558.0</ele><time>2026-05-05T11:53:20.564Z</time></trkpt><trkpt lat="38.106605" lon="13.15846"><ele>558.0</ele><time>2026-05-05T11:53:21.564Z</time></trkpt><trkpt lat="38.1065267" lon="13.1584467"><ele>558.0</ele><time>2026-05-05T11:53:22.563Z</time></trkpt><trkpt lat="38.1064517" lon="13.15843"><ele>558.0</ele><time>2026-05-05T11:53:23.563Z</time></trkpt><trkpt lat="38.1063733" lon="13.15842"><ele>558.4</ele><time>2026-05-05T11:53:24.564Z</time></trkpt><trkpt lat="38.1063" lon="13.1584033"><ele>558.8</ele><time>2026-05-05T11:53:25.564Z</time></trkpt><trkpt lat="38.106235" lon="13.1583933"><ele>559.2</ele><time>2026-05-05T11:53:26.565Z</time></trkpt><trkpt lat="38.1061217" lon="13.1583533"><ele>559.6</ele><time>2026-05-05T11:53:28.564Z</time></trkpt><trkpt lat="38.1060184" lon="13.1583029"><ele>560.0</ele><time>2026-05-05T11:53:30.564Z</time></trkpt><trkpt lat="38.1059198" lon="13.158232"><ele>561.1666666666666</ele><time>2026-05-05T11:53:32.564Z</time></trkpt><trkpt lat="38.1058654" lon="13.1581894"><ele>562.3333333333333</ele><time>2026-05-05T11:53:33.563Z</time></trkpt><trkpt lat="38.1057635" lon="13.1580955"><ele>563.5</ele><time>2026-05-05T11:53:35.564Z</time></trkpt><trkpt lat="38.1057147" lon="13.1580392"><ele>564.6666666666666</ele><time>2026-05-05T11:53:36.564Z</time></trkpt><trkpt lat="38.1056741" lon="13.1579696"><ele>565.8333333333334</ele><time>2026-05-05T11:53:37.564Z</time></trkpt><trkpt lat="38.1056374" lon="13.1578886"><ele>567.0</ele><time>2026-05-05T11:53:38.563Z</time></trkpt><trkpt lat="38.1056006" lon="13.1578037"><ele>567.0</ele><time>2026-05-05T11:53:39.563Z</time></trkpt><trkpt lat="38.1055636" lon="13.1577169"><ele>567.0</ele><time>2026-05-05T11:53:40.564Z</time></trkpt><trkpt lat="38.1055251" lon="13.1576306"><ele>567.0</ele><time>2026-05-05T11:53:41.563Z</time></trkpt><trkpt lat="38.1054879" lon="13.1575388"><ele>567.0</ele><time>2026-05-05T11:53:42.565Z</time></trkpt><trkpt lat="38.1054497" lon="13.1574524"><ele>567.0</ele><time>2026-05-05T11:53:43.562Z</time></trkpt><trkpt lat="38.1054091" lon="13.157366"><ele>567.0</ele><time>2026-05-05T11:53:44.565Z</time></trkpt><trkpt lat="38.1053603" lon="13.1572739"><ele>571.3333333333334</ele><time>2026-05-05T11:53:45.564Z</time></trkpt><trkpt lat="38.1053108" lon="13.1571968"><ele>575.6666666666666</ele><time>2026-05-05T11:53:46.564Z</time></trkpt><trkpt lat="38.1052536" lon="13.1571361"><ele>580.0</ele><time>2026-05-05T11:53:47.564Z</time></trkpt><trkpt lat="38.1051936" lon="13.1570995"><ele>584.3333333333333</ele><time>2026-05-05T11:53:48.564Z</time></trkpt><trkpt lat="38.1050589" lon="13.1570647"><ele>588.6666666666666</ele><time>2026-05-05T11:53:50.564Z</time></trkpt><trkpt lat="38.1049795" lon="13.1570475"><ele>593.0</ele><time>2026-05-05T11:53:51.564Z</time></trkpt><trkpt lat="38.1049021" lon="13.1570253"><ele>593.3333333333333</ele><time>2026-05-05T11:53:52.564Z</time></trkpt><trkpt lat="38.104821" lon="13.1570032"><ele>593.6666666666666</ele><time>2026-05-05T11:53:53.564Z</time></trkpt><trkpt lat="38.1047399" lon="13.1569821"><ele>594.0</ele><time>2026-05-05T11:53:54.564Z</time></trkpt><trkpt lat="38.1046556" lon="13.156966"><ele>594.3333333333334</ele><time>2026-05-05T11:53:55.563Z</time></trkpt><trkpt lat="38.1045742" lon="13.156957"><ele>594.6666666666667</ele><time>2026-05-05T11:53:56.563Z</time></trkpt><trkpt lat="38.1044874" lon="13.1569508"><ele>595.0</ele><time>2026-05-05T11:53:57.563Z</time></trkpt><trkpt lat="38.1044026" lon="13.1569425"><ele>595.0</ele><time>2026-05-05T11:53:58.564Z</time></trkpt><trkpt lat="38.1043156" lon="13.1569414"><ele>595.0</ele><time>2026-05-05T11:53:59.563Z</time></trkpt><trkpt lat="38.1042324" lon="13.1569397"><ele>595.0</ele><time>2026-05-05T11:54:00.564Z</time></trkpt><trkpt lat="38.1041506" lon="13.1569358"><ele>595.0</ele><time>2026-05-05T11:54:01.564Z</time></trkpt><trkpt lat="38.1040708" lon="13.1569458"><ele>595.0</ele><time>2026-05-05T11:54:02.563Z</time></trkpt><trkpt lat="38.1040064" lon="13.1569795"><ele>595.0</ele><time>2026-05-05T11:54:03.564Z</time></trkpt><trkpt lat="38.1039559" lon="13.1570314"><ele>595.4285714285714</ele><time>2026-05-05T11:54:04.564Z</time></trkpt><trkpt lat="38.1039068" lon="13.1570894"><ele>595.8571428571429</ele><time>2026-05-05T11:54:05.564Z</time></trkpt><trkpt lat="38.103882" lon="13.1571641"><ele>596.2857142857142</ele><time>2026-05-05T11:54:06.563Z</time></trkpt><trkpt lat="38.1038708" lon="13.1572543"><ele>596.7142857142858</ele><time>2026-05-05T11:54:07.564Z</time></trkpt><trkpt lat="38.1038661" lon="13.1573463"><ele>597.1428571428571</ele><time>2026-05-05T11:54:08.564Z</time></trkpt><trkpt lat="38.1038642" lon="13.1574415"><ele>597.5714285714286</ele><time>2026-05-05T11:54:09.563Z</time></trkpt><trkpt lat="38.1038499" lon="13.1575303"><ele>598.0</ele><time>2026-05-05T11:54:10.565Z</time></trkpt><trkpt lat="38.1038289" lon="13.1576167"><ele>598.0</ele><time>2026-05-05T11:54:11.564Z</time></trkpt><trkpt lat="38.1037939" lon="13.1577025"><ele>598.0</ele><time>2026-05-05T11:54:12.564Z</time></trkpt><trkpt lat="38.1037514" lon="13.1577841"><ele>598.0</ele><time>2026-05-05T11:54:13.564Z</time></trkpt><trkpt lat="38.1037083" lon="13.1578604"><ele>598.0</ele><time>2026-05-05T11:54:14.564Z</time></trkpt><trkpt lat="38.1036669" lon="13.1579388"><ele>598.0</ele><time>2026-05-05T11:54:15.563Z</time></trkpt><trkpt lat="38.1036175" lon="13.1580123"><ele>598.0</ele><time>2026-05-05T11:54:16.565Z</time></trkpt><trkpt lat="38.103561" lon="13.1580753"><ele>598.0</ele><time>2026-05-05T11:54:17.563Z</time></trkpt><trkpt lat="38.1035069" lon="13.1581295"><ele>598.0</ele><time>2026-05-05T11:54:18.564Z</time></trkpt><trkpt lat="38.1034503" lon="13.1581722"><ele>598.0</ele><time>2026-05-05T11:54:19.563Z</time></trkpt><trkpt lat="38.1033359" lon="13.1582373"><ele>598.0</ele><time>2026-05-05T11:54:21.563Z</time></trkpt><trkpt lat="38.1032747" lon="13.1582635"><ele>598.0</ele><time>2026-05-05T11:54:22.563Z</time></trkpt><trkpt lat="38.103214" lon="13.1582944"><ele>598.0</ele><time>2026-05-05T11:54:23.563Z</time></trkpt><trkpt lat="38.1031526" lon="13.1583369"><ele>598.1428571428571</ele><time>2026-05-05T11:54:24.564Z</time></trkpt><trkpt lat="38.1030888" lon="13.1583856"><ele>598.2857142857143</ele><time>2026-05-05T11:54:25.564Z</time></trkpt><trkpt lat="38.1030216" lon="13.1584286"><ele>598.4285714285714</ele><time>2026-05-05T11:54:26.564Z</time></trkpt><trkpt lat="38.1029544" lon="13.1584605"><ele>598.5714285714286</ele><time>2026-05-05T11:54:27.564Z</time></trkpt><trkpt lat="38.1028875" lon="13.1584901"><ele>598.7142857142857</ele><time>2026-05-05T11:54:28.564Z</time></trkpt><trkpt lat="38.1028205" lon="13.1585218"><ele>598.8571428571429</ele><time>2026-05-05T11:54:29.564Z</time></trkpt><trkpt lat="38.1027515" lon="13.1585482"><ele>599.0</ele><time>2026-05-05T11:54:30.564Z</time></trkpt><trkpt lat="38.102678" lon="13.1585625"><ele>599.0</ele><time>2026-05-05T11:54:31.564Z</time></trkpt><trkpt lat="38.1026036" lon="13.1585698"><ele>599.0</ele><time>2026-05-05T11:54:32.564Z</time></trkpt><trkpt lat="38.102527" lon="13.1585706"><ele>599.0</ele><time>2026-05-05T11:54:33.564Z</time></trkpt><trkpt lat="38.1024513" lon="13.1585696"><ele>599.0</ele><time>2026-05-05T11:54:34.563Z</time></trkpt><trkpt lat="38.1023758" lon="13.1585724"><ele>599.0</ele><time>2026-05-05T11:54:35.563Z</time></trkpt><trkpt lat="38.1022986" lon="13.1585689"><ele>599.0</ele><time>2026-05-05T11:54:36.564Z</time></trkpt><trkpt lat="38.1022202" lon="13.1585603"><ele>599.3333333333333</ele><time>2026-05-05T11:54:37.563Z</time></trkpt><trkpt lat="38.1021418" lon="13.1585464"><ele>599.6666666666666</ele><time>2026-05-05T11:54:38.563Z</time></trkpt><trkpt lat="38.1020659" lon="13.1585272"><ele>600.0</ele><time>2026-05-05T11:54:39.564Z</time></trkpt><trkpt lat="38.1019897" lon="13.15851"><ele>600.3333333333334</ele><time>2026-05-05T11:54:40.564Z</time></trkpt><trkpt lat="38.1019132" lon="13.1584899"><ele>600.6666666666667</ele><time>2026-05-05T11:54:41.564Z</time></trkpt><trkpt lat="38.1018391" lon="13.1584638"><ele>601.0</ele><time>2026-05-05T11:54:42.564Z</time></trkpt><trkpt lat="38.1017669" lon="13.1584286"><ele>601.0</ele><time>2026-05-05T11:54:43.565Z</time></trkpt><trkpt lat="38.1017021" lon="13.1583828"><ele>601.0</ele><time>2026-05-05T11:54:44.566Z</time></trkpt><trkpt lat="38.101642" lon="13.1583313"><ele>601.0</ele><time>2026-05-05T11:54:45.565Z</time></trkpt><trkpt lat="38.1015728" lon="13.1582789"><ele>601.0</ele><time>2026-05-05T11:54:46.563Z</time></trkpt><trkpt lat="38.1015036" lon="13.158225"><ele>601.0</ele><time>2026-05-05T11:54:47.563Z</time></trkpt><trkpt lat="38.1014326" lon="13.1581737"><ele>601.0</ele><time>2026-05-05T11:54:48.563Z</time></trkpt><trkpt lat="38.1013634" lon="13.1581224"><ele>602.6666666666667</ele><time>2026-05-05T11:54:49.562Z</time></trkpt><trkpt lat="38.1012955" lon="13.1580719"><ele>604.3333333333334</ele><time>2026-05-05T11:54:50.563Z</time></trkpt><trkpt lat="38.10123" lon="13.1580205"><ele>606.0</ele><time>2026-05-05T11:54:51.564Z</time></trkpt><trkpt lat="38.101161" lon="13.1579645"><ele>607.6666666666666</ele><time>2026-05-05T11:54:52.564Z</time></trkpt><trkpt lat="38.1010931" lon="13.1579018"><ele>609.3333333333333</ele><time>2026-05-05T11:54:53.562Z</time></trkpt><trkpt lat="38.1010198" lon="13.1578456"><ele>611.0</ele><time>2026-05-05T11:54:54.562Z</time></trkpt><trkpt lat="38.1009458" lon="13.1577927"><ele>611.0</ele><time>2026-05-05T11:54:55.564Z</time></trkpt><trkpt lat="38.100871" lon="13.1577367"><ele>611.0</ele><time>2026-05-05T11:54:56.565Z</time></trkpt><trkpt lat="38.1008014" lon="13.1576711"><ele>611.0</ele><time>2026-05-05T11:54:57.564Z</time></trkpt><trkpt lat="38.1007383" lon="13.1576014"><ele>611.0</ele><time>2026-05-05T11:54:58.564Z</time></trkpt><trkpt lat="38.1006762" lon="13.1575347"><ele>611.0</ele><time>2026-05-05T11:54:59.564Z</time></trkpt><trkpt lat="38.1006201" lon="13.1574745"><ele>611.0</ele><time>2026-05-05T11:55:00.565Z</time></trkpt><trkpt lat="38.1005773" lon="13.1574149"><ele>611.5</ele><time>2026-05-05T11:55:01.565Z</time></trkpt><trkpt lat="38.1005399" lon="13.1573456"><ele>612.0</ele><time>2026-05-05T11:55:02.563Z</time></trkpt><trkpt lat="38.1005057" lon="13.1572721"><ele>612.5</ele><time>2026-05-05T11:55:03.564Z</time></trkpt><trkpt lat="38.1004574" lon="13.157144"><ele>613.0</ele><time>2026-05-05T11:55:05.563Z</time></trkpt><trkpt lat="38.1004626" lon="13.1570512"><ele>613.5</ele><time>2026-05-05T11:55:07.564Z</time></trkpt><trkpt lat="38.1005375" lon="13.1570301"><ele>614.0</ele><time>2026-05-05T11:55:09.564Z</time></trkpt><trkpt lat="38.1006506" lon="13.1570648"><ele>614.0</ele><time>2026-05-05T11:55:11.565Z</time></trkpt><trkpt lat="38.1007202" lon="13.1570888"><ele>614.0</ele><time>2026-05-05T11:55:12.564Z</time></trkpt><trkpt lat="38.100799" lon="13.1571095"><ele>614.0</ele><time>2026-05-05T11:55:13.565Z</time></trkpt><trkpt lat="38.1008937" lon="13.1571259"><ele>614.0</ele><time>2026-05-05T11:55:14.564Z</time></trkpt><trkpt lat="38.1009874" lon="13.1571379"><ele>614.0</ele><time>2026-05-05T11:55:15.564Z</time></trkpt><trkpt lat="38.1010731" lon="13.1571442"><ele>614.0</ele><time>2026-05-05T11:55:16.563Z</time></trkpt><trkpt lat="38.1011461" lon="13.1571363"><ele>616.2</ele><time>2026-05-05T11:55:17.564Z</time></trkpt><trkpt lat="38.1012054" lon="13.1570514"><ele>618.4</ele><time>2026-05-05T11:55:19.564Z</time></trkpt><trkpt lat="38.1011406" lon="13.1569453"><ele>620.6</ele><time>2026-05-05T11:55:21.563Z</time></trkpt><trkpt lat="38.1010607" lon="13.1569116"><ele>622.8</ele><time>2026-05-05T11:55:22.562Z</time></trkpt><trkpt lat="38.1009736" lon="13.1568864"><ele>625.0</ele><time>2026-05-05T11:55:23.564Z</time></trkpt><trkpt lat="38.1008824" lon="13.1568679"><ele>625.0</ele><time>2026-05-05T11:55:24.564Z</time></trkpt><trkpt lat="38.1007886" lon="13.1568349"><ele>625.0</ele><time>2026-05-05T11:55:25.565Z</time></trkpt><trkpt lat="38.1007035" lon="13.1567869"><ele>625.0</ele><time>2026-05-05T11:55:26.565Z</time></trkpt><trkpt lat="38.1006161" lon="13.1567249"><ele>625.0</ele><time>2026-05-05T11:55:27.563Z</time></trkpt><trkpt lat="38.1005301" lon="13.1566593"><ele>625.0</ele><time>2026-05-05T11:55:28.564Z</time></trkpt><trkpt lat="38.100448" lon="13.1566037"><ele>625.1666666666667</ele><time>2026-05-05T11:55:29.563Z</time></trkpt><trkpt lat="38.1003653" lon="13.1565544"><ele>625.3333333333334</ele><time>2026-05-05T11:55:30.565Z</time></trkpt><trkpt lat="38.1002872" lon="13.1565135"><ele>625.5</ele><time>2026-05-05T11:55:31.563Z</time></trkpt><trkpt lat="38.1002122" lon="13.1564681"><ele>625.6666666666666</ele><time>2026-05-05T11:55:32.565Z</time></trkpt><trkpt lat="38.100144" lon="13.1564262"><ele>625.8333333333333</ele><time>2026-05-05T11:55:33.564Z</time></trkpt><trkpt lat="38.1000795" lon="13.1563994"><ele>626.0</ele><time>2026-05-05T11:55:34.564Z</time></trkpt><trkpt lat="38.0999869" lon="13.1563343"><ele>626.0</ele><time>2026-05-05T11:55:36.564Z</time></trkpt><trkpt lat="38.0999649" lon="13.1562204"><ele>626.0</ele><time>2026-05-05T11:55:38.564Z</time></trkpt><trkpt lat="38.0999877" lon="13.1560645"><ele>626.0</ele><time>2026-05-05T11:55:40.564Z</time></trkpt><trkpt lat="38.1000106" lon="13.1559882"><ele>626.0</ele><time>2026-05-05T11:55:41.564Z</time></trkpt><trkpt lat="38.1000355" lon="13.155914"><ele>626.0</ele><time>2026-05-05T11:55:42.565Z</time></trkpt><trkpt lat="38.1000566" lon="13.1558379"><ele>626.0</ele><time>2026-05-05T11:55:43.564Z</time></trkpt><trkpt lat="38.1000733" lon="13.1557567"><ele>626.6666666666666</ele><time>2026-05-05T11:55:44.565Z</time></trkpt><trkpt lat="38.1000833" lon="13.155665"><ele>627.3333333333333</ele><time>2026-05-05T11:55:45.565Z</time></trkpt><trkpt lat="38.100095" lon="13.1555633"><ele>628.0</ele><time>2026-05-05T11:55:46.562Z</time></trkpt><trkpt lat="38.1001017" lon="13.155455"><ele>628.6666666666666</ele><time>2026-05-05T11:55:47.563Z</time></trkpt><trkpt lat="38.10011" lon="13.1553467"><ele>629.3333333333334</ele><time>2026-05-05T11:55:48.563Z</time></trkpt><trkpt lat="38.1001283" lon="13.15524"><ele>630.0</ele><time>2026-05-05T11:55:49.562Z</time></trkpt><trkpt lat="38.1001467" lon="13.155135"><ele>630.0</ele><time>2026-05-05T11:55:50.563Z</time></trkpt><trkpt lat="38.1001533" lon="13.1550317"><ele>630.0</ele><time>2026-05-05T11:55:51.563Z</time></trkpt><trkpt lat="38.1001433" lon="13.1549283"><ele>630.0</ele><time>2026-05-05T11:55:52.562Z</time></trkpt><trkpt lat="38.1001267" lon="13.154825"><ele>630.0</ele><time>2026-05-05T11:55:53.563Z</time></trkpt><trkpt lat="38.1001083" lon="13.15472"><ele>630.0</ele><time>2026-05-05T11:55:54.563Z</time></trkpt><trkpt lat="38.1000933" lon="13.1546133"><ele>630.0</ele><time>2026-05-05T11:55:55.563Z</time></trkpt><trkpt lat="38.1000867" lon="13.1545017"><ele>630.8333333333334</ele><time>2026-05-05T11:55:56.564Z</time></trkpt><trkpt lat="38.1000817" lon="13.1543933"><ele>631.6666666666666</ele><time>2026-05-05T11:55:57.563Z</time></trkpt><trkpt lat="38.10007" lon="13.1543017"><ele>632.5</ele><time>2026-05-05T11:55:58.563Z</time></trkpt><trkpt lat="38.1000667" lon="13.15418"><ele>633.3333333333333</ele><time>2026-05-05T11:56:00.564Z</time></trkpt><trkpt lat="38.100115" lon="13.1541017"><ele>634.1666666666666</ele><time>2026-05-05T11:56:02.565Z</time></trkpt><trkpt lat="38.100195" lon="13.1541117"><ele>635.0</ele><time>2026-05-05T11:56:04.564Z</time></trkpt><trkpt lat="38.1002817" lon="13.154175"><ele>635.0</ele><time>2026-05-05T11:56:06.564Z</time></trkpt><trkpt lat="38.1003317" lon="13.154225"><ele>635.0</ele><time>2026-05-05T11:56:07.564Z</time></trkpt><trkpt lat="38.100385" lon="13.1542683"><ele>635.0</ele><time>2026-05-05T11:56:08.564Z</time></trkpt><trkpt lat="38.1004983" lon="13.1543517"><ele>635.0</ele><time>2026-05-05T11:56:10.564Z</time></trkpt><trkpt lat="38.100565" lon="13.1544033"><ele>635.0</ele><time>2026-05-05T11:56:11.564Z</time></trkpt><trkpt lat="38.1006317" lon="13.1544533"><ele>635.0</ele><time>2026-05-05T11:56:12.564Z</time></trkpt><trkpt lat="38.1007033" lon="13.1545033"><ele>637.6</ele><time>2026-05-05T11:56:13.563Z</time></trkpt><trkpt lat="38.100785" lon="13.1545517"><ele>640.2</ele><time>2026-05-05T11:56:14.564Z</time></trkpt><trkpt lat="38.1008783" lon="13.154585"><ele>642.8</ele><time>2026-05-05T11:56:15.563Z</time></trkpt><trkpt lat="38.10098" lon="13.154615"><ele>645.4</ele><time>2026-05-05T11:56:16.564Z</time></trkpt><trkpt lat="38.1010767" lon="13.1546517"><ele>648.0</ele><time>2026-05-05T11:56:17.563Z</time></trkpt><trkpt lat="38.1011517" lon="13.1546867"><ele>648.0</ele><time>2026-05-05T11:56:18.563Z</time></trkpt><trkpt lat="38.1012267" lon="13.1547217"><ele>648.0</ele><time>2026-05-05T11:56:19.563Z</time></trkpt><trkpt lat="38.1013017" lon="13.1546533"><ele>648.0</ele><time>2026-05-05T11:56:22.562Z</time></trkpt><trkpt lat="38.1012633" lon="13.1545483"><ele>648.0</ele><time>2026-05-05T11:56:24.564Z</time></trkpt><trkpt lat="38.1011962" lon="13.1544156"><ele>648.0</ele><time>2026-05-05T11:56:26.564Z</time></trkpt><trkpt lat="38.1011615" lon="13.1543382"><ele>648.0</ele><time>2026-05-05T11:56:27.563Z</time></trkpt><trkpt lat="38.1011226" lon="13.1542538"><ele>648.0</ele><time>2026-05-05T11:56:28.564Z</time></trkpt><trkpt lat="38.1010895" lon="13.1541625"><ele>648.0</ele><time>2026-05-05T11:56:29.564Z</time></trkpt><trkpt lat="38.1010616" lon="13.1540692"><ele>648.0</ele><time>2026-05-05T11:56:30.563Z</time></trkpt><trkpt lat="38.1010345" lon="13.1539685"><ele>648.0</ele><time>2026-05-05T11:56:31.564Z</time></trkpt><trkpt lat="38.1010181" lon="13.153863"><ele>648.0</ele><time>2026-05-05T11:56:32.566Z</time></trkpt><trkpt lat="38.1010162" lon="13.1537556"><ele>648.8333333333334</ele><time>2026-05-05T11:56:33.564Z</time></trkpt><trkpt lat="38.1010218" lon="13.153652"><ele>649.6666666666666</ele><time>2026-05-05T11:56:34.564Z</time></trkpt><trkpt lat="38.1010338" lon="13.1535529"><ele>650.5</ele><time>2026-05-05T11:56:35.564Z</time></trkpt><trkpt lat="38.101053" lon="13.1534612"><ele>651.3333333333333</ele><time>2026-05-05T11:56:36.563Z</time></trkpt><trkpt lat="38.101084" lon="13.1533726"><ele>652.1666666666666</ele><time>2026-05-05T11:56:37.564Z</time></trkpt><trkpt lat="38.1011215" lon="13.1532771"><ele>653.0</ele><time>2026-05-05T11:56:38.563Z</time></trkpt><trkpt lat="38.1011575" lon="13.1531742"><ele>654.0</ele><time>2026-05-05T11:56:39.564Z</time></trkpt><trkpt lat="38.1011892" lon="13.1530728"><ele>655.0</ele><time>2026-05-05T11:56:40.564Z</time></trkpt><trkpt lat="38.1012131" lon="13.1529712"><ele>656.0</ele><time>2026-05-05T11:56:41.563Z</time></trkpt><trkpt lat="38.1012343" lon="13.1528708"><ele>657.0</ele><time>2026-05-05T11:56:42.564Z</time></trkpt><trkpt lat="38.101259" lon="13.1527801"><ele>658.0</ele><time>2026-05-05T11:56:43.565Z</time></trkpt><trkpt lat="38.1012871" lon="13.1526947"><ele>659.0</ele><time>2026-05-05T11:56:44.563Z</time></trkpt><trkpt lat="38.1013227" lon="13.1526139"><ele>659.0</ele><time>2026-05-05T11:56:45.564Z</time></trkpt><trkpt lat="38.1013597" lon="13.1525389"><ele>659.0</ele><time>2026-05-05T11:56:46.563Z</time></trkpt><trkpt lat="38.101427" lon="13.1524318"><ele>659.0</ele><time>2026-05-05T11:56:48.563Z</time></trkpt><trkpt lat="38.1014787" lon="13.1523709"><ele>659.0</ele><time>2026-05-05T11:56:50.564Z</time></trkpt><trkpt lat="38.1015231" lon="13.1522828"><ele>659.0</ele><time>2026-05-05T11:56:54.564Z</time></trkpt><trkpt lat="38.1015417" lon="13.1521983"><ele>659.0</ele><time>2026-05-05T11:57:07.563Z</time></trkpt><trkpt lat="38.1015517" lon="13.1520917"><ele>659.0</ele><time>2026-05-05T11:57:09.564Z</time></trkpt><trkpt lat="38.101535" lon="13.15198"><ele>659.0</ele><time>2026-05-05T11:57:11.563Z</time></trkpt><trkpt lat="38.101465" lon="13.15187"><ele>659.0</ele><time>2026-05-05T11:57:13.564Z</time></trkpt><trkpt lat="38.1013633" lon="13.1517817"><ele>659.0</ele><time>2026-05-05T11:57:15.564Z</time></trkpt><trkpt lat="38.1012983" lon="13.151675"><ele>659.0</ele><time>2026-05-05T11:57:17.564Z</time></trkpt><trkpt lat="38.1012867" lon="13.151565"><ele>657.4000000000001</ele><time>2026-05-05T11:57:19.564Z</time></trkpt><trkpt lat="38.1013483" lon="13.1514783"><ele>655.8</ele><time>2026-05-05T11:57:21.563Z</time></trkpt><trkpt lat="38.1014417" lon="13.15146"><ele>654.2</ele><time>2026-05-05T11:57:23.563Z</time></trkpt><trkpt lat="38.1015317" lon="13.1515167"><ele>652.5999999999999</ele><time>2026-05-05T11:57:25.564Z</time></trkpt><trkpt lat="38.10163" lon="13.1516033"><ele>651.0</ele><time>2026-05-05T11:57:27.563Z</time></trkpt><trkpt lat="38.1016817" lon="13.1516517"><ele>655.1666666666666</ele><time>2026-05-05T11:57:28.563Z</time></trkpt><trkpt lat="38.1017933" lon="13.151725"><ele>659.3333333333334</ele><time>2026-05-05T11:57:30.563Z</time></trkpt><trkpt lat="38.1018533" lon="13.1517533"><ele>663.5</ele><time>2026-05-05T11:57:31.564Z</time></trkpt><trkpt lat="38.1019167" lon="13.1517783"><ele>667.6666666666667</ele><time>2026-05-05T11:57:32.564Z</time></trkpt><trkpt lat="38.1019833" lon="13.1518017"><ele>671.8333333333334</ele><time>2026-05-05T11:57:33.564Z</time></trkpt><trkpt lat="38.1020533" lon="13.1518217"><ele>676.0</ele><time>2026-05-05T11:57:34.564Z</time></trkpt><trkpt lat="38.1021267" lon="13.1518483"><ele>676.0</ele><time>2026-05-05T11:57:35.566Z</time></trkpt><trkpt lat="38.1021945" lon="13.151884"><ele>676.0</ele><time>2026-05-05T11:57:36.564Z</time></trkpt><trkpt lat="38.1022607" lon="13.1519222"><ele>676.0</ele><time>2026-05-05T11:57:37.564Z</time></trkpt><trkpt lat="38.1023268" lon="13.1519575"><ele>676.0</ele><time>2026-05-05T11:57:38.565Z</time></trkpt><trkpt lat="38.1023927" lon="13.1519834"><ele>676.0</ele><time>2026-05-05T11:57:39.563Z</time></trkpt><trkpt lat="38.1024589" lon="13.1520093"><ele>676.0</ele><time>2026-05-05T11:57:40.564Z</time></trkpt><trkpt lat="38.1025257" lon="13.1520404"><ele>676.0</ele><time>2026-05-05T11:57:41.564Z</time></trkpt><trkpt lat="38.1025961" lon="13.1520783"><ele>678.4285714285714</ele><time>2026-05-05T11:57:42.564Z</time></trkpt><trkpt lat="38.1026614" lon="13.1521152"><ele>680.8571428571429</ele><time>2026-05-05T11:57:43.564Z</time></trkpt><trkpt lat="38.1027225" lon="13.1521602"><ele>683.2857142857142</ele><time>2026-05-05T11:57:44.564Z</time></trkpt><trkpt lat="38.1027783" lon="13.1522083"><ele>685.7142857142858</ele><time>2026-05-05T11:57:45.562Z</time></trkpt><trkpt lat="38.1028341" lon="13.1522577"><ele>688.1428571428571</ele><time>2026-05-05T11:57:46.563Z</time></trkpt><trkpt lat="38.1028943" lon="13.1523028"><ele>690.5714285714286</ele><time>2026-05-05T11:57:47.564Z</time></trkpt><trkpt lat="38.1029576" lon="13.1523405"><ele>693.0</ele><time>2026-05-05T11:57:48.563Z</time></trkpt><trkpt lat="38.1030268" lon="13.1523686"><ele>692.8333333333334</ele><time>2026-05-05T11:57:49.564Z</time></trkpt><trkpt lat="38.1030891" lon="13.1523882"><ele>692.6666666666666</ele><time>2026-05-05T11:57:50.563Z</time></trkpt><trkpt lat="38.1031531" lon="13.1524152"><ele>692.5</ele><time>2026-05-05T11:57:51.564Z</time></trkpt><trkpt lat="38.1032205" lon="13.1524488"><ele>692.3333333333333</ele><time>2026-05-05T11:57:52.564Z</time></trkpt><trkpt lat="38.1032943" lon="13.1524789"><ele>692.1666666666666</ele><time>2026-05-05T11:57:53.564Z</time></trkpt><trkpt lat="38.1033798" lon="13.1525044"><ele>692.0</ele><time>2026-05-05T11:57:54.564Z</time></trkpt><trkpt lat="38.1034688" lon="13.1525215"><ele>692.0</ele><time>2026-05-05T11:57:55.564Z</time></trkpt><trkpt lat="38.103561" lon="13.152539"><ele>692.0</ele><time>2026-05-05T11:57:56.564Z</time></trkpt><trkpt lat="38.1036524" lon="13.1525664"><ele>692.0</ele><time>2026-05-05T11:57:57.564Z</time></trkpt><trkpt lat="38.1037425" lon="13.1526157"><ele>692.0</ele><time>2026-05-05T11:57:58.563Z</time></trkpt><trkpt lat="38.1038297" lon="13.1526877"><ele>692.0</ele><time>2026-05-05T11:57:59.562Z</time></trkpt><trkpt lat="38.1039164" lon="13.1527647"><ele>692.0</ele><time>2026-05-05T11:58:00.564Z</time></trkpt><trkpt lat="38.1039983" lon="13.1528435"><ele>692.0</ele><time>2026-05-05T11:58:01.564Z</time></trkpt><trkpt lat="38.1040794" lon="13.152919"><ele>692.0</ele><time>2026-05-05T11:58:02.564Z</time></trkpt><trkpt lat="38.104157" lon="13.1529856"><ele>692.0</ele><time>2026-05-05T11:58:03.563Z</time></trkpt><trkpt lat="38.104236" lon="13.1530403"><ele>692.0</ele><time>2026-05-05T11:58:04.563Z</time></trkpt><trkpt lat="38.1043146" lon="13.153086"><ele>691.3333333333333</ele><time>2026-05-05T11:58:05.564Z</time></trkpt><trkpt lat="38.104391" lon="13.153133"><ele>690.6666666666666</ele><time>2026-05-05T11:58:06.564Z</time></trkpt><trkpt lat="38.1044682" lon="13.153178"><ele>690.0</ele><time>2026-05-05T11:58:07.564Z</time></trkpt><trkpt lat="38.1045492" lon="13.153224"><ele>689.3333333333334</ele><time>2026-05-05T11:58:08.564Z</time></trkpt><trkpt lat="38.1046275" lon="13.1532693"><ele>688.6666666666667</ele><time>2026-05-05T11:58:09.564Z</time></trkpt><trkpt lat="38.1047048" lon="13.1533117"><ele>688.0</ele><time>2026-05-05T11:58:10.564Z</time></trkpt><trkpt lat="38.1047809" lon="13.1533497"><ele>688.0</ele><time>2026-05-05T11:58:11.565Z</time></trkpt><trkpt lat="38.1048664" lon="13.1533724"><ele>688.0</ele><time>2026-05-05T11:58:12.564Z</time></trkpt><trkpt lat="38.1049518" lon="13.153377"><ele>688.0</ele><time>2026-05-05T11:58:13.564Z</time></trkpt><trkpt lat="38.1050263" lon="13.1533551"><ele>688.0</ele><time>2026-05-05T11:58:14.564Z</time></trkpt><trkpt lat="38.105096" lon="13.1533114"><ele>688.0</ele><time>2026-05-05T11:58:15.562Z</time></trkpt><trkpt lat="38.1051645" lon="13.1532508"><ele>688.0</ele><time>2026-05-05T11:58:16.563Z</time></trkpt><trkpt lat="38.1052323" lon="13.1531974"><ele>693.0</ele><time>2026-05-05T11:58:17.564Z</time></trkpt><trkpt lat="38.1053045" lon="13.1531674"><ele>698.0</ele><time>2026-05-05T11:58:18.564Z</time></trkpt><trkpt lat="38.1053804" lon="13.1531579"><ele>703.0</ele><time>2026-05-05T11:58:19.564Z</time></trkpt><trkpt lat="38.1054618" lon="13.1531691"><ele>708.0</ele><time>2026-05-05T11:58:20.564Z</time></trkpt><trkpt lat="38.1055431" lon="13.1531823"><ele>713.0</ele><time>2026-05-05T11:58:21.565Z</time></trkpt><trkpt lat="38.1056212" lon="13.15318"><ele>718.0</ele><time>2026-05-05T11:58:22.564Z</time></trkpt><trkpt lat="38.1056902" lon="13.1531574"><ele>720.8</ele><time>2026-05-05T11:58:23.564Z</time></trkpt><trkpt lat="38.1057529" lon="13.1531304"><ele>723.5999999999999</ele><time>2026-05-05T11:58:24.564Z</time></trkpt><trkpt lat="38.1058649" lon="13.1531294"><ele>726.4000000000001</ele><time>2026-05-05T11:58:26.565Z</time></trkpt><trkpt lat="38.1059361" lon="13.1532333"><ele>729.2</ele><time>2026-05-05T11:58:28.564Z</time></trkpt><trkpt lat="38.1059939" lon="13.1533627"><ele>732.0</ele><time>2026-05-05T11:58:30.564Z</time></trkpt><trkpt lat="38.1060935" lon="13.1534075"><ele>727.1666666666666</ele><time>2026-05-05T11:58:32.564Z</time></trkpt><trkpt lat="38.1062153" lon="13.1533545"><ele>722.3333333333334</ele><time>2026-05-05T11:58:34.564Z</time></trkpt><trkpt lat="38.1062785" lon="13.153329"><ele>717.5</ele><time>2026-05-05T11:58:35.563Z</time></trkpt><trkpt lat="38.106342" lon="13.1533225"><ele>712.6666666666667</ele><time>2026-05-05T11:58:36.564Z</time></trkpt><trkpt lat="38.1064024" lon="13.1533469"><ele>707.8333333333334</ele><time>2026-05-05T11:58:37.564Z</time></trkpt><trkpt lat="38.1064572" lon="13.1533972"><ele>703.0</ele><time>2026-05-05T11:58:38.564Z</time></trkpt><trkpt lat="38.1065159" lon="13.1534528"><ele>703.5</ele><time>2026-05-05T11:58:39.564Z</time></trkpt><trkpt lat="38.1065831" lon="13.1535048"><ele>704.0</ele><time>2026-05-05T11:58:40.564Z</time></trkpt><trkpt lat="38.1066555" lon="13.1535423"><ele>704.5</ele><time>2026-05-05T11:58:41.566Z</time></trkpt><trkpt lat="38.1067295" lon="13.1535611"><ele>705.0</ele><time>2026-05-05T11:58:42.565Z</time></trkpt><trkpt lat="38.1068002" lon="13.1535631"><ele>705.5</ele><time>2026-05-05T11:58:43.566Z</time></trkpt><trkpt lat="38.1068645" lon="13.1535385"><ele>706.0</ele><time>2026-05-05T11:58:44.567Z</time></trkpt><trkpt lat="38.1069428" lon="13.1534363"><ele>706.0</ele><time>2026-05-05T11:58:46.566Z</time></trkpt><trkpt lat="38.1069664" lon="13.1532845"><ele>706.0</ele><time>2026-05-05T11:58:48.565Z</time></trkpt><trkpt lat="38.1069964" lon="13.15313"><ele>706.0</ele><time>2026-05-05T11:58:50.567Z</time></trkpt><trkpt lat="38.107049" lon="13.152994"><ele>706.0</ele><time>2026-05-05T11:58:52.566Z</time></trkpt><trkpt lat="38.1070848" lon="13.152927"><ele>706.0</ele><time>2026-05-05T11:58:53.566Z</time></trkpt><trkpt lat="38.1071242" lon="13.1528582"><ele>708.0</ele><time>2026-05-05T11:58:54.566Z</time></trkpt><trkpt lat="38.1071684" lon="13.1527917"><ele>710.0</ele><time>2026-05-05T11:58:55.567Z</time></trkpt><trkpt lat="38.1072198" lon="13.1527247"><ele>712.0</ele><time>2026-05-05T11:58:56.567Z</time></trkpt><trkpt lat="38.1072751" lon="13.1526553"><ele>714.0</ele><time>2026-05-05T11:58:57.565Z</time></trkpt><trkpt lat="38.1073331" lon="13.1525839"><ele>716.0</ele><time>2026-05-05T11:58:58.563Z</time></trkpt><trkpt lat="38.1073937" lon="13.152519"><ele>718.0</ele><time>2026-05-05T11:58:59.564Z</time></trkpt><trkpt lat="38.1074539" lon="13.1524548"><ele>718.0</ele><time>2026-05-05T11:59:00.565Z</time></trkpt><trkpt lat="38.1075055" lon="13.1523828"><ele>718.0</ele><time>2026-05-05T11:59:01.564Z</time></trkpt><trkpt lat="38.107555" lon="13.1523043"><ele>718.0</ele><time>2026-05-05T11:59:02.565Z</time></trkpt><trkpt lat="38.1076022" lon="13.1522277"><ele>718.0</ele><time>2026-05-05T11:59:03.564Z</time></trkpt><trkpt lat="38.1076519" lon="13.1521671"><ele>718.0</ele><time>2026-05-05T11:59:04.566Z</time></trkpt><trkpt lat="38.1077778" lon="13.1521213"><ele>718.0</ele><time>2026-05-05T11:59:06.565Z</time></trkpt><trkpt lat="38.1078548" lon="13.1521386"><ele>718.3333333333334</ele><time>2026-05-05T11:59:07.565Z</time></trkpt><trkpt lat="38.1079278" lon="13.1521777"><ele>718.6666666666667</ele><time>2026-05-05T11:59:08.565Z</time></trkpt><trkpt lat="38.1079978" lon="13.152224"><ele>719.0</ele><time>2026-05-05T11:59:09.563Z</time></trkpt><trkpt lat="38.1080667" lon="13.1522654"><ele>719.3333333333334</ele><time>2026-05-05T11:59:10.563Z</time></trkpt><trkpt lat="38.1081352" lon="13.1523072"><ele>719.6666666666666</ele><time>2026-05-05T11:59:11.564Z</time></trkpt><trkpt lat="38.1082009" lon="13.1523545"><ele>720.0</ele><time>2026-05-05T11:59:12.564Z</time></trkpt><trkpt lat="38.1082583" lon="13.1524117"><ele>720.0</ele><time>2026-05-05T11:59:13.564Z</time></trkpt><trkpt lat="38.1083167" lon="13.1524733"><ele>720.0</ele><time>2026-05-05T11:59:14.565Z</time></trkpt><trkpt lat="38.108375" lon="13.15253"><ele>720.0</ele><time>2026-05-05T11:59:15.563Z</time></trkpt><trkpt lat="38.108435" lon="13.1525817"><ele>720.0</ele><time>2026-05-05T11:59:16.564Z</time></trkpt><trkpt lat="38.1084983" lon="13.15264"><ele>720.0</ele><time>2026-05-05T11:59:17.565Z</time></trkpt><trkpt lat="38.1085583" lon="13.1526967"><ele>720.0</ele><time>2026-05-05T11:59:18.565Z</time></trkpt><trkpt lat="38.1086233" lon="13.1527417"><ele>720.0</ele><time>2026-05-05T11:59:19.565Z</time></trkpt><trkpt lat="38.108695" lon="13.1527717"><ele>720.0</ele><time>2026-05-05T11:59:20.564Z</time></trkpt><trkpt lat="38.10877" lon="13.152785"><ele>720.0</ele><time>2026-05-05T11:59:21.565Z</time></trkpt><trkpt lat="38.10884" lon="13.1527917"><ele>720.0</ele><time>2026-05-05T11:59:22.564Z</time></trkpt><trkpt lat="38.1089083" lon="13.1528"><ele>720.0</ele><time>2026-05-05T11:59:23.563Z</time></trkpt><trkpt lat="38.1089733" lon="13.15282"><ele>720.0</ele><time>2026-05-05T11:59:24.564Z</time></trkpt><trkpt lat="38.109035" lon="13.15285"><ele>720.0</ele><time>2026-05-05T11:59:25.566Z</time></trkpt><trkpt lat="38.10915" lon="13.1529167"><ele>721.3333333333334</ele><time>2026-05-05T11:59:27.565Z</time></trkpt><trkpt lat="38.1092083" lon="13.1529483"><ele>722.6666666666666</ele><time>2026-05-05T11:59:28.565Z</time></trkpt><trkpt lat="38.1092667" lon="13.152985"><ele>724.0</ele><time>2026-05-05T11:59:29.564Z</time></trkpt><trkpt lat="38.1093767" lon="13.15304"><ele>725.3333333333333</ele><time>2026-05-05T11:59:31.569Z</time></trkpt><trkpt lat="38.1094683" lon="13.15304"><ele>726.6666666666666</ele><time>2026-05-05T11:59:33.565Z</time></trkpt><trkpt lat="38.109505" lon="13.152935"><ele>728.0</ele><time>2026-05-05T11:59:35.564Z</time></trkpt><trkpt lat="38.1094833" lon="13.1527967"><ele>728.0</ele><time>2026-05-05T11:59:37.566Z</time></trkpt><trkpt lat="38.1094567" lon="13.1526433"><ele>728.0</ele><time>2026-05-05T11:59:39.565Z</time></trkpt><trkpt lat="38.1094533" lon="13.1525583"><ele>728.0</ele><time>2026-05-05T11:59:40.564Z</time></trkpt><trkpt lat="38.1094633" lon="13.1524683"><ele>728.0</ele><time>2026-05-05T11:59:41.565Z</time></trkpt><trkpt lat="38.109485" lon="13.1523767"><ele>728.0</ele><time>2026-05-05T11:59:42.565Z</time></trkpt><trkpt lat="38.1095133" lon="13.1522867"><ele>728.0</ele><time>2026-05-05T11:59:43.564Z</time></trkpt><trkpt lat="38.1095517" lon="13.1522017"><ele>729.1666666666666</ele><time>2026-05-05T11:59:44.565Z</time></trkpt><trkpt lat="38.1095933" lon="13.1521233"><ele>730.3333333333333</ele><time>2026-05-05T11:59:45.565Z</time></trkpt><trkpt lat="38.1096267" lon="13.15205"><ele>731.5</ele><time>2026-05-05T11:59:46.565Z</time></trkpt><trkpt lat="38.1096517" lon="13.151885"><ele>732.6666666666666</ele><time>2026-05-05T11:59:48.564Z</time></trkpt><trkpt lat="38.1096317" lon="13.1517917"><ele>733.8333333333334</ele><time>2026-05-05T11:59:49.565Z</time></trkpt><trkpt lat="38.1096117" lon="13.1516917"><ele>735.0</ele><time>2026-05-05T11:59:50.565Z</time></trkpt><trkpt lat="38.10958" lon="13.151585"><ele>736.8333333333334</ele><time>2026-05-05T11:59:51.566Z</time></trkpt><trkpt lat="38.1095467" lon="13.151475"><ele>738.6666666666666</ele><time>2026-05-05T11:59:52.564Z</time></trkpt><trkpt lat="38.1095133" lon="13.1513667"><ele>740.5</ele><time>2026-05-05T11:59:53.564Z</time></trkpt><trkpt lat="38.10947" lon="13.1512617"><ele>742.3333333333333</ele><time>2026-05-05T11:59:54.564Z</time></trkpt><trkpt lat="38.1094283" lon="13.1511683"><ele>744.1666666666666</ele><time>2026-05-05T11:59:55.566Z</time></trkpt><trkpt lat="38.109395" lon="13.1510833"><ele>746.0</ele><time>2026-05-05T11:59:56.565Z</time></trkpt><trkpt lat="38.1093733" lon="13.151"><ele>746.0</ele><time>2026-05-05T11:59:57.564Z</time></trkpt><trkpt lat="38.109365" lon="13.1509183"><ele>746.0</ele><time>2026-05-05T11:59:58.565Z</time></trkpt><trkpt lat="38.1094083" lon="13.150785"><ele>746.0</ele><time>2026-05-05T12:00:00.563Z</time></trkpt><trkpt lat="38.1095083" lon="13.1506983"><ele>746.0</ele><time>2026-05-05T12:00:02.565Z</time></trkpt><trkpt lat="38.1095721" lon="13.1506695"><ele>746.0</ele><time>2026-05-05T12:00:03.565Z</time></trkpt><trkpt lat="38.1096485" lon="13.1506545"><ele>746.0</ele><time>2026-05-05T12:00:04.564Z</time></trkpt><trkpt lat="38.1097352" lon="13.1506274"><ele>744.0</ele><time>2026-05-05T12:00:05.563Z</time></trkpt><trkpt lat="38.1098257" lon="13.1505895"><ele>742.0</ele><time>2026-05-05T12:00:06.564Z</time></trkpt><trkpt lat="38.1099108" lon="13.1505438"><ele>740.0</ele><time>2026-05-05T12:00:07.565Z</time></trkpt><trkpt lat="38.1099815" lon="13.1504914"><ele>738.0</ele><time>2026-05-05T12:00:08.565Z</time></trkpt><trkpt lat="38.1100342" lon="13.1504365"><ele>736.0</ele><time>2026-05-05T12:00:09.565Z</time></trkpt><trkpt lat="38.1101069" lon="13.1503284"><ele>736.0</ele><time>2026-05-05T12:00:11.565Z</time></trkpt><trkpt lat="38.1101389" lon="13.1501831"><ele>736.0</ele><time>2026-05-05T12:00:13.565Z</time></trkpt><trkpt lat="38.11014" lon="13.1500989"><ele>736.0</ele><time>2026-05-05T12:00:14.565Z</time></trkpt><trkpt lat="38.1101338" lon="13.1500108"><ele>736.0</ele><time>2026-05-05T12:00:15.564Z</time></trkpt><trkpt lat="38.1101297" lon="13.1499176"><ele>736.0</ele><time>2026-05-05T12:00:16.564Z</time></trkpt><trkpt lat="38.1101256" lon="13.1498302"><ele>736.0</ele><time>2026-05-05T12:00:17.565Z</time></trkpt><trkpt lat="38.1101251" lon="13.1497435"><ele>738.1666666666667</ele><time>2026-05-05T12:00:18.565Z</time></trkpt><trkpt lat="38.1101333" lon="13.1496534"><ele>740.3333333333334</ele><time>2026-05-05T12:00:19.564Z</time></trkpt><trkpt lat="38.1101401" lon="13.1495633"><ele>742.5</ele><time>2026-05-05T12:00:20.565Z</time></trkpt><trkpt lat="38.1101435" lon="13.1494743"><ele>744.6666666666666</ele><time>2026-05-05T12:00:21.564Z</time></trkpt><trkpt lat="38.1101666" lon="13.149335"><ele>746.8333333333333</ele><time>2026-05-05T12:00:23.564Z</time></trkpt><trkpt lat="38.1102338" lon="13.1492593"><ele>749.0</ele><time>2026-05-05T12:00:25.565Z</time></trkpt><trkpt lat="38.1103429" lon="13.1492457"><ele>749.0</ele><time>2026-05-05T12:00:27.563Z</time></trkpt><trkpt lat="38.1104217" lon="13.149263"><ele>749.0</ele><time>2026-05-05T12:00:28.564Z</time></trkpt><trkpt lat="38.1105188" lon="13.1492932"><ele>749.0</ele><time>2026-05-05T12:00:29.564Z</time></trkpt><trkpt lat="38.1106176" lon="13.1493351"><ele>749.0</ele><time>2026-05-05T12:00:30.564Z</time></trkpt><trkpt lat="38.1107122" lon="13.1493904"><ele>749.0</ele><time>2026-05-05T12:00:31.564Z</time></trkpt><trkpt lat="38.1107998" lon="13.1494449"><ele>748.0</ele><time>2026-05-05T12:00:32.567Z</time></trkpt><trkpt lat="38.1108853" lon="13.149495"><ele>747.0</ele><time>2026-05-05T12:00:33.565Z</time></trkpt><trkpt lat="38.110967" lon="13.1495428"><ele>746.0</ele><time>2026-05-05T12:00:34.564Z</time></trkpt><trkpt lat="38.1110347" lon="13.1496013"><ele>745.0</ele><time>2026-05-05T12:00:35.565Z</time></trkpt><trkpt lat="38.1110913" lon="13.1496746"><ele>744.0</ele><time>2026-05-05T12:00:36.564Z</time></trkpt><trkpt lat="38.1111448" lon="13.1497576"><ele>743.0</ele><time>2026-05-05T12:00:37.564Z</time></trkpt><trkpt lat="38.1111992" lon="13.1498399"><ele>739.8333333333333</ele><time>2026-05-05T12:00:38.563Z</time></trkpt><trkpt lat="38.1112546" lon="13.1499199"><ele>736.6666666666666</ele><time>2026-05-05T12:00:39.564Z</time></trkpt><trkpt lat="38.1113047" lon="13.1500054"><ele>733.5</ele><time>2026-05-05T12:00:40.564Z</time></trkpt><trkpt lat="38.1113525" lon="13.1500899"><ele>730.3333333333334</ele><time>2026-05-05T12:00:41.565Z</time></trkpt><trkpt lat="38.1114049" lon="13.1501665"><ele>727.1666666666667</ele><time>2026-05-05T12:00:42.563Z</time></trkpt><trkpt lat="38.1114617" lon="13.1502324"><ele>724.0</ele><time>2026-05-05T12:00:43.567Z</time></trkpt><trkpt lat="38.1115198" lon="13.1502968"><ele>728.8333333333334</ele><time>2026-05-05T12:00:44.565Z</time></trkpt><trkpt lat="38.111578" lon="13.1503659"><ele>733.6666666666667</ele><time>2026-05-05T12:00:45.565Z</time></trkpt><trkpt lat="38.1116391" lon="13.1504291"><ele>738.5</ele><time>2026-05-05T12:00:46.563Z</time></trkpt><trkpt lat="38.1117077" lon="13.1504841"><ele>743.3333333333334</ele><time>2026-05-05T12:00:47.567Z</time></trkpt><trkpt lat="38.1117768" lon="13.1505395"><ele>748.1666666666666</ele><time>2026-05-05T12:00:48.563Z</time></trkpt><trkpt lat="38.111834" lon="13.1506015"><ele>753.0</ele><time>2026-05-05T12:00:49.565Z</time></trkpt><trkpt lat="38.1118778" lon="13.1506706"><ele>750.5714285714286</ele><time>2026-05-05T12:00:50.565Z</time></trkpt><trkpt lat="38.111918" lon="13.1507486"><ele>748.1428571428571</ele><time>2026-05-05T12:00:51.563Z</time></trkpt><trkpt lat="38.1119576" lon="13.1508299"><ele>745.7142857142858</ele><time>2026-05-05T12:00:52.563Z</time></trkpt><trkpt lat="38.1119969" lon="13.1509098"><ele>743.2857142857142</ele><time>2026-05-05T12:00:53.565Z</time></trkpt><trkpt lat="38.1120235" lon="13.1509876"><ele>740.8571428571428</ele><time>2026-05-05T12:00:54.565Z</time></trkpt><trkpt lat="38.1120419" lon="13.151066"><ele>738.4285714285714</ele><time>2026-05-05T12:00:55.564Z</time></trkpt><trkpt lat="38.1120644" lon="13.1511487"><ele>736.0</ele><time>2026-05-05T12:00:56.565Z</time></trkpt><trkpt lat="38.1120965" lon="13.151233"><ele>736.0</ele><time>2026-05-05T12:00:57.563Z</time></trkpt><trkpt lat="38.1121405" lon="13.1513083"><ele>736.0</ele><time>2026-05-05T12:00:58.564Z</time></trkpt><trkpt lat="38.1121912" lon="13.1513691"><ele>736.0</ele><time>2026-05-05T12:00:59.563Z</time></trkpt><trkpt lat="38.1122418" lon="13.1514189"><ele>736.0</ele><time>2026-05-05T12:01:00.564Z</time></trkpt><trkpt lat="38.1122929" lon="13.1514677"><ele>736.0</ele><time>2026-05-05T12:01:01.565Z</time></trkpt><trkpt lat="38.1123451" lon="13.1515225"><ele>736.0</ele><time>2026-05-05T12:01:02.565Z</time></trkpt><trkpt lat="38.112393" lon="13.1515879"><ele>736.0</ele><time>2026-05-05T12:01:03.563Z</time></trkpt><trkpt lat="38.1124366" lon="13.1516604"><ele>739.3333333333334</ele><time>2026-05-05T12:01:04.565Z</time></trkpt><trkpt lat="38.1124764" lon="13.1517258"><ele>742.6666666666667</ele><time>2026-05-05T12:01:05.564Z</time></trkpt><trkpt lat="38.1125588" lon="13.1518523"><ele>746.0</ele><time>2026-05-05T12:01:07.565Z</time></trkpt><trkpt lat="38.1126043" lon="13.1519225"><ele>749.3333333333334</ele><time>2026-05-05T12:01:08.565Z</time></trkpt><trkpt lat="38.1126513" lon="13.1519961"><ele>752.6666666666666</ele><time>2026-05-05T12:01:09.564Z</time></trkpt><trkpt lat="38.1127025" lon="13.1520769"><ele>756.0</ele><time>2026-05-05T12:01:10.564Z</time></trkpt><trkpt lat="38.1127534" lon="13.1521568"><ele>756.0</ele><time>2026-05-05T12:01:11.564Z</time></trkpt><trkpt lat="38.1128006" lon="13.1522322"><ele>756.0</ele><time>2026-05-05T12:01:12.565Z</time></trkpt><trkpt lat="38.1128471" lon="13.1523097"><ele>756.0</ele><time>2026-05-05T12:01:13.565Z</time></trkpt><trkpt lat="38.1128925" lon="13.1523924"><ele>756.0</ele><time>2026-05-05T12:01:14.565Z</time></trkpt><trkpt lat="38.1129294" lon="13.1524812"><ele>756.0</ele><time>2026-05-05T12:01:15.564Z</time></trkpt><trkpt lat="38.1129641" lon="13.152574"><ele>756.0</ele><time>2026-05-05T12:01:16.564Z</time></trkpt><trkpt lat="38.1129942" lon="13.1526694"><ele>751.2857142857143</ele><time>2026-05-05T12:01:17.565Z</time></trkpt><trkpt lat="38.113021" lon="13.1527592"><ele>746.5714285714286</ele><time>2026-05-05T12:01:18.565Z</time></trkpt><trkpt lat="38.1130464" lon="13.1528461"><ele>741.8571428571429</ele><time>2026-05-05T12:01:19.564Z</time></trkpt><trkpt lat="38.1130733" lon="13.1529311"><ele>737.1428571428571</ele><time>2026-05-05T12:01:20.565Z</time></trkpt><trkpt lat="38.1131085" lon="13.1530123"><ele>732.4285714285714</ele><time>2026-05-05T12:01:21.564Z</time></trkpt><trkpt lat="38.1131485" lon="13.1530877"><ele>727.7142857142858</ele><time>2026-05-05T12:01:22.563Z</time></trkpt><trkpt lat="38.1131894" lon="13.1531648"><ele>723.0</ele><time>2026-05-05T12:01:23.564Z</time></trkpt><trkpt lat="38.1132289" lon="13.1532447"><ele>726.1428571428572</ele><time>2026-05-05T12:01:24.563Z</time></trkpt><trkpt lat="38.1132697" lon="13.1533208"><ele>729.2857142857143</ele><time>2026-05-05T12:01:25.565Z</time></trkpt><trkpt lat="38.1133145" lon="13.1533912"><ele>732.4285714285714</ele><time>2026-05-05T12:01:26.564Z</time></trkpt><trkpt lat="38.1133683" lon="13.1534493"><ele>735.5714285714287</ele><time>2026-05-05T12:01:27.564Z</time></trkpt><trkpt lat="38.1134336" lon="13.1534859"><ele>738.7142857142857</ele><time>2026-05-05T12:01:28.565Z</time></trkpt><trkpt lat="38.1135056" lon="13.1534977"><ele>741.8571428571429</ele><time>2026-05-05T12:01:29.565Z</time></trkpt><trkpt lat="38.1135789" lon="13.1534931"><ele>745.0</ele><time>2026-05-05T12:01:30.566Z</time></trkpt><trkpt lat="38.1136507" lon="13.1534818"><ele>745.0</ele><time>2026-05-05T12:01:31.566Z</time></trkpt><trkpt lat="38.1137195" lon="13.1534726"><ele>745.0</ele><time>2026-05-05T12:01:32.566Z</time></trkpt><trkpt lat="38.1137873" lon="13.1534721"><ele>745.0</ele><time>2026-05-05T12:01:33.566Z</time></trkpt><trkpt lat="38.1138569" lon="13.1534617"><ele>745.0</ele><time>2026-05-05T12:01:34.565Z</time></trkpt><trkpt lat="38.1139265" lon="13.1534376"><ele>745.0</ele><time>2026-05-05T12:01:35.565Z</time></trkpt><trkpt lat="38.1139964" lon="13.1534029"><ele>745.0</ele><time>2026-05-05T12:01:36.564Z</time></trkpt><trkpt lat="38.1140641" lon="13.1533647"><ele>745.0</ele><time>2026-05-05T12:01:37.565Z</time></trkpt><trkpt lat="38.1141319" lon="13.1533283"><ele>747.5714285714286</ele><time>2026-05-05T12:01:38.566Z</time></trkpt><trkpt lat="38.1142015" lon="13.1532996"><ele>750.1428571428571</ele><time>2026-05-05T12:01:39.565Z</time></trkpt><trkpt lat="38.1142702" lon="13.1532773"><ele>752.7142857142858</ele><time>2026-05-05T12:01:40.566Z</time></trkpt><trkpt lat="38.1143382" lon="13.1532526"><ele>755.2857142857142</ele><time>2026-05-05T12:01:41.566Z</time></trkpt><trkpt lat="38.1144038" lon="13.1532233"><ele>757.8571428571429</ele><time>2026-05-05T12:01:42.565Z</time></trkpt><trkpt lat="38.1144702" lon="13.1531878"><ele>760.4285714285714</ele><time>2026-05-05T12:01:43.566Z</time></trkpt><trkpt lat="38.1145378" lon="13.1531449"><ele>763.0</ele><time>2026-05-05T12:01:44.566Z</time></trkpt><trkpt lat="38.1146034" lon="13.1530983"><ele>766.7142857142857</ele><time>2026-05-05T12:01:45.563Z</time></trkpt><trkpt lat="38.1146671" lon="13.1530539"><ele>770.4285714285714</ele><time>2026-05-05T12:01:46.564Z</time></trkpt><trkpt lat="38.1147303" lon="13.1530112"><ele>774.1428571428571</ele><time>2026-05-05T12:01:47.563Z</time></trkpt><trkpt lat="38.114795" lon="13.1529735"><ele>777.8571428571429</ele><time>2026-05-05T12:01:48.564Z</time></trkpt><trkpt lat="38.1148656" lon="13.1529447"><ele>781.5714285714286</ele><time>2026-05-05T12:01:49.564Z</time></trkpt><trkpt lat="38.1149387" lon="13.1529211"><ele>785.2857142857142</ele><time>2026-05-05T12:01:50.564Z</time></trkpt><trkpt lat="38.1150095" lon="13.1528968"><ele>789.0</ele><time>2026-05-05T12:01:51.565Z</time></trkpt><trkpt lat="38.1150769" lon="13.1528693"><ele>788.9999999999999</ele><time>2026-05-05T12:01:52.563Z</time></trkpt><trkpt lat="38.1151434" lon="13.1528366"><ele>789.0</ele><time>2026-05-05T12:01:53.565Z</time></trkpt><trkpt lat="38.1152069" lon="13.1527988"><ele>789.0</ele><time>2026-05-05T12:01:54.565Z</time></trkpt><trkpt lat="38.1152656" lon="13.1527574"><ele>789.0</ele><time>2026-05-05T12:01:55.566Z</time></trkpt><trkpt lat="38.1153222" lon="13.1527137"><ele>789.0</ele><time>2026-05-05T12:01:56.565Z</time></trkpt><trkpt lat="38.1153811" lon="13.1526656"><ele>788.9999999999999</ele><time>2026-05-05T12:01:57.564Z</time></trkpt><trkpt lat="38.115437" lon="13.1526085"><ele>789.0</ele><time>2026-05-05T12:01:58.564Z</time></trkpt><trkpt lat="38.1154921" lon="13.1525479"><ele>788.9999999999999</ele><time>2026-05-05T12:01:59.564Z</time></trkpt><trkpt lat="38.1155497" lon="13.1524958"><ele>789.0</ele><time>2026-05-05T12:02:00.564Z</time></trkpt><trkpt lat="38.1156113" lon="13.1524475"><ele>789.0</ele><time>2026-05-05T12:02:01.564Z</time></trkpt><trkpt lat="38.1156749" lon="13.1523994"><ele>789.0</ele><time>2026-05-05T12:02:02.565Z</time></trkpt><trkpt lat="38.1157412" lon="13.1523525"><ele>789.0</ele><time>2026-05-05T12:02:03.564Z</time></trkpt><trkpt lat="38.1158052" lon="13.1523091"><ele>788.9999999999999</ele><time>2026-05-05T12:02:04.564Z</time></trkpt><trkpt lat="38.1158586" lon="13.1522665"><ele>789.0</ele><time>2026-05-05T12:02:05.564Z</time></trkpt><trkpt lat="38.1159325" lon="13.1521923"><ele>793.0</ele><time>2026-05-05T12:02:07.564Z</time></trkpt><trkpt lat="38.1159933" lon="13.1521175"><ele>797.0</ele><time>2026-05-05T12:02:09.563Z</time></trkpt><trkpt lat="38.1160696" lon="13.1520754"><ele>801.0</ele><time>2026-05-05T12:02:11.564Z</time></trkpt><trkpt lat="38.1161546" lon="13.152047"><ele>805.0</ele><time>2026-05-05T12:02:13.566Z</time></trkpt><trkpt lat="38.116243" lon="13.1520019"><ele>809.0</ele><time>2026-05-05T12:02:15.563Z</time></trkpt><trkpt lat="38.1163283" lon="13.1519505"><ele>813.0</ele><time>2026-05-05T12:02:17.564Z</time></trkpt><trkpt lat="38.1164241" lon="13.1518963"><ele>813.0</ele><time>2026-05-05T12:02:19.564Z</time></trkpt><trkpt lat="38.116539" lon="13.1518635"><ele>813.0</ele><time>2026-05-05T12:02:21.564Z</time></trkpt><trkpt lat="38.1166022" lon="13.1518651"><ele>813.0</ele><time>2026-05-05T12:02:22.566Z</time></trkpt><trkpt lat="38.1166648" lon="13.1518837"><ele>813.0</ele><time>2026-05-05T12:02:23.565Z</time></trkpt><trkpt lat="38.1167286" lon="13.1519066"><ele>813.0</ele><time>2026-05-05T12:02:24.564Z</time></trkpt><trkpt lat="38.1167951" lon="13.1519309"><ele>813.0</ele><time>2026-05-05T12:02:25.564Z</time></trkpt><trkpt lat="38.1168576" lon="13.1519579"><ele>813.0</ele><time>2026-05-05T12:02:26.565Z</time></trkpt><trkpt lat="38.1169585" lon="13.1520058"><ele>810.8</ele><time>2026-05-05T12:02:28.564Z</time></trkpt><trkpt lat="38.1170233" lon="13.15206"><ele>808.5999999999999</ele><time>2026-05-05T12:02:30.564Z</time></trkpt><trkpt lat="38.11709" lon="13.1520983"><ele>806.4000000000001</ele><time>2026-05-05T12:02:41.563Z</time></trkpt><trkpt lat="38.1171583" lon="13.15216"><ele>804.2</ele><time>2026-05-05T12:02:43.564Z</time></trkpt><trkpt lat="38.1172433" lon="13.1522433"><ele>802.0</ele><time>2026-05-05T12:02:45.563Z</time></trkpt><trkpt lat="38.1173433" lon="13.1523217"><ele>807.0</ele><time>2026-05-05T12:02:47.563Z</time></trkpt><trkpt lat="38.1174467" lon="13.15238"><ele>812.0</ele><time>2026-05-05T12:02:49.565Z</time></trkpt><trkpt lat="38.117555" lon="13.1523933"><ele>817.0</ele><time>2026-05-05T12:02:51.564Z</time></trkpt><trkpt lat="38.1176717" lon="13.15237"><ele>822.0</ele><time>2026-05-05T12:02:53.564Z</time></trkpt><trkpt lat="38.117795" lon="13.1523367"><ele>822.0</ele><time>2026-05-05T12:02:55.564Z</time></trkpt><trkpt lat="38.1179183" lon="13.1523117"><ele>822.0</ele><time>2026-05-05T12:02:57.563Z</time></trkpt><trkpt lat="38.11798" lon="13.1522933"><ele>822.0</ele><time>2026-05-05T12:02:58.563Z</time></trkpt><trkpt lat="38.1180867" lon="13.1522567"><ele>822.0</ele><time>2026-05-05T12:03:00.564Z</time></trkpt><trkpt lat="38.11819" lon="13.1522217"><ele>822.0</ele><time>2026-05-05T12:03:02.564Z</time></trkpt><trkpt lat="38.1182933" lon="13.1521783"><ele>823.8</ele><time>2026-05-05T12:03:04.565Z</time></trkpt><trkpt lat="38.1184017" lon="13.1521283"><ele>825.6</ele><time>2026-05-05T12:03:06.564Z</time></trkpt><trkpt lat="38.118515" lon="13.152085"><ele>827.4</ele><time>2026-05-05T12:03:08.565Z</time></trkpt><trkpt lat="38.1186383" lon="13.1520533"><ele>829.1999999999999</ele><time>2026-05-05T12:03:10.564Z</time></trkpt><trkpt lat="38.1187017" lon="13.15204"><ele>831.0</ele><time>2026-05-05T12:03:11.563Z</time></trkpt><trkpt lat="38.11877" lon="13.1520267"><ele>830.9999999999999</ele><time>2026-05-05T12:03:12.565Z</time></trkpt><trkpt lat="38.1188383" lon="13.1520133"><ele>831.0</ele><time>2026-05-05T12:03:13.565Z</time></trkpt><trkpt lat="38.1189067" lon="13.1520033"><ele>831.0</ele><time>2026-05-05T12:03:14.565Z</time></trkpt><trkpt lat="38.1189783" lon="13.1519967"><ele>831.0</ele><time>2026-05-05T12:03:15.564Z</time></trkpt><trkpt lat="38.11905" lon="13.1519917"><ele>831.0</ele><time>2026-05-05T12:03:16.564Z</time></trkpt><trkpt lat="38.119125" lon="13.1519867"><ele>830.9999999999999</ele><time>2026-05-05T12:03:17.564Z</time></trkpt><trkpt lat="38.1192" lon="13.1519833"><ele>831.0</ele><time>2026-05-05T12:03:18.565Z</time></trkpt><trkpt lat="38.1192767" lon="13.151985"><ele>829.3333333333334</ele><time>2026-05-05T12:03:19.564Z</time></trkpt><trkpt lat="38.1193583" lon="13.1519817"><ele>827.6666666666667</ele><time>2026-05-05T12:03:20.565Z</time></trkpt><trkpt lat="38.1194417" lon="13.151975"><ele>826.0</ele><time>2026-05-05T12:03:21.564Z</time></trkpt><trkpt lat="38.1195233" lon="13.1519617"><ele>824.3333333333334</ele><time>2026-05-05T12:03:22.563Z</time></trkpt><trkpt lat="38.1196083" lon="13.1519517"><ele>822.6666666666667</ele><time>2026-05-05T12:03:23.565Z</time></trkpt><trkpt lat="38.11969" lon="13.15195"><ele>821.0</ele><time>2026-05-05T12:03:24.563Z</time></trkpt><trkpt lat="38.1197717" lon="13.1519467"><ele>821.0000000000001</ele><time>2026-05-05T12:03:25.565Z</time></trkpt><trkpt lat="38.1198483" lon="13.1519417"><ele>821.0</ele><time>2026-05-05T12:03:26.564Z</time></trkpt><trkpt lat="38.1199283" lon="13.151935"><ele>821.0</ele><time>2026-05-05T12:03:27.564Z</time></trkpt><trkpt lat="38.1200067" lon="13.1519183"><ele>821.0</ele><time>2026-05-05T12:03:28.564Z</time></trkpt><trkpt lat="38.120085" lon="13.1519017"><ele>821.0000000000001</ele><time>2026-05-05T12:03:29.564Z</time></trkpt><trkpt lat="38.1201667" lon="13.1518817"><ele>821.0</ele><time>2026-05-05T12:03:30.565Z</time></trkpt><trkpt lat="38.1202483" lon="13.1518567"><ele>819.5000000000001</ele><time>2026-05-05T12:03:31.563Z</time></trkpt><trkpt lat="38.1203283" lon="13.1518317"><ele>818.0</ele><time>2026-05-05T12:03:32.563Z</time></trkpt><trkpt lat="38.1204083" lon="13.1518033"><ele>816.5</ele><time>2026-05-05T12:03:33.563Z</time></trkpt><trkpt lat="38.1204867" lon="13.15177"><ele>815.0</ele><time>2026-05-05T12:03:34.564Z</time></trkpt><trkpt lat="38.1205617" lon="13.1517383"><ele>813.5000000000001</ele><time>2026-05-05T12:03:35.563Z</time></trkpt><trkpt lat="38.1206383" lon="13.1517067"><ele>812.0</ele><time>2026-05-05T12:03:36.563Z</time></trkpt><trkpt lat="38.1207167" lon="13.1516767"><ele>811.2857142857143</ele><time>2026-05-05T12:03:37.563Z</time></trkpt><trkpt lat="38.12079" lon="13.15166"><ele>810.5714285714286</ele><time>2026-05-05T12:03:38.564Z</time></trkpt><trkpt lat="38.1208617" lon="13.1516467"><ele>809.8571428571429</ele><time>2026-05-05T12:03:39.564Z</time></trkpt><trkpt lat="38.1209367" lon="13.15163"><ele>809.1428571428571</ele><time>2026-05-05T12:03:40.563Z</time></trkpt><trkpt lat="38.12101" lon="13.151615"><ele>808.4285714285714</ele><time>2026-05-05T12:03:41.565Z</time></trkpt><trkpt lat="38.1210817" lon="13.151605"><ele>807.7142857142858</ele><time>2026-05-05T12:03:42.564Z</time></trkpt><trkpt lat="38.121155" lon="13.1515967"><ele>807.0</ele><time>2026-05-05T12:03:43.564Z</time></trkpt><trkpt lat="38.1212333" lon="13.1515867"><ele>807.0</ele><time>2026-05-05T12:03:44.565Z</time></trkpt><trkpt lat="38.1213133" lon="13.1515817"><ele>807.0</ele><time>2026-05-05T12:03:45.564Z</time></trkpt><trkpt lat="38.121395" lon="13.1515817"><ele>807.0</ele><time>2026-05-05T12:03:46.564Z</time></trkpt><trkpt lat="38.1214767" lon="13.1515867"><ele>807.0</ele><time>2026-05-05T12:03:47.565Z</time></trkpt><trkpt lat="38.1215567" lon="13.1515917"><ele>807.0</ele><time>2026-05-05T12:03:48.563Z</time></trkpt><trkpt lat="38.1216383" lon="13.151595"><ele>807.0</ele><time>2026-05-05T12:03:49.568Z</time></trkpt><trkpt lat="38.1217167" lon="13.1516"><ele>806.5</ele><time>2026-05-05T12:03:50.565Z</time></trkpt><trkpt lat="38.1217967" lon="13.1516067"><ele>806.0</ele><time>2026-05-05T12:03:51.564Z</time></trkpt><trkpt lat="38.121875" lon="13.1516117"><ele>805.5</ele><time>2026-05-05T12:03:52.563Z</time></trkpt><trkpt lat="38.121955" lon="13.15162"><ele>805.0</ele><time>2026-05-05T12:03:53.568Z</time></trkpt><trkpt lat="38.122035" lon="13.1516317"><ele>804.5</ele><time>2026-05-05T12:03:54.564Z</time></trkpt><trkpt lat="38.1221133" lon="13.1516417"><ele>804.0</ele><time>2026-05-05T12:03:55.565Z</time></trkpt><trkpt lat="38.12219" lon="13.151645"><ele>804.0</ele><time>2026-05-05T12:03:56.565Z</time></trkpt><trkpt lat="38.122265" lon="13.1516383"><ele>804.0</ele><time>2026-05-05T12:03:57.563Z</time></trkpt><trkpt lat="38.12234" lon="13.1516217"><ele>804.0</ele><time>2026-05-05T12:03:58.564Z</time></trkpt><trkpt lat="38.122415" lon="13.1515983"><ele>804.0</ele><time>2026-05-05T12:03:59.564Z</time></trkpt><trkpt lat="38.12249" lon="13.15157"><ele>804.0</ele><time>2026-05-05T12:04:00.564Z</time></trkpt><trkpt lat="38.1225633" lon="13.1515433"><ele>804.0</ele><time>2026-05-05T12:04:01.564Z</time></trkpt><trkpt lat="38.1226367" lon="13.1515167"><ele>811.8571428571428</ele><time>2026-05-05T12:04:02.565Z</time></trkpt><trkpt lat="38.1227067" lon="13.1514917"><ele>819.7142857142858</ele><time>2026-05-05T12:04:03.564Z</time></trkpt><trkpt lat="38.1227717" lon="13.151455"><ele>827.5714285714286</ele><time>2026-05-05T12:04:04.564Z</time></trkpt><trkpt lat="38.1228333" lon="13.1514117"><ele>835.4285714285713</ele><time>2026-05-05T12:04:05.564Z</time></trkpt><trkpt lat="38.1228917" lon="13.1513683"><ele>843.2857142857142</ele><time>2026-05-05T12:04:06.564Z</time></trkpt><trkpt lat="38.122945" lon="13.1513233"><ele>851.1428571428571</ele><time>2026-05-05T12:04:07.564Z</time></trkpt><trkpt lat="38.122995" lon="13.1512717"><ele>859.0</ele><time>2026-05-05T12:04:08.564Z</time></trkpt><trkpt lat="38.1230483" lon="13.151215"><ele>858.9999999999999</ele><time>2026-05-05T12:04:09.564Z</time></trkpt><trkpt lat="38.1231067" lon="13.1511683"><ele>859.0</ele><time>2026-05-05T12:04:10.563Z</time></trkpt><trkpt lat="38.1231667" lon="13.1511233"><ele>859.0</ele><time>2026-05-05T12:04:11.563Z</time></trkpt><trkpt lat="38.1232283" lon="13.1510867"><ele>859.0</ele><time>2026-05-05T12:04:12.565Z</time></trkpt><trkpt lat="38.1232917" lon="13.1510483"><ele>859.0</ele><time>2026-05-05T12:04:13.564Z</time></trkpt><trkpt lat="38.123355" lon="13.1510117"><ele>858.9999999999999</ele><time>2026-05-05T12:04:14.564Z</time></trkpt><trkpt lat="38.1234217" lon="13.15097"><ele>859.0</ele><time>2026-05-05T12:04:15.564Z</time></trkpt><trkpt lat="38.1234917" lon="13.15093"><ele>862.6666666666666</ele><time>2026-05-05T12:04:16.564Z</time></trkpt><trkpt lat="38.1235633" lon="13.1508933"><ele>866.3333333333333</ele><time>2026-05-05T12:04:17.564Z</time></trkpt><trkpt lat="38.123635" lon="13.1508533"><ele>870.0</ele><time>2026-05-05T12:04:18.563Z</time></trkpt><trkpt lat="38.123705" lon="13.1508117"><ele>873.6666666666667</ele><time>2026-05-05T12:04:19.564Z</time></trkpt><trkpt lat="38.1237733" lon="13.1507667"><ele>877.3333333333334</ele><time>2026-05-05T12:04:20.564Z</time></trkpt><trkpt lat="38.1238417" lon="13.1507217"><ele>881.0</ele><time>2026-05-05T12:04:21.564Z</time></trkpt><trkpt lat="38.1239117" lon="13.1506767"><ele>881.0000000000001</ele><time>2026-05-05T12:04:22.563Z</time></trkpt><trkpt lat="38.1239827" lon="13.1506381"><ele>881.0</ele><time>2026-05-05T12:04:23.564Z</time></trkpt><trkpt lat="38.1240547" lon="13.1506101"><ele>881.0</ele><time>2026-05-05T12:04:24.564Z</time></trkpt><trkpt lat="38.1241278" lon="13.150597"><ele>881.0</ele><time>2026-05-05T12:04:25.564Z</time></trkpt><trkpt lat="38.1242032" lon="13.1505955"><ele>881.0000000000001</ele><time>2026-05-05T12:04:26.564Z</time></trkpt><trkpt lat="38.1242802" lon="13.1505946"><ele>881.0</ele><time>2026-05-05T12:04:27.564Z</time></trkpt><trkpt lat="38.1243582" lon="13.1505947"><ele>880.5714285714286</ele><time>2026-05-05T12:04:28.564Z</time></trkpt><trkpt lat="38.1244348" lon="13.1506046"><ele>880.1428571428572</ele><time>2026-05-05T12:04:29.562Z</time></trkpt><trkpt lat="38.1245085" lon="13.1506219"><ele>879.7142857142858</ele><time>2026-05-05T12:04:30.564Z</time></trkpt><trkpt lat="38.1245819" lon="13.1506407"><ele>879.2857142857142</ele><time>2026-05-05T12:04:31.563Z</time></trkpt><trkpt lat="38.1246549" lon="13.150659"><ele>878.8571428571429</ele><time>2026-05-05T12:04:32.565Z</time></trkpt><trkpt lat="38.1247282" lon="13.1506727"><ele>878.4285714285714</ele><time>2026-05-05T12:04:33.564Z</time></trkpt><trkpt lat="38.1248003" lon="13.150686"><ele>878.0</ele><time>2026-05-05T12:04:34.563Z</time></trkpt><trkpt lat="38.1248719" lon="13.1507004"><ele>878.0000000000001</ele><time>2026-05-05T12:04:35.565Z</time></trkpt><trkpt lat="38.1249445" lon="13.1507175"><ele>878.0</ele><time>2026-05-05T12:04:36.564Z</time></trkpt><trkpt lat="38.1250128" lon="13.1507277"><ele>878.0</ele><time>2026-05-05T12:04:37.563Z</time></trkpt><trkpt lat="38.125133" lon="13.1507074"><ele>878.0</ele><time>2026-05-05T12:04:39.564Z</time></trkpt><trkpt lat="38.125192" lon="13.1506703"><ele>878.0000000000001</ele><time>2026-05-05T12:04:40.564Z</time></trkpt><trkpt lat="38.1252531" lon="13.1506302"><ele>878.0</ele><time>2026-05-05T12:04:41.564Z</time></trkpt><trkpt lat="38.1253151" lon="13.1505915"><ele>878.0</ele><time>2026-05-05T12:04:42.564Z</time></trkpt><trkpt lat="38.1253781" lon="13.1505497"><ele>878.0</ele><time>2026-05-05T12:04:43.563Z</time></trkpt><trkpt lat="38.1254415" lon="13.1505062"><ele>878.0</ele><time>2026-05-05T12:04:44.564Z</time></trkpt><trkpt lat="38.1255035" lon="13.1504632"><ele>878.0</ele><time>2026-05-05T12:04:45.563Z</time></trkpt><trkpt lat="38.1255664" lon="13.1504239"><ele>878.0</ele><time>2026-05-05T12:04:46.564Z</time></trkpt><trkpt lat="38.1256301" lon="13.1503896"><ele>878.0</ele><time>2026-05-05T12:04:47.564Z</time></trkpt><trkpt lat="38.125699" lon="13.1503653"><ele>878.0</ele><time>2026-05-05T12:04:48.563Z</time></trkpt><trkpt lat="38.1257722" lon="13.1503453"><ele>876.4285714285714</ele><time>2026-05-05T12:04:49.564Z</time></trkpt><trkpt lat="38.1258448" lon="13.1503278"><ele>874.8571428571429</ele><time>2026-05-05T12:04:50.564Z</time></trkpt><trkpt lat="38.1259162" lon="13.1503145"><ele>873.2857142857142</ele><time>2026-05-05T12:04:51.564Z</time></trkpt><trkpt lat="38.1259855" lon="13.1503023"><ele>871.7142857142858</ele><time>2026-05-05T12:04:52.563Z</time></trkpt><trkpt lat="38.1260549" lon="13.1502924"><ele>870.1428571428572</ele><time>2026-05-05T12:04:53.565Z</time></trkpt><trkpt lat="38.1261251" lon="13.1502898"><ele>868.5714285714286</ele><time>2026-05-05T12:04:54.564Z</time></trkpt><trkpt lat="38.1261964" lon="13.1502872"><ele>867.0</ele><time>2026-05-05T12:04:55.564Z</time></trkpt><trkpt lat="38.1262654" lon="13.1502842"><ele>867.0</ele><time>2026-05-05T12:04:56.563Z</time></trkpt><trkpt lat="38.1263319" lon="13.1502784"><ele>867.0</ele><time>2026-05-05T12:04:57.564Z</time></trkpt><trkpt lat="38.1263968" lon="13.1502721"><ele>867.0</ele><time>2026-05-05T12:04:58.563Z</time></trkpt><trkpt lat="38.1264629" lon="13.1502657"><ele>867.0</ele><time>2026-05-05T12:04:59.564Z</time></trkpt><trkpt lat="38.1265268" lon="13.1502602"><ele>867.0</ele><time>2026-05-05T12:05:00.563Z</time></trkpt><trkpt lat="38.1265902" lon="13.1502588"><ele>867.0</ele><time>2026-05-05T12:05:01.565Z</time></trkpt><trkpt lat="38.1266536" lon="13.1502551"><ele>867.0</ele><time>2026-05-05T12:05:02.565Z</time></trkpt><trkpt lat="38.1267753" lon="13.1502466"><ele>866.0</ele><time>2026-05-05T12:05:04.564Z</time></trkpt><trkpt lat="38.1268849" lon="13.1502308"><ele>865.0</ele><time>2026-05-05T12:05:06.564Z</time></trkpt><trkpt lat="38.1269874" lon="13.1501882"><ele>864.0</ele><time>2026-05-05T12:05:08.564Z</time></trkpt><trkpt lat="38.1270597" lon="13.1501432"><ele>863.0</ele><time>2026-05-05T12:05:10.564Z</time></trkpt><trkpt lat="38.1271156" lon="13.1500968"><ele>862.0</ele><time>2026-05-05T12:05:12.564Z</time></trkpt><trkpt lat="38.1271035" lon="13.1500151"><ele>861.0</ele><time>2026-05-05T12:05:15.564Z</time></trkpt><trkpt lat="38.1270258" lon="13.1500133"><ele>861.0</ele><time>2026-05-05T12:05:17.563Z</time></trkpt><trkpt lat="38.1269364" lon="13.1500452"><ele>860.9999999999999</ele><time>2026-05-05T12:05:19.564Z</time></trkpt><trkpt lat="38.1268402" lon="13.1500755"><ele>860.9999999999999</ele><time>2026-05-05T12:05:21.563Z</time></trkpt><trkpt lat="38.1267417" lon="13.1500696"><ele>861.0</ele><time>2026-05-05T12:05:23.564Z</time></trkpt><trkpt lat="38.1266406" lon="13.1500487"><ele>861.0</ele><time>2026-05-05T12:05:25.564Z</time></trkpt><trkpt lat="38.1265237" lon="13.1500192"><ele>862.0</ele><time>2026-05-05T12:05:27.563Z</time></trkpt><trkpt lat="38.1264032" lon="13.1499994"><ele>863.0</ele><time>2026-05-05T12:05:29.564Z</time></trkpt><trkpt lat="38.1262806" lon="13.1499909"><ele>864.0</ele><time>2026-05-05T12:05:31.564Z</time></trkpt><trkpt lat="38.1262171" lon="13.1499836"><ele>865.0</ele><time>2026-05-05T12:05:32.564Z</time></trkpt><trkpt lat="38.1261532" lon="13.1499721"><ele>866.0</ele><time>2026-05-05T12:05:33.565Z</time></trkpt><trkpt lat="38.1260902" lon="13.1499596"><ele>867.0</ele><time>2026-05-05T12:05:34.565Z</time></trkpt><trkpt lat="38.1260279" lon="13.1499466"><ele>867.0</ele><time>2026-05-05T12:05:35.564Z</time></trkpt><trkpt lat="38.125965" lon="13.1499405"><ele>867.0</ele><time>2026-05-05T12:05:36.565Z</time></trkpt><trkpt lat="38.1259006" lon="13.1499388"><ele>867.0</ele><time>2026-05-05T12:05:37.564Z</time></trkpt><trkpt lat="38.1258355" lon="13.1499355"><ele>867.0</ele><time>2026-05-05T12:05:38.564Z</time></trkpt><trkpt lat="38.1257674" lon="13.1499286"><ele>867.0</ele><time>2026-05-05T12:05:39.564Z</time></trkpt><trkpt lat="38.1257027" lon="13.1499263"><ele>867.0</ele><time>2026-05-05T12:05:40.564Z</time></trkpt><trkpt lat="38.1255762" lon="13.1499361"><ele>868.5714285714286</ele><time>2026-05-05T12:05:42.563Z</time></trkpt><trkpt lat="38.1255115" lon="13.1499476"><ele>870.1428571428572</ele><time>2026-05-05T12:05:43.565Z</time></trkpt><trkpt lat="38.1254469" lon="13.149957"><ele>871.7142857142858</ele><time>2026-05-05T12:05:44.564Z</time></trkpt><trkpt lat="38.1253803" lon="13.1499693"><ele>873.2857142857142</ele><time>2026-05-05T12:05:45.569Z</time></trkpt><trkpt lat="38.125314" lon="13.1499845"><ele>874.8571428571429</ele><time>2026-05-05T12:05:46.563Z</time></trkpt><trkpt lat="38.1252467" lon="13.1500003"><ele>876.4285714285714</ele><time>2026-05-05T12:05:47.565Z</time></trkpt><trkpt lat="38.1251827" lon="13.1500127"><ele>878.0</ele><time>2026-05-05T12:05:48.565Z</time></trkpt><trkpt lat="38.1251145" lon="13.1500226"><ele>878.0000000000001</ele><time>2026-05-05T12:05:49.565Z</time></trkpt><trkpt lat="38.1250452" lon="13.1500315"><ele>878.0</ele><time>2026-05-05T12:05:50.564Z</time></trkpt><trkpt lat="38.1249754" lon="13.1500324"><ele>878.0</ele><time>2026-05-05T12:05:51.564Z</time></trkpt><trkpt lat="38.1249054" lon="13.1500257"><ele>878.0</ele><time>2026-05-05T12:05:52.565Z</time></trkpt><trkpt lat="38.1248384" lon="13.1500138"><ele>878.0000000000001</ele><time>2026-05-05T12:05:53.564Z</time></trkpt><trkpt lat="38.1247761" lon="13.1499989"><ele>878.0</ele><time>2026-05-05T12:05:54.565Z</time></trkpt><trkpt lat="38.1246574" lon="13.1499453"><ele>878.0</ele><time>2026-05-05T12:05:56.565Z</time></trkpt><trkpt lat="38.1245968" lon="13.1499142"><ele>878.0</ele><time>2026-05-05T12:05:57.565Z</time></trkpt><trkpt lat="38.1245337" lon="13.1498861"><ele>878.0</ele><time>2026-05-05T12:05:58.566Z</time></trkpt><trkpt lat="38.1244687" lon="13.1498627"><ele>878.0</ele><time>2026-05-05T12:05:59.566Z</time></trkpt><trkpt lat="38.1244024" lon="13.149847"><ele>878.0</ele><time>2026-05-05T12:06:00.565Z</time></trkpt><trkpt lat="38.1243317" lon="13.1498367"><ele>878.0</ele><time>2026-05-05T12:06:01.565Z</time></trkpt><trkpt lat="38.1242596" lon="13.1498229"><ele>878.0</ele><time>2026-05-05T12:06:02.565Z</time></trkpt><trkpt lat="38.1241889" lon="13.1498054"><ele>884.0</ele><time>2026-05-05T12:06:03.564Z</time></trkpt><trkpt lat="38.1241211" lon="13.1497855"><ele>890.0</ele><time>2026-05-05T12:06:04.564Z</time></trkpt><trkpt lat="38.1240535" lon="13.1497691"><ele>896.0</ele><time>2026-05-05T12:06:05.563Z</time></trkpt><trkpt lat="38.1239857" lon="13.1497629"><ele>902.0</ele><time>2026-05-05T12:06:06.563Z</time></trkpt><trkpt lat="38.1239169" lon="13.1497694"><ele>908.0</ele><time>2026-05-05T12:06:07.565Z</time></trkpt><trkpt lat="38.1238472" lon="13.1497826"><ele>913.9999999999999</ele><time>2026-05-05T12:06:08.565Z</time></trkpt><trkpt lat="38.1237768" lon="13.1498007"><ele>919.9999999999999</ele><time>2026-05-05T12:06:09.563Z</time></trkpt><trkpt lat="38.1237081" lon="13.1498258"><ele>918.4285714285713</ele><time>2026-05-05T12:06:10.564Z</time></trkpt><trkpt lat="38.1236397" lon="13.1498547"><ele>916.8571428571429</ele><time>2026-05-05T12:06:11.564Z</time></trkpt><trkpt lat="38.1235717" lon="13.1498847"><ele>915.2857142857142</ele><time>2026-05-05T12:06:12.563Z</time></trkpt><trkpt lat="38.1235035" lon="13.1499119"><ele>913.7142857142857</ele><time>2026-05-05T12:06:13.565Z</time></trkpt><trkpt lat="38.1234337" lon="13.1499356"><ele>912.1428571428571</ele><time>2026-05-05T12:06:14.566Z</time></trkpt><trkpt lat="38.1233636" lon="13.1499495"><ele>910.5714285714286</ele><time>2026-05-05T12:06:15.564Z</time></trkpt><trkpt lat="38.1232946" lon="13.1499552"><ele>909.0</ele><time>2026-05-05T12:06:16.564Z</time></trkpt><trkpt lat="38.123224" lon="13.1499628"><ele>909.0</ele><time>2026-05-05T12:06:17.563Z</time></trkpt><trkpt lat="38.1231523" lon="13.1499751"><ele>909.0</ele><time>2026-05-05T12:06:18.564Z</time></trkpt><trkpt lat="38.1230843" lon="13.1499911"><ele>909.0</ele><time>2026-05-05T12:06:19.564Z</time></trkpt><trkpt lat="38.1230191" lon="13.1500122"><ele>909.0</ele><time>2026-05-05T12:06:20.564Z</time></trkpt><trkpt lat="38.1229501" lon="13.1500396"><ele>909.0</ele><time>2026-05-05T12:06:21.651Z</time></trkpt><trkpt lat="38.1228838" lon="13.150075"><ele>909.0</ele><time>2026-05-05T12:06:22.564Z</time></trkpt><trkpt lat="38.1228124" lon="13.1501199"><ele>909.0</ele><time>2026-05-05T12:06:23.564Z</time></trkpt><trkpt lat="38.1227408" lon="13.1501676"><ele>909.0</ele><time>2026-05-05T12:06:24.563Z</time></trkpt><trkpt lat="38.1226704" lon="13.1502132"><ele>909.0</ele><time>2026-05-05T12:06:25.564Z</time></trkpt><trkpt lat="38.1226017" lon="13.1502599"><ele>909.0</ele><time>2026-05-05T12:06:26.565Z</time></trkpt><trkpt lat="38.1225346" lon="13.1503046"><ele>909.0</ele><time>2026-05-05T12:06:27.565Z</time></trkpt><trkpt lat="38.1224709" lon="13.1503459"><ele>909.0</ele><time>2026-05-05T12:06:28.563Z</time></trkpt><trkpt lat="38.122415" lon="13.1503852"><ele>909.0</ele><time>2026-05-05T12:06:29.564Z</time></trkpt><trkpt lat="38.1223236" lon="13.150445"><ele>909.0</ele><time>2026-05-05T12:06:31.563Z</time></trkpt><trkpt lat="38.122247" lon="13.150489"><ele>909.0</ele><time>2026-05-05T12:06:33.564Z</time></trkpt><trkpt lat="38.1221885" lon="13.1504466"><ele>909.0</ele><time>2026-05-05T12:06:36.564Z</time></trkpt><trkpt lat="38.1222369" lon="13.1503799"><ele>909.0</ele><time>2026-05-05T12:06:38.564Z</time></trkpt><trkpt lat="38.1223327" lon="13.1503426"><ele>909.0</ele><time>2026-05-05T12:06:40.564Z</time></trkpt><trkpt lat="38.1224401" lon="13.1502611"><ele>909.0</ele><time>2026-05-05T12:06:42.564Z</time></trkpt><trkpt lat="38.122492" lon="13.1502105"><ele>909.0</ele><time>2026-05-05T12:06:43.563Z</time></trkpt><trkpt lat="38.1225456" lon="13.1501573"><ele>909.0000000000001</ele><time>2026-05-05T12:06:44.564Z</time></trkpt><trkpt lat="38.1225968" lon="13.1501088"><ele>909.0000000000001</ele><time>2026-05-05T12:06:45.564Z</time></trkpt><trkpt lat="38.1226897" lon="13.150011"><ele>909.0</ele><time>2026-05-05T12:06:47.564Z</time></trkpt><trkpt lat="38.1227777" lon="13.1499143"><ele>909.0</ele><time>2026-05-05T12:06:49.564Z</time></trkpt><trkpt lat="38.1228854" lon="13.1498284"><ele>914.0</ele><time>2026-05-05T12:06:51.564Z</time></trkpt><trkpt lat="38.122944" lon="13.1497906"><ele>919.0</ele><time>2026-05-05T12:06:52.563Z</time></trkpt><trkpt lat="38.1230029" lon="13.1497594"><ele>924.0</ele><time>2026-05-05T12:06:53.564Z</time></trkpt><trkpt lat="38.123112" lon="13.1497042"><ele>929.0</ele><time>2026-05-05T12:06:55.563Z</time></trkpt><trkpt lat="38.1232303" lon="13.1496521"><ele>934.0</ele><time>2026-05-05T12:06:57.563Z</time></trkpt><trkpt lat="38.1232951" lon="13.1496295"><ele>939.0</ele><time>2026-05-05T12:06:58.563Z</time></trkpt><trkpt lat="38.1233617" lon="13.1496013"><ele>939.0</ele><time>2026-05-05T12:06:59.564Z</time></trkpt><trkpt lat="38.1234275" lon="13.1495722"><ele>939.0</ele><time>2026-05-05T12:07:00.564Z</time></trkpt><trkpt lat="38.123494" lon="13.149545"><ele>939.0</ele><time>2026-05-05T12:07:01.564Z</time></trkpt><trkpt lat="38.1235578" lon="13.1495183"><ele>939.0</ele><time>2026-05-05T12:07:02.564Z</time></trkpt><trkpt lat="38.1236183" lon="13.1494816"><ele>939.0</ele><time>2026-05-05T12:07:03.564Z</time></trkpt><trkpt lat="38.1236771" lon="13.1494342"><ele>939.0</ele><time>2026-05-05T12:07:04.564Z</time></trkpt><trkpt lat="38.1237395" lon="13.1493877"><ele>939.0</ele><time>2026-05-05T12:07:05.564Z</time></trkpt><trkpt lat="38.1238042" lon="13.1493479"><ele>939.0</ele><time>2026-05-05T12:07:06.564Z</time></trkpt><trkpt lat="38.1238721" lon="13.1493183"><ele>939.0</ele><time>2026-05-05T12:07:07.563Z</time></trkpt><trkpt lat="38.1239438" lon="13.1493032"><ele>939.0</ele><time>2026-05-05T12:07:08.565Z</time></trkpt><trkpt lat="38.1240175" lon="13.1492978"><ele>939.0</ele><time>2026-05-05T12:07:09.563Z</time></trkpt><trkpt lat="38.1240901" lon="13.1492952"><ele>939.0</ele><time>2026-05-05T12:07:10.564Z</time></trkpt><trkpt lat="38.1241579" lon="13.1492877"><ele>939.0</ele><time>2026-05-05T12:07:11.564Z</time></trkpt><trkpt lat="38.1242242" lon="13.149278"><ele>939.0</ele><time>2026-05-05T12:07:12.564Z</time></trkpt><trkpt lat="38.1242903" lon="13.1492678"><ele>936.2857142857143</ele><time>2026-05-05T12:07:13.565Z</time></trkpt><trkpt lat="38.1243568" lon="13.1492589"><ele>933.5714285714284</ele><time>2026-05-05T12:07:14.565Z</time></trkpt><trkpt lat="38.1244261" lon="13.1492582"><ele>930.8571428571428</ele><time>2026-05-05T12:07:15.564Z</time></trkpt><trkpt lat="38.1244961" lon="13.1492623"><ele>928.1428571428571</ele><time>2026-05-05T12:07:16.564Z</time></trkpt><trkpt lat="38.1245634" lon="13.1492691"><ele>925.4285714285713</ele><time>2026-05-05T12:07:17.563Z</time></trkpt><trkpt lat="38.1246286" lon="13.1492804"><ele>922.7142857142856</ele><time>2026-05-05T12:07:18.564Z</time></trkpt><trkpt lat="38.1246937" lon="13.1492842"><ele>919.9999999999999</ele><time>2026-05-05T12:07:19.563Z</time></trkpt><trkpt lat="38.1247599" lon="13.149287"><ele>920.0</ele><time>2026-05-05T12:07:20.564Z</time></trkpt><trkpt lat="38.1248233" lon="13.1492873"><ele>920.0</ele><time>2026-05-05T12:07:21.564Z</time></trkpt><trkpt lat="38.1249346" lon="13.1492503"><ele>920.0</ele><time>2026-05-05T12:07:23.564Z</time></trkpt><trkpt lat="38.1250457" lon="13.1491796"><ele>920.0</ele><time>2026-05-05T12:07:25.564Z</time></trkpt><trkpt lat="38.1251537" lon="13.1491075"><ele>920.0</ele><time>2026-05-05T12:07:27.563Z</time></trkpt><trkpt lat="38.1252095" lon="13.1490661"><ele>924.0000000000001</ele><time>2026-05-05T12:07:28.564Z</time></trkpt><trkpt lat="38.1252662" lon="13.149025"><ele>928.0</ele><time>2026-05-05T12:07:29.565Z</time></trkpt><trkpt lat="38.1253797" lon="13.1489556"><ele>932.0</ele><time>2026-05-05T12:07:31.564Z</time></trkpt><trkpt lat="38.1254396" lon="13.1489213"><ele>936.0</ele><time>2026-05-05T12:07:32.564Z</time></trkpt><trkpt lat="38.1255042" lon="13.1488925"><ele>940.0000000000001</ele><time>2026-05-05T12:07:33.563Z</time></trkpt><trkpt lat="38.1255751" lon="13.1488687"><ele>944.0</ele><time>2026-05-05T12:07:34.564Z</time></trkpt><trkpt lat="38.1256472" lon="13.1488472"><ele>944.0</ele><time>2026-05-05T12:07:35.564Z</time></trkpt><trkpt lat="38.125718" lon="13.1488246"><ele>944.0</ele><time>2026-05-05T12:07:36.564Z</time></trkpt><trkpt lat="38.1257855" lon="13.1488027"><ele>944.0</ele><time>2026-05-05T12:07:37.563Z</time></trkpt><trkpt lat="38.1258523" lon="13.148777"><ele>944.0</ele><time>2026-05-05T12:07:38.566Z</time></trkpt><trkpt lat="38.1259203" lon="13.1487449"><ele>944.0</ele><time>2026-05-05T12:07:39.565Z</time></trkpt><trkpt lat="38.1259914" lon="13.1487106"><ele>944.0</ele><time>2026-05-05T12:07:40.565Z</time></trkpt><trkpt lat="38.1260632" lon="13.1486832"><ele>944.0</ele><time>2026-05-05T12:07:41.564Z</time></trkpt><trkpt lat="38.1261376" lon="13.1486705"><ele>943.7142857142857</ele><time>2026-05-05T12:07:42.565Z</time></trkpt><trkpt lat="38.1262132" lon="13.1486684"><ele>943.4285714285716</ele><time>2026-05-05T12:07:43.564Z</time></trkpt><trkpt lat="38.1262883" lon="13.14868"><ele>943.1428571428572</ele><time>2026-05-05T12:07:44.563Z</time></trkpt><trkpt lat="38.1263599" lon="13.1486969"><ele>942.8571428571429</ele><time>2026-05-05T12:07:45.564Z</time></trkpt><trkpt lat="38.1264288" lon="13.1487183"><ele>942.5714285714287</ele><time>2026-05-05T12:07:46.564Z</time></trkpt><trkpt lat="38.1264928" lon="13.1487453"><ele>942.2857142857144</ele><time>2026-05-05T12:07:47.564Z</time></trkpt><trkpt lat="38.126554" lon="13.1487731"><ele>942.0000000000001</ele><time>2026-05-05T12:07:48.565Z</time></trkpt><trkpt lat="38.1266658" lon="13.1488291"><ele>942.0</ele><time>2026-05-05T12:07:50.565Z</time></trkpt><trkpt lat="38.1267774" lon="13.1488469"><ele>942.0</ele><time>2026-05-05T12:07:52.563Z</time></trkpt><trkpt lat="38.1268677" lon="13.1487825"><ele>942.0</ele><time>2026-05-05T12:07:54.563Z</time></trkpt><trkpt lat="38.1269137" lon="13.1486471"><ele>942.0</ele><time>2026-05-05T12:07:56.566Z</time></trkpt><trkpt lat="38.1269644" lon="13.1484984"><ele>942.0</ele><time>2026-05-05T12:07:58.565Z</time></trkpt><trkpt lat="38.1269951" lon="13.1484259"><ele>942.0</ele><time>2026-05-05T12:07:59.564Z</time></trkpt><trkpt lat="38.1270295" lon="13.1483564"><ele>942.0</ele><time>2026-05-05T12:08:00.564Z</time></trkpt><trkpt lat="38.1270892" lon="13.148235"><ele>942.0</ele><time>2026-05-05T12:08:02.565Z</time></trkpt><trkpt lat="38.1271222" lon="13.1481263"><ele>942.0</ele><time>2026-05-05T12:08:04.564Z</time></trkpt><trkpt lat="38.127101" lon="13.1480484"><ele>942.0</ele><time>2026-05-05T12:08:06.564Z</time></trkpt><trkpt lat="38.1270286" lon="13.1480319"><ele>941.4000000000001</ele><time>2026-05-05T12:08:08.563Z</time></trkpt><trkpt lat="38.1269188" lon="13.1480564"><ele>940.8000000000001</ele><time>2026-05-05T12:08:10.565Z</time></trkpt><trkpt lat="38.1267984" lon="13.1480716"><ele>940.2</ele><time>2026-05-05T12:08:12.564Z</time></trkpt><trkpt lat="38.1266862" lon="13.1480792"><ele>939.6</ele><time>2026-05-05T12:08:14.565Z</time></trkpt><trkpt lat="38.1265983" lon="13.1480777"><ele>939.0</ele><time>2026-05-05T12:08:16.565Z</time></trkpt><trkpt lat="38.1265287" lon="13.1480713"><ele>938.6</ele><time>2026-05-05T12:08:18.563Z</time></trkpt><trkpt lat="38.126599" lon="13.1480756"><ele>938.2</ele><time>2026-05-05T12:18:01.647Z</time></trkpt><trkpt lat="38.1266754" lon="13.1480717"><ele>937.8000000000001</ele><time>2026-05-05T12:18:03.623Z</time></trkpt><trkpt lat="38.1268313" lon="13.148081"><ele>937.4000000000001</ele><time>2026-05-05T12:18:07.575Z</time></trkpt><trkpt lat="38.126923" lon="13.1480574"><ele>937.0</ele><time>2026-05-05T12:18:09.564Z</time></trkpt><trkpt lat="38.1270419" lon="13.1480876"><ele>937.0</ele><time>2026-05-05T12:18:12.661Z</time></trkpt><trkpt lat="38.1271188" lon="13.1480809"><ele>937.0</ele><time>2026-05-05T12:18:14.647Z</time></trkpt><trkpt lat="38.1271633" lon="13.148154"><ele>937.0</ele><time>2026-05-05T12:18:18.598Z</time></trkpt><trkpt lat="38.1271014" lon="13.1482396"><ele>937.0</ele><time>2026-05-05T12:18:20.564Z</time></trkpt><trkpt lat="38.1270622" lon="13.1483024"><ele>937.0</ele><time>2026-05-05T12:18:21.564Z</time></trkpt><trkpt lat="38.1270252" lon="13.1483685"><ele>937.0</ele><time>2026-05-05T12:18:22.564Z</time></trkpt><trkpt lat="38.1269914" lon="13.1484381"><ele>937.0</ele><time>2026-05-05T12:18:23.563Z</time></trkpt><trkpt lat="38.1269591" lon="13.1485088"><ele>937.8333333333333</ele><time>2026-05-05T12:18:24.564Z</time></trkpt><trkpt lat="38.1269287" lon="13.1485813"><ele>938.6666666666666</ele><time>2026-05-05T12:18:25.565Z</time></trkpt><trkpt lat="38.1269005" lon="13.1486551"><ele>939.5</ele><time>2026-05-05T12:18:26.565Z</time></trkpt><trkpt lat="38.1268506" lon="13.148788"><ele>940.3333333333333</ele><time>2026-05-05T12:18:28.565Z</time></trkpt><trkpt lat="38.1267859" lon="13.1488532"><ele>941.1666666666666</ele><time>2026-05-05T12:18:30.565Z</time></trkpt><trkpt lat="38.1266962" lon="13.1488424"><ele>942.0</ele><time>2026-05-05T12:18:32.565Z</time></trkpt><trkpt lat="38.12658" lon="13.1487897"><ele>941.6</ele><time>2026-05-05T12:18:34.564Z</time></trkpt><trkpt lat="38.1265219" lon="13.1487582"><ele>941.2</ele><time>2026-05-05T12:18:35.566Z</time></trkpt><trkpt lat="38.1264131" lon="13.1487122"><ele>940.8</ele><time>2026-05-05T12:18:37.565Z</time></trkpt><trkpt lat="38.1263068" lon="13.1486845"><ele>940.4</ele><time>2026-05-05T12:18:39.565Z</time></trkpt><trkpt lat="38.1261907" lon="13.1486735"><ele>940.0</ele><time>2026-05-05T12:18:41.565Z</time></trkpt><trkpt lat="38.1260625" lon="13.14869"><ele>939.9999999999999</ele><time>2026-05-05T12:18:43.565Z</time></trkpt><trkpt lat="38.1259983" lon="13.1487131"><ele>940.0</ele><time>2026-05-05T12:18:44.564Z</time></trkpt><trkpt lat="38.1259369" lon="13.1487421"><ele>940.0</ele><time>2026-05-05T12:18:45.563Z</time></trkpt><trkpt lat="38.1258725" lon="13.1487697"><ele>940.0</ele><time>2026-05-05T12:18:46.563Z</time></trkpt><trkpt lat="38.125805" lon="13.1487938"><ele>939.9999999999999</ele><time>2026-05-05T12:18:47.565Z</time></trkpt><trkpt lat="38.1257426" lon="13.1488168"><ele>940.0</ele><time>2026-05-05T12:18:48.564Z</time></trkpt><trkpt lat="38.1256222" lon="13.1488624"><ele>940.5714285714286</ele><time>2026-05-05T12:18:50.565Z</time></trkpt><trkpt lat="38.1255605" lon="13.1488786"><ele>941.1428571428571</ele><time>2026-05-05T12:18:51.564Z</time></trkpt><trkpt lat="38.1254982" lon="13.1488988"><ele>941.7142857142857</ele><time>2026-05-05T12:18:52.564Z</time></trkpt><trkpt lat="38.125435" lon="13.1489285"><ele>942.2857142857142</ele><time>2026-05-05T12:18:53.564Z</time></trkpt><trkpt lat="38.1253745" lon="13.1489665"><ele>942.8571428571429</ele><time>2026-05-05T12:18:54.563Z</time></trkpt><trkpt lat="38.125316" lon="13.1490062"><ele>943.4285714285713</ele><time>2026-05-05T12:18:55.564Z</time></trkpt><trkpt lat="38.1252595" lon="13.1490478"><ele>944.0</ele><time>2026-05-05T12:18:56.564Z</time></trkpt><trkpt lat="38.1252019" lon="13.1490912"><ele>939.4000000000001</ele><time>2026-05-05T12:18:57.564Z</time></trkpt><trkpt lat="38.125141" lon="13.1491332"><ele>934.8000000000001</ele><time>2026-05-05T12:18:58.564Z</time></trkpt><trkpt lat="38.1250832" lon="13.1491702"><ele>930.1999999999999</ele><time>2026-05-05T12:18:59.565Z</time></trkpt><trkpt lat="38.1249715" lon="13.1492277"><ele>925.5999999999999</ele><time>2026-05-05T12:19:01.563Z</time></trkpt><trkpt lat="38.1248642" lon="13.1492686"><ele>921.0</ele><time>2026-05-05T12:19:03.563Z</time></trkpt><trkpt lat="38.1247537" lon="13.1492797"><ele>920.8</ele><time>2026-05-05T12:19:05.564Z</time></trkpt><trkpt lat="38.1246245" lon="13.1492664"><ele>920.5999999999999</ele><time>2026-05-05T12:19:07.565Z</time></trkpt><trkpt lat="38.1245577" lon="13.1492581"><ele>920.4</ele><time>2026-05-05T12:19:08.563Z</time></trkpt><trkpt lat="38.124495" lon="13.1492506"><ele>920.2</ele><time>2026-05-05T12:19:09.564Z</time></trkpt><trkpt lat="38.1243692" lon="13.149248"><ele>920.0</ele><time>2026-05-05T12:19:11.564Z</time></trkpt><trkpt lat="38.1243015" lon="13.1492517"><ele>919.9999999999999</ele><time>2026-05-05T12:19:12.564Z</time></trkpt><trkpt lat="38.1242382" lon="13.1492623"><ele>920.0</ele><time>2026-05-05T12:19:13.565Z</time></trkpt><trkpt lat="38.124175" lon="13.149273"><ele>919.9999999999999</ele><time>2026-05-05T12:19:14.565Z</time></trkpt><trkpt lat="38.1241088" lon="13.1492794"><ele>919.9999999999999</ele><time>2026-05-05T12:19:15.565Z</time></trkpt><trkpt lat="38.1240404" lon="13.1492869"><ele>920.0</ele><time>2026-05-05T12:19:16.564Z</time></trkpt><trkpt lat="38.1239717" lon="13.1492974"><ele>919.9999999999999</ele><time>2026-05-05T12:19:17.565Z</time></trkpt><trkpt lat="38.1239003" lon="13.1493136"><ele>919.9999999999999</ele><time>2026-05-05T12:19:18.565Z</time></trkpt><trkpt lat="38.1238311" lon="13.1493374"><ele>923.8</ele><time>2026-05-05T12:19:19.564Z</time></trkpt><trkpt lat="38.1237698" lon="13.1493669"><ele>927.6</ele><time>2026-05-05T12:19:20.564Z</time></trkpt><trkpt lat="38.1236616" lon="13.1494318"><ele>931.4000000000001</ele><time>2026-05-05T12:19:22.565Z</time></trkpt><trkpt lat="38.1235686" lon="13.149504"><ele>935.2</ele><time>2026-05-05T12:19:24.565Z</time></trkpt><trkpt lat="38.1234644" lon="13.1495532"><ele>939.0</ele><time>2026-05-05T12:19:26.565Z</time></trkpt><trkpt lat="38.1233438" lon="13.1496078"><ele>939.0</ele><time>2026-05-05T12:19:28.563Z</time></trkpt><trkpt lat="38.1232789" lon="13.1496377"><ele>939.0</ele><time>2026-05-05T12:19:29.565Z</time></trkpt><trkpt lat="38.1232175" lon="13.1496718"><ele>939.0</ele><time>2026-05-05T12:19:30.564Z</time></trkpt><trkpt lat="38.1231566" lon="13.1497042"><ele>939.0</ele><time>2026-05-05T12:19:31.564Z</time></trkpt><trkpt lat="38.1230398" lon="13.1497621"><ele>939.0</ele><time>2026-05-05T12:19:33.564Z</time></trkpt><trkpt lat="38.1229775" lon="13.1497958"><ele>939.0</ele><time>2026-05-05T12:19:34.564Z</time></trkpt><trkpt lat="38.1229143" lon="13.1498354"><ele>934.7142857142858</ele><time>2026-05-05T12:19:35.564Z</time></trkpt><trkpt lat="38.1228567" lon="13.1498775"><ele>930.4285714285713</ele><time>2026-05-05T12:19:36.565Z</time></trkpt><trkpt lat="38.122802" lon="13.1499224"><ele>926.1428571428571</ele><time>2026-05-05T12:19:37.564Z</time></trkpt><trkpt lat="38.1227487" lon="13.1499722"><ele>921.8571428571429</ele><time>2026-05-05T12:19:38.563Z</time></trkpt><trkpt lat="38.122695" lon="13.150025"><ele>917.5714285714287</ele><time>2026-05-05T12:19:39.564Z</time></trkpt><trkpt lat="38.1226383" lon="13.15008"><ele>913.2857142857142</ele><time>2026-05-05T12:19:40.565Z</time></trkpt><trkpt lat="38.12258" lon="13.150135"><ele>909.0</ele><time>2026-05-05T12:19:41.565Z</time></trkpt><trkpt lat="38.1225217" lon="13.1501883"><ele>909.0</ele><time>2026-05-05T12:19:42.564Z</time></trkpt><trkpt lat="38.1224233" lon="13.15028"><ele>909.0000000000001</ele><time>2026-05-05T12:19:44.565Z</time></trkpt><trkpt lat="38.1223317" lon="13.1503417"><ele>909.0000000000001</ele><time>2026-05-05T12:19:46.564Z</time></trkpt><trkpt lat="38.1222433" lon="13.1503783"><ele>909.0</ele><time>2026-05-05T12:19:48.564Z</time></trkpt><trkpt lat="38.12219" lon="13.1504267"><ele>909.0</ele><time>2026-05-05T12:19:50.565Z</time></trkpt><trkpt lat="38.122235" lon="13.15049"><ele>909.0</ele><time>2026-05-05T12:19:53.564Z</time></trkpt><trkpt lat="38.1222967" lon="13.1504717"><ele>909.0</ele><time>2026-05-05T12:19:55.563Z</time></trkpt><trkpt lat="38.122395" lon="13.1504167"><ele>909.0</ele><time>2026-05-05T12:19:57.565Z</time></trkpt><trkpt lat="38.12251" lon="13.1503483"><ele>909.0</ele><time>2026-05-05T12:19:59.563Z</time></trkpt><trkpt lat="38.1225733" lon="13.1503083"><ele>909.0</ele><time>2026-05-05T12:20:00.564Z</time></trkpt><trkpt lat="38.1226383" lon="13.1502617"><ele>909.0</ele><time>2026-05-05T12:20:01.564Z</time></trkpt><trkpt lat="38.1227083" lon="13.1502167"><ele>909.0</ele><time>2026-05-05T12:20:02.565Z</time></trkpt><trkpt lat="38.1227767" lon="13.15017"><ele>909.0</ele><time>2026-05-05T12:20:03.564Z</time></trkpt><trkpt lat="38.122845" lon="13.1501267"><ele>909.0</ele><time>2026-05-05T12:20:04.564Z</time></trkpt><trkpt lat="38.1229167" lon="13.150085"><ele>909.0</ele><time>2026-05-05T12:20:05.563Z</time></trkpt><trkpt lat="38.1229917" lon="13.15005"><ele>909.0</ele><time>2026-05-05T12:20:06.564Z</time></trkpt><trkpt lat="38.123065" lon="13.150025"><ele>909.0</ele><time>2026-05-05T12:20:07.563Z</time></trkpt><trkpt lat="38.1231367" lon="13.1500067"><ele>909.0</ele><time>2026-05-05T12:20:08.564Z</time></trkpt><trkpt lat="38.123205" lon="13.14999"><ele>909.0</ele><time>2026-05-05T12:20:09.563Z</time></trkpt><trkpt lat="38.1232733" lon="13.149975"><ele>909.0</ele><time>2026-05-05T12:20:10.563Z</time></trkpt><trkpt lat="38.123345" lon="13.149965"><ele>909.0</ele><time>2026-05-05T12:20:11.564Z</time></trkpt><trkpt lat="38.123415" lon="13.1499567"><ele>909.0</ele><time>2026-05-05T12:20:12.563Z</time></trkpt><trkpt lat="38.1234867" lon="13.1499417"><ele>909.0</ele><time>2026-05-05T12:20:13.563Z</time></trkpt><trkpt lat="38.12356" lon="13.14992"><ele>909.0</ele><time>2026-05-05T12:20:14.563Z</time></trkpt><trkpt lat="38.1236383" lon="13.149885"><ele>910.8333333333334</ele><time>2026-05-05T12:20:15.563Z</time></trkpt><trkpt lat="38.12372" lon="13.14985"><ele>912.6666666666667</ele><time>2026-05-05T12:20:16.562Z</time></trkpt><trkpt lat="38.1238067" lon="13.1498183"><ele>914.5</ele><time>2026-05-05T12:20:17.563Z</time></trkpt><trkpt lat="38.1238917" lon="13.1497983"><ele>916.3333333333334</ele><time>2026-05-05T12:20:18.563Z</time></trkpt><trkpt lat="38.1239717" lon="13.1497883"><ele>918.1666666666667</ele><time>2026-05-05T12:20:19.563Z</time></trkpt><trkpt lat="38.124045" lon="13.1497933"><ele>920.0</ele><time>2026-05-05T12:20:20.564Z</time></trkpt><trkpt lat="38.124115" lon="13.1498083"><ele>919.9999999999999</ele><time>2026-05-05T12:20:21.562Z</time></trkpt><trkpt lat="38.1241867" lon="13.149825"><ele>920.0</ele><time>2026-05-05T12:20:22.564Z</time></trkpt><trkpt lat="38.1242617" lon="13.1498383"><ele>919.9999999999999</ele><time>2026-05-05T12:20:23.563Z</time></trkpt><trkpt lat="38.1243367" lon="13.14985"><ele>919.9999999999999</ele><time>2026-05-05T12:20:24.563Z</time></trkpt><trkpt lat="38.1244083" lon="13.1498667"><ele>920.0</ele><time>2026-05-05T12:20:25.563Z</time></trkpt><trkpt lat="38.1244733" lon="13.1498867"><ele>919.9999999999999</ele><time>2026-05-05T12:20:26.564Z</time></trkpt><trkpt lat="38.1245383" lon="13.1499133"><ele>919.9999999999999</ele><time>2026-05-05T12:20:27.563Z</time></trkpt><trkpt lat="38.1245967" lon="13.1499433"><ele>913.0000000000001</ele><time>2026-05-05T12:20:28.565Z</time></trkpt><trkpt lat="38.1247067" lon="13.15"><ele>906.0</ele><time>2026-05-05T12:20:30.564Z</time></trkpt><trkpt lat="38.1248267" lon="13.1500283"><ele>899.0</ele><time>2026-05-05T12:20:32.564Z</time></trkpt><trkpt lat="38.124895" lon="13.1500333"><ele>892.0</ele><time>2026-05-05T12:20:33.563Z</time></trkpt><trkpt lat="38.124965" lon="13.1500383"><ele>885.0000000000001</ele><time>2026-05-05T12:20:34.563Z</time></trkpt><trkpt lat="38.1250333" lon="13.15004"><ele>878.0</ele><time>2026-05-05T12:20:35.564Z</time></trkpt><trkpt lat="38.1251017" lon="13.1500333"><ele>878.0000000000001</ele><time>2026-05-05T12:20:36.563Z</time></trkpt><trkpt lat="38.1251767" lon="13.1500217"><ele>878.0</ele><time>2026-05-05T12:20:37.563Z</time></trkpt><trkpt lat="38.1252567" lon="13.1500083"><ele>878.0</ele><time>2026-05-05T12:20:38.564Z</time></trkpt><trkpt lat="38.1253367" lon="13.1499917"><ele>878.0</ele><time>2026-05-05T12:20:39.563Z</time></trkpt><trkpt lat="38.1254133" lon="13.1499767"><ele>878.0000000000001</ele><time>2026-05-05T12:20:40.563Z</time></trkpt><trkpt lat="38.1254883" lon="13.149965"><ele>878.0</ele><time>2026-05-05T12:20:41.564Z</time></trkpt><trkpt lat="38.1255617" lon="13.1499517"><ele>878.0000000000001</ele><time>2026-05-05T12:20:42.563Z</time></trkpt><trkpt lat="38.12564" lon="13.1499433"><ele>878.0</ele><time>2026-05-05T12:20:43.564Z</time></trkpt><trkpt lat="38.125715" lon="13.1499417"><ele>878.0</ele><time>2026-05-05T12:20:44.564Z</time></trkpt><trkpt lat="38.12579" lon="13.1499467"><ele>878.0</ele><time>2026-05-05T12:20:45.563Z</time></trkpt><trkpt lat="38.12587" lon="13.1499567"><ele>878.0000000000001</ele><time>2026-05-05T12:20:46.563Z</time></trkpt><trkpt lat="38.125955" lon="13.1499733"><ele>878.0</ele><time>2026-05-05T12:20:47.562Z</time></trkpt><trkpt lat="38.1260417" lon="13.1499867"><ele>876.1666666666667</ele><time>2026-05-05T12:20:48.564Z</time></trkpt><trkpt lat="38.1261283" lon="13.1500033"><ele>874.3333333333334</ele><time>2026-05-05T12:20:49.564Z</time></trkpt><trkpt lat="38.1262083" lon="13.1500167"><ele>872.5</ele><time>2026-05-05T12:20:50.564Z</time></trkpt><trkpt lat="38.1262933" lon="13.15002"><ele>870.6666666666667</ele><time>2026-05-05T12:20:51.563Z</time></trkpt><trkpt lat="38.1263783" lon="13.15002"><ele>868.8333333333334</ele><time>2026-05-05T12:20:52.563Z</time></trkpt><trkpt lat="38.1264633" lon="13.15003"><ele>867.0</ele><time>2026-05-05T12:20:53.563Z</time></trkpt><trkpt lat="38.1265483" lon="13.150045"><ele>866.0</ele><time>2026-05-05T12:20:54.563Z</time></trkpt><trkpt lat="38.1266317" lon="13.1500667"><ele>865.0</ele><time>2026-05-05T12:20:55.563Z</time></trkpt><trkpt lat="38.1267083" lon="13.150085"><ele>864.0</ele><time>2026-05-05T12:20:56.563Z</time></trkpt><trkpt lat="38.126775" lon="13.1500967"><ele>863.0</ele><time>2026-05-05T12:20:57.565Z</time></trkpt><trkpt lat="38.126885" lon="13.1500867"><ele>862.0</ele><time>2026-05-05T12:20:59.563Z</time></trkpt><trkpt lat="38.1269867" lon="13.1500417"><ele>861.0</ele><time>2026-05-05T12:21:01.564Z</time></trkpt><trkpt lat="38.127065" lon="13.15001"><ele>861.0</ele><time>2026-05-05T12:21:03.564Z</time></trkpt><trkpt lat="38.1271117" lon="13.1500667"><ele>861.0</ele><time>2026-05-05T12:21:06.564Z</time></trkpt><trkpt lat="38.127035" lon="13.1501517"><ele>861.0</ele><time>2026-05-05T12:21:09.563Z</time></trkpt><trkpt lat="38.12695" lon="13.1502017"><ele>861.0</ele><time>2026-05-05T12:21:11.563Z</time></trkpt><trkpt lat="38.12686" lon="13.150225"><ele>861.0</ele><time>2026-05-05T12:21:13.565Z</time></trkpt><trkpt lat="38.126765" lon="13.15024"><ele>861.0</ele><time>2026-05-05T12:21:15.563Z</time></trkpt><trkpt lat="38.1266633" lon="13.1502517"><ele>862.0</ele><time>2026-05-05T12:21:17.564Z</time></trkpt><trkpt lat="38.1265541" lon="13.1502547"><ele>863.0</ele><time>2026-05-05T12:21:19.563Z</time></trkpt><trkpt lat="38.1264358" lon="13.1502673"><ele>864.0</ele><time>2026-05-05T12:21:21.564Z</time></trkpt><trkpt lat="38.1263718" lon="13.1502728"><ele>865.0</ele><time>2026-05-05T12:21:22.562Z</time></trkpt><trkpt lat="38.1263041" lon="13.1502805"><ele>866.0</ele><time>2026-05-05T12:21:23.563Z</time></trkpt><trkpt lat="38.1262345" lon="13.1502871"><ele>867.0</ele><time>2026-05-05T12:21:24.563Z</time></trkpt><trkpt lat="38.1261696" lon="13.1502921"><ele>867.0</ele><time>2026-05-05T12:21:25.563Z</time></trkpt><trkpt lat="38.1260487" lon="13.1503025"><ele>867.0</ele><time>2026-05-05T12:21:27.563Z</time></trkpt><trkpt lat="38.1259825" lon="13.1503143"><ele>867.0</ele><time>2026-05-05T12:21:28.563Z</time></trkpt><trkpt lat="38.1259173" lon="13.1503285"><ele>867.0</ele><time>2026-05-05T12:21:29.562Z</time></trkpt><trkpt lat="38.1258493" lon="13.1503386"><ele>867.0</ele><time>2026-05-05T12:21:30.563Z</time></trkpt><trkpt lat="38.1257822" lon="13.1503525"><ele>867.0</ele><time>2026-05-05T12:21:31.563Z</time></trkpt><trkpt lat="38.1257171" lon="13.1503722"><ele>868.5714285714286</ele><time>2026-05-05T12:21:32.563Z</time></trkpt><trkpt lat="38.1256494" lon="13.1503986"><ele>870.1428571428572</ele><time>2026-05-05T12:21:33.564Z</time></trkpt><trkpt lat="38.1255803" lon="13.1504314"><ele>871.7142857142858</ele><time>2026-05-05T12:21:34.565Z</time></trkpt><trkpt lat="38.1255134" lon="13.1504736"><ele>873.2857142857142</ele><time>2026-05-05T12:21:35.563Z</time></trkpt><trkpt lat="38.1254512" lon="13.1505253"><ele>874.8571428571429</ele><time>2026-05-05T12:21:36.564Z</time></trkpt><trkpt lat="38.1253927" lon="13.150566"><ele>876.4285714285714</ele><time>2026-05-05T12:21:37.562Z</time></trkpt><trkpt lat="38.1253306" lon="13.150601"><ele>878.0</ele><time>2026-05-05T12:21:38.563Z</time></trkpt><trkpt lat="38.1252653" lon="13.150641"><ele>878.0</ele><time>2026-05-05T12:21:39.563Z</time></trkpt><trkpt lat="38.1252045" lon="13.1506769"><ele>878.0</ele><time>2026-05-05T12:21:40.564Z</time></trkpt><trkpt lat="38.1250946" lon="13.1507326"><ele>878.0</ele><time>2026-05-05T12:21:42.564Z</time></trkpt><trkpt lat="38.1249856" lon="13.1507406"><ele>878.0</ele><time>2026-05-05T12:21:44.563Z</time></trkpt><trkpt lat="38.1248617" lon="13.1507114"><ele>878.0</ele><time>2026-05-05T12:21:46.564Z</time></trkpt><trkpt lat="38.124792" lon="13.1506962"><ele>878.0000000000001</ele><time>2026-05-05T12:21:47.563Z</time></trkpt><trkpt lat="38.1247195" lon="13.1506766"><ele>878.0</ele><time>2026-05-05T12:21:48.563Z</time></trkpt><trkpt lat="38.1246432" lon="13.1506594"><ele>878.0</ele><time>2026-05-05T12:21:49.564Z</time></trkpt><trkpt lat="38.1245673" lon="13.1506441"><ele>878.0</ele><time>2026-05-05T12:21:50.564Z</time></trkpt><trkpt lat="38.1244907" lon="13.1506263"><ele>878.0000000000001</ele><time>2026-05-05T12:21:51.564Z</time></trkpt><trkpt lat="38.1244151" lon="13.1506132"><ele>878.0</ele><time>2026-05-05T12:21:52.563Z</time></trkpt><trkpt lat="38.1243385" lon="13.1506069"><ele>878.0000000000001</ele><time>2026-05-05T12:21:53.564Z</time></trkpt><trkpt lat="38.1242594" lon="13.1506092"><ele>878.0</ele><time>2026-05-05T12:21:54.563Z</time></trkpt><trkpt lat="38.124178" lon="13.1506097"><ele>878.0</ele><time>2026-05-05T12:21:55.564Z</time></trkpt><trkpt lat="38.1241" lon="13.1506172"><ele>878.0</ele><time>2026-05-05T12:21:56.564Z</time></trkpt><trkpt lat="38.1240266" lon="13.1506288"><ele>878.0000000000001</ele><time>2026-05-05T12:21:57.565Z</time></trkpt><trkpt lat="38.1239535" lon="13.1506568"><ele>878.0</ele><time>2026-05-05T12:21:58.564Z</time></trkpt><trkpt lat="38.1238789" lon="13.1506991"><ele>869.4</ele><time>2026-05-05T12:21:59.564Z</time></trkpt><trkpt lat="38.1237996" lon="13.1507532"><ele>860.8</ele><time>2026-05-05T12:22:00.562Z</time></trkpt><trkpt lat="38.1237163" lon="13.1508125"><ele>852.2</ele><time>2026-05-05T12:22:01.564Z</time></trkpt><trkpt lat="38.1236298" lon="13.1508636"><ele>843.6</ele><time>2026-05-05T12:22:02.563Z</time></trkpt><trkpt lat="38.1235385" lon="13.1509138"><ele>835.0</ele><time>2026-05-05T12:22:03.563Z</time></trkpt><trkpt lat="38.1234486" lon="13.150968"><ele>834.9999999999999</ele><time>2026-05-05T12:22:04.564Z</time></trkpt><trkpt lat="38.1233656" lon="13.1510244"><ele>835.0</ele><time>2026-05-05T12:22:05.562Z</time></trkpt><trkpt lat="38.1232867" lon="13.1510767"><ele>835.0</ele><time>2026-05-05T12:22:06.563Z</time></trkpt><trkpt lat="38.123215" lon="13.151125"><ele>835.0</ele><time>2026-05-05T12:22:07.563Z</time></trkpt><trkpt lat="38.1231467" lon="13.15117"><ele>834.9999999999999</ele><time>2026-05-05T12:22:08.564Z</time></trkpt><trkpt lat="38.1230783" lon="13.1512167"><ele>835.0</ele><time>2026-05-05T12:22:09.563Z</time></trkpt><trkpt lat="38.1230217" lon="13.1512733"><ele>839.8</ele><time>2026-05-05T12:22:10.565Z</time></trkpt><trkpt lat="38.1229717" lon="13.1513267"><ele>844.6</ele><time>2026-05-05T12:22:11.564Z</time></trkpt><trkpt lat="38.1228667" lon="13.15141"><ele>849.4000000000001</ele><time>2026-05-05T12:22:13.563Z</time></trkpt><trkpt lat="38.1227633" lon="13.1514817"><ele>854.2</ele><time>2026-05-05T12:22:15.563Z</time></trkpt><trkpt lat="38.1226967" lon="13.1515067"><ele>859.0</ele><time>2026-05-05T12:22:16.564Z</time></trkpt><trkpt lat="38.1226267" lon="13.1515367"><ele>851.1428571428571</ele><time>2026-05-05T12:22:17.564Z</time></trkpt><trkpt lat="38.12255" lon="13.1515667"><ele>843.2857142857142</ele><time>2026-05-05T12:22:18.564Z</time></trkpt><trkpt lat="38.1224833" lon="13.1515883"><ele>835.4285714285713</ele><time>2026-05-05T12:22:19.564Z</time></trkpt><trkpt lat="38.1224167" lon="13.1516083"><ele>827.5714285714286</ele><time>2026-05-05T12:22:20.564Z</time></trkpt><trkpt lat="38.1223533" lon="13.1516267"><ele>819.7142857142858</ele><time>2026-05-05T12:22:21.563Z</time></trkpt><trkpt lat="38.1222883" lon="13.151645"><ele>811.8571428571428</ele><time>2026-05-05T12:22:22.564Z</time></trkpt><trkpt lat="38.12222" lon="13.1516567"><ele>804.0</ele><time>2026-05-05T12:22:23.564Z</time></trkpt><trkpt lat="38.1221517" lon="13.151655"><ele>804.0</ele><time>2026-05-05T12:22:24.563Z</time></trkpt><trkpt lat="38.122075" lon="13.151645"><ele>804.0</ele><time>2026-05-05T12:22:25.564Z</time></trkpt><trkpt lat="38.121995" lon="13.1516317"><ele>804.0</ele><time>2026-05-05T12:22:26.563Z</time></trkpt><trkpt lat="38.1219133" lon="13.1516217"><ele>804.0</ele><time>2026-05-05T12:22:27.563Z</time></trkpt><trkpt lat="38.1218233" lon="13.1516133"><ele>804.0</ele><time>2026-05-05T12:22:28.564Z</time></trkpt><trkpt lat="38.12173" lon="13.1516067"><ele>804.0</ele><time>2026-05-05T12:22:29.563Z</time></trkpt><trkpt lat="38.1216383" lon="13.1516"><ele>804.5</ele><time>2026-05-05T12:22:30.564Z</time></trkpt><trkpt lat="38.1215467" lon="13.151595"><ele>805.0</ele><time>2026-05-05T12:22:31.564Z</time></trkpt><trkpt lat="38.1214583" lon="13.15159"><ele>805.5</ele><time>2026-05-05T12:22:32.564Z</time></trkpt><trkpt lat="38.12137" lon="13.1515867"><ele>806.0</ele><time>2026-05-05T12:22:33.563Z</time></trkpt><trkpt lat="38.1212833" lon="13.15159"><ele>806.5</ele><time>2026-05-05T12:22:34.564Z</time></trkpt><trkpt lat="38.121195" lon="13.1515983"><ele>807.0</ele><time>2026-05-05T12:22:35.564Z</time></trkpt><trkpt lat="38.121105" lon="13.1516067"><ele>807.0</ele><time>2026-05-05T12:22:36.563Z</time></trkpt><trkpt lat="38.121015" lon="13.15162"><ele>807.0</ele><time>2026-05-05T12:22:37.565Z</time></trkpt><trkpt lat="38.1209267" lon="13.151635"><ele>807.0</ele><time>2026-05-05T12:22:38.564Z</time></trkpt><trkpt lat="38.1208417" lon="13.1516533"><ele>807.0</ele><time>2026-05-05T12:22:39.563Z</time></trkpt><trkpt lat="38.1207533" lon="13.151675"><ele>807.0</ele><time>2026-05-05T12:22:40.564Z</time></trkpt><trkpt lat="38.1206683" lon="13.1517017"><ele>807.0</ele><time>2026-05-05T12:22:41.564Z</time></trkpt><trkpt lat="38.12059" lon="13.15173"><ele>807.8333333333334</ele><time>2026-05-05T12:22:42.563Z</time></trkpt><trkpt lat="38.120515" lon="13.1517633"><ele>808.6666666666667</ele><time>2026-05-05T12:22:43.563Z</time></trkpt><trkpt lat="38.120435" lon="13.151795"><ele>809.5</ele><time>2026-05-05T12:22:44.564Z</time></trkpt><trkpt lat="38.1203533" lon="13.1518283"><ele>810.3333333333334</ele><time>2026-05-05T12:22:45.564Z</time></trkpt><trkpt lat="38.1202667" lon="13.1518567"><ele>811.1666666666667</ele><time>2026-05-05T12:22:46.564Z</time></trkpt><trkpt lat="38.12018" lon="13.151885"><ele>812.0</ele><time>2026-05-05T12:22:47.565Z</time></trkpt><trkpt lat="38.1200933" lon="13.1519117"><ele>812.0</ele><time>2026-05-05T12:22:48.565Z</time></trkpt><trkpt lat="38.1200033" lon="13.1519333"><ele>812.0</ele><time>2026-05-05T12:22:49.563Z</time></trkpt><trkpt lat="38.1199167" lon="13.1519483"><ele>812.0</ele><time>2026-05-05T12:22:50.565Z</time></trkpt><trkpt lat="38.119825" lon="13.1519533"><ele>812.0</ele><time>2026-05-05T12:22:51.564Z</time></trkpt><trkpt lat="38.119735" lon="13.1519567"><ele>812.0</ele><time>2026-05-05T12:22:52.564Z</time></trkpt><trkpt lat="38.1196417" lon="13.1519583"><ele>813.8</ele><time>2026-05-05T12:22:53.563Z</time></trkpt><trkpt lat="38.11955" lon="13.1519633"><ele>815.6</ele><time>2026-05-05T12:22:54.564Z</time></trkpt><trkpt lat="38.119455" lon="13.1519767"><ele>817.4</ele><time>2026-05-05T12:22:55.564Z</time></trkpt><trkpt lat="38.1193609" lon="13.1519874"><ele>819.1999999999999</ele><time>2026-05-05T12:22:56.564Z</time></trkpt><trkpt lat="38.1192684" lon="13.15199"><ele>821.0</ele><time>2026-05-05T12:22:57.562Z</time></trkpt><trkpt lat="38.1191767" lon="13.1519891"><ele>821.0</ele><time>2026-05-05T12:22:58.563Z</time></trkpt><trkpt lat="38.1190853" lon="13.1519921"><ele>821.0</ele><time>2026-05-05T12:22:59.564Z</time></trkpt><trkpt lat="38.118995" lon="13.151999"><ele>821.0</ele><time>2026-05-05T12:23:00.563Z</time></trkpt><trkpt lat="38.1189051" lon="13.1520108"><ele>821.0</ele><time>2026-05-05T12:23:01.564Z</time></trkpt><trkpt lat="38.1188129" lon="13.1520278"><ele>821.0</ele><time>2026-05-05T12:23:02.564Z</time></trkpt><trkpt lat="38.118715" lon="13.1520467"><ele>823.0</ele><time>2026-05-05T12:23:03.565Z</time></trkpt><trkpt lat="38.1186187" lon="13.1520695"><ele>825.0</ele><time>2026-05-05T12:23:04.564Z</time></trkpt><trkpt lat="38.1185276" lon="13.1520948"><ele>827.0</ele><time>2026-05-05T12:23:05.564Z</time></trkpt><trkpt lat="38.1184406" lon="13.1521215"><ele>829.0</ele><time>2026-05-05T12:23:06.564Z</time></trkpt><trkpt lat="38.1183569" lon="13.1521556"><ele>831.0</ele><time>2026-05-05T12:23:07.565Z</time></trkpt><trkpt lat="38.1182742" lon="13.1521924"><ele>829.5</ele><time>2026-05-05T12:23:08.563Z</time></trkpt><trkpt lat="38.118191" lon="13.1522224"><ele>828.0</ele><time>2026-05-05T12:23:09.564Z</time></trkpt><trkpt lat="38.1181121" lon="13.1522524"><ele>826.5</ele><time>2026-05-05T12:23:10.564Z</time></trkpt><trkpt lat="38.1180372" lon="13.1522785"><ele>825.0</ele><time>2026-05-05T12:23:11.564Z</time></trkpt><trkpt lat="38.1179672" lon="13.1523011"><ele>823.5</ele><time>2026-05-05T12:23:12.564Z</time></trkpt><trkpt lat="38.1178985" lon="13.1523211"><ele>822.0</ele><time>2026-05-05T12:23:13.564Z</time></trkpt><trkpt lat="38.1178237" lon="13.1523377"><ele>822.0</ele><time>2026-05-05T12:23:14.564Z</time></trkpt><trkpt lat="38.1177484" lon="13.1523589"><ele>822.0</ele><time>2026-05-05T12:23:15.564Z</time></trkpt><trkpt lat="38.1176759" lon="13.1523807"><ele>822.0</ele><time>2026-05-05T12:23:16.562Z</time></trkpt><trkpt lat="38.1176062" lon="13.1523986"><ele>822.0</ele><time>2026-05-05T12:23:17.564Z</time></trkpt><trkpt lat="38.1175409" lon="13.1524089"><ele>822.0</ele><time>2026-05-05T12:23:18.564Z</time></trkpt><trkpt lat="38.117431" lon="13.1523909"><ele>822.0</ele><time>2026-05-05T12:23:20.564Z</time></trkpt><trkpt lat="38.1173181" lon="13.1523078"><ele>818.6666666666666</ele><time>2026-05-05T12:23:22.564Z</time></trkpt><trkpt lat="38.1172559" lon="13.1522506"><ele>815.3333333333333</ele><time>2026-05-05T12:23:23.564Z</time></trkpt><trkpt lat="38.117191" lon="13.15219"><ele>812.0</ele><time>2026-05-05T12:23:24.563Z</time></trkpt><trkpt lat="38.1171201" lon="13.152127"><ele>808.6666666666666</ele><time>2026-05-05T12:23:25.563Z</time></trkpt><trkpt lat="38.1170458" lon="13.1520654"><ele>805.3333333333333</ele><time>2026-05-05T12:23:26.563Z</time></trkpt><trkpt lat="38.1169689" lon="13.1520108"><ele>802.0</ele><time>2026-05-05T12:23:27.564Z</time></trkpt><trkpt lat="38.1168883" lon="13.1519663"><ele>801.9999999999999</ele><time>2026-05-05T12:23:28.563Z</time></trkpt><trkpt lat="38.1168013" lon="13.1519325"><ele>802.0</ele><time>2026-05-05T12:23:29.563Z</time></trkpt><trkpt lat="38.1167177" lon="13.1519091"><ele>802.0</ele><time>2026-05-05T12:23:30.564Z</time></trkpt><trkpt lat="38.1166371" lon="13.151898"><ele>802.0</ele><time>2026-05-05T12:23:31.564Z</time></trkpt><trkpt lat="38.1165626" lon="13.1519021"><ele>801.9999999999999</ele><time>2026-05-05T12:23:32.564Z</time></trkpt><trkpt lat="38.1164963" lon="13.1519255"><ele>802.0</ele><time>2026-05-05T12:23:33.564Z</time></trkpt><trkpt lat="38.1164325" lon="13.1519568"><ele>803.8333333333333</ele><time>2026-05-05T12:23:34.564Z</time></trkpt><trkpt lat="38.11637" lon="13.1519862"><ele>805.6666666666666</ele><time>2026-05-05T12:23:35.563Z</time></trkpt><trkpt lat="38.1163082" lon="13.1520159"><ele>807.5</ele><time>2026-05-05T12:23:36.563Z</time></trkpt><trkpt lat="38.1162465" lon="13.1520479"><ele>809.3333333333333</ele><time>2026-05-05T12:23:37.565Z</time></trkpt><trkpt lat="38.1161837" lon="13.1520789"><ele>811.1666666666666</ele><time>2026-05-05T12:23:38.563Z</time></trkpt><trkpt lat="38.1160746" lon="13.1521358"><ele>813.0</ele><time>2026-05-05T12:23:40.564Z</time></trkpt><trkpt lat="38.1159831" lon="13.152189"><ele>813.0</ele><time>2026-05-05T12:23:42.563Z</time></trkpt><trkpt lat="38.1158833" lon="13.1522717"><ele>813.0</ele><time>2026-05-05T12:23:44.563Z</time></trkpt><trkpt lat="38.1158267" lon="13.152315"><ele>813.0</ele><time>2026-05-05T12:23:45.564Z</time></trkpt><trkpt lat="38.115765" lon="13.1523567"><ele>813.0</ele><time>2026-05-05T12:23:46.565Z</time></trkpt><trkpt lat="38.1157067" lon="13.152395"><ele>813.0</ele><time>2026-05-05T12:23:47.565Z</time></trkpt><trkpt lat="38.115645" lon="13.1524383"><ele>813.0</ele><time>2026-05-05T12:23:48.564Z</time></trkpt><trkpt lat="38.1155833" lon="13.1524867"><ele>809.0</ele><time>2026-05-05T12:23:49.564Z</time></trkpt><trkpt lat="38.11552" lon="13.1525433"><ele>805.0</ele><time>2026-05-05T12:23:50.564Z</time></trkpt><trkpt lat="38.1154617" lon="13.152605"><ele>801.0</ele><time>2026-05-05T12:23:51.565Z</time></trkpt><trkpt lat="38.1154067" lon="13.1526633"><ele>797.0</ele><time>2026-05-05T12:23:52.564Z</time></trkpt><trkpt lat="38.1153533" lon="13.152715"><ele>793.0</ele><time>2026-05-05T12:23:53.564Z</time></trkpt><trkpt lat="38.1153" lon="13.15276"><ele>789.0</ele><time>2026-05-05T12:23:54.563Z</time></trkpt><trkpt lat="38.1151917" lon="13.15283"><ele>788.9999999999999</ele><time>2026-05-05T12:23:56.565Z</time></trkpt><trkpt lat="38.1151333" lon="13.1528633"><ele>789.0</ele><time>2026-05-05T12:23:57.562Z</time></trkpt><trkpt lat="38.1150733" lon="13.1528967"><ele>789.0</ele><time>2026-05-05T12:23:58.564Z</time></trkpt><trkpt lat="38.1150133" lon="13.1529217"><ele>789.0</ele><time>2026-05-05T12:23:59.564Z</time></trkpt><trkpt lat="38.1149483" lon="13.1529433"><ele>789.0</ele><time>2026-05-05T12:24:00.564Z</time></trkpt><trkpt lat="38.11488" lon="13.1529667"><ele>788.9999999999999</ele><time>2026-05-05T12:24:01.564Z</time></trkpt><trkpt lat="38.1148117" lon="13.1529967"><ele>789.0</ele><time>2026-05-05T12:24:02.565Z</time></trkpt><trkpt lat="38.1147433" lon="13.1530333"><ele>790.9999999999999</ele><time>2026-05-05T12:24:03.564Z</time></trkpt><trkpt lat="38.114675" lon="13.1530817"><ele>793.0</ele><time>2026-05-05T12:24:04.564Z</time></trkpt><trkpt lat="38.1146083" lon="13.1531283"><ele>795.0</ele><time>2026-05-05T12:24:05.563Z</time></trkpt><trkpt lat="38.114545" lon="13.1531733"><ele>797.0</ele><time>2026-05-05T12:24:06.564Z</time></trkpt><trkpt lat="38.11448" lon="13.153215"><ele>799.0</ele><time>2026-05-05T12:24:07.563Z</time></trkpt><trkpt lat="38.1144167" lon="13.15325"><ele>800.9999999999999</ele><time>2026-05-05T12:24:08.563Z</time></trkpt><trkpt lat="38.1143533" lon="13.1532767"><ele>803.0</ele><time>2026-05-05T12:24:09.565Z</time></trkpt><trkpt lat="38.1142917" lon="13.1532983"><ele>797.2857142857142</ele><time>2026-05-05T12:24:10.563Z</time></trkpt><trkpt lat="38.1142283" lon="13.153315"><ele>791.5714285714286</ele><time>2026-05-05T12:24:11.563Z</time></trkpt><trkpt lat="38.1141633" lon="13.1533383"><ele>785.8571428571429</ele><time>2026-05-05T12:24:12.564Z</time></trkpt><trkpt lat="38.1140967" lon="13.153365"><ele>780.1428571428571</ele><time>2026-05-05T12:24:13.564Z</time></trkpt><trkpt lat="38.1140333" lon="13.153395"><ele>774.4285714285714</ele><time>2026-05-05T12:24:14.565Z</time></trkpt><trkpt lat="38.11397" lon="13.1534217"><ele>768.7142857142857</ele><time>2026-05-05T12:24:15.564Z</time></trkpt><trkpt lat="38.11391" lon="13.1534483"><ele>763.0</ele><time>2026-05-05T12:24:16.565Z</time></trkpt><trkpt lat="38.11379" lon="13.1534817"><ele>760.0</ele><time>2026-05-05T12:24:18.564Z</time></trkpt><trkpt lat="38.1137217" lon="13.15349"><ele>757.0</ele><time>2026-05-05T12:24:19.564Z</time></trkpt><trkpt lat="38.11365" lon="13.1534933"><ele>754.0</ele><time>2026-05-05T12:24:20.564Z</time></trkpt><trkpt lat="38.11358" lon="13.1534967"><ele>751.0</ele><time>2026-05-05T12:24:21.564Z</time></trkpt><trkpt lat="38.113515" lon="13.1534967"><ele>748.0</ele><time>2026-05-05T12:24:22.565Z</time></trkpt><trkpt lat="38.11341" lon="13.15347"><ele>745.0</ele><time>2026-05-05T12:24:24.563Z</time></trkpt><trkpt lat="38.1133233" lon="13.153395"><ele>745.0</ele><time>2026-05-05T12:24:26.563Z</time></trkpt><trkpt lat="38.1132783" lon="13.1533333"><ele>745.0</ele><time>2026-05-05T12:24:27.564Z</time></trkpt><trkpt lat="38.1132333" lon="13.1532567"><ele>745.0</ele><time>2026-05-05T12:24:28.565Z</time></trkpt><trkpt lat="38.11319" lon="13.15317"><ele>745.0</ele><time>2026-05-05T12:24:29.566Z</time></trkpt><trkpt lat="38.1131483" lon="13.1530883"><ele>745.0</ele><time>2026-05-05T12:24:30.565Z</time></trkpt><trkpt lat="38.1131083" lon="13.153015"><ele>745.0</ele><time>2026-05-05T12:24:31.564Z</time></trkpt><trkpt lat="38.1130717" lon="13.15294"><ele>745.0</ele><time>2026-05-05T12:24:32.564Z</time></trkpt><trkpt lat="38.11304" lon="13.15286"><ele>746.8333333333334</ele><time>2026-05-05T12:24:33.564Z</time></trkpt><trkpt lat="38.11301" lon="13.1527712"><ele>748.6666666666667</ele><time>2026-05-05T12:24:34.564Z</time></trkpt><trkpt lat="38.1129828" lon="13.1526768"><ele>750.5</ele><time>2026-05-05T12:24:35.563Z</time></trkpt><trkpt lat="38.1129569" lon="13.1525753"><ele>752.3333333333334</ele><time>2026-05-05T12:24:36.564Z</time></trkpt><trkpt lat="38.1129247" lon="13.1524741"><ele>754.1666666666666</ele><time>2026-05-05T12:24:37.564Z</time></trkpt><trkpt lat="38.1128863" lon="13.1523803"><ele>756.0</ele><time>2026-05-05T12:24:38.565Z</time></trkpt><trkpt lat="38.112841" lon="13.1522994"><ele>756.0</ele><time>2026-05-05T12:24:39.564Z</time></trkpt><trkpt lat="38.1127914" lon="13.1522238"><ele>756.0</ele><time>2026-05-05T12:24:40.563Z</time></trkpt><trkpt lat="38.1127424" lon="13.1521483"><ele>756.0</ele><time>2026-05-05T12:24:41.564Z</time></trkpt><trkpt lat="38.1126923" lon="13.1520719"><ele>756.0</ele><time>2026-05-05T12:24:42.563Z</time></trkpt><trkpt lat="38.112642" lon="13.1519977"><ele>756.0</ele><time>2026-05-05T12:24:43.564Z</time></trkpt><trkpt lat="38.1125917" lon="13.1519204"><ele>756.0</ele><time>2026-05-05T12:24:44.564Z</time></trkpt><trkpt lat="38.11254" lon="13.1518393"><ele>756.0</ele><time>2026-05-05T12:24:45.563Z</time></trkpt><trkpt lat="38.1124884" lon="13.1517571"><ele>756.0</ele><time>2026-05-05T12:24:46.563Z</time></trkpt><trkpt lat="38.1124378" lon="13.1516768"><ele>756.0</ele><time>2026-05-05T12:24:47.563Z</time></trkpt><trkpt lat="38.1123869" lon="13.1515955"><ele>756.0</ele><time>2026-05-05T12:24:48.565Z</time></trkpt><trkpt lat="38.1123325" lon="13.1515205"><ele>756.0</ele><time>2026-05-05T12:24:49.565Z</time></trkpt><trkpt lat="38.1122739" lon="13.1514559"><ele>756.0</ele><time>2026-05-05T12:24:50.563Z</time></trkpt><trkpt lat="38.1122124" lon="13.1513984"><ele>753.1428571428571</ele><time>2026-05-05T12:24:51.563Z</time></trkpt><trkpt lat="38.1121547" lon="13.151337"><ele>750.2857142857142</ele><time>2026-05-05T12:24:52.565Z</time></trkpt><trkpt lat="38.1121065" lon="13.1512682"><ele>747.4285714285714</ele><time>2026-05-05T12:24:53.565Z</time></trkpt><trkpt lat="38.1120708" lon="13.151189"><ele>744.5714285714286</ele><time>2026-05-05T12:24:54.563Z</time></trkpt><trkpt lat="38.1120434" lon="13.1510999"><ele>741.7142857142857</ele><time>2026-05-05T12:24:55.563Z</time></trkpt><trkpt lat="38.1120211" lon="13.1510091"><ele>738.8571428571429</ele><time>2026-05-05T12:24:56.564Z</time></trkpt><trkpt lat="38.1119956" lon="13.1509226"><ele>736.0</ele><time>2026-05-05T12:24:57.564Z</time></trkpt><trkpt lat="38.1119585" lon="13.1508371"><ele>736.0</ele><time>2026-05-05T12:24:58.565Z</time></trkpt><trkpt lat="38.1119106" lon="13.1507537"><ele>736.0</ele><time>2026-05-05T12:24:59.564Z</time></trkpt><trkpt lat="38.1118579" lon="13.150669"><ele>736.0</ele><time>2026-05-05T12:25:00.564Z</time></trkpt><trkpt lat="38.1118016" lon="13.150584"><ele>736.0</ele><time>2026-05-05T12:25:01.564Z</time></trkpt><trkpt lat="38.1117366" lon="13.1505076"><ele>736.0</ele><time>2026-05-05T12:25:02.564Z</time></trkpt><trkpt lat="38.1116674" lon="13.1504501"><ele>736.0</ele><time>2026-05-05T12:25:03.565Z</time></trkpt><trkpt lat="38.1116009" lon="13.1503997"><ele>734.2857142857143</ele><time>2026-05-05T12:25:04.564Z</time></trkpt><trkpt lat="38.1115412" lon="13.1503425"><ele>732.5714285714286</ele><time>2026-05-05T12:25:05.563Z</time></trkpt><trkpt lat="38.1114873" lon="13.1502797"><ele>730.8571428571429</ele><time>2026-05-05T12:25:06.564Z</time></trkpt><trkpt lat="38.1114361" lon="13.1502194"><ele>729.1428571428571</ele><time>2026-05-05T12:25:07.564Z</time></trkpt><trkpt lat="38.1113862" lon="13.1501615"><ele>727.4285714285713</ele><time>2026-05-05T12:25:08.564Z</time></trkpt><trkpt lat="38.1113401" lon="13.1500954"><ele>725.7142857142857</ele><time>2026-05-05T12:25:09.564Z</time></trkpt><trkpt lat="38.1112972" lon="13.1500177"><ele>724.0</ele><time>2026-05-05T12:25:10.563Z</time></trkpt><trkpt lat="38.1112507" lon="13.1499362"><ele>727.1666666666667</ele><time>2026-05-05T12:25:11.564Z</time></trkpt><trkpt lat="38.1112009" lon="13.1498618"><ele>730.3333333333334</ele><time>2026-05-05T12:25:12.564Z</time></trkpt><trkpt lat="38.1111464" lon="13.1497876"><ele>733.5</ele><time>2026-05-05T12:25:13.563Z</time></trkpt><trkpt lat="38.1110894" lon="13.149708"><ele>736.6666666666666</ele><time>2026-05-05T12:25:14.564Z</time></trkpt><trkpt lat="38.1110322" lon="13.1496312"><ele>739.8333333333333</ele><time>2026-05-05T12:25:15.564Z</time></trkpt><trkpt lat="38.1109722" lon="13.149566"><ele>743.0</ele><time>2026-05-05T12:25:16.564Z</time></trkpt><trkpt lat="38.1109088" lon="13.1495185"><ele>743.0</ele><time>2026-05-05T12:25:17.563Z</time></trkpt><trkpt lat="38.1108385" lon="13.1494799"><ele>743.0</ele><time>2026-05-05T12:25:18.564Z</time></trkpt><trkpt lat="38.1107564" lon="13.1494363"><ele>743.0</ele><time>2026-05-05T12:25:19.564Z</time></trkpt><trkpt lat="38.110674" lon="13.1493882"><ele>743.0</ele><time>2026-05-05T12:25:20.565Z</time></trkpt><trkpt lat="38.1105955" lon="13.149345"><ele>743.0</ele><time>2026-05-05T12:25:21.564Z</time></trkpt><trkpt lat="38.11052" lon="13.1493183"><ele>743.0</ele><time>2026-05-05T12:25:22.564Z</time></trkpt><trkpt lat="38.1104467" lon="13.1492967"><ele>744.0</ele><time>2026-05-05T12:25:23.565Z</time></trkpt><trkpt lat="38.1103767" lon="13.1492883"><ele>745.0</ele><time>2026-05-05T12:25:24.564Z</time></trkpt><trkpt lat="38.11031" lon="13.149295"><ele>746.0</ele><time>2026-05-05T12:25:25.564Z</time></trkpt><trkpt lat="38.11019" lon="13.1493317"><ele>747.0</ele><time>2026-05-05T12:25:27.564Z</time></trkpt><trkpt lat="38.1101117" lon="13.1494483"><ele>748.0</ele><time>2026-05-05T12:25:29.564Z</time></trkpt><trkpt lat="38.1100983" lon="13.1495333"><ele>749.0</ele><time>2026-05-05T12:25:30.564Z</time></trkpt><trkpt lat="38.1101017" lon="13.14963"><ele>749.0</ele><time>2026-05-05T12:25:31.564Z</time></trkpt><trkpt lat="38.110105" lon="13.1497283"><ele>749.0</ele><time>2026-05-05T12:25:32.564Z</time></trkpt><trkpt lat="38.1101167" lon="13.1498267"><ele>749.0</ele><time>2026-05-05T12:25:33.563Z</time></trkpt><trkpt lat="38.1101267" lon="13.1499217"><ele>749.0</ele><time>2026-05-05T12:25:34.564Z</time></trkpt><trkpt lat="38.11013" lon="13.15001"><ele>749.0</ele><time>2026-05-05T12:25:35.564Z</time></trkpt><trkpt lat="38.110125" lon="13.1500933"><ele>749.0</ele><time>2026-05-05T12:25:36.564Z</time></trkpt><trkpt lat="38.1101233" lon="13.150175"><ele>749.0</ele><time>2026-05-05T12:25:37.563Z</time></trkpt><trkpt lat="38.1101233" lon="13.1502583"><ele>746.8333333333333</ele><time>2026-05-05T12:25:38.563Z</time></trkpt><trkpt lat="38.110115" lon="13.1503383"><ele>744.6666666666666</ele><time>2026-05-05T12:25:39.563Z</time></trkpt><trkpt lat="38.1100417" lon="13.150455"><ele>742.5</ele><time>2026-05-05T12:25:41.564Z</time></trkpt><trkpt lat="38.1099333" lon="13.15054"><ele>740.3333333333334</ele><time>2026-05-05T12:25:43.564Z</time></trkpt><trkpt lat="38.1098683" lon="13.1505733"><ele>738.1666666666667</ele><time>2026-05-05T12:25:44.564Z</time></trkpt><trkpt lat="38.1098" lon="13.1505983"><ele>736.0</ele><time>2026-05-05T12:25:45.564Z</time></trkpt><trkpt lat="38.1097283" lon="13.150625"><ele>737.6666666666667</ele><time>2026-05-05T12:25:46.564Z</time></trkpt><trkpt lat="38.1096583" lon="13.1506517"><ele>739.3333333333334</ele><time>2026-05-05T12:25:47.565Z</time></trkpt><trkpt lat="38.1095917" lon="13.15067"><ele>741.0</ele><time>2026-05-05T12:25:48.563Z</time></trkpt><trkpt lat="38.1095267" lon="13.15069"><ele>742.6666666666666</ele><time>2026-05-05T12:25:49.564Z</time></trkpt><trkpt lat="38.1094683" lon="13.15072"><ele>744.3333333333333</ele><time>2026-05-05T12:25:50.565Z</time></trkpt><trkpt lat="38.109385" lon="13.1508267"><ele>746.0</ele><time>2026-05-05T12:25:52.564Z</time></trkpt><trkpt lat="38.1093633" lon="13.1509033"><ele>746.0</ele><time>2026-05-05T12:25:53.565Z</time></trkpt><trkpt lat="38.1093783" lon="13.151065"><ele>746.0</ele><time>2026-05-05T12:25:55.564Z</time></trkpt><trkpt lat="38.109415" lon="13.15115"><ele>746.0</ele><time>2026-05-05T12:25:56.564Z</time></trkpt><trkpt lat="38.1094517" lon="13.1512367"><ele>746.0</ele><time>2026-05-05T12:25:57.563Z</time></trkpt><trkpt lat="38.1094867" lon="13.1513283"><ele>746.0</ele><time>2026-05-05T12:25:58.563Z</time></trkpt><trkpt lat="38.1095233" lon="13.151425"><ele>746.0</ele><time>2026-05-05T12:25:59.565Z</time></trkpt><trkpt lat="38.1095567" lon="13.1515217"><ele>744.1666666666666</ele><time>2026-05-05T12:26:00.564Z</time></trkpt><trkpt lat="38.1095867" lon="13.1516217"><ele>742.3333333333333</ele><time>2026-05-05T12:26:01.565Z</time></trkpt><trkpt lat="38.1096133" lon="13.1517217"><ele>740.5</ele><time>2026-05-05T12:26:02.564Z</time></trkpt><trkpt lat="38.1096338" lon="13.1518196"><ele>738.6666666666666</ele><time>2026-05-05T12:26:03.564Z</time></trkpt><trkpt lat="38.1096476" lon="13.1519127"><ele>736.8333333333334</ele><time>2026-05-05T12:26:04.563Z</time></trkpt><trkpt lat="38.1096478" lon="13.1520008"><ele>735.0</ele><time>2026-05-05T12:26:05.564Z</time></trkpt><trkpt lat="38.1096316" lon="13.1520821"><ele>735.0</ele><time>2026-05-05T12:26:06.564Z</time></trkpt><trkpt lat="38.1095931" lon="13.152159"><ele>735.0</ele><time>2026-05-05T12:26:07.565Z</time></trkpt><trkpt lat="38.1095479" lon="13.1522405"><ele>735.0</ele><time>2026-05-05T12:26:08.566Z</time></trkpt><trkpt lat="38.1095037" lon="13.152327"><ele>735.0</ele><time>2026-05-05T12:26:09.563Z</time></trkpt><trkpt lat="38.1094707" lon="13.1524216"><ele>735.0</ele><time>2026-05-05T12:26:10.564Z</time></trkpt><trkpt lat="38.1094497" lon="13.1525255"><ele>735.0</ele><time>2026-05-05T12:26:11.564Z</time></trkpt><trkpt lat="38.1094464" lon="13.152627"><ele>733.8333333333334</ele><time>2026-05-05T12:26:12.564Z</time></trkpt><trkpt lat="38.1094584" lon="13.1527227"><ele>732.6666666666666</ele><time>2026-05-05T12:26:13.563Z</time></trkpt><trkpt lat="38.1094739" lon="13.1528167"><ele>731.5</ele><time>2026-05-05T12:26:14.564Z</time></trkpt><trkpt lat="38.1094857" lon="13.1529033"><ele>730.3333333333333</ele><time>2026-05-05T12:26:15.564Z</time></trkpt><trkpt lat="38.1094856" lon="13.1530405"><ele>729.1666666666666</ele><time>2026-05-05T12:26:17.564Z</time></trkpt><trkpt lat="38.1094184" lon="13.1530803"><ele>728.0</ele><time>2026-05-05T12:26:19.565Z</time></trkpt><trkpt lat="38.1092993" lon="13.1530159"><ele>728.0</ele><time>2026-05-05T12:26:21.564Z</time></trkpt><trkpt lat="38.1092301" lon="13.152975"><ele>728.0</ele><time>2026-05-05T12:26:22.564Z</time></trkpt><trkpt lat="38.1091533" lon="13.1529356"><ele>728.0</ele><time>2026-05-05T12:26:23.564Z</time></trkpt><trkpt lat="38.1090785" lon="13.1528926"><ele>728.0</ele><time>2026-05-05T12:26:24.564Z</time></trkpt><trkpt lat="38.1090036" lon="13.1528443"><ele>728.0</ele><time>2026-05-05T12:26:25.564Z</time></trkpt><trkpt lat="38.1089242" lon="13.1528096"><ele>728.0</ele><time>2026-05-05T12:26:26.564Z</time></trkpt><trkpt lat="38.1088358" lon="13.152797"><ele>726.6666666666666</ele><time>2026-05-05T12:26:27.564Z</time></trkpt><trkpt lat="38.1087488" lon="13.1527936"><ele>725.3333333333333</ele><time>2026-05-05T12:26:28.564Z</time></trkpt><trkpt lat="38.1086687" lon="13.1527805"><ele>724.0</ele><time>2026-05-05T12:26:29.564Z</time></trkpt><trkpt lat="38.1086043" lon="13.1527479"><ele>722.6666666666666</ele><time>2026-05-05T12:26:30.564Z</time></trkpt><trkpt lat="38.1085052" lon="13.1526541"><ele>721.3333333333334</ele><time>2026-05-05T12:26:32.563Z</time></trkpt><trkpt lat="38.1084477" lon="13.1526071"><ele>720.0</ele><time>2026-05-05T12:26:33.563Z</time></trkpt><trkpt lat="38.1083833" lon="13.1525543"><ele>720.0</ele><time>2026-05-05T12:26:34.565Z</time></trkpt><trkpt lat="38.1083168" lon="13.152494"><ele>720.0</ele><time>2026-05-05T12:26:35.564Z</time></trkpt><trkpt lat="38.1082454" lon="13.1524256"><ele>720.0</ele><time>2026-05-05T12:26:36.564Z</time></trkpt><trkpt lat="38.1081713" lon="13.1523605"><ele>720.0</ele><time>2026-05-05T12:26:37.564Z</time></trkpt><trkpt lat="38.1080999" lon="13.1523074"><ele>720.0</ele><time>2026-05-05T12:26:38.564Z</time></trkpt><trkpt lat="38.1080275" lon="13.1522645"><ele>720.0</ele><time>2026-05-05T12:26:39.565Z</time></trkpt><trkpt lat="38.1079552" lon="13.1522258"><ele>722.7142857142857</ele><time>2026-05-05T12:26:40.565Z</time></trkpt><trkpt lat="38.107885" lon="13.1521857"><ele>725.4285714285714</ele><time>2026-05-05T12:26:41.564Z</time></trkpt><trkpt lat="38.1078178" lon="13.1521555"><ele>728.1428571428571</ele><time>2026-05-05T12:26:42.563Z</time></trkpt><trkpt lat="38.1077457" lon="13.1521466"><ele>730.8571428571429</ele><time>2026-05-05T12:26:43.563Z</time></trkpt><trkpt lat="38.1076759" lon="13.1521617"><ele>733.5714285714287</ele><time>2026-05-05T12:26:44.564Z</time></trkpt><trkpt lat="38.1076179" lon="13.1522008"><ele>736.2857142857143</ele><time>2026-05-05T12:26:45.563Z</time></trkpt><trkpt lat="38.1075691" lon="13.152261"><ele>739.0</ele><time>2026-05-05T12:26:46.563Z</time></trkpt><trkpt lat="38.1075264" lon="13.1523386"><ele>737.6666666666667</ele><time>2026-05-05T12:26:47.564Z</time></trkpt><trkpt lat="38.1074768" lon="13.152424"><ele>736.3333333333334</ele><time>2026-05-05T12:26:48.565Z</time></trkpt><trkpt lat="38.1074156" lon="13.1525035"><ele>735.0</ele><time>2026-05-05T12:26:49.564Z</time></trkpt><trkpt lat="38.1073455" lon="13.1525766"><ele>733.6666666666666</ele><time>2026-05-05T12:26:50.564Z</time></trkpt><trkpt lat="38.1072717" lon="13.1526483"><ele>732.3333333333333</ele><time>2026-05-05T12:26:51.562Z</time></trkpt><trkpt lat="38.1072033" lon="13.1527217"><ele>731.0</ele><time>2026-05-05T12:26:52.564Z</time></trkpt><trkpt lat="38.1071383" lon="13.15281"><ele>731.0</ele><time>2026-05-05T12:26:53.564Z</time></trkpt><trkpt lat="38.1070817" lon="13.1529017"><ele>731.0</ele><time>2026-05-05T12:26:54.564Z</time></trkpt><trkpt lat="38.1070367" lon="13.153"><ele>731.0</ele><time>2026-05-05T12:26:55.564Z</time></trkpt><trkpt lat="38.107" lon="13.1530983"><ele>731.0</ele><time>2026-05-05T12:26:56.565Z</time></trkpt><trkpt lat="38.106975" lon="13.1531967"><ele>731.0</ele><time>2026-05-05T12:26:57.565Z</time></trkpt><trkpt lat="38.1069533" lon="13.1532983"><ele>731.0</ele><time>2026-05-05T12:26:58.565Z</time></trkpt><trkpt lat="38.1069333" lon="13.1533983"><ele>726.8333333333333</ele><time>2026-05-05T12:26:59.564Z</time></trkpt><trkpt lat="38.1069083" lon="13.1534883"><ele>722.6666666666666</ele><time>2026-05-05T12:27:00.563Z</time></trkpt><trkpt lat="38.1068267" lon="13.1535717"><ele>718.5</ele><time>2026-05-05T12:27:02.563Z</time></trkpt><trkpt lat="38.1067217" lon="13.1535883"><ele>714.3333333333334</ele><time>2026-05-05T12:27:04.564Z</time></trkpt><trkpt lat="38.1066533" lon="13.15357"><ele>710.1666666666667</ele><time>2026-05-05T12:27:05.564Z</time></trkpt><trkpt lat="38.1065883" lon="13.1535283"><ele>706.0</ele><time>2026-05-05T12:27:06.563Z</time></trkpt><trkpt lat="38.10653" lon="13.1534733"><ele>705.5714285714286</ele><time>2026-05-05T12:27:07.564Z</time></trkpt><trkpt lat="38.106475" lon="13.153415"><ele>705.1428571428572</ele><time>2026-05-05T12:27:08.563Z</time></trkpt><trkpt lat="38.1064033" lon="13.1533683"><ele>704.7142857142858</ele><time>2026-05-05T12:27:09.565Z</time></trkpt><trkpt lat="38.106325" lon="13.1533433"><ele>704.2857142857142</ele><time>2026-05-05T12:27:10.564Z</time></trkpt><trkpt lat="38.106255" lon="13.153355"><ele>703.8571428571429</ele><time>2026-05-05T12:27:11.564Z</time></trkpt><trkpt lat="38.1061883" lon="13.15339"><ele>703.4285714285714</ele><time>2026-05-05T12:27:12.566Z</time></trkpt><trkpt lat="38.10612" lon="13.1534133"><ele>703.0</ele><time>2026-05-05T12:27:13.564Z</time></trkpt><trkpt lat="38.1060567" lon="13.1534183"><ele>703.0</ele><time>2026-05-05T12:27:14.565Z</time></trkpt><trkpt lat="38.10595" lon="13.1533417"><ele>703.0</ele><time>2026-05-05T12:27:16.565Z</time></trkpt><trkpt lat="38.10592" lon="13.1532683"><ele>703.0</ele><time>2026-05-05T12:27:17.564Z</time></trkpt><trkpt lat="38.1058517" lon="13.153145"><ele>703.0</ele><time>2026-05-05T12:27:19.564Z</time></trkpt><trkpt lat="38.1057383" lon="13.1531417"><ele>703.0</ele><time>2026-05-05T12:27:21.565Z</time></trkpt><trkpt lat="38.1056733" lon="13.15318"><ele>702.1428571428571</ele><time>2026-05-05T12:27:22.565Z</time></trkpt><trkpt lat="38.1056067" lon="13.1532167"><ele>701.2857142857143</ele><time>2026-05-05T12:27:23.565Z</time></trkpt><trkpt lat="38.105535" lon="13.15323"><ele>700.4285714285714</ele><time>2026-05-05T12:27:24.564Z</time></trkpt><trkpt lat="38.1054583" lon="13.15322"><ele>699.5714285714286</ele><time>2026-05-05T12:27:25.564Z</time></trkpt><trkpt lat="38.1053867" lon="13.1532033"><ele>698.7142857142857</ele><time>2026-05-05T12:27:26.565Z</time></trkpt><trkpt lat="38.1053167" lon="13.1531967"><ele>697.8571428571429</ele><time>2026-05-05T12:27:27.564Z</time></trkpt><trkpt lat="38.1052517" lon="13.1532083"><ele>697.0</ele><time>2026-05-05T12:27:28.563Z</time></trkpt><trkpt lat="38.1051917" lon="13.1532417"><ele>697.0</ele><time>2026-05-05T12:27:29.564Z</time></trkpt><trkpt lat="38.10513" lon="13.15329"><ele>697.0</ele><time>2026-05-05T12:27:30.565Z</time></trkpt><trkpt lat="38.1050633" lon="13.1533333"><ele>697.0</ele><time>2026-05-05T12:27:31.565Z</time></trkpt><trkpt lat="38.10499" lon="13.1533617"><ele>697.0</ele><time>2026-05-05T12:27:32.565Z</time></trkpt><trkpt lat="38.1049117" lon="13.153375"><ele>697.0</ele><time>2026-05-05T12:27:33.563Z</time></trkpt><trkpt lat="38.10483" lon="13.1533733"><ele>697.0</ele><time>2026-05-05T12:27:34.564Z</time></trkpt><trkpt lat="38.10475" lon="13.1533483"><ele>698.1428571428571</ele><time>2026-05-05T12:27:35.563Z</time></trkpt><trkpt lat="38.1046783" lon="13.1533133"><ele>699.2857142857142</ele><time>2026-05-05T12:27:36.563Z</time></trkpt><trkpt lat="38.1046183" lon="13.153275"><ele>700.4285714285713</ele><time>2026-05-05T12:27:37.564Z</time></trkpt><trkpt lat="38.1045533" lon="13.1532317"><ele>701.5714285714286</ele><time>2026-05-05T12:27:38.563Z</time></trkpt><trkpt lat="38.1044867" lon="13.15319"><ele>702.7142857142857</ele><time>2026-05-05T12:27:39.564Z</time></trkpt><trkpt lat="38.104415" lon="13.1531533"><ele>703.8571428571428</ele><time>2026-05-05T12:27:40.564Z</time></trkpt><trkpt lat="38.1043433" lon="13.1531167"><ele>705.0</ele><time>2026-05-05T12:27:41.565Z</time></trkpt><trkpt lat="38.10427" lon="13.153075"><ele>705.0</ele><time>2026-05-05T12:27:42.564Z</time></trkpt><trkpt lat="38.1042017" lon="13.1530283"><ele>705.0</ele><time>2026-05-05T12:27:43.563Z</time></trkpt><trkpt lat="38.1041417" lon="13.1529833"><ele>705.0</ele><time>2026-05-05T12:27:44.566Z</time></trkpt><trkpt lat="38.10408" lon="13.15293"><ele>705.0</ele><time>2026-05-05T12:27:45.564Z</time></trkpt><trkpt lat="38.10401" lon="13.1528733"><ele>705.0</ele><time>2026-05-05T12:27:46.568Z</time></trkpt><trkpt lat="38.10394" lon="13.1528133"><ele>705.0</ele><time>2026-05-05T12:27:47.564Z</time></trkpt><trkpt lat="38.1038683" lon="13.152755"><ele>703.1428571428571</ele><time>2026-05-05T12:27:48.564Z</time></trkpt><trkpt lat="38.1038033" lon="13.1527"><ele>701.2857142857142</ele><time>2026-05-05T12:27:49.565Z</time></trkpt><trkpt lat="38.1037367" lon="13.1526533"><ele>699.4285714285713</ele><time>2026-05-05T12:27:50.564Z</time></trkpt><trkpt lat="38.10367" lon="13.1526183"><ele>697.5714285714286</ele><time>2026-05-05T12:27:51.565Z</time></trkpt><trkpt lat="38.1036033" lon="13.1525983"><ele>695.7142857142858</ele><time>2026-05-05T12:27:52.566Z</time></trkpt><trkpt lat="38.1035367" lon="13.15258"><ele>693.8571428571428</ele><time>2026-05-05T12:27:53.564Z</time></trkpt><trkpt lat="38.1034667" lon="13.1525667"><ele>692.0</ele><time>2026-05-05T12:27:54.563Z</time></trkpt><trkpt lat="38.1034033" lon="13.1525517"><ele>692.0</ele><time>2026-05-05T12:27:55.564Z</time></trkpt><trkpt lat="38.1033367" lon="13.1525317"><ele>692.0</ele><time>2026-05-05T12:27:56.565Z</time></trkpt><trkpt lat="38.1032667" lon="13.1525067"><ele>692.0</ele><time>2026-05-05T12:27:57.564Z</time></trkpt><trkpt lat="38.1031983" lon="13.1524783"><ele>692.0</ele><time>2026-05-05T12:27:58.563Z</time></trkpt><trkpt lat="38.1031267" lon="13.15244"><ele>692.0</ele><time>2026-05-05T12:27:59.563Z</time></trkpt><trkpt lat="38.1030483" lon="13.152395"><ele>692.0</ele><time>2026-05-05T12:28:00.563Z</time></trkpt><trkpt lat="38.1029783" lon="13.152345"><ele>692.2</ele><time>2026-05-05T12:28:01.564Z</time></trkpt><trkpt lat="38.102895" lon="13.1522783"><ele>692.4000000000001</ele><time>2026-05-05T12:28:02.565Z</time></trkpt><trkpt lat="38.1028033" lon="13.152215"><ele>692.5999999999999</ele><time>2026-05-05T12:28:03.564Z</time></trkpt><trkpt lat="38.1027167" lon="13.1521567"><ele>692.8</ele><time>2026-05-05T12:28:04.565Z</time></trkpt><trkpt lat="38.1026283" lon="13.1520983"><ele>693.0</ele><time>2026-05-05T12:28:05.565Z</time></trkpt><trkpt lat="38.1025317" lon="13.1520467"><ele>693.0</ele><time>2026-05-05T12:28:06.564Z</time></trkpt><trkpt lat="38.1024267" lon="13.152"><ele>693.0</ele><time>2026-05-05T12:28:07.565Z</time></trkpt><trkpt lat="38.102335" lon="13.1519617"><ele>693.0</ele><time>2026-05-05T12:28:08.564Z</time></trkpt><trkpt lat="38.1022467" lon="13.1519267"><ele>693.0</ele><time>2026-05-05T12:28:09.566Z</time></trkpt><trkpt lat="38.1021283" lon="13.15186"><ele>693.0</ele><time>2026-05-05T12:28:11.565Z</time></trkpt><trkpt lat="38.10206" lon="13.1518267"><ele>690.1666666666666</ele><time>2026-05-05T12:28:12.565Z</time></trkpt><trkpt lat="38.101995" lon="13.151795"><ele>687.3333333333334</ele><time>2026-05-05T12:28:13.564Z</time></trkpt><trkpt lat="38.1019333" lon="13.1517717"><ele>684.5</ele><time>2026-05-05T12:28:14.564Z</time></trkpt><trkpt lat="38.101865" lon="13.1517717"><ele>681.6666666666667</ele><time>2026-05-05T12:28:16.564Z</time></trkpt><trkpt lat="38.1018067" lon="13.1518217"><ele>678.8333333333334</ele><time>2026-05-05T12:28:18.563Z</time></trkpt><trkpt lat="38.1017283" lon="13.15193"><ele>676.0</ele><time>2026-05-05T12:28:20.565Z</time></trkpt><trkpt lat="38.101675" lon="13.1519967"><ele>676.0</ele><time>2026-05-05T12:28:21.565Z</time></trkpt><trkpt lat="38.101625" lon="13.152075"><ele>676.0</ele><time>2026-05-05T12:28:22.564Z</time></trkpt><trkpt lat="38.10158" lon="13.15216"><ele>676.0</ele><time>2026-05-05T12:28:23.565Z</time></trkpt><trkpt lat="38.1015367" lon="13.1522383"><ele>676.0</ele><time>2026-05-05T12:28:24.565Z</time></trkpt><trkpt lat="38.1014917" lon="13.1523017"><ele>676.0</ele><time>2026-05-05T12:28:25.565Z</time></trkpt><trkpt lat="38.10142" lon="13.152405"><ele>676.0</ele><time>2026-05-05T12:28:27.565Z</time></trkpt><trkpt lat="38.1013433" lon="13.1525083"><ele>672.5999999999999</ele><time>2026-05-05T12:28:29.565Z</time></trkpt><trkpt lat="38.1012767" lon="13.1526233"><ele>669.2</ele><time>2026-05-05T12:28:31.565Z</time></trkpt><trkpt lat="38.1012217" lon="13.15277"><ele>665.8</ele><time>2026-05-05T12:28:33.563Z</time></trkpt><trkpt lat="38.1012" lon="13.1528517"><ele>662.4000000000001</ele><time>2026-05-05T12:28:34.564Z</time></trkpt><trkpt lat="38.1011717" lon="13.1529367"><ele>659.0</ele><time>2026-05-05T12:28:35.564Z</time></trkpt><trkpt lat="38.1011417" lon="13.15303"><ele>659.0</ele><time>2026-05-05T12:28:36.563Z</time></trkpt><trkpt lat="38.1011183" lon="13.153115"><ele>659.0</ele><time>2026-05-05T12:28:37.563Z</time></trkpt><trkpt lat="38.1011" lon="13.1532017"><ele>659.0</ele><time>2026-05-05T12:28:38.564Z</time></trkpt><trkpt lat="38.101075" lon="13.1532783"><ele>659.0</ele><time>2026-05-05T12:28:39.563Z</time></trkpt><trkpt lat="38.1010317" lon="13.1534183"><ele>659.0</ele><time>2026-05-05T12:28:41.564Z</time></trkpt><trkpt lat="38.101005" lon="13.1535467"><ele>659.0</ele><time>2026-05-05T12:28:43.564Z</time></trkpt><trkpt lat="38.1009917" lon="13.1536317"><ele>659.0</ele><time>2026-05-05T12:28:45.565Z</time></trkpt><trkpt lat="38.100925" lon="13.153565"><ele>659.0</ele><time>2026-05-05T12:28:51.564Z</time></trkpt><trkpt lat="38.1009067" lon="13.1534767"><ele>659.0</ele><time>2026-05-05T12:28:54.564Z</time></trkpt><trkpt lat="38.1008633" lon="13.153355"><ele>659.0</ele><time>2026-05-05T12:29:02.564Z</time></trkpt><trkpt lat="38.10079" lon="13.1532217"><ele>659.0</ele><time>2026-05-05T12:29:04.564Z</time></trkpt><trkpt lat="38.1007517" lon="13.153155"><ele>655.8333333333333</ele><time>2026-05-05T12:29:05.565Z</time></trkpt><trkpt lat="38.100715" lon="13.15308"><ele>652.6666666666666</ele><time>2026-05-05T12:29:06.563Z</time></trkpt><trkpt lat="38.1006733" lon="13.152995"><ele>649.5</ele><time>2026-05-05T12:29:07.564Z</time></trkpt><trkpt lat="38.1006333" lon="13.1529067"><ele>646.3333333333334</ele><time>2026-05-05T12:29:08.565Z</time></trkpt><trkpt lat="38.100595" lon="13.152805"><ele>643.1666666666667</ele><time>2026-05-05T12:29:09.563Z</time></trkpt><trkpt lat="38.1005583" lon="13.1527083"><ele>640.0</ele><time>2026-05-05T12:29:10.564Z</time></trkpt><trkpt lat="38.1005167" lon="13.1526133"><ele>640.0</ele><time>2026-05-05T12:29:11.563Z</time></trkpt><trkpt lat="38.10047" lon="13.1525267"><ele>640.0</ele><time>2026-05-05T12:29:12.564Z</time></trkpt><trkpt lat="38.10042" lon="13.15244"><ele>640.0</ele><time>2026-05-05T12:29:13.564Z</time></trkpt><trkpt lat="38.1003817" lon="13.1523467"><ele>640.0</ele><time>2026-05-05T12:29:14.565Z</time></trkpt><trkpt lat="38.1003417" lon="13.152245"><ele>640.0</ele><time>2026-05-05T12:29:15.564Z</time></trkpt><trkpt lat="38.1003017" lon="13.1521467"><ele>640.0</ele><time>2026-05-05T12:29:16.564Z</time></trkpt><trkpt lat="38.1002483" lon="13.1520567"><ele>640.3333333333334</ele><time>2026-05-05T12:29:17.563Z</time></trkpt><trkpt lat="38.10019" lon="13.15197"><ele>640.6666666666667</ele><time>2026-05-05T12:29:18.564Z</time></trkpt><trkpt lat="38.1001317" lon="13.1518933"><ele>641.0</ele><time>2026-05-05T12:29:19.565Z</time></trkpt><trkpt lat="38.1000683" lon="13.1518267"><ele>641.3333333333334</ele><time>2026-05-05T12:29:20.564Z</time></trkpt><trkpt lat="38.099995" lon="13.1517767"><ele>641.6666666666666</ele><time>2026-05-05T12:29:21.565Z</time></trkpt><trkpt lat="38.0999167" lon="13.1517333"><ele>642.0</ele><time>2026-05-05T12:29:22.563Z</time></trkpt><trkpt lat="38.0998433" lon="13.1517033"><ele>638.8000000000001</ele><time>2026-05-05T12:29:23.565Z</time></trkpt><trkpt lat="38.0997767" lon="13.1516733"><ele>635.6</ele><time>2026-05-05T12:29:24.564Z</time></trkpt><trkpt lat="38.0996833" lon="13.15159"><ele>632.4000000000001</ele><time>2026-05-05T12:29:26.563Z</time></trkpt><trkpt lat="38.09966" lon="13.1514683"><ele>629.2</ele><time>2026-05-05T12:29:28.564Z</time></trkpt><trkpt lat="38.0997" lon="13.1513567"><ele>626.0</ele><time>2026-05-05T12:29:30.564Z</time></trkpt><trkpt lat="38.09979" lon="13.1512517"><ele>625.1666666666666</ele><time>2026-05-05T12:29:32.564Z</time></trkpt><trkpt lat="38.099845" lon="13.1512017"><ele>624.3333333333333</ele><time>2026-05-05T12:29:33.563Z</time></trkpt><trkpt lat="38.0999067" lon="13.1511567"><ele>623.5</ele><time>2026-05-05T12:29:34.565Z</time></trkpt><trkpt lat="38.09996" lon="13.1511133"><ele>622.6666666666666</ele><time>2026-05-05T12:29:35.565Z</time></trkpt><trkpt lat="38.1000183" lon="13.1510717"><ele>621.8333333333334</ele><time>2026-05-05T12:29:36.564Z</time></trkpt><trkpt lat="38.10008" lon="13.15098"><ele>621.0</ele><time>2026-05-05T12:29:38.564Z</time></trkpt><trkpt lat="38.1000883" lon="13.1508683"><ele>623.0</ele><time>2026-05-05T12:29:40.564Z</time></trkpt><trkpt lat="38.10004" lon="13.1508067"><ele>625.0</ele><time>2026-05-05T12:29:42.563Z</time></trkpt><trkpt lat="38.0999333" lon="13.1507383"><ele>627.0</ele><time>2026-05-05T12:29:44.564Z</time></trkpt><trkpt lat="38.0998867" lon="13.1506767"><ele>629.0</ele><time>2026-05-05T12:29:45.564Z</time></trkpt><trkpt lat="38.0998433" lon="13.1506067"><ele>631.0</ele><time>2026-05-05T12:29:46.563Z</time></trkpt><trkpt lat="38.0998067" lon="13.1505267"><ele>633.0</ele><time>2026-05-05T12:29:47.564Z</time></trkpt><trkpt lat="38.0997833" lon="13.15044"><ele>633.0</ele><time>2026-05-05T12:29:48.564Z</time></trkpt><trkpt lat="38.0997667" lon="13.1503467"><ele>633.0</ele><time>2026-05-05T12:29:49.565Z</time></trkpt><trkpt lat="38.0997633" lon="13.15025"><ele>633.0</ele><time>2026-05-05T12:29:50.564Z</time></trkpt><trkpt lat="38.0997683" lon="13.1501533"><ele>633.0</ele><time>2026-05-05T12:29:51.565Z</time></trkpt><trkpt lat="38.0997833" lon="13.1500567"><ele>633.0</ele><time>2026-05-05T12:29:52.565Z</time></trkpt><trkpt lat="38.0997967" lon="13.149965"><ele>633.0</ele><time>2026-05-05T12:29:53.564Z</time></trkpt><trkpt lat="38.0997967" lon="13.1498817"><ele>633.0</ele><time>2026-05-05T12:29:54.563Z</time></trkpt><trkpt lat="38.0997417" lon="13.1497367"><ele>634.1666666666666</ele><time>2026-05-05T12:29:56.564Z</time></trkpt><trkpt lat="38.0996967" lon="13.1496717"><ele>635.3333333333334</ele><time>2026-05-05T12:29:57.564Z</time></trkpt><trkpt lat="38.09965" lon="13.1496033"><ele>636.5</ele><time>2026-05-05T12:29:58.564Z</time></trkpt><trkpt lat="38.0996017" lon="13.1495317"><ele>637.6666666666667</ele><time>2026-05-05T12:29:59.566Z</time></trkpt><trkpt lat="38.0995533" lon="13.1494517"><ele>638.8333333333334</ele><time>2026-05-05T12:30:00.564Z</time></trkpt><trkpt lat="38.099505" lon="13.149365"><ele>640.0</ele><time>2026-05-05T12:30:01.565Z</time></trkpt><trkpt lat="38.099455" lon="13.1492767"><ele>640.0</ele><time>2026-05-05T12:30:02.565Z</time></trkpt><trkpt lat="38.0994017" lon="13.1491917"><ele>640.0</ele><time>2026-05-05T12:30:03.563Z</time></trkpt><trkpt lat="38.0993467" lon="13.149115"><ele>640.0</ele><time>2026-05-05T12:30:04.563Z</time></trkpt><trkpt lat="38.099285" lon="13.1490517"><ele>640.0</ele><time>2026-05-05T12:30:05.564Z</time></trkpt><trkpt lat="38.099215" lon="13.1489983"><ele>640.0</ele><time>2026-05-05T12:30:06.564Z</time></trkpt><trkpt lat="38.09914" lon="13.1489417"><ele>640.0</ele><time>2026-05-05T12:30:07.565Z</time></trkpt><trkpt lat="38.0990667" lon="13.1488867"><ele>639.7142857142857</ele><time>2026-05-05T12:30:08.564Z</time></trkpt><trkpt lat="38.098995" lon="13.1488283"><ele>639.4285714285714</ele><time>2026-05-05T12:30:09.564Z</time></trkpt><trkpt lat="38.0989317" lon="13.1487717"><ele>639.1428571428571</ele><time>2026-05-05T12:30:10.565Z</time></trkpt><trkpt lat="38.0988767" lon="13.1487133"><ele>638.8571428571429</ele><time>2026-05-05T12:30:11.564Z</time></trkpt><trkpt lat="38.098825" lon="13.1486483"><ele>638.5714285714286</ele><time>2026-05-05T12:30:12.564Z</time></trkpt><trkpt lat="38.0987733" lon="13.14859"><ele>638.2857142857143</ele><time>2026-05-05T12:30:13.564Z</time></trkpt><trkpt lat="38.0987133" lon="13.1485383"><ele>638.0</ele><time>2026-05-05T12:30:14.565Z</time></trkpt><trkpt lat="38.0986383" lon="13.148495"><ele>638.0</ele><time>2026-05-05T12:30:15.564Z</time></trkpt><trkpt lat="38.09856" lon="13.1484533"><ele>638.0</ele><time>2026-05-05T12:30:16.564Z</time></trkpt><trkpt lat="38.098485" lon="13.1484067"><ele>638.0</ele><time>2026-05-05T12:30:17.565Z</time></trkpt><trkpt lat="38.0984117" lon="13.1483517"><ele>638.0</ele><time>2026-05-05T12:30:18.563Z</time></trkpt><trkpt lat="38.0983417" lon="13.1482867"><ele>638.0</ele><time>2026-05-05T12:30:19.565Z</time></trkpt><trkpt lat="38.098285" lon="13.14821"><ele>638.0</ele><time>2026-05-05T12:30:20.567Z</time></trkpt><trkpt lat="38.0982383" lon="13.1481217"><ele>636.5714285714286</ele><time>2026-05-05T12:30:21.565Z</time></trkpt><trkpt lat="38.0981983" lon="13.1480317"><ele>635.1428571428571</ele><time>2026-05-05T12:30:22.565Z</time></trkpt><trkpt lat="38.0981783" lon="13.1479417"><ele>633.7142857142857</ele><time>2026-05-05T12:30:23.565Z</time></trkpt><trkpt lat="38.0981767" lon="13.1478567"><ele>632.2857142857142</ele><time>2026-05-05T12:30:24.565Z</time></trkpt><trkpt lat="38.098195" lon="13.1477717"><ele>630.8571428571429</ele><time>2026-05-05T12:30:25.565Z</time></trkpt><trkpt lat="38.0982317" lon="13.1476883"><ele>629.4285714285713</ele><time>2026-05-05T12:30:26.565Z</time></trkpt><trkpt lat="38.0982767" lon="13.1476133"><ele>628.0</ele><time>2026-05-05T12:30:27.565Z</time></trkpt><trkpt lat="38.0983233" lon="13.1475483"><ele>627.5</ele><time>2026-05-05T12:30:28.564Z</time></trkpt><trkpt lat="38.0983867" lon="13.1474067"><ele>627.0</ele><time>2026-05-05T12:30:30.564Z</time></trkpt><trkpt lat="38.0984033" lon="13.1473167"><ele>626.5</ele><time>2026-05-05T12:30:31.565Z</time></trkpt><trkpt lat="38.0984117" lon="13.1472183"><ele>626.0</ele><time>2026-05-05T12:30:32.565Z</time></trkpt><trkpt lat="38.0984167" lon="13.1471167"><ele>625.5</ele><time>2026-05-05T12:30:33.563Z</time></trkpt><trkpt lat="38.09842" lon="13.1470133"><ele>625.0</ele><time>2026-05-05T12:30:34.564Z</time></trkpt><trkpt lat="38.0984217" lon="13.146915"><ele>622.7142857142858</ele><time>2026-05-05T12:30:35.565Z</time></trkpt><trkpt lat="38.09843" lon="13.1468167"><ele>620.4285714285714</ele><time>2026-05-05T12:30:36.564Z</time></trkpt><trkpt lat="38.0984417" lon="13.1467183"><ele>618.1428571428571</ele><time>2026-05-05T12:30:37.564Z</time></trkpt><trkpt lat="38.0984583" lon="13.1466233"><ele>615.8571428571429</ele><time>2026-05-05T12:30:38.565Z</time></trkpt><trkpt lat="38.0984817" lon="13.1465333"><ele>613.5714285714286</ele><time>2026-05-05T12:30:39.565Z</time></trkpt><trkpt lat="38.09851" lon="13.1464517"><ele>611.2857142857143</ele><time>2026-05-05T12:30:40.564Z</time></trkpt><trkpt lat="38.0985467" lon="13.1463767"><ele>609.0</ele><time>2026-05-05T12:30:41.565Z</time></trkpt><trkpt lat="38.0985917" lon="13.1463167"><ele>605.6</ele><time>2026-05-05T12:30:42.565Z</time></trkpt><trkpt lat="38.0986417" lon="13.146265"><ele>602.2</ele><time>2026-05-05T12:30:43.566Z</time></trkpt><trkpt lat="38.0987367" lon="13.1461683"><ele>598.8000000000001</ele><time>2026-05-05T12:30:45.565Z</time></trkpt><trkpt lat="38.098835" lon="13.1460817"><ele>595.4</ele><time>2026-05-05T12:30:47.563Z</time></trkpt><trkpt lat="38.0989067" lon="13.145995"><ele>592.0</ele><time>2026-05-05T12:30:49.565Z</time></trkpt><trkpt lat="38.0989283" lon="13.1458833"><ele>592.0</ele><time>2026-05-05T12:30:51.564Z</time></trkpt><trkpt lat="38.09888" lon="13.1457783"><ele>592.0</ele><time>2026-05-05T12:30:53.564Z</time></trkpt><trkpt lat="38.0987883" lon="13.1457033"><ele>592.0</ele><time>2026-05-05T12:30:55.564Z</time></trkpt><trkpt lat="38.0987367" lon="13.1456533"><ele>592.0</ele><time>2026-05-05T12:30:56.565Z</time></trkpt><trkpt lat="38.0986883" lon="13.1455933"><ele>592.0</ele><time>2026-05-05T12:30:57.564Z</time></trkpt><trkpt lat="38.0986433" lon="13.1455317"><ele>592.0</ele><time>2026-05-05T12:30:58.564Z</time></trkpt><trkpt lat="38.0985967" lon="13.1454717"><ele>593.1428571428571</ele><time>2026-05-05T12:30:59.565Z</time></trkpt><trkpt lat="38.0985483" lon="13.14541"><ele>594.2857142857142</ele><time>2026-05-05T12:31:00.564Z</time></trkpt><trkpt lat="38.0985017" lon="13.14535"><ele>595.4285714285713</ele><time>2026-05-05T12:31:01.565Z</time></trkpt><trkpt lat="38.0984567" lon="13.1452883"><ele>596.5714285714286</ele><time>2026-05-05T12:31:02.565Z</time></trkpt><trkpt lat="38.09841" lon="13.1452183"><ele>597.7142857142857</ele><time>2026-05-05T12:31:03.565Z</time></trkpt><trkpt lat="38.0983667" lon="13.14514"><ele>598.8571428571428</ele><time>2026-05-05T12:31:04.565Z</time></trkpt><trkpt lat="38.0983217" lon="13.145055"><ele>600.0</ele><time>2026-05-05T12:31:05.565Z</time></trkpt><trkpt lat="38.0982783" lon="13.1449617"><ele>595.8</ele><time>2026-05-05T12:31:06.564Z</time></trkpt><trkpt lat="38.0982383" lon="13.1448583"><ele>591.6</ele><time>2026-05-05T12:31:07.565Z</time></trkpt><trkpt lat="38.0982017" lon="13.1447467"><ele>587.4</ele><time>2026-05-05T12:31:08.565Z</time></trkpt><trkpt lat="38.0981667" lon="13.1446267"><ele>583.2</ele><time>2026-05-05T12:31:09.565Z</time></trkpt><trkpt lat="38.0981217" lon="13.14452"><ele>579.0</ele><time>2026-05-05T12:31:10.563Z</time></trkpt><trkpt lat="38.0980833" lon="13.1444233"><ele>579.0</ele><time>2026-05-05T12:31:11.564Z</time></trkpt><trkpt lat="38.0980517" lon="13.144325"><ele>579.0</ele><time>2026-05-05T12:31:12.565Z</time></trkpt><trkpt lat="38.0980283" lon="13.1442167"><ele>579.0</ele><time>2026-05-05T12:31:13.565Z</time></trkpt><trkpt lat="38.0980167" lon="13.1441017"><ele>579.0</ele><time>2026-05-05T12:31:14.565Z</time></trkpt><trkpt lat="38.0980183" lon="13.1439933"><ele>579.0</ele><time>2026-05-05T12:31:15.564Z</time></trkpt><trkpt lat="38.0980317" lon="13.1438883"><ele>579.0</ele><time>2026-05-05T12:31:16.565Z</time></trkpt><trkpt lat="38.0980517" lon="13.1437867"><ele>579.8333333333334</ele><time>2026-05-05T12:31:17.565Z</time></trkpt><trkpt lat="38.098075" lon="13.1436817"><ele>580.6666666666666</ele><time>2026-05-05T12:31:18.564Z</time></trkpt><trkpt lat="38.0980933" lon="13.143575"><ele>581.5</ele><time>2026-05-05T12:31:19.565Z</time></trkpt><trkpt lat="38.0980983" lon="13.1434683"><ele>582.3333333333333</ele><time>2026-05-05T12:31:20.565Z</time></trkpt><trkpt lat="38.09808" lon="13.1433717"><ele>583.1666666666666</ele><time>2026-05-05T12:31:21.564Z</time></trkpt><trkpt lat="38.0980467" lon="13.1432783"><ele>584.0</ele><time>2026-05-05T12:31:22.564Z</time></trkpt><trkpt lat="38.09801" lon="13.1431783"><ele>584.6666666666666</ele><time>2026-05-05T12:31:23.565Z</time></trkpt><trkpt lat="38.09798" lon="13.1430783"><ele>585.3333333333333</ele><time>2026-05-05T12:31:24.564Z</time></trkpt><trkpt lat="38.0979617" lon="13.1429717"><ele>586.0</ele><time>2026-05-05T12:31:25.565Z</time></trkpt><trkpt lat="38.09795" lon="13.1428583"><ele>586.6666666666666</ele><time>2026-05-05T12:31:26.564Z</time></trkpt><trkpt lat="38.097945" lon="13.1427417"><ele>587.3333333333334</ele><time>2026-05-05T12:31:27.564Z</time></trkpt><trkpt lat="38.0979417" lon="13.142625"><ele>588.0</ele><time>2026-05-05T12:31:28.565Z</time></trkpt><trkpt lat="38.0979367" lon="13.1425133"><ele>588.0</ele><time>2026-05-05T12:31:29.564Z</time></trkpt><trkpt lat="38.0979333" lon="13.1424083"><ele>588.0</ele><time>2026-05-05T12:31:30.564Z</time></trkpt><trkpt lat="38.0979283" lon="13.1423117"><ele>588.0</ele><time>2026-05-05T12:31:31.564Z</time></trkpt><trkpt lat="38.0979217" lon="13.1422217"><ele>588.0</ele><time>2026-05-05T12:31:32.565Z</time></trkpt><trkpt lat="38.0979167" lon="13.14214"><ele>588.0</ele><time>2026-05-05T12:31:33.564Z</time></trkpt><trkpt lat="38.0979117" lon="13.14205"><ele>588.0</ele><time>2026-05-05T12:31:34.564Z</time></trkpt><trkpt lat="38.097905" lon="13.1419567"><ele>588.0</ele><time>2026-05-05T12:31:35.564Z</time></trkpt><trkpt lat="38.0978917" lon="13.1418533"><ele>587.6666666666666</ele><time>2026-05-05T12:31:36.565Z</time></trkpt><trkpt lat="38.0978783" lon="13.1417417"><ele>587.3333333333334</ele><time>2026-05-05T12:31:37.564Z</time></trkpt><trkpt lat="38.0978617" lon="13.141625"><ele>587.0</ele><time>2026-05-05T12:31:38.564Z</time></trkpt><trkpt lat="38.0978467" lon="13.14151"><ele>586.6666666666667</ele><time>2026-05-05T12:31:39.564Z</time></trkpt><trkpt lat="38.0978333" lon="13.1414033"><ele>586.3333333333334</ele><time>2026-05-05T12:31:40.564Z</time></trkpt><trkpt lat="38.0978233" lon="13.1413017"><ele>586.0</ele><time>2026-05-05T12:31:41.564Z</time></trkpt><trkpt lat="38.0978133" lon="13.1411983"><ele>586.0</ele><time>2026-05-05T12:31:42.563Z</time></trkpt><trkpt lat="38.0978033" lon="13.1410933"><ele>586.0</ele><time>2026-05-05T12:31:43.566Z</time></trkpt><trkpt lat="38.0977933" lon="13.1409917"><ele>586.0</ele><time>2026-05-05T12:31:44.565Z</time></trkpt><trkpt lat="38.0977809" lon="13.1408971"><ele>586.0</ele><time>2026-05-05T12:31:45.565Z</time></trkpt><trkpt lat="38.0977663" lon="13.1408012"><ele>586.0</ele><time>2026-05-05T12:31:46.564Z</time></trkpt><trkpt lat="38.097761" lon="13.1406992"><ele>586.0</ele><time>2026-05-05T12:31:47.565Z</time></trkpt><trkpt lat="38.0977689" lon="13.1405973"><ele>585.5</ele><time>2026-05-05T12:31:48.565Z</time></trkpt><trkpt lat="38.0977816" lon="13.1404969"><ele>585.0</ele><time>2026-05-05T12:31:49.565Z</time></trkpt><trkpt lat="38.0977882" lon="13.1403994"><ele>584.5</ele><time>2026-05-05T12:31:50.564Z</time></trkpt><trkpt lat="38.0977837" lon="13.1403062"><ele>584.0</ele><time>2026-05-05T12:31:51.565Z</time></trkpt><trkpt lat="38.0977674" lon="13.1402103"><ele>583.5</ele><time>2026-05-05T12:31:52.565Z</time></trkpt><trkpt lat="38.0977412" lon="13.1401092"><ele>583.0</ele><time>2026-05-05T12:31:53.564Z</time></trkpt><trkpt lat="38.0977151" lon="13.1400067"><ele>583.0000000000001</ele><time>2026-05-05T12:31:54.564Z</time></trkpt><trkpt lat="38.0976903" lon="13.1399089"><ele>583.0</ele><time>2026-05-05T12:31:55.564Z</time></trkpt><trkpt lat="38.0976718" lon="13.1398171"><ele>583.0</ele><time>2026-05-05T12:31:56.565Z</time></trkpt><trkpt lat="38.0976624" lon="13.1397247"><ele>583.0</ele><time>2026-05-05T12:31:57.565Z</time></trkpt><trkpt lat="38.0976561" lon="13.1396328"><ele>583.0</ele><time>2026-05-05T12:31:58.564Z</time></trkpt><trkpt lat="38.0976528" lon="13.1395411"><ele>583.0000000000001</ele><time>2026-05-05T12:31:59.565Z</time></trkpt><trkpt lat="38.0976485" lon="13.1394477"><ele>583.0</ele><time>2026-05-05T12:32:00.564Z</time></trkpt><trkpt lat="38.0976464" lon="13.1393567"><ele>582.6666666666667</ele><time>2026-05-05T12:32:01.565Z</time></trkpt><trkpt lat="38.0976444" lon="13.1392685"><ele>582.3333333333334</ele><time>2026-05-05T12:32:02.565Z</time></trkpt><trkpt lat="38.0976456" lon="13.1391805"><ele>582.0</ele><time>2026-05-05T12:32:03.565Z</time></trkpt><trkpt lat="38.0976466" lon="13.1390875"><ele>581.6666666666666</ele><time>2026-05-05T12:32:04.564Z</time></trkpt><trkpt lat="38.0976438" lon="13.1389849"><ele>581.3333333333333</ele><time>2026-05-05T12:32:05.565Z</time></trkpt><trkpt lat="38.0976355" lon="13.1388774"><ele>581.0</ele><time>2026-05-05T12:32:06.565Z</time></trkpt><trkpt lat="38.0976228" lon="13.1387682"><ele>581.0</ele><time>2026-05-05T12:32:07.564Z</time></trkpt><trkpt lat="38.0976143" lon="13.1386567"><ele>581.0</ele><time>2026-05-05T12:32:08.565Z</time></trkpt><trkpt lat="38.0976158" lon="13.1385421"><ele>581.0</ele><time>2026-05-05T12:32:09.563Z</time></trkpt><trkpt lat="38.0976219" lon="13.1384266"><ele>581.0</ele><time>2026-05-05T12:32:10.564Z</time></trkpt><trkpt lat="38.0976292" lon="13.1383171"><ele>581.0</ele><time>2026-05-05T12:32:11.565Z</time></trkpt><trkpt lat="38.097636" lon="13.1382193"><ele>581.0</ele><time>2026-05-05T12:32:12.564Z</time></trkpt><trkpt lat="38.0976372" lon="13.1381343"><ele>581.0</ele><time>2026-05-05T12:32:13.564Z</time></trkpt><trkpt lat="38.0975958" lon="13.1380113"><ele>581.0</ele><time>2026-05-05T12:32:15.563Z</time></trkpt><trkpt lat="38.0975259" lon="13.1379286"><ele>581.0</ele><time>2026-05-05T12:32:17.565Z</time></trkpt><trkpt lat="38.0975136" lon="13.1378098"><ele>581.0</ele><time>2026-05-05T12:32:19.565Z</time></trkpt><trkpt lat="38.0975166" lon="13.1377283"><ele>581.0</ele><time>2026-05-05T12:32:20.565Z</time></trkpt><trkpt lat="38.0974928" lon="13.1375848"><ele>581.0</ele><time>2026-05-05T12:32:22.564Z</time></trkpt><trkpt lat="38.0974198" lon="13.137476"><ele>581.0</ele><time>2026-05-05T12:32:24.565Z</time></trkpt><trkpt lat="38.0973147" lon="13.1373816"><ele>581.0</ele><time>2026-05-05T12:32:26.565Z</time></trkpt><trkpt lat="38.0972509" lon="13.137351"><ele>581.0</ele><time>2026-05-05T12:32:27.564Z</time></trkpt><trkpt lat="38.0971878" lon="13.1373235"><ele>581.0</ele><time>2026-05-05T12:32:28.565Z</time></trkpt><trkpt lat="38.0971264" lon="13.1372843"><ele>581.0</ele><time>2026-05-05T12:32:29.564Z</time></trkpt><trkpt lat="38.0970723" lon="13.1372305"><ele>578.0</ele><time>2026-05-05T12:32:30.565Z</time></trkpt><trkpt lat="38.097031" lon="13.1371676"><ele>575.0</ele><time>2026-05-05T12:32:31.565Z</time></trkpt><trkpt lat="38.0969717" lon="13.1370283"><ele>572.0</ele><time>2026-05-05T12:32:33.563Z</time></trkpt><trkpt lat="38.096915" lon="13.1368983"><ele>569.0</ele><time>2026-05-05T12:32:35.565Z</time></trkpt><trkpt lat="38.0968633" lon="13.1367917"><ele>566.0</ele><time>2026-05-05T12:32:37.565Z</time></trkpt><trkpt lat="38.0968133" lon="13.1366833"><ele>566.0</ele><time>2026-05-05T12:32:39.564Z</time></trkpt><trkpt lat="38.0967683" lon="13.1365883"><ele>566.0</ele><time>2026-05-05T12:32:41.565Z</time></trkpt><trkpt lat="38.096715" lon="13.1365333"><ele>566.0</ele><time>2026-05-05T12:32:43.565Z</time></trkpt><trkpt lat="38.0966533" lon="13.1365133"><ele>566.0</ele><time>2026-05-05T12:32:45.564Z</time></trkpt><trkpt lat="38.0965583" lon="13.1365033"><ele>566.0</ele><time>2026-05-05T12:33:06.565Z</time></trkpt><trkpt lat="38.0964433" lon="13.1365017"><ele>566.0</ele><time>2026-05-05T12:33:37.563Z</time></trkpt><trkpt lat="38.0963483" lon="13.1364817"><ele>562.0</ele><time>2026-05-05T12:33:39.565Z</time></trkpt><trkpt lat="38.0962417" lon="13.1363933"><ele>558.0</ele><time>2026-05-05T12:33:41.564Z</time></trkpt><trkpt lat="38.0961833" lon="13.1363083"><ele>554.0</ele><time>2026-05-05T12:33:42.564Z</time></trkpt><trkpt lat="38.0961217" lon="13.1362183"><ele>550.0</ele><time>2026-05-05T12:33:43.565Z</time></trkpt><trkpt lat="38.0960517" lon="13.1361317"><ele>546.0</ele><time>2026-05-05T12:33:44.564Z</time></trkpt><trkpt lat="38.095985" lon="13.1360567"><ele>546.0</ele><time>2026-05-05T12:33:45.564Z</time></trkpt><trkpt lat="38.0959233" lon="13.1359883"><ele>546.0</ele><time>2026-05-05T12:33:46.565Z</time></trkpt><trkpt lat="38.095865" lon="13.1359233"><ele>546.0</ele><time>2026-05-05T12:33:47.565Z</time></trkpt><trkpt lat="38.095805" lon="13.1358517"><ele>546.0</ele><time>2026-05-05T12:33:48.564Z</time></trkpt><trkpt lat="38.0957583" lon="13.1357767"><ele>546.0</ele><time>2026-05-05T12:33:49.565Z</time></trkpt><trkpt lat="38.0957183" lon="13.1357"><ele>546.0</ele><time>2026-05-05T12:33:50.565Z</time></trkpt><trkpt lat="38.09567" lon="13.1356167"><ele>542.8333333333334</ele><time>2026-05-05T12:33:51.565Z</time></trkpt><trkpt lat="38.0956133" lon="13.13554"><ele>539.6666666666666</ele><time>2026-05-05T12:33:52.565Z</time></trkpt><trkpt lat="38.0955567" lon="13.1354717"><ele>536.5</ele><time>2026-05-05T12:33:53.565Z</time></trkpt><trkpt lat="38.0955033" lon="13.13541"><ele>533.3333333333333</ele><time>2026-05-05T12:33:54.565Z</time></trkpt><trkpt lat="38.09545" lon="13.1353533"><ele>530.1666666666666</ele><time>2026-05-05T12:33:55.564Z</time></trkpt><trkpt lat="38.0953583" lon="13.1352633"><ele>527.0</ele><time>2026-05-05T12:33:57.564Z</time></trkpt><trkpt lat="38.0952817" lon="13.1351667"><ele>527.0</ele><time>2026-05-05T12:33:59.565Z</time></trkpt><trkpt lat="38.0951983" lon="13.13506"><ele>527.0</ele><time>2026-05-05T12:34:01.563Z</time></trkpt><trkpt lat="38.09511" lon="13.1349517"><ele>527.0</ele><time>2026-05-05T12:34:03.564Z</time></trkpt><trkpt lat="38.0950667" lon="13.1348933"><ele>527.0</ele><time>2026-05-05T12:34:04.565Z</time></trkpt><trkpt lat="38.0950217" lon="13.1348333"><ele>527.0</ele><time>2026-05-05T12:34:05.564Z</time></trkpt><trkpt lat="38.0949783" lon="13.1347733"><ele>527.0</ele><time>2026-05-05T12:34:06.564Z</time></trkpt><trkpt lat="38.0948983" lon="13.1346617"><ele>524.0</ele><time>2026-05-05T12:34:08.564Z</time></trkpt><trkpt lat="38.09483" lon="13.1345617"><ele>521.0</ele><time>2026-05-05T12:34:10.564Z</time></trkpt><trkpt lat="38.0947567" lon="13.134445"><ele>518.0</ele><time>2026-05-05T12:34:12.564Z</time></trkpt><trkpt lat="38.0947167" lon="13.13438"><ele>515.0</ele><time>2026-05-05T12:34:13.565Z</time></trkpt><trkpt lat="38.0946817" lon="13.13431"><ele>511.99999999999994</ele><time>2026-05-05T12:34:14.564Z</time></trkpt><trkpt lat="38.0946467" lon="13.1342383"><ele>509.0</ele><time>2026-05-05T12:34:15.564Z</time></trkpt><trkpt lat="38.094565" lon="13.134135"><ele>509.0</ele><time>2026-05-05T12:34:17.565Z</time></trkpt><trkpt lat="38.0944767" lon="13.1340683"><ele>509.0</ele><time>2026-05-05T12:34:19.565Z</time></trkpt><trkpt lat="38.0944033" lon="13.1340283"><ele>509.0</ele><time>2026-05-05T12:34:21.565Z</time></trkpt><trkpt lat="38.094325" lon="13.134085"><ele>509.0</ele><time>2026-05-05T12:34:24.565Z</time></trkpt><trkpt lat="38.0943017" lon="13.1341867"><ele>509.0</ele><time>2026-05-05T12:34:26.565Z</time></trkpt><trkpt lat="38.09428" lon="13.1343433"><ele>508.99999999999994</ele><time>2026-05-05T12:34:28.564Z</time></trkpt><trkpt lat="38.0942667" lon="13.1344367"><ele>509.0</ele><time>2026-05-05T12:34:29.565Z</time></trkpt><trkpt lat="38.0942433" lon="13.1345283"><ele>509.0</ele><time>2026-05-05T12:34:30.564Z</time></trkpt><trkpt lat="38.0942117" lon="13.1346117"><ele>509.0</ele><time>2026-05-05T12:34:31.564Z</time></trkpt><trkpt lat="38.0941833" lon="13.1346917"><ele>508.99999999999994</ele><time>2026-05-05T12:34:32.564Z</time></trkpt><trkpt lat="38.0941417" lon="13.13483"><ele>509.0</ele><time>2026-05-05T12:34:34.564Z</time></trkpt><trkpt lat="38.094125" lon="13.1349617"><ele>509.4</ele><time>2026-05-05T12:34:36.564Z</time></trkpt><trkpt lat="38.09409" lon="13.1350767"><ele>509.79999999999995</ele><time>2026-05-05T12:34:38.568Z</time></trkpt><trkpt lat="38.094005" lon="13.13505"><ele>510.20000000000005</ele><time>2026-05-05T12:34:41.564Z</time></trkpt><trkpt lat="38.0939567" lon="13.1349533"><ele>510.6</ele><time>2026-05-05T12:34:43.565Z</time></trkpt><trkpt lat="38.0938967" lon="13.1348567"><ele>511.0</ele><time>2026-05-05T12:34:45.564Z</time></trkpt><trkpt lat="38.0938267" lon="13.13477"><ele>506.0</ele><time>2026-05-05T12:34:47.564Z</time></trkpt><trkpt lat="38.0937617" lon="13.13468"><ele>501.0</ele><time>2026-05-05T12:34:49.565Z</time></trkpt><trkpt lat="38.0937067" lon="13.1345733"><ele>496.0</ele><time>2026-05-05T12:34:51.565Z</time></trkpt><trkpt lat="38.0936333" lon="13.134505"><ele>491.0</ele><time>2026-05-05T12:34:53.565Z</time></trkpt><trkpt lat="38.0935417" lon="13.1345183"><ele>486.0</ele><time>2026-05-05T12:34:55.565Z</time></trkpt><trkpt lat="38.09343" lon="13.1345333"><ele>486.0</ele><time>2026-05-05T12:34:57.564Z</time></trkpt><trkpt lat="38.09336" lon="13.13446"><ele>486.0</ele><time>2026-05-05T12:34:59.565Z</time></trkpt><trkpt lat="38.0933233" lon="13.134325"><ele>486.0</ele><time>2026-05-05T12:35:01.563Z</time></trkpt><trkpt lat="38.0932983" lon="13.1342483"><ele>486.0</ele><time>2026-05-05T12:35:02.565Z</time></trkpt><trkpt lat="38.0932717" lon="13.1341717"><ele>486.0</ele><time>2026-05-05T12:35:03.564Z</time></trkpt><trkpt lat="38.093245" lon="13.1340983"><ele>486.0</ele><time>2026-05-05T12:35:04.565Z</time></trkpt><trkpt lat="38.0931967" lon="13.13396"><ele>480.5</ele><time>2026-05-05T12:35:06.564Z</time></trkpt><trkpt lat="38.0931367" lon="13.13383"><ele>475.0</ele><time>2026-05-05T12:35:08.564Z</time></trkpt><trkpt lat="38.0930783" lon="13.1336967"><ele>469.5</ele><time>2026-05-05T12:35:10.563Z</time></trkpt><trkpt lat="38.09301" lon="13.133575"><ele>464.0</ele><time>2026-05-05T12:35:12.564Z</time></trkpt><trkpt lat="38.092945" lon="13.133445"><ele>463.99999999999994</ele><time>2026-05-05T12:35:14.566Z</time></trkpt><trkpt lat="38.09291" lon="13.1332833"><ele>464.0</ele><time>2026-05-05T12:35:16.564Z</time></trkpt><trkpt lat="38.092895" lon="13.133185"><ele>464.0</ele><time>2026-05-05T12:35:17.564Z</time></trkpt><trkpt lat="38.09288" lon="13.1330867"><ele>464.0</ele><time>2026-05-05T12:35:18.565Z</time></trkpt><trkpt lat="38.09286" lon="13.13299"><ele>463.99999999999994</ele><time>2026-05-05T12:35:19.565Z</time></trkpt><trkpt lat="38.0928383" lon="13.1329067"><ele>464.0</ele><time>2026-05-05T12:35:20.564Z</time></trkpt><trkpt lat="38.092815" lon="13.1328317"><ele>463.66666666666663</ele><time>2026-05-05T12:35:21.564Z</time></trkpt><trkpt lat="38.0927767" lon="13.1326883"><ele>463.3333333333333</ele><time>2026-05-05T12:35:23.565Z</time></trkpt><trkpt lat="38.0927683" lon="13.1325533"><ele>463.0</ele><time>2026-05-05T12:35:25.565Z</time></trkpt><trkpt lat="38.092785" lon="13.1324567"><ele>462.66666666666663</ele><time>2026-05-05T12:35:27.565Z</time></trkpt><trkpt lat="38.09277" lon="13.1323683"><ele>462.3333333333333</ele><time>2026-05-05T12:36:33.564Z</time></trkpt><trkpt lat="38.092705" lon="13.1323733"><ele>462.0</ele><time>2026-05-05T12:36:35.563Z</time></trkpt><trkpt lat="38.0926233" lon="13.1324133"><ele>462.0</ele><time>2026-05-05T12:36:37.564Z</time></trkpt><trkpt lat="38.0925617" lon="13.132505"><ele>462.00000000000006</ele><time>2026-05-05T12:36:39.565Z</time></trkpt><trkpt lat="38.0925133" lon="13.1326167"><ele>462.00000000000006</ele><time>2026-05-05T12:36:41.565Z</time></trkpt><trkpt lat="38.0924533" lon="13.13276"><ele>462.0</ele><time>2026-05-05T12:36:43.563Z</time></trkpt><trkpt lat="38.0924167" lon="13.1328383"><ele>462.0</ele><time>2026-05-05T12:36:44.564Z</time></trkpt><trkpt lat="38.0923733" lon="13.13292"><ele>459.6666666666667</ele><time>2026-05-05T12:36:45.563Z</time></trkpt><trkpt lat="38.0923283" lon="13.13301"><ele>457.33333333333337</ele><time>2026-05-05T12:36:46.563Z</time></trkpt><trkpt lat="38.0922867" lon="13.1331033"><ele>455.0</ele><time>2026-05-05T12:36:47.565Z</time></trkpt><trkpt lat="38.092245" lon="13.1331967"><ele>452.6666666666667</ele><time>2026-05-05T12:36:48.564Z</time></trkpt><trkpt lat="38.092205" lon="13.13328"><ele>450.33333333333337</ele><time>2026-05-05T12:36:49.565Z</time></trkpt><trkpt lat="38.0921667" lon="13.133365"><ele>448.0</ele><time>2026-05-05T12:36:50.564Z</time></trkpt><trkpt lat="38.0921267" lon="13.1334533"><ele>448.00000000000006</ele><time>2026-05-05T12:36:51.565Z</time></trkpt><trkpt lat="38.092085" lon="13.1335417"><ele>448.0</ele><time>2026-05-05T12:36:52.565Z</time></trkpt><trkpt lat="38.0920533" lon="13.1336333"><ele>448.0</ele><time>2026-05-05T12:36:53.564Z</time></trkpt><trkpt lat="38.0920267" lon="13.1337267"><ele>448.0</ele><time>2026-05-05T12:36:54.564Z</time></trkpt><trkpt lat="38.092" lon="13.1338133"><ele>448.00000000000006</ele><time>2026-05-05T12:36:55.565Z</time></trkpt><trkpt lat="38.0919667" lon="13.1338933"><ele>448.0</ele><time>2026-05-05T12:36:56.565Z</time></trkpt><trkpt lat="38.091935" lon="13.133975"><ele>447.6666666666667</ele><time>2026-05-05T12:36:57.565Z</time></trkpt><trkpt lat="38.0919083" lon="13.1340617"><ele>447.33333333333337</ele><time>2026-05-05T12:36:58.564Z</time></trkpt><trkpt lat="38.0918833" lon="13.134155"><ele>447.0</ele><time>2026-05-05T12:36:59.563Z</time></trkpt><trkpt lat="38.0918583" lon="13.13425"><ele>446.66666666666663</ele><time>2026-05-05T12:37:00.563Z</time></trkpt><trkpt lat="38.0918317" lon="13.1343517"><ele>446.3333333333333</ele><time>2026-05-05T12:37:01.565Z</time></trkpt><trkpt lat="38.0918017" lon="13.1344467"><ele>446.0</ele><time>2026-05-05T12:37:02.565Z</time></trkpt><trkpt lat="38.09177" lon="13.1345283"><ele>446.0</ele><time>2026-05-05T12:37:03.566Z</time></trkpt><trkpt lat="38.0917333" lon="13.1346033"><ele>446.0</ele><time>2026-05-05T12:37:04.565Z</time></trkpt><trkpt lat="38.091695" lon="13.134675"><ele>446.0</ele><time>2026-05-05T12:37:05.565Z</time></trkpt><trkpt lat="38.0916583" lon="13.134745"><ele>446.0</ele><time>2026-05-05T12:37:06.565Z</time></trkpt><trkpt lat="38.09162" lon="13.134815"><ele>446.0</ele><time>2026-05-05T12:37:07.564Z</time></trkpt><trkpt lat="38.09158" lon="13.134885"><ele>446.0</ele><time>2026-05-05T12:37:08.565Z</time></trkpt><trkpt lat="38.09154" lon="13.13495"><ele>446.0</ele><time>2026-05-05T12:37:09.565Z</time></trkpt><trkpt lat="38.0914983" lon="13.1350183"><ele>442.42857142857144</ele><time>2026-05-05T12:37:10.565Z</time></trkpt><trkpt lat="38.0914567" lon="13.1350933"><ele>438.85714285714283</ele><time>2026-05-05T12:37:11.564Z</time></trkpt><trkpt lat="38.09141" lon="13.1351733"><ele>435.28571428571433</ele><time>2026-05-05T12:37:12.565Z</time></trkpt><trkpt lat="38.0913667" lon="13.1352583"><ele>431.7142857142857</ele><time>2026-05-05T12:37:13.565Z</time></trkpt><trkpt lat="38.09133" lon="13.1353383"><ele>428.14285714285717</ele><time>2026-05-05T12:37:14.565Z</time></trkpt><trkpt lat="38.091295" lon="13.1354083"><ele>424.5714285714286</ele><time>2026-05-05T12:37:15.565Z</time></trkpt><trkpt lat="38.0912617" lon="13.1354783"><ele>421.0</ele><time>2026-05-05T12:37:16.564Z</time></trkpt><trkpt lat="38.0912217" lon="13.1355583"><ele>421.00000000000006</ele><time>2026-05-05T12:37:17.565Z</time></trkpt><trkpt lat="38.0911783" lon="13.13564"><ele>421.0</ele><time>2026-05-05T12:37:18.565Z</time></trkpt><trkpt lat="38.0911317" lon="13.1357233"><ele>421.0</ele><time>2026-05-05T12:37:19.565Z</time></trkpt><trkpt lat="38.0910833" lon="13.1358033"><ele>421.0</ele><time>2026-05-05T12:37:20.565Z</time></trkpt><trkpt lat="38.0910417" lon="13.1358783"><ele>421.0</ele><time>2026-05-05T12:37:21.565Z</time></trkpt><trkpt lat="38.091005" lon="13.1359467"><ele>421.00000000000006</ele><time>2026-05-05T12:37:22.564Z</time></trkpt><trkpt lat="38.0909733" lon="13.1360167"><ele>421.0</ele><time>2026-05-05T12:37:23.565Z</time></trkpt><trkpt lat="38.0909233" lon="13.1361667"><ele>421.50000000000006</ele><time>2026-05-05T12:37:25.564Z</time></trkpt><trkpt lat="38.0908933" lon="13.136245"><ele>422.0</ele><time>2026-05-05T12:37:26.565Z</time></trkpt><trkpt lat="38.0908567" lon="13.1363233"><ele>422.5</ele><time>2026-05-05T12:37:27.564Z</time></trkpt><trkpt lat="38.0908167" lon="13.136405"><ele>423.0</ele><time>2026-05-05T12:37:28.563Z</time></trkpt><trkpt lat="38.0907683" lon="13.1364917"><ele>423.50000000000006</ele><time>2026-05-05T12:37:29.565Z</time></trkpt><trkpt lat="38.09072" lon="13.13658"><ele>424.0</ele><time>2026-05-05T12:37:30.564Z</time></trkpt><trkpt lat="38.0906733" lon="13.136665"><ele>419.00000000000006</ele><time>2026-05-05T12:37:31.564Z</time></trkpt><trkpt lat="38.090625" lon="13.1367483"><ele>414.0</ele><time>2026-05-05T12:37:32.565Z</time></trkpt><trkpt lat="38.0905733" lon="13.1368283"><ele>409.0</ele><time>2026-05-05T12:37:33.565Z</time></trkpt><trkpt lat="38.0905167" lon="13.1369067"><ele>404.0</ele><time>2026-05-05T12:37:34.565Z</time></trkpt><trkpt lat="38.09046" lon="13.1369767"><ele>399.00000000000006</ele><time>2026-05-05T12:37:35.565Z</time></trkpt><trkpt lat="38.0904033" lon="13.1370467"><ele>394.0</ele><time>2026-05-05T12:37:36.565Z</time></trkpt><trkpt lat="38.0903517" lon="13.1371267"><ele>394.0</ele><time>2026-05-05T12:37:37.564Z</time></trkpt><trkpt lat="38.0903033" lon="13.1372217"><ele>394.0</ele><time>2026-05-05T12:37:38.565Z</time></trkpt><trkpt lat="38.0902583" lon="13.1373233"><ele>394.0</ele><time>2026-05-05T12:37:39.564Z</time></trkpt><trkpt lat="38.09021" lon="13.1374217"><ele>394.0</ele><time>2026-05-05T12:37:40.565Z</time></trkpt><trkpt lat="38.0901567" lon="13.1375167"><ele>394.0</ele><time>2026-05-05T12:37:41.564Z</time></trkpt><trkpt lat="38.0901083" lon="13.137615"><ele>396.50000000000006</ele><time>2026-05-05T12:37:42.565Z</time></trkpt><trkpt lat="38.0900617" lon="13.13771"><ele>399.0</ele><time>2026-05-05T12:37:43.564Z</time></trkpt><trkpt lat="38.0900183" lon="13.1378"><ele>401.5</ele><time>2026-05-05T12:37:44.565Z</time></trkpt><trkpt lat="38.0899783" lon="13.1378917"><ele>404.0</ele><time>2026-05-05T12:37:45.565Z</time></trkpt><trkpt lat="38.0899333" lon="13.1379867"><ele>406.50000000000006</ele><time>2026-05-05T12:37:46.566Z</time></trkpt><trkpt lat="38.0898883" lon="13.1380833"><ele>409.0</ele><time>2026-05-05T12:37:47.564Z</time></trkpt><trkpt lat="38.0898417" lon="13.1381817"><ele>404.50000000000006</ele><time>2026-05-05T12:37:48.563Z</time></trkpt><trkpt lat="38.08979" lon="13.13828"><ele>400.0</ele><time>2026-05-05T12:37:49.565Z</time></trkpt><trkpt lat="38.089735" lon="13.1383767"><ele>395.5</ele><time>2026-05-05T12:37:50.564Z</time></trkpt><trkpt lat="38.089685" lon="13.13847"><ele>391.0</ele><time>2026-05-05T12:37:51.564Z</time></trkpt><trkpt lat="38.089635" lon="13.1385517"><ele>386.5</ele><time>2026-05-05T12:37:52.564Z</time></trkpt><trkpt lat="38.0895833" lon="13.1386217"><ele>382.0</ele><time>2026-05-05T12:37:53.563Z</time></trkpt><trkpt lat="38.0895333" lon="13.138685"><ele>382.0</ele><time>2026-05-05T12:37:54.564Z</time></trkpt><trkpt lat="38.089485" lon="13.1387483"><ele>382.0</ele><time>2026-05-05T12:37:55.565Z</time></trkpt><trkpt lat="38.089445" lon="13.1388217"><ele>382.0</ele><time>2026-05-05T12:37:56.565Z</time></trkpt><trkpt lat="38.089415" lon="13.1389"><ele>382.0</ele><time>2026-05-05T12:37:57.564Z</time></trkpt><trkpt lat="38.0893883" lon="13.1389767"><ele>382.0</ele><time>2026-05-05T12:37:58.563Z</time></trkpt><trkpt lat="38.08936" lon="13.1390517"><ele>382.0</ele><time>2026-05-05T12:37:59.564Z</time></trkpt><trkpt lat="38.0893283" lon="13.1391217"><ele>382.0</ele><time>2026-05-05T12:38:00.564Z</time></trkpt><trkpt lat="38.0893033" lon="13.1391983"><ele>383.0</ele><time>2026-05-05T12:38:01.564Z</time></trkpt><trkpt lat="38.0892883" lon="13.139355"><ele>384.0</ele><time>2026-05-05T12:38:03.564Z</time></trkpt><trkpt lat="38.0892883" lon="13.139435"><ele>385.0</ele><time>2026-05-05T12:38:04.563Z</time></trkpt><trkpt lat="38.089295" lon="13.1395167"><ele>386.0</ele><time>2026-05-05T12:38:05.564Z</time></trkpt><trkpt lat="38.0893067" lon="13.139665"><ele>387.0</ele><time>2026-05-05T12:38:07.565Z</time></trkpt><trkpt lat="38.0893233" lon="13.1397983"><ele>387.0</ele><time>2026-05-05T12:38:09.565Z</time></trkpt><trkpt lat="38.0893233" lon="13.1399017"><ele>387.0</ele><time>2026-05-05T12:38:11.564Z</time></trkpt><trkpt lat="38.0892717" lon="13.1399533"><ele>387.0</ele><time>2026-05-05T12:38:13.564Z</time></trkpt><trkpt lat="38.08918" lon="13.1398967"><ele>387.0</ele><time>2026-05-05T12:38:15.564Z</time></trkpt><trkpt lat="38.0891067" lon="13.1397967"><ele>387.0</ele><time>2026-05-05T12:38:17.564Z</time></trkpt><trkpt lat="38.08903" lon="13.139805"><ele>387.0</ele><time>2026-05-05T12:38:20.565Z</time></trkpt><trkpt lat="38.0890383" lon="13.139915"><ele>386.6666666666667</ele><time>2026-05-05T12:38:22.564Z</time></trkpt><trkpt lat="38.0890683" lon="13.140035"><ele>386.33333333333337</ele><time>2026-05-05T12:38:24.563Z</time></trkpt><trkpt lat="38.0891083" lon="13.1401667"><ele>386.0</ele><time>2026-05-05T12:38:26.566Z</time></trkpt><trkpt lat="38.08913" lon="13.140245"><ele>385.6666666666667</ele><time>2026-05-05T12:38:27.564Z</time></trkpt><trkpt lat="38.08915" lon="13.1403283"><ele>385.33333333333337</ele><time>2026-05-05T12:38:28.565Z</time></trkpt><trkpt lat="38.0891783" lon="13.140415"><ele>385.0</ele><time>2026-05-05T12:38:29.563Z</time></trkpt><trkpt lat="38.089215" lon="13.1405"><ele>385.00000000000006</ele><time>2026-05-05T12:38:30.564Z</time></trkpt><trkpt lat="38.08925" lon="13.14059"><ele>385.0</ele><time>2026-05-05T12:38:31.564Z</time></trkpt><trkpt lat="38.0892833" lon="13.1406867"><ele>385.0</ele><time>2026-05-05T12:38:32.564Z</time></trkpt><trkpt lat="38.08932" lon="13.14078"><ele>385.0</ele><time>2026-05-05T12:38:33.565Z</time></trkpt><trkpt lat="38.0893583" lon="13.140865"><ele>385.00000000000006</ele><time>2026-05-05T12:38:34.564Z</time></trkpt><trkpt lat="38.089395" lon="13.1409433"><ele>385.0</ele><time>2026-05-05T12:38:35.565Z</time></trkpt><trkpt lat="38.0894283" lon="13.1410233"><ele>382.00000000000006</ele><time>2026-05-05T12:38:36.565Z</time></trkpt><trkpt lat="38.0894567" lon="13.14111"><ele>379.0</ele><time>2026-05-05T12:38:37.564Z</time></trkpt><trkpt lat="38.0894817" lon="13.1412033"><ele>376.0</ele><time>2026-05-05T12:38:38.564Z</time></trkpt><trkpt lat="38.089505" lon="13.1413"><ele>373.0</ele><time>2026-05-05T12:38:39.565Z</time></trkpt><trkpt lat="38.08953" lon="13.1413917"><ele>370.0</ele><time>2026-05-05T12:38:40.565Z</time></trkpt><trkpt lat="38.08956" lon="13.1414833"><ele>367.0</ele><time>2026-05-05T12:38:41.565Z</time></trkpt><trkpt lat="38.0895867" lon="13.141565"><ele>364.66666666666663</ele><time>2026-05-05T12:38:42.564Z</time></trkpt><trkpt lat="38.0896117" lon="13.1416833"><ele>362.3333333333333</ele><time>2026-05-05T12:38:44.565Z</time></trkpt><trkpt lat="38.08954" lon="13.1417517"><ele>360.0</ele><time>2026-05-05T12:38:47.565Z</time></trkpt><trkpt lat="38.0894733" lon="13.1416883"><ele>357.6666666666667</ele><time>2026-05-05T12:38:49.565Z</time></trkpt><trkpt lat="38.089405" lon="13.141595"><ele>355.33333333333337</ele><time>2026-05-05T12:38:51.564Z</time></trkpt><trkpt lat="38.0893433" lon="13.141555"><ele>353.0</ele><time>2026-05-05T12:38:53.565Z</time></trkpt><trkpt lat="38.0892883" lon="13.1416617"><ele>353.0</ele><time>2026-05-05T12:38:56.565Z</time></trkpt><trkpt lat="38.089275" lon="13.1417983"><ele>353.0</ele><time>2026-05-05T12:38:58.564Z</time></trkpt><trkpt lat="38.0892333" lon="13.14194"><ele>353.0</ele><time>2026-05-05T12:39:00.563Z</time></trkpt><trkpt lat="38.0892083" lon="13.1420833"><ele>353.0</ele><time>2026-05-05T12:39:02.564Z</time></trkpt><trkpt lat="38.0891967" lon="13.1422267"><ele>352.1666666666667</ele><time>2026-05-05T12:39:04.564Z</time></trkpt><trkpt lat="38.0891783" lon="13.1423883"><ele>351.33333333333337</ele><time>2026-05-05T12:39:06.565Z</time></trkpt><trkpt lat="38.089165" lon="13.1424767"><ele>350.5</ele><time>2026-05-05T12:39:07.564Z</time></trkpt><trkpt lat="38.08915" lon="13.14257"><ele>349.6666666666667</ele><time>2026-05-05T12:39:08.565Z</time></trkpt><trkpt lat="38.0891367" lon="13.1426667"><ele>348.8333333333333</ele><time>2026-05-05T12:39:09.565Z</time></trkpt><trkpt lat="38.0891283" lon="13.1427633"><ele>348.0</ele><time>2026-05-05T12:39:10.564Z</time></trkpt><trkpt lat="38.0891217" lon="13.1428567"><ele>348.0</ele><time>2026-05-05T12:39:11.565Z</time></trkpt><trkpt lat="38.089115" lon="13.1429467"><ele>348.0</ele><time>2026-05-05T12:39:12.565Z</time></trkpt><trkpt lat="38.0891117" lon="13.143035"><ele>348.0</ele><time>2026-05-05T12:39:13.565Z</time></trkpt><trkpt lat="38.0891133" lon="13.143115"><ele>348.0</ele><time>2026-05-05T12:39:14.564Z</time></trkpt><trkpt lat="38.089115" lon="13.143195"><ele>348.0</ele><time>2026-05-05T12:39:15.564Z</time></trkpt><trkpt lat="38.089115" lon="13.14328"><ele>348.0</ele><time>2026-05-05T12:39:16.564Z</time></trkpt><trkpt lat="38.089115" lon="13.143365"><ele>348.0</ele><time>2026-05-05T12:39:17.566Z</time></trkpt><trkpt lat="38.0891133" lon="13.1434583"><ele>346.3333333333333</ele><time>2026-05-05T12:39:18.564Z</time></trkpt><trkpt lat="38.0891117" lon="13.143555"><ele>344.6666666666667</ele><time>2026-05-05T12:39:19.564Z</time></trkpt><trkpt lat="38.0891133" lon="13.143655"><ele>343.0</ele><time>2026-05-05T12:39:20.565Z</time></trkpt><trkpt lat="38.089115" lon="13.1437567"><ele>341.33333333333337</ele><time>2026-05-05T12:39:21.565Z</time></trkpt><trkpt lat="38.0891183" lon="13.1438617"><ele>339.6666666666667</ele><time>2026-05-05T12:39:22.564Z</time></trkpt><trkpt lat="38.0891233" lon="13.14397"><ele>338.0</ele><time>2026-05-05T12:39:23.565Z</time></trkpt><trkpt lat="38.0891283" lon="13.1440667"><ele>336.42857142857144</ele><time>2026-05-05T12:39:24.564Z</time></trkpt><trkpt lat="38.08914" lon="13.1441533"><ele>334.85714285714283</ele><time>2026-05-05T12:39:25.565Z</time></trkpt><trkpt lat="38.089155" lon="13.1442333"><ele>333.2857142857143</ele><time>2026-05-05T12:39:26.564Z</time></trkpt><trkpt lat="38.0891783" lon="13.1443083"><ele>331.7142857142857</ele><time>2026-05-05T12:39:27.565Z</time></trkpt><trkpt lat="38.08921" lon="13.1443833"><ele>330.14285714285717</ele><time>2026-05-05T12:39:28.564Z</time></trkpt><trkpt lat="38.08925" lon="13.1444517"><ele>328.57142857142856</ele><time>2026-05-05T12:39:29.564Z</time></trkpt><trkpt lat="38.0893233" lon="13.1445633"><ele>327.0</ele><time>2026-05-05T12:39:31.563Z</time></trkpt><trkpt lat="38.08936" lon="13.1446483"><ele>327.0</ele><time>2026-05-05T12:39:33.564Z</time></trkpt><trkpt lat="38.0893033" lon="13.14471"><ele>327.0</ele><time>2026-05-05T12:39:36.565Z</time></trkpt><trkpt lat="38.0892083" lon="13.144675"><ele>327.0</ele><time>2026-05-05T12:39:38.564Z</time></trkpt><trkpt lat="38.0890983" lon="13.1446467"><ele>327.0</ele><time>2026-05-05T12:39:40.564Z</time></trkpt><trkpt lat="38.08904" lon="13.1446817"><ele>327.0</ele><time>2026-05-05T12:39:42.565Z</time></trkpt><trkpt lat="38.0890867" lon="13.1447633"><ele>327.0</ele><time>2026-05-05T12:39:44.565Z</time></trkpt><trkpt lat="38.0891717" lon="13.144825"><ele>323.6</ele><time>2026-05-05T12:39:46.563Z</time></trkpt><trkpt lat="38.0892367" lon="13.14492"><ele>320.20000000000005</ele><time>2026-05-05T12:39:48.565Z</time></trkpt><trkpt lat="38.0892533" lon="13.1450733"><ele>316.8</ele><time>2026-05-05T12:39:50.565Z</time></trkpt><trkpt lat="38.089255" lon="13.1451733"><ele>313.4</ele><time>2026-05-05T12:39:51.565Z</time></trkpt><trkpt lat="38.0892567" lon="13.1452783"><ele>310.0</ele><time>2026-05-05T12:39:52.564Z</time></trkpt><trkpt lat="38.0892533" lon="13.1453833"><ele>310.0</ele><time>2026-05-05T12:39:53.564Z</time></trkpt><trkpt lat="38.08925" lon="13.1454833"><ele>310.0</ele><time>2026-05-05T12:39:54.565Z</time></trkpt><trkpt lat="38.0892517" lon="13.145565"><ele>310.0</ele><time>2026-05-05T12:39:55.565Z</time></trkpt><trkpt lat="38.0892383" lon="13.1456933"><ele>310.0</ele><time>2026-05-05T12:39:57.565Z</time></trkpt><trkpt lat="38.0892" lon="13.1458"><ele>310.0</ele><time>2026-05-05T12:39:59.564Z</time></trkpt><trkpt lat="38.0891083" lon="13.145875"><ele>310.0</ele><time>2026-05-05T12:40:01.564Z</time></trkpt><trkpt lat="38.08901" lon="13.1459383"><ele>306.0</ele><time>2026-05-05T12:40:03.564Z</time></trkpt><trkpt lat="38.0889367" lon="13.146035"><ele>302.0</ele><time>2026-05-05T12:40:05.565Z</time></trkpt><trkpt lat="38.0888767" lon="13.146155"><ele>298.0</ele><time>2026-05-05T12:40:07.564Z</time></trkpt><trkpt lat="38.08884" lon="13.146225"><ele>294.0</ele><time>2026-05-05T12:40:08.564Z</time></trkpt><trkpt lat="38.0887967" lon="13.1463033"><ele>290.0</ele><time>2026-05-05T12:40:09.565Z</time></trkpt><trkpt lat="38.0887467" lon="13.1464"><ele>290.0</ele><time>2026-05-05T12:40:10.566Z</time></trkpt><trkpt lat="38.08869" lon="13.14651"><ele>290.0</ele><time>2026-05-05T12:40:11.566Z</time></trkpt><trkpt lat="38.0886367" lon="13.146625"><ele>290.0</ele><time>2026-05-05T12:40:12.566Z</time></trkpt><trkpt lat="38.08859" lon="13.146735"><ele>290.0</ele><time>2026-05-05T12:40:13.566Z</time></trkpt><trkpt lat="38.0885433" lon="13.1468383"><ele>290.0</ele><time>2026-05-05T12:40:14.566Z</time></trkpt><trkpt lat="38.088495" lon="13.146935"><ele>290.1666666666667</ele><time>2026-05-05T12:40:15.565Z</time></trkpt><trkpt lat="38.0884417" lon="13.1470233"><ele>290.33333333333337</ele><time>2026-05-05T12:40:16.564Z</time></trkpt><trkpt lat="38.088385" lon="13.1471133"><ele>290.5</ele><time>2026-05-05T12:40:17.564Z</time></trkpt><trkpt lat="38.0883317" lon="13.1472"><ele>290.6666666666667</ele><time>2026-05-05T12:40:18.564Z</time></trkpt><trkpt lat="38.0882917" lon="13.14728"><ele>290.8333333333333</ele><time>2026-05-05T12:40:19.565Z</time></trkpt><trkpt lat="38.0882567" lon="13.1473483"><ele>291.0</ele><time>2026-05-05T12:40:20.565Z</time></trkpt><trkpt lat="38.0882233" lon="13.1474183"><ele>289.5</ele><time>2026-05-05T12:40:21.564Z</time></trkpt><trkpt lat="38.08819" lon="13.1475067"><ele>288.0</ele><time>2026-05-05T12:40:22.565Z</time></trkpt><trkpt lat="38.0881583" lon="13.1476067"><ele>286.5</ele><time>2026-05-05T12:40:23.565Z</time></trkpt><trkpt lat="38.088125" lon="13.1477083"><ele>285.0</ele><time>2026-05-05T12:40:24.565Z</time></trkpt><trkpt lat="38.0880917" lon="13.147815"><ele>283.5</ele><time>2026-05-05T12:40:25.564Z</time></trkpt><trkpt lat="38.0880533" lon="13.147925"><ele>282.0</ele><time>2026-05-05T12:40:26.567Z</time></trkpt><trkpt lat="38.0880167" lon="13.14804"><ele>282.0</ele><time>2026-05-05T12:40:27.564Z</time></trkpt><trkpt lat="38.0879783" lon="13.14816"><ele>282.0</ele><time>2026-05-05T12:40:28.564Z</time></trkpt><trkpt lat="38.087935" lon="13.1482817"><ele>282.0</ele><time>2026-05-05T12:40:29.564Z</time></trkpt><trkpt lat="38.0878883" lon="13.1483967"><ele>282.0</ele><time>2026-05-05T12:40:30.564Z</time></trkpt><trkpt lat="38.0878383" lon="13.1485"><ele>282.0</ele><time>2026-05-05T12:40:31.565Z</time></trkpt><trkpt lat="38.08779" lon="13.1485967"><ele>283.1666666666667</ele><time>2026-05-05T12:40:32.565Z</time></trkpt><trkpt lat="38.0877383" lon="13.1486783"><ele>284.3333333333333</ele><time>2026-05-05T12:40:33.564Z</time></trkpt><trkpt lat="38.0876817" lon="13.14875"><ele>285.5</ele><time>2026-05-05T12:40:34.564Z</time></trkpt><trkpt lat="38.08762" lon="13.1488283"><ele>286.66666666666663</ele><time>2026-05-05T12:40:35.564Z</time></trkpt><trkpt lat="38.087565" lon="13.14892"><ele>287.8333333333333</ele><time>2026-05-05T12:40:36.565Z</time></trkpt><trkpt lat="38.0875183" lon="13.1490233"><ele>289.0</ele><time>2026-05-05T12:40:37.565Z</time></trkpt><trkpt lat="38.0874817" lon="13.1491333"><ele>291.0</ele><time>2026-05-05T12:40:38.564Z</time></trkpt><trkpt lat="38.087455" lon="13.149245"><ele>293.0</ele><time>2026-05-05T12:40:39.564Z</time></trkpt><trkpt lat="38.0874333" lon="13.1493617"><ele>295.0</ele><time>2026-05-05T12:40:40.565Z</time></trkpt><trkpt lat="38.0874117" lon="13.1494783"><ele>297.0</ele><time>2026-05-05T12:40:41.565Z</time></trkpt><trkpt lat="38.0873917" lon="13.1495983"><ele>299.0</ele><time>2026-05-05T12:40:42.565Z</time></trkpt><trkpt lat="38.0873733" lon="13.149725"><ele>295.4</ele><time>2026-05-05T12:40:43.565Z</time></trkpt><trkpt lat="38.0873567" lon="13.1498583"><ele>291.79999999999995</ele><time>2026-05-05T12:40:44.566Z</time></trkpt><trkpt lat="38.0873417" lon="13.14999"><ele>288.20000000000005</ele><time>2026-05-05T12:40:45.565Z</time></trkpt><trkpt lat="38.0873267" lon="13.1501217"><ele>284.6</ele><time>2026-05-05T12:40:46.564Z</time></trkpt><trkpt lat="38.0873117" lon="13.1502533"><ele>281.0</ele><time>2026-05-05T12:40:47.565Z</time></trkpt><trkpt lat="38.0873017" lon="13.1503883"><ele>281.0</ele><time>2026-05-05T12:40:48.564Z</time></trkpt><trkpt lat="38.087295" lon="13.1505233"><ele>281.0</ele><time>2026-05-05T12:40:49.564Z</time></trkpt><trkpt lat="38.0872933" lon="13.1506567"><ele>281.0</ele><time>2026-05-05T12:40:50.565Z</time></trkpt><trkpt lat="38.0872867" lon="13.150785"><ele>281.0</ele><time>2026-05-05T12:40:51.565Z</time></trkpt><trkpt lat="38.0872767" lon="13.150905"><ele>281.0</ele><time>2026-05-05T12:40:52.565Z</time></trkpt><trkpt lat="38.0872633" lon="13.1510217"><ele>281.1666666666667</ele><time>2026-05-05T12:40:53.565Z</time></trkpt><trkpt lat="38.08724" lon="13.1511317"><ele>281.33333333333337</ele><time>2026-05-05T12:40:54.565Z</time></trkpt><trkpt lat="38.0872133" lon="13.1512433"><ele>281.5</ele><time>2026-05-05T12:40:55.565Z</time></trkpt><trkpt lat="38.0871917" lon="13.151355"><ele>281.6666666666667</ele><time>2026-05-05T12:40:56.565Z</time></trkpt><trkpt lat="38.0871733" lon="13.1514617"><ele>281.8333333333333</ele><time>2026-05-05T12:40:57.564Z</time></trkpt><trkpt lat="38.0871567" lon="13.15156"><ele>282.0</ele><time>2026-05-05T12:40:58.565Z</time></trkpt><trkpt lat="38.08714" lon="13.1516517"><ele>281.3333333333333</ele><time>2026-05-05T12:40:59.565Z</time></trkpt><trkpt lat="38.0871283" lon="13.1517483"><ele>280.6666666666667</ele><time>2026-05-05T12:41:00.564Z</time></trkpt><trkpt lat="38.0871233" lon="13.1518517"><ele>280.0</ele><time>2026-05-05T12:41:01.565Z</time></trkpt><trkpt lat="38.0871183" lon="13.1519567"><ele>279.33333333333337</ele><time>2026-05-05T12:41:02.564Z</time></trkpt><trkpt lat="38.0871167" lon="13.15207"><ele>278.6666666666667</ele><time>2026-05-05T12:41:03.564Z</time></trkpt><trkpt lat="38.0871167" lon="13.1521817"><ele>278.0</ele><time>2026-05-05T12:41:04.564Z</time></trkpt><trkpt lat="38.0871133" lon="13.1522867"><ele>277.6666666666667</ele><time>2026-05-05T12:41:05.564Z</time></trkpt><trkpt lat="38.08711" lon="13.1523767"><ele>277.33333333333337</ele><time>2026-05-05T12:41:06.565Z</time></trkpt><trkpt lat="38.0870917" lon="13.1525033"><ele>277.0</ele><time>2026-05-05T12:41:08.564Z</time></trkpt><trkpt lat="38.08707" lon="13.1525867"><ele>276.6666666666667</ele><time>2026-05-05T12:41:10.565Z</time></trkpt><trkpt lat="38.08701" lon="13.1526167"><ele>276.3333333333333</ele><time>2026-05-05T12:41:13.566Z</time></trkpt><trkpt lat="38.08695" lon="13.1525317"><ele>276.0</ele><time>2026-05-05T12:41:15.566Z</time></trkpt><trkpt lat="38.0869067" lon="13.15246"><ele>276.40000000000003</ele><time>2026-05-05T12:41:16.564Z</time></trkpt><trkpt lat="38.08685" lon="13.1523633"><ele>276.8</ele><time>2026-05-05T12:41:17.565Z</time></trkpt><trkpt lat="38.086785" lon="13.1522667"><ele>277.20000000000005</ele><time>2026-05-05T12:41:18.565Z</time></trkpt><trkpt lat="38.0867283" lon="13.152175"><ele>277.6</ele><time>2026-05-05T12:41:19.566Z</time></trkpt><trkpt lat="38.086675" lon="13.15209"><ele>278.0</ele><time>2026-05-05T12:41:20.566Z</time></trkpt><trkpt lat="38.0866233" lon="13.1520067"><ele>275.4</ele><time>2026-05-05T12:41:21.566Z</time></trkpt><trkpt lat="38.086565" lon="13.1519217"><ele>272.8</ele><time>2026-05-05T12:41:22.565Z</time></trkpt><trkpt lat="38.0865083" lon="13.1518383"><ele>270.2</ele><time>2026-05-05T12:41:23.565Z</time></trkpt><trkpt lat="38.08645" lon="13.15175"><ele>267.6</ele><time>2026-05-05T12:41:24.566Z</time></trkpt><trkpt lat="38.0863867" lon="13.1516633"><ele>265.0</ele><time>2026-05-05T12:41:25.566Z</time></trkpt><trkpt lat="38.0863233" lon="13.1515633"><ele>265.5</ele><time>2026-05-05T12:41:26.565Z</time></trkpt><trkpt lat="38.0862567" lon="13.1514533"><ele>266.0</ele><time>2026-05-05T12:41:27.565Z</time></trkpt><trkpt lat="38.0861883" lon="13.1513333"><ele>266.5</ele><time>2026-05-05T12:41:28.565Z</time></trkpt><trkpt lat="38.08612" lon="13.15121"><ele>267.0</ele><time>2026-05-05T12:41:29.565Z</time></trkpt><trkpt lat="38.0860533" lon="13.1510833"><ele>267.0</ele><time>2026-05-05T12:41:30.565Z</time></trkpt><trkpt lat="38.0859867" lon="13.1509583"><ele>267.0</ele><time>2026-05-05T12:41:31.565Z</time></trkpt><trkpt lat="38.0859167" lon="13.15083"><ele>267.0</ele><time>2026-05-05T12:41:32.564Z</time></trkpt><trkpt lat="38.085845" lon="13.150695"><ele>267.0</ele><time>2026-05-05T12:41:33.564Z</time></trkpt><trkpt lat="38.085775" lon="13.1505517"><ele>264.5</ele><time>2026-05-05T12:41:34.564Z</time></trkpt><trkpt lat="38.0857083" lon="13.150405"><ele>262.0</ele><time>2026-05-05T12:41:35.563Z</time></trkpt><trkpt lat="38.0856517" lon="13.150255"><ele>259.5</ele><time>2026-05-05T12:41:36.564Z</time></trkpt><trkpt lat="38.0856" lon="13.150105"><ele>257.0</ele><time>2026-05-05T12:41:37.563Z</time></trkpt><trkpt lat="38.0855517" lon="13.149955"><ele>256.0</ele><time>2026-05-05T12:41:38.565Z</time></trkpt><trkpt lat="38.0855117" lon="13.1498067"><ele>255.0</ele><time>2026-05-05T12:41:39.563Z</time></trkpt><trkpt lat="38.0854833" lon="13.14966"><ele>254.0</ele><time>2026-05-05T12:41:40.565Z</time></trkpt><trkpt lat="38.08547" lon="13.14951"><ele>253.0</ele><time>2026-05-05T12:41:41.564Z</time></trkpt><trkpt lat="38.0854633" lon="13.1493533"><ele>253.0</ele><time>2026-05-05T12:41:42.566Z</time></trkpt><trkpt lat="38.0854617" lon="13.1491883"><ele>253.0</ele><time>2026-05-05T12:41:43.565Z</time></trkpt><trkpt lat="38.085465" lon="13.14902"><ele>253.0</ele><time>2026-05-05T12:41:44.564Z</time></trkpt><trkpt lat="38.0854683" lon="13.1488483"><ele>253.0</ele><time>2026-05-05T12:41:45.565Z</time></trkpt><trkpt lat="38.085475" lon="13.1486683"><ele>251.66666666666666</ele><time>2026-05-05T12:41:46.564Z</time></trkpt><trkpt lat="38.0854817" lon="13.14848"><ele>250.33333333333331</ele><time>2026-05-05T12:41:47.566Z</time></trkpt><trkpt lat="38.0854833" lon="13.1482867"><ele>249.0</ele><time>2026-05-05T12:41:48.565Z</time></trkpt><trkpt lat="38.085485" lon="13.148085"><ele>247.0</ele><time>2026-05-05T12:41:49.565Z</time></trkpt><trkpt lat="38.08549" lon="13.147885"><ele>245.0</ele><time>2026-05-05T12:41:50.565Z</time></trkpt><trkpt lat="38.0854983" lon="13.1476883"><ele>243.0</ele><time>2026-05-05T12:41:51.564Z</time></trkpt><trkpt lat="38.0855033" lon="13.1474967"><ele>242.0</ele><time>2026-05-05T12:41:52.566Z</time></trkpt><trkpt lat="38.0855083" lon="13.1473067"><ele>241.0</ele><time>2026-05-05T12:41:53.565Z</time></trkpt><trkpt lat="38.0855067" lon="13.1471217"><ele>240.0</ele><time>2026-05-05T12:41:54.565Z</time></trkpt><trkpt lat="38.0855017" lon="13.14694"><ele>239.0</ele><time>2026-05-05T12:41:55.565Z</time></trkpt><trkpt lat="38.0854867" lon="13.1467633"><ele>239.0</ele><time>2026-05-05T12:41:56.565Z</time></trkpt><trkpt lat="38.0854583" lon="13.1465917"><ele>239.0</ele><time>2026-05-05T12:41:57.565Z</time></trkpt><trkpt lat="38.0854167" lon="13.146425"><ele>239.0</ele><time>2026-05-05T12:41:58.563Z</time></trkpt><trkpt lat="38.085365" lon="13.146255"><ele>239.0</ele><time>2026-05-05T12:41:59.564Z</time></trkpt><trkpt lat="38.0853083" lon="13.146085"><ele>239.0</ele><time>2026-05-05T12:42:00.565Z</time></trkpt><trkpt lat="38.0852483" lon="13.1459083"><ele>239.0</ele><time>2026-05-05T12:42:01.565Z</time></trkpt><trkpt lat="38.085185" lon="13.1457283"><ele>239.0</ele><time>2026-05-05T12:42:02.565Z</time></trkpt><trkpt lat="38.0851217" lon="13.145545"><ele>238.0</ele><time>2026-05-05T12:42:03.565Z</time></trkpt><trkpt lat="38.0850683" lon="13.1453617"><ele>237.0</ele><time>2026-05-05T12:42:04.565Z</time></trkpt><trkpt lat="38.085025" lon="13.14518"><ele>236.0</ele><time>2026-05-05T12:42:05.564Z</time></trkpt><trkpt lat="38.0849967" lon="13.144995"><ele>235.0</ele><time>2026-05-05T12:42:06.565Z</time></trkpt><trkpt lat="38.084985" lon="13.1448067"><ele>234.0</ele><time>2026-05-05T12:42:07.565Z</time></trkpt><trkpt lat="38.0849867" lon="13.1446233"><ele>233.0</ele><time>2026-05-05T12:42:08.564Z</time></trkpt><trkpt lat="38.0849883" lon="13.144455"><ele>232.0</ele><time>2026-05-05T12:42:09.564Z</time></trkpt><trkpt lat="38.084985" lon="13.1443067"><ele>232.0</ele><time>2026-05-05T12:42:10.565Z</time></trkpt><trkpt lat="38.0849617" lon="13.14418"><ele>232.0</ele><time>2026-05-05T12:42:11.565Z</time></trkpt><trkpt lat="38.084915" lon="13.1440683"><ele>232.0</ele><time>2026-05-05T12:42:12.564Z</time></trkpt><trkpt lat="38.0848417" lon="13.1439733"><ele>232.0</ele><time>2026-05-05T12:42:13.564Z</time></trkpt><trkpt lat="38.08475" lon="13.1438833"><ele>232.0</ele><time>2026-05-05T12:42:14.564Z</time></trkpt><trkpt lat="38.0846517" lon="13.1437867"><ele>229.25</ele><time>2026-05-05T12:42:15.565Z</time></trkpt><trkpt lat="38.08455" lon="13.1436733"><ele>226.5</ele><time>2026-05-05T12:42:16.565Z</time></trkpt><trkpt lat="38.08446" lon="13.1435433"><ele>223.75</ele><time>2026-05-05T12:42:17.565Z</time></trkpt><trkpt lat="38.08438" lon="13.1434017"><ele>221.0</ele><time>2026-05-05T12:42:18.565Z</time></trkpt><trkpt lat="38.0843067" lon="13.1432517"><ele>221.0</ele><time>2026-05-05T12:42:19.565Z</time></trkpt><trkpt lat="38.0842383" lon="13.14309"><ele>221.0</ele><time>2026-05-05T12:42:20.565Z</time></trkpt><trkpt lat="38.0841783" lon="13.1429183"><ele>221.0</ele><time>2026-05-05T12:42:21.565Z</time></trkpt><trkpt lat="38.084125" lon="13.1427333"><ele>221.0</ele><time>2026-05-05T12:42:22.564Z</time></trkpt><trkpt lat="38.084075" lon="13.1425433"><ele>216.25</ele><time>2026-05-05T12:42:23.564Z</time></trkpt><trkpt lat="38.08403" lon="13.1423583"><ele>211.5</ele><time>2026-05-05T12:42:24.564Z</time></trkpt><trkpt lat="38.0839917" lon="13.14218"><ele>206.75</ele><time>2026-05-05T12:42:25.565Z</time></trkpt><trkpt lat="38.08396" lon="13.1420183"><ele>202.0</ele><time>2026-05-05T12:42:26.566Z</time></trkpt><trkpt lat="38.0839433" lon="13.1418617"><ele>202.0</ele><time>2026-05-05T12:42:27.565Z</time></trkpt><trkpt lat="38.0839383" lon="13.1417083"><ele>202.0</ele><time>2026-05-05T12:42:28.566Z</time></trkpt><trkpt lat="38.08395" lon="13.141555"><ele>202.0</ele><time>2026-05-05T12:42:29.565Z</time></trkpt><trkpt lat="38.0839683" lon="13.1413967"><ele>202.0</ele><time>2026-05-05T12:42:30.563Z</time></trkpt><trkpt lat="38.0839917" lon="13.1412283"><ele>201.25</ele><time>2026-05-05T12:42:31.564Z</time></trkpt><trkpt lat="38.0840167" lon="13.1410483"><ele>200.5</ele><time>2026-05-05T12:42:32.565Z</time></trkpt><trkpt lat="38.0840433" lon="13.14086"><ele>199.75</ele><time>2026-05-05T12:42:33.565Z</time></trkpt><trkpt lat="38.08407" lon="13.1406667"><ele>199.0</ele><time>2026-05-05T12:42:34.564Z</time></trkpt><trkpt lat="38.0841" lon="13.1404667"><ele>201.33333333333331</ele><time>2026-05-05T12:42:35.566Z</time></trkpt><trkpt lat="38.0841317" lon="13.1402667"><ele>203.66666666666669</ele><time>2026-05-05T12:42:36.565Z</time></trkpt><trkpt lat="38.084165" lon="13.1400717"><ele>206.0</ele><time>2026-05-05T12:42:37.565Z</time></trkpt><trkpt lat="38.08421" lon="13.139885"><ele>205.0</ele><time>2026-05-05T12:42:38.566Z</time></trkpt><trkpt lat="38.0842617" lon="13.1397067"><ele>204.0</ele><time>2026-05-05T12:42:39.564Z</time></trkpt><trkpt lat="38.0843167" lon="13.1395317"><ele>203.0</ele><time>2026-05-05T12:42:40.565Z</time></trkpt><trkpt lat="38.0843667" lon="13.1393533"><ele>202.0</ele><time>2026-05-05T12:42:41.565Z</time></trkpt><trkpt lat="38.0844083" lon="13.1391733"><ele>201.25</ele><time>2026-05-05T12:42:42.565Z</time></trkpt><trkpt lat="38.08444" lon="13.138995"><ele>200.5</ele><time>2026-05-05T12:42:43.565Z</time></trkpt><trkpt lat="38.0844533" lon="13.1388183"><ele>199.75</ele><time>2026-05-05T12:42:44.565Z</time></trkpt><trkpt lat="38.0844467" lon="13.1386467"><ele>199.0</ele><time>2026-05-05T12:42:45.565Z</time></trkpt><trkpt lat="38.0844233" lon="13.1384867"><ele>199.0</ele><time>2026-05-05T12:42:46.567Z</time></trkpt><trkpt lat="38.084385" lon="13.1383333"><ele>199.0</ele><time>2026-05-05T12:42:47.564Z</time></trkpt><trkpt lat="38.0843367" lon="13.138185"><ele>199.0</ele><time>2026-05-05T12:42:48.564Z</time></trkpt><trkpt lat="38.08428" lon="13.1380317"><ele>199.0</ele><time>2026-05-05T12:42:49.564Z</time></trkpt><trkpt lat="38.084225" lon="13.1378767"><ele>198.5</ele><time>2026-05-05T12:42:50.565Z</time></trkpt><trkpt lat="38.08417" lon="13.1377167"><ele>198.0</ele><time>2026-05-05T12:42:51.565Z</time></trkpt><trkpt lat="38.0841183" lon="13.13755"><ele>197.5</ele><time>2026-05-05T12:42:52.563Z</time></trkpt><trkpt lat="38.0840733" lon="13.1373767"><ele>197.0</ele><time>2026-05-05T12:42:53.565Z</time></trkpt><trkpt lat="38.084035" lon="13.137195"><ele>193.25</ele><time>2026-05-05T12:42:54.565Z</time></trkpt><trkpt lat="38.083995" lon="13.1370133"><ele>189.5</ele><time>2026-05-05T12:42:55.564Z</time></trkpt><trkpt lat="38.083955" lon="13.1368317"><ele>185.75</ele><time>2026-05-05T12:42:56.565Z</time></trkpt><trkpt lat="38.083915" lon="13.1366533"><ele>182.0</ele><time>2026-05-05T12:42:57.565Z</time></trkpt><trkpt lat="38.0838783" lon="13.136475"><ele>181.0</ele><time>2026-05-05T12:42:58.564Z</time></trkpt><trkpt lat="38.0838383" lon="13.1362917"><ele>180.0</ele><time>2026-05-05T12:42:59.565Z</time></trkpt><trkpt lat="38.0837983" lon="13.136105"><ele>179.0</ele><time>2026-05-05T12:43:00.565Z</time></trkpt><trkpt lat="38.08376" lon="13.1359167"><ele>179.0</ele><time>2026-05-05T12:43:01.565Z</time></trkpt><trkpt lat="38.083725" lon="13.1357217"><ele>179.0</ele><time>2026-05-05T12:43:02.565Z</time></trkpt><trkpt lat="38.0836933" lon="13.1355267"><ele>179.0</ele><time>2026-05-05T12:43:03.565Z</time></trkpt><trkpt lat="38.0836617" lon="13.1353367"><ele>179.0</ele><time>2026-05-05T12:43:04.565Z</time></trkpt><trkpt lat="38.0836333" lon="13.1351533"><ele>179.0</ele><time>2026-05-05T12:43:05.565Z</time></trkpt><trkpt lat="38.0836033" lon="13.134975"><ele>179.0</ele><time>2026-05-05T12:43:06.565Z</time></trkpt><trkpt lat="38.0835733" lon="13.1347983"><ele>179.0</ele><time>2026-05-05T12:43:07.564Z</time></trkpt><trkpt lat="38.08354" lon="13.13463"><ele>179.0</ele><time>2026-05-05T12:43:08.565Z</time></trkpt><trkpt lat="38.0835133" lon="13.1344733"><ele>179.0</ele><time>2026-05-05T12:43:09.565Z</time></trkpt><trkpt lat="38.083505" lon="13.134335"><ele>179.0</ele><time>2026-05-05T12:43:10.566Z</time></trkpt><trkpt lat="38.0835117" lon="13.1342033"><ele>179.0</ele><time>2026-05-05T12:43:11.565Z</time></trkpt><trkpt lat="38.08354" lon="13.1340633"><ele>177.0</ele><time>2026-05-05T12:43:12.564Z</time></trkpt><trkpt lat="38.0835733" lon="13.1339117"><ele>175.0</ele><time>2026-05-05T12:43:13.566Z</time></trkpt><trkpt lat="38.08361" lon="13.1337483"><ele>173.0</ele><time>2026-05-05T12:43:14.565Z</time></trkpt><trkpt lat="38.08365" lon="13.133575"><ele>171.0</ele><time>2026-05-05T12:43:15.565Z</time></trkpt><trkpt lat="38.0836867" lon="13.13339"><ele>169.66666666666666</ele><time>2026-05-05T12:43:16.565Z</time></trkpt><trkpt lat="38.0837133" lon="13.133195"><ele>168.33333333333331</ele><time>2026-05-05T12:43:17.564Z</time></trkpt><trkpt lat="38.08373" lon="13.133"><ele>167.0</ele><time>2026-05-05T12:43:18.565Z</time></trkpt><trkpt lat="38.0837283" lon="13.1328133"><ele>167.0</ele><time>2026-05-05T12:43:19.565Z</time></trkpt><trkpt lat="38.0837133" lon="13.132635"><ele>167.0</ele><time>2026-05-05T12:43:20.565Z</time></trkpt><trkpt lat="38.083685" lon="13.13246"><ele>167.0</ele><time>2026-05-05T12:43:21.565Z</time></trkpt><trkpt lat="38.0836467" lon="13.1322817"><ele>167.0</ele><time>2026-05-05T12:43:22.564Z</time></trkpt><trkpt lat="38.0836033" lon="13.132105"><ele>167.66666666666666</ele><time>2026-05-05T12:43:23.565Z</time></trkpt><trkpt lat="38.0835533" lon="13.1319267"><ele>168.33333333333334</ele><time>2026-05-05T12:43:24.566Z</time></trkpt><trkpt lat="38.0835" lon="13.131745"><ele>169.0</ele><time>2026-05-05T12:43:25.566Z</time></trkpt><trkpt lat="38.0834467" lon="13.1315567"><ele>169.0</ele><time>2026-05-05T12:43:26.566Z</time></trkpt><trkpt lat="38.0833933" lon="13.1313683"><ele>169.0</ele><time>2026-05-05T12:43:27.565Z</time></trkpt><trkpt lat="38.0833483" lon="13.1311867"><ele>169.0</ele><time>2026-05-05T12:43:28.565Z</time></trkpt><trkpt lat="38.0833167" lon="13.131005"><ele>169.0</ele><time>2026-05-05T12:43:29.564Z</time></trkpt><trkpt lat="38.0832983" lon="13.1308283"><ele>169.0</ele><time>2026-05-05T12:43:30.565Z</time></trkpt><trkpt lat="38.0832933" lon="13.1306567"><ele>169.0</ele><time>2026-05-05T12:43:31.565Z</time></trkpt><trkpt lat="38.0832983" lon="13.1304783"><ele>169.0</ele><time>2026-05-05T12:43:32.565Z</time></trkpt><trkpt lat="38.083305" lon="13.1303033"><ele>168.75</ele><time>2026-05-05T12:43:33.565Z</time></trkpt><trkpt lat="38.0833117" lon="13.13013"><ele>168.5</ele><time>2026-05-05T12:43:34.564Z</time></trkpt><trkpt lat="38.0833183" lon="13.129965"><ele>168.25</ele><time>2026-05-05T12:43:35.567Z</time></trkpt><trkpt lat="38.08333" lon="13.1298067"><ele>168.0</ele><time>2026-05-05T12:43:36.564Z</time></trkpt><trkpt lat="38.0833467" lon="13.129655"><ele>167.60000000000002</ele><time>2026-05-05T12:43:37.565Z</time></trkpt><trkpt lat="38.083365" lon="13.1295167"><ele>167.20000000000002</ele><time>2026-05-05T12:43:38.565Z</time></trkpt><trkpt lat="38.0833883" lon="13.1293983"><ele>166.8</ele><time>2026-05-05T12:43:39.565Z</time></trkpt><trkpt lat="38.0834067" lon="13.1293033"><ele>166.4</ele><time>2026-05-05T12:43:40.565Z</time></trkpt><trkpt lat="38.0834317" lon="13.1291733"><ele>166.0</ele><time>2026-05-05T12:43:42.565Z</time></trkpt><trkpt lat="38.0834367" lon="13.1290833"><ele>164.8</ele><time>2026-05-05T12:43:44.566Z</time></trkpt><trkpt lat="38.0833467" lon="13.12901"><ele>163.60000000000002</ele><time>2026-05-05T12:43:47.564Z</time></trkpt><trkpt lat="38.08323" lon="13.1289917"><ele>162.4</ele><time>2026-05-05T12:43:49.565Z</time></trkpt><trkpt lat="38.083165" lon="13.1289867"><ele>161.2</ele><time>2026-05-05T12:43:50.565Z</time></trkpt><trkpt lat="38.0830833" lon="13.1289767"><ele>160.0</ele><time>2026-05-05T12:43:51.563Z</time></trkpt><trkpt lat="38.0829867" lon="13.1289667"><ele>157.5</ele><time>2026-05-05T12:43:52.565Z</time></trkpt><trkpt lat="38.0828783" lon="13.1289567"><ele>155.0</ele><time>2026-05-05T12:43:53.564Z</time></trkpt><trkpt lat="38.08276" lon="13.1289417"><ele>152.5</ele><time>2026-05-05T12:43:54.566Z</time></trkpt><trkpt lat="38.0826417" lon="13.1289267"><ele>150.0</ele><time>2026-05-05T12:43:55.565Z</time></trkpt><trkpt lat="38.0825217" lon="13.12891"><ele>148.0</ele><time>2026-05-05T12:43:56.565Z</time></trkpt><trkpt lat="38.0824033" lon="13.1288917"><ele>146.0</ele><time>2026-05-05T12:43:57.564Z</time></trkpt><trkpt lat="38.0822883" lon="13.1288717"><ele>144.0</ele><time>2026-05-05T12:43:58.564Z</time></trkpt><trkpt lat="38.0821717" lon="13.1288533"><ele>142.0</ele><time>2026-05-05T12:43:59.564Z</time></trkpt><trkpt lat="38.0820567" lon="13.1288383"><ele>142.0</ele><time>2026-05-05T12:44:00.565Z</time></trkpt><trkpt lat="38.081945" lon="13.1288267"><ele>142.0</ele><time>2026-05-05T12:44:01.564Z</time></trkpt><trkpt lat="38.0818317" lon="13.1288133"><ele>142.0</ele><time>2026-05-05T12:44:02.565Z</time></trkpt><trkpt lat="38.0817167" lon="13.1288017"><ele>142.0</ele><time>2026-05-05T12:44:03.564Z</time></trkpt><trkpt lat="38.081595" lon="13.1287867"><ele>141.25</ele><time>2026-05-05T12:44:04.563Z</time></trkpt><trkpt lat="38.0814683" lon="13.12877"><ele>140.5</ele><time>2026-05-05T12:44:05.564Z</time></trkpt><trkpt lat="38.08134" lon="13.1287517"><ele>139.75</ele><time>2026-05-05T12:44:06.565Z</time></trkpt><trkpt lat="38.08121" lon="13.1287367"><ele>139.0</ele><time>2026-05-05T12:44:07.564Z</time></trkpt><trkpt lat="38.0810833" lon="13.1287267"><ele>139.0</ele><time>2026-05-05T12:44:08.565Z</time></trkpt><trkpt lat="38.0809617" lon="13.1287167"><ele>139.0</ele><time>2026-05-05T12:44:09.565Z</time></trkpt><trkpt lat="38.0808417" lon="13.1287067"><ele>139.0</ele><time>2026-05-05T12:44:10.564Z</time></trkpt><trkpt lat="38.080725" lon="13.1286983"><ele>139.0</ele><time>2026-05-05T12:44:11.564Z</time></trkpt><trkpt lat="38.080615" lon="13.12869"><ele>136.8</ele><time>2026-05-05T12:44:12.564Z</time></trkpt><trkpt lat="38.080505" lon="13.1286817"><ele>134.60000000000002</ele><time>2026-05-05T12:44:13.563Z</time></trkpt><trkpt lat="38.0804033" lon="13.1286733"><ele>132.4</ele><time>2026-05-05T12:44:14.563Z</time></trkpt><trkpt lat="38.08031" lon="13.128665"><ele>130.20000000000002</ele><time>2026-05-05T12:44:15.565Z</time></trkpt><trkpt lat="38.08021" lon="13.128655"><ele>128.0</ele><time>2026-05-05T12:44:16.563Z</time></trkpt><trkpt lat="38.080105" lon="13.1286383"><ele>128.0</ele><time>2026-05-05T12:44:17.563Z</time></trkpt><trkpt lat="38.079995" lon="13.1286233"><ele>128.0</ele><time>2026-05-05T12:44:18.563Z</time></trkpt><trkpt lat="38.07988" lon="13.12861"><ele>128.0</ele><time>2026-05-05T12:44:19.564Z</time></trkpt><trkpt lat="38.0797617" lon="13.1285967"><ele>128.0</ele><time>2026-05-05T12:44:20.564Z</time></trkpt><trkpt lat="38.0796433" lon="13.12858"><ele>126.0</ele><time>2026-05-05T12:44:21.564Z</time></trkpt><trkpt lat="38.0795267" lon="13.1285617"><ele>124.0</ele><time>2026-05-05T12:44:22.564Z</time></trkpt><trkpt lat="38.07941" lon="13.1285433"><ele>122.0</ele><time>2026-05-05T12:44:23.563Z</time></trkpt><trkpt lat="38.079295" lon="13.1285267"><ele>120.0</ele><time>2026-05-05T12:44:24.566Z</time></trkpt><trkpt lat="38.0791867" lon="13.12851"><ele>119.6</ele><time>2026-05-05T12:44:25.564Z</time></trkpt><trkpt lat="38.0790833" lon="13.1284967"><ele>119.2</ele><time>2026-05-05T12:44:26.565Z</time></trkpt><trkpt lat="38.0789833" lon="13.1284833"><ele>118.80000000000001</ele><time>2026-05-05T12:44:27.563Z</time></trkpt><trkpt lat="38.07889" lon="13.1284733"><ele>118.4</ele><time>2026-05-05T12:44:28.563Z</time></trkpt><trkpt lat="38.0787983" lon="13.1284617"><ele>118.0</ele><time>2026-05-05T12:44:29.563Z</time></trkpt><trkpt lat="38.0787083" lon="13.12845"><ele>118.00000000000001</ele><time>2026-05-05T12:44:30.564Z</time></trkpt><trkpt lat="38.07862" lon="13.1284383"><ele>118.0</ele><time>2026-05-05T12:44:31.563Z</time></trkpt><trkpt lat="38.078535" lon="13.1284267"><ele>118.0</ele><time>2026-05-05T12:44:32.565Z</time></trkpt><trkpt lat="38.0784567" lon="13.1284167"><ele>118.0</ele><time>2026-05-05T12:44:33.564Z</time></trkpt><trkpt lat="38.0783867" lon="13.1284033"><ele>118.00000000000001</ele><time>2026-05-05T12:44:34.564Z</time></trkpt><trkpt lat="38.0783267" lon="13.1283767"><ele>118.0</ele><time>2026-05-05T12:44:35.563Z</time></trkpt><trkpt lat="38.07824" lon="13.1282817"><ele>119.60000000000001</ele><time>2026-05-05T12:44:37.563Z</time></trkpt><trkpt lat="38.0781917" lon="13.1282217"><ele>121.20000000000002</ele><time>2026-05-05T12:44:38.564Z</time></trkpt><trkpt lat="38.0781533" lon="13.1281567"><ele>122.8</ele><time>2026-05-05T12:44:39.563Z</time></trkpt><trkpt lat="38.078095" lon="13.1280217"><ele>124.4</ele><time>2026-05-05T12:44:41.563Z</time></trkpt><trkpt lat="38.0780933" lon="13.1278917"><ele>126.0</ele><time>2026-05-05T12:44:43.563Z</time></trkpt><trkpt lat="38.0781433" lon="13.127785"><ele>126.0</ele><time>2026-05-05T12:44:45.564Z</time></trkpt><trkpt lat="38.0782117" lon="13.1276967"><ele>126.0</ele><time>2026-05-05T12:44:47.564Z</time></trkpt><trkpt lat="38.0783017" lon="13.1275933"><ele>126.0</ele><time>2026-05-05T12:44:49.564Z</time></trkpt><trkpt lat="38.078355" lon="13.1275383"><ele>126.0</ele><time>2026-05-05T12:44:50.564Z</time></trkpt><trkpt lat="38.0784117" lon="13.1274767"><ele>126.0</ele><time>2026-05-05T12:44:51.564Z</time></trkpt><trkpt lat="38.078465" lon="13.1274183"><ele>126.0</ele><time>2026-05-05T12:44:52.564Z</time></trkpt><trkpt lat="38.0785217" lon="13.1273667"><ele>124.16666666666667</ele><time>2026-05-05T12:44:53.563Z</time></trkpt><trkpt lat="38.0785833" lon="13.1273217"><ele>122.33333333333334</ele><time>2026-05-05T12:44:54.563Z</time></trkpt><trkpt lat="38.0786467" lon="13.1272783"><ele>120.5</ele><time>2026-05-05T12:44:55.567Z</time></trkpt><trkpt lat="38.0787083" lon="13.1272383"><ele>118.66666666666667</ele><time>2026-05-05T12:44:56.564Z</time></trkpt><trkpt lat="38.0788133" lon="13.1271717"><ele>116.83333333333334</ele><time>2026-05-05T12:44:58.564Z</time></trkpt><trkpt lat="38.0788783" lon="13.1271267"><ele>115.0</ele><time>2026-05-05T12:45:01.564Z</time></trkpt><trkpt lat="38.0789067" lon="13.1270167"><ele>115.00000000000001</ele><time>2026-05-05T12:45:05.564Z</time></trkpt><trkpt lat="38.078905" lon="13.1269283"><ele>115.0</ele><time>2026-05-05T12:45:07.564Z</time></trkpt><trkpt lat="38.0788967" lon="13.1268317"><ele>115.0</ele><time>2026-05-05T12:45:09.564Z</time></trkpt><trkpt lat="38.0788983" lon="13.12669"><ele>115.0</ele><time>2026-05-05T12:45:11.564Z</time></trkpt><trkpt lat="38.078895" lon="13.1266067"><ele>115.00000000000001</ele><time>2026-05-05T12:45:12.564Z</time></trkpt><trkpt lat="38.0788867" lon="13.1265167"><ele>115.0</ele><time>2026-05-05T12:45:13.564Z</time></trkpt><trkpt lat="38.0788817" lon="13.12642"><ele>114.85714285714283</ele><time>2026-05-05T12:45:14.565Z</time></trkpt><trkpt lat="38.0788783" lon="13.1263167"><ele>114.71428571428571</ele><time>2026-05-05T12:45:15.562Z</time></trkpt><trkpt lat="38.0788717" lon="13.1262183"><ele>114.57142857142856</ele><time>2026-05-05T12:45:16.564Z</time></trkpt><trkpt lat="38.0788583" lon="13.12613"><ele>114.42857142857142</ele><time>2026-05-05T12:45:17.563Z</time></trkpt><trkpt lat="38.0788367" lon="13.1260517"><ele>114.28571428571428</ele><time>2026-05-05T12:45:18.565Z</time></trkpt><trkpt lat="38.0788033" lon="13.1259783"><ele>114.14285714285714</ele><time>2026-05-05T12:45:19.564Z</time></trkpt><trkpt lat="38.0787567" lon="13.1259083"><ele>114.0</ele><time>2026-05-05T12:45:20.565Z</time></trkpt><trkpt lat="38.0787033" lon="13.1258267"><ele>114.0</ele><time>2026-05-05T12:45:21.565Z</time></trkpt><trkpt lat="38.07865" lon="13.1257367"><ele>114.0</ele><time>2026-05-05T12:45:22.565Z</time></trkpt><trkpt lat="38.0786033" lon="13.1256417"><ele>114.0</ele><time>2026-05-05T12:45:23.564Z</time></trkpt><trkpt lat="38.0785583" lon="13.1255417"><ele>114.0</ele><time>2026-05-05T12:45:24.564Z</time></trkpt><trkpt lat="38.0785117" lon="13.1254383"><ele>114.0</ele><time>2026-05-05T12:45:25.564Z</time></trkpt><trkpt lat="38.07847" lon="13.12534"><ele>114.0</ele><time>2026-05-05T12:45:26.564Z</time></trkpt><trkpt lat="38.0784267" lon="13.1252567"><ele>113.85714285714285</ele><time>2026-05-05T12:45:27.564Z</time></trkpt><trkpt lat="38.078385" lon="13.1251767"><ele>113.7142857142857</ele><time>2026-05-05T12:45:28.564Z</time></trkpt><trkpt lat="38.07835" lon="13.125105"><ele>113.57142857142857</ele><time>2026-05-05T12:45:29.563Z</time></trkpt><trkpt lat="38.0783333" lon="13.1250267"><ele>113.42857142857142</ele><time>2026-05-05T12:45:30.564Z</time></trkpt><trkpt lat="38.0783283" lon="13.12493"><ele>113.28571428571428</ele><time>2026-05-05T12:45:31.564Z</time></trkpt><trkpt lat="38.0783217" lon="13.1248383"><ele>113.14285714285714</ele><time>2026-05-05T12:45:32.563Z</time></trkpt><trkpt lat="38.078315" lon="13.1247417"><ele>113.0</ele><time>2026-05-05T12:45:33.563Z</time></trkpt><trkpt lat="38.0783133" lon="13.12465"><ele>112.85714285714286</ele><time>2026-05-05T12:45:34.564Z</time></trkpt><trkpt lat="38.0783167" lon="13.12456"><ele>112.71428571428571</ele><time>2026-05-05T12:45:35.564Z</time></trkpt><trkpt lat="38.0783283" lon="13.1244667"><ele>112.57142857142857</ele><time>2026-05-05T12:45:36.563Z</time></trkpt><trkpt lat="38.0783333" lon="13.12438"><ele>112.42857142857143</ele><time>2026-05-05T12:45:37.563Z</time></trkpt><trkpt lat="38.07833" lon="13.12429"><ele>112.28571428571428</ele><time>2026-05-05T12:45:38.563Z</time></trkpt><trkpt lat="38.07833" lon="13.12419"><ele>112.14285714285714</ele><time>2026-05-05T12:45:39.563Z</time></trkpt><trkpt lat="38.078335" lon="13.12409"><ele>112.0</ele><time>2026-05-05T12:45:40.564Z</time></trkpt><trkpt lat="38.078335" lon="13.1239933"><ele>112.33333333333334</ele><time>2026-05-05T12:45:41.564Z</time></trkpt><trkpt lat="38.0783333" lon="13.1238983"><ele>112.66666666666667</ele><time>2026-05-05T12:45:42.564Z</time></trkpt><trkpt lat="38.0783333" lon="13.1238017"><ele>113.0</ele><time>2026-05-05T12:45:43.565Z</time></trkpt><trkpt lat="38.0783367" lon="13.1236967"><ele>113.33333333333334</ele><time>2026-05-05T12:45:44.563Z</time></trkpt><trkpt lat="38.078335" lon="13.1235883"><ele>113.66666666666667</ele><time>2026-05-05T12:45:45.564Z</time></trkpt><trkpt lat="38.0783383" lon="13.1234867"><ele>114.0</ele><time>2026-05-05T12:45:46.564Z</time></trkpt><trkpt lat="38.078345" lon="13.12339"><ele>114.0</ele><time>2026-05-05T12:45:47.564Z</time></trkpt><trkpt lat="38.0783533" lon="13.1232933"><ele>113.99999999999999</ele><time>2026-05-05T12:45:48.564Z</time></trkpt><trkpt lat="38.0783617" lon="13.1231967"><ele>114.0</ele><time>2026-05-05T12:45:49.565Z</time></trkpt><trkpt lat="38.078375" lon="13.1231017"><ele>114.0</ele><time>2026-05-05T12:45:50.565Z</time></trkpt><trkpt lat="38.0783883" lon="13.1230083"><ele>113.99999999999999</ele><time>2026-05-05T12:45:51.565Z</time></trkpt><trkpt lat="38.0783933" lon="13.1229133"><ele>114.0</ele><time>2026-05-05T12:45:52.564Z</time></trkpt><trkpt lat="38.0783967" lon="13.1228267"><ele>114.0</ele><time>2026-05-05T12:45:53.564Z</time></trkpt><trkpt lat="38.0783717" lon="13.1226967"><ele>115.0</ele><time>2026-05-05T12:45:55.564Z</time></trkpt><trkpt lat="38.07829" lon="13.1226317"><ele>116.0</ele><time>2026-05-05T12:45:57.565Z</time></trkpt><trkpt lat="38.0781833" lon="13.1225817"><ele>117.0</ele><time>2026-05-05T12:45:59.563Z</time></trkpt><trkpt lat="38.0781533" lon="13.1224983"><ele>118.0</ele><time>2026-05-05T12:46:01.563Z</time></trkpt><trkpt lat="38.0781883" lon="13.1223483"><ele>119.0</ele><time>2026-05-05T12:46:03.564Z</time></trkpt><trkpt lat="38.0782117" lon="13.122255"><ele>119.49999999999999</ele><time>2026-05-05T12:46:04.563Z</time></trkpt><trkpt lat="38.078235" lon="13.1221633"><ele>120.0</ele><time>2026-05-05T12:46:05.564Z</time></trkpt><trkpt lat="38.07826" lon="13.1220667"><ele>120.5</ele><time>2026-05-05T12:46:06.564Z</time></trkpt><trkpt lat="38.078285" lon="13.12197"><ele>121.0</ele><time>2026-05-05T12:46:07.564Z</time></trkpt><trkpt lat="38.0783117" lon="13.12188"><ele>121.49999999999999</ele><time>2026-05-05T12:46:08.564Z</time></trkpt><trkpt lat="38.0783483" lon="13.1217333"><ele>122.0</ele><time>2026-05-05T12:46:10.563Z</time></trkpt><trkpt lat="38.0783467" lon="13.1215883"><ele>122.0</ele><time>2026-05-05T12:46:12.563Z</time></trkpt><trkpt lat="38.0782917" lon="13.1214633"><ele>121.99999999999999</ele><time>2026-05-05T12:46:14.564Z</time></trkpt><trkpt lat="38.0781917" lon="13.12139"><ele>121.99999999999999</ele><time>2026-05-05T12:46:16.562Z</time></trkpt><trkpt lat="38.078065" lon="13.1213767"><ele>122.0</ele><time>2026-05-05T12:46:18.563Z</time></trkpt><trkpt lat="38.0779983" lon="13.1213733"><ele>122.0</ele><time>2026-05-05T12:46:19.564Z</time></trkpt><trkpt lat="38.077925" lon="13.12136"><ele>123.33333333333333</ele><time>2026-05-05T12:46:20.565Z</time></trkpt><trkpt lat="38.07785" lon="13.1213383"><ele>124.66666666666666</ele><time>2026-05-05T12:46:21.564Z</time></trkpt><trkpt lat="38.0777733" lon="13.1213183"><ele>126.0</ele><time>2026-05-05T12:46:22.565Z</time></trkpt><trkpt lat="38.0776983" lon="13.1213017"><ele>127.33333333333334</ele><time>2026-05-05T12:46:23.564Z</time></trkpt><trkpt lat="38.0776283" lon="13.1212767"><ele>128.66666666666669</ele><time>2026-05-05T12:46:24.564Z</time></trkpt><trkpt lat="38.0775381" lon="13.1211875"><ele>130.0</ele><time>2026-05-05T12:46:26.564Z</time></trkpt><trkpt lat="38.0775158" lon="13.1210372"><ele>130.0</ele><time>2026-05-05T12:46:28.564Z</time></trkpt><trkpt lat="38.0775157" lon="13.1209456"><ele>130.0</ele><time>2026-05-05T12:46:29.564Z</time></trkpt><trkpt lat="38.0775193" lon="13.1208456"><ele>130.0</ele><time>2026-05-05T12:46:30.564Z</time></trkpt><trkpt lat="38.077527" lon="13.1207432"><ele>130.0</ele><time>2026-05-05T12:46:31.564Z</time></trkpt><trkpt lat="38.0775354" lon="13.120639"><ele>130.0</ele><time>2026-05-05T12:46:32.566Z</time></trkpt><trkpt lat="38.0775438" lon="13.120532"><ele>130.0</ele><time>2026-05-05T12:46:33.565Z</time></trkpt><trkpt lat="38.0775499" lon="13.1204271"><ele>129.66666666666669</ele><time>2026-05-05T12:46:34.563Z</time></trkpt><trkpt lat="38.0775547" lon="13.1203259"><ele>129.33333333333334</ele><time>2026-05-05T12:46:35.564Z</time></trkpt><trkpt lat="38.0775541" lon="13.120222"><ele>129.0</ele><time>2026-05-05T12:46:36.563Z</time></trkpt><trkpt lat="38.077544" lon="13.1201156"><ele>128.66666666666666</ele><time>2026-05-05T12:46:37.564Z</time></trkpt><trkpt lat="38.0775313" lon="13.120014"><ele>128.33333333333331</ele><time>2026-05-05T12:46:38.564Z</time></trkpt><trkpt lat="38.0775213" lon="13.1199229"><ele>128.0</ele><time>2026-05-05T12:46:39.564Z</time></trkpt><trkpt lat="38.0774837" lon="13.1198031"><ele>128.66666666666666</ele><time>2026-05-05T12:46:41.563Z</time></trkpt><trkpt lat="38.0774169" lon="13.1197693"><ele>129.33333333333331</ele><time>2026-05-05T12:46:43.563Z</time></trkpt><trkpt lat="38.0773219" lon="13.1197837"><ele>130.0</ele><time>2026-05-05T12:46:45.563Z</time></trkpt><trkpt lat="38.0772069" lon="13.11975"><ele>130.66666666666666</ele><time>2026-05-05T12:46:47.563Z</time></trkpt><trkpt lat="38.0771448" lon="13.1197177"><ele>131.33333333333334</ele><time>2026-05-05T12:46:48.564Z</time></trkpt><trkpt lat="38.07708" lon="13.1196809"><ele>132.0</ele><time>2026-05-05T12:46:49.564Z</time></trkpt><trkpt lat="38.0770158" lon="13.1196415"><ele>132.0</ele><time>2026-05-05T12:46:50.565Z</time></trkpt><trkpt lat="38.07695" lon="13.1195957"><ele>132.0</ele><time>2026-05-05T12:46:51.565Z</time></trkpt><trkpt lat="38.0768823" lon="13.1195489"><ele>132.0</ele><time>2026-05-05T12:46:52.564Z</time></trkpt><trkpt lat="38.0768168" lon="13.1195055"><ele>132.0</ele><time>2026-05-05T12:46:53.565Z</time></trkpt><trkpt lat="38.0767519" lon="13.1194613"><ele>132.0</ele><time>2026-05-05T12:46:54.564Z</time></trkpt><trkpt lat="38.0766849" lon="13.1194132"><ele>132.0</ele><time>2026-05-05T12:46:55.564Z</time></trkpt><trkpt lat="38.0766132" lon="13.1193584"><ele>131.5</ele><time>2026-05-05T12:46:56.564Z</time></trkpt><trkpt lat="38.0765359" lon="13.1193029"><ele>131.0</ele><time>2026-05-05T12:46:57.563Z</time></trkpt><trkpt lat="38.076454" lon="13.1192452"><ele>130.5</ele><time>2026-05-05T12:46:58.564Z</time></trkpt><trkpt lat="38.0763733" lon="13.1191871"><ele>130.0</ele><time>2026-05-05T12:46:59.564Z</time></trkpt><trkpt lat="38.0762979" lon="13.1191337"><ele>129.5</ele><time>2026-05-05T12:47:00.564Z</time></trkpt><trkpt lat="38.0762287" lon="13.1190899"><ele>129.0</ele><time>2026-05-05T12:47:01.564Z</time></trkpt><trkpt lat="38.0761374" lon="13.1190298"><ele>128.8</ele><time>2026-05-05T12:47:03.564Z</time></trkpt><trkpt lat="38.0761099" lon="13.1188974"><ele>128.60000000000002</ele><time>2026-05-05T12:47:06.564Z</time></trkpt><trkpt lat="38.0761429" lon="13.1187407"><ele>128.4</ele><time>2026-05-05T12:47:08.564Z</time></trkpt><trkpt lat="38.0761605" lon="13.1185993"><ele>128.20000000000002</ele><time>2026-05-05T12:47:10.564Z</time></trkpt><trkpt lat="38.0761666" lon="13.1184718"><ele>128.0</ele><time>2026-05-05T12:47:12.563Z</time></trkpt><trkpt lat="38.0761683" lon="13.1183367"><ele>127.80000000000001</ele><time>2026-05-05T12:47:14.565Z</time></trkpt><trkpt lat="38.076175" lon="13.1182"><ele>127.60000000000001</ele><time>2026-05-05T12:47:16.565Z</time></trkpt><trkpt lat="38.07619" lon="13.1180667"><ele>127.39999999999999</ele><time>2026-05-05T12:47:18.565Z</time></trkpt><trkpt lat="38.0762183" lon="13.11796"><ele>127.19999999999999</ele><time>2026-05-05T12:47:20.565Z</time></trkpt><trkpt lat="38.0762567" lon="13.1178533"><ele>127.0</ele><time>2026-05-05T12:47:22.564Z</time></trkpt><trkpt lat="38.0763033" lon="13.1177517"><ele>127.0</ele><time>2026-05-05T12:47:24.564Z</time></trkpt><trkpt lat="38.07635" lon="13.1176617"><ele>126.99999999999999</ele><time>2026-05-05T12:47:26.565Z</time></trkpt><trkpt lat="38.0764033" lon="13.1175783"><ele>126.99999999999999</ele><time>2026-05-05T12:47:28.563Z</time></trkpt><trkpt lat="38.0764783" lon="13.1175"><ele>127.0</ele><time>2026-05-05T12:47:30.563Z</time></trkpt><trkpt lat="38.076555" lon="13.11741"><ele>127.0</ele><time>2026-05-05T12:47:32.564Z</time></trkpt><trkpt lat="38.076615" lon="13.1173317"><ele>127.33333333333334</ele><time>2026-05-05T12:47:34.564Z</time></trkpt><trkpt lat="38.076655" lon="13.1172667"><ele>127.66666666666667</ele><time>2026-05-05T12:47:36.565Z</time></trkpt><trkpt lat="38.076695" lon="13.1172017"><ele>128.0</ele><time>2026-05-05T12:47:38.565Z</time></trkpt><trkpt lat="38.076735" lon="13.1171283"><ele>128.33333333333334</ele><time>2026-05-05T12:47:40.564Z</time></trkpt><trkpt lat="38.0767817" lon="13.1170517"><ele>128.66666666666666</ele><time>2026-05-05T12:47:42.564Z</time></trkpt><trkpt lat="38.0768367" lon="13.11696"><ele>129.0</ele><time>2026-05-05T12:47:44.565Z</time></trkpt><trkpt lat="38.0768917" lon="13.116865"><ele>129.0</ele><time>2026-05-05T12:47:46.564Z</time></trkpt><trkpt lat="38.0769417" lon="13.1167783"><ele>129.0</ele><time>2026-05-05T12:47:48.565Z</time></trkpt><trkpt lat="38.076985" lon="13.1166983"><ele>129.0</ele><time>2026-05-05T12:47:50.565Z</time></trkpt><trkpt lat="38.077025" lon="13.11663"><ele>129.0</ele><time>2026-05-05T12:47:52.564Z</time></trkpt><trkpt lat="38.0770833" lon="13.1165317"><ele>129.0</ele><time>2026-05-05T12:47:55.565Z</time></trkpt><trkpt lat="38.0771283" lon="13.1164517"><ele>129.0</ele><time>2026-05-05T12:47:57.564Z</time></trkpt><trkpt lat="38.0771817" lon="13.11637"><ele>129.16666666666666</ele><time>2026-05-05T12:47:59.563Z</time></trkpt><trkpt lat="38.077215" lon="13.1162717"><ele>129.33333333333334</ele><time>2026-05-05T12:48:01.563Z</time></trkpt><trkpt lat="38.07717" lon="13.1161817"><ele>129.5</ele><time>2026-05-05T12:48:03.563Z</time></trkpt><trkpt lat="38.0770633" lon="13.1161083"><ele>129.66666666666669</ele><time>2026-05-05T12:48:05.564Z</time></trkpt><trkpt lat="38.0769917" lon="13.1160717"><ele>129.83333333333334</ele><time>2026-05-05T12:48:06.564Z</time></trkpt><trkpt lat="38.0769183" lon="13.1160333"><ele>130.0</ele><time>2026-05-05T12:48:07.564Z</time></trkpt><trkpt lat="38.076845" lon="13.1159933"><ele>130.0</ele><time>2026-05-05T12:48:08.566Z</time></trkpt><trkpt lat="38.076765" lon="13.1159517"><ele>130.0</ele><time>2026-05-05T12:48:09.563Z</time></trkpt><trkpt lat="38.0766783" lon="13.1159117"><ele>130.0</ele><time>2026-05-05T12:48:10.563Z</time></trkpt><trkpt lat="38.0765867" lon="13.11587"><ele>130.0</ele><time>2026-05-05T12:48:11.564Z</time></trkpt><trkpt lat="38.07649" lon="13.1158217"><ele>130.0</ele><time>2026-05-05T12:48:12.564Z</time></trkpt><trkpt lat="38.07639" lon="13.1157717"><ele>129.4</ele><time>2026-05-05T12:48:13.564Z</time></trkpt><trkpt lat="38.07629" lon="13.1157267"><ele>128.8</ele><time>2026-05-05T12:48:14.564Z</time></trkpt><trkpt lat="38.0762" lon="13.1156817"><ele>128.2</ele><time>2026-05-05T12:48:15.564Z</time></trkpt><trkpt lat="38.076115" lon="13.1156317"><ele>127.6</ele><time>2026-05-05T12:48:16.564Z</time></trkpt><trkpt lat="38.0760317" lon="13.1155867"><ele>127.0</ele><time>2026-05-05T12:48:17.564Z</time></trkpt><trkpt lat="38.0759417" lon="13.1155417"><ele>127.0</ele><time>2026-05-05T12:48:18.564Z</time></trkpt><trkpt lat="38.0758517" lon="13.1154933"><ele>126.99999999999999</ele><time>2026-05-05T12:48:19.564Z</time></trkpt><trkpt lat="38.07576" lon="13.1154467"><ele>126.99999999999999</ele><time>2026-05-05T12:48:20.565Z</time></trkpt><trkpt lat="38.07567" lon="13.1153967"><ele>127.0</ele><time>2026-05-05T12:48:21.564Z</time></trkpt><trkpt lat="38.0755817" lon="13.11535"><ele>127.0</ele><time>2026-05-05T12:48:22.565Z</time></trkpt><trkpt lat="38.0755017" lon="13.1153067"><ele>126.39999999999999</ele><time>2026-05-05T12:48:23.565Z</time></trkpt><trkpt lat="38.0754317" lon="13.11527"><ele>125.79999999999998</ele><time>2026-05-05T12:48:24.564Z</time></trkpt><trkpt lat="38.0753467" lon="13.115215"><ele>125.2</ele><time>2026-05-05T12:48:26.564Z</time></trkpt><trkpt lat="38.0752567" lon="13.1152617"><ele>124.6</ele><time>2026-05-05T12:48:29.564Z</time></trkpt><trkpt lat="38.0751933" lon="13.1153633"><ele>124.0</ele><time>2026-05-05T12:48:31.565Z</time></trkpt><trkpt lat="38.07514" lon="13.1154883"><ele>124.0</ele><time>2026-05-05T12:48:33.564Z</time></trkpt><trkpt lat="38.0751" lon="13.1156067"><ele>124.0</ele><time>2026-05-05T12:48:35.562Z</time></trkpt><trkpt lat="38.0750467" lon="13.1156917"><ele>124.0</ele><time>2026-05-05T12:48:37.563Z</time></trkpt><trkpt lat="38.07497" lon="13.115715"><ele>124.0</ele><time>2026-05-05T12:48:39.565Z</time></trkpt><trkpt lat="38.0748783" lon="13.11567"><ele>124.0</ele><time>2026-05-05T12:48:41.563Z</time></trkpt><trkpt lat="38.0747817" lon="13.115635"><ele>123.4</ele><time>2026-05-05T12:48:43.564Z</time></trkpt><trkpt lat="38.0746967" lon="13.11566"><ele>122.80000000000001</ele><time>2026-05-05T12:48:45.563Z</time></trkpt><trkpt lat="38.0746033" lon="13.1156717"><ele>122.19999999999999</ele><time>2026-05-05T12:48:47.564Z</time></trkpt><trkpt lat="38.0745017" lon="13.1155817"><ele>121.6</ele><time>2026-05-05T12:48:49.564Z</time></trkpt><trkpt lat="38.0744483" lon="13.1155117"><ele>121.0</ele><time>2026-05-05T12:48:50.565Z</time></trkpt><trkpt lat="38.0743867" lon="13.11544"><ele>121.0</ele><time>2026-05-05T12:48:51.565Z</time></trkpt><trkpt lat="38.074315" lon="13.1153767"><ele>121.0</ele><time>2026-05-05T12:48:52.564Z</time></trkpt><trkpt lat="38.074235" lon="13.1153267"><ele>121.0</ele><time>2026-05-05T12:48:53.564Z</time></trkpt><trkpt lat="38.074145" lon="13.1152783"><ele>121.0</ele><time>2026-05-05T12:48:54.565Z</time></trkpt><trkpt lat="38.0740517" lon="13.115245"><ele>121.0</ele><time>2026-05-05T12:48:55.563Z</time></trkpt><trkpt lat="38.0739533" lon="13.1152283"><ele>121.50000000000001</ele><time>2026-05-05T12:48:56.563Z</time></trkpt><trkpt lat="38.0738583" lon="13.11522"><ele>122.0</ele><time>2026-05-05T12:48:57.564Z</time></trkpt><trkpt lat="38.0737683" lon="13.1152083"><ele>122.5</ele><time>2026-05-05T12:48:58.564Z</time></trkpt><trkpt lat="38.07369" lon="13.1151817"><ele>123.0</ele><time>2026-05-05T12:48:59.564Z</time></trkpt><trkpt lat="38.07362" lon="13.115135"><ele>123.50000000000001</ele><time>2026-05-05T12:49:00.563Z</time></trkpt><trkpt lat="38.07355" lon="13.11508"><ele>124.0</ele><time>2026-05-05T12:49:01.564Z</time></trkpt><trkpt lat="38.0734717" lon="13.1150233"><ele>124.0</ele><time>2026-05-05T12:49:02.563Z</time></trkpt><trkpt lat="38.0733883" lon="13.1149667"><ele>124.0</ele><time>2026-05-05T12:49:03.564Z</time></trkpt><trkpt lat="38.0733" lon="13.11491"><ele>124.0</ele><time>2026-05-05T12:49:04.562Z</time></trkpt><trkpt lat="38.0732083" lon="13.1148567"><ele>124.0</ele><time>2026-05-05T12:49:05.563Z</time></trkpt><trkpt lat="38.0731167" lon="13.1148"><ele>124.0</ele><time>2026-05-05T12:49:06.564Z</time></trkpt><trkpt lat="38.073025" lon="13.1147433"><ele>125.2</ele><time>2026-05-05T12:49:07.563Z</time></trkpt><trkpt lat="38.0729383" lon="13.11469"><ele>126.4</ele><time>2026-05-05T12:49:08.564Z</time></trkpt><trkpt lat="38.0728533" lon="13.1146383"><ele>127.6</ele><time>2026-05-05T12:49:09.563Z</time></trkpt><trkpt lat="38.0727667" lon="13.11459"><ele>128.8</ele><time>2026-05-05T12:49:10.565Z</time></trkpt><trkpt lat="38.0726783" lon="13.114535"><ele>130.0</ele><time>2026-05-05T12:49:11.564Z</time></trkpt><trkpt lat="38.0725983" lon="13.1144767"><ele>130.0</ele><time>2026-05-05T12:49:12.564Z</time></trkpt><trkpt lat="38.072515" lon="13.11442"><ele>130.0</ele><time>2026-05-05T12:49:13.564Z</time></trkpt><trkpt lat="38.0724267" lon="13.114365"><ele>130.0</ele><time>2026-05-05T12:49:14.565Z</time></trkpt><trkpt lat="38.07233" lon="13.1143133"><ele>130.0</ele><time>2026-05-05T12:49:15.565Z</time></trkpt><trkpt lat="38.0722267" lon="13.1142667"><ele>130.0</ele><time>2026-05-05T12:49:16.564Z</time></trkpt><trkpt lat="38.072115" lon="13.1142217"><ele>129.75</ele><time>2026-05-05T12:49:17.564Z</time></trkpt><trkpt lat="38.072" lon="13.1141783"><ele>129.5</ele><time>2026-05-05T12:49:18.565Z</time></trkpt><trkpt lat="38.0718817" lon="13.11413"><ele>129.25</ele><time>2026-05-05T12:49:19.565Z</time></trkpt><trkpt lat="38.07177" lon="13.1140817"><ele>129.0</ele><time>2026-05-05T12:49:20.565Z</time></trkpt><trkpt lat="38.07167" lon="13.1140333"><ele>129.16666666666666</ele><time>2026-05-05T12:49:21.564Z</time></trkpt><trkpt lat="38.07159" lon="13.1139817"><ele>129.33333333333334</ele><time>2026-05-05T12:49:22.566Z</time></trkpt><trkpt lat="38.07153" lon="13.113915"><ele>129.5</ele><time>2026-05-05T12:49:23.564Z</time></trkpt><trkpt lat="38.071465" lon="13.1138517"><ele>129.66666666666669</ele><time>2026-05-05T12:49:24.563Z</time></trkpt><trkpt lat="38.0713917" lon="13.1138"><ele>129.83333333333334</ele><time>2026-05-05T12:49:25.564Z</time></trkpt><trkpt lat="38.071305" lon="13.1137617"><ele>130.0</ele><time>2026-05-05T12:49:26.564Z</time></trkpt><trkpt lat="38.071215" lon="13.11372"><ele>130.0</ele><time>2026-05-05T12:49:27.563Z</time></trkpt><trkpt lat="38.0711233" lon="13.113685"><ele>130.0</ele><time>2026-05-05T12:49:28.564Z</time></trkpt><trkpt lat="38.071035" lon="13.1136517"><ele>130.0</ele><time>2026-05-05T12:49:29.564Z</time></trkpt><trkpt lat="38.0709517" lon="13.11362"><ele>130.0</ele><time>2026-05-05T12:49:30.564Z</time></trkpt><trkpt lat="38.0708733" lon="13.1135967"><ele>130.0</ele><time>2026-05-05T12:49:31.564Z</time></trkpt><trkpt lat="38.0708083" lon="13.1135917"><ele>130.0</ele><time>2026-05-05T12:49:32.564Z</time></trkpt><trkpt lat="38.0707117" lon="13.113635"><ele>130.0</ele><time>2026-05-05T12:49:34.565Z</time></trkpt><trkpt lat="38.0706433" lon="13.1137217"><ele>130.0</ele><time>2026-05-05T12:49:36.564Z</time></trkpt><trkpt lat="38.0705617" lon="13.1137133"><ele>130.0</ele><time>2026-05-05T12:49:38.565Z</time></trkpt><trkpt lat="38.0705067" lon="13.1136567"><ele>130.0</ele><time>2026-05-05T12:49:39.564Z</time></trkpt><trkpt lat="38.0704417" lon="13.11359"><ele>130.0</ele><time>2026-05-05T12:49:40.564Z</time></trkpt><trkpt lat="38.0703717" lon="13.11352"><ele>130.0</ele><time>2026-05-05T12:49:41.565Z</time></trkpt><trkpt lat="38.0702967" lon="13.1134467"><ele>130.0</ele><time>2026-05-05T12:49:42.563Z</time></trkpt><trkpt lat="38.0702233" lon="13.1133733"><ele>130.0</ele><time>2026-05-05T12:49:43.563Z</time></trkpt><trkpt lat="38.0701483" lon="13.1133"><ele>130.0</ele><time>2026-05-05T12:49:44.565Z</time></trkpt><trkpt lat="38.07007" lon="13.113225"><ele>130.0</ele><time>2026-05-05T12:49:45.563Z</time></trkpt><trkpt lat="38.0699967" lon="13.1131517"><ele>130.0</ele><time>2026-05-05T12:49:46.564Z</time></trkpt><trkpt lat="38.069925" lon="13.1130817"><ele>131.0</ele><time>2026-05-05T12:49:47.564Z</time></trkpt><trkpt lat="38.069855" lon="13.1130117"><ele>132.0</ele><time>2026-05-05T12:49:48.565Z</time></trkpt><trkpt lat="38.06979" lon="13.1129383"><ele>133.0</ele><time>2026-05-05T12:49:49.564Z</time></trkpt><trkpt lat="38.0697333" lon="13.1128617"><ele>134.0</ele><time>2026-05-05T12:49:50.565Z</time></trkpt><trkpt lat="38.0696767" lon="13.1127867"><ele>135.0</ele><time>2026-05-05T12:49:51.564Z</time></trkpt><trkpt lat="38.0696233" lon="13.1127233"><ele>136.0</ele><time>2026-05-05T12:49:52.564Z</time></trkpt><trkpt lat="38.0695733" lon="13.11263"><ele>136.0</ele><time>2026-05-05T12:49:54.564Z</time></trkpt><trkpt lat="38.0696133" lon="13.112545"><ele>136.0</ele><time>2026-05-05T12:49:56.563Z</time></trkpt><trkpt lat="38.0696717" lon="13.11248"><ele>136.0</ele><time>2026-05-05T12:49:57.564Z</time></trkpt><trkpt lat="38.0697433" lon="13.1123967"><ele>136.0</ele><time>2026-05-05T12:49:58.563Z</time></trkpt><trkpt lat="38.069815" lon="13.112295"><ele>136.0</ele><time>2026-05-05T12:49:59.564Z</time></trkpt><trkpt lat="38.06988" lon="13.1121733"><ele>136.0</ele><time>2026-05-05T12:50:00.564Z</time></trkpt><trkpt lat="38.0699417" lon="13.1120383"><ele>136.0</ele><time>2026-05-05T12:50:01.563Z</time></trkpt><trkpt lat="38.069985" lon="13.111885"><ele>136.0</ele><time>2026-05-05T12:50:02.564Z</time></trkpt><trkpt lat="38.070025" lon="13.1117283"><ele>136.0</ele><time>2026-05-05T12:50:03.564Z</time></trkpt><trkpt lat="38.0700617" lon="13.1115667"><ele>135.25</ele><time>2026-05-05T12:50:04.564Z</time></trkpt><trkpt lat="38.0700983" lon="13.1114"><ele>134.5</ele><time>2026-05-05T12:50:05.565Z</time></trkpt><trkpt lat="38.070135" lon="13.11123"><ele>133.75</ele><time>2026-05-05T12:50:06.564Z</time></trkpt><trkpt lat="38.0701717" lon="13.11106"><ele>133.0</ele><time>2026-05-05T12:50:07.564Z</time></trkpt><trkpt lat="38.0702083" lon="13.1108883"><ele>133.0</ele><time>2026-05-05T12:50:08.565Z</time></trkpt><trkpt lat="38.0702433" lon="13.1107283"><ele>133.0</ele><time>2026-05-05T12:50:09.564Z</time></trkpt><trkpt lat="38.070275" lon="13.1105783"><ele>133.0</ele><time>2026-05-05T12:50:10.563Z</time></trkpt><trkpt lat="38.0703067" lon="13.11044"><ele>133.0</ele><time>2026-05-05T12:50:11.565Z</time></trkpt><trkpt lat="38.070335" lon="13.1103117"><ele>133.0</ele><time>2026-05-05T12:50:12.566Z</time></trkpt><trkpt lat="38.07036" lon="13.1101917"><ele>133.0</ele><time>2026-05-05T12:50:13.563Z</time></trkpt><trkpt lat="38.0703867" lon="13.1100783"><ele>133.0</ele><time>2026-05-05T12:50:14.565Z</time></trkpt><trkpt lat="38.07042" lon="13.1099767"><ele>133.0</ele><time>2026-05-05T12:50:15.564Z</time></trkpt><trkpt lat="38.070465" lon="13.1098833"><ele>133.0</ele><time>2026-05-05T12:50:16.567Z</time></trkpt><trkpt lat="38.0705217" lon="13.1097983"><ele>133.20000000000002</ele><time>2026-05-05T12:50:17.564Z</time></trkpt><trkpt lat="38.0705983" lon="13.1097167"><ele>133.4</ele><time>2026-05-05T12:50:18.564Z</time></trkpt><trkpt lat="38.0706883" lon="13.10965"><ele>133.60000000000002</ele><time>2026-05-05T12:50:19.565Z</time></trkpt><trkpt lat="38.0707883" lon="13.1096133"><ele>133.8</ele><time>2026-05-05T12:50:20.565Z</time></trkpt><trkpt lat="38.0708883" lon="13.109595"><ele>134.0</ele><time>2026-05-05T12:50:21.564Z</time></trkpt><trkpt lat="38.0709983" lon="13.109595"><ele>133.25</ele><time>2026-05-05T12:50:22.565Z</time></trkpt><trkpt lat="38.0711167" lon="13.1096083"><ele>132.5</ele><time>2026-05-05T12:50:23.564Z</time></trkpt><trkpt lat="38.071235" lon="13.1096233"><ele>131.75</ele><time>2026-05-05T12:50:24.564Z</time></trkpt><trkpt lat="38.0713517" lon="13.1096417"><ele>131.0</ele><time>2026-05-05T12:50:25.565Z</time></trkpt><trkpt lat="38.0714633" lon="13.1096633"><ele>131.0</ele><time>2026-05-05T12:50:26.564Z</time></trkpt><trkpt lat="38.0715633" lon="13.1096817"><ele>131.0</ele><time>2026-05-05T12:50:27.563Z</time></trkpt><trkpt lat="38.0716417" lon="13.1097"><ele>131.0</ele><time>2026-05-05T12:50:28.564Z</time></trkpt><trkpt lat="38.0717117" lon="13.1097183"><ele>131.0</ele><time>2026-05-05T12:50:29.565Z</time></trkpt><trkpt lat="38.0718417" lon="13.1097217"><ele>131.0</ele><time>2026-05-05T12:50:31.563Z</time></trkpt><trkpt lat="38.071915" lon="13.1096867"><ele>130.8</ele><time>2026-05-05T12:50:32.563Z</time></trkpt><trkpt lat="38.0719933" lon="13.1096267"><ele>130.6</ele><time>2026-05-05T12:50:33.566Z</time></trkpt><trkpt lat="38.0720717" lon="13.1095417"><ele>130.4</ele><time>2026-05-05T12:50:34.564Z</time></trkpt><trkpt lat="38.072145" lon="13.1094367"><ele>130.2</ele><time>2026-05-05T12:50:35.564Z</time></trkpt><trkpt lat="38.0722133" lon="13.1093117"><ele>130.0</ele><time>2026-05-05T12:50:36.564Z</time></trkpt><trkpt lat="38.0722817" lon="13.109175"><ele>130.0</ele><time>2026-05-05T12:50:37.564Z</time></trkpt><trkpt lat="38.0723483" lon="13.109035"><ele>130.0</ele><time>2026-05-05T12:50:38.564Z</time></trkpt><trkpt lat="38.072415" lon="13.1089133"><ele>130.0</ele><time>2026-05-05T12:50:39.565Z</time></trkpt><trkpt lat="38.0724717" lon="13.1088033"><ele>130.0</ele><time>2026-05-05T12:50:40.563Z</time></trkpt><trkpt lat="38.0725267" lon="13.1086867"><ele>129.75</ele><time>2026-05-05T12:50:41.565Z</time></trkpt><trkpt lat="38.072585" lon="13.1085633"><ele>129.5</ele><time>2026-05-05T12:50:42.563Z</time></trkpt><trkpt lat="38.0726467" lon="13.10844"><ele>129.25</ele><time>2026-05-05T12:50:43.564Z</time></trkpt><trkpt lat="38.0727117" lon="13.1083233"><ele>129.0</ele><time>2026-05-05T12:50:44.565Z</time></trkpt><trkpt lat="38.07278" lon="13.108215"><ele>129.0</ele><time>2026-05-05T12:50:45.564Z</time></trkpt><trkpt lat="38.0728583" lon="13.1081233"><ele>129.0</ele><time>2026-05-05T12:50:46.564Z</time></trkpt><trkpt lat="38.0729317" lon="13.1080533"><ele>129.0</ele><time>2026-05-05T12:50:47.565Z</time></trkpt><trkpt lat="38.07299" lon="13.108"><ele>129.0</ele><time>2026-05-05T12:50:48.566Z</time></trkpt><trkpt lat="38.073065" lon="13.107935"><ele>129.0</ele><time>2026-05-05T12:50:50.565Z</time></trkpt><trkpt lat="38.0731483" lon="13.10796"><ele>129.0</ele><time>2026-05-05T12:50:53.565Z</time></trkpt><trkpt lat="38.0732117" lon="13.1080717"><ele>129.0</ele><time>2026-05-05T12:50:55.564Z</time></trkpt><trkpt lat="38.073245" lon="13.10814"><ele>129.0</ele><time>2026-05-05T12:50:56.565Z</time></trkpt><trkpt lat="38.0732817" lon="13.1082067"><ele>129.0</ele><time>2026-05-05T12:50:57.564Z</time></trkpt><trkpt lat="38.0733167" lon="13.1082767"><ele>129.0</ele><time>2026-05-05T12:50:58.565Z</time></trkpt><trkpt lat="38.07335" lon="13.1083467"><ele>129.0</ele><time>2026-05-05T12:50:59.564Z</time></trkpt><trkpt lat="38.0734117" lon="13.108465"><ele>129.0</ele><time>2026-05-05T12:51:01.564Z</time></trkpt><trkpt lat="38.0734683" lon="13.108555"><ele>128.5</ele><time>2026-05-05T12:51:03.564Z</time></trkpt><trkpt lat="38.0735067" lon="13.1086283"><ele>128.0</ele><time>2026-05-05T12:51:06.564Z</time></trkpt><trkpt lat="38.07358" lon="13.1086183"><ele>127.5</ele><time>2026-05-05T12:51:09.563Z</time></trkpt><trkpt lat="38.0736467" lon="13.1085417"><ele>127.0</ele><time>2026-05-05T12:51:12.564Z</time></trkpt><trkpt lat="38.0736117" lon="13.108445"><ele>126.5</ele><time>2026-05-05T12:51:15.564Z</time></trkpt><trkpt lat="38.0735717" lon="13.108365"><ele>126.0</ele><time>2026-05-05T12:51:18.563Z</time></trkpt><trkpt lat="38.07354" lon="13.108295"><ele>126.0</ele><time>2026-05-05T12:51:21.565Z</time></trkpt></trkseg><trkseg><trkpt lat="38.0734883" lon="13.1081733"><ele>126.0</ele><time>2026-05-05T13:24:59.719Z</time></trkpt><trkpt lat="38.073485" lon="13.10835"><ele>126.0</ele><time>2026-05-05T13:25:22.565Z</time></trkpt><trkpt lat="38.073505" lon="13.10825"><ele>126.0</ele><time>2026-05-05T13:26:32.564Z</time></trkpt><trkpt lat="38.0734883" lon="13.10817"><ele>126.0</ele><time>2026-05-05T13:26:40.562Z</time></trkpt><trkpt lat="38.0734433" lon="13.108085"><ele>126.0</ele><time>2026-05-05T13:27:05.564Z</time></trkpt><trkpt lat="38.073405" lon="13.1079967"><ele>126.0</ele><time>2026-05-05T13:27:08.564Z</time></trkpt><trkpt lat="38.073365" lon="13.1079083"><ele>126.0</ele><time>2026-05-05T13:27:11.563Z</time></trkpt><trkpt lat="38.0733283" lon="13.10782"><ele>126.0</ele><time>2026-05-05T13:27:14.564Z</time></trkpt><trkpt lat="38.0732833" lon="13.1077383"><ele>126.0</ele><time>2026-05-05T13:27:17.564Z</time></trkpt><trkpt lat="38.0732633" lon="13.1076383"><ele>126.0</ele><time>2026-05-05T13:27:20.565Z</time></trkpt><trkpt lat="38.0732983" lon="13.1075317"><ele>126.0</ele><time>2026-05-05T13:27:22.564Z</time></trkpt><trkpt lat="38.073345" lon="13.10747"><ele>126.0</ele><time>2026-05-05T13:27:23.564Z</time></trkpt><trkpt lat="38.0734" lon="13.10741"><ele>125.83333333333333</ele><time>2026-05-05T13:27:24.564Z</time></trkpt><trkpt lat="38.0734517" lon="13.1073483"><ele>125.66666666666666</ele><time>2026-05-05T13:27:25.564Z</time></trkpt><trkpt lat="38.0735067" lon="13.1072767"><ele>125.5</ele><time>2026-05-05T13:27:26.564Z</time></trkpt><trkpt lat="38.073565" lon="13.1072"><ele>125.33333333333333</ele><time>2026-05-05T13:27:27.564Z</time></trkpt><trkpt lat="38.0736217" lon="13.1071283"><ele>125.16666666666666</ele><time>2026-05-05T13:27:28.565Z</time></trkpt><trkpt lat="38.0736783" lon="13.107065"><ele>125.0</ele><time>2026-05-05T13:27:29.564Z</time></trkpt><trkpt lat="38.0737283" lon="13.10701"><ele>124.99999999999999</ele><time>2026-05-05T13:27:30.563Z</time></trkpt><trkpt lat="38.0738083" lon="13.1069117"><ele>125.0</ele><time>2026-05-05T13:27:32.563Z</time></trkpt><trkpt lat="38.0738367" lon="13.1067967"><ele>125.0</ele><time>2026-05-05T13:27:34.563Z</time></trkpt><trkpt lat="38.0738233" lon="13.1067117"><ele>125.0</ele><time>2026-05-05T13:27:35.564Z</time></trkpt><trkpt lat="38.073805" lon="13.1066183"><ele>124.99999999999999</ele><time>2026-05-05T13:27:36.564Z</time></trkpt><trkpt lat="38.0737883" lon="13.1065183"><ele>125.0</ele><time>2026-05-05T13:27:37.565Z</time></trkpt><trkpt lat="38.0737767" lon="13.10641"><ele>124.66666666666666</ele><time>2026-05-05T13:27:38.564Z</time></trkpt><trkpt lat="38.073765" lon="13.106295"><ele>124.33333333333333</ele><time>2026-05-05T13:27:39.563Z</time></trkpt><trkpt lat="38.0737533" lon="13.10618"><ele>124.0</ele><time>2026-05-05T13:27:40.563Z</time></trkpt><trkpt lat="38.07374" lon="13.1060783"><ele>123.66666666666666</ele><time>2026-05-05T13:27:41.564Z</time></trkpt><trkpt lat="38.073725" lon="13.1059767"><ele>123.33333333333333</ele><time>2026-05-05T13:27:42.563Z</time></trkpt><trkpt lat="38.07371" lon="13.105865"><ele>123.0</ele><time>2026-05-05T13:27:43.564Z</time></trkpt><trkpt lat="38.073695" lon="13.105745"><ele>123.0</ele><time>2026-05-05T13:27:44.564Z</time></trkpt><trkpt lat="38.07368" lon="13.1056183"><ele>123.0</ele><time>2026-05-05T13:27:45.564Z</time></trkpt><trkpt lat="38.0736633" lon="13.1054733"><ele>123.0</ele><time>2026-05-05T13:27:46.563Z</time></trkpt><trkpt lat="38.073645" lon="13.105325"><ele>123.0</ele><time>2026-05-05T13:27:47.564Z</time></trkpt><trkpt lat="38.0736217" lon="13.1051733"><ele>123.0</ele><time>2026-05-05T13:27:48.565Z</time></trkpt><trkpt lat="38.0735967" lon="13.1050133"><ele>123.0</ele><time>2026-05-05T13:27:49.564Z</time></trkpt><trkpt lat="38.0735717" lon="13.104845"><ele>123.0</ele><time>2026-05-05T13:27:50.564Z</time></trkpt><trkpt lat="38.073545" lon="13.1046717"><ele>123.0</ele><time>2026-05-05T13:27:51.564Z</time></trkpt><trkpt lat="38.0735167" lon="13.104495"><ele>122.75</ele><time>2026-05-05T13:27:52.563Z</time></trkpt><trkpt lat="38.0734917" lon="13.10431"><ele>122.5</ele><time>2026-05-05T13:27:53.565Z</time></trkpt><trkpt lat="38.073465" lon="13.1041233"><ele>122.25</ele><time>2026-05-05T13:27:54.563Z</time></trkpt><trkpt lat="38.0734383" lon="13.1039333"><ele>122.0</ele><time>2026-05-05T13:27:55.564Z</time></trkpt><trkpt lat="38.0734117" lon="13.10374"><ele>121.75</ele><time>2026-05-05T13:27:56.563Z</time></trkpt><trkpt lat="38.0733867" lon="13.103545"><ele>121.5</ele><time>2026-05-05T13:27:57.564Z</time></trkpt><trkpt lat="38.07336" lon="13.1033617"><ele>121.25</ele><time>2026-05-05T13:27:58.564Z</time></trkpt><trkpt lat="38.073335" lon="13.1031867"><ele>121.0</ele><time>2026-05-05T13:27:59.564Z</time></trkpt><trkpt lat="38.0733133" lon="13.1030217"><ele>120.25</ele><time>2026-05-05T13:28:00.563Z</time></trkpt><trkpt lat="38.0732933" lon="13.1028667"><ele>119.5</ele><time>2026-05-05T13:28:01.564Z</time></trkpt><trkpt lat="38.0732833" lon="13.10272"><ele>118.75</ele><time>2026-05-05T13:28:02.564Z</time></trkpt><trkpt lat="38.07329" lon="13.1025783"><ele>118.0</ele><time>2026-05-05T13:28:03.563Z</time></trkpt><trkpt lat="38.0733167" lon="13.10245"><ele>117.75</ele><time>2026-05-05T13:28:04.564Z</time></trkpt><trkpt lat="38.0733683" lon="13.1023267"><ele>117.5</ele><time>2026-05-05T13:28:05.564Z</time></trkpt><trkpt lat="38.0734333" lon="13.1021983"><ele>117.25</ele><time>2026-05-05T13:28:06.563Z</time></trkpt><trkpt lat="38.0735067" lon="13.1020683"><ele>117.0</ele><time>2026-05-05T13:28:07.564Z</time></trkpt><trkpt lat="38.0735817" lon="13.1019267"><ele>117.0</ele><time>2026-05-05T13:28:08.565Z</time></trkpt><trkpt lat="38.07366" lon="13.1017783"><ele>117.0</ele><time>2026-05-05T13:28:09.565Z</time></trkpt><trkpt lat="38.073735" lon="13.101625"><ele>117.0</ele><time>2026-05-05T13:28:10.565Z</time></trkpt><trkpt lat="38.0738017" lon="13.1014617"><ele>117.0</ele><time>2026-05-05T13:28:11.563Z</time></trkpt><trkpt lat="38.0738567" lon="13.101295"><ele>116.75</ele><time>2026-05-05T13:28:12.563Z</time></trkpt><trkpt lat="38.0739017" lon="13.101135"><ele>116.5</ele><time>2026-05-05T13:28:13.564Z</time></trkpt><trkpt lat="38.0739517" lon="13.100985"><ele>116.25</ele><time>2026-05-05T13:28:14.564Z</time></trkpt><trkpt lat="38.0740133" lon="13.1008533"><ele>116.0</ele><time>2026-05-05T13:28:15.564Z</time></trkpt><trkpt lat="38.07409" lon="13.1007483"><ele>115.5</ele><time>2026-05-05T13:28:16.564Z</time></trkpt><trkpt lat="38.074185" lon="13.100655"><ele>115.0</ele><time>2026-05-05T13:28:17.564Z</time></trkpt><trkpt lat="38.074285" lon="13.10056"><ele>114.5</ele><time>2026-05-05T13:28:18.565Z</time></trkpt><trkpt lat="38.07439" lon="13.1004583"><ele>114.0</ele><time>2026-05-05T13:28:19.565Z</time></trkpt><trkpt lat="38.0744967" lon="13.1003583"><ele>114.0</ele><time>2026-05-05T13:28:20.564Z</time></trkpt><trkpt lat="38.0746067" lon="13.1002733"><ele>114.0</ele><time>2026-05-05T13:28:21.564Z</time></trkpt><trkpt lat="38.0747183" lon="13.10021"><ele>114.0</ele><time>2026-05-05T13:28:22.564Z</time></trkpt><trkpt lat="38.074825" lon="13.1001533"><ele>114.0</ele><time>2026-05-05T13:28:23.565Z</time></trkpt><trkpt lat="38.07492" lon="13.1000817"><ele>113.75</ele><time>2026-05-05T13:28:24.564Z</time></trkpt><trkpt lat="38.0750033" lon="13.099985"><ele>113.5</ele><time>2026-05-05T13:28:25.565Z</time></trkpt><trkpt lat="38.0750783" lon="13.0998633"><ele>113.25</ele><time>2026-05-05T13:28:26.564Z</time></trkpt><trkpt lat="38.0751367" lon="13.099725"><ele>113.0</ele><time>2026-05-05T13:28:27.564Z</time></trkpt><trkpt lat="38.0751883" lon="13.09957"><ele>112.5</ele><time>2026-05-05T13:28:28.563Z</time></trkpt><trkpt lat="38.0752367" lon="13.099405"><ele>112.0</ele><time>2026-05-05T13:28:29.564Z</time></trkpt><trkpt lat="38.0752867" lon="13.09924"><ele>111.5</ele><time>2026-05-05T13:28:30.563Z</time></trkpt><trkpt lat="38.0753417" lon="13.0990917"><ele>111.0</ele><time>2026-05-05T13:28:31.564Z</time></trkpt><trkpt lat="38.0754067" lon="13.0989583"><ele>111.0</ele><time>2026-05-05T13:28:32.565Z</time></trkpt><trkpt lat="38.075485" lon="13.09884"><ele>111.0</ele><time>2026-05-05T13:28:33.564Z</time></trkpt><trkpt lat="38.075575" lon="13.0987233"><ele>111.0</ele><time>2026-05-05T13:28:34.564Z</time></trkpt><trkpt lat="38.0756667" lon="13.0985983"><ele>111.0</ele><time>2026-05-05T13:28:35.566Z</time></trkpt><trkpt lat="38.0757517" lon="13.098465"><ele>110.75</ele><time>2026-05-05T13:28:36.564Z</time></trkpt><trkpt lat="38.0758217" lon="13.0983217"><ele>110.5</ele><time>2026-05-05T13:28:37.563Z</time></trkpt><trkpt lat="38.07588" lon="13.098175"><ele>110.25</ele><time>2026-05-05T13:28:38.564Z</time></trkpt><trkpt lat="38.075935" lon="13.098035"><ele>110.0</ele><time>2026-05-05T13:28:39.565Z</time></trkpt><trkpt lat="38.0759983" lon="13.097905"><ele>110.0</ele><time>2026-05-05T13:28:40.564Z</time></trkpt><trkpt lat="38.0760767" lon="13.0977967"><ele>110.0</ele><time>2026-05-05T13:28:41.564Z</time></trkpt><trkpt lat="38.0761717" lon="13.0976917"><ele>110.0</ele><time>2026-05-05T13:28:42.565Z</time></trkpt><trkpt lat="38.076275" lon="13.0975917"><ele>110.0</ele><time>2026-05-05T13:28:43.564Z</time></trkpt><trkpt lat="38.076385" lon="13.0974917"><ele>110.0</ele><time>2026-05-05T13:28:44.567Z</time></trkpt><trkpt lat="38.0764967" lon="13.0973867"><ele>110.0</ele><time>2026-05-05T13:28:45.564Z</time></trkpt><trkpt lat="38.0766067" lon="13.0972817"><ele>110.0</ele><time>2026-05-05T13:28:46.564Z</time></trkpt><trkpt lat="38.07671" lon="13.0971817"><ele>110.0</ele><time>2026-05-05T13:28:47.566Z</time></trkpt><trkpt lat="38.0768083" lon="13.0970917"><ele>110.0</ele><time>2026-05-05T13:28:48.564Z</time></trkpt><trkpt lat="38.0768983" lon="13.0970033"><ele>110.0</ele><time>2026-05-05T13:28:49.565Z</time></trkpt><trkpt lat="38.0769833" lon="13.0969133"><ele>110.0</ele><time>2026-05-05T13:28:50.565Z</time></trkpt><trkpt lat="38.0770533" lon="13.0968183"><ele>110.0</ele><time>2026-05-05T13:28:51.564Z</time></trkpt><trkpt lat="38.077105" lon="13.096715"><ele>110.0</ele><time>2026-05-05T13:28:52.564Z</time></trkpt><trkpt lat="38.0771317" lon="13.0966067"><ele>109.6</ele><time>2026-05-05T13:28:53.565Z</time></trkpt><trkpt lat="38.0771433" lon="13.0964933"><ele>109.2</ele><time>2026-05-05T13:28:54.563Z</time></trkpt><trkpt lat="38.077115" lon="13.096375"><ele>108.80000000000001</ele><time>2026-05-05T13:28:55.564Z</time></trkpt><trkpt lat="38.0770617" lon="13.096265"><ele>108.4</ele><time>2026-05-05T13:28:56.565Z</time></trkpt><trkpt lat="38.0769883" lon="13.0961583"><ele>108.0</ele><time>2026-05-05T13:28:57.564Z</time></trkpt><trkpt lat="38.0769017" lon="13.09605"><ele>108.0</ele><time>2026-05-05T13:28:58.564Z</time></trkpt><trkpt lat="38.0768083" lon="13.0959333"><ele>108.0</ele><time>2026-05-05T13:28:59.565Z</time></trkpt><trkpt lat="38.0767117" lon="13.0958117"><ele>108.0</ele><time>2026-05-05T13:29:00.564Z</time></trkpt><trkpt lat="38.0766133" lon="13.0956917"><ele>108.0</ele><time>2026-05-05T13:29:01.565Z</time></trkpt><trkpt lat="38.076515" lon="13.0955683"><ele>108.75</ele><time>2026-05-05T13:29:02.565Z</time></trkpt><trkpt lat="38.0764167" lon="13.095445"><ele>109.5</ele><time>2026-05-05T13:29:03.564Z</time></trkpt><trkpt lat="38.0763117" lon="13.0953233"><ele>110.25</ele><time>2026-05-05T13:29:04.564Z</time></trkpt><trkpt lat="38.0762033" lon="13.095205"><ele>111.0</ele><time>2026-05-05T13:29:05.563Z</time></trkpt><trkpt lat="38.076095" lon="13.0950933"><ele>111.0</ele><time>2026-05-05T13:29:06.564Z</time></trkpt><trkpt lat="38.0759917" lon="13.0949867"><ele>111.0</ele><time>2026-05-05T13:29:07.565Z</time></trkpt><trkpt lat="38.0758967" lon="13.09489"><ele>111.0</ele><time>2026-05-05T13:29:08.564Z</time></trkpt><trkpt lat="38.0758017" lon="13.0948133"><ele>111.0</ele><time>2026-05-05T13:29:09.564Z</time></trkpt><trkpt lat="38.0757017" lon="13.0947667"><ele>111.0</ele><time>2026-05-05T13:29:10.564Z</time></trkpt><trkpt lat="38.0756067" lon="13.0947533"><ele>111.0</ele><time>2026-05-05T13:29:11.564Z</time></trkpt><trkpt lat="38.075515" lon="13.0947717"><ele>111.0</ele><time>2026-05-05T13:29:12.563Z</time></trkpt><trkpt lat="38.0754233" lon="13.0947867"><ele>111.0</ele><time>2026-05-05T13:29:13.566Z</time></trkpt><trkpt lat="38.0753283" lon="13.0947833"><ele>111.0</ele><time>2026-05-05T13:29:14.564Z</time></trkpt><trkpt lat="38.07524" lon="13.0947633"><ele>111.0</ele><time>2026-05-05T13:29:15.564Z</time></trkpt><trkpt lat="38.0751633" lon="13.0947317"><ele>111.0</ele><time>2026-05-05T13:29:16.564Z</time></trkpt><trkpt lat="38.0750867" lon="13.0946883"><ele>111.0</ele><time>2026-05-05T13:29:17.563Z</time></trkpt><trkpt lat="38.07501" lon="13.094635"><ele>111.0</ele><time>2026-05-05T13:29:18.564Z</time></trkpt><trkpt lat="38.074925" lon="13.0945717"><ele>111.0</ele><time>2026-05-05T13:29:19.563Z</time></trkpt><trkpt lat="38.074835" lon="13.094505"><ele>111.25</ele><time>2026-05-05T13:29:20.564Z</time></trkpt><trkpt lat="38.0747433" lon="13.0944367"><ele>111.5</ele><time>2026-05-05T13:29:21.566Z</time></trkpt><trkpt lat="38.0746433" lon="13.094365"><ele>111.75</ele><time>2026-05-05T13:29:22.564Z</time></trkpt><trkpt lat="38.074535" lon="13.0943083"><ele>112.0</ele><time>2026-05-05T13:29:23.564Z</time></trkpt><trkpt lat="38.07442" lon="13.094265"><ele>112.0</ele><time>2026-05-05T13:29:24.563Z</time></trkpt><trkpt lat="38.0743017" lon="13.094225"><ele>112.0</ele><time>2026-05-05T13:29:25.564Z</time></trkpt><trkpt lat="38.0741833" lon="13.0941783"><ele>112.0</ele><time>2026-05-05T13:29:26.565Z</time></trkpt><trkpt lat="38.0740633" lon="13.0941183"><ele>112.0</ele><time>2026-05-05T13:29:27.564Z</time></trkpt><trkpt lat="38.07395" lon="13.0940433"><ele>111.75</ele><time>2026-05-05T13:29:28.564Z</time></trkpt><trkpt lat="38.07384" lon="13.0939533"><ele>111.5</ele><time>2026-05-05T13:29:29.564Z</time></trkpt><trkpt lat="38.0737383" lon="13.093855"><ele>111.25</ele><time>2026-05-05T13:29:30.564Z</time></trkpt><trkpt lat="38.073645" lon="13.093765"><ele>111.0</ele><time>2026-05-05T13:29:31.564Z</time></trkpt><trkpt lat="38.07356" lon="13.0936967"><ele>111.0</ele><time>2026-05-05T13:29:32.564Z</time></trkpt><trkpt lat="38.0734783" lon="13.0936533"><ele>111.0</ele><time>2026-05-05T13:29:33.564Z</time></trkpt><trkpt lat="38.0733967" lon="13.0936433"><ele>111.0</ele><time>2026-05-05T13:29:34.564Z</time></trkpt><trkpt lat="38.073315" lon="13.093665"><ele>111.0</ele><time>2026-05-05T13:29:35.564Z</time></trkpt><trkpt lat="38.07324" lon="13.093715"><ele>111.0</ele><time>2026-05-05T13:29:36.563Z</time></trkpt><trkpt lat="38.0731817" lon="13.0937667"><ele>111.0</ele><time>2026-05-05T13:29:37.565Z</time></trkpt><trkpt lat="38.073065" lon="13.0937983"><ele>111.19999999999999</ele><time>2026-05-05T13:29:39.564Z</time></trkpt><trkpt lat="38.0730017" lon="13.093765"><ele>111.39999999999999</ele><time>2026-05-05T13:29:40.564Z</time></trkpt><trkpt lat="38.0729233" lon="13.09367"><ele>111.6</ele><time>2026-05-05T13:29:41.564Z</time></trkpt><trkpt lat="38.0728383" lon="13.093575"><ele>111.8</ele><time>2026-05-05T13:29:42.564Z</time></trkpt><trkpt lat="38.0727517" lon="13.0934717"><ele>112.0</ele><time>2026-05-05T13:29:43.564Z</time></trkpt><trkpt lat="38.0726617" lon="13.09337"><ele>112.0</ele><time>2026-05-05T13:29:44.564Z</time></trkpt><trkpt lat="38.07257" lon="13.0932683"><ele>112.0</ele><time>2026-05-05T13:29:45.564Z</time></trkpt><trkpt lat="38.072475" lon="13.0931683"><ele>112.0</ele><time>2026-05-05T13:29:46.564Z</time></trkpt><trkpt lat="38.0723817" lon="13.0930667"><ele>112.0</ele><time>2026-05-05T13:29:47.564Z</time></trkpt><trkpt lat="38.07229" lon="13.0929667"><ele>112.0</ele><time>2026-05-05T13:29:48.564Z</time></trkpt><trkpt lat="38.0722" lon="13.0928717"><ele>111.99999999999999</ele><time>2026-05-05T13:29:49.563Z</time></trkpt><trkpt lat="38.0721217" lon="13.0927867"><ele>111.99999999999999</ele><time>2026-05-05T13:29:50.563Z</time></trkpt><trkpt lat="38.0720583" lon="13.0927183"><ele>112.0</ele><time>2026-05-05T13:29:51.564Z</time></trkpt><trkpt lat="38.071985" lon="13.09264"><ele>112.0</ele><time>2026-05-05T13:29:53.565Z</time></trkpt><trkpt lat="38.071925" lon="13.0925783"><ele>112.00000000000001</ele><time>2026-05-05T13:29:56.564Z</time></trkpt><trkpt lat="38.0719233" lon="13.0924633"><ele>112.0</ele><time>2026-05-05T13:29:59.563Z</time></trkpt><trkpt lat="38.0719583" lon="13.0923933"><ele>112.0</ele><time>2026-05-05T13:30:00.564Z</time></trkpt><trkpt lat="38.0720333" lon="13.0923417"><ele>112.0</ele><time>2026-05-05T13:30:01.563Z</time></trkpt><trkpt lat="38.0721117" lon="13.09231"><ele>112.00000000000001</ele><time>2026-05-05T13:30:02.564Z</time></trkpt><trkpt lat="38.0722" lon="13.0923183"><ele>112.0</ele><time>2026-05-05T13:30:03.564Z</time></trkpt><trkpt lat="38.072285" lon="13.0923533"><ele>111.75</ele><time>2026-05-05T13:30:04.564Z</time></trkpt><trkpt lat="38.0723767" lon="13.0924167"><ele>111.5</ele><time>2026-05-05T13:30:05.564Z</time></trkpt><trkpt lat="38.0724783" lon="13.0924917"><ele>111.25</ele><time>2026-05-05T13:30:06.565Z</time></trkpt><trkpt lat="38.0725933" lon="13.092555"><ele>111.0</ele><time>2026-05-05T13:30:07.565Z</time></trkpt><trkpt lat="38.072725" lon="13.092605"><ele>110.75</ele><time>2026-05-05T13:30:08.565Z</time></trkpt><trkpt lat="38.0728683" lon="13.092635"><ele>110.5</ele><time>2026-05-05T13:30:09.564Z</time></trkpt><trkpt lat="38.073015" lon="13.092635"><ele>110.25</ele><time>2026-05-05T13:30:10.564Z</time></trkpt><trkpt lat="38.0731567" lon="13.0926083"><ele>110.0</ele><time>2026-05-05T13:30:11.564Z</time></trkpt><trkpt lat="38.0732867" lon="13.0925483"><ele>109.75</ele><time>2026-05-05T13:30:12.564Z</time></trkpt><trkpt lat="38.0734017" lon="13.0924633"><ele>109.5</ele><time>2026-05-05T13:30:13.565Z</time></trkpt><trkpt lat="38.07351" lon="13.0923517"><ele>109.25</ele><time>2026-05-05T13:30:14.564Z</time></trkpt><trkpt lat="38.0736117" lon="13.0922183"><ele>109.0</ele><time>2026-05-05T13:30:15.564Z</time></trkpt><trkpt lat="38.0737083" lon="13.0920683"><ele>109.0</ele><time>2026-05-05T13:30:16.564Z</time></trkpt><trkpt lat="38.073805" lon="13.0919067"><ele>109.0</ele><time>2026-05-05T13:30:17.563Z</time></trkpt><trkpt lat="38.0739033" lon="13.0917367"><ele>109.0</ele><time>2026-05-05T13:30:18.564Z</time></trkpt><trkpt lat="38.0740033" lon="13.09156"><ele>109.0</ele><time>2026-05-05T13:30:19.563Z</time></trkpt><trkpt lat="38.0741083" lon="13.0913817"><ele>109.0</ele><time>2026-05-05T13:30:20.564Z</time></trkpt><trkpt lat="38.074215" lon="13.0912"><ele>109.0</ele><time>2026-05-05T13:30:21.564Z</time></trkpt><trkpt lat="38.07432" lon="13.0910183"><ele>109.0</ele><time>2026-05-05T13:30:22.564Z</time></trkpt><trkpt lat="38.0744267" lon="13.0908417"><ele>109.0</ele><time>2026-05-05T13:30:23.564Z</time></trkpt><trkpt lat="38.0745283" lon="13.09067"><ele>109.0</ele><time>2026-05-05T13:30:24.564Z</time></trkpt><trkpt lat="38.074625" lon="13.0905167"><ele>109.25</ele><time>2026-05-05T13:30:25.565Z</time></trkpt><trkpt lat="38.0747183" lon="13.0903717"><ele>109.5</ele><time>2026-05-05T13:30:26.564Z</time></trkpt><trkpt lat="38.074805" lon="13.0902467"><ele>109.75</ele><time>2026-05-05T13:30:27.564Z</time></trkpt><trkpt lat="38.0748967" lon="13.0901517"><ele>110.0</ele><time>2026-05-05T13:30:28.564Z</time></trkpt><trkpt lat="38.075" lon="13.0900867"><ele>109.25</ele><time>2026-05-05T13:30:29.564Z</time></trkpt><trkpt lat="38.075105" lon="13.090065"><ele>108.5</ele><time>2026-05-05T13:30:30.564Z</time></trkpt><trkpt lat="38.075215" lon="13.0900783"><ele>107.75</ele><time>2026-05-05T13:30:31.565Z</time></trkpt><trkpt lat="38.075325" lon="13.0901367"><ele>107.0</ele><time>2026-05-05T13:30:32.565Z</time></trkpt><trkpt lat="38.0754267" lon="13.0902217"><ele>107.0</ele><time>2026-05-05T13:30:33.563Z</time></trkpt><trkpt lat="38.0755033" lon="13.0903317"><ele>106.99999999999999</ele><time>2026-05-05T13:30:34.563Z</time></trkpt><trkpt lat="38.0755433" lon="13.090455"><ele>106.99999999999999</ele><time>2026-05-05T13:30:35.564Z</time></trkpt><trkpt lat="38.07556" lon="13.09059"><ele>107.0</ele><time>2026-05-05T13:30:36.564Z</time></trkpt><trkpt lat="38.075545" lon="13.09073"><ele>107.0</ele><time>2026-05-05T13:30:37.565Z</time></trkpt><trkpt lat="38.07551" lon="13.09086"><ele>107.19999999999999</ele><time>2026-05-05T13:30:38.564Z</time></trkpt><trkpt lat="38.07545" lon="13.090975"><ele>107.39999999999999</ele><time>2026-05-05T13:30:39.563Z</time></trkpt><trkpt lat="38.0753733" lon="13.091065"><ele>107.60000000000001</ele><time>2026-05-05T13:30:40.564Z</time></trkpt><trkpt lat="38.0752817" lon="13.0911267"><ele>107.80000000000001</ele><time>2026-05-05T13:30:41.564Z</time></trkpt><trkpt lat="38.0751767" lon="13.091155"><ele>108.0</ele><time>2026-05-05T13:30:42.564Z</time></trkpt><trkpt lat="38.0750617" lon="13.09115"><ele>108.0</ele><time>2026-05-05T13:30:43.563Z</time></trkpt><trkpt lat="38.0749433" lon="13.0911067"><ele>108.0</ele><time>2026-05-05T13:30:44.564Z</time></trkpt><trkpt lat="38.0748317" lon="13.0910283"><ele>108.0</ele><time>2026-05-05T13:30:45.565Z</time></trkpt><trkpt lat="38.074725" lon="13.0909283"><ele>108.0</ele><time>2026-05-05T13:30:46.567Z</time></trkpt><trkpt lat="38.0746117" lon="13.0908117"><ele>108.66666666666666</ele><time>2026-05-05T13:30:47.564Z</time></trkpt><trkpt lat="38.074495" lon="13.0906867"><ele>109.33333333333333</ele><time>2026-05-05T13:30:48.564Z</time></trkpt><trkpt lat="38.07437" lon="13.0905533"><ele>110.0</ele><time>2026-05-05T13:30:49.562Z</time></trkpt><trkpt lat="38.0742367" lon="13.0904217"><ele>110.33333333333333</ele><time>2026-05-05T13:30:50.564Z</time></trkpt><trkpt lat="38.0740983" lon="13.090285"><ele>110.66666666666666</ele><time>2026-05-05T13:30:51.564Z</time></trkpt><trkpt lat="38.073955" lon="13.09014"><ele>111.0</ele><time>2026-05-05T13:30:52.564Z</time></trkpt><trkpt lat="38.0738" lon="13.089985"><ele>110.66666666666666</ele><time>2026-05-05T13:30:53.564Z</time></trkpt><trkpt lat="38.0736367" lon="13.08982"><ele>110.33333333333333</ele><time>2026-05-05T13:30:54.563Z</time></trkpt><trkpt lat="38.0734683" lon="13.0896467"><ele>110.0</ele><time>2026-05-05T13:30:55.564Z</time></trkpt><trkpt lat="38.0732967" lon="13.089465"><ele>110.0</ele><time>2026-05-05T13:30:56.563Z</time></trkpt><trkpt lat="38.073125" lon="13.089285"><ele>110.0</ele><time>2026-05-05T13:30:57.563Z</time></trkpt><trkpt lat="38.0729567" lon="13.0891083"><ele>110.0</ele><time>2026-05-05T13:30:58.563Z</time></trkpt><trkpt lat="38.0727883" lon="13.0889317"><ele>109.66666666666666</ele><time>2026-05-05T13:30:59.563Z</time></trkpt><trkpt lat="38.0726233" lon="13.0887567"><ele>109.33333333333334</ele><time>2026-05-05T13:31:00.565Z</time></trkpt><trkpt lat="38.0724583" lon="13.0885833"><ele>109.0</ele><time>2026-05-05T13:31:01.565Z</time></trkpt><trkpt lat="38.0722933" lon="13.08841"><ele>109.33333333333334</ele><time>2026-05-05T13:31:02.564Z</time></trkpt><trkpt lat="38.0721283" lon="13.0882367"><ele>109.66666666666666</ele><time>2026-05-05T13:31:03.564Z</time></trkpt><trkpt lat="38.071965" lon="13.088065"><ele>110.0</ele><time>2026-05-05T13:31:04.564Z</time></trkpt><trkpt lat="38.0718017" lon="13.0878917"><ele>110.0</ele><time>2026-05-05T13:31:05.564Z</time></trkpt><trkpt lat="38.07164" lon="13.0877217"><ele>110.0</ele><time>2026-05-05T13:31:06.564Z</time></trkpt><trkpt lat="38.0714783" lon="13.0875533"><ele>110.0</ele><time>2026-05-05T13:31:07.565Z</time></trkpt><trkpt lat="38.0713167" lon="13.0873833"><ele>110.33333333333333</ele><time>2026-05-05T13:31:08.564Z</time></trkpt><trkpt lat="38.0711533" lon="13.0872133"><ele>110.66666666666666</ele><time>2026-05-05T13:31:09.564Z</time></trkpt><trkpt lat="38.07099" lon="13.0870417"><ele>111.0</ele><time>2026-05-05T13:31:10.563Z</time></trkpt><trkpt lat="38.070825" lon="13.08687"><ele>111.0</ele><time>2026-05-05T13:31:11.564Z</time></trkpt><trkpt lat="38.0706583" lon="13.0867"><ele>111.0</ele><time>2026-05-05T13:31:12.564Z</time></trkpt><trkpt lat="38.07049" lon="13.08653"><ele>111.0</ele><time>2026-05-05T13:31:13.564Z</time></trkpt><trkpt lat="38.0703217" lon="13.08636"><ele>111.0</ele><time>2026-05-05T13:31:14.563Z</time></trkpt><trkpt lat="38.0701533" lon="13.0861883"><ele>111.0</ele><time>2026-05-05T13:31:15.563Z</time></trkpt><trkpt lat="38.0699833" lon="13.08602"><ele>111.0</ele><time>2026-05-05T13:31:16.563Z</time></trkpt><trkpt lat="38.0698117" lon="13.0858517"><ele>110.66666666666666</ele><time>2026-05-05T13:31:17.564Z</time></trkpt><trkpt lat="38.0696367" lon="13.0856833"><ele>110.33333333333333</ele><time>2026-05-05T13:31:18.563Z</time></trkpt><trkpt lat="38.0694633" lon="13.0855167"><ele>110.0</ele><time>2026-05-05T13:31:19.564Z</time></trkpt><trkpt lat="38.0692867" lon="13.08535"><ele>110.0</ele><time>2026-05-05T13:31:20.564Z</time></trkpt><trkpt lat="38.06911" lon="13.08518"><ele>110.0</ele><time>2026-05-05T13:31:21.565Z</time></trkpt><trkpt lat="38.06893" lon="13.0850117"><ele>110.0</ele><time>2026-05-05T13:31:22.564Z</time></trkpt><trkpt lat="38.0687517" lon="13.0848433"><ele>110.33333333333333</ele><time>2026-05-05T13:31:23.564Z</time></trkpt><trkpt lat="38.0685717" lon="13.0846783"><ele>110.66666666666666</ele><time>2026-05-05T13:31:24.564Z</time></trkpt><trkpt lat="38.0683917" lon="13.0845117"><ele>111.0</ele><time>2026-05-05T13:31:25.564Z</time></trkpt><trkpt lat="38.0682083" lon="13.0843467"><ele>111.0</ele><time>2026-05-05T13:31:26.564Z</time></trkpt><trkpt lat="38.0680233" lon="13.0841833"><ele>111.0</ele><time>2026-05-05T13:31:27.563Z</time></trkpt><trkpt lat="38.0678383" lon="13.08402"><ele>109.0</ele><time>2026-05-05T13:31:28.563Z</time></trkpt><trkpt lat="38.0676517" lon="13.083855"><ele>107.0</ele><time>2026-05-05T13:31:29.565Z</time></trkpt><trkpt lat="38.067465" lon="13.083695"><ele>110.0</ele><time>2026-05-05T13:31:30.564Z</time></trkpt><trkpt lat="38.0672767" lon="13.0835367"><ele>113.0</ele><time>2026-05-05T13:31:31.564Z</time></trkpt><trkpt lat="38.0670867" lon="13.08338"><ele>112.0</ele><time>2026-05-05T13:31:32.565Z</time></trkpt><trkpt lat="38.0668967" lon="13.08322"><ele>111.0</ele><time>2026-05-05T13:31:33.565Z</time></trkpt><trkpt lat="38.0667083" lon="13.0830633"><ele>111.5</ele><time>2026-05-05T13:31:34.565Z</time></trkpt><trkpt lat="38.06652" lon="13.0829017"><ele>112.0</ele><time>2026-05-05T13:31:35.565Z</time></trkpt><trkpt lat="38.06633" lon="13.082745"><ele>112.0</ele><time>2026-05-05T13:31:36.564Z</time></trkpt><trkpt lat="38.06614" lon="13.08259"><ele>112.0</ele><time>2026-05-05T13:31:37.565Z</time></trkpt><trkpt lat="38.0659483" lon="13.082435"><ele>112.5</ele><time>2026-05-05T13:31:38.564Z</time></trkpt><trkpt lat="38.0657567" lon="13.08228"><ele>113.0</ele><time>2026-05-05T13:31:39.564Z</time></trkpt><trkpt lat="38.0655667" lon="13.0821267"><ele>113.0</ele><time>2026-05-05T13:31:40.565Z</time></trkpt><trkpt lat="38.0653767" lon="13.081975"><ele>113.0</ele><time>2026-05-05T13:31:41.564Z</time></trkpt><trkpt lat="38.0651883" lon="13.0818283"><ele>113.0</ele><time>2026-05-05T13:31:42.564Z</time></trkpt><trkpt lat="38.0650033" lon="13.0816817"><ele>111.33333333333333</ele><time>2026-05-05T13:31:43.565Z</time></trkpt><trkpt lat="38.06482" lon="13.081535"><ele>109.66666666666666</ele><time>2026-05-05T13:31:44.565Z</time></trkpt><trkpt lat="38.0646333" lon="13.0813967"><ele>108.0</ele><time>2026-05-05T13:31:45.565Z</time></trkpt><trkpt lat="38.06445" lon="13.0812533"><ele>108.0</ele><time>2026-05-05T13:31:46.565Z</time></trkpt><trkpt lat="38.06427" lon="13.0811117"><ele>108.0</ele><time>2026-05-05T13:31:47.565Z</time></trkpt><trkpt lat="38.064085" lon="13.08097"><ele>108.0</ele><time>2026-05-05T13:31:48.564Z</time></trkpt><trkpt lat="38.0639017" lon="13.0808283"><ele>108.0</ele><time>2026-05-05T13:31:49.564Z</time></trkpt><trkpt lat="38.0637183" lon="13.080685"><ele>108.0</ele><time>2026-05-05T13:31:50.565Z</time></trkpt><trkpt lat="38.0635367" lon="13.0805417"><ele>108.0</ele><time>2026-05-05T13:31:51.564Z</time></trkpt><trkpt lat="38.0633533" lon="13.0803983"><ele>110.0</ele><time>2026-05-05T13:31:52.563Z</time></trkpt><trkpt lat="38.0631717" lon="13.0802567"><ele>112.0</ele><time>2026-05-05T13:31:53.565Z</time></trkpt><trkpt lat="38.0629867" lon="13.0801117"><ele>114.0</ele><time>2026-05-05T13:31:54.563Z</time></trkpt><trkpt lat="38.0628033" lon="13.0799667"><ele>114.0</ele><time>2026-05-05T13:31:55.564Z</time></trkpt><trkpt lat="38.06262" lon="13.0798233"><ele>114.0</ele><time>2026-05-05T13:31:56.565Z</time></trkpt><trkpt lat="38.0624333" lon="13.0796767"><ele>114.0</ele><time>2026-05-05T13:31:57.564Z</time></trkpt><trkpt lat="38.0622483" lon="13.0795283"><ele>114.0</ele><time>2026-05-05T13:31:58.563Z</time></trkpt><trkpt lat="38.0620633" lon="13.07938"><ele>114.0</ele><time>2026-05-05T13:31:59.565Z</time></trkpt><trkpt lat="38.0618767" lon="13.079235"><ele>114.0</ele><time>2026-05-05T13:32:00.564Z</time></trkpt><trkpt lat="38.0616917" lon="13.0790883"><ele>113.33333333333334</ele><time>2026-05-05T13:32:01.565Z</time></trkpt><trkpt lat="38.0615033" lon="13.07894"><ele>112.66666666666667</ele><time>2026-05-05T13:32:02.565Z</time></trkpt><trkpt lat="38.0613167" lon="13.0787883"><ele>112.0</ele><time>2026-05-05T13:32:03.564Z</time></trkpt><trkpt lat="38.06113" lon="13.0786367"><ele>112.0</ele><time>2026-05-05T13:32:04.564Z</time></trkpt><trkpt lat="38.0609433" lon="13.0784833"><ele>112.0</ele><time>2026-05-05T13:32:05.565Z</time></trkpt><trkpt lat="38.0607567" lon="13.0783283"><ele>112.0</ele><time>2026-05-05T13:32:06.566Z</time></trkpt><trkpt lat="38.06057" lon="13.0781717"><ele>110.0</ele><time>2026-05-05T13:32:07.565Z</time></trkpt><trkpt lat="38.060385" lon="13.078015"><ele>108.0</ele><time>2026-05-05T13:32:08.565Z</time></trkpt><trkpt lat="38.0601967" lon="13.077855"><ele>106.0</ele><time>2026-05-05T13:32:09.565Z</time></trkpt><trkpt lat="38.0600117" lon="13.077695"><ele>107.33333333333334</ele><time>2026-05-05T13:32:10.564Z</time></trkpt><trkpt lat="38.0598267" lon="13.0775333"><ele>108.66666666666666</ele><time>2026-05-05T13:32:11.566Z</time></trkpt><trkpt lat="38.059645" lon="13.07737"><ele>110.0</ele><time>2026-05-05T13:32:12.566Z</time></trkpt><trkpt lat="38.0594667" lon="13.0772067"><ele>112.33333333333333</ele><time>2026-05-05T13:32:13.565Z</time></trkpt><trkpt lat="38.0592883" lon="13.077045"><ele>114.66666666666666</ele><time>2026-05-05T13:32:14.566Z</time></trkpt><trkpt lat="38.0591117" lon="13.0768833"><ele>117.0</ele><time>2026-05-05T13:32:15.564Z</time></trkpt><trkpt lat="38.0589383" lon="13.0767217"><ele>118.0</ele><time>2026-05-05T13:32:16.563Z</time></trkpt><trkpt lat="38.0587633" lon="13.0765567"><ele>119.0</ele><time>2026-05-05T13:32:17.564Z</time></trkpt><trkpt lat="38.05859" lon="13.0763883"><ele>120.0</ele><time>2026-05-05T13:32:18.564Z</time></trkpt><trkpt lat="38.0584183" lon="13.07622"><ele>120.66666666666666</ele><time>2026-05-05T13:32:19.568Z</time></trkpt><trkpt lat="38.05825" lon="13.0760483"><ele>121.33333333333333</ele><time>2026-05-05T13:32:20.565Z</time></trkpt><trkpt lat="38.0580833" lon="13.0758733"><ele>122.0</ele><time>2026-05-05T13:32:21.564Z</time></trkpt><trkpt lat="38.057915" lon="13.0756967"><ele>122.66666666666666</ele><time>2026-05-05T13:32:22.565Z</time></trkpt><trkpt lat="38.0577467" lon="13.0755167"><ele>123.33333333333334</ele><time>2026-05-05T13:32:23.564Z</time></trkpt><trkpt lat="38.0575783" lon="13.075335"><ele>124.0</ele><time>2026-05-05T13:32:24.564Z</time></trkpt><trkpt lat="38.0574117" lon="13.07515"><ele>125.0</ele><time>2026-05-05T13:32:25.563Z</time></trkpt><trkpt lat="38.0572483" lon="13.074965"><ele>126.0</ele><time>2026-05-05T13:32:26.565Z</time></trkpt><trkpt lat="38.057085" lon="13.0747767"><ele>127.0</ele><time>2026-05-05T13:32:27.564Z</time></trkpt><trkpt lat="38.056925" lon="13.0745867"><ele>127.0</ele><time>2026-05-05T13:32:28.563Z</time></trkpt><trkpt lat="38.0567633" lon="13.0743917"><ele>127.0</ele><time>2026-05-05T13:32:29.565Z</time></trkpt><trkpt lat="38.056605" lon="13.0741967"><ele>127.0</ele><time>2026-05-05T13:32:30.564Z</time></trkpt><trkpt lat="38.0564467" lon="13.0739983"><ele>126.0</ele><time>2026-05-05T13:32:31.565Z</time></trkpt><trkpt lat="38.05629" lon="13.0737983"><ele>125.0</ele><time>2026-05-05T13:32:32.564Z</time></trkpt><trkpt lat="38.0561317" lon="13.073595"><ele>124.0</ele><time>2026-05-05T13:32:33.566Z</time></trkpt><trkpt lat="38.0559767" lon="13.0733867"><ele>123.0</ele><time>2026-05-05T13:32:34.565Z</time></trkpt><trkpt lat="38.0558217" lon="13.0731783"><ele>122.0</ele><time>2026-05-05T13:32:35.565Z</time></trkpt><trkpt lat="38.0556683" lon="13.0729683"><ele>121.5</ele><time>2026-05-05T13:32:36.566Z</time></trkpt><trkpt lat="38.0555183" lon="13.0727517"><ele>121.0</ele><time>2026-05-05T13:32:37.565Z</time></trkpt><trkpt lat="38.0553683" lon="13.0725333"><ele>122.5</ele><time>2026-05-05T13:32:38.566Z</time></trkpt><trkpt lat="38.05522" lon="13.072315"><ele>124.0</ele><time>2026-05-05T13:32:39.564Z</time></trkpt><trkpt lat="38.0550683" lon="13.0720917"><ele>125.0</ele><time>2026-05-05T13:32:40.565Z</time></trkpt><trkpt lat="38.05492" lon="13.0718667"><ele>126.0</ele><time>2026-05-05T13:32:41.565Z</time></trkpt><trkpt lat="38.0547733" lon="13.07164"><ele>126.0</ele><time>2026-05-05T13:32:42.565Z</time></trkpt><trkpt lat="38.0546283" lon="13.0714083"><ele>126.0</ele><time>2026-05-05T13:32:43.565Z</time></trkpt><trkpt lat="38.054485" lon="13.071175"><ele>126.0</ele><time>2026-05-05T13:32:44.565Z</time></trkpt><trkpt lat="38.054345" lon="13.070935"><ele>126.0</ele><time>2026-05-05T13:32:45.564Z</time></trkpt><trkpt lat="38.054205" lon="13.070695"><ele>125.5</ele><time>2026-05-05T13:32:46.565Z</time></trkpt><trkpt lat="38.0540683" lon="13.07045"><ele>125.0</ele><time>2026-05-05T13:32:47.564Z</time></trkpt><trkpt lat="38.0539333" lon="13.0702033"><ele>125.0</ele><time>2026-05-05T13:32:48.564Z</time></trkpt><trkpt lat="38.0537967" lon="13.0699533"><ele>125.0</ele><time>2026-05-05T13:32:49.564Z</time></trkpt><trkpt lat="38.0536617" lon="13.0697033"><ele>125.0</ele><time>2026-05-05T13:32:50.565Z</time></trkpt><trkpt lat="38.05353" lon="13.0694517"><ele>125.0</ele><time>2026-05-05T13:32:51.565Z</time></trkpt><trkpt lat="38.0533983" lon="13.069195"><ele>125.5</ele><time>2026-05-05T13:32:52.564Z</time></trkpt><trkpt lat="38.05327" lon="13.0689383"><ele>126.0</ele><time>2026-05-05T13:32:53.565Z</time></trkpt><trkpt lat="38.0531433" lon="13.0686783"><ele>126.0</ele><time>2026-05-05T13:32:54.564Z</time></trkpt><trkpt lat="38.0530183" lon="13.0684133"><ele>126.0</ele><time>2026-05-05T13:32:55.564Z</time></trkpt><trkpt lat="38.052895" lon="13.06815"><ele>124.5</ele><time>2026-05-05T13:32:56.565Z</time></trkpt><trkpt lat="38.0527733" lon="13.0678833"><ele>123.0</ele><time>2026-05-05T13:32:57.563Z</time></trkpt><trkpt lat="38.0526567" lon="13.067615"><ele>118.5</ele><time>2026-05-05T13:32:58.564Z</time></trkpt><trkpt lat="38.05254" lon="13.067345"><ele>114.0</ele><time>2026-05-05T13:32:59.565Z</time></trkpt><trkpt lat="38.0524267" lon="13.067075"><ele>114.0</ele><time>2026-05-05T13:33:00.565Z</time></trkpt><trkpt lat="38.052315" lon="13.0668033"><ele>114.0</ele><time>2026-05-05T13:33:01.565Z</time></trkpt><trkpt lat="38.0522067" lon="13.06653"><ele>112.0</ele><time>2026-05-05T13:33:02.565Z</time></trkpt><trkpt lat="38.0521" lon="13.0662567"><ele>110.0</ele><time>2026-05-05T13:33:03.565Z</time></trkpt><trkpt lat="38.0519967" lon="13.065985"><ele>114.5</ele><time>2026-05-05T13:33:04.564Z</time></trkpt><trkpt lat="38.051895" lon="13.0657133"><ele>119.0</ele><time>2026-05-05T13:33:05.564Z</time></trkpt><trkpt lat="38.051795" lon="13.0654433"><ele>119.0</ele><time>2026-05-05T13:33:06.565Z</time></trkpt><trkpt lat="38.0516967" lon="13.0651717"><ele>119.0</ele><time>2026-05-05T13:33:07.564Z</time></trkpt><trkpt lat="38.0516017" lon="13.0649"><ele>119.5</ele><time>2026-05-05T13:33:08.565Z</time></trkpt><trkpt lat="38.051505" lon="13.06463"><ele>120.0</ele><time>2026-05-05T13:33:09.563Z</time></trkpt><trkpt lat="38.0514133" lon="13.06436"><ele>121.5</ele><time>2026-05-05T13:33:10.564Z</time></trkpt><trkpt lat="38.0513233" lon="13.0640867"><ele>123.0</ele><time>2026-05-05T13:33:11.564Z</time></trkpt><trkpt lat="38.0512367" lon="13.063815"><ele>123.0</ele><time>2026-05-05T13:33:12.563Z</time></trkpt><trkpt lat="38.05115" lon="13.0635483"><ele>123.0</ele><time>2026-05-05T13:33:13.564Z</time></trkpt><trkpt lat="38.0510633" lon="13.06328"><ele>123.0</ele><time>2026-05-05T13:33:14.563Z</time></trkpt><trkpt lat="38.0509767" lon="13.0630133"><ele>123.0</ele><time>2026-05-05T13:33:15.564Z</time></trkpt><trkpt lat="38.0508933" lon="13.062745"><ele>123.0</ele><time>2026-05-05T13:33:16.564Z</time></trkpt><trkpt lat="38.0508067" lon="13.0624767"><ele>123.0</ele><time>2026-05-05T13:33:17.564Z</time></trkpt><trkpt lat="38.05072" lon="13.0622083"><ele>121.5</ele><time>2026-05-05T13:33:18.569Z</time></trkpt><trkpt lat="38.0506333" lon="13.06194"><ele>120.0</ele><time>2026-05-05T13:33:19.565Z</time></trkpt><trkpt lat="38.0505483" lon="13.0616733"><ele>121.0</ele><time>2026-05-05T13:33:20.564Z</time></trkpt><trkpt lat="38.050465" lon="13.0614033"><ele>122.0</ele><time>2026-05-05T13:33:21.564Z</time></trkpt><trkpt lat="38.05038" lon="13.061135"><ele>122.0</ele><time>2026-05-05T13:33:22.564Z</time></trkpt><trkpt lat="38.050295" lon="13.0608683"><ele>122.0</ele><time>2026-05-05T13:33:23.564Z</time></trkpt><trkpt lat="38.0502067" lon="13.0605967"><ele>121.5</ele><time>2026-05-05T13:33:24.565Z</time></trkpt><trkpt lat="38.0501167" lon="13.0603317"><ele>121.0</ele><time>2026-05-05T13:33:25.564Z</time></trkpt><trkpt lat="38.050025" lon="13.0600633"><ele>120.0</ele><time>2026-05-05T13:33:26.565Z</time></trkpt><trkpt lat="38.0499333" lon="13.0597917"><ele>119.0</ele><time>2026-05-05T13:33:27.564Z</time></trkpt><trkpt lat="38.0498367" lon="13.0595233"><ele>119.0</ele><time>2026-05-05T13:33:28.564Z</time></trkpt><trkpt lat="38.0497383" lon="13.0592517"><ele>119.0</ele><time>2026-05-05T13:33:29.566Z</time></trkpt><trkpt lat="38.049635" lon="13.0589817"><ele>119.0</ele><time>2026-05-05T13:33:30.563Z</time></trkpt><trkpt lat="38.04953" lon="13.05871"><ele>119.0</ele><time>2026-05-05T13:33:31.564Z</time></trkpt><trkpt lat="38.0494217" lon="13.0584383"><ele>118.0</ele><time>2026-05-05T13:33:32.564Z</time></trkpt><trkpt lat="38.0493083" lon="13.0581683"><ele>117.0</ele><time>2026-05-05T13:33:33.564Z</time></trkpt><trkpt lat="38.0491917" lon="13.0579"><ele>117.5</ele><time>2026-05-05T13:33:34.565Z</time></trkpt><trkpt lat="38.0490717" lon="13.05763"><ele>118.0</ele><time>2026-05-05T13:33:35.565Z</time></trkpt><trkpt lat="38.0489483" lon="13.0573633"><ele>118.5</ele><time>2026-05-05T13:33:36.563Z</time></trkpt><trkpt lat="38.0488233" lon="13.057095"><ele>119.0</ele><time>2026-05-05T13:33:37.565Z</time></trkpt><trkpt lat="38.048695" lon="13.0568267"><ele>118.5</ele><time>2026-05-05T13:33:38.565Z</time></trkpt><trkpt lat="38.048565" lon="13.0565617"><ele>118.0</ele><time>2026-05-05T13:33:39.565Z</time></trkpt><trkpt lat="38.0484333" lon="13.0562967"><ele>118.0</ele><time>2026-05-05T13:33:40.565Z</time></trkpt><trkpt lat="38.0482983" lon="13.0560317"><ele>118.0</ele><time>2026-05-05T13:33:41.565Z</time></trkpt><trkpt lat="38.0481633" lon="13.0557683"><ele>118.0</ele><time>2026-05-05T13:33:42.565Z</time></trkpt><trkpt lat="38.0480267" lon="13.055505"><ele>118.0</ele><time>2026-05-05T13:33:43.566Z</time></trkpt><trkpt lat="38.04789" lon="13.0552417"><ele>118.0</ele><time>2026-05-05T13:33:44.565Z</time></trkpt><trkpt lat="38.0477483" lon="13.0549817"><ele>118.0</ele><time>2026-05-05T13:33:45.565Z</time></trkpt><trkpt lat="38.0476083" lon="13.0547217"><ele>118.0</ele><time>2026-05-05T13:33:46.564Z</time></trkpt><trkpt lat="38.0474683" lon="13.0544633"><ele>118.0</ele><time>2026-05-05T13:33:47.566Z</time></trkpt><trkpt lat="38.0473317" lon="13.0542017"><ele>118.5</ele><time>2026-05-05T13:33:48.564Z</time></trkpt><trkpt lat="38.047195" lon="13.0539417"><ele>119.0</ele><time>2026-05-05T13:33:49.565Z</time></trkpt><trkpt lat="38.04706" lon="13.0536833"><ele>119.0</ele><time>2026-05-05T13:33:50.565Z</time></trkpt><trkpt lat="38.046925" lon="13.053425"><ele>119.0</ele><time>2026-05-05T13:33:51.564Z</time></trkpt><trkpt lat="38.0467917" lon="13.053165"><ele>118.5</ele><time>2026-05-05T13:33:52.565Z</time></trkpt><trkpt lat="38.0466583" lon="13.052905"><ele>118.0</ele><time>2026-05-05T13:33:53.565Z</time></trkpt><trkpt lat="38.0465283" lon="13.052645"><ele>117.0</ele><time>2026-05-05T13:33:54.565Z</time></trkpt><trkpt lat="38.0463967" lon="13.0523867"><ele>116.0</ele><time>2026-05-05T13:33:55.565Z</time></trkpt><trkpt lat="38.0462683" lon="13.052125"><ele>116.0</ele><time>2026-05-05T13:33:56.565Z</time></trkpt><trkpt lat="38.0461417" lon="13.0518617"><ele>116.0</ele><time>2026-05-05T13:33:57.564Z</time></trkpt><trkpt lat="38.0460183" lon="13.051595"><ele>116.5</ele><time>2026-05-05T13:33:58.564Z</time></trkpt><trkpt lat="38.0459" lon="13.0513267"><ele>117.0</ele><time>2026-05-05T13:33:59.563Z</time></trkpt><trkpt lat="38.0457817" lon="13.0510567"><ele>119.0</ele><time>2026-05-05T13:34:00.563Z</time></trkpt><trkpt lat="38.0456667" lon="13.050785"><ele>121.0</ele><time>2026-05-05T13:34:01.563Z</time></trkpt><trkpt lat="38.045555" lon="13.0505133"><ele>121.0</ele><time>2026-05-05T13:34:02.565Z</time></trkpt><trkpt lat="38.045445" lon="13.0502367"><ele>121.0</ele><time>2026-05-05T13:34:03.564Z</time></trkpt><trkpt lat="38.0453383" lon="13.0499583"><ele>120.5</ele><time>2026-05-05T13:34:04.563Z</time></trkpt><trkpt lat="38.0452367" lon="13.049675"><ele>120.0</ele><time>2026-05-05T13:34:05.563Z</time></trkpt><trkpt lat="38.0451333" lon="13.0493917"><ele>119.5</ele><time>2026-05-05T13:34:06.564Z</time></trkpt><trkpt lat="38.045035" lon="13.049115"><ele>119.0</ele><time>2026-05-05T13:34:07.564Z</time></trkpt><trkpt lat="38.04494" lon="13.048835"><ele>119.0</ele><time>2026-05-05T13:34:08.566Z</time></trkpt><trkpt lat="38.0448483" lon="13.048555"><ele>119.0</ele><time>2026-05-05T13:34:09.563Z</time></trkpt><trkpt lat="38.0447633" lon="13.04827"><ele>119.0</ele><time>2026-05-05T13:34:10.564Z</time></trkpt><trkpt lat="38.04468" lon="13.0479817"><ele>119.0</ele><time>2026-05-05T13:34:11.569Z</time></trkpt><trkpt lat="38.0446" lon="13.047695"><ele>119.0</ele><time>2026-05-05T13:34:12.564Z</time></trkpt><trkpt lat="38.0445233" lon="13.0474083"><ele>119.0</ele><time>2026-05-05T13:34:13.564Z</time></trkpt><trkpt lat="38.0444483" lon="13.0471217"><ele>119.0</ele><time>2026-05-05T13:34:14.564Z</time></trkpt><trkpt lat="38.044375" lon="13.0468333"><ele>119.0</ele><time>2026-05-05T13:34:15.564Z</time></trkpt><trkpt lat="38.0443067" lon="13.0465383"><ele>119.0</ele><time>2026-05-05T13:34:16.565Z</time></trkpt><trkpt lat="38.0442417" lon="13.046245"><ele>119.0</ele><time>2026-05-05T13:34:17.565Z</time></trkpt><trkpt lat="38.0441783" lon="13.0459517"><ele>117.0</ele><time>2026-05-05T13:34:18.565Z</time></trkpt><trkpt lat="38.0441183" lon="13.045655"><ele>115.0</ele><time>2026-05-05T13:34:19.564Z</time></trkpt><trkpt lat="38.044065" lon="13.0453567"><ele>115.0</ele><time>2026-05-05T13:34:20.565Z</time></trkpt><trkpt lat="38.0440133" lon="13.0450583"><ele>115.0</ele><time>2026-05-05T13:34:21.564Z</time></trkpt><trkpt lat="38.0439667" lon="13.0447583"><ele>115.5</ele><time>2026-05-05T13:34:22.565Z</time></trkpt><trkpt lat="38.0439217" lon="13.044455"><ele>116.0</ele><time>2026-05-05T13:34:23.564Z</time></trkpt><trkpt lat="38.04388" lon="13.0441517"><ele>115.5</ele><time>2026-05-05T13:34:24.564Z</time></trkpt><trkpt lat="38.04384" lon="13.043845"><ele>115.0</ele><time>2026-05-05T13:34:25.564Z</time></trkpt><trkpt lat="38.0438033" lon="13.0435417"><ele>113.0</ele><time>2026-05-05T13:34:26.565Z</time></trkpt><trkpt lat="38.0437683" lon="13.043235"><ele>111.0</ele><time>2026-05-05T13:34:27.565Z</time></trkpt><trkpt lat="38.04374" lon="13.0429233"><ele>111.0</ele><time>2026-05-05T13:34:28.564Z</time></trkpt><trkpt lat="38.0437133" lon="13.0426133"><ele>111.0</ele><time>2026-05-05T13:34:29.564Z</time></trkpt><trkpt lat="38.0436883" lon="13.042305"><ele>110.5</ele><time>2026-05-05T13:34:30.563Z</time></trkpt><trkpt lat="38.043665" lon="13.0419917"><ele>110.0</ele><time>2026-05-05T13:34:31.565Z</time></trkpt><trkpt lat="38.0436467" lon="13.0416767"><ele>109.5</ele><time>2026-05-05T13:34:32.564Z</time></trkpt><trkpt lat="38.0436317" lon="13.0413617"><ele>109.0</ele><time>2026-05-05T13:34:33.564Z</time></trkpt><trkpt lat="38.0436167" lon="13.0410483"><ele>109.5</ele><time>2026-05-05T13:34:34.565Z</time></trkpt><trkpt lat="38.0436017" lon="13.040735"><ele>110.0</ele><time>2026-05-05T13:34:35.565Z</time></trkpt><trkpt lat="38.0435883" lon="13.04042"><ele>110.0</ele><time>2026-05-05T13:34:36.565Z</time></trkpt><trkpt lat="38.0435733" lon="13.0401017"><ele>110.0</ele><time>2026-05-05T13:34:37.564Z</time></trkpt><trkpt lat="38.0435567" lon="13.0397867"><ele>109.0</ele><time>2026-05-05T13:34:38.565Z</time></trkpt><trkpt lat="38.0435333" lon="13.0394717"><ele>108.0</ele><time>2026-05-05T13:34:39.564Z</time></trkpt><trkpt lat="38.0435067" lon="13.0391567"><ele>106.5</ele><time>2026-05-05T13:34:40.565Z</time></trkpt><trkpt lat="38.0434767" lon="13.03884"><ele>105.0</ele><time>2026-05-05T13:34:41.565Z</time></trkpt><trkpt lat="38.0434433" lon="13.0385233"><ele>101.0</ele><time>2026-05-05T13:34:42.564Z</time></trkpt><trkpt lat="38.043405" lon="13.03821"><ele>97.0</ele><time>2026-05-05T13:34:43.565Z</time></trkpt><trkpt lat="38.0433633" lon="13.0378967"><ele>97.0</ele><time>2026-05-05T13:34:44.565Z</time></trkpt><trkpt lat="38.0433167" lon="13.037585"><ele>97.0</ele><time>2026-05-05T13:34:45.563Z</time></trkpt><trkpt lat="38.0432633" lon="13.0372733"><ele>75.5</ele><time>2026-05-05T13:34:46.563Z</time></trkpt><trkpt lat="38.0432067" lon="13.03697"><ele>54.0</ele><time>2026-05-05T13:34:47.564Z</time></trkpt><trkpt lat="38.0431483" lon="13.0366683"><ele>45.0</ele><time>2026-05-05T13:34:48.564Z</time></trkpt><trkpt lat="38.0430867" lon="13.0363683"><ele>36.0</ele><time>2026-05-05T13:34:49.563Z</time></trkpt><trkpt lat="38.0430233" lon="13.03607"><ele>36.5</ele><time>2026-05-05T13:34:50.564Z</time></trkpt><trkpt lat="38.042955" lon="13.0357767"><ele>37.0</ele><time>2026-05-05T13:34:51.567Z</time></trkpt><trkpt lat="38.04288" lon="13.0354867"><ele>37.0</ele><time>2026-05-05T13:34:52.563Z</time></trkpt><trkpt lat="38.0428017" lon="13.035195"><ele>37.0</ele><time>2026-05-05T13:34:53.566Z</time></trkpt><trkpt lat="38.0427217" lon="13.0349067"><ele>42.0</ele><time>2026-05-05T13:34:54.564Z</time></trkpt><trkpt lat="38.0426383" lon="13.0346217"><ele>47.0</ele><time>2026-05-05T13:34:55.565Z</time></trkpt><trkpt lat="38.04255" lon="13.0343367"><ele>59.5</ele><time>2026-05-05T13:34:56.564Z</time></trkpt><trkpt lat="38.0424583" lon="13.0340533"><ele>72.0</ele><time>2026-05-05T13:34:57.564Z</time></trkpt><trkpt lat="38.0423667" lon="13.03377"><ele>72.0</ele><time>2026-05-05T13:34:58.564Z</time></trkpt><trkpt lat="38.0422683" lon="13.03349"><ele>72.0</ele><time>2026-05-05T13:34:59.565Z</time></trkpt><trkpt lat="38.0421667" lon="13.0332117"><ele>83.5</ele><time>2026-05-05T13:35:00.565Z</time></trkpt><trkpt lat="38.0420617" lon="13.03294"><ele>95.0</ele><time>2026-05-05T13:35:01.565Z</time></trkpt><trkpt lat="38.0419533" lon="13.03267"><ele>94.5</ele><time>2026-05-05T13:35:02.572Z</time></trkpt><trkpt lat="38.04184" lon="13.0324017"><ele>94.0</ele><time>2026-05-05T13:35:03.565Z</time></trkpt><trkpt lat="38.0417267" lon="13.0321333"><ele>94.5</ele><time>2026-05-05T13:35:04.565Z</time></trkpt><trkpt lat="38.0416067" lon="13.0318683"><ele>95.0</ele><time>2026-05-05T13:35:05.564Z</time></trkpt><trkpt lat="38.041485" lon="13.031605"><ele>98.0</ele><time>2026-05-05T13:35:06.565Z</time></trkpt><trkpt lat="38.0413583" lon="13.0313467"><ele>101.0</ele><time>2026-05-05T13:35:07.564Z</time></trkpt><trkpt lat="38.04123" lon="13.03109"><ele>101.0</ele><time>2026-05-05T13:35:08.565Z</time></trkpt><trkpt lat="38.0410983" lon="13.030835"><ele>101.0</ele><time>2026-05-05T13:35:09.564Z</time></trkpt><trkpt lat="38.0409633" lon="13.0305783"><ele>101.0</ele><time>2026-05-05T13:35:10.563Z</time></trkpt><trkpt lat="38.0408233" lon="13.0303233"><ele>101.0</ele><time>2026-05-05T13:35:11.562Z</time></trkpt><trkpt lat="38.0406767" lon="13.0300717"><ele>102.5</ele><time>2026-05-05T13:35:12.564Z</time></trkpt><trkpt lat="38.0405233" lon="13.0298217"><ele>104.0</ele><time>2026-05-05T13:35:13.563Z</time></trkpt><trkpt lat="38.0403633" lon="13.02958"><ele>104.0</ele><time>2026-05-05T13:35:14.563Z</time></trkpt><trkpt lat="38.0402017" lon="13.0293433"><ele>104.0</ele><time>2026-05-05T13:35:15.564Z</time></trkpt><trkpt lat="38.0400367" lon="13.0291067"><ele>106.0</ele><time>2026-05-05T13:35:16.563Z</time></trkpt><trkpt lat="38.0398717" lon="13.02887"><ele>108.0</ele><time>2026-05-05T13:35:17.564Z</time></trkpt><trkpt lat="38.0397033" lon="13.0286367"><ele>108.0</ele><time>2026-05-05T13:35:18.563Z</time></trkpt><trkpt lat="38.039535" lon="13.028405"><ele>108.0</ele><time>2026-05-05T13:35:19.565Z</time></trkpt><trkpt lat="38.039365" lon="13.028175"><ele>108.5</ele><time>2026-05-05T13:35:20.564Z</time></trkpt><trkpt lat="38.0391917" lon="13.0279483"><ele>109.0</ele><time>2026-05-05T13:35:21.564Z</time></trkpt><trkpt lat="38.0390183" lon="13.0277233"><ele>109.5</ele><time>2026-05-05T13:35:22.564Z</time></trkpt><trkpt lat="38.0388433" lon="13.0274983"><ele>110.0</ele><time>2026-05-05T13:35:23.563Z</time></trkpt><trkpt lat="38.0386583" lon="13.0272717"><ele>110.0</ele><time>2026-05-05T13:35:24.564Z</time></trkpt><trkpt lat="38.03846" lon="13.0270317"><ele>110.0</ele><time>2026-05-05T13:35:25.564Z</time></trkpt><trkpt lat="38.038255" lon="13.0267767"><ele>110.0</ele><time>2026-05-05T13:35:26.564Z</time></trkpt><trkpt lat="38.038045" lon="13.026505"><ele>110.0</ele><time>2026-05-05T13:35:27.564Z</time></trkpt><trkpt lat="38.037835" lon="13.0262267"><ele>110.0</ele><time>2026-05-05T13:35:28.564Z</time></trkpt><trkpt lat="38.037635" lon="13.0259567"><ele>110.0</ele><time>2026-05-05T13:35:29.566Z</time></trkpt><trkpt lat="38.037445" lon="13.0257033"><ele>111.0</ele><time>2026-05-05T13:35:30.564Z</time></trkpt><trkpt lat="38.037265" lon="13.0254683"><ele>112.0</ele><time>2026-05-05T13:35:31.563Z</time></trkpt><trkpt lat="38.0370917" lon="13.0252467"><ele>112.0</ele><time>2026-05-05T13:35:32.563Z</time></trkpt><trkpt lat="38.036925" lon="13.025035"><ele>112.0</ele><time>2026-05-05T13:35:33.564Z</time></trkpt><trkpt lat="38.0367617" lon="13.02483"><ele>112.0</ele><time>2026-05-05T13:35:34.563Z</time></trkpt><trkpt lat="38.0366" lon="13.0246283"><ele>112.0</ele><time>2026-05-05T13:35:35.563Z</time></trkpt><trkpt lat="38.03644" lon="13.0244283"><ele>112.0</ele><time>2026-05-05T13:35:36.563Z</time></trkpt><trkpt lat="38.0362833" lon="13.0242283"><ele>112.0</ele><time>2026-05-05T13:35:37.564Z</time></trkpt><trkpt lat="38.0361267" lon="13.0240283"><ele>112.0</ele><time>2026-05-05T13:35:38.565Z</time></trkpt><trkpt lat="38.0359717" lon="13.0238283"><ele>112.33333333333334</ele><time>2026-05-05T13:35:39.564Z</time></trkpt><trkpt lat="38.0358167" lon="13.02363"><ele>112.66666666666666</ele><time>2026-05-05T13:35:40.563Z</time></trkpt><trkpt lat="38.03566" lon="13.0234333"><ele>113.0</ele><time>2026-05-05T13:35:41.565Z</time></trkpt><trkpt lat="38.0355033" lon="13.023235"><ele>114.33333333333333</ele><time>2026-05-05T13:35:42.564Z</time></trkpt><trkpt lat="38.0353467" lon="13.0230367"><ele>115.66666666666666</ele><time>2026-05-05T13:35:43.563Z</time></trkpt><trkpt lat="38.03519" lon="13.0228367"><ele>117.0</ele><time>2026-05-05T13:35:44.566Z</time></trkpt><trkpt lat="38.0350317" lon="13.0226367"><ele>117.0</ele><time>2026-05-05T13:35:45.564Z</time></trkpt><trkpt lat="38.034875" lon="13.022435"><ele>117.0</ele><time>2026-05-05T13:35:46.562Z</time></trkpt><trkpt lat="38.034715" lon="13.0222317"><ele>117.0</ele><time>2026-05-05T13:35:47.563Z</time></trkpt><trkpt lat="38.0345533" lon="13.0220283"><ele>117.0</ele><time>2026-05-05T13:35:48.564Z</time></trkpt><trkpt lat="38.0343917" lon="13.0218233"><ele>117.0</ele><time>2026-05-05T13:35:49.564Z</time></trkpt><trkpt lat="38.0342317" lon="13.0216167"><ele>115.0</ele><time>2026-05-05T13:35:50.565Z</time></trkpt><trkpt lat="38.03407" lon="13.0214083"><ele>113.0</ele><time>2026-05-05T13:35:51.564Z</time></trkpt><trkpt lat="38.0339067" lon="13.0212"><ele>113.0</ele><time>2026-05-05T13:35:52.564Z</time></trkpt><trkpt lat="38.03374" lon="13.02099"><ele>113.0</ele><time>2026-05-05T13:35:53.564Z</time></trkpt><trkpt lat="38.0335767" lon="13.0207817"><ele>112.5</ele><time>2026-05-05T13:35:54.565Z</time></trkpt><trkpt lat="38.03341" lon="13.0205683"><ele>112.0</ele><time>2026-05-05T13:35:55.563Z</time></trkpt><trkpt lat="38.033245" lon="13.020355"><ele>112.5</ele><time>2026-05-05T13:35:56.563Z</time></trkpt><trkpt lat="38.0330783" lon="13.0201417"><ele>113.0</ele><time>2026-05-05T13:35:57.565Z</time></trkpt><trkpt lat="38.03291" lon="13.019925"><ele>113.0</ele><time>2026-05-05T13:35:58.564Z</time></trkpt><trkpt lat="38.0327433" lon="13.0197067"><ele>113.0</ele><time>2026-05-05T13:35:59.564Z</time></trkpt><trkpt lat="38.032575" lon="13.0194883"><ele>114.5</ele><time>2026-05-05T13:36:00.564Z</time></trkpt><trkpt lat="38.0324067" lon="13.0192683"><ele>116.0</ele><time>2026-05-05T13:36:01.563Z</time></trkpt><trkpt lat="38.0322417" lon="13.019045"><ele>117.5</ele><time>2026-05-05T13:36:02.564Z</time></trkpt><trkpt lat="38.0320767" lon="13.0188217"><ele>119.0</ele><time>2026-05-05T13:36:03.563Z</time></trkpt><trkpt lat="38.0319117" lon="13.0185967"><ele>119.0</ele><time>2026-05-05T13:36:04.563Z</time></trkpt><trkpt lat="38.0317467" lon="13.0183683"><ele>119.0</ele><time>2026-05-05T13:36:05.564Z</time></trkpt><trkpt lat="38.0315817" lon="13.0181383"><ele>121.5</ele><time>2026-05-05T13:36:06.564Z</time></trkpt><trkpt lat="38.0314167" lon="13.0179067"><ele>124.0</ele><time>2026-05-05T13:36:07.564Z</time></trkpt><trkpt lat="38.03125" lon="13.0176767"><ele>123.0</ele><time>2026-05-05T13:36:08.564Z</time></trkpt><trkpt lat="38.0310883" lon="13.017445"><ele>122.0</ele><time>2026-05-05T13:36:09.564Z</time></trkpt><trkpt lat="38.03093" lon="13.01721"><ele>123.0</ele><time>2026-05-05T13:36:10.564Z</time></trkpt><trkpt lat="38.0307717" lon="13.016975"><ele>124.0</ele><time>2026-05-05T13:36:11.564Z</time></trkpt><trkpt lat="38.030615" lon="13.016745"><ele>123.5</ele><time>2026-05-05T13:36:12.563Z</time></trkpt><trkpt lat="38.0304567" lon="13.0165067"><ele>123.0</ele><time>2026-05-05T13:36:13.562Z</time></trkpt><trkpt lat="38.0303033" lon="13.0162767"><ele>123.0</ele><time>2026-05-05T13:36:14.564Z</time></trkpt><trkpt lat="38.03015" lon="13.016035"><ele>123.0</ele><time>2026-05-05T13:36:15.563Z</time></trkpt><trkpt lat="38.0299983" lon="13.0157933"><ele>121.5</ele><time>2026-05-05T13:36:16.562Z</time></trkpt><trkpt lat="38.0298483" lon="13.0155533"><ele>120.0</ele><time>2026-05-05T13:36:17.564Z</time></trkpt><trkpt lat="38.0296967" lon="13.01531"><ele>120.0</ele><time>2026-05-05T13:36:18.564Z</time></trkpt><trkpt lat="38.0295483" lon="13.0150633"><ele>120.0</ele><time>2026-05-05T13:36:19.563Z</time></trkpt><trkpt lat="38.0294" lon="13.014815"><ele>120.0</ele><time>2026-05-05T13:36:20.563Z</time></trkpt><trkpt lat="38.0292533" lon="13.0145633"><ele>120.0</ele><time>2026-05-05T13:36:21.564Z</time></trkpt><trkpt lat="38.0291067" lon="13.0143083"><ele>122.5</ele><time>2026-05-05T13:36:22.564Z</time></trkpt><trkpt lat="38.0289617" lon="13.01405"><ele>125.0</ele><time>2026-05-05T13:36:23.564Z</time></trkpt><trkpt lat="38.0288183" lon="13.0137917"><ele>125.0</ele><time>2026-05-05T13:36:24.563Z</time></trkpt><trkpt lat="38.028675" lon="13.0135333"><ele>125.0</ele><time>2026-05-05T13:36:25.564Z</time></trkpt><trkpt lat="38.0285333" lon="13.0132733"><ele>124.5</ele><time>2026-05-05T13:36:26.564Z</time></trkpt><trkpt lat="38.0283933" lon="13.0130117"><ele>124.0</ele><time>2026-05-05T13:36:27.563Z</time></trkpt><trkpt lat="38.0282583" lon="13.01275"><ele>123.0</ele><time>2026-05-05T13:36:28.563Z</time></trkpt><trkpt lat="38.028125" lon="13.012485"><ele>122.0</ele><time>2026-05-05T13:36:29.563Z</time></trkpt><trkpt lat="38.02799" lon="13.01222"><ele>122.0</ele><time>2026-05-05T13:36:30.563Z</time></trkpt><trkpt lat="38.027855" lon="13.0119583"><ele>122.0</ele><time>2026-05-05T13:36:31.563Z</time></trkpt><trkpt lat="38.027725" lon="13.0116933"><ele>122.5</ele><time>2026-05-05T13:36:32.565Z</time></trkpt><trkpt lat="38.0275967" lon="13.0114267"><ele>123.0</ele><time>2026-05-05T13:36:33.563Z</time></trkpt><trkpt lat="38.0274683" lon="13.01116"><ele>123.0</ele><time>2026-05-05T13:36:34.563Z</time></trkpt><trkpt lat="38.0273433" lon="13.0108933"><ele>123.0</ele><time>2026-05-05T13:36:35.564Z</time></trkpt><trkpt lat="38.0272183" lon="13.0106267"><ele>121.0</ele><time>2026-05-05T13:36:36.563Z</time></trkpt><trkpt lat="38.0270933" lon="13.0103567"><ele>119.0</ele><time>2026-05-05T13:36:37.564Z</time></trkpt><trkpt lat="38.0269717" lon="13.0100867"><ele>117.0</ele><time>2026-05-05T13:36:38.564Z</time></trkpt><trkpt lat="38.02685" lon="13.0098167"><ele>115.0</ele><time>2026-05-05T13:36:39.564Z</time></trkpt><trkpt lat="38.0267317" lon="13.0095433"><ele>111.0</ele><time>2026-05-05T13:36:40.564Z</time></trkpt><trkpt lat="38.026615" lon="13.00927"><ele>107.0</ele><time>2026-05-05T13:36:41.564Z</time></trkpt><trkpt lat="38.0264983" lon="13.0089967"><ele>107.0</ele><time>2026-05-05T13:36:42.564Z</time></trkpt><trkpt lat="38.0263833" lon="13.0087217"><ele>107.0</ele><time>2026-05-05T13:36:43.564Z</time></trkpt><trkpt lat="38.0262683" lon="13.0084483"><ele>106.5</ele><time>2026-05-05T13:36:44.562Z</time></trkpt><trkpt lat="38.0261567" lon="13.0081733"><ele>106.0</ele><time>2026-05-05T13:36:45.564Z</time></trkpt><trkpt lat="38.0260467" lon="13.0078933"><ele>106.0</ele><time>2026-05-05T13:36:46.564Z</time></trkpt><trkpt lat="38.0259383" lon="13.0076167"><ele>106.0</ele><time>2026-05-05T13:36:47.564Z</time></trkpt><trkpt lat="38.0258333" lon="13.0073383"><ele>110.0</ele><time>2026-05-05T13:36:48.565Z</time></trkpt><trkpt lat="38.0257283" lon="13.0070583"><ele>114.0</ele><time>2026-05-05T13:36:49.565Z</time></trkpt><trkpt lat="38.025625" lon="13.0067783"><ele>115.5</ele><time>2026-05-05T13:36:50.565Z</time></trkpt><trkpt lat="38.0255217" lon="13.0064967"><ele>117.0</ele><time>2026-05-05T13:36:51.564Z</time></trkpt><trkpt lat="38.0254183" lon="13.006215"><ele>117.0</ele><time>2026-05-05T13:36:52.565Z</time></trkpt><trkpt lat="38.0253167" lon="13.0059333"><ele>117.0</ele><time>2026-05-05T13:36:53.566Z</time></trkpt><trkpt lat="38.025215" lon="13.0056517"><ele>119.0</ele><time>2026-05-05T13:36:54.564Z</time></trkpt><trkpt lat="38.0251133" lon="13.0053717"><ele>121.0</ele><time>2026-05-05T13:36:55.564Z</time></trkpt><trkpt lat="38.0250133" lon="13.00509"><ele>122.5</ele><time>2026-05-05T13:36:56.564Z</time></trkpt><trkpt lat="38.0249167" lon="13.004805"><ele>124.0</ele><time>2026-05-05T13:36:57.564Z</time></trkpt><trkpt lat="38.0248183" lon="13.00452"><ele>124.0</ele><time>2026-05-05T13:36:58.563Z</time></trkpt><trkpt lat="38.0247217" lon="13.0042333"><ele>124.0</ele><time>2026-05-05T13:36:59.563Z</time></trkpt><trkpt lat="38.0246233" lon="13.003945"><ele>123.0</ele><time>2026-05-05T13:37:00.563Z</time></trkpt><trkpt lat="38.0245267" lon="13.0036567"><ele>122.0</ele><time>2026-05-05T13:37:01.563Z</time></trkpt><trkpt lat="38.0244283" lon="13.0033683"><ele>125.0</ele><time>2026-05-05T13:37:02.567Z</time></trkpt><trkpt lat="38.0243317" lon="13.0030833"><ele>128.0</ele><time>2026-05-05T13:37:03.563Z</time></trkpt><trkpt lat="38.0242367" lon="13.0027967"><ele>128.0</ele><time>2026-05-05T13:37:04.563Z</time></trkpt><trkpt lat="38.02414" lon="13.00251"><ele>128.0</ele><time>2026-05-05T13:37:05.564Z</time></trkpt><trkpt lat="38.024045" lon="13.002225"><ele>128.0</ele><time>2026-05-05T13:37:06.564Z</time></trkpt><trkpt lat="38.02395" lon="13.00194"><ele>128.0</ele><time>2026-05-05T13:37:07.563Z</time></trkpt><trkpt lat="38.023855" lon="13.001655"><ele>128.5</ele><time>2026-05-05T13:37:08.564Z</time></trkpt><trkpt lat="38.0237583" lon="13.00137"><ele>129.0</ele><time>2026-05-05T13:37:09.562Z</time></trkpt><trkpt lat="38.0236617" lon="13.0010883"><ele>128.0</ele><time>2026-05-05T13:37:10.563Z</time></trkpt><trkpt lat="38.023565" lon="13.0008083"><ele>127.0</ele><time>2026-05-05T13:37:11.564Z</time></trkpt><trkpt lat="38.0234683" lon="13.0005267"><ele>127.0</ele><time>2026-05-05T13:37:12.562Z</time></trkpt><trkpt lat="38.0233717" lon="13.0002467"><ele>127.0</ele><time>2026-05-05T13:37:13.562Z</time></trkpt><trkpt lat="38.0232767" lon="12.9999683"><ele>126.0</ele><time>2026-05-05T13:37:14.564Z</time></trkpt><trkpt lat="38.02318" lon="12.99969"><ele>125.0</ele><time>2026-05-05T13:37:15.564Z</time></trkpt><trkpt lat="38.0230833" lon="12.9994117"><ele>124.5</ele><time>2026-05-05T13:37:16.564Z</time></trkpt><trkpt lat="38.0229883" lon="12.999135"><ele>124.0</ele><time>2026-05-05T13:37:17.563Z</time></trkpt><trkpt lat="38.0228917" lon="12.9988617"><ele>124.0</ele><time>2026-05-05T13:37:18.564Z</time></trkpt><trkpt lat="38.0227933" lon="12.99859"><ele>124.0</ele><time>2026-05-05T13:37:19.564Z</time></trkpt><trkpt lat="38.022695" lon="12.99832"><ele>125.0</ele><time>2026-05-05T13:37:20.563Z</time></trkpt><trkpt lat="38.022595" lon="12.99805"><ele>126.0</ele><time>2026-05-05T13:37:21.564Z</time></trkpt><trkpt lat="38.0224933" lon="12.9977817"><ele>127.5</ele><time>2026-05-05T13:37:22.564Z</time></trkpt><trkpt lat="38.02239" lon="12.9975117"><ele>129.0</ele><time>2026-05-05T13:37:23.563Z</time></trkpt><trkpt lat="38.0222833" lon="12.9972467"><ele>129.0</ele><time>2026-05-05T13:37:24.563Z</time></trkpt><trkpt lat="38.0221767" lon="12.99698"><ele>129.0</ele><time>2026-05-05T13:37:25.564Z</time></trkpt><trkpt lat="38.0220633" lon="12.9967167"><ele>129.0</ele><time>2026-05-05T13:37:26.564Z</time></trkpt><trkpt lat="38.0219483" lon="12.9964517"><ele>129.0</ele><time>2026-05-05T13:37:27.563Z</time></trkpt><trkpt lat="38.02183" lon="12.9961883"><ele>129.0</ele><time>2026-05-05T13:37:28.564Z</time></trkpt><trkpt lat="38.0217117" lon="12.995925"><ele>129.0</ele><time>2026-05-05T13:37:29.563Z</time></trkpt><trkpt lat="38.0215867" lon="12.995665"><ele>128.5</ele><time>2026-05-05T13:37:30.563Z</time></trkpt><trkpt lat="38.0214633" lon="12.9954083"><ele>128.0</ele><time>2026-05-05T13:37:31.563Z</time></trkpt><trkpt lat="38.021335" lon="12.9951483"><ele>128.0</ele><time>2026-05-05T13:37:32.564Z</time></trkpt><trkpt lat="38.0212083" lon="12.99489"><ele>128.0</ele><time>2026-05-05T13:37:33.564Z</time></trkpt><trkpt lat="38.0210783" lon="12.9946333"><ele>128.0</ele><time>2026-05-05T13:37:34.564Z</time></trkpt><trkpt lat="38.020945" lon="12.9943767"><ele>128.0</ele><time>2026-05-05T13:37:35.565Z</time></trkpt><trkpt lat="38.02081" lon="12.99412"><ele>123.0</ele><time>2026-05-05T13:37:36.564Z</time></trkpt><trkpt lat="38.0206733" lon="12.9938683"><ele>118.0</ele><time>2026-05-05T13:37:37.564Z</time></trkpt><trkpt lat="38.0205367" lon="12.9936133"><ele>118.0</ele><time>2026-05-05T13:37:38.562Z</time></trkpt><trkpt lat="38.0204017" lon="12.99337"><ele>118.0</ele><time>2026-05-05T13:37:39.564Z</time></trkpt><trkpt lat="38.02027" lon="12.993135"><ele>117.0</ele><time>2026-05-05T13:37:40.564Z</time></trkpt><trkpt lat="38.02014" lon="12.9929033"><ele>116.0</ele><time>2026-05-05T13:37:41.564Z</time></trkpt><trkpt lat="38.02001" lon="12.99267"><ele>115.0</ele><time>2026-05-05T13:37:42.564Z</time></trkpt><trkpt lat="38.0198767" lon="12.992435"><ele>104.0</ele><time>2026-05-05T13:37:43.564Z</time></trkpt><trkpt lat="38.0197433" lon="12.9922"><ele>93.0</ele><time>2026-05-05T13:37:44.565Z</time></trkpt><trkpt lat="38.0196083" lon="12.991965"><ele>93.0</ele><time>2026-05-05T13:37:45.563Z</time></trkpt><trkpt lat="38.01947" lon="12.9917233"><ele>93.0</ele><time>2026-05-05T13:37:46.564Z</time></trkpt><trkpt lat="38.0193267" lon="12.9914733"><ele>92.5</ele><time>2026-05-05T13:37:47.562Z</time></trkpt><trkpt lat="38.0191767" lon="12.9912133"><ele>92.0</ele><time>2026-05-05T13:37:48.565Z</time></trkpt><trkpt lat="38.0190133" lon="12.9909383"><ele>88.5</ele><time>2026-05-05T13:37:49.563Z</time></trkpt><trkpt lat="38.01884" lon="12.990655"><ele>85.0</ele><time>2026-05-05T13:37:50.564Z</time></trkpt><trkpt lat="38.0186617" lon="12.9903517"><ele>85.0</ele><time>2026-05-05T13:37:51.563Z</time></trkpt><trkpt lat="38.01849" lon="12.99004"><ele>85.0</ele><time>2026-05-05T13:37:52.563Z</time></trkpt><trkpt lat="38.0183317" lon="12.9897417"><ele>73.5</ele><time>2026-05-05T13:37:53.564Z</time></trkpt><trkpt lat="38.018185" lon="12.9894567"><ele>62.0</ele><time>2026-05-05T13:37:54.564Z</time></trkpt><trkpt lat="38.018045" lon="12.9891817"><ele>62.5</ele><time>2026-05-05T13:37:55.564Z</time></trkpt><trkpt lat="38.017905" lon="12.9889117"><ele>63.0</ele><time>2026-05-05T13:37:56.564Z</time></trkpt><trkpt lat="38.01777" lon="12.9886417"><ele>63.0</ele><time>2026-05-05T13:37:57.563Z</time></trkpt><trkpt lat="38.0176383" lon="12.9883733"><ele>63.0</ele><time>2026-05-05T13:37:58.564Z</time></trkpt><trkpt lat="38.0175133" lon="12.9881017"><ele>55.5</ele><time>2026-05-05T13:37:59.564Z</time></trkpt><trkpt lat="38.0173917" lon="12.9878283"><ele>48.0</ele><time>2026-05-05T13:38:00.563Z</time></trkpt><trkpt lat="38.0172733" lon="12.987555"><ele>60.0</ele><time>2026-05-05T13:38:01.563Z</time></trkpt><trkpt lat="38.0171617" lon="12.9872783"><ele>72.0</ele><time>2026-05-05T13:38:02.564Z</time></trkpt><trkpt lat="38.0170533" lon="12.987"><ele>72.0</ele><time>2026-05-05T13:38:03.564Z</time></trkpt><trkpt lat="38.01695" lon="12.98672"><ele>72.0</ele><time>2026-05-05T13:38:04.564Z</time></trkpt><trkpt lat="38.0168533" lon="12.9864383"><ele>76.5</ele><time>2026-05-05T13:38:05.564Z</time></trkpt><trkpt lat="38.016765" lon="12.986155"><ele>81.0</ele><time>2026-05-05T13:38:06.564Z</time></trkpt><trkpt lat="38.016685" lon="12.9858767"><ele>87.0</ele><time>2026-05-05T13:38:07.563Z</time></trkpt><trkpt lat="38.0166117" lon="12.9856017"><ele>93.0</ele><time>2026-05-05T13:38:08.565Z</time></trkpt><trkpt lat="38.0165417" lon="12.98533"><ele>93.0</ele><time>2026-05-05T13:38:09.563Z</time></trkpt><trkpt lat="38.0164783" lon="12.98506"><ele>93.0</ele><time>2026-05-05T13:38:10.564Z</time></trkpt><trkpt lat="38.01642" lon="12.9847917"><ele>93.0</ele><time>2026-05-05T13:38:11.565Z</time></trkpt><trkpt lat="38.0163667" lon="12.9845167"><ele>99.5</ele><time>2026-05-05T13:38:12.564Z</time></trkpt><trkpt lat="38.0163167" lon="12.9842383"><ele>106.0</ele><time>2026-05-05T13:38:13.564Z</time></trkpt><trkpt lat="38.0162683" lon="12.9839567"><ele>110.0</ele><time>2026-05-05T13:38:14.564Z</time></trkpt><trkpt lat="38.016225" lon="12.98367"><ele>114.0</ele><time>2026-05-05T13:38:15.565Z</time></trkpt><trkpt lat="38.0161917" lon="12.9833817"><ele>115.0</ele><time>2026-05-05T13:38:16.566Z</time></trkpt><trkpt lat="38.0161633" lon="12.9830883"><ele>116.0</ele><time>2026-05-05T13:38:17.564Z</time></trkpt><trkpt lat="38.0161383" lon="12.9827917"><ele>115.5</ele><time>2026-05-05T13:38:18.564Z</time></trkpt><trkpt lat="38.0161217" lon="12.9824917"><ele>115.0</ele><time>2026-05-05T13:38:19.564Z</time></trkpt><trkpt lat="38.0161117" lon="12.9821917"><ele>115.0</ele><time>2026-05-05T13:38:20.565Z</time></trkpt><trkpt lat="38.016105" lon="12.9818883"><ele>115.0</ele><time>2026-05-05T13:38:21.565Z</time></trkpt><trkpt lat="38.0161067" lon="12.9815833"><ele>115.0</ele><time>2026-05-05T13:38:22.564Z</time></trkpt><trkpt lat="38.0161117" lon="12.98128"><ele>115.0</ele><time>2026-05-05T13:38:23.563Z</time></trkpt><trkpt lat="38.0161233" lon="12.9809767"><ele>115.0</ele><time>2026-05-05T13:38:24.564Z</time></trkpt><trkpt lat="38.0161383" lon="12.9806717"><ele>115.0</ele><time>2026-05-05T13:38:25.564Z</time></trkpt><trkpt lat="38.01616" lon="12.9803633"><ele>115.0</ele><time>2026-05-05T13:38:26.565Z</time></trkpt><trkpt lat="38.0161867" lon="12.980055"><ele>115.0</ele><time>2026-05-05T13:38:27.564Z</time></trkpt><trkpt lat="38.01622" lon="12.979745"><ele>116.5</ele><time>2026-05-05T13:38:28.564Z</time></trkpt><trkpt lat="38.0162583" lon="12.979435"><ele>118.0</ele><time>2026-05-05T13:38:29.564Z</time></trkpt><trkpt lat="38.0163033" lon="12.97913"><ele>118.0</ele><time>2026-05-05T13:38:30.563Z</time></trkpt><trkpt lat="38.016355" lon="12.9788233"><ele>118.0</ele><time>2026-05-05T13:38:31.563Z</time></trkpt><trkpt lat="38.01641" lon="12.9785183"><ele>117.5</ele><time>2026-05-05T13:38:32.565Z</time></trkpt><trkpt lat="38.0164683" lon="12.9782183"><ele>117.0</ele><time>2026-05-05T13:38:33.563Z</time></trkpt><trkpt lat="38.0165317" lon="12.9779167"><ele>117.0</ele><time>2026-05-05T13:38:34.564Z</time></trkpt><trkpt lat="38.0165967" lon="12.9776183"><ele>117.0</ele><time>2026-05-05T13:38:35.565Z</time></trkpt><trkpt lat="38.0166633" lon="12.9773217"><ele>119.5</ele><time>2026-05-05T13:38:36.564Z</time></trkpt><trkpt lat="38.0167283" lon="12.977025"><ele>122.0</ele><time>2026-05-05T13:38:37.564Z</time></trkpt><trkpt lat="38.016795" lon="12.97673"><ele>123.0</ele><time>2026-05-05T13:38:38.564Z</time></trkpt><trkpt lat="38.01686" lon="12.976435"><ele>124.0</ele><time>2026-05-05T13:38:39.563Z</time></trkpt><trkpt lat="38.01693" lon="12.9761383"><ele>125.0</ele><time>2026-05-05T13:38:40.564Z</time></trkpt><trkpt lat="38.0169983" lon="12.975845"><ele>126.0</ele><time>2026-05-05T13:38:41.564Z</time></trkpt><trkpt lat="38.0170683" lon="12.9755533"><ele>126.0</ele><time>2026-05-05T13:38:42.564Z</time></trkpt><trkpt lat="38.0171367" lon="12.9752633"><ele>126.0</ele><time>2026-05-05T13:38:43.564Z</time></trkpt><trkpt lat="38.0172033" lon="12.9749717"><ele>124.0</ele><time>2026-05-05T13:38:44.564Z</time></trkpt><trkpt lat="38.01727" lon="12.9746783"><ele>122.0</ele><time>2026-05-05T13:38:45.564Z</time></trkpt><trkpt lat="38.0173383" lon="12.974385"><ele>119.5</ele><time>2026-05-05T13:38:46.563Z</time></trkpt><trkpt lat="38.0174083" lon="12.9740917"><ele>117.0</ele><time>2026-05-05T13:38:47.563Z</time></trkpt><trkpt lat="38.017475" lon="12.973795"><ele>119.0</ele><time>2026-05-05T13:38:48.563Z</time></trkpt><trkpt lat="38.0175433" lon="12.9735"><ele>121.0</ele><time>2026-05-05T13:38:49.564Z</time></trkpt><trkpt lat="38.0176117" lon="12.9732033"><ele>121.0</ele><time>2026-05-05T13:38:50.564Z</time></trkpt><trkpt lat="38.01768" lon="12.9729067"><ele>121.0</ele><time>2026-05-05T13:38:51.564Z</time></trkpt><trkpt lat="38.0177467" lon="12.9726083"><ele>120.5</ele><time>2026-05-05T13:38:52.564Z</time></trkpt><trkpt lat="38.0178117" lon="12.97231"><ele>120.0</ele><time>2026-05-05T13:38:53.564Z</time></trkpt><trkpt lat="38.017875" lon="12.97201"><ele>120.0</ele><time>2026-05-05T13:38:54.562Z</time></trkpt><trkpt lat="38.0179367" lon="12.9717117"><ele>120.0</ele><time>2026-05-05T13:38:55.563Z</time></trkpt><trkpt lat="38.0179967" lon="12.9714133"><ele>118.5</ele><time>2026-05-05T13:38:56.564Z</time></trkpt><trkpt lat="38.018055" lon="12.9711167"><ele>117.0</ele><time>2026-05-05T13:38:57.563Z</time></trkpt><trkpt lat="38.0181083" lon="12.9708217"><ele>117.0</ele><time>2026-05-05T13:38:58.563Z</time></trkpt><trkpt lat="38.01816" lon="12.97053"><ele>117.0</ele><time>2026-05-05T13:38:59.563Z</time></trkpt><trkpt lat="38.0182017" lon="12.97025"><ele>116.33333333333334</ele><time>2026-05-05T13:39:00.563Z</time></trkpt><trkpt lat="38.0182417" lon="12.9699817"><ele>115.66666666666667</ele><time>2026-05-05T13:39:01.564Z</time></trkpt><trkpt lat="38.018275" lon="12.969735"><ele>115.0</ele><time>2026-05-05T13:39:02.564Z</time></trkpt><trkpt lat="38.0183033" lon="12.9695033"><ele>116.33333333333334</ele><time>2026-05-05T13:39:03.564Z</time></trkpt><trkpt lat="38.0183283" lon="12.9692783"><ele>117.66666666666666</ele><time>2026-05-05T13:39:04.564Z</time></trkpt><trkpt lat="38.01835" lon="12.9690583"><ele>119.0</ele><time>2026-05-05T13:39:05.564Z</time></trkpt><trkpt lat="38.0183683" lon="12.9688367"><ele>119.66666666666666</ele><time>2026-05-05T13:39:06.564Z</time></trkpt><trkpt lat="38.0183833" lon="12.968595"><ele>120.33333333333334</ele><time>2026-05-05T13:39:07.564Z</time></trkpt><trkpt lat="38.01839" lon="12.9683333"><ele>121.0</ele><time>2026-05-05T13:39:08.563Z</time></trkpt><trkpt lat="38.0183917" lon="12.9680483"><ele>118.5</ele><time>2026-05-05T13:39:09.564Z</time></trkpt><trkpt lat="38.0183983" lon="12.9677483"><ele>116.0</ele><time>2026-05-05T13:39:10.563Z</time></trkpt><trkpt lat="38.0184083" lon="12.967435"><ele>114.0</ele><time>2026-05-05T13:39:11.565Z</time></trkpt><trkpt lat="38.01842" lon="12.967115"><ele>112.0</ele><time>2026-05-05T13:39:12.564Z</time></trkpt><trkpt lat="38.0184233" lon="12.96679"><ele>111.0</ele><time>2026-05-05T13:39:13.564Z</time></trkpt><trkpt lat="38.0184167" lon="12.96647"><ele>110.0</ele><time>2026-05-05T13:39:14.564Z</time></trkpt><trkpt lat="38.018405" lon="12.9661483"><ele>106.5</ele><time>2026-05-05T13:39:15.563Z</time></trkpt><trkpt lat="38.0183867" lon="12.9658317"><ele>103.0</ele><time>2026-05-05T13:39:16.564Z</time></trkpt><trkpt lat="38.0183633" lon="12.9655167"><ele>103.0</ele><time>2026-05-05T13:39:17.564Z</time></trkpt><trkpt lat="38.018335" lon="12.9652017"><ele>103.0</ele><time>2026-05-05T13:39:18.564Z</time></trkpt><trkpt lat="38.0183" lon="12.9648917"><ele>93.5</ele><time>2026-05-05T13:39:19.565Z</time></trkpt><trkpt lat="38.0182617" lon="12.9645867"><ele>84.0</ele><time>2026-05-05T13:39:20.563Z</time></trkpt><trkpt lat="38.01822" lon="12.964285"><ele>82.5</ele><time>2026-05-05T13:39:21.564Z</time></trkpt><trkpt lat="38.018175" lon="12.963985"><ele>81.0</ele><time>2026-05-05T13:39:22.563Z</time></trkpt><trkpt lat="38.018125" lon="12.9636883"><ele>81.0</ele><time>2026-05-05T13:39:23.563Z</time></trkpt><trkpt lat="38.0180717" lon="12.963395"><ele>81.0</ele><time>2026-05-05T13:39:24.564Z</time></trkpt><trkpt lat="38.018015" lon="12.9631083"><ele>81.0</ele><time>2026-05-05T13:39:25.565Z</time></trkpt><trkpt lat="38.0179567" lon="12.962825"><ele>81.0</ele><time>2026-05-05T13:39:26.564Z</time></trkpt><trkpt lat="38.0178933" lon="12.9625483"><ele>83.0</ele><time>2026-05-05T13:39:27.564Z</time></trkpt><trkpt lat="38.0178283" lon="12.9622783"><ele>85.0</ele><time>2026-05-05T13:39:28.564Z</time></trkpt><trkpt lat="38.01776" lon="12.9620083"><ele>87.0</ele><time>2026-05-05T13:39:29.564Z</time></trkpt><trkpt lat="38.0176883" lon="12.96174"><ele>93.5</ele><time>2026-05-05T13:39:30.563Z</time></trkpt><trkpt lat="38.017615" lon="12.9614717"><ele>100.0</ele><time>2026-05-05T13:39:31.564Z</time></trkpt><trkpt lat="38.017535" lon="12.9612017"><ele>101.0</ele><time>2026-05-05T13:39:32.563Z</time></trkpt><trkpt lat="38.0174517" lon="12.96093"><ele>102.0</ele><time>2026-05-05T13:39:33.564Z</time></trkpt><trkpt lat="38.0173633" lon="12.9606583"><ele>107.0</ele><time>2026-05-05T13:39:34.564Z</time></trkpt><trkpt lat="38.0172683" lon="12.960385"><ele>112.0</ele><time>2026-05-05T13:39:35.563Z</time></trkpt><trkpt lat="38.0171717" lon="12.9601117"><ele>113.0</ele><time>2026-05-05T13:39:36.563Z</time></trkpt><trkpt lat="38.0170717" lon="12.9598367"><ele>114.0</ele><time>2026-05-05T13:39:37.563Z</time></trkpt><trkpt lat="38.0169683" lon="12.9595617"><ele>114.0</ele><time>2026-05-05T13:39:38.565Z</time></trkpt><trkpt lat="38.0168617" lon="12.9592917"><ele>114.0</ele><time>2026-05-05T13:39:39.564Z</time></trkpt><trkpt lat="38.016755" lon="12.9590233"><ele>116.5</ele><time>2026-05-05T13:39:40.564Z</time></trkpt><trkpt lat="38.016645" lon="12.9587567"><ele>119.0</ele><time>2026-05-05T13:39:41.564Z</time></trkpt><trkpt lat="38.0165367" lon="12.9584933"><ele>119.5</ele><time>2026-05-05T13:39:42.564Z</time></trkpt><trkpt lat="38.0164267" lon="12.9582333"><ele>120.0</ele><time>2026-05-05T13:39:43.564Z</time></trkpt><trkpt lat="38.016315" lon="12.9579783"><ele>120.0</ele><time>2026-05-05T13:39:44.564Z</time></trkpt><trkpt lat="38.016205" lon="12.9577283"><ele>120.0</ele><time>2026-05-05T13:39:45.564Z</time></trkpt><trkpt lat="38.016095" lon="12.9574767"><ele>119.66666666666666</ele><time>2026-05-05T13:39:46.562Z</time></trkpt><trkpt lat="38.0159833" lon="12.9572317"><ele>119.33333333333333</ele><time>2026-05-05T13:39:47.564Z</time></trkpt><trkpt lat="38.015875" lon="12.9569867"><ele>119.0</ele><time>2026-05-05T13:39:48.564Z</time></trkpt><trkpt lat="38.015765" lon="12.9567417"><ele>118.0</ele><time>2026-05-05T13:39:49.564Z</time></trkpt><trkpt lat="38.015655" lon="12.956495"><ele>117.0</ele><time>2026-05-05T13:39:50.564Z</time></trkpt><trkpt lat="38.0155467" lon="12.9562433"><ele>116.0</ele><time>2026-05-05T13:39:51.563Z</time></trkpt><trkpt lat="38.0154367" lon="12.9559933"><ele>109.5</ele><time>2026-05-05T13:39:52.563Z</time></trkpt><trkpt lat="38.015325" lon="12.9557433"><ele>103.0</ele><time>2026-05-05T13:39:53.565Z</time></trkpt><trkpt lat="38.015215" lon="12.9554933"><ele>103.0</ele><time>2026-05-05T13:39:54.563Z</time></trkpt><trkpt lat="38.015105" lon="12.9552417"><ele>103.0</ele><time>2026-05-05T13:39:55.564Z</time></trkpt><trkpt lat="38.014995" lon="12.9549917"><ele>91.0</ele><time>2026-05-05T13:39:56.564Z</time></trkpt><trkpt lat="38.014885" lon="12.95474"><ele>79.0</ele><time>2026-05-05T13:39:57.562Z</time></trkpt><trkpt lat="38.014775" lon="12.9544883"><ele>79.0</ele><time>2026-05-05T13:39:58.564Z</time></trkpt><trkpt lat="38.0146633" lon="12.95424"><ele>79.0</ele><time>2026-05-05T13:39:59.565Z</time></trkpt><trkpt lat="38.0145517" lon="12.9539867"><ele>77.0</ele><time>2026-05-05T13:40:00.565Z</time></trkpt><trkpt lat="38.01444" lon="12.9537367"><ele>75.0</ele><time>2026-05-05T13:40:01.565Z</time></trkpt><trkpt lat="38.0143283" lon="12.9534867"><ele>76.5</ele><time>2026-05-05T13:40:02.564Z</time></trkpt><trkpt lat="38.0142183" lon="12.953235"><ele>78.0</ele><time>2026-05-05T13:40:03.565Z</time></trkpt><trkpt lat="38.0141083" lon="12.95298"><ele>80.0</ele><time>2026-05-05T13:40:04.565Z</time></trkpt><trkpt lat="38.0139983" lon="12.9527233"><ele>82.0</ele><time>2026-05-05T13:40:05.565Z</time></trkpt><trkpt lat="38.01389" lon="12.9524633"><ele>88.5</ele><time>2026-05-05T13:40:06.564Z</time></trkpt><trkpt lat="38.01378" lon="12.9522033"><ele>95.0</ele><time>2026-05-05T13:40:07.565Z</time></trkpt><trkpt lat="38.0136717" lon="12.95194"><ele>95.0</ele><time>2026-05-05T13:40:08.565Z</time></trkpt><trkpt lat="38.013565" lon="12.9516733"><ele>95.0</ele><time>2026-05-05T13:40:09.565Z</time></trkpt><trkpt lat="38.0134583" lon="12.9514067"><ele>95.0</ele><time>2026-05-05T13:40:10.564Z</time></trkpt><trkpt lat="38.0133533" lon="12.95114"><ele>95.0</ele><time>2026-05-05T13:40:11.564Z</time></trkpt><trkpt lat="38.0132517" lon="12.9508733"><ele>89.5</ele><time>2026-05-05T13:40:12.565Z</time></trkpt><trkpt lat="38.0131483" lon="12.9506017"><ele>84.0</ele><time>2026-05-05T13:40:13.565Z</time></trkpt><trkpt lat="38.0130483" lon="12.9503283"><ele>84.0</ele><time>2026-05-05T13:40:14.566Z</time></trkpt><trkpt lat="38.0129517" lon="12.9500533"><ele>84.0</ele><time>2026-05-05T13:40:15.563Z</time></trkpt><trkpt lat="38.012855" lon="12.949775"><ele>83.0</ele><time>2026-05-05T13:40:16.563Z</time></trkpt><trkpt lat="38.01276" lon="12.9494933"><ele>82.0</ele><time>2026-05-05T13:40:17.564Z</time></trkpt><trkpt lat="38.0126667" lon="12.9492117"><ele>87.0</ele><time>2026-05-05T13:40:18.564Z</time></trkpt><trkpt lat="38.0125733" lon="12.948925"><ele>92.0</ele><time>2026-05-05T13:40:19.564Z</time></trkpt><trkpt lat="38.0124817" lon="12.9486417"><ele>102.0</ele><time>2026-05-05T13:40:20.564Z</time></trkpt><trkpt lat="38.0123917" lon="12.948355"><ele>112.0</ele><time>2026-05-05T13:40:21.564Z</time></trkpt><trkpt lat="38.0123033" lon="12.9480717"><ele>112.0</ele><time>2026-05-05T13:40:22.564Z</time></trkpt><trkpt lat="38.0122183" lon="12.947785"><ele>112.0</ele><time>2026-05-05T13:40:23.564Z</time></trkpt><trkpt lat="38.012135" lon="12.9474983"><ele>116.5</ele><time>2026-05-05T13:40:24.564Z</time></trkpt><trkpt lat="38.012055" lon="12.9472117"><ele>121.0</ele><time>2026-05-05T13:40:25.563Z</time></trkpt><trkpt lat="38.0119767" lon="12.946925"><ele>119.0</ele><time>2026-05-05T13:40:26.563Z</time></trkpt><trkpt lat="38.0119017" lon="12.9466383"><ele>117.0</ele><time>2026-05-05T13:40:27.565Z</time></trkpt><trkpt lat="38.0118267" lon="12.9463517"><ele>117.0</ele><time>2026-05-05T13:40:28.564Z</time></trkpt><trkpt lat="38.0117567" lon="12.9460633"><ele>117.0</ele><time>2026-05-05T13:40:29.565Z</time></trkpt><trkpt lat="38.0116917" lon="12.945775"><ele>117.5</ele><time>2026-05-05T13:40:30.563Z</time></trkpt><trkpt lat="38.01163" lon="12.945485"><ele>118.0</ele><time>2026-05-05T13:40:31.563Z</time></trkpt><trkpt lat="38.0115683" lon="12.9451933"><ele>117.5</ele><time>2026-05-05T13:40:32.564Z</time></trkpt><trkpt lat="38.01151" lon="12.9449033"><ele>117.0</ele><time>2026-05-05T13:40:33.564Z</time></trkpt><trkpt lat="38.01145" lon="12.9446133"><ele>117.0</ele><time>2026-05-05T13:40:34.564Z</time></trkpt><trkpt lat="38.0113933" lon="12.944325"><ele>117.0</ele><time>2026-05-05T13:40:35.563Z</time></trkpt><trkpt lat="38.0113367" lon="12.9440317"><ele>119.0</ele><time>2026-05-05T13:40:36.563Z</time></trkpt><trkpt lat="38.011285" lon="12.9437417"><ele>121.0</ele><time>2026-05-05T13:40:37.564Z</time></trkpt><trkpt lat="38.011235" lon="12.94345"><ele>119.5</ele><time>2026-05-05T13:40:38.563Z</time></trkpt><trkpt lat="38.0111883" lon="12.9431533"><ele>118.0</ele><time>2026-05-05T13:40:39.563Z</time></trkpt><trkpt lat="38.0111417" lon="12.9428567"><ele>118.0</ele><time>2026-05-05T13:40:40.564Z</time></trkpt><trkpt lat="38.0110967" lon="12.9425583"><ele>118.0</ele><time>2026-05-05T13:40:41.564Z</time></trkpt><trkpt lat="38.0110533" lon="12.9422617"><ele>116.0</ele><time>2026-05-05T13:40:42.564Z</time></trkpt><trkpt lat="38.0110083" lon="12.941965"><ele>114.0</ele><time>2026-05-05T13:40:43.563Z</time></trkpt><trkpt lat="38.0109667" lon="12.94167"><ele>114.0</ele><time>2026-05-05T13:40:44.563Z</time></trkpt><trkpt lat="38.0109267" lon="12.9413733"><ele>114.0</ele><time>2026-05-05T13:40:45.563Z</time></trkpt><trkpt lat="38.0108883" lon="12.9410783"><ele>110.0</ele><time>2026-05-05T13:40:46.562Z</time></trkpt><trkpt lat="38.0108533" lon="12.9407833"><ele>106.0</ele><time>2026-05-05T13:40:47.564Z</time></trkpt><trkpt lat="38.0108167" lon="12.9404883"><ele>106.0</ele><time>2026-05-05T13:40:48.564Z</time></trkpt><trkpt lat="38.0107817" lon="12.940195"><ele>106.0</ele><time>2026-05-05T13:40:49.564Z</time></trkpt><trkpt lat="38.010745" lon="12.9399017"><ele>99.0</ele><time>2026-05-05T13:40:50.564Z</time></trkpt><trkpt lat="38.01071" lon="12.93961"><ele>92.0</ele><time>2026-05-05T13:40:51.563Z</time></trkpt><trkpt lat="38.0106733" lon="12.9393217"><ele>88.5</ele><time>2026-05-05T13:40:52.564Z</time></trkpt><trkpt lat="38.0106367" lon="12.9390383"><ele>85.0</ele><time>2026-05-05T13:40:53.563Z</time></trkpt><trkpt lat="38.0106017" lon="12.9387567"><ele>85.0</ele><time>2026-05-05T13:40:54.563Z</time></trkpt><trkpt lat="38.0105667" lon="12.938475"><ele>85.0</ele><time>2026-05-05T13:40:55.564Z</time></trkpt><trkpt lat="38.0105317" lon="12.938195"><ele>85.0</ele><time>2026-05-05T13:40:56.563Z</time></trkpt><trkpt lat="38.0104933" lon="12.9379133"><ele>90.0</ele><time>2026-05-05T13:40:57.563Z</time></trkpt><trkpt lat="38.010455" lon="12.9376317"><ele>95.0</ele><time>2026-05-05T13:40:58.564Z</time></trkpt><trkpt lat="38.010415" lon="12.9373533"><ele>100.0</ele><time>2026-05-05T13:40:59.564Z</time></trkpt><trkpt lat="38.0103733" lon="12.9370783"><ele>106.0</ele><time>2026-05-05T13:41:00.564Z</time></trkpt><trkpt lat="38.0103317" lon="12.9368017"><ele>112.0</ele><time>2026-05-05T13:41:01.563Z</time></trkpt><trkpt lat="38.0102867" lon="12.9365267"><ele>118.0</ele><time>2026-05-05T13:41:02.564Z</time></trkpt><trkpt lat="38.01024" lon="12.9362533"><ele>118.66666666666667</ele><time>2026-05-05T13:41:03.563Z</time></trkpt><trkpt lat="38.0101933" lon="12.9359833"><ele>119.33333333333334</ele><time>2026-05-05T13:41:04.564Z</time></trkpt><trkpt lat="38.0101467" lon="12.935715"><ele>120.0</ele><time>2026-05-05T13:41:05.564Z</time></trkpt><trkpt lat="38.0100983" lon="12.935445"><ele>120.33333333333334</ele><time>2026-05-05T13:41:06.563Z</time></trkpt><trkpt lat="38.01005" lon="12.93517"><ele>120.66666666666667</ele><time>2026-05-05T13:41:07.562Z</time></trkpt><trkpt lat="38.01" lon="12.9348917"><ele>121.0</ele><time>2026-05-05T13:41:08.564Z</time></trkpt><trkpt lat="38.009945" lon="12.9346133"><ele>114.5</ele><time>2026-05-05T13:41:09.565Z</time></trkpt><trkpt lat="38.009885" lon="12.934335"><ele>108.0</ele><time>2026-05-05T13:41:10.564Z</time></trkpt><trkpt lat="38.0098217" lon="12.934055"><ele>108.0</ele><time>2026-05-05T13:41:11.563Z</time></trkpt><trkpt lat="38.009755" lon="12.9337783"><ele>108.0</ele><time>2026-05-05T13:41:12.562Z</time></trkpt><trkpt lat="38.009685" lon="12.9335017"><ele>114.5</ele><time>2026-05-05T13:41:13.563Z</time></trkpt><trkpt lat="38.0096133" lon="12.9332233"><ele>121.0</ele><time>2026-05-05T13:41:14.564Z</time></trkpt><trkpt lat="38.0095367" lon="12.9329467"><ele>121.0</ele><time>2026-05-05T13:41:15.563Z</time></trkpt><trkpt lat="38.0094583" lon="12.93267"><ele>121.0</ele><time>2026-05-05T13:41:16.563Z</time></trkpt><trkpt lat="38.009375" lon="12.932395"><ele>122.5</ele><time>2026-05-05T13:41:17.564Z</time></trkpt><trkpt lat="38.0092867" lon="12.932115"><ele>124.0</ele><time>2026-05-05T13:41:18.564Z</time></trkpt><trkpt lat="38.0091967" lon="12.9318383"><ele>125.0</ele><time>2026-05-05T13:41:19.564Z</time></trkpt><trkpt lat="38.0091017" lon="12.9315633"><ele>126.0</ele><time>2026-05-05T13:41:20.565Z</time></trkpt><trkpt lat="38.0090033" lon="12.93129"><ele>126.0</ele><time>2026-05-05T13:41:21.565Z</time></trkpt><trkpt lat="38.008905" lon="12.9310133"><ele>126.0</ele><time>2026-05-05T13:41:22.565Z</time></trkpt><trkpt lat="38.0088017" lon="12.9307367"><ele>126.5</ele><time>2026-05-05T13:41:23.565Z</time></trkpt><trkpt lat="38.0086933" lon="12.9304583"><ele>127.0</ele><time>2026-05-05T13:41:24.563Z</time></trkpt><trkpt lat="38.0085817" lon="12.930185"><ele>127.5</ele><time>2026-05-05T13:41:25.565Z</time></trkpt><trkpt lat="38.0084667" lon="12.9299117"><ele>128.0</ele><time>2026-05-05T13:41:26.563Z</time></trkpt><trkpt lat="38.0083517" lon="12.9296383"><ele>128.0</ele><time>2026-05-05T13:41:27.564Z</time></trkpt><trkpt lat="38.0082333" lon="12.9293667"><ele>128.0</ele><time>2026-05-05T13:41:28.564Z</time></trkpt><trkpt lat="38.00811" lon="12.9291"><ele>128.0</ele><time>2026-05-05T13:41:29.564Z</time></trkpt><trkpt lat="38.00799" lon="12.9288367"><ele>128.0</ele><time>2026-05-05T13:41:30.563Z</time></trkpt><trkpt lat="38.0078667" lon="12.9285783"><ele>126.5</ele><time>2026-05-05T13:41:31.564Z</time></trkpt><trkpt lat="38.00774" lon="12.92832"><ele>125.0</ele><time>2026-05-05T13:41:32.565Z</time></trkpt><trkpt lat="38.0076117" lon="12.928065"><ele>126.5</ele><time>2026-05-05T13:41:33.564Z</time></trkpt><trkpt lat="38.00748" lon="12.927805"><ele>128.0</ele><time>2026-05-05T13:41:34.563Z</time></trkpt><trkpt lat="38.007345" lon="12.92755"><ele>128.5</ele><time>2026-05-05T13:41:35.563Z</time></trkpt><trkpt lat="38.007205" lon="12.9273"><ele>129.0</ele><time>2026-05-05T13:41:36.563Z</time></trkpt><trkpt lat="38.007065" lon="12.927045"><ele>129.0</ele><time>2026-05-05T13:41:37.563Z</time></trkpt><trkpt lat="38.0069183" lon="12.9267967"><ele>129.0</ele><time>2026-05-05T13:41:38.564Z</time></trkpt><trkpt lat="38.00677" lon="12.9265483"><ele>130.0</ele><time>2026-05-05T13:41:39.564Z</time></trkpt><trkpt lat="38.0066167" lon="12.9263"><ele>131.0</ele><time>2026-05-05T13:41:40.563Z</time></trkpt><trkpt lat="38.0064633" lon="12.9260533"><ele>130.0</ele><time>2026-05-05T13:41:41.563Z</time></trkpt><trkpt lat="38.0063067" lon="12.9258083"><ele>129.0</ele><time>2026-05-05T13:41:42.563Z</time></trkpt><trkpt lat="38.006145" lon="12.9255683"><ele>129.0</ele><time>2026-05-05T13:41:43.563Z</time></trkpt><trkpt lat="38.0059783" lon="12.9253283"><ele>129.0</ele><time>2026-05-05T13:41:44.564Z</time></trkpt><trkpt lat="38.0058083" lon="12.9250933"><ele>130.0</ele><time>2026-05-05T13:41:45.563Z</time></trkpt><trkpt lat="38.0056333" lon="12.9248567"><ele>131.0</ele><time>2026-05-05T13:41:46.564Z</time></trkpt><trkpt lat="38.0054567" lon="12.92462"><ele>131.0</ele><time>2026-05-05T13:41:47.564Z</time></trkpt><trkpt lat="38.0052733" lon="12.9243967"><ele>131.0</ele><time>2026-05-05T13:41:48.562Z</time></trkpt><trkpt lat="38.0050883" lon="12.92417"><ele>125.5</ele><time>2026-05-05T13:41:49.564Z</time></trkpt><trkpt lat="38.0049" lon="12.92395"><ele>120.0</ele><time>2026-05-05T13:41:50.563Z</time></trkpt><trkpt lat="38.0047117" lon="12.9237333"><ele>120.0</ele><time>2026-05-05T13:41:51.563Z</time></trkpt><trkpt lat="38.00453" lon="12.9235233"><ele>120.0</ele><time>2026-05-05T13:41:52.564Z</time></trkpt><trkpt lat="38.0043517" lon="12.923325"><ele>117.0</ele><time>2026-05-05T13:41:53.564Z</time></trkpt><trkpt lat="38.0041733" lon="12.9231267"><ele>114.0</ele><time>2026-05-05T13:41:54.564Z</time></trkpt><trkpt lat="38.00399" lon="12.9229283"><ele>107.5</ele><time>2026-05-05T13:41:55.562Z</time></trkpt><trkpt lat="38.0038033" lon="12.9227317"><ele>101.0</ele><time>2026-05-05T13:41:56.564Z</time></trkpt><trkpt lat="38.0036133" lon="12.92254"><ele>101.0</ele><time>2026-05-05T13:41:57.563Z</time></trkpt><trkpt lat="38.0034183" lon="12.9223533"><ele>101.0</ele><time>2026-05-05T13:41:58.563Z</time></trkpt><trkpt lat="38.00322" lon="12.92217"><ele>102.5</ele><time>2026-05-05T13:41:59.563Z</time></trkpt><trkpt lat="38.0030183" lon="12.9219833"><ele>104.0</ele><time>2026-05-05T13:42:00.563Z</time></trkpt><trkpt lat="38.002815" lon="12.9217983"><ele>99.5</ele><time>2026-05-05T13:42:01.564Z</time></trkpt><trkpt lat="38.0026083" lon="12.921615"><ele>95.0</ele><time>2026-05-05T13:42:02.563Z</time></trkpt><trkpt lat="38.0023983" lon="12.921435"><ele>94.0</ele><time>2026-05-05T13:42:03.563Z</time></trkpt><trkpt lat="38.002185" lon="12.92126"><ele>93.0</ele><time>2026-05-05T13:42:04.563Z</time></trkpt><trkpt lat="38.001975" lon="12.921095"><ele>93.0</ele><time>2026-05-05T13:42:05.564Z</time></trkpt><trkpt lat="38.0017717" lon="12.9209367"><ele>93.0</ele><time>2026-05-05T13:42:06.563Z</time></trkpt><trkpt lat="38.0015717" lon="12.9207867"><ele>92.0</ele><time>2026-05-05T13:42:07.564Z</time></trkpt><trkpt lat="38.00137" lon="12.9206383"><ele>91.0</ele><time>2026-05-05T13:42:08.564Z</time></trkpt><trkpt lat="38.001165" lon="12.920495"><ele>91.0</ele><time>2026-05-05T13:42:09.564Z</time></trkpt><trkpt lat="38.000955" lon="12.920355"><ele>91.0</ele><time>2026-05-05T13:42:10.564Z</time></trkpt><trkpt lat="38.0007433" lon="12.9202167"><ele>91.5</ele><time>2026-05-05T13:42:11.565Z</time></trkpt><trkpt lat="38.0005283" lon="12.92008"><ele>92.0</ele><time>2026-05-05T13:42:12.564Z</time></trkpt><trkpt lat="38.0003117" lon="12.9199483"><ele>88.0</ele><time>2026-05-05T13:42:13.564Z</time></trkpt><trkpt lat="38.0000933" lon="12.91982"><ele>84.0</ele><time>2026-05-05T13:42:14.564Z</time></trkpt><trkpt lat="37.9998717" lon="12.91969"><ele>84.0</ele><time>2026-05-05T13:42:15.564Z</time></trkpt><trkpt lat="37.999645" lon="12.919565"><ele>84.0</ele><time>2026-05-05T13:42:16.563Z</time></trkpt><trkpt lat="37.999415" lon="12.9194417"><ele>84.0</ele><time>2026-05-05T13:42:17.564Z</time></trkpt><trkpt lat="37.9991833" lon="12.91932"><ele>84.0</ele><time>2026-05-05T13:42:18.564Z</time></trkpt><trkpt lat="37.99895" lon="12.919205"><ele>77.5</ele><time>2026-05-05T13:42:19.564Z</time></trkpt><trkpt lat="37.9987167" lon="12.91909"><ele>71.0</ele><time>2026-05-05T13:42:20.565Z</time></trkpt><trkpt lat="37.99848" lon="12.918975"><ele>69.5</ele><time>2026-05-05T13:42:21.563Z</time></trkpt><trkpt lat="37.99824" lon="12.9188667"><ele>68.0</ele><time>2026-05-05T13:42:22.563Z</time></trkpt><trkpt lat="37.998" lon="12.9187617"><ele>68.0</ele><time>2026-05-05T13:42:23.564Z</time></trkpt><trkpt lat="37.9977617" lon="12.9186633"><ele>68.0</ele><time>2026-05-05T13:42:24.564Z</time></trkpt><trkpt lat="37.99753" lon="12.9185667"><ele>68.5</ele><time>2026-05-05T13:42:25.565Z</time></trkpt><trkpt lat="37.997305" lon="12.91848"><ele>69.0</ele><time>2026-05-05T13:42:26.564Z</time></trkpt><trkpt lat="37.9970867" lon="12.918395"><ele>67.66666666666667</ele><time>2026-05-05T13:42:27.564Z</time></trkpt><trkpt lat="37.9968733" lon="12.9183133"><ele>66.33333333333334</ele><time>2026-05-05T13:42:28.564Z</time></trkpt><trkpt lat="37.9966617" lon="12.9182367"><ele>65.0</ele><time>2026-05-05T13:42:29.564Z</time></trkpt><trkpt lat="37.9964483" lon="12.9181667"><ele>65.0</ele><time>2026-05-05T13:42:30.565Z</time></trkpt><trkpt lat="37.9962317" lon="12.9181"><ele>65.0</ele><time>2026-05-05T13:42:31.563Z</time></trkpt><trkpt lat="37.9960117" lon="12.9180367"><ele>65.0</ele><time>2026-05-05T13:42:32.564Z</time></trkpt><trkpt lat="37.9957867" lon="12.9179717"><ele>65.0</ele><time>2026-05-05T13:42:33.565Z</time></trkpt><trkpt lat="37.99556" lon="12.9179083"><ele>65.0</ele><time>2026-05-05T13:42:34.564Z</time></trkpt><trkpt lat="37.9953317" lon="12.91785"><ele>65.0</ele><time>2026-05-05T13:42:35.564Z</time></trkpt><trkpt lat="37.9951017" lon="12.9177917"><ele>65.0</ele><time>2026-05-05T13:42:36.565Z</time></trkpt><trkpt lat="37.9948667" lon="12.9177367"><ele>63.0</ele><time>2026-05-05T13:42:37.566Z</time></trkpt><trkpt lat="37.9946283" lon="12.9176867"><ele>61.0</ele><time>2026-05-05T13:42:38.565Z</time></trkpt><trkpt lat="37.99439" lon="12.9176417"><ele>59.5</ele><time>2026-05-05T13:42:39.564Z</time></trkpt><trkpt lat="37.9941467" lon="12.9175967"><ele>58.0</ele><time>2026-05-05T13:42:40.566Z</time></trkpt><trkpt lat="37.9939017" lon="12.917555"><ele>52.0</ele><time>2026-05-05T13:42:41.564Z</time></trkpt><trkpt lat="37.9936517" lon="12.917515"><ele>46.0</ele><time>2026-05-05T13:42:42.564Z</time></trkpt><trkpt lat="37.993405" lon="12.91748"><ele>46.5</ele><time>2026-05-05T13:42:43.564Z</time></trkpt><trkpt lat="37.993165" lon="12.9174483"><ele>47.0</ele><time>2026-05-05T13:42:44.566Z</time></trkpt><trkpt lat="37.9929317" lon="12.9174217"><ele>47.0</ele><time>2026-05-05T13:42:45.563Z</time></trkpt><trkpt lat="37.992705" lon="12.9174"><ele>47.0</ele><time>2026-05-05T13:42:46.564Z</time></trkpt><trkpt lat="37.9924783" lon="12.9173817"><ele>41.5</ele><time>2026-05-05T13:42:47.564Z</time></trkpt><trkpt lat="37.9922483" lon="12.917365"><ele>36.0</ele><time>2026-05-05T13:42:48.564Z</time></trkpt><trkpt lat="37.9920183" lon="12.9173517"><ele>36.0</ele><time>2026-05-05T13:42:49.564Z</time></trkpt><trkpt lat="37.9917833" lon="12.91734"><ele>36.0</ele><time>2026-05-05T13:42:50.565Z</time></trkpt><trkpt lat="37.9915467" lon="12.9173333"><ele>33.5</ele><time>2026-05-05T13:42:51.564Z</time></trkpt><trkpt lat="37.9913033" lon="12.9173283"><ele>31.0</ele><time>2026-05-05T13:42:52.563Z</time></trkpt><trkpt lat="37.99106" lon="12.9173267"><ele>30.5</ele><time>2026-05-05T13:42:53.564Z</time></trkpt><trkpt lat="37.990815" lon="12.9173283"><ele>30.0</ele><time>2026-05-05T13:42:54.563Z</time></trkpt><trkpt lat="37.9905683" lon="12.917335"><ele>30.0</ele><time>2026-05-05T13:42:55.564Z</time></trkpt><trkpt lat="37.9903183" lon="12.9173417"><ele>30.0</ele><time>2026-05-05T13:42:56.565Z</time></trkpt><trkpt lat="37.9900667" lon="12.917355"><ele>28.0</ele><time>2026-05-05T13:42:57.565Z</time></trkpt><trkpt lat="37.9898133" lon="12.9173733"><ele>26.0</ele><time>2026-05-05T13:42:58.564Z</time></trkpt><trkpt lat="37.9895583" lon="12.9173933"><ele>26.0</ele><time>2026-05-05T13:42:59.565Z</time></trkpt><trkpt lat="37.9893033" lon="12.9174183"><ele>26.0</ele><time>2026-05-05T13:43:00.563Z</time></trkpt><trkpt lat="37.98905" lon="12.917445"><ele>26.0</ele><time>2026-05-05T13:43:01.563Z</time></trkpt><trkpt lat="37.9888017" lon="12.9174767"><ele>26.0</ele><time>2026-05-05T13:43:02.565Z</time></trkpt><trkpt lat="37.98856" lon="12.9175083"><ele>25.5</ele><time>2026-05-05T13:43:03.564Z</time></trkpt><trkpt lat="37.988325" lon="12.9175433"><ele>25.0</ele><time>2026-05-05T13:43:04.564Z</time></trkpt><trkpt lat="37.9880967" lon="12.9175783"><ele>24.5</ele><time>2026-05-05T13:43:05.563Z</time></trkpt><trkpt lat="37.9878683" lon="12.9176117"><ele>24.0</ele><time>2026-05-05T13:43:06.565Z</time></trkpt><trkpt lat="37.98764" lon="12.9176433"><ele>27.0</ele><time>2026-05-05T13:43:07.565Z</time></trkpt><trkpt lat="37.9874083" lon="12.9176767"><ele>30.0</ele><time>2026-05-05T13:43:08.565Z</time></trkpt><trkpt lat="37.9871767" lon="12.9177133"><ele>30.0</ele><time>2026-05-05T13:43:09.564Z</time></trkpt><trkpt lat="37.986945" lon="12.9177533"><ele>30.0</ele><time>2026-05-05T13:43:10.565Z</time></trkpt><trkpt lat="37.9867183" lon="12.9177967"><ele>30.0</ele><time>2026-05-05T13:43:11.564Z</time></trkpt><trkpt lat="37.9865" lon="12.91784"><ele>30.0</ele><time>2026-05-05T13:43:12.564Z</time></trkpt><trkpt lat="37.9862917" lon="12.9178833"><ele>30.0</ele><time>2026-05-05T13:43:13.565Z</time></trkpt><trkpt lat="37.9860883" lon="12.917925"><ele>30.0</ele><time>2026-05-05T13:43:14.566Z</time></trkpt><trkpt lat="37.9858917" lon="12.9179667"><ele>30.0</ele><time>2026-05-05T13:43:15.565Z</time></trkpt><trkpt lat="37.9856967" lon="12.9180117"><ele>30.0</ele><time>2026-05-05T13:43:16.563Z</time></trkpt><trkpt lat="37.9855" lon="12.91806"><ele>32.333333333333336</ele><time>2026-05-05T13:43:17.565Z</time></trkpt><trkpt lat="37.9853" lon="12.9181083"><ele>34.66666666666667</ele><time>2026-05-05T13:43:18.565Z</time></trkpt><trkpt lat="37.9850967" lon="12.9181583"><ele>37.0</ele><time>2026-05-05T13:43:19.565Z</time></trkpt><trkpt lat="37.9848917" lon="12.9182117"><ele>37.66666666666667</ele><time>2026-05-05T13:43:20.565Z</time></trkpt><trkpt lat="37.9846867" lon="12.9182667"><ele>38.333333333333336</ele><time>2026-05-05T13:43:21.564Z</time></trkpt><trkpt lat="37.98448" lon="12.9183267"><ele>39.0</ele><time>2026-05-05T13:43:22.564Z</time></trkpt><trkpt lat="37.98427" lon="12.9183883"><ele>38.0</ele><time>2026-05-05T13:43:23.564Z</time></trkpt><trkpt lat="37.9840633" lon="12.91845"><ele>37.0</ele><time>2026-05-05T13:43:24.565Z</time></trkpt><trkpt lat="37.9838633" lon="12.9185117"><ele>36.0</ele><time>2026-05-05T13:43:25.564Z</time></trkpt><trkpt lat="37.9836717" lon="12.91857"><ele>36.0</ele><time>2026-05-05T13:43:26.565Z</time></trkpt><trkpt lat="37.9834867" lon="12.9186283"><ele>36.0</ele><time>2026-05-05T13:43:27.564Z</time></trkpt><trkpt lat="37.9833" lon="12.9186867"><ele>36.0</ele><time>2026-05-05T13:43:28.564Z</time></trkpt><trkpt lat="37.9831167" lon="12.9187483"><ele>37.0</ele><time>2026-05-05T13:43:29.564Z</time></trkpt><trkpt lat="37.9829383" lon="12.9188117"><ele>38.0</ele><time>2026-05-05T13:43:30.564Z</time></trkpt><trkpt lat="37.9827667" lon="12.9188733"><ele>39.0</ele><time>2026-05-05T13:43:31.565Z</time></trkpt><trkpt lat="37.982605" lon="12.9189333"><ele>39.333333333333336</ele><time>2026-05-05T13:43:32.565Z</time></trkpt><trkpt lat="37.98245" lon="12.9189917"><ele>39.66666666666667</ele><time>2026-05-05T13:43:33.565Z</time></trkpt><trkpt lat="37.9823017" lon="12.919045"><ele>40.0</ele><time>2026-05-05T13:43:34.565Z</time></trkpt><trkpt lat="37.9821567" lon="12.919085"><ele>40.0</ele><time>2026-05-05T13:43:35.564Z</time></trkpt><trkpt lat="37.9820167" lon="12.9191067"><ele>40.0</ele><time>2026-05-05T13:43:36.566Z</time></trkpt><trkpt lat="37.9818833" lon="12.919105"><ele>40.0</ele><time>2026-05-05T13:43:37.564Z</time></trkpt><trkpt lat="37.98176" lon="12.91908"><ele>40.0</ele><time>2026-05-05T13:43:38.565Z</time></trkpt><trkpt lat="37.9816533" lon="12.91903"><ele>40.0</ele><time>2026-05-05T13:43:39.564Z</time></trkpt><trkpt lat="37.98156" lon="12.9189617"><ele>40.0</ele><time>2026-05-05T13:43:40.564Z</time></trkpt><trkpt lat="37.9814817" lon="12.9188767"><ele>40.0</ele><time>2026-05-05T13:43:41.564Z</time></trkpt><trkpt lat="37.9814133" lon="12.9187767"><ele>40.0</ele><time>2026-05-05T13:43:42.565Z</time></trkpt><trkpt lat="37.98136" lon="12.9186567"><ele>40.0</ele><time>2026-05-05T13:43:43.563Z</time></trkpt><trkpt lat="37.9813217" lon="12.9185183"><ele>40.25</ele><time>2026-05-05T13:43:44.563Z</time></trkpt><trkpt lat="37.9813" lon="12.9183667"><ele>40.5</ele><time>2026-05-05T13:43:45.564Z</time></trkpt><trkpt lat="37.981285" lon="12.918205"><ele>40.75</ele><time>2026-05-05T13:43:46.565Z</time></trkpt><trkpt lat="37.9812767" lon="12.918035"><ele>41.0</ele><time>2026-05-05T13:43:47.564Z</time></trkpt><trkpt lat="37.9812767" lon="12.9178667"><ele>41.0</ele><time>2026-05-05T13:43:48.565Z</time></trkpt><trkpt lat="37.98129" lon="12.9177067"><ele>41.0</ele><time>2026-05-05T13:43:49.564Z</time></trkpt><trkpt lat="37.9813183" lon="12.9175583"><ele>41.0</ele><time>2026-05-05T13:43:50.564Z</time></trkpt><trkpt lat="37.98136" lon="12.9174233"><ele>41.0</ele><time>2026-05-05T13:43:51.564Z</time></trkpt><trkpt lat="37.9814133" lon="12.917305"><ele>41.0</ele><time>2026-05-05T13:43:52.567Z</time></trkpt><trkpt lat="37.98148" lon="12.9172083"><ele>41.0</ele><time>2026-05-05T13:43:53.564Z</time></trkpt><trkpt lat="37.981565" lon="12.917135"><ele>41.0</ele><time>2026-05-05T13:43:54.564Z</time></trkpt><trkpt lat="37.9816683" lon="12.9170867"><ele>41.0</ele><time>2026-05-05T13:43:55.563Z</time></trkpt><trkpt lat="37.9817883" lon="12.91705"><ele>41.0</ele><time>2026-05-05T13:43:56.565Z</time></trkpt><trkpt lat="37.9819167" lon="12.9170117"><ele>41.0</ele><time>2026-05-05T13:43:57.564Z</time></trkpt><trkpt lat="37.982055" lon="12.9169633"><ele>41.0</ele><time>2026-05-05T13:43:58.564Z</time></trkpt><trkpt lat="37.9822" lon="12.916915"><ele>41.0</ele><time>2026-05-05T13:43:59.564Z</time></trkpt><trkpt lat="37.982355" lon="12.9168633"><ele>39.666666666666664</ele><time>2026-05-05T13:44:00.563Z</time></trkpt><trkpt lat="37.982515" lon="12.916815"><ele>38.333333333333336</ele><time>2026-05-05T13:44:01.564Z</time></trkpt><trkpt lat="37.9826817" lon="12.9167683"><ele>37.0</ele><time>2026-05-05T13:44:02.565Z</time></trkpt><trkpt lat="37.98285" lon="12.9167217"><ele>37.0</ele><time>2026-05-05T13:44:03.565Z</time></trkpt><trkpt lat="37.98302" lon="12.916675"><ele>37.0</ele><time>2026-05-05T13:44:04.564Z</time></trkpt><trkpt lat="37.9831817" lon="12.916625"><ele>37.0</ele><time>2026-05-05T13:44:05.565Z</time></trkpt><trkpt lat="37.983335" lon="12.9165633"><ele>36.75</ele><time>2026-05-05T13:44:06.565Z</time></trkpt><trkpt lat="37.983465" lon="12.91648"><ele>36.5</ele><time>2026-05-05T13:44:07.563Z</time></trkpt><trkpt lat="37.9835517" lon="12.91637"><ele>36.25</ele><time>2026-05-05T13:44:08.564Z</time></trkpt><trkpt lat="37.983595" lon="12.9162417"><ele>36.0</ele><time>2026-05-05T13:44:09.563Z</time></trkpt><trkpt lat="37.9836217" lon="12.9161117"><ele>36.0</ele><time>2026-05-05T13:44:10.564Z</time></trkpt><trkpt lat="37.983645" lon="12.9159833"><ele>36.0</ele><time>2026-05-05T13:44:11.564Z</time></trkpt><trkpt lat="37.9836433" lon="12.9158583"><ele>36.0</ele><time>2026-05-05T13:44:12.563Z</time></trkpt><trkpt lat="37.983605" lon="12.9157483"><ele>36.0</ele><time>2026-05-05T13:44:13.564Z</time></trkpt><trkpt lat="37.98355" lon="12.9156617"><ele>36.0</ele><time>2026-05-05T13:44:14.564Z</time></trkpt><trkpt lat="37.9834733" lon="12.9156117"><ele>36.0</ele><time>2026-05-05T13:44:15.563Z</time></trkpt><trkpt lat="37.9833717" lon="12.915625"><ele>36.0</ele><time>2026-05-05T13:44:16.564Z</time></trkpt><trkpt lat="37.983275" lon="12.9156383"><ele>36.0</ele><time>2026-05-05T13:44:17.564Z</time></trkpt><trkpt lat="37.9831717" lon="12.9156467"><ele>36.0</ele><time>2026-05-05T13:44:18.564Z</time></trkpt><trkpt lat="37.9830717" lon="12.915655"><ele>36.0</ele><time>2026-05-05T13:44:19.564Z</time></trkpt><trkpt lat="37.9829833" lon="12.9156617"><ele>36.6</ele><time>2026-05-05T13:44:20.565Z</time></trkpt><trkpt lat="37.9828967" lon="12.915665"><ele>37.2</ele><time>2026-05-05T13:44:21.565Z</time></trkpt><trkpt lat="37.98281" lon="12.91567"><ele>37.8</ele><time>2026-05-05T13:44:22.564Z</time></trkpt><trkpt lat="37.982715" lon="12.915675"><ele>38.4</ele><time>2026-05-05T13:44:23.565Z</time></trkpt><trkpt lat="37.98261" lon="12.9156833"><ele>39.0</ele><time>2026-05-05T13:44:24.565Z</time></trkpt><trkpt lat="37.9824933" lon="12.91569"><ele>39.5</ele><time>2026-05-05T13:44:25.564Z</time></trkpt><trkpt lat="37.9823683" lon="12.9156967"><ele>40.0</ele><time>2026-05-05T13:44:26.564Z</time></trkpt><trkpt lat="37.9822367" lon="12.9157"><ele>40.5</ele><time>2026-05-05T13:44:27.564Z</time></trkpt><trkpt lat="37.9821017" lon="12.9157067"><ele>41.0</ele><time>2026-05-05T13:44:28.563Z</time></trkpt><trkpt lat="37.9819667" lon="12.9157183"><ele>41.0</ele><time>2026-05-05T13:44:29.565Z</time></trkpt><trkpt lat="37.9818283" lon="12.91573"><ele>41.0</ele><time>2026-05-05T13:44:30.564Z</time></trkpt><trkpt lat="37.98169" lon="12.9157367"><ele>41.0</ele><time>2026-05-05T13:44:31.565Z</time></trkpt><trkpt lat="37.9815533" lon="12.91573"><ele>41.0</ele><time>2026-05-05T13:44:32.565Z</time></trkpt><trkpt lat="37.981415" lon="12.9157067"><ele>41.25</ele><time>2026-05-05T13:44:33.564Z</time></trkpt><trkpt lat="37.9812767" lon="12.91567"><ele>41.5</ele><time>2026-05-05T13:44:34.565Z</time></trkpt><trkpt lat="37.9811417" lon="12.9156183"><ele>41.75</ele><time>2026-05-05T13:44:35.565Z</time></trkpt><trkpt lat="37.9810067" lon="12.9155567"><ele>42.0</ele><time>2026-05-05T13:44:36.565Z</time></trkpt><trkpt lat="37.9808717" lon="12.9154933"><ele>42.0</ele><time>2026-05-05T13:44:37.565Z</time></trkpt><trkpt lat="37.9807333" lon="12.9154317"><ele>42.0</ele><time>2026-05-05T13:44:38.565Z</time></trkpt><trkpt lat="37.980595" lon="12.91537"><ele>42.0</ele><time>2026-05-05T13:44:39.564Z</time></trkpt><trkpt lat="37.9804583" lon="12.9153133"><ele>42.0</ele><time>2026-05-05T13:44:40.564Z</time></trkpt><trkpt lat="37.980325" lon="12.9152567"><ele>42.0</ele><time>2026-05-05T13:44:41.566Z</time></trkpt><trkpt lat="37.9802017" lon="12.9152133"><ele>42.0</ele><time>2026-05-05T13:44:42.564Z</time></trkpt><trkpt lat="37.9800817" lon="12.9152"><ele>42.0</ele><time>2026-05-05T13:44:43.564Z</time></trkpt><trkpt lat="37.97996" lon="12.9152"><ele>42.0</ele><time>2026-05-05T13:44:44.565Z</time></trkpt><trkpt lat="37.9798317" lon="12.9152017"><ele>42.25</ele><time>2026-05-05T13:44:45.564Z</time></trkpt><trkpt lat="37.9796983" lon="12.9151967"><ele>42.5</ele><time>2026-05-05T13:44:46.564Z</time></trkpt><trkpt lat="37.9795583" lon="12.9151917"><ele>42.75</ele><time>2026-05-05T13:44:47.563Z</time></trkpt><trkpt lat="37.9794217" lon="12.91519"><ele>43.0</ele><time>2026-05-05T13:44:48.564Z</time></trkpt><trkpt lat="37.97929" lon="12.915185"><ele>43.4</ele><time>2026-05-05T13:44:49.564Z</time></trkpt><trkpt lat="37.9791683" lon="12.9151967"><ele>43.8</ele><time>2026-05-05T13:44:50.563Z</time></trkpt><trkpt lat="37.979065" lon="12.915225"><ele>44.2</ele><time>2026-05-05T13:44:51.564Z</time></trkpt><trkpt lat="37.9789767" lon="12.9152667"><ele>44.6</ele><time>2026-05-05T13:44:52.564Z</time></trkpt><trkpt lat="37.978895" lon="12.9153083"><ele>45.0</ele><time>2026-05-05T13:44:53.563Z</time></trkpt><trkpt lat="37.9788217" lon="12.9153333"><ele>45.0</ele><time>2026-05-05T13:44:54.563Z</time></trkpt><trkpt lat="37.9787433" lon="12.91535"><ele>45.0</ele><time>2026-05-05T13:44:55.564Z</time></trkpt><trkpt lat="37.978655" lon="12.91537"><ele>45.0</ele><time>2026-05-05T13:44:56.563Z</time></trkpt><trkpt lat="37.9785667" lon="12.915375"><ele>45.0</ele><time>2026-05-05T13:44:57.563Z</time></trkpt><trkpt lat="37.9784717" lon="12.9153767"><ele>45.0</ele><time>2026-05-05T13:44:58.563Z</time></trkpt><trkpt lat="37.9783717" lon="12.9153767"><ele>45.25</ele><time>2026-05-05T13:44:59.566Z</time></trkpt><trkpt lat="37.978265" lon="12.9153717"><ele>45.5</ele><time>2026-05-05T13:45:00.565Z</time></trkpt><trkpt lat="37.9781483" lon="12.9153717"><ele>45.75</ele><time>2026-05-05T13:45:01.565Z</time></trkpt><trkpt lat="37.978025" lon="12.9153717"><ele>46.0</ele><time>2026-05-05T13:45:02.564Z</time></trkpt><trkpt lat="37.9779017" lon="12.915365"><ele>46.0</ele><time>2026-05-05T13:45:03.566Z</time></trkpt><trkpt lat="37.9777733" lon="12.91536"><ele>46.0</ele><time>2026-05-05T13:45:04.566Z</time></trkpt><trkpt lat="37.9776433" lon="12.915355"><ele>46.0</ele><time>2026-05-05T13:45:05.565Z</time></trkpt><trkpt lat="37.97751" lon="12.9153517"><ele>46.0</ele><time>2026-05-05T13:45:06.564Z</time></trkpt><trkpt lat="37.9773767" lon="12.9153467"><ele>45.5</ele><time>2026-05-05T13:45:07.564Z</time></trkpt><trkpt lat="37.9772417" lon="12.9153483"><ele>45.0</ele><time>2026-05-05T13:45:08.565Z</time></trkpt><trkpt lat="37.9771067" lon="12.915345"><ele>44.5</ele><time>2026-05-05T13:45:09.564Z</time></trkpt><trkpt lat="37.9769667" lon="12.9153467"><ele>44.0</ele><time>2026-05-05T13:45:10.564Z</time></trkpt><trkpt lat="37.9768267" lon="12.915345"><ele>44.0</ele><time>2026-05-05T13:45:11.564Z</time></trkpt><trkpt lat="37.97669" lon="12.915345"><ele>44.0</ele><time>2026-05-05T13:45:12.564Z</time></trkpt><trkpt lat="37.9765633" lon="12.9153467"><ele>44.0</ele><time>2026-05-05T13:45:13.564Z</time></trkpt><trkpt lat="37.976445" lon="12.9153517"><ele>44.0</ele><time>2026-05-05T13:45:14.564Z</time></trkpt><trkpt lat="37.9763317" lon="12.9153683"><ele>43.800000000000004</ele><time>2026-05-05T13:45:15.567Z</time></trkpt><trkpt lat="37.9762283" lon="12.9154"><ele>43.6</ele><time>2026-05-05T13:45:16.565Z</time></trkpt><trkpt lat="37.9761283" lon="12.91544"><ele>43.4</ele><time>2026-05-05T13:45:17.564Z</time></trkpt><trkpt lat="37.97603" lon="12.9154833"><ele>43.2</ele><time>2026-05-05T13:45:18.564Z</time></trkpt><trkpt lat="37.97593" lon="12.9155283"><ele>43.0</ele><time>2026-05-05T13:45:19.565Z</time></trkpt><trkpt lat="37.97582" lon="12.9155633"><ele>43.0</ele><time>2026-05-05T13:45:20.564Z</time></trkpt><trkpt lat="37.9757033" lon="12.9155883"><ele>43.0</ele><time>2026-05-05T13:45:21.565Z</time></trkpt><trkpt lat="37.9755833" lon="12.9155967"><ele>43.0</ele><time>2026-05-05T13:45:22.564Z</time></trkpt><trkpt lat="37.9754567" lon="12.9155967"><ele>43.0</ele><time>2026-05-05T13:45:23.564Z</time></trkpt><trkpt lat="37.9753267" lon="12.9155933"><ele>43.0</ele><time>2026-05-05T13:45:24.565Z</time></trkpt><trkpt lat="37.9751933" lon="12.91559"><ele>43.0</ele><time>2026-05-05T13:45:25.565Z</time></trkpt><trkpt lat="37.975055" lon="12.9155867"><ele>43.0</ele><time>2026-05-05T13:45:26.565Z</time></trkpt><trkpt lat="37.9749133" lon="12.9155867"><ele>43.0</ele><time>2026-05-05T13:45:27.565Z</time></trkpt><trkpt lat="37.9747683" lon="12.9155867"><ele>43.0</ele><time>2026-05-05T13:45:28.564Z</time></trkpt><trkpt lat="37.9746233" lon="12.9155817"><ele>43.0</ele><time>2026-05-05T13:45:29.564Z</time></trkpt><trkpt lat="37.9744717" lon="12.915575"><ele>43.0</ele><time>2026-05-05T13:45:30.564Z</time></trkpt><trkpt lat="37.9743183" lon="12.9155717"><ele>43.66666666666667</ele><time>2026-05-05T13:45:31.566Z</time></trkpt><trkpt lat="37.974165" lon="12.91557"><ele>44.333333333333336</ele><time>2026-05-05T13:45:32.565Z</time></trkpt><trkpt lat="37.9740067" lon="12.91557"><ele>45.0</ele><time>2026-05-05T13:45:33.565Z</time></trkpt><trkpt lat="37.9738467" lon="12.9155717"><ele>45.0</ele><time>2026-05-05T13:45:34.564Z</time></trkpt><trkpt lat="37.9736883" lon="12.91558"><ele>45.0</ele><time>2026-05-05T13:45:35.564Z</time></trkpt><trkpt lat="37.9735267" lon="12.9155917"><ele>45.0</ele><time>2026-05-05T13:45:36.564Z</time></trkpt><trkpt lat="37.9733667" lon="12.9156083"><ele>45.0</ele><time>2026-05-05T13:45:37.565Z</time></trkpt><trkpt lat="37.9732033" lon="12.915625"><ele>45.0</ele><time>2026-05-05T13:45:38.565Z</time></trkpt><trkpt lat="37.9730367" lon="12.9156383"><ele>45.0</ele><time>2026-05-05T13:45:39.564Z</time></trkpt><trkpt lat="37.9728733" lon="12.9156467"><ele>45.0</ele><time>2026-05-05T13:45:40.564Z</time></trkpt><trkpt lat="37.9727183" lon="12.9156333"><ele>45.0</ele><time>2026-05-05T13:45:41.564Z</time></trkpt><trkpt lat="37.9725633" lon="12.9156"><ele>45.0</ele><time>2026-05-05T13:45:42.565Z</time></trkpt><trkpt lat="37.9724117" lon="12.9155533"><ele>44.666666666666664</ele><time>2026-05-05T13:45:43.564Z</time></trkpt><trkpt lat="37.972265" lon="12.9155017"><ele>44.33333333333333</ele><time>2026-05-05T13:45:44.567Z</time></trkpt><trkpt lat="37.9721167" lon="12.915445"><ele>44.0</ele><time>2026-05-05T13:45:45.565Z</time></trkpt><trkpt lat="37.9719683" lon="12.915385"><ele>44.0</ele><time>2026-05-05T13:45:46.564Z</time></trkpt><trkpt lat="37.97182" lon="12.9153167"><ele>44.0</ele><time>2026-05-05T13:45:47.565Z</time></trkpt><trkpt lat="37.97167" lon="12.9152383"><ele>44.0</ele><time>2026-05-05T13:45:48.564Z</time></trkpt><trkpt lat="37.9715217" lon="12.9151533"><ele>48.0</ele><time>2026-05-05T13:45:49.564Z</time></trkpt><trkpt lat="37.9713767" lon="12.91506"><ele>52.0</ele><time>2026-05-05T13:45:50.565Z</time></trkpt><trkpt lat="37.9712383" lon="12.9149617"><ele>56.0</ele><time>2026-05-05T13:45:51.565Z</time></trkpt><trkpt lat="37.971105" lon="12.9148567"><ele>56.0</ele><time>2026-05-05T13:45:52.563Z</time></trkpt><trkpt lat="37.9709717" lon="12.9147467"><ele>56.0</ele><time>2026-05-05T13:45:53.565Z</time></trkpt><trkpt lat="37.9708417" lon="12.9146283"><ele>56.0</ele><time>2026-05-05T13:45:54.565Z</time></trkpt><trkpt lat="37.9707117" lon="12.914505"><ele>57.0</ele><time>2026-05-05T13:45:55.564Z</time></trkpt><trkpt lat="37.97058" lon="12.9143717"><ele>58.0</ele><time>2026-05-05T13:45:56.565Z</time></trkpt><trkpt lat="37.970455" lon="12.914225"><ele>59.0</ele><time>2026-05-05T13:45:57.564Z</time></trkpt><trkpt lat="37.97033" lon="12.9140683"><ele>59.0</ele><time>2026-05-05T13:45:58.565Z</time></trkpt><trkpt lat="37.9702067" lon="12.9139117"><ele>59.0</ele><time>2026-05-05T13:45:59.564Z</time></trkpt><trkpt lat="37.97008" lon="12.9137567"><ele>59.0</ele><time>2026-05-05T13:46:00.563Z</time></trkpt><trkpt lat="37.9699483" lon="12.9136083"><ele>58.333333333333336</ele><time>2026-05-05T13:46:01.564Z</time></trkpt><trkpt lat="37.9698133" lon="12.9134667"><ele>57.66666666666667</ele><time>2026-05-05T13:46:02.564Z</time></trkpt><trkpt lat="37.9696717" lon="12.913335"><ele>57.0</ele><time>2026-05-05T13:46:03.563Z</time></trkpt><trkpt lat="37.9695283" lon="12.91321"><ele>57.0</ele><time>2026-05-05T13:46:04.563Z</time></trkpt><trkpt lat="37.9693933" lon="12.91309"><ele>57.0</ele><time>2026-05-05T13:46:05.564Z</time></trkpt><trkpt lat="37.9692683" lon="12.9129767"><ele>57.0</ele><time>2026-05-05T13:46:06.564Z</time></trkpt><trkpt lat="37.9691567" lon="12.912865"><ele>58.0</ele><time>2026-05-05T13:46:07.564Z</time></trkpt><trkpt lat="37.9690567" lon="12.9127417"><ele>59.0</ele><time>2026-05-05T13:46:08.564Z</time></trkpt><trkpt lat="37.968965" lon="12.9126033"><ele>60.0</ele><time>2026-05-05T13:46:09.564Z</time></trkpt><trkpt lat="37.9688767" lon="12.9124533"><ele>61.0</ele><time>2026-05-05T13:46:10.564Z</time></trkpt><trkpt lat="37.9687883" lon="12.9122933"><ele>61.0</ele><time>2026-05-05T13:46:11.563Z</time></trkpt><trkpt lat="37.9687017" lon="12.9121217"><ele>61.0</ele><time>2026-05-05T13:46:12.564Z</time></trkpt><trkpt lat="37.9686167" lon="12.911945"><ele>61.0</ele><time>2026-05-05T13:46:13.565Z</time></trkpt><trkpt lat="37.96854" lon="12.9117683"><ele>62.0</ele><time>2026-05-05T13:46:14.564Z</time></trkpt><trkpt lat="37.9684717" lon="12.9115933"><ele>63.0</ele><time>2026-05-05T13:46:15.565Z</time></trkpt><trkpt lat="37.9684133" lon="12.9114267"><ele>64.0</ele><time>2026-05-05T13:46:16.564Z</time></trkpt><trkpt lat="37.9683683" lon="12.9112617"><ele>65.0</ele><time>2026-05-05T13:46:17.565Z</time></trkpt><trkpt lat="37.96834" lon="12.911105"><ele>64.6</ele><time>2026-05-05T13:46:18.565Z</time></trkpt><trkpt lat="37.968335" lon="12.9109567"><ele>64.2</ele><time>2026-05-05T13:46:19.566Z</time></trkpt><trkpt lat="37.968355" lon="12.91082"><ele>63.8</ele><time>2026-05-05T13:46:20.565Z</time></trkpt><trkpt lat="37.9683967" lon="12.9106917"><ele>63.4</ele><time>2026-05-05T13:46:21.564Z</time></trkpt><trkpt lat="37.9684433" lon="12.9105767"><ele>63.0</ele><time>2026-05-05T13:46:22.564Z</time></trkpt><trkpt lat="37.9684833" lon="12.910475"><ele>63.0</ele><time>2026-05-05T13:46:23.564Z</time></trkpt><trkpt lat="37.9685117" lon="12.9103917"><ele>63.0</ele><time>2026-05-05T13:46:24.563Z</time></trkpt><trkpt lat="37.9685283" lon="12.9102767"><ele>63.0</ele><time>2026-05-05T13:46:26.564Z</time></trkpt><trkpt lat="37.96859" lon="12.9101867"><ele>63.0</ele><time>2026-05-05T13:46:28.566Z</time></trkpt><trkpt lat="37.968655" lon="12.9101517"><ele>63.0</ele><time>2026-05-05T13:46:29.564Z</time></trkpt><trkpt lat="37.9687383" lon="12.91011"><ele>63.0</ele><time>2026-05-05T13:46:30.564Z</time></trkpt><trkpt lat="37.9688283" lon="12.9100483"><ele>61.75</ele><time>2026-05-05T13:46:31.564Z</time></trkpt><trkpt lat="37.9689183" lon="12.9099683"><ele>60.5</ele><time>2026-05-05T13:46:32.564Z</time></trkpt><trkpt lat="37.9690083" lon="12.9098733"><ele>59.25</ele><time>2026-05-05T13:46:33.564Z</time></trkpt><trkpt lat="37.9690967" lon="12.9097667"><ele>58.0</ele><time>2026-05-05T13:46:34.565Z</time></trkpt><trkpt lat="37.9691783" lon="12.9096483"><ele>60.5</ele><time>2026-05-05T13:46:35.565Z</time></trkpt><trkpt lat="37.9692533" lon="12.90952"><ele>63.0</ele><time>2026-05-05T13:46:36.563Z</time></trkpt><trkpt lat="37.9693217" lon="12.909385"><ele>65.5</ele><time>2026-05-05T13:46:37.564Z</time></trkpt><trkpt lat="37.9693833" lon="12.9092417"><ele>68.0</ele><time>2026-05-05T13:46:38.565Z</time></trkpt><trkpt lat="37.9694433" lon="12.9090917"><ele>68.0</ele><time>2026-05-05T13:46:39.564Z</time></trkpt><trkpt lat="37.9695017" lon="12.9089367"><ele>68.0</ele><time>2026-05-05T13:46:40.564Z</time></trkpt><trkpt lat="37.9695667" lon="12.90878"><ele>68.0</ele><time>2026-05-05T13:46:41.565Z</time></trkpt><trkpt lat="37.9696367" lon="12.9086233"><ele>68.0</ele><time>2026-05-05T13:46:42.564Z</time></trkpt><trkpt lat="37.969715" lon="12.9084683"><ele>67.0</ele><time>2026-05-05T13:46:43.563Z</time></trkpt><trkpt lat="37.9697983" lon="12.9083133"><ele>66.0</ele><time>2026-05-05T13:46:44.563Z</time></trkpt><trkpt lat="37.9698917" lon="12.90816"><ele>65.0</ele><time>2026-05-05T13:46:45.564Z</time></trkpt><trkpt lat="37.9699883" lon="12.90802"><ele>64.0</ele><time>2026-05-05T13:46:46.564Z</time></trkpt><trkpt lat="37.970075" lon="12.90789"><ele>65.5</ele><time>2026-05-05T13:46:47.564Z</time></trkpt><trkpt lat="37.970145" lon="12.90776"><ele>67.0</ele><time>2026-05-05T13:46:48.565Z</time></trkpt><trkpt lat="37.97019" lon="12.9076267"><ele>68.5</ele><time>2026-05-05T13:46:49.564Z</time></trkpt><trkpt lat="37.9702033" lon="12.9074933"><ele>70.0</ele><time>2026-05-05T13:46:50.564Z</time></trkpt><trkpt lat="37.9701867" lon="12.9073583"><ele>70.0</ele><time>2026-05-05T13:46:51.564Z</time></trkpt><trkpt lat="37.9701367" lon="12.907225"><ele>70.0</ele><time>2026-05-05T13:46:52.565Z</time></trkpt><trkpt lat="37.9700583" lon="12.9070983"><ele>70.0</ele><time>2026-05-05T13:46:53.565Z</time></trkpt><trkpt lat="37.9699667" lon="12.906975"><ele>70.0</ele><time>2026-05-05T13:46:54.565Z</time></trkpt><trkpt lat="37.9698867" lon="12.9068483"><ele>69.5</ele><time>2026-05-05T13:46:55.564Z</time></trkpt><trkpt lat="37.96984" lon="12.9067133"><ele>69.0</ele><time>2026-05-05T13:46:56.564Z</time></trkpt><trkpt lat="37.969835" lon="12.90656"><ele>68.5</ele><time>2026-05-05T13:46:57.564Z</time></trkpt><trkpt lat="37.9698583" lon="12.9064067"><ele>68.0</ele><time>2026-05-05T13:46:58.564Z</time></trkpt><trkpt lat="37.9699133" lon="12.9062533"><ele>68.0</ele><time>2026-05-05T13:46:59.565Z</time></trkpt><trkpt lat="37.9699817" lon="12.9060967"><ele>68.0</ele><time>2026-05-05T13:47:00.564Z</time></trkpt><trkpt lat="37.9700567" lon="12.9059333"><ele>68.0</ele><time>2026-05-05T13:47:01.565Z</time></trkpt><trkpt lat="37.9701283" lon="12.9057617"><ele>68.0</ele><time>2026-05-05T13:47:02.565Z</time></trkpt><trkpt lat="37.9701767" lon="12.90558"><ele>72.0</ele><time>2026-05-05T13:47:03.564Z</time></trkpt><trkpt lat="37.9701917" lon="12.9053867"><ele>76.0</ele><time>2026-05-05T13:47:04.564Z</time></trkpt><trkpt lat="37.970185" lon="12.9051833"><ele>80.0</ele><time>2026-05-05T13:47:05.564Z</time></trkpt><trkpt lat="37.97017" lon="12.9049683"><ele>82.33333333333334</ele><time>2026-05-05T13:47:06.564Z</time></trkpt><trkpt lat="37.9701617" lon="12.9047433"><ele>84.66666666666667</ele><time>2026-05-05T13:47:07.565Z</time></trkpt><trkpt lat="37.970165" lon="12.9045133"><ele>87.0</ele><time>2026-05-05T13:47:08.566Z</time></trkpt><trkpt lat="37.9701717" lon="12.90428"><ele>88.0</ele><time>2026-05-05T13:47:09.564Z</time></trkpt><trkpt lat="37.9701633" lon="12.9040567"><ele>89.0</ele><time>2026-05-05T13:47:10.564Z</time></trkpt><trkpt lat="37.9701283" lon="12.9038433"><ele>90.0</ele><time>2026-05-05T13:47:11.564Z</time></trkpt><trkpt lat="37.97008" lon="12.9036267"><ele>90.66666666666667</ele><time>2026-05-05T13:47:12.564Z</time></trkpt><trkpt lat="37.970035" lon="12.9034067"><ele>91.33333333333334</ele><time>2026-05-05T13:47:13.565Z</time></trkpt><trkpt lat="37.9700167" lon="12.9031917"><ele>92.0</ele><time>2026-05-05T13:47:14.565Z</time></trkpt><trkpt lat="37.9700283" lon="12.9029867"><ele>92.0</ele><time>2026-05-05T13:47:15.565Z</time></trkpt><trkpt lat="37.970065" lon="12.9027967"><ele>92.0</ele><time>2026-05-05T13:47:16.565Z</time></trkpt><trkpt lat="37.9701267" lon="12.9026167"><ele>92.0</ele><time>2026-05-05T13:47:17.566Z</time></trkpt><trkpt lat="37.9702017" lon="12.902445"><ele>91.25</ele><time>2026-05-05T13:47:18.564Z</time></trkpt><trkpt lat="37.9702783" lon="12.9022767"><ele>90.5</ele><time>2026-05-05T13:47:19.565Z</time></trkpt><trkpt lat="37.9703433" lon="12.9021117"><ele>89.75</ele><time>2026-05-05T13:47:20.565Z</time></trkpt><trkpt lat="37.9703917" lon="12.9019533"><ele>89.0</ele><time>2026-05-05T13:47:21.565Z</time></trkpt><trkpt lat="37.97042" lon="12.901795"><ele>87.25</ele><time>2026-05-05T13:47:22.564Z</time></trkpt><trkpt lat="37.9704367" lon="12.9016333"><ele>85.5</ele><time>2026-05-05T13:47:23.565Z</time></trkpt><trkpt lat="37.9704417" lon="12.901465"><ele>83.75</ele><time>2026-05-05T13:47:24.563Z</time></trkpt><trkpt lat="37.97044" lon="12.9012967"><ele>82.0</ele><time>2026-05-05T13:47:25.564Z</time></trkpt><trkpt lat="37.970435" lon="12.9011233"><ele>82.0</ele><time>2026-05-05T13:47:26.566Z</time></trkpt><trkpt lat="37.9704233" lon="12.9009567"><ele>82.0</ele><time>2026-05-05T13:47:27.565Z</time></trkpt><trkpt lat="37.970405" lon="12.9008017"><ele>82.0</ele><time>2026-05-05T13:47:28.565Z</time></trkpt><trkpt lat="37.970375" lon="12.90065"><ele>82.0</ele><time>2026-05-05T13:47:29.565Z</time></trkpt><trkpt lat="37.9703317" lon="12.9005033"><ele>81.75</ele><time>2026-05-05T13:47:30.565Z</time></trkpt><trkpt lat="37.9702783" lon="12.9003567"><ele>81.5</ele><time>2026-05-05T13:47:31.564Z</time></trkpt><trkpt lat="37.9702117" lon="12.9002067"><ele>81.25</ele><time>2026-05-05T13:47:32.565Z</time></trkpt><trkpt lat="37.9701267" lon="12.9000517"><ele>81.0</ele><time>2026-05-05T13:47:33.564Z</time></trkpt><trkpt lat="37.970025" lon="12.8998867"><ele>83.0</ele><time>2026-05-05T13:47:34.563Z</time></trkpt><trkpt lat="37.9699083" lon="12.899705"><ele>85.0</ele><time>2026-05-05T13:47:35.565Z</time></trkpt><trkpt lat="37.9697833" lon="12.8995083"><ele>87.0</ele><time>2026-05-05T13:47:36.565Z</time></trkpt><trkpt lat="37.9696517" lon="12.8993"><ele>85.0</ele><time>2026-05-05T13:47:37.566Z</time></trkpt><trkpt lat="37.9695167" lon="12.89908"><ele>83.0</ele><time>2026-05-05T13:47:38.565Z</time></trkpt><trkpt lat="37.9693783" lon="12.8988583"><ele>81.0</ele><time>2026-05-05T13:47:39.564Z</time></trkpt><trkpt lat="37.9692467" lon="12.898645"><ele>83.66666666666667</ele><time>2026-05-05T13:47:40.565Z</time></trkpt><trkpt lat="37.9691233" lon="12.8984467"><ele>86.33333333333334</ele><time>2026-05-05T13:47:41.565Z</time></trkpt><trkpt lat="37.9690067" lon="12.8982667"><ele>89.0</ele><time>2026-05-05T13:47:42.566Z</time></trkpt><trkpt lat="37.9688983" lon="12.8981033"><ele>89.0</ele><time>2026-05-05T13:47:43.565Z</time></trkpt><trkpt lat="37.9687917" lon="12.897945"><ele>89.0</ele><time>2026-05-05T13:47:44.565Z</time></trkpt><trkpt lat="37.9686967" lon="12.8977933"><ele>89.0</ele><time>2026-05-05T13:47:45.564Z</time></trkpt><trkpt lat="37.9686117" lon="12.8976483"><ele>89.25</ele><time>2026-05-05T13:47:46.565Z</time></trkpt><trkpt lat="37.968535" lon="12.8975067"><ele>89.5</ele><time>2026-05-05T13:47:47.565Z</time></trkpt><trkpt lat="37.9684633" lon="12.8973617"><ele>89.75</ele><time>2026-05-05T13:47:48.564Z</time></trkpt><trkpt lat="37.9683917" lon="12.89721"><ele>90.0</ele><time>2026-05-05T13:47:49.566Z</time></trkpt><trkpt lat="37.9683183" lon="12.8970467"><ele>90.0</ele><time>2026-05-05T13:47:50.565Z</time></trkpt><trkpt lat="37.9682417" lon="12.8968783"><ele>90.0</ele><time>2026-05-05T13:47:51.564Z</time></trkpt><trkpt lat="37.9681617" lon="12.8967033"><ele>90.0</ele><time>2026-05-05T13:47:52.564Z</time></trkpt><trkpt lat="37.9680817" lon="12.8965217"><ele>89.0</ele><time>2026-05-05T13:47:53.568Z</time></trkpt><trkpt lat="37.968" lon="12.8963333"><ele>88.0</ele><time>2026-05-05T13:47:54.565Z</time></trkpt><trkpt lat="37.9679117" lon="12.896145"><ele>87.0</ele><time>2026-05-05T13:47:55.565Z</time></trkpt><trkpt lat="37.9678183" lon="12.8959567"><ele>88.33333333333333</ele><time>2026-05-05T13:47:56.564Z</time></trkpt><trkpt lat="37.9677183" lon="12.895775"><ele>89.66666666666666</ele><time>2026-05-05T13:47:57.566Z</time></trkpt><trkpt lat="37.9676233" lon="12.895595"><ele>91.0</ele><time>2026-05-05T13:47:58.564Z</time></trkpt><trkpt lat="37.9675317" lon="12.8954233"><ele>90.0</ele><time>2026-05-05T13:47:59.564Z</time></trkpt><trkpt lat="37.96744" lon="12.8952533"><ele>89.0</ele><time>2026-05-05T13:48:00.564Z</time></trkpt><trkpt lat="37.9673517" lon="12.8950933"><ele>88.0</ele><time>2026-05-05T13:48:01.565Z</time></trkpt><trkpt lat="37.9672667" lon="12.8949383"><ele>87.25</ele><time>2026-05-05T13:48:02.565Z</time></trkpt><trkpt lat="37.967185" lon="12.894785"><ele>86.5</ele><time>2026-05-05T13:48:03.564Z</time></trkpt><trkpt lat="37.9671083" lon="12.89464"><ele>85.75</ele><time>2026-05-05T13:48:04.563Z</time></trkpt><trkpt lat="37.96704" lon="12.894515"><ele>85.0</ele><time>2026-05-05T13:48:05.564Z</time></trkpt><trkpt lat="37.9669783" lon="12.894405"><ele>85.0</ele><time>2026-05-05T13:48:06.565Z</time></trkpt><trkpt lat="37.9669283" lon="12.8943033"><ele>85.0</ele><time>2026-05-05T13:48:07.564Z</time></trkpt><trkpt lat="37.9668967" lon="12.8942083"><ele>85.0</ele><time>2026-05-05T13:48:08.566Z</time></trkpt><trkpt lat="37.96689" lon="12.894105"><ele>85.0</ele><time>2026-05-05T13:48:09.564Z</time></trkpt><trkpt lat="37.9669133" lon="12.89403"><ele>85.0</ele><time>2026-05-05T13:48:10.564Z</time></trkpt><trkpt lat="37.9669617" lon="12.8939733"><ele>85.0</ele><time>2026-05-05T13:48:11.564Z</time></trkpt><trkpt lat="37.9670283" lon="12.8939217"><ele>84.5</ele><time>2026-05-05T13:48:12.564Z</time></trkpt><trkpt lat="37.967115" lon="12.89386"><ele>84.0</ele><time>2026-05-05T13:48:13.564Z</time></trkpt><trkpt lat="37.9672267" lon="12.8937767"><ele>83.5</ele><time>2026-05-05T13:48:14.565Z</time></trkpt><trkpt lat="37.967345" lon="12.8936867"><ele>83.0</ele><time>2026-05-05T13:48:15.564Z</time></trkpt><trkpt lat="37.9674733" lon="12.8935917"><ele>83.0</ele><time>2026-05-05T13:48:16.563Z</time></trkpt><trkpt lat="37.9676117" lon="12.89349"><ele>83.0</ele><time>2026-05-05T13:48:17.565Z</time></trkpt><trkpt lat="37.96775" lon="12.893385"><ele>83.0</ele><time>2026-05-05T13:48:18.564Z</time></trkpt><trkpt lat="37.9678917" lon="12.893275"><ele>83.0</ele><time>2026-05-05T13:48:19.565Z</time></trkpt><trkpt lat="37.96804" lon="12.8931667"><ele>83.0</ele><time>2026-05-05T13:48:20.565Z</time></trkpt><trkpt lat="37.9681933" lon="12.8930533"><ele>83.0</ele><time>2026-05-05T13:48:21.564Z</time></trkpt><trkpt lat="37.968345" lon="12.892935"><ele>82.66666666666667</ele><time>2026-05-05T13:48:22.564Z</time></trkpt><trkpt lat="37.9684967" lon="12.892815"><ele>82.33333333333333</ele><time>2026-05-05T13:48:23.563Z</time></trkpt><trkpt lat="37.9686483" lon="12.8926967"><ele>82.0</ele><time>2026-05-05T13:48:24.564Z</time></trkpt><trkpt lat="37.9687983" lon="12.89258"><ele>82.0</ele><time>2026-05-05T13:48:25.564Z</time></trkpt><trkpt lat="37.96894" lon="12.8924733"><ele>82.0</ele><time>2026-05-05T13:48:26.563Z</time></trkpt><trkpt lat="37.9690783" lon="12.89237"><ele>82.0</ele><time>2026-05-05T13:48:27.563Z</time></trkpt><trkpt lat="37.9692133" lon="12.8922717"><ele>85.5</ele><time>2026-05-05T13:48:28.564Z</time></trkpt><trkpt lat="37.9693383" lon="12.8921783"><ele>89.0</ele><time>2026-05-05T13:48:29.564Z</time></trkpt><trkpt lat="37.9694617" lon="12.8920867"><ele>92.5</ele><time>2026-05-05T13:48:30.564Z</time></trkpt><trkpt lat="37.969585" lon="12.8919967"><ele>96.0</ele><time>2026-05-05T13:48:31.564Z</time></trkpt><trkpt lat="37.96971" lon="12.8919267"><ele>96.0</ele><time>2026-05-05T13:48:32.565Z</time></trkpt><trkpt lat="37.9698433" lon="12.8918817"><ele>96.0</ele><time>2026-05-05T13:48:33.563Z</time></trkpt><trkpt lat="37.969985" lon="12.8918467"><ele>96.0</ele><time>2026-05-05T13:48:34.563Z</time></trkpt><trkpt lat="37.97013" lon="12.8918017"><ele>96.0</ele><time>2026-05-05T13:48:35.565Z</time></trkpt><trkpt lat="37.970265" lon="12.8917333"><ele>94.0</ele><time>2026-05-05T13:48:36.565Z</time></trkpt><trkpt lat="37.970385" lon="12.8916517"><ele>92.0</ele><time>2026-05-05T13:48:37.563Z</time></trkpt><trkpt lat="37.9704867" lon="12.8915533"><ele>90.0</ele><time>2026-05-05T13:48:38.564Z</time></trkpt><trkpt lat="37.9705667" lon="12.891435"><ele>88.0</ele><time>2026-05-05T13:48:39.564Z</time></trkpt><trkpt lat="37.970635" lon="12.8913"><ele>88.0</ele><time>2026-05-05T13:48:40.564Z</time></trkpt><trkpt lat="37.9706967" lon="12.8911683"><ele>88.0</ele><time>2026-05-05T13:48:41.564Z</time></trkpt><trkpt lat="37.9707567" lon="12.891045"><ele>88.0</ele><time>2026-05-05T13:48:42.564Z</time></trkpt><trkpt lat="37.970815" lon="12.8909317"><ele>88.0</ele><time>2026-05-05T13:48:43.564Z</time></trkpt><trkpt lat="37.9708633" lon="12.89082"><ele>88.0</ele><time>2026-05-05T13:48:44.564Z</time></trkpt><trkpt lat="37.9709033" lon="12.8907117"><ele>86.80000000000001</ele><time>2026-05-05T13:48:45.564Z</time></trkpt><trkpt lat="37.97093" lon="12.8906167"><ele>85.6</ele><time>2026-05-05T13:48:46.564Z</time></trkpt><trkpt lat="37.9709717" lon="12.890495"><ele>84.4</ele><time>2026-05-05T13:48:48.565Z</time></trkpt><trkpt lat="37.9710233" lon="12.890395"><ele>83.19999999999999</ele><time>2026-05-05T13:48:51.564Z</time></trkpt><trkpt lat="37.971015" lon="12.890285"><ele>82.0</ele><time>2026-05-05T13:48:54.564Z</time></trkpt><trkpt lat="37.9709533" lon="12.8902083"><ele>81.19999999999999</ele><time>2026-05-05T13:48:56.565Z</time></trkpt><trkpt lat="37.9708483" lon="12.89012"><ele>80.39999999999999</ele><time>2026-05-05T13:48:58.564Z</time></trkpt><trkpt lat="37.9707883" lon="12.8900667"><ele>79.6</ele><time>2026-05-05T13:48:59.564Z</time></trkpt><trkpt lat="37.9707183" lon="12.8900083"><ele>78.8</ele><time>2026-05-05T13:49:00.563Z</time></trkpt><trkpt lat="37.9706383" lon="12.8899433"><ele>78.0</ele><time>2026-05-05T13:49:01.563Z</time></trkpt><trkpt lat="37.97056" lon="12.8898733"><ele>79.6</ele><time>2026-05-05T13:49:02.563Z</time></trkpt><trkpt lat="37.97048" lon="12.8898033"><ele>81.19999999999999</ele><time>2026-05-05T13:49:03.563Z</time></trkpt><trkpt lat="37.9704033" lon="12.8897383"><ele>82.8</ele><time>2026-05-05T13:49:04.564Z</time></trkpt><trkpt lat="37.9703267" lon="12.8896933"><ele>84.39999999999999</ele><time>2026-05-05T13:49:05.564Z</time></trkpt><trkpt lat="37.97024" lon="12.889665"><ele>86.0</ele><time>2026-05-05T13:49:06.564Z</time></trkpt><trkpt lat="37.9701483" lon="12.88964"><ele>86.0</ele><time>2026-05-05T13:49:07.564Z</time></trkpt><trkpt lat="37.9700483" lon="12.8896167"><ele>86.0</ele><time>2026-05-05T13:49:08.565Z</time></trkpt><trkpt lat="37.9699433" lon="12.889595"><ele>86.0</ele><time>2026-05-05T13:49:09.563Z</time></trkpt><trkpt lat="37.9698317" lon="12.8895717"><ele>86.0</ele><time>2026-05-05T13:49:10.564Z</time></trkpt><trkpt lat="37.969715" lon="12.889545"><ele>86.0</ele><time>2026-05-05T13:49:11.564Z</time></trkpt><trkpt lat="37.9695933" lon="12.8895133"><ele>85.75</ele><time>2026-05-05T13:49:12.564Z</time></trkpt><trkpt lat="37.9694683" lon="12.88947"><ele>85.5</ele><time>2026-05-05T13:49:13.565Z</time></trkpt><trkpt lat="37.969345" lon="12.889415"><ele>85.25</ele><time>2026-05-05T13:49:14.566Z</time></trkpt><trkpt lat="37.9692217" lon="12.8893617"><ele>85.0</ele><time>2026-05-05T13:49:15.564Z</time></trkpt><trkpt lat="37.969095" lon="12.8893117"><ele>85.0</ele><time>2026-05-05T13:49:16.564Z</time></trkpt><trkpt lat="37.9689683" lon="12.88926"><ele>85.0</ele><time>2026-05-05T13:49:17.563Z</time></trkpt><trkpt lat="37.96884" lon="12.8892083"><ele>85.0</ele><time>2026-05-05T13:49:18.564Z</time></trkpt><trkpt lat="37.968725" lon="12.88916"><ele>85.0</ele><time>2026-05-05T13:49:19.565Z</time></trkpt><trkpt lat="37.9686317" lon="12.8891167"><ele>86.83333333333333</ele><time>2026-05-05T13:49:20.564Z</time></trkpt><trkpt lat="37.9685583" lon="12.8890817"><ele>88.66666666666666</ele><time>2026-05-05T13:49:21.563Z</time></trkpt><trkpt lat="37.9685" lon="12.8890467"><ele>90.5</ele><time>2026-05-05T13:49:22.563Z</time></trkpt><trkpt lat="37.9684033" lon="12.88895"><ele>92.33333333333333</ele><time>2026-05-05T13:49:24.565Z</time></trkpt><trkpt lat="37.9683483" lon="12.8888983"><ele>94.16666666666667</ele><time>2026-05-05T13:49:25.564Z</time></trkpt><trkpt lat="37.9682883" lon="12.8888383"><ele>96.0</ele><time>2026-05-05T13:49:26.564Z</time></trkpt><trkpt lat="37.9682317" lon="12.8887717"><ele>96.0</ele><time>2026-05-05T13:49:27.564Z</time></trkpt><trkpt lat="37.9681717" lon="12.8886933"><ele>96.0</ele><time>2026-05-05T13:49:28.563Z</time></trkpt><trkpt lat="37.9681183" lon="12.8886133"><ele>96.0</ele><time>2026-05-05T13:49:29.564Z</time></trkpt><trkpt lat="37.9680767" lon="12.888535"><ele>96.0</ele><time>2026-05-05T13:49:30.564Z</time></trkpt><trkpt lat="37.9680367" lon="12.88845"><ele>96.0</ele><time>2026-05-05T13:49:31.565Z</time></trkpt><trkpt lat="37.9679933" lon="12.8883667"><ele>96.0</ele><time>2026-05-05T13:49:32.565Z</time></trkpt><trkpt lat="37.9679533" lon="12.8882783"><ele>97.5</ele><time>2026-05-05T13:49:33.563Z</time></trkpt><trkpt lat="37.96791" lon="12.88819"><ele>99.0</ele><time>2026-05-05T13:49:34.564Z</time></trkpt><trkpt lat="37.9678683" lon="12.8881033"><ele>100.5</ele><time>2026-05-05T13:49:35.564Z</time></trkpt><trkpt lat="37.96784" lon="12.888015"><ele>102.0</ele><time>2026-05-05T13:49:36.565Z</time></trkpt><trkpt lat="37.967825" lon="12.887925"><ele>103.5</ele><time>2026-05-05T13:49:37.565Z</time></trkpt><trkpt lat="37.9678133" lon="12.8878317"><ele>105.0</ele><time>2026-05-05T13:49:38.565Z</time></trkpt><trkpt lat="37.9678" lon="12.88774"><ele>105.0</ele><time>2026-05-05T13:49:39.565Z</time></trkpt><trkpt lat="37.9677833" lon="12.8876467"><ele>105.0</ele><time>2026-05-05T13:49:40.564Z</time></trkpt><trkpt lat="37.9677517" lon="12.8875517"><ele>105.0</ele><time>2026-05-05T13:49:41.564Z</time></trkpt><trkpt lat="37.9677067" lon="12.8874533"><ele>105.0</ele><time>2026-05-05T13:49:42.564Z</time></trkpt><trkpt lat="37.9676633" lon="12.88735"><ele>105.0</ele><time>2026-05-05T13:49:43.564Z</time></trkpt><trkpt lat="37.9676233" lon="12.887245"><ele>105.0</ele><time>2026-05-05T13:49:44.565Z</time></trkpt><trkpt lat="37.9675917" lon="12.8871567"><ele>104.8</ele><time>2026-05-05T13:49:45.564Z</time></trkpt><trkpt lat="37.9675483" lon="12.8870317"><ele>104.6</ele><time>2026-05-05T13:49:47.563Z</time></trkpt><trkpt lat="37.967515" lon="12.8869417"><ele>104.4</ele><time>2026-05-05T13:49:49.563Z</time></trkpt><trkpt lat="37.96747" lon="12.886835"><ele>104.2</ele><time>2026-05-05T13:49:52.563Z</time></trkpt><trkpt lat="37.96743" lon="12.88674"><ele>104.0</ele><time>2026-05-05T13:49:54.563Z</time></trkpt><trkpt lat="37.967375" lon="12.88662"><ele>105.0</ele><time>2026-05-05T13:49:56.565Z</time></trkpt><trkpt lat="37.9673217" lon="12.8865017"><ele>106.0</ele><time>2026-05-05T13:49:58.563Z</time></trkpt><trkpt lat="37.9672567" lon="12.8863817"><ele>107.0</ele><time>2026-05-05T13:50:00.563Z</time></trkpt><trkpt lat="37.9672117" lon="12.8862967"><ele>108.0</ele><time>2026-05-05T13:50:02.564Z</time></trkpt><trkpt lat="37.9671633" lon="12.8861983"><ele>109.0</ele><time>2026-05-05T13:50:04.564Z</time></trkpt><trkpt lat="37.9671067" lon="12.8860883"><ele>109.0</ele><time>2026-05-05T13:50:06.563Z</time></trkpt><trkpt lat="37.9670433" lon="12.885975"><ele>109.0</ele><time>2026-05-05T13:50:08.565Z</time></trkpt><trkpt lat="37.966965" lon="12.8858517"><ele>109.0</ele><time>2026-05-05T13:50:10.562Z</time></trkpt><trkpt lat="37.966895" lon="12.8857217"><ele>109.0</ele><time>2026-05-05T13:50:12.564Z</time></trkpt><trkpt lat="37.9668583" lon="12.885655"><ele>109.0</ele><time>2026-05-05T13:50:13.563Z</time></trkpt><trkpt lat="37.966825" lon="12.8855833"><ele>109.33333333333334</ele><time>2026-05-05T13:50:14.564Z</time></trkpt><trkpt lat="37.96679" lon="12.885515"><ele>109.66666666666667</ele><time>2026-05-05T13:50:15.565Z</time></trkpt><trkpt lat="37.966755" lon="12.885445"><ele>110.0</ele><time>2026-05-05T13:50:16.564Z</time></trkpt><trkpt lat="37.96672" lon="12.8853717"><ele>110.33333333333334</ele><time>2026-05-05T13:50:17.564Z</time></trkpt><trkpt lat="37.9666733" lon="12.8852517"><ele>110.66666666666667</ele><time>2026-05-05T13:50:19.564Z</time></trkpt><trkpt lat="37.966695" lon="12.885155"><ele>111.0</ele><time>2026-05-05T13:50:21.563Z</time></trkpt><trkpt lat="37.9667683" lon="12.8850517"><ele>113.0</ele><time>2026-05-05T13:50:23.564Z</time></trkpt><trkpt lat="37.96685" lon="12.884935"><ele>115.0</ele><time>2026-05-05T13:50:25.564Z</time></trkpt><trkpt lat="37.9669383" lon="12.8848267"><ele>117.0</ele><time>2026-05-05T13:50:27.564Z</time></trkpt><trkpt lat="37.9670333" lon="12.8847333"><ele>119.0</ele><time>2026-05-05T13:50:29.565Z</time></trkpt><trkpt lat="37.967085" lon="12.8846833"><ele>121.0</ele><time>2026-05-05T13:50:30.564Z</time></trkpt><trkpt lat="37.967135" lon="12.884625"><ele>121.00000000000001</ele><time>2026-05-05T13:50:31.565Z</time></trkpt><trkpt lat="37.9671867" lon="12.884565"><ele>121.0</ele><time>2026-05-05T13:50:32.564Z</time></trkpt><trkpt lat="37.96724" lon="12.8845"><ele>121.0</ele><time>2026-05-05T13:50:33.566Z</time></trkpt><trkpt lat="37.9672933" lon="12.8844333"><ele>121.0</ele><time>2026-05-05T13:50:34.564Z</time></trkpt><trkpt lat="37.9673483" lon="12.8843683"><ele>121.00000000000001</ele><time>2026-05-05T13:50:35.564Z</time></trkpt><trkpt lat="37.9674067" lon="12.8843017"><ele>121.0</ele><time>2026-05-05T13:50:36.564Z</time></trkpt><trkpt lat="37.9674667" lon="12.88423"><ele>123.50000000000001</ele><time>2026-05-05T13:50:37.564Z</time></trkpt><trkpt lat="37.9675317" lon="12.8841567"><ele>126.0</ele><time>2026-05-05T13:50:38.563Z</time></trkpt><trkpt lat="37.9675983" lon="12.88408"><ele>128.5</ele><time>2026-05-05T13:50:39.564Z</time></trkpt><trkpt lat="37.967665" lon="12.8840067"><ele>131.0</ele><time>2026-05-05T13:50:40.563Z</time></trkpt><trkpt lat="37.9677317" lon="12.8839333"><ele>133.5</ele><time>2026-05-05T13:50:41.564Z</time></trkpt><trkpt lat="37.9678" lon="12.8838583"><ele>136.0</ele><time>2026-05-05T13:50:42.564Z</time></trkpt><trkpt lat="37.967865" lon="12.8837817"><ele>136.0</ele><time>2026-05-05T13:50:43.565Z</time></trkpt><trkpt lat="37.9679267" lon="12.8837067"><ele>136.0</ele><time>2026-05-05T13:50:44.565Z</time></trkpt><trkpt lat="37.9679883" lon="12.8836383"><ele>136.0</ele><time>2026-05-05T13:50:45.563Z</time></trkpt><trkpt lat="37.9680467" lon="12.8835717"><ele>136.0</ele><time>2026-05-05T13:50:46.564Z</time></trkpt><trkpt lat="37.9681017" lon="12.883505"><ele>136.0</ele><time>2026-05-05T13:50:47.564Z</time></trkpt><trkpt lat="37.9681567" lon="12.88344"><ele>136.0</ele><time>2026-05-05T13:50:48.564Z</time></trkpt><trkpt lat="37.9682117" lon="12.883375"><ele>136.83333333333334</ele><time>2026-05-05T13:50:49.564Z</time></trkpt><trkpt lat="37.9682717" lon="12.883305"><ele>137.66666666666669</ele><time>2026-05-05T13:50:50.565Z</time></trkpt><trkpt lat="37.968335" lon="12.8832317"><ele>138.5</ele><time>2026-05-05T13:50:51.566Z</time></trkpt><trkpt lat="37.9684033" lon="12.8831567"><ele>139.33333333333334</ele><time>2026-05-05T13:50:52.563Z</time></trkpt><trkpt lat="37.9684683" lon="12.8830817"><ele>140.16666666666666</ele><time>2026-05-05T13:50:53.564Z</time></trkpt><trkpt lat="37.968535" lon="12.8830117"><ele>141.0</ele><time>2026-05-05T13:50:54.564Z</time></trkpt><trkpt lat="37.9686" lon="12.88294"><ele>143.16666666666666</ele><time>2026-05-05T13:50:55.565Z</time></trkpt><trkpt lat="37.968665" lon="12.8828667"><ele>145.33333333333334</ele><time>2026-05-05T13:50:56.564Z</time></trkpt><trkpt lat="37.96873" lon="12.88279"><ele>147.5</ele><time>2026-05-05T13:50:57.564Z</time></trkpt><trkpt lat="37.968795" lon="12.8827133"><ele>149.66666666666669</ele><time>2026-05-05T13:50:58.564Z</time></trkpt><trkpt lat="37.968855" lon="12.8826383"><ele>151.83333333333334</ele><time>2026-05-05T13:50:59.563Z</time></trkpt><trkpt lat="37.9689033" lon="12.8825733"><ele>154.0</ele><time>2026-05-05T13:51:00.564Z</time></trkpt><trkpt lat="37.9689783" lon="12.8825167"><ele>154.0</ele><time>2026-05-05T13:51:02.564Z</time></trkpt><trkpt lat="37.96905" lon="12.8825733"><ele>154.0</ele><time>2026-05-05T13:51:04.564Z</time></trkpt><trkpt lat="37.9691417" lon="12.8826667"><ele>154.0</ele><time>2026-05-05T13:51:06.564Z</time></trkpt><trkpt lat="37.9692467" lon="12.8827467"><ele>154.0</ele><time>2026-05-05T13:51:08.564Z</time></trkpt><trkpt lat="37.9693383" lon="12.88285"><ele>154.0</ele><time>2026-05-05T13:51:10.564Z</time></trkpt><trkpt lat="37.9693817" lon="12.8829167"><ele>157.33333333333334</ele><time>2026-05-05T13:51:11.564Z</time></trkpt><trkpt lat="37.969425" lon="12.8829817"><ele>160.66666666666669</ele><time>2026-05-05T13:51:12.565Z</time></trkpt><trkpt lat="37.9694667" lon="12.883045"><ele>164.0</ele><time>2026-05-05T13:51:13.564Z</time></trkpt><trkpt lat="37.9695033" lon="12.88311"><ele>167.33333333333334</ele><time>2026-05-05T13:51:14.565Z</time></trkpt><trkpt lat="37.969555" lon="12.8832567"><ele>170.66666666666666</ele><time>2026-05-05T13:51:16.563Z</time></trkpt><trkpt lat="37.9696" lon="12.8833133"><ele>174.0</ele><time>2026-05-05T13:51:17.564Z</time></trkpt><trkpt lat="37.96966" lon="12.8833617"><ele>174.0</ele><time>2026-05-05T13:51:18.564Z</time></trkpt><trkpt lat="37.9697217" lon="12.88341"><ele>174.0</ele><time>2026-05-05T13:51:19.565Z</time></trkpt><trkpt lat="37.96978" lon="12.88345"><ele>174.0</ele><time>2026-05-05T13:51:20.564Z</time></trkpt><trkpt lat="37.9698433" lon="12.8834867"><ele>174.0</ele><time>2026-05-05T13:51:21.563Z</time></trkpt><trkpt lat="37.969905" lon="12.883525"><ele>174.0</ele><time>2026-05-05T13:51:22.565Z</time></trkpt><trkpt lat="37.9699667" lon="12.88356"><ele>174.0</ele><time>2026-05-05T13:51:23.565Z</time></trkpt><trkpt lat="37.9700283" lon="12.8835967"><ele>174.0</ele><time>2026-05-05T13:51:24.566Z</time></trkpt><trkpt lat="37.9700867" lon="12.88364"><ele>174.79999999999998</ele><time>2026-05-05T13:51:25.566Z</time></trkpt><trkpt lat="37.970165" lon="12.8837583"><ele>175.6</ele><time>2026-05-05T13:51:27.565Z</time></trkpt><trkpt lat="37.970245" lon="12.8838367"><ele>176.4</ele><time>2026-05-05T13:51:29.563Z</time></trkpt><trkpt lat="37.9703183" lon="12.8838167"><ele>177.2</ele><time>2026-05-05T13:51:31.564Z</time></trkpt><trkpt lat="37.9703901" lon="12.8837434"><ele>178.0</ele><time>2026-05-05T13:51:33.565Z</time></trkpt><trkpt lat="37.9704321" lon="12.8836694"><ele>178.0</ele><time>2026-05-05T13:51:35.564Z</time></trkpt><trkpt lat="37.9704968" lon="12.8835761"><ele>178.0</ele><time>2026-05-05T13:51:40.564Z</time></trkpt><trkpt lat="37.9705514" lon="12.8835237"><ele>178.0</ele><time>2026-05-05T13:51:42.64Z</time></trkpt><trkpt lat="37.9706003" lon="12.8834501"><ele>178.0</ele><time>2026-05-05T13:51:43.564Z</time></trkpt><trkpt lat="37.9706358" lon="12.8833741"><ele>178.0</ele><time>2026-05-05T13:51:44.564Z</time></trkpt><trkpt lat="37.9706729" lon="12.883293"><ele>178.0</ele><time>2026-05-05T13:51:45.565Z</time></trkpt><trkpt lat="37.9707105" lon="12.8832136"><ele>179.0</ele><time>2026-05-05T13:51:46.564Z</time></trkpt><trkpt lat="37.9707477" lon="12.8831424"><ele>180.0</ele><time>2026-05-05T13:51:47.564Z</time></trkpt><trkpt lat="37.9708128" lon="12.883022"><ele>181.0</ele><time>2026-05-05T13:51:49.565Z</time></trkpt><trkpt lat="37.9708767" lon="12.8829083"><ele>182.0</ele><time>2026-05-05T13:51:51.564Z</time></trkpt><trkpt lat="37.9709417" lon="12.8827933"><ele>183.0</ele><time>2026-05-05T13:51:53.563Z</time></trkpt><trkpt lat="37.9710067" lon="12.8826717"><ele>184.2</ele><time>2026-05-05T13:51:55.566Z</time></trkpt><trkpt lat="37.9710733" lon="12.8825433"><ele>185.4</ele><time>2026-05-05T13:51:57.564Z</time></trkpt><trkpt lat="37.9711083" lon="12.8824767"><ele>186.6</ele><time>2026-05-05T13:51:58.568Z</time></trkpt><trkpt lat="37.97117" lon="12.8823433"><ele>187.79999999999998</ele><time>2026-05-05T13:52:00.565Z</time></trkpt><trkpt lat="37.9712283" lon="12.88223"><ele>189.0</ele><time>2026-05-05T13:52:02.565Z</time></trkpt><trkpt lat="37.9712817" lon="12.8821217"><ele>189.0</ele><time>2026-05-05T13:52:04.563Z</time></trkpt><trkpt lat="37.97134" lon="12.8820183"><ele>189.0</ele><time>2026-05-05T13:52:06.563Z</time></trkpt><trkpt lat="37.9714" lon="12.8819083"><ele>189.0</ele><time>2026-05-05T13:52:08.567Z</time></trkpt><trkpt lat="37.9714667" lon="12.8817767"><ele>189.0</ele><time>2026-05-05T13:52:10.563Z</time></trkpt><trkpt lat="37.971505" lon="12.881705"><ele>189.0</ele><time>2026-05-05T13:52:11.565Z</time></trkpt><trkpt lat="37.9715467" lon="12.8816283"><ele>190.16666666666666</ele><time>2026-05-05T13:52:12.564Z</time></trkpt><trkpt lat="37.9715867" lon="12.88155"><ele>191.33333333333331</ele><time>2026-05-05T13:52:13.566Z</time></trkpt><trkpt lat="37.9716267" lon="12.88147"><ele>192.5</ele><time>2026-05-05T13:52:14.564Z</time></trkpt><trkpt lat="37.9716683" lon="12.8813867"><ele>193.66666666666666</ele><time>2026-05-05T13:52:15.565Z</time></trkpt><trkpt lat="37.97171" lon="12.8813067"><ele>194.83333333333331</ele><time>2026-05-05T13:52:16.565Z</time></trkpt><trkpt lat="37.9717517" lon="12.8812283"><ele>196.0</ele><time>2026-05-05T13:52:17.564Z</time></trkpt><trkpt lat="37.9717983" lon="12.88115"><ele>197.49999999999997</ele><time>2026-05-05T13:52:18.565Z</time></trkpt><trkpt lat="37.9718417" lon="12.8810717"><ele>199.0</ele><time>2026-05-05T13:52:19.565Z</time></trkpt><trkpt lat="37.9718817" lon="12.8809983"><ele>200.5</ele><time>2026-05-05T13:52:20.565Z</time></trkpt><trkpt lat="37.97192" lon="12.8809317"><ele>202.0</ele><time>2026-05-05T13:52:21.564Z</time></trkpt><trkpt lat="37.97195" lon="12.8807933"><ele>203.49999999999997</ele><time>2026-05-05T13:52:23.564Z</time></trkpt><trkpt lat="37.9719483" lon="12.8807117"><ele>205.0</ele><time>2026-05-05T13:52:24.564Z</time></trkpt><trkpt lat="37.97195" lon="12.8805667"><ele>208.4</ele><time>2026-05-05T13:52:26.565Z</time></trkpt><trkpt lat="37.9720017" lon="12.8804417"><ele>211.8</ele><time>2026-05-05T13:52:28.564Z</time></trkpt><trkpt lat="37.972065" lon="12.8803467"><ele>215.2</ele><time>2026-05-05T13:52:30.564Z</time></trkpt><trkpt lat="37.9720967" lon="12.8802517"><ele>218.6</ele><time>2026-05-05T13:52:32.565Z</time></trkpt><trkpt lat="37.9720638" lon="12.8801488"><ele>222.0</ele><time>2026-05-05T13:52:34.566Z</time></trkpt><trkpt lat="37.9719983" lon="12.8800193"><ele>225.8</ele><time>2026-05-05T13:52:36.564Z</time></trkpt><trkpt lat="37.9719238" lon="12.8798958"><ele>229.6</ele><time>2026-05-05T13:52:38.564Z</time></trkpt><trkpt lat="37.9718633" lon="12.8798063"><ele>233.40000000000003</ele><time>2026-05-05T13:52:40.563Z</time></trkpt><trkpt lat="37.9718134" lon="12.8797548"><ele>237.20000000000002</ele><time>2026-05-05T13:52:42.568Z</time></trkpt><trkpt lat="37.9718405" lon="12.879654"><ele>241.0</ele><time>2026-05-05T13:52:47.564Z</time></trkpt><trkpt lat="37.9719011" lon="12.87975"><ele>241.0</ele><time>2026-05-05T13:52:50.565Z</time></trkpt><trkpt lat="37.9719592" lon="12.8798239"><ele>241.00000000000003</ele><time>2026-05-05T13:52:51.564Z</time></trkpt><trkpt lat="37.9720467" lon="12.8799233"><ele>241.00000000000003</ele><time>2026-05-05T13:52:52.565Z</time></trkpt><trkpt lat="37.9721267" lon="12.8800083"><ele>241.0</ele><time>2026-05-05T13:52:53.565Z</time></trkpt><trkpt lat="37.9722117" lon="12.88011"><ele>241.0</ele><time>2026-05-05T13:52:54.564Z</time></trkpt><trkpt lat="37.9722967" lon="12.8802133"><ele>240.0</ele><time>2026-05-05T13:52:55.565Z</time></trkpt><trkpt lat="37.9723917" lon="12.88031"><ele>239.0</ele><time>2026-05-05T13:52:56.565Z</time></trkpt><trkpt lat="37.9724967" lon="12.8803967"><ele>238.0</ele><time>2026-05-05T13:52:57.564Z</time></trkpt><trkpt lat="37.9726083" lon="12.8804717"><ele>237.0</ele><time>2026-05-05T13:52:58.563Z</time></trkpt><trkpt lat="37.97273" lon="12.8805333"><ele>237.0</ele><time>2026-05-05T13:52:59.563Z</time></trkpt><trkpt lat="37.9728583" lon="12.88058"><ele>237.0</ele><time>2026-05-05T13:53:00.563Z</time></trkpt><trkpt lat="37.9729933" lon="12.8806217"><ele>237.0</ele><time>2026-05-05T13:53:01.566Z</time></trkpt><trkpt lat="37.9731317" lon="12.8806533"><ele>237.0</ele><time>2026-05-05T13:53:02.564Z</time></trkpt><trkpt lat="37.973275" lon="12.8806783"><ele>239.75</ele><time>2026-05-05T13:53:03.564Z</time></trkpt><trkpt lat="37.9734183" lon="12.8806983"><ele>242.5</ele><time>2026-05-05T13:53:04.563Z</time></trkpt><trkpt lat="37.9735617" lon="12.88071"><ele>245.25</ele><time>2026-05-05T13:53:05.564Z</time></trkpt><trkpt lat="37.9737083" lon="12.8807217"><ele>248.0</ele><time>2026-05-05T13:53:06.566Z</time></trkpt><trkpt lat="37.97385" lon="12.8807383"><ele>248.0</ele><time>2026-05-05T13:53:07.565Z</time></trkpt><trkpt lat="37.973975" lon="12.8807617"><ele>248.0</ele><time>2026-05-05T13:53:08.563Z</time></trkpt><trkpt lat="37.9740817" lon="12.8807967"><ele>248.0</ele><time>2026-05-05T13:53:09.564Z</time></trkpt><trkpt lat="37.9741583" lon="12.8808333"><ele>248.0</ele><time>2026-05-05T13:53:10.564Z</time></trkpt><trkpt lat="37.9742633" lon="12.88087"><ele>248.0</ele><time>2026-05-05T13:53:12.564Z</time></trkpt><trkpt lat="37.974365" lon="12.8808517"><ele>248.2</ele><time>2026-05-05T13:53:14.566Z</time></trkpt><trkpt lat="37.974475" lon="12.8808283"><ele>248.4</ele><time>2026-05-05T13:53:16.564Z</time></trkpt><trkpt lat="37.9745817" lon="12.8808233"><ele>248.59999999999997</ele><time>2026-05-05T13:53:18.564Z</time></trkpt><trkpt lat="37.9746483" lon="12.880775"><ele>248.79999999999998</ele><time>2026-05-05T13:53:20.565Z</time></trkpt><trkpt lat="37.9745883" lon="12.88069"><ele>249.0</ele><time>2026-05-05T13:53:23.564Z</time></trkpt><trkpt lat="37.9745133" lon="12.8806433"><ele>249.0</ele><time>2026-05-05T13:53:25.565Z</time></trkpt><trkpt lat="37.9744183" lon="12.8805983"><ele>248.99999999999997</ele><time>2026-05-05T13:53:27.569Z</time></trkpt><trkpt lat="37.9743067" lon="12.8805517"><ele>248.99999999999997</ele><time>2026-05-05T13:53:29.565Z</time></trkpt><trkpt lat="37.97422" lon="12.8805017"><ele>249.0</ele><time>2026-05-05T13:53:31.564Z</time></trkpt><trkpt lat="37.9742717" lon="12.880415"><ele>249.0</ele><time>2026-05-05T13:53:34.564Z</time></trkpt><trkpt lat="37.9743617" lon="12.8804333"><ele>249.0</ele><time>2026-05-05T13:53:36.564Z</time></trkpt><trkpt lat="37.9744317" lon="12.88043"><ele>249.0</ele><time>2026-05-05T13:53:37.564Z</time></trkpt><trkpt lat="37.9745083" lon="12.8804433"><ele>249.0</ele><time>2026-05-05T13:53:38.565Z</time></trkpt><trkpt lat="37.97459" lon="12.8804717"><ele>249.0</ele><time>2026-05-05T13:53:39.564Z</time></trkpt><trkpt lat="37.9746617" lon="12.8804967"><ele>249.0</ele><time>2026-05-05T13:53:40.564Z</time></trkpt><trkpt lat="37.9747283" lon="12.8805167"><ele>249.0</ele><time>2026-05-05T13:53:41.565Z</time></trkpt><trkpt lat="37.9748333" lon="12.880505"><ele>249.0</ele><time>2026-05-05T13:53:43.564Z</time></trkpt><trkpt lat="37.9747817" lon="12.8803883"><ele>249.0</ele><time>2026-05-05T13:53:47.565Z</time></trkpt><trkpt lat="37.97473" lon="12.8803383"><ele>249.0</ele><time>2026-05-05T13:53:48.565Z</time></trkpt><trkpt lat="37.9746667" lon="12.8802867"><ele>249.0</ele><time>2026-05-05T13:53:49.563Z</time></trkpt><trkpt lat="37.9745917" lon="12.8802467"><ele>249.0</ele><time>2026-05-05T13:53:50.565Z</time></trkpt><trkpt lat="37.9745133" lon="12.88021"><ele>249.0</ele><time>2026-05-05T13:53:51.563Z</time></trkpt><trkpt lat="37.9744317" lon="12.8801817"><ele>249.0</ele><time>2026-05-05T13:53:52.564Z</time></trkpt><trkpt lat="37.974355" lon="12.880165"><ele>249.0</ele><time>2026-05-05T13:53:53.563Z</time></trkpt><trkpt lat="37.9742917" lon="12.880075"><ele>249.0</ele><time>2026-05-05T13:53:55.565Z</time></trkpt><trkpt lat="37.9743317" lon="12.880005"><ele>249.0</ele><time>2026-05-05T13:53:57.564Z</time></trkpt><trkpt lat="37.97445" lon="12.8799483"><ele>249.0</ele><time>2026-05-05T13:53:59.565Z</time></trkpt><trkpt lat="37.9745233" lon="12.8799167"><ele>249.0</ele><time>2026-05-05T13:54:00.564Z</time></trkpt><trkpt lat="37.974605" lon="12.87988"><ele>254.39999999999998</ele><time>2026-05-05T13:54:01.564Z</time></trkpt><trkpt lat="37.9746933" lon="12.8798333"><ele>259.79999999999995</ele><time>2026-05-05T13:54:02.564Z</time></trkpt><trkpt lat="37.9747867" lon="12.8797933"><ele>265.20000000000005</ele><time>2026-05-05T13:54:03.565Z</time></trkpt><trkpt lat="37.974875" lon="12.87977"><ele>270.6</ele><time>2026-05-05T13:54:04.563Z</time></trkpt><trkpt lat="37.9749684" lon="12.8797698"><ele>276.0</ele><time>2026-05-05T13:54:05.565Z</time></trkpt><trkpt lat="37.9750534" lon="12.8797813"><ele>276.6666666666667</ele><time>2026-05-05T13:54:06.564Z</time></trkpt><trkpt lat="37.9751197" lon="12.8797809"><ele>277.3333333333333</ele><time>2026-05-05T13:54:07.565Z</time></trkpt><trkpt lat="37.9752165" lon="12.879721"><ele>278.0</ele><time>2026-05-05T13:54:09.564Z</time></trkpt><trkpt lat="37.9752146" lon="12.8796"><ele>278.66666666666663</ele><time>2026-05-05T13:54:11.564Z</time></trkpt><trkpt lat="37.9751874" lon="12.8795052"><ele>279.3333333333333</ele><time>2026-05-05T13:54:12.564Z</time></trkpt><trkpt lat="37.9751532" lon="12.8793965"><ele>280.0</ele><time>2026-05-05T13:54:13.564Z</time></trkpt><trkpt lat="37.975113" lon="12.8792689"><ele>281.25</ele><time>2026-05-05T13:54:14.565Z</time></trkpt><trkpt lat="37.97508" lon="12.8791332"><ele>282.5</ele><time>2026-05-05T13:54:15.564Z</time></trkpt><trkpt lat="37.9750512" lon="12.8789896"><ele>283.75</ele><time>2026-05-05T13:54:16.564Z</time></trkpt><trkpt lat="37.9750223" lon="12.8788531"><ele>285.0</ele><time>2026-05-05T13:54:17.564Z</time></trkpt><trkpt lat="37.9749939" lon="12.8787154"><ele>285.0</ele><time>2026-05-05T13:54:18.565Z</time></trkpt><trkpt lat="37.9749644" lon="12.8785762"><ele>285.0</ele><time>2026-05-05T13:54:19.565Z</time></trkpt><trkpt lat="37.9749404" lon="12.8784387"><ele>285.0</ele><time>2026-05-05T13:54:20.566Z</time></trkpt><trkpt lat="37.9749159" lon="12.8783075"><ele>285.0</ele><time>2026-05-05T13:54:21.563Z</time></trkpt><trkpt lat="37.9748949" lon="12.8781773"><ele>285.0</ele><time>2026-05-05T13:54:22.564Z</time></trkpt><trkpt lat="37.9748722" lon="12.8780383"><ele>286.0</ele><time>2026-05-05T13:54:23.565Z</time></trkpt><trkpt lat="37.9748487" lon="12.8778932"><ele>287.0</ele><time>2026-05-05T13:54:24.565Z</time></trkpt><trkpt lat="37.9748281" lon="12.8777413"><ele>288.0</ele><time>2026-05-05T13:54:25.564Z</time></trkpt><trkpt lat="37.9748049" lon="12.8775914"><ele>289.0</ele><time>2026-05-05T13:54:26.564Z</time></trkpt><trkpt lat="37.9747726" lon="12.8774426"><ele>289.4</ele><time>2026-05-05T13:54:27.564Z</time></trkpt><trkpt lat="37.9747315" lon="12.8773061"><ele>289.79999999999995</ele><time>2026-05-05T13:54:28.565Z</time></trkpt><trkpt lat="37.9746796" lon="12.877185"><ele>290.20000000000005</ele><time>2026-05-05T13:54:29.564Z</time></trkpt><trkpt lat="37.9746149" lon="12.8770743"><ele>290.6</ele><time>2026-05-05T13:54:30.565Z</time></trkpt><trkpt lat="37.9745401" lon="12.8769713"><ele>291.0</ele><time>2026-05-05T13:54:31.564Z</time></trkpt><trkpt lat="37.9744516" lon="12.8768752"><ele>291.0</ele><time>2026-05-05T13:54:32.565Z</time></trkpt><trkpt lat="37.9743697" lon="12.8767768"><ele>291.0</ele><time>2026-05-05T13:54:33.565Z</time></trkpt><trkpt lat="37.9742992" lon="12.8766772"><ele>291.0</ele><time>2026-05-05T13:54:34.564Z</time></trkpt><trkpt lat="37.9742375" lon="12.8765757"><ele>291.0</ele><time>2026-05-05T13:54:35.565Z</time></trkpt><trkpt lat="37.9741854" lon="12.8764611"><ele>291.0</ele><time>2026-05-05T13:54:36.565Z</time></trkpt><trkpt lat="37.9741357" lon="12.8763361"><ele>289.25</ele><time>2026-05-05T13:54:37.564Z</time></trkpt><trkpt lat="37.974088" lon="12.8762001"><ele>287.5</ele><time>2026-05-05T13:54:38.565Z</time></trkpt><trkpt lat="37.9740388" lon="12.8760616"><ele>285.75</ele><time>2026-05-05T13:54:39.564Z</time></trkpt><trkpt lat="37.9739939" lon="12.8759152"><ele>284.0</ele><time>2026-05-05T13:54:40.564Z</time></trkpt><trkpt lat="37.9739583" lon="12.8757622"><ele>284.0</ele><time>2026-05-05T13:54:41.564Z</time></trkpt><trkpt lat="37.9739277" lon="12.8756104"><ele>284.0</ele><time>2026-05-05T13:54:42.565Z</time></trkpt><trkpt lat="37.9739007" lon="12.8754649"><ele>284.0</ele><time>2026-05-05T13:54:43.564Z</time></trkpt><trkpt lat="37.9738781" lon="12.8753204"><ele>284.0</ele><time>2026-05-05T13:54:44.565Z</time></trkpt><trkpt lat="37.9738543" lon="12.875174"><ele>285.75</ele><time>2026-05-05T13:54:45.564Z</time></trkpt><trkpt lat="37.9738261" lon="12.8750303"><ele>287.5</ele><time>2026-05-05T13:54:46.564Z</time></trkpt><trkpt lat="37.973787" lon="12.8748864"><ele>289.25</ele><time>2026-05-05T13:54:47.565Z</time></trkpt><trkpt lat="37.9737427" lon="12.8747476"><ele>291.0</ele><time>2026-05-05T13:54:48.563Z</time></trkpt><trkpt lat="37.9736963" lon="12.8746198"><ele>291.0</ele><time>2026-05-05T13:54:49.565Z</time></trkpt><trkpt lat="37.973643" lon="12.8744987"><ele>291.0</ele><time>2026-05-05T13:54:50.565Z</time></trkpt><trkpt lat="37.9735854" lon="12.874381"><ele>291.0</ele><time>2026-05-05T13:54:51.565Z</time></trkpt><trkpt lat="37.9735266" lon="12.8742655"><ele>291.0</ele><time>2026-05-05T13:54:52.563Z</time></trkpt><trkpt lat="37.9734643" lon="12.8741555"><ele>291.0</ele><time>2026-05-05T13:54:53.564Z</time></trkpt><trkpt lat="37.9733949" lon="12.8740479"><ele>289.6</ele><time>2026-05-05T13:54:54.564Z</time></trkpt><trkpt lat="37.9733143" lon="12.8739466"><ele>288.20000000000005</ele><time>2026-05-05T13:54:55.564Z</time></trkpt><trkpt lat="37.973229" lon="12.8738544"><ele>286.79999999999995</ele><time>2026-05-05T13:54:56.564Z</time></trkpt><trkpt lat="37.9731371" lon="12.8737712"><ele>285.4</ele><time>2026-05-05T13:54:57.566Z</time></trkpt><trkpt lat="37.9730448" lon="12.8736958"><ele>284.0</ele><time>2026-05-05T13:54:58.564Z</time></trkpt><trkpt lat="37.9729579" lon="12.8736319"><ele>284.0</ele><time>2026-05-05T13:54:59.564Z</time></trkpt><trkpt lat="37.9728735" lon="12.8735805"><ele>284.0</ele><time>2026-05-05T13:55:00.565Z</time></trkpt><trkpt lat="37.9727827" lon="12.8735559"><ele>284.0</ele><time>2026-05-05T13:55:01.565Z</time></trkpt><trkpt lat="37.9726927" lon="12.8735528"><ele>284.0</ele><time>2026-05-05T13:55:02.565Z</time></trkpt><trkpt lat="37.9726024" lon="12.8735669"><ele>284.0</ele><time>2026-05-05T13:55:03.564Z</time></trkpt><trkpt lat="37.9725099" lon="12.8735822"><ele>281.5</ele><time>2026-05-05T13:55:04.565Z</time></trkpt><trkpt lat="37.9724168" lon="12.8736022"><ele>279.0</ele><time>2026-05-05T13:55:05.565Z</time></trkpt><trkpt lat="37.9723239" lon="12.8736159"><ele>276.5</ele><time>2026-05-05T13:55:06.564Z</time></trkpt><trkpt lat="37.9722352" lon="12.8736087"><ele>274.0</ele><time>2026-05-05T13:55:07.563Z</time></trkpt><trkpt lat="37.9721511" lon="12.8735843"><ele>271.5</ele><time>2026-05-05T13:55:08.564Z</time></trkpt><trkpt lat="37.9720771" lon="12.8735388"><ele>269.0</ele><time>2026-05-05T13:55:09.564Z</time></trkpt><trkpt lat="37.9720156" lon="12.8734856"><ele>272.8</ele><time>2026-05-05T13:55:10.565Z</time></trkpt><trkpt lat="37.9719575" lon="12.8733984"><ele>276.59999999999997</ele><time>2026-05-05T13:55:11.564Z</time></trkpt><trkpt lat="37.9718915" lon="12.8732884"><ele>280.4</ele><time>2026-05-05T13:55:12.566Z</time></trkpt><trkpt lat="37.9718185" lon="12.8731857"><ele>284.2</ele><time>2026-05-05T13:55:13.564Z</time></trkpt><trkpt lat="37.9717598" lon="12.8731081"><ele>288.0</ele><time>2026-05-05T13:55:14.565Z</time></trkpt><trkpt lat="37.9717508" lon="12.8730221"><ele>288.0</ele><time>2026-05-05T13:55:16.563Z</time></trkpt><trkpt lat="37.9718071" lon="12.8729756"><ele>288.0</ele><time>2026-05-05T13:55:18.564Z</time></trkpt><trkpt lat="37.9719349" lon="12.8730428"><ele>288.0</ele><time>2026-05-05T13:55:20.565Z</time></trkpt><trkpt lat="37.972025" lon="12.8731113"><ele>288.0</ele><time>2026-05-05T13:55:21.563Z</time></trkpt><trkpt lat="37.9721096" lon="12.873171"><ele>288.0</ele><time>2026-05-05T13:55:22.564Z</time></trkpt><trkpt lat="37.9721906" lon="12.8732089"><ele>288.00000000000006</ele><time>2026-05-05T13:55:23.564Z</time></trkpt><trkpt lat="37.972262" lon="12.8731752"><ele>288.0</ele><time>2026-05-05T13:55:25.564Z</time></trkpt><trkpt lat="37.9722384" lon="12.8730984"><ele>288.0</ele><time>2026-05-05T13:55:27.564Z</time></trkpt><trkpt lat="37.9721881" lon="12.8730397"><ele>288.0</ele><time>2026-05-05T13:55:28.564Z</time></trkpt><trkpt lat="37.9721334" lon="12.872974"><ele>288.0</ele><time>2026-05-05T13:55:29.563Z</time></trkpt><trkpt lat="37.9720795" lon="12.8729012"><ele>288.00000000000006</ele><time>2026-05-05T13:55:30.565Z</time></trkpt><trkpt lat="37.9720294" lon="12.8728291"><ele>288.0</ele><time>2026-05-05T13:55:31.564Z</time></trkpt><trkpt lat="37.9719744" lon="12.8727641"><ele>288.00000000000006</ele><time>2026-05-05T13:55:32.566Z</time></trkpt><trkpt lat="37.9719211" lon="12.8727039"><ele>288.0</ele><time>2026-05-05T13:55:33.564Z</time></trkpt><trkpt lat="37.9718698" lon="12.8726534"><ele>288.0</ele><time>2026-05-05T13:55:34.564Z</time></trkpt><trkpt lat="37.9718138" lon="12.8726138"><ele>288.0</ele><time>2026-05-05T13:55:35.564Z</time></trkpt><trkpt lat="37.9717487" lon="12.8725831"><ele>288.0</ele><time>2026-05-05T13:55:36.564Z</time></trkpt><trkpt lat="37.9716733" lon="12.8725639"><ele>288.00000000000006</ele><time>2026-05-05T13:55:37.565Z</time></trkpt><trkpt lat="37.9715927" lon="12.872534"><ele>288.0</ele><time>2026-05-05T13:55:38.564Z</time></trkpt><trkpt lat="37.9715089" lon="12.8724945"><ele>290.0</ele><time>2026-05-05T13:55:39.565Z</time></trkpt><trkpt lat="37.9714283" lon="12.8724391"><ele>292.0</ele><time>2026-05-05T13:55:40.564Z</time></trkpt><trkpt lat="37.9713476" lon="12.8723774"><ele>294.0</ele><time>2026-05-05T13:55:41.565Z</time></trkpt><trkpt lat="37.9712667" lon="12.8723133"><ele>296.0</ele><time>2026-05-05T13:55:42.564Z</time></trkpt><trkpt lat="37.9711817" lon="12.8722633"><ele>298.0</ele><time>2026-05-05T13:55:43.565Z</time></trkpt><trkpt lat="37.971095" lon="12.87222"><ele>298.0</ele><time>2026-05-05T13:55:44.564Z</time></trkpt><trkpt lat="37.97101" lon="12.8721767"><ele>298.0</ele><time>2026-05-05T13:55:45.564Z</time></trkpt><trkpt lat="37.9709267" lon="12.872135"><ele>298.0</ele><time>2026-05-05T13:55:46.564Z</time></trkpt><trkpt lat="37.97084" lon="12.8720833"><ele>298.0</ele><time>2026-05-05T13:55:47.565Z</time></trkpt><trkpt lat="37.9707533" lon="12.8720283"><ele>298.0</ele><time>2026-05-05T13:55:48.564Z</time></trkpt><trkpt lat="37.9706683" lon="12.87197"><ele>295.6</ele><time>2026-05-05T13:55:49.565Z</time></trkpt><trkpt lat="37.97058" lon="12.8719083"><ele>293.20000000000005</ele><time>2026-05-05T13:55:50.564Z</time></trkpt><trkpt lat="37.9704933" lon="12.871845"><ele>290.8</ele><time>2026-05-05T13:55:51.564Z</time></trkpt><trkpt lat="37.970405" lon="12.8717783"><ele>288.40000000000003</ele><time>2026-05-05T13:55:52.564Z</time></trkpt><trkpt lat="37.9703167" lon="12.8717133"><ele>286.0</ele><time>2026-05-05T13:55:53.564Z</time></trkpt><trkpt lat="37.9702317" lon="12.87165"><ele>287.2</ele><time>2026-05-05T13:55:54.564Z</time></trkpt><trkpt lat="37.9701517" lon="12.8715917"><ele>288.40000000000003</ele><time>2026-05-05T13:55:55.564Z</time></trkpt><trkpt lat="37.9700767" lon="12.8715383"><ele>289.6</ele><time>2026-05-05T13:55:56.565Z</time></trkpt><trkpt lat="37.9699967" lon="12.8714833"><ele>290.8</ele><time>2026-05-05T13:55:57.565Z</time></trkpt><trkpt lat="37.9699133" lon="12.87143"><ele>292.0</ele><time>2026-05-05T13:55:58.564Z</time></trkpt><trkpt lat="37.9698317" lon="12.871385"><ele>292.0</ele><time>2026-05-05T13:55:59.564Z</time></trkpt><trkpt lat="37.969755" lon="12.871345"><ele>292.0</ele><time>2026-05-05T13:56:00.564Z</time></trkpt><trkpt lat="37.96968" lon="12.8713067"><ele>292.0</ele><time>2026-05-05T13:56:01.566Z</time></trkpt><trkpt lat="37.969605" lon="12.871255"><ele>292.0</ele><time>2026-05-05T13:56:02.565Z</time></trkpt><trkpt lat="37.9695367" lon="12.871185"><ele>292.0</ele><time>2026-05-05T13:56:03.564Z</time></trkpt><trkpt lat="37.9694683" lon="12.8710967"><ele>292.0</ele><time>2026-05-05T13:56:04.564Z</time></trkpt><trkpt lat="37.9694" lon="12.870995"><ele>299.0</ele><time>2026-05-05T13:56:05.564Z</time></trkpt><trkpt lat="37.9693417" lon="12.870875"><ele>306.0</ele><time>2026-05-05T13:56:06.564Z</time></trkpt><trkpt lat="37.9692967" lon="12.8707383"><ele>313.0</ele><time>2026-05-05T13:56:07.565Z</time></trkpt><trkpt lat="37.969265" lon="12.8705917"><ele>320.0</ele><time>2026-05-05T13:56:08.565Z</time></trkpt><trkpt lat="37.96924" lon="12.87044"><ele>320.0</ele><time>2026-05-05T13:56:09.565Z</time></trkpt><trkpt lat="37.969205" lon="12.8702933"><ele>320.0</ele><time>2026-05-05T13:56:10.565Z</time></trkpt><trkpt lat="37.9691517" lon="12.8701583"><ele>320.0</ele><time>2026-05-05T13:56:11.564Z</time></trkpt><trkpt lat="37.9690833" lon="12.8700383"><ele>320.0</ele><time>2026-05-05T13:56:12.564Z</time></trkpt><trkpt lat="37.96901" lon="12.8699233"><ele>316.5</ele><time>2026-05-05T13:56:13.565Z</time></trkpt><trkpt lat="37.968935" lon="12.8698017"><ele>313.0</ele><time>2026-05-05T13:56:14.564Z</time></trkpt><trkpt lat="37.9688733" lon="12.86966"><ele>309.5</ele><time>2026-05-05T13:56:15.564Z</time></trkpt><trkpt lat="37.968815" lon="12.8695133"><ele>306.0</ele><time>2026-05-05T13:56:16.564Z</time></trkpt><trkpt lat="37.96876" lon="12.8693633"><ele>310.25</ele><time>2026-05-05T13:56:17.564Z</time></trkpt><trkpt lat="37.9687067" lon="12.869215"><ele>314.5</ele><time>2026-05-05T13:56:18.564Z</time></trkpt><trkpt lat="37.9686617" lon="12.86906"><ele>318.75</ele><time>2026-05-05T13:56:19.564Z</time></trkpt><trkpt lat="37.9686167" lon="12.8689033"><ele>323.0</ele><time>2026-05-05T13:56:20.566Z</time></trkpt><trkpt lat="37.9685717" lon="12.8687517"><ele>323.0</ele><time>2026-05-05T13:56:21.564Z</time></trkpt><trkpt lat="37.9685167" lon="12.8686033"><ele>323.0</ele><time>2026-05-05T13:56:22.563Z</time></trkpt><trkpt lat="37.9684633" lon="12.8684617"><ele>323.0</ele><time>2026-05-05T13:56:23.565Z</time></trkpt><trkpt lat="37.9684117" lon="12.868315"><ele>323.0</ele><time>2026-05-05T13:56:24.564Z</time></trkpt><trkpt lat="37.9683633" lon="12.8681667"><ele>320.5</ele><time>2026-05-05T13:56:25.564Z</time></trkpt><trkpt lat="37.9683183" lon="12.86802"><ele>318.0</ele><time>2026-05-05T13:56:26.565Z</time></trkpt><trkpt lat="37.96828" lon="12.8678683"><ele>315.5</ele><time>2026-05-05T13:56:27.564Z</time></trkpt><trkpt lat="37.9682433" lon="12.8677183"><ele>313.0</ele><time>2026-05-05T13:56:28.564Z</time></trkpt><trkpt lat="37.9682083" lon="12.8675717"><ele>313.0</ele><time>2026-05-05T13:56:29.563Z</time></trkpt><trkpt lat="37.96818" lon="12.8674233"><ele>313.0</ele><time>2026-05-05T13:56:30.564Z</time></trkpt><trkpt lat="37.968165" lon="12.86727"><ele>313.0</ele><time>2026-05-05T13:56:31.564Z</time></trkpt><trkpt lat="37.968165" lon="12.8671117"><ele>313.0</ele><time>2026-05-05T13:56:32.565Z</time></trkpt><trkpt lat="37.9681817" lon="12.8669533"><ele>313.0</ele><time>2026-05-05T13:56:33.565Z</time></trkpt><trkpt lat="37.9682133" lon="12.8667967"><ele>313.0</ele><time>2026-05-05T13:56:34.564Z</time></trkpt><trkpt lat="37.9682583" lon="12.86664"><ele>313.0</ele><time>2026-05-05T13:56:35.564Z</time></trkpt><trkpt lat="37.9683083" lon="12.866485"><ele>313.0</ele><time>2026-05-05T13:56:36.565Z</time></trkpt><trkpt lat="37.9683683" lon="12.8663267"><ele>318.5</ele><time>2026-05-05T13:56:37.564Z</time></trkpt><trkpt lat="37.9684417" lon="12.8661683"><ele>324.0</ele><time>2026-05-05T13:56:38.564Z</time></trkpt><trkpt lat="37.9685133" lon="12.86601"><ele>329.5</ele><time>2026-05-05T13:56:39.565Z</time></trkpt><trkpt lat="37.9685833" lon="12.865855"><ele>335.0</ele><time>2026-05-05T13:56:40.563Z</time></trkpt><trkpt lat="37.9686517" lon="12.8657067"><ele>335.0</ele><time>2026-05-05T13:56:41.564Z</time></trkpt><trkpt lat="37.9687183" lon="12.8655667"><ele>335.0</ele><time>2026-05-05T13:56:42.564Z</time></trkpt><trkpt lat="37.9687833" lon="12.8654383"><ele>335.0</ele><time>2026-05-05T13:56:43.564Z</time></trkpt><trkpt lat="37.9688483" lon="12.86533"><ele>335.0</ele><time>2026-05-05T13:56:44.564Z</time></trkpt><trkpt lat="37.9689117" lon="12.8652317"><ele>335.0</ele><time>2026-05-05T13:56:45.565Z</time></trkpt><trkpt lat="37.9689633" lon="12.865145"><ele>335.0</ele><time>2026-05-05T13:56:46.564Z</time></trkpt><trkpt lat="37.9690033" lon="12.8650683"><ele>335.0</ele><time>2026-05-05T13:56:47.563Z</time></trkpt><trkpt lat="37.9690783" lon="12.86497"><ele>335.0</ele><time>2026-05-05T13:56:49.564Z</time></trkpt><trkpt lat="37.9691767" lon="12.864985"><ele>335.0</ele><time>2026-05-05T13:56:51.564Z</time></trkpt><trkpt lat="37.9692367" lon="12.8650717"><ele>335.0</ele><time>2026-05-05T13:56:53.564Z</time></trkpt><trkpt lat="37.9692033" lon="12.865185"><ele>335.0</ele><time>2026-05-05T13:56:55.564Z</time></trkpt><trkpt lat="37.9691517" lon="12.86524"><ele>335.0</ele><time>2026-05-05T13:56:56.564Z</time></trkpt><trkpt lat="37.9690867" lon="12.8653167"><ele>335.0</ele><time>2026-05-05T13:56:57.564Z</time></trkpt><trkpt lat="37.9690333" lon="12.8654083"><ele>335.0</ele><time>2026-05-05T13:56:58.564Z</time></trkpt><trkpt lat="37.968995" lon="12.8655217"><ele>335.0</ele><time>2026-05-05T13:56:59.563Z</time></trkpt><trkpt lat="37.96897" lon="12.86565"><ele>335.0</ele><time>2026-05-05T13:57:00.565Z</time></trkpt><trkpt lat="37.968945" lon="12.8657833"><ele>335.0</ele><time>2026-05-05T13:57:01.564Z</time></trkpt><trkpt lat="37.9689183" lon="12.8659233"><ele>335.0</ele><time>2026-05-05T13:57:02.564Z</time></trkpt><trkpt lat="37.96889" lon="12.8660667"><ele>335.0</ele><time>2026-05-05T13:57:03.564Z</time></trkpt><trkpt lat="37.9688583" lon="12.8662217"><ele>336.75</ele><time>2026-05-05T13:57:04.564Z</time></trkpt><trkpt lat="37.9688283" lon="12.86638"><ele>338.5</ele><time>2026-05-05T13:57:05.563Z</time></trkpt><trkpt lat="37.9688067" lon="12.866545"><ele>340.25</ele><time>2026-05-05T13:57:06.564Z</time></trkpt><trkpt lat="37.9688017" lon="12.8667217"><ele>342.0</ele><time>2026-05-05T13:57:07.565Z</time></trkpt><trkpt lat="37.9688067" lon="12.866905"><ele>342.3333333333333</ele><time>2026-05-05T13:57:08.565Z</time></trkpt><trkpt lat="37.9688267" lon="12.8670967"><ele>342.66666666666663</ele><time>2026-05-05T13:57:09.564Z</time></trkpt><trkpt lat="37.9688583" lon="12.8672967"><ele>343.0</ele><time>2026-05-05T13:57:10.565Z</time></trkpt><trkpt lat="37.9688983" lon="12.867495"><ele>342.0</ele><time>2026-05-05T13:57:11.564Z</time></trkpt><trkpt lat="37.9689417" lon="12.86767"><ele>341.0</ele><time>2026-05-05T13:57:12.563Z</time></trkpt><trkpt lat="37.968995" lon="12.8678317"><ele>340.0</ele><time>2026-05-05T13:57:13.563Z</time></trkpt><trkpt lat="37.96907" lon="12.8679967"><ele>339.0</ele><time>2026-05-05T13:57:14.565Z</time></trkpt><trkpt lat="37.969155" lon="12.8681567"><ele>344.5</ele><time>2026-05-05T13:57:15.563Z</time></trkpt><trkpt lat="37.9692333" lon="12.8683017"><ele>350.0</ele><time>2026-05-05T13:57:16.565Z</time></trkpt><trkpt lat="37.9693233" lon="12.8684467"><ele>355.5</ele><time>2026-05-05T13:57:17.565Z</time></trkpt><trkpt lat="37.9694183" lon="12.8685833"><ele>361.0</ele><time>2026-05-05T13:57:18.564Z</time></trkpt><trkpt lat="37.9695083" lon="12.8687133"><ele>361.0</ele><time>2026-05-05T13:57:19.565Z</time></trkpt><trkpt lat="37.969605" lon="12.8688433"><ele>361.0</ele><time>2026-05-05T13:57:20.564Z</time></trkpt><trkpt lat="37.9696967" lon="12.868975"><ele>361.0</ele><time>2026-05-05T13:57:21.564Z</time></trkpt><trkpt lat="37.9697833" lon="12.8690983"><ele>361.0</ele><time>2026-05-05T13:57:22.564Z</time></trkpt><trkpt lat="37.9698717" lon="12.86921"><ele>363.25</ele><time>2026-05-05T13:57:23.564Z</time></trkpt><trkpt lat="37.9699783" lon="12.8693117"><ele>365.5</ele><time>2026-05-05T13:57:24.564Z</time></trkpt><trkpt lat="37.970105" lon="12.8694217"><ele>367.75</ele><time>2026-05-05T13:57:25.563Z</time></trkpt><trkpt lat="37.9702367" lon="12.8695333"><ele>370.0</ele><time>2026-05-05T13:57:26.565Z</time></trkpt><trkpt lat="37.9703517" lon="12.869625"><ele>370.0</ele><time>2026-05-05T13:57:27.563Z</time></trkpt><trkpt lat="37.97046" lon="12.8696983"><ele>370.0</ele><time>2026-05-05T13:57:28.564Z</time></trkpt><trkpt lat="37.970585" lon="12.86976"><ele>370.0</ele><time>2026-05-05T13:57:29.564Z</time></trkpt><trkpt lat="37.9707233" lon="12.8698167"><ele>370.0</ele><time>2026-05-05T13:57:30.564Z</time></trkpt><trkpt lat="37.9708567" lon="12.86987"><ele>374.5</ele><time>2026-05-05T13:57:31.564Z</time></trkpt><trkpt lat="37.9709833" lon="12.8699133"><ele>379.0</ele><time>2026-05-05T13:57:32.564Z</time></trkpt><trkpt lat="37.9711067" lon="12.8699533"><ele>383.5</ele><time>2026-05-05T13:57:33.564Z</time></trkpt><trkpt lat="37.9712217" lon="12.8699933"><ele>388.0</ele><time>2026-05-05T13:57:34.565Z</time></trkpt><trkpt lat="37.9713317" lon="12.8700317"><ele>388.0</ele><time>2026-05-05T13:57:35.565Z</time></trkpt><trkpt lat="37.97144" lon="12.87007"><ele>388.0</ele><time>2026-05-05T13:57:36.564Z</time></trkpt><trkpt lat="37.971545" lon="12.87011"><ele>388.0</ele><time>2026-05-05T13:57:37.566Z</time></trkpt><trkpt lat="37.9716517" lon="12.87015"><ele>388.0</ele><time>2026-05-05T13:57:38.565Z</time></trkpt><trkpt lat="37.9717583" lon="12.87019"><ele>388.0</ele><time>2026-05-05T13:57:39.565Z</time></trkpt><trkpt lat="37.9718667" lon="12.8702317"><ele>388.4</ele><time>2026-05-05T13:57:40.565Z</time></trkpt><trkpt lat="37.9719617" lon="12.8702783"><ele>388.79999999999995</ele><time>2026-05-05T13:57:41.564Z</time></trkpt><trkpt lat="37.97204" lon="12.870315"><ele>389.2</ele><time>2026-05-05T13:57:42.563Z</time></trkpt><trkpt lat="37.9721083" lon="12.8703333"><ele>389.6</ele><time>2026-05-05T13:57:43.564Z</time></trkpt><trkpt lat="37.97221" lon="12.87029"><ele>390.0</ele><time>2026-05-05T13:57:45.564Z</time></trkpt><trkpt lat="37.9722267" lon="12.8701767"><ele>393.25</ele><time>2026-05-05T13:57:47.565Z</time></trkpt><trkpt lat="37.9721333" lon="12.8700383"><ele>396.5</ele><time>2026-05-05T13:57:49.565Z</time></trkpt><trkpt lat="37.9720433" lon="12.8699467"><ele>399.75</ele><time>2026-05-05T13:57:50.564Z</time></trkpt><trkpt lat="37.9719417" lon="12.8698383"><ele>403.0</ele><time>2026-05-05T13:57:51.565Z</time></trkpt><trkpt lat="37.9718417" lon="12.8697383"><ele>403.0</ele><time>2026-05-05T13:57:52.565Z</time></trkpt><trkpt lat="37.9717433" lon="12.8696383"><ele>403.0</ele><time>2026-05-05T13:57:53.565Z</time></trkpt><trkpt lat="37.9716483" lon="12.8695467"><ele>403.0</ele><time>2026-05-05T13:57:54.564Z</time></trkpt><trkpt lat="37.9715633" lon="12.8694617"><ele>403.0</ele><time>2026-05-05T13:57:55.564Z</time></trkpt><trkpt lat="37.9714817" lon="12.8693833"><ele>402.4</ele><time>2026-05-05T13:57:56.565Z</time></trkpt><trkpt lat="37.9714017" lon="12.8693083"><ele>401.79999999999995</ele><time>2026-05-05T13:57:57.564Z</time></trkpt><trkpt lat="37.971325" lon="12.8692217"><ele>401.2</ele><time>2026-05-05T13:57:58.565Z</time></trkpt><trkpt lat="37.9712583" lon="12.8691283"><ele>400.6</ele><time>2026-05-05T13:57:59.565Z</time></trkpt><trkpt lat="37.9711983" lon="12.8690233"><ele>400.0</ele><time>2026-05-05T13:58:00.565Z</time></trkpt><trkpt lat="37.9711383" lon="12.86891"><ele>400.0</ele><time>2026-05-05T13:58:01.565Z</time></trkpt><trkpt lat="37.9710783" lon="12.8687983"><ele>400.0</ele><time>2026-05-05T13:58:02.565Z</time></trkpt><trkpt lat="37.9710217" lon="12.8686933"><ele>400.0</ele><time>2026-05-05T13:58:03.564Z</time></trkpt><trkpt lat="37.9709633" lon="12.868595"><ele>400.0</ele><time>2026-05-05T13:58:04.566Z</time></trkpt><trkpt lat="37.9709133" lon="12.8685067"><ele>400.0</ele><time>2026-05-05T13:58:05.564Z</time></trkpt><trkpt lat="37.9708683" lon="12.8684233"><ele>398.6</ele><time>2026-05-05T13:58:06.564Z</time></trkpt><trkpt lat="37.9708283" lon="12.8683467"><ele>397.2</ele><time>2026-05-05T13:58:07.564Z</time></trkpt><trkpt lat="37.9708" lon="12.868265"><ele>395.79999999999995</ele><time>2026-05-05T13:58:08.565Z</time></trkpt><trkpt lat="37.970795" lon="12.8681233"><ele>394.4</ele><time>2026-05-05T13:58:10.564Z</time></trkpt><trkpt lat="37.9708717" lon="12.8680683"><ele>393.0</ele><time>2026-05-05T13:58:12.565Z</time></trkpt><trkpt lat="37.9709767" lon="12.868135"><ele>394.1666666666667</ele><time>2026-05-05T13:58:14.564Z</time></trkpt><trkpt lat="37.9710267" lon="12.8681933"><ele>395.33333333333337</ele><time>2026-05-05T13:58:15.564Z</time></trkpt><trkpt lat="37.9710783" lon="12.8682567"><ele>396.5</ele><time>2026-05-05T13:58:16.564Z</time></trkpt><trkpt lat="37.97113" lon="12.8683267"><ele>397.6666666666667</ele><time>2026-05-05T13:58:17.565Z</time></trkpt><trkpt lat="37.9711867" lon="12.8683967"><ele>398.83333333333337</ele><time>2026-05-05T13:58:18.565Z</time></trkpt><trkpt lat="37.97125" lon="12.8684667"><ele>400.0</ele><time>2026-05-05T13:58:19.565Z</time></trkpt><trkpt lat="37.9713167" lon="12.86854"><ele>400.0</ele><time>2026-05-05T13:58:20.565Z</time></trkpt><trkpt lat="37.9713867" lon="12.868615"><ele>400.0</ele><time>2026-05-05T13:58:21.564Z</time></trkpt><trkpt lat="37.9714633" lon="12.8686867"><ele>400.0</ele><time>2026-05-05T13:58:22.565Z</time></trkpt><trkpt lat="37.9715433" lon="12.8687483"><ele>400.0</ele><time>2026-05-05T13:58:23.564Z</time></trkpt><trkpt lat="37.9716233" lon="12.8687983"><ele>400.0</ele><time>2026-05-05T13:58:24.565Z</time></trkpt><trkpt lat="37.9717033" lon="12.8688383"><ele>403.1666666666667</ele><time>2026-05-05T13:58:25.565Z</time></trkpt><trkpt lat="37.971775" lon="12.8688667"><ele>406.33333333333337</ele><time>2026-05-05T13:58:26.565Z</time></trkpt><trkpt lat="37.9718417" lon="12.8688683"><ele>409.5</ele><time>2026-05-05T13:58:27.564Z</time></trkpt><trkpt lat="37.97192" lon="12.868795"><ele>412.66666666666663</ele><time>2026-05-05T13:58:29.565Z</time></trkpt><trkpt lat="37.9719233" lon="12.8686717"><ele>415.8333333333333</ele><time>2026-05-05T13:58:31.565Z</time></trkpt><trkpt lat="37.97188" lon="12.8686083"><ele>419.0</ele><time>2026-05-05T13:58:32.566Z</time></trkpt><trkpt lat="37.9718133" lon="12.8685533"><ele>418.99999999999994</ele><time>2026-05-05T13:58:33.563Z</time></trkpt><trkpt lat="37.9717267" lon="12.86853"><ele>419.0</ele><time>2026-05-05T13:58:34.563Z</time></trkpt><trkpt lat="37.97164" lon="12.8685017"><ele>419.0</ele><time>2026-05-05T13:58:35.564Z</time></trkpt><trkpt lat="37.9715667" lon="12.86847"><ele>419.0</ele><time>2026-05-05T13:58:36.564Z</time></trkpt><trkpt lat="37.9715083" lon="12.868415"><ele>418.99999999999994</ele><time>2026-05-05T13:58:37.563Z</time></trkpt><trkpt lat="37.9714633" lon="12.868335"><ele>419.0</ele><time>2026-05-05T13:58:38.564Z</time></trkpt><trkpt lat="37.97143" lon="12.8682417"><ele>418.2</ele><time>2026-05-05T13:58:39.565Z</time></trkpt><trkpt lat="37.971395" lon="12.8681317"><ele>417.4</ele><time>2026-05-05T13:58:40.564Z</time></trkpt><trkpt lat="37.97136" lon="12.8680217"><ele>416.6</ele><time>2026-05-05T13:58:41.565Z</time></trkpt><trkpt lat="37.9713317" lon="12.8679067"><ele>415.8</ele><time>2026-05-05T13:58:42.564Z</time></trkpt><trkpt lat="37.97132" lon="12.8678"><ele>415.0</ele><time>2026-05-05T13:58:43.564Z</time></trkpt><trkpt lat="37.9713233" lon="12.867695"><ele>416.0</ele><time>2026-05-05T13:58:44.566Z</time></trkpt><trkpt lat="37.97134" lon="12.8675883"><ele>417.0</ele><time>2026-05-05T13:58:45.563Z</time></trkpt><trkpt lat="37.971375" lon="12.86748"><ele>418.0</ele><time>2026-05-05T13:58:46.564Z</time></trkpt><trkpt lat="37.9714233" lon="12.8673717"><ele>419.0</ele><time>2026-05-05T13:58:47.564Z</time></trkpt><trkpt lat="37.9714783" lon="12.8672633"><ele>420.0</ele><time>2026-05-05T13:58:48.564Z</time></trkpt><trkpt lat="37.9715333" lon="12.8671517"><ele>420.0</ele><time>2026-05-05T13:58:49.564Z</time></trkpt><trkpt lat="37.97159" lon="12.8670383"><ele>420.0</ele><time>2026-05-05T13:58:50.566Z</time></trkpt><trkpt lat="37.9716383" lon="12.8669183"><ele>420.0</ele><time>2026-05-05T13:58:51.565Z</time></trkpt><trkpt lat="37.9716733" lon="12.866785"><ele>420.0</ele><time>2026-05-05T13:58:52.565Z</time></trkpt><trkpt lat="37.9717033" lon="12.8666483"><ele>420.0</ele><time>2026-05-05T13:58:53.564Z</time></trkpt><trkpt lat="37.97173" lon="12.8665217"><ele>422.4</ele><time>2026-05-05T13:58:54.564Z</time></trkpt><trkpt lat="37.971755" lon="12.8664133"><ele>424.8</ele><time>2026-05-05T13:58:55.564Z</time></trkpt><trkpt lat="37.971785" lon="12.8663317"><ele>427.20000000000005</ele><time>2026-05-05T13:58:56.564Z</time></trkpt><trkpt lat="37.971855" lon="12.866235"><ele>429.6</ele><time>2026-05-05T13:58:58.564Z</time></trkpt><trkpt lat="37.9719667" lon="12.8662867"><ele>432.0</ele><time>2026-05-05T13:59:00.565Z</time></trkpt><trkpt lat="37.9720217" lon="12.866355"><ele>432.0</ele><time>2026-05-05T13:59:01.565Z</time></trkpt><trkpt lat="37.9720817" lon="12.86647"><ele>432.00000000000006</ele><time>2026-05-05T13:59:02.565Z</time></trkpt><trkpt lat="37.97214" lon="12.8665783"><ele>432.00000000000006</ele><time>2026-05-05T13:59:03.564Z</time></trkpt><trkpt lat="37.9722017" lon="12.86668"><ele>432.0</ele><time>2026-05-05T13:59:04.564Z</time></trkpt><trkpt lat="37.97227" lon="12.8667767"><ele>432.0</ele><time>2026-05-05T13:59:05.569Z</time></trkpt><trkpt lat="37.9723417" lon="12.8668717"><ele>433.0</ele><time>2026-05-05T13:59:06.565Z</time></trkpt><trkpt lat="37.9724033" lon="12.8669667"><ele>434.00000000000006</ele><time>2026-05-05T13:59:07.565Z</time></trkpt><trkpt lat="37.972445" lon="12.86707"><ele>435.00000000000006</ele><time>2026-05-05T13:59:08.565Z</time></trkpt><trkpt lat="37.97247" lon="12.867185"><ele>436.0</ele><time>2026-05-05T13:59:09.564Z</time></trkpt><trkpt lat="37.972485" lon="12.8673067"><ele>437.0</ele><time>2026-05-05T13:59:10.563Z</time></trkpt><trkpt lat="37.9724967" lon="12.8674317"><ele>436.99999999999994</ele><time>2026-05-05T13:59:11.565Z</time></trkpt><trkpt lat="37.9725083" lon="12.8675483"><ele>437.0</ele><time>2026-05-05T13:59:12.564Z</time></trkpt><trkpt lat="37.9725283" lon="12.8676583"><ele>437.0</ele><time>2026-05-05T13:59:13.565Z</time></trkpt><trkpt lat="37.9725583" lon="12.86776"><ele>437.0</ele><time>2026-05-05T13:59:14.564Z</time></trkpt><trkpt lat="37.9726017" lon="12.86785"><ele>436.99999999999994</ele><time>2026-05-05T13:59:15.566Z</time></trkpt><trkpt lat="37.9726633" lon="12.8679317"><ele>437.0</ele><time>2026-05-05T13:59:16.564Z</time></trkpt><trkpt lat="37.9727283" lon="12.8680033"><ele>440.49999999999994</ele><time>2026-05-05T13:59:17.565Z</time></trkpt><trkpt lat="37.9727933" lon="12.868065"><ele>444.0</ele><time>2026-05-05T13:59:18.565Z</time></trkpt><trkpt lat="37.97285" lon="12.868105"><ele>447.5</ele><time>2026-05-05T13:59:19.566Z</time></trkpt><trkpt lat="37.9729417" lon="12.8680833"><ele>451.0</ele><time>2026-05-05T13:59:21.564Z</time></trkpt><trkpt lat="37.9729583" lon="12.867945"><ele>454.49999999999994</ele><time>2026-05-05T13:59:23.565Z</time></trkpt><trkpt lat="37.97295" lon="12.8678517"><ele>458.0</ele><time>2026-05-05T13:59:24.564Z</time></trkpt><trkpt lat="37.9729467" lon="12.8677433"><ele>458.0</ele><time>2026-05-05T13:59:25.564Z</time></trkpt><trkpt lat="37.9729433" lon="12.8676467"><ele>457.99999999999994</ele><time>2026-05-05T13:59:26.565Z</time></trkpt><trkpt lat="37.97295" lon="12.8675667"><ele>457.99999999999994</ele><time>2026-05-05T13:59:27.564Z</time></trkpt><trkpt lat="37.973045" lon="12.8675333"><ele>458.0</ele><time>2026-05-05T13:59:29.564Z</time></trkpt><trkpt lat="37.97314" lon="12.8676467"><ele>458.0</ele><time>2026-05-05T13:59:31.564Z</time></trkpt><trkpt lat="37.9731867" lon="12.867745"><ele>458.0</ele><time>2026-05-05T13:59:32.565Z</time></trkpt><trkpt lat="37.9732317" lon="12.8678533"><ele>457.99999999999994</ele><time>2026-05-05T13:59:33.564Z</time></trkpt><trkpt lat="37.9732767" lon="12.86796"><ele>457.99999999999994</ele><time>2026-05-05T13:59:34.565Z</time></trkpt><trkpt lat="37.9733217" lon="12.86807"><ele>458.0</ele><time>2026-05-05T13:59:35.564Z</time></trkpt><trkpt lat="37.9733617" lon="12.86817"><ele>458.0</ele><time>2026-05-05T13:59:36.565Z</time></trkpt><trkpt lat="37.9734017" lon="12.8682633"><ele>462.8333333333333</ele><time>2026-05-05T13:59:37.565Z</time></trkpt><trkpt lat="37.9734333" lon="12.8683567"><ele>467.66666666666663</ele><time>2026-05-05T13:59:38.563Z</time></trkpt><trkpt lat="37.973455" lon="12.868455"><ele>472.5</ele><time>2026-05-05T13:59:39.564Z</time></trkpt><trkpt lat="37.9734717" lon="12.8685533"><ele>477.33333333333337</ele><time>2026-05-05T13:59:40.564Z</time></trkpt><trkpt lat="37.973485" lon="12.8686483"><ele>482.1666666666667</ele><time>2026-05-05T13:59:41.563Z</time></trkpt><trkpt lat="37.9735083" lon="12.868735"><ele>487.0</ele><time>2026-05-05T13:59:42.564Z</time></trkpt><trkpt lat="37.9735483" lon="12.8688133"><ele>487.0</ele><time>2026-05-05T13:59:43.564Z</time></trkpt><trkpt lat="37.973595" lon="12.868875"><ele>487.00000000000006</ele><time>2026-05-05T13:59:44.565Z</time></trkpt><trkpt lat="37.9736833" lon="12.8689033"><ele>487.00000000000006</ele><time>2026-05-05T13:59:46.565Z</time></trkpt><trkpt lat="37.9737379" lon="12.8688301"><ele>487.0</ele><time>2026-05-05T13:59:48.566Z</time></trkpt><trkpt lat="37.9737326" lon="12.8686775"><ele>487.0</ele><time>2026-05-05T13:59:50.565Z</time></trkpt><trkpt lat="37.9737181" lon="12.8685592"><ele>487.20000000000005</ele><time>2026-05-05T13:59:51.564Z</time></trkpt><trkpt lat="37.9737147" lon="12.8684326"><ele>487.40000000000003</ele><time>2026-05-05T13:59:52.565Z</time></trkpt><trkpt lat="37.973729" lon="12.8683166"><ele>487.59999999999997</ele><time>2026-05-05T13:59:53.565Z</time></trkpt><trkpt lat="37.9737651" lon="12.8682087"><ele>487.79999999999995</ele><time>2026-05-05T13:59:54.564Z</time></trkpt><trkpt lat="37.9738175" lon="12.8681081"><ele>488.0</ele><time>2026-05-05T13:59:55.564Z</time></trkpt><trkpt lat="37.9738821" lon="12.8680159"><ele>488.0</ele><time>2026-05-05T13:59:56.564Z</time></trkpt><trkpt lat="37.973952" lon="12.8679273"><ele>487.99999999999994</ele><time>2026-05-05T13:59:57.564Z</time></trkpt><trkpt lat="37.9740204" lon="12.867829"><ele>487.99999999999994</ele><time>2026-05-05T13:59:58.564Z</time></trkpt><trkpt lat="37.9740795" lon="12.8677168"><ele>488.0</ele><time>2026-05-05T13:59:59.565Z</time></trkpt><trkpt lat="37.9741244" lon="12.8675907"><ele>488.0</ele><time>2026-05-05T14:00:00.565Z</time></trkpt><trkpt lat="37.9741648" lon="12.8674591"><ele>491.16666666666663</ele><time>2026-05-05T14:00:01.565Z</time></trkpt><trkpt lat="37.9742099" lon="12.8673316"><ele>494.3333333333333</ele><time>2026-05-05T14:00:02.565Z</time></trkpt><trkpt lat="37.9742612" lon="12.8672235"><ele>497.5</ele><time>2026-05-05T14:00:03.565Z</time></trkpt><trkpt lat="37.9743161" lon="12.8671463"><ele>500.66666666666663</ele><time>2026-05-05T14:00:04.564Z</time></trkpt><trkpt lat="37.974366" lon="12.8670946"><ele>503.8333333333333</ele><time>2026-05-05T14:00:05.566Z</time></trkpt><trkpt lat="37.9744289" lon="12.8670387"><ele>507.0</ele><time>2026-05-05T14:00:07.566Z</time></trkpt><trkpt lat="37.9745047" lon="12.8670018"><ele>507.0</ele><time>2026-05-05T14:00:11.565Z</time></trkpt><trkpt lat="37.9745515" lon="12.8671175"><ele>507.0</ele><time>2026-05-05T14:00:15.565Z</time></trkpt><trkpt lat="37.9745174" lon="12.867269"><ele>507.0</ele><time>2026-05-05T14:00:17.565Z</time></trkpt><trkpt lat="37.974494" lon="12.8673511"><ele>507.0</ele><time>2026-05-05T14:00:18.565Z</time></trkpt><trkpt lat="37.9744741" lon="12.8674341"><ele>507.0</ele><time>2026-05-05T14:00:19.565Z</time></trkpt><trkpt lat="37.9744658" lon="12.8675183"><ele>507.0</ele><time>2026-05-05T14:00:20.566Z</time></trkpt><trkpt lat="37.9744694" lon="12.8676014"><ele>508.3333333333333</ele><time>2026-05-05T14:00:21.565Z</time></trkpt><trkpt lat="37.9744886" lon="12.8676863"><ele>509.66666666666663</ele><time>2026-05-05T14:00:22.565Z</time></trkpt><trkpt lat="37.9745143" lon="12.8677757"><ele>511.0</ele><time>2026-05-05T14:00:23.565Z</time></trkpt><trkpt lat="37.9745331" lon="12.8678693"><ele>512.3333333333333</ele><time>2026-05-05T14:00:24.565Z</time></trkpt><trkpt lat="37.9745393" lon="12.8679697"><ele>513.6666666666666</ele><time>2026-05-05T14:00:25.564Z</time></trkpt><trkpt lat="37.9745304" lon="12.8680783"><ele>515.0</ele><time>2026-05-05T14:00:26.564Z</time></trkpt><trkpt lat="37.9745203" lon="12.868188"><ele>515.0</ele><time>2026-05-05T14:00:27.565Z</time></trkpt><trkpt lat="37.9745188" lon="12.8682966"><ele>515.0</ele><time>2026-05-05T14:00:28.565Z</time></trkpt><trkpt lat="37.9745284" lon="12.868408"><ele>515.0</ele><time>2026-05-05T14:00:29.565Z</time></trkpt><trkpt lat="37.9745481" lon="12.8685237"><ele>515.0</ele><time>2026-05-05T14:00:30.564Z</time></trkpt><trkpt lat="37.9745781" lon="12.8686421"><ele>515.0</ele><time>2026-05-05T14:00:31.565Z</time></trkpt><trkpt lat="37.9746162" lon="12.8687633"><ele>515.0</ele><time>2026-05-05T14:00:32.566Z</time></trkpt><trkpt lat="37.9746601" lon="12.868887"><ele>515.0</ele><time>2026-05-05T14:00:33.564Z</time></trkpt><trkpt lat="37.9747024" lon="12.869008"><ele>515.0</ele><time>2026-05-05T14:00:34.566Z</time></trkpt><trkpt lat="37.9747398" lon="12.8691314"><ele>515.0</ele><time>2026-05-05T14:00:35.565Z</time></trkpt><trkpt lat="37.9747635" lon="12.8692514"><ele>515.0</ele><time>2026-05-05T14:00:36.568Z</time></trkpt><trkpt lat="37.9747814" lon="12.8693695"><ele>514.4</ele><time>2026-05-05T14:00:37.566Z</time></trkpt><trkpt lat="37.9748017" lon="12.8694847"><ele>513.8</ele><time>2026-05-05T14:00:38.566Z</time></trkpt><trkpt lat="37.9748324" lon="12.8695945"><ele>513.2</ele><time>2026-05-05T14:00:39.565Z</time></trkpt><trkpt lat="37.9748735" lon="12.8697038"><ele>512.6</ele><time>2026-05-05T14:00:40.564Z</time></trkpt><trkpt lat="37.974914" lon="12.8698153"><ele>512.0</ele><time>2026-05-05T14:00:41.564Z</time></trkpt><trkpt lat="37.9749458" lon="12.8699345"><ele>512.0</ele><time>2026-05-05T14:00:42.565Z</time></trkpt><trkpt lat="37.9749633" lon="12.8700597"><ele>512.0</ele><time>2026-05-05T14:00:43.564Z</time></trkpt><trkpt lat="37.9749655" lon="12.8701867"><ele>512.0</ele><time>2026-05-05T14:00:44.565Z</time></trkpt><trkpt lat="37.9749574" lon="12.8703182"><ele>512.0</ele><time>2026-05-05T14:00:45.565Z</time></trkpt><trkpt lat="37.9749472" lon="12.8704555"><ele>512.0</ele><time>2026-05-05T14:00:46.566Z</time></trkpt><trkpt lat="37.9749387" lon="12.8705895"><ele>512.3333333333333</ele><time>2026-05-05T14:00:47.565Z</time></trkpt><trkpt lat="37.9749333" lon="12.8707104"><ele>512.6666666666666</ele><time>2026-05-05T14:00:48.565Z</time></trkpt><trkpt lat="37.9749309" lon="12.8708112"><ele>513.0</ele><time>2026-05-05T14:00:49.564Z</time></trkpt><trkpt lat="37.9749404" lon="12.870891"><ele>513.3333333333334</ele><time>2026-05-05T14:00:50.565Z</time></trkpt><trkpt lat="37.9750032" lon="12.8709525"><ele>513.6666666666667</ele><time>2026-05-05T14:00:52.566Z</time></trkpt><trkpt lat="37.97506" lon="12.8709078"><ele>514.0</ele><time>2026-05-05T14:00:54.565Z</time></trkpt><trkpt lat="37.9751072" lon="12.8707519"><ele>521.2</ele><time>2026-05-05T14:00:56.565Z</time></trkpt><trkpt lat="37.9751503" lon="12.8706248"><ele>528.4</ele><time>2026-05-05T14:00:57.565Z</time></trkpt><trkpt lat="37.9752" lon="12.8705008"><ele>535.6</ele><time>2026-05-05T14:00:58.564Z</time></trkpt><trkpt lat="37.9752453" lon="12.8703768"><ele>542.8</ele><time>2026-05-05T14:00:59.564Z</time></trkpt><trkpt lat="37.9752768" lon="12.8702529"><ele>550.0</ele><time>2026-05-05T14:01:00.564Z</time></trkpt><trkpt lat="37.975298" lon="12.8701302"><ele>549.0</ele><time>2026-05-05T14:01:01.563Z</time></trkpt><trkpt lat="37.9753187" lon="12.8700071"><ele>548.0</ele><time>2026-05-05T14:01:02.565Z</time></trkpt><trkpt lat="37.9753425" lon="12.8698847"><ele>547.0</ele><time>2026-05-05T14:01:03.565Z</time></trkpt><trkpt lat="37.97537" lon="12.869765"><ele>546.0</ele><time>2026-05-05T14:01:04.565Z</time></trkpt><trkpt lat="37.9753997" lon="12.8696475"><ele>545.0</ele><time>2026-05-05T14:01:05.564Z</time></trkpt><trkpt lat="37.9754299" lon="12.8695269"><ele>545.0</ele><time>2026-05-05T14:01:06.565Z</time></trkpt><trkpt lat="37.9754615" lon="12.869401"><ele>545.0</ele><time>2026-05-05T14:01:07.566Z</time></trkpt><trkpt lat="37.9754918" lon="12.8692767"><ele>545.0</ele><time>2026-05-05T14:01:08.566Z</time></trkpt><trkpt lat="37.9755204" lon="12.8691505"><ele>545.0</ele><time>2026-05-05T14:01:09.564Z</time></trkpt><trkpt lat="37.9755473" lon="12.8690199"><ele>545.0</ele><time>2026-05-05T14:01:10.565Z</time></trkpt><trkpt lat="37.9755708" lon="12.8688894"><ele>544.4</ele><time>2026-05-05T14:01:11.564Z</time></trkpt><trkpt lat="37.9755949" lon="12.8687603"><ele>543.8</ele><time>2026-05-05T14:01:12.564Z</time></trkpt><trkpt lat="37.9756211" lon="12.8686346"><ele>543.2</ele><time>2026-05-05T14:01:13.566Z</time></trkpt><trkpt lat="37.9756585" lon="12.8685138"><ele>542.6</ele><time>2026-05-05T14:01:14.564Z</time></trkpt><trkpt lat="37.9757076" lon="12.868398"><ele>542.0</ele><time>2026-05-05T14:01:15.564Z</time></trkpt><trkpt lat="37.9757675" lon="12.868284"><ele>542.0</ele><time>2026-05-05T14:01:16.565Z</time></trkpt><trkpt lat="37.9758308" lon="12.8681708"><ele>542.0</ele><time>2026-05-05T14:01:17.565Z</time></trkpt><trkpt lat="37.9758937" lon="12.8680563"><ele>542.0</ele><time>2026-05-05T14:01:18.565Z</time></trkpt><trkpt lat="37.9759588" lon="12.8679415"><ele>542.0</ele><time>2026-05-05T14:01:19.565Z</time></trkpt><trkpt lat="37.9760159" lon="12.867828"><ele>542.0</ele><time>2026-05-05T14:01:20.565Z</time></trkpt><trkpt lat="37.9760648" lon="12.8677336"><ele>545.2</ele><time>2026-05-05T14:01:21.565Z</time></trkpt><trkpt lat="37.9761073" lon="12.8676616"><ele>548.4000000000001</ele><time>2026-05-05T14:01:22.565Z</time></trkpt><trkpt lat="37.9761974" lon="12.8675981"><ele>551.5999999999999</ele><time>2026-05-05T14:01:24.566Z</time></trkpt><trkpt lat="37.9762621" lon="12.8676986"><ele>554.8</ele><time>2026-05-05T14:01:26.565Z</time></trkpt><trkpt lat="37.9762736" lon="12.8678596"><ele>558.0</ele><time>2026-05-05T14:01:28.564Z</time></trkpt><trkpt lat="37.9762607" lon="12.8679852"><ele>559.25</ele><time>2026-05-05T14:01:29.566Z</time></trkpt><trkpt lat="37.9762419" lon="12.8681389"><ele>560.5</ele><time>2026-05-05T14:01:30.565Z</time></trkpt><trkpt lat="37.9762272" lon="12.8683161"><ele>561.75</ele><time>2026-05-05T14:01:31.568Z</time></trkpt><trkpt lat="37.9762165" lon="12.8685044"><ele>563.0</ele><time>2026-05-05T14:01:32.565Z</time></trkpt><trkpt lat="37.9762031" lon="12.868711"><ele>565.0</ele><time>2026-05-05T14:01:33.564Z</time></trkpt><trkpt lat="37.9761906" lon="12.8689284"><ele>567.0</ele><time>2026-05-05T14:01:34.565Z</time></trkpt><trkpt lat="37.9761802" lon="12.8691491"><ele>569.0</ele><time>2026-05-05T14:01:35.565Z</time></trkpt><trkpt lat="37.9761744" lon="12.8693709"><ele>571.0</ele><time>2026-05-05T14:01:36.565Z</time></trkpt><trkpt lat="37.9761737" lon="12.869591"><ele>573.0</ele><time>2026-05-05T14:01:37.564Z</time></trkpt><trkpt lat="37.9761785" lon="12.8698021"><ele>575.0</ele><time>2026-05-05T14:01:38.566Z</time></trkpt><trkpt lat="37.976181" lon="12.8699905"><ele>576.2</ele><time>2026-05-05T14:01:39.564Z</time></trkpt><trkpt lat="37.9761726" lon="12.8701505"><ele>577.4</ele><time>2026-05-05T14:01:40.565Z</time></trkpt><trkpt lat="37.976159" lon="12.8702708"><ele>578.6</ele><time>2026-05-05T14:01:41.565Z</time></trkpt><trkpt lat="37.976153" lon="12.8703557"><ele>579.8</ele><time>2026-05-05T14:01:42.564Z</time></trkpt><trkpt lat="37.976177" lon="12.8704677"><ele>581.0</ele><time>2026-05-05T14:01:44.565Z</time></trkpt><trkpt lat="37.9762578" lon="12.8704589"><ele>581.0</ele><time>2026-05-05T14:01:46.565Z</time></trkpt><trkpt lat="37.9762984" lon="12.87039"><ele>581.0</ele><time>2026-05-05T14:01:47.565Z</time></trkpt><trkpt lat="37.9763342" lon="12.8703063"><ele>581.0</ele><time>2026-05-05T14:01:48.564Z</time></trkpt><trkpt lat="37.9763791" lon="12.8701917"><ele>581.0</ele><time>2026-05-05T14:01:49.565Z</time></trkpt><trkpt lat="37.976449" lon="12.8700311"><ele>581.0</ele><time>2026-05-05T14:01:50.564Z</time></trkpt><trkpt lat="37.9765269" lon="12.8698566"><ele>579.0</ele><time>2026-05-05T14:01:51.565Z</time></trkpt><trkpt lat="37.9766046" lon="12.8696814"><ele>577.0</ele><time>2026-05-05T14:01:52.565Z</time></trkpt><trkpt lat="37.9766783" lon="12.8695051"><ele>575.0</ele><time>2026-05-05T14:01:53.563Z</time></trkpt><trkpt lat="37.9767465" lon="12.8693197"><ele>580.6666666666666</ele><time>2026-05-05T14:01:54.563Z</time></trkpt><trkpt lat="37.9768061" lon="12.8691268"><ele>586.3333333333334</ele><time>2026-05-05T14:01:55.564Z</time></trkpt><trkpt lat="37.976861" lon="12.8689311"><ele>592.0</ele><time>2026-05-05T14:01:56.564Z</time></trkpt><trkpt lat="37.9769153" lon="12.8687487"><ele>592.0</ele><time>2026-05-05T14:01:57.565Z</time></trkpt><trkpt lat="37.9769685" lon="12.8685875"><ele>592.0</ele><time>2026-05-05T14:01:58.566Z</time></trkpt><trkpt lat="37.9770256" lon="12.8684341"><ele>592.0</ele><time>2026-05-05T14:01:59.565Z</time></trkpt><trkpt lat="37.9770928" lon="12.8682841"><ele>592.0</ele><time>2026-05-05T14:02:00.564Z</time></trkpt><trkpt lat="37.977172" lon="12.8681318"><ele>589.75</ele><time>2026-05-05T14:02:01.565Z</time></trkpt><trkpt lat="37.9772566" lon="12.8679789"><ele>587.5</ele><time>2026-05-05T14:02:02.565Z</time></trkpt><trkpt lat="37.9773385" lon="12.8678346"><ele>585.25</ele><time>2026-05-05T14:02:03.565Z</time></trkpt><trkpt lat="37.9774114" lon="12.8677135"><ele>583.0</ele><time>2026-05-05T14:02:04.565Z</time></trkpt><trkpt lat="37.9774808" lon="12.8676254"><ele>583.6</ele><time>2026-05-05T14:02:05.566Z</time></trkpt><trkpt lat="37.9775489" lon="12.8675664"><ele>584.1999999999999</ele><time>2026-05-05T14:02:06.564Z</time></trkpt><trkpt lat="37.9776273" lon="12.8675269"><ele>584.8</ele><time>2026-05-05T14:02:07.565Z</time></trkpt><trkpt lat="37.9777259" lon="12.8675003"><ele>585.4</ele><time>2026-05-05T14:02:08.565Z</time></trkpt><trkpt lat="37.9778428" lon="12.8674662"><ele>586.0</ele><time>2026-05-05T14:02:09.565Z</time></trkpt><trkpt lat="37.9779585" lon="12.8674046"><ele>586.0</ele><time>2026-05-05T14:02:10.565Z</time></trkpt><trkpt lat="37.9780627" lon="12.8673028"><ele>586.0</ele><time>2026-05-05T14:02:11.564Z</time></trkpt><trkpt lat="37.9781516" lon="12.8671849"><ele>586.0</ele><time>2026-05-05T14:02:12.565Z</time></trkpt><trkpt lat="37.9782176" lon="12.8670845"><ele>586.0</ele><time>2026-05-05T14:02:13.565Z</time></trkpt><trkpt lat="37.9782702" lon="12.8670089"><ele>586.0</ele><time>2026-05-05T14:02:14.565Z</time></trkpt><trkpt lat="37.9783181" lon="12.8669549"><ele>586.0</ele><time>2026-05-05T14:02:15.565Z</time></trkpt><trkpt lat="37.9783874" lon="12.8669554"><ele>586.0</ele><time>2026-05-05T14:02:17.565Z</time></trkpt><trkpt lat="37.9784054" lon="12.8670412"><ele>586.0</ele><time>2026-05-05T14:02:19.566Z</time></trkpt><trkpt lat="37.9783687" lon="12.8671737"><ele>586.0</ele><time>2026-05-05T14:02:21.565Z</time></trkpt><trkpt lat="37.9783321" lon="12.8672698"><ele>586.0</ele><time>2026-05-05T14:02:22.565Z</time></trkpt><trkpt lat="37.9782973" lon="12.8673809"><ele>586.0</ele><time>2026-05-05T14:02:23.565Z</time></trkpt><trkpt lat="37.9782652" lon="12.8675054"><ele>588.6</ele><time>2026-05-05T14:02:24.564Z</time></trkpt><trkpt lat="37.9782274" lon="12.8676374"><ele>591.2</ele><time>2026-05-05T14:02:25.565Z</time></trkpt><trkpt lat="37.9781851" lon="12.8677653"><ele>593.8</ele><time>2026-05-05T14:02:26.565Z</time></trkpt><trkpt lat="37.9781416" lon="12.8678837"><ele>596.4</ele><time>2026-05-05T14:02:27.564Z</time></trkpt><trkpt lat="37.9780993" lon="12.8679959"><ele>599.0</ele><time>2026-05-05T14:02:28.565Z</time></trkpt><trkpt lat="37.9780534" lon="12.8681058"><ele>599.0</ele><time>2026-05-05T14:02:29.565Z</time></trkpt><trkpt lat="37.9780059" lon="12.8682137"><ele>599.0</ele><time>2026-05-05T14:02:30.564Z</time></trkpt><trkpt lat="37.9779574" lon="12.8683188"><ele>599.0</ele><time>2026-05-05T14:02:31.565Z</time></trkpt><trkpt lat="37.9779102" lon="12.8684223"><ele>599.0</ele><time>2026-05-05T14:02:32.566Z</time></trkpt><trkpt lat="37.977862" lon="12.8685239"><ele>599.0</ele><time>2026-05-05T14:02:33.565Z</time></trkpt><trkpt lat="37.9778166" lon="12.8686242"><ele>601.2</ele><time>2026-05-05T14:02:34.565Z</time></trkpt><trkpt lat="37.9777748" lon="12.8687299"><ele>603.4</ele><time>2026-05-05T14:02:35.565Z</time></trkpt><trkpt lat="37.9777348" lon="12.8688397"><ele>605.6</ele><time>2026-05-05T14:02:36.564Z</time></trkpt><trkpt lat="37.9776966" lon="12.8689529"><ele>607.8</ele><time>2026-05-05T14:02:37.566Z</time></trkpt><trkpt lat="37.9776584" lon="12.8690679"><ele>610.0</ele><time>2026-05-05T14:02:38.565Z</time></trkpt><trkpt lat="37.9776201" lon="12.869186"><ele>608.4</ele><time>2026-05-05T14:02:39.565Z</time></trkpt><trkpt lat="37.9775802" lon="12.8693071"><ele>606.8</ele><time>2026-05-05T14:02:40.565Z</time></trkpt><trkpt lat="37.9775388" lon="12.8694291"><ele>605.2</ele><time>2026-05-05T14:02:41.564Z</time></trkpt><trkpt lat="37.9774999" lon="12.8695526"><ele>603.6</ele><time>2026-05-05T14:02:42.565Z</time></trkpt><trkpt lat="37.9774648" lon="12.8696807"><ele>602.0</ele><time>2026-05-05T14:02:43.564Z</time></trkpt><trkpt lat="37.9774388" lon="12.869815"><ele>602.0</ele><time>2026-05-05T14:02:44.565Z</time></trkpt><trkpt lat="37.9774211" lon="12.8699568"><ele>602.0</ele><time>2026-05-05T14:02:45.565Z</time></trkpt><trkpt lat="37.9774077" lon="12.8701122"><ele>602.0</ele><time>2026-05-05T14:02:46.564Z</time></trkpt><trkpt lat="37.9773943" lon="12.8702748"><ele>602.0</ele><time>2026-05-05T14:02:47.565Z</time></trkpt><trkpt lat="37.977373" lon="12.8704447"><ele>602.5</ele><time>2026-05-05T14:02:48.564Z</time></trkpt><trkpt lat="37.97735" lon="12.8706106"><ele>603.0</ele><time>2026-05-05T14:02:49.563Z</time></trkpt><trkpt lat="37.9773325" lon="12.8707673"><ele>603.5</ele><time>2026-05-05T14:02:50.564Z</time></trkpt><trkpt lat="37.9773263" lon="12.8709235"><ele>604.0</ele><time>2026-05-05T14:02:51.563Z</time></trkpt><trkpt lat="37.9773323" lon="12.8710699"><ele>604.0</ele><time>2026-05-05T14:02:52.563Z</time></trkpt><trkpt lat="37.9773481" lon="12.8711838"><ele>604.0</ele><time>2026-05-05T14:02:53.564Z</time></trkpt><trkpt lat="37.9773871" lon="12.8713116"><ele>604.0</ele><time>2026-05-05T14:02:55.564Z</time></trkpt><trkpt lat="37.9774531" lon="12.8713565"><ele>604.0</ele><time>2026-05-05T14:02:57.564Z</time></trkpt><trkpt lat="37.9774965" lon="12.8712339"><ele>604.0</ele><time>2026-05-05T14:02:59.564Z</time></trkpt><trkpt lat="37.9775133" lon="12.8711396"><ele>605.4</ele><time>2026-05-05T14:03:00.563Z</time></trkpt><trkpt lat="37.9775309" lon="12.8710061"><ele>606.8</ele><time>2026-05-05T14:03:01.563Z</time></trkpt><trkpt lat="37.9775585" lon="12.870858"><ele>608.2</ele><time>2026-05-05T14:03:02.563Z</time></trkpt><trkpt lat="37.9776037" lon="12.870729"><ele>609.6</ele><time>2026-05-05T14:03:03.563Z</time></trkpt><trkpt lat="37.977664" lon="12.870615"><ele>611.0</ele><time>2026-05-05T14:03:04.564Z</time></trkpt><trkpt lat="37.977735" lon="12.8705167"><ele>614.4</ele><time>2026-05-05T14:03:05.563Z</time></trkpt><trkpt lat="37.9778151" lon="12.8704263"><ele>617.8</ele><time>2026-05-05T14:03:06.564Z</time></trkpt><trkpt lat="37.9779001" lon="12.8703445"><ele>621.1999999999999</ele><time>2026-05-05T14:03:07.564Z</time></trkpt><trkpt lat="37.9779867" lon="12.8702699"><ele>624.6</ele><time>2026-05-05T14:03:08.564Z</time></trkpt><trkpt lat="37.9780751" lon="12.8701925"><ele>628.0</ele><time>2026-05-05T14:03:09.563Z</time></trkpt><trkpt lat="37.9781674" lon="12.87011"><ele>629.25</ele><time>2026-05-05T14:03:10.564Z</time></trkpt><trkpt lat="37.9782626" lon="12.8700266"><ele>630.5</ele><time>2026-05-05T14:03:11.564Z</time></trkpt><trkpt lat="37.9783594" lon="12.8699384"><ele>631.75</ele><time>2026-05-05T14:03:12.563Z</time></trkpt><trkpt lat="37.9784591" lon="12.8698473"><ele>633.0</ele><time>2026-05-05T14:03:13.564Z</time></trkpt><trkpt lat="37.9785601" lon="12.8697566"><ele>633.0</ele><time>2026-05-05T14:03:14.563Z</time></trkpt><trkpt lat="37.978663" lon="12.8696648"><ele>633.0</ele><time>2026-05-05T14:03:15.563Z</time></trkpt><trkpt lat="37.9787686" lon="12.869573"><ele>633.0</ele><time>2026-05-05T14:03:16.562Z</time></trkpt><trkpt lat="37.9788753" lon="12.8694776"><ele>633.0</ele><time>2026-05-05T14:03:17.563Z</time></trkpt><trkpt lat="37.9789764" lon="12.8693733"><ele>633.8</ele><time>2026-05-05T14:03:18.564Z</time></trkpt><trkpt lat="37.9790627" lon="12.8692718"><ele>634.5999999999999</ele><time>2026-05-05T14:03:19.564Z</time></trkpt><trkpt lat="37.9791318" lon="12.8691863"><ele>635.4000000000001</ele><time>2026-05-05T14:03:20.563Z</time></trkpt><trkpt lat="37.9791906" lon="12.8691316"><ele>636.2</ele><time>2026-05-05T14:03:21.563Z</time></trkpt><trkpt lat="37.9792621" lon="12.8691566"><ele>637.0</ele><time>2026-05-05T14:03:23.564Z</time></trkpt><trkpt lat="37.9792678" lon="12.8692734"><ele>636.2</ele><time>2026-05-05T14:03:25.564Z</time></trkpt><trkpt lat="37.9792489" lon="12.8693595"><ele>635.4000000000001</ele><time>2026-05-05T14:03:26.564Z</time></trkpt><trkpt lat="37.9792173" lon="12.8694747"><ele>634.5999999999999</ele><time>2026-05-05T14:03:27.564Z</time></trkpt><trkpt lat="37.9791843" lon="12.8696079"><ele>633.8</ele><time>2026-05-05T14:03:28.564Z</time></trkpt><trkpt lat="37.9791471" lon="12.8697664"><ele>633.0</ele><time>2026-05-05T14:03:29.564Z</time></trkpt><trkpt lat="37.9791106" lon="12.8699343"><ele>633.0</ele><time>2026-05-05T14:03:30.563Z</time></trkpt><trkpt lat="37.9790756" lon="12.870108"><ele>633.0</ele><time>2026-05-05T14:03:31.564Z</time></trkpt><trkpt lat="37.9790401" lon="12.8702865"><ele>633.0</ele><time>2026-05-05T14:03:32.565Z</time></trkpt><trkpt lat="37.9790037" lon="12.8704645"><ele>633.0</ele><time>2026-05-05T14:03:33.563Z</time></trkpt><trkpt lat="37.9789744" lon="12.8706254"><ele>633.6666666666666</ele><time>2026-05-05T14:03:34.563Z</time></trkpt><trkpt lat="37.9789496" lon="12.8707565"><ele>634.3333333333334</ele><time>2026-05-05T14:03:35.564Z</time></trkpt><trkpt lat="37.9789356" lon="12.8708569"><ele>635.0</ele><time>2026-05-05T14:03:36.564Z</time></trkpt><trkpt lat="37.9789668" lon="12.8709698"><ele>635.6666666666667</ele><time>2026-05-05T14:03:38.564Z</time></trkpt><trkpt lat="37.9790506" lon="12.8709367"><ele>636.3333333333334</ele><time>2026-05-05T14:03:40.564Z</time></trkpt><trkpt lat="37.9791008" lon="12.8708663"><ele>637.0</ele><time>2026-05-05T14:03:41.563Z</time></trkpt><trkpt lat="37.9791501" lon="12.8707751"><ele>641.0</ele><time>2026-05-05T14:03:42.563Z</time></trkpt><trkpt lat="37.9792091" lon="12.8706522"><ele>645.0</ele><time>2026-05-05T14:03:43.563Z</time></trkpt><trkpt lat="37.9792776" lon="12.870515"><ele>649.0</ele><time>2026-05-05T14:03:44.564Z</time></trkpt><trkpt lat="37.9793514" lon="12.8703843"><ele>653.0</ele><time>2026-05-05T14:03:45.563Z</time></trkpt><trkpt lat="37.9794276" lon="12.8702616"><ele>653.0</ele><time>2026-05-05T14:03:46.563Z</time></trkpt><trkpt lat="37.9795079" lon="12.8701469"><ele>653.0</ele><time>2026-05-05T14:03:47.563Z</time></trkpt><trkpt lat="37.9795919" lon="12.8700376"><ele>653.0</ele><time>2026-05-05T14:03:48.565Z</time></trkpt><trkpt lat="37.9796826" lon="12.869931"><ele>653.0</ele><time>2026-05-05T14:03:49.564Z</time></trkpt><trkpt lat="37.979779" lon="12.8698308"><ele>653.4</ele><time>2026-05-05T14:03:50.564Z</time></trkpt><trkpt lat="37.9798836" lon="12.8697442"><ele>653.8</ele><time>2026-05-05T14:03:51.564Z</time></trkpt><trkpt lat="37.9799867" lon="12.8696701"><ele>654.2</ele><time>2026-05-05T14:03:52.564Z</time></trkpt><trkpt lat="37.9800762" lon="12.8696169"><ele>654.6</ele><time>2026-05-05T14:03:53.563Z</time></trkpt><trkpt lat="37.9801515" lon="12.8695826"><ele>655.0</ele><time>2026-05-05T14:03:54.564Z</time></trkpt><trkpt lat="37.9802267" lon="12.8696238"><ele>655.0</ele><time>2026-05-05T14:03:56.564Z</time></trkpt><trkpt lat="37.9802165" lon="12.869748"><ele>655.0</ele><time>2026-05-05T14:03:58.565Z</time></trkpt><trkpt lat="37.9801821" lon="12.8698365"><ele>655.0</ele><time>2026-05-05T14:03:59.565Z</time></trkpt><trkpt lat="37.9801427" lon="12.8699313"><ele>655.0</ele><time>2026-05-05T14:04:00.565Z</time></trkpt><trkpt lat="37.9801012" lon="12.8700378"><ele>655.0</ele><time>2026-05-05T14:04:01.565Z</time></trkpt><trkpt lat="37.9800678" lon="12.870151"><ele>657.0</ele><time>2026-05-05T14:04:02.566Z</time></trkpt><trkpt lat="37.9800507" lon="12.8702821"><ele>659.0</ele><time>2026-05-05T14:04:03.565Z</time></trkpt><trkpt lat="37.9800415" lon="12.8704222"><ele>661.0</ele><time>2026-05-05T14:04:04.564Z</time></trkpt><trkpt lat="37.9800408" lon="12.8705589"><ele>663.0</ele><time>2026-05-05T14:04:05.565Z</time></trkpt><trkpt lat="37.9800464" lon="12.8706967"><ele>665.0</ele><time>2026-05-05T14:04:06.563Z</time></trkpt><trkpt lat="37.9800611" lon="12.8708318"><ele>665.6</ele><time>2026-05-05T14:04:07.563Z</time></trkpt><trkpt lat="37.9800909" lon="12.8709682"><ele>666.2</ele><time>2026-05-05T14:04:08.563Z</time></trkpt><trkpt lat="37.9801322" lon="12.8711023"><ele>666.8</ele><time>2026-05-05T14:04:09.564Z</time></trkpt><trkpt lat="37.9801836" lon="12.871228"><ele>667.4</ele><time>2026-05-05T14:04:10.562Z</time></trkpt><trkpt lat="37.9802432" lon="12.8713464"><ele>668.0</ele><time>2026-05-05T14:04:11.564Z</time></trkpt><trkpt lat="37.9803074" lon="12.8714599"><ele>668.0</ele><time>2026-05-05T14:04:12.563Z</time></trkpt><trkpt lat="37.9803735" lon="12.8715715"><ele>668.0</ele><time>2026-05-05T14:04:13.566Z</time></trkpt><trkpt lat="37.9804353" lon="12.8716923"><ele>668.0</ele><time>2026-05-05T14:04:14.564Z</time></trkpt><trkpt lat="37.9804944" lon="12.8718212"><ele>668.0</ele><time>2026-05-05T14:04:15.564Z</time></trkpt><trkpt lat="37.9805478" lon="12.8719505"><ele>666.0</ele><time>2026-05-05T14:04:16.565Z</time></trkpt><trkpt lat="37.9806019" lon="12.8720869"><ele>664.0</ele><time>2026-05-05T14:04:17.563Z</time></trkpt><trkpt lat="37.980655" lon="12.8722185"><ele>662.0</ele><time>2026-05-05T14:04:18.563Z</time></trkpt><trkpt lat="37.9807038" lon="12.8723375"><ele>660.0</ele><time>2026-05-05T14:04:19.564Z</time></trkpt><trkpt lat="37.9807469" lon="12.8724425"><ele>658.0</ele><time>2026-05-05T14:04:20.564Z</time></trkpt><trkpt lat="37.9807952" lon="12.8725324"><ele>662.0</ele><time>2026-05-05T14:04:21.564Z</time></trkpt><trkpt lat="37.9808516" lon="12.8726066"><ele>666.0</ele><time>2026-05-05T14:04:22.563Z</time></trkpt><trkpt lat="37.9809229" lon="12.8726693"><ele>670.0</ele><time>2026-05-05T14:04:23.564Z</time></trkpt><trkpt lat="37.9809843" lon="12.8727402"><ele>674.0</ele><time>2026-05-05T14:04:24.564Z</time></trkpt><trkpt lat="37.9810311" lon="12.8728206"><ele>678.0</ele><time>2026-05-05T14:04:25.564Z</time></trkpt><trkpt lat="37.9810668" lon="12.8729108"><ele>682.0</ele><time>2026-05-05T14:04:26.564Z</time></trkpt><trkpt lat="37.981074" lon="12.8730298"><ele>682.0</ele><time>2026-05-05T14:04:27.563Z</time></trkpt><trkpt lat="37.981078" lon="12.873164"><ele>682.0</ele><time>2026-05-05T14:04:28.565Z</time></trkpt><trkpt lat="37.9810954" lon="12.8732941"><ele>682.0</ele><time>2026-05-05T14:04:29.564Z</time></trkpt><trkpt lat="37.9811203" lon="12.873422"><ele>682.0</ele><time>2026-05-05T14:04:30.564Z</time></trkpt><trkpt lat="37.9811513" lon="12.8735452"><ele>682.0</ele><time>2026-05-05T14:04:31.563Z</time></trkpt><trkpt lat="37.9811858" lon="12.8736532"><ele>679.3333333333334</ele><time>2026-05-05T14:04:32.566Z</time></trkpt><trkpt lat="37.9812154" lon="12.8737426"><ele>676.6666666666667</ele><time>2026-05-05T14:04:33.564Z</time></trkpt><trkpt lat="37.9812424" lon="12.8738158"><ele>674.0</ele><time>2026-05-05T14:04:34.563Z</time></trkpt><trkpt lat="37.9813061" lon="12.8738903"><ele>671.3333333333334</ele><time>2026-05-05T14:04:36.563Z</time></trkpt><trkpt lat="37.9813726" lon="12.873794"><ele>668.6666666666666</ele><time>2026-05-05T14:04:39.564Z</time></trkpt><trkpt lat="37.9813834" lon="12.8737016"><ele>666.0</ele><time>2026-05-05T14:04:40.564Z</time></trkpt><trkpt lat="37.9813914" lon="12.8735941"><ele>666.0</ele><time>2026-05-05T14:04:41.564Z</time></trkpt><trkpt lat="37.9813992" lon="12.8734876"><ele>666.0</ele><time>2026-05-05T14:04:42.564Z</time></trkpt><trkpt lat="37.9814073" lon="12.8733738"><ele>666.0</ele><time>2026-05-05T14:04:43.565Z</time></trkpt><trkpt lat="37.9814151" lon="12.8732518"><ele>666.0</ele><time>2026-05-05T14:04:44.563Z</time></trkpt><trkpt lat="37.9814189" lon="12.8731151"><ele>666.0</ele><time>2026-05-05T14:04:45.564Z</time></trkpt><trkpt lat="37.9814224" lon="12.8729626"><ele>670.0</ele><time>2026-05-05T14:04:46.562Z</time></trkpt><trkpt lat="37.981434" lon="12.872808"><ele>674.0</ele><time>2026-05-05T14:04:47.563Z</time></trkpt><trkpt lat="37.9814487" lon="12.8726613"><ele>678.0</ele><time>2026-05-05T14:04:48.564Z</time></trkpt><trkpt lat="37.9814514" lon="12.8725186"><ele>682.0</ele><time>2026-05-05T14:04:49.564Z</time></trkpt><trkpt lat="37.9814383" lon="12.872372"><ele>682.25</ele><time>2026-05-05T14:04:50.564Z</time></trkpt><trkpt lat="37.9814189" lon="12.8722244"><ele>682.5</ele><time>2026-05-05T14:04:51.564Z</time></trkpt><trkpt lat="37.9814089" lon="12.8720727"><ele>682.75</ele><time>2026-05-05T14:04:52.563Z</time></trkpt><trkpt lat="37.9814157" lon="12.8719283"><ele>683.0</ele><time>2026-05-05T14:04:53.564Z</time></trkpt><trkpt lat="37.9814422" lon="12.8717909"><ele>683.8</ele><time>2026-05-05T14:04:54.564Z</time></trkpt><trkpt lat="37.9814909" lon="12.8716561"><ele>684.5999999999999</ele><time>2026-05-05T14:04:55.565Z</time></trkpt><trkpt lat="37.9815444" lon="12.8715249"><ele>685.4000000000001</ele><time>2026-05-05T14:04:56.565Z</time></trkpt><trkpt lat="37.9815895" lon="12.8714134"><ele>686.2</ele><time>2026-05-05T14:04:57.564Z</time></trkpt><trkpt lat="37.9816314" lon="12.8713186"><ele>687.0</ele><time>2026-05-05T14:04:58.564Z</time></trkpt><trkpt lat="37.9817107" lon="12.8712465"><ele>689.0</ele><time>2026-05-05T14:05:00.565Z</time></trkpt><trkpt lat="37.9817845" lon="12.8713483"><ele>691.0</ele><time>2026-05-05T14:05:02.563Z</time></trkpt><trkpt lat="37.9818232" lon="12.8714508"><ele>693.0</ele><time>2026-05-05T14:05:03.564Z</time></trkpt><trkpt lat="37.9818682" lon="12.8715812"><ele>695.0</ele><time>2026-05-05T14:05:04.564Z</time></trkpt><trkpt lat="37.9819166" lon="12.871723"><ele>697.0</ele><time>2026-05-05T14:05:05.565Z</time></trkpt><trkpt lat="37.9819683" lon="12.8718493"><ele>697.8</ele><time>2026-05-05T14:05:06.564Z</time></trkpt><trkpt lat="37.9820259" lon="12.8719524"><ele>698.6</ele><time>2026-05-05T14:05:07.564Z</time></trkpt><trkpt lat="37.9820945" lon="12.872039"><ele>699.4</ele><time>2026-05-05T14:05:08.564Z</time></trkpt><trkpt lat="37.9821679" lon="12.8721241"><ele>700.1999999999999</ele><time>2026-05-05T14:05:09.564Z</time></trkpt><trkpt lat="37.982247" lon="12.8722151"><ele>701.0</ele><time>2026-05-05T14:05:10.564Z</time></trkpt><trkpt lat="37.9823134" lon="12.8723165"><ele>701.0</ele><time>2026-05-05T14:05:11.565Z</time></trkpt><trkpt lat="37.9823616" lon="12.8724268"><ele>701.0</ele><time>2026-05-05T14:05:12.564Z</time></trkpt><trkpt lat="37.9824012" lon="12.8725451"><ele>701.0</ele><time>2026-05-05T14:05:13.564Z</time></trkpt><trkpt lat="37.9824369" lon="12.8726625"><ele>701.0</ele><time>2026-05-05T14:05:14.565Z</time></trkpt><trkpt lat="37.9824758" lon="12.8727851"><ele>701.0</ele><time>2026-05-05T14:05:15.564Z</time></trkpt><trkpt lat="37.9825193" lon="12.8729141"><ele>704.5</ele><time>2026-05-05T14:05:16.564Z</time></trkpt><trkpt lat="37.9825713" lon="12.8730485"><ele>708.0</ele><time>2026-05-05T14:05:17.564Z</time></trkpt><trkpt lat="37.9826301" lon="12.873179"><ele>711.5</ele><time>2026-05-05T14:05:18.564Z</time></trkpt><trkpt lat="37.9827025" lon="12.8733023"><ele>715.0</ele><time>2026-05-05T14:05:19.564Z</time></trkpt><trkpt lat="37.9827803" lon="12.8734219"><ele>712.6</ele><time>2026-05-05T14:05:20.563Z</time></trkpt><trkpt lat="37.9828623" lon="12.8735346"><ele>710.2</ele><time>2026-05-05T14:05:21.564Z</time></trkpt><trkpt lat="37.982944" lon="12.8736373"><ele>707.8</ele><time>2026-05-05T14:05:22.564Z</time></trkpt><trkpt lat="37.9830178" lon="12.8737236"><ele>705.4</ele><time>2026-05-05T14:05:23.564Z</time></trkpt><trkpt lat="37.9830805" lon="12.8737899"><ele>703.0</ele><time>2026-05-05T14:05:24.564Z</time></trkpt><trkpt lat="37.9831328" lon="12.8738395"><ele>703.0</ele><time>2026-05-05T14:05:25.564Z</time></trkpt><trkpt lat="37.9832049" lon="12.8738506"><ele>703.0</ele><time>2026-05-05T14:05:27.563Z</time></trkpt><trkpt lat="37.9832318" lon="12.873744"><ele>703.0</ele><time>2026-05-05T14:05:29.564Z</time></trkpt><trkpt lat="37.9832399" lon="12.8736525"><ele>703.0</ele><time>2026-05-05T14:05:30.563Z</time></trkpt><trkpt lat="37.9832259" lon="12.8735355"><ele>703.0</ele><time>2026-05-05T14:05:31.564Z</time></trkpt><trkpt lat="37.9832039" lon="12.8734076"><ele>703.0</ele><time>2026-05-05T14:05:32.564Z</time></trkpt><trkpt lat="37.9831905" lon="12.8732868"><ele>705.4</ele><time>2026-05-05T14:05:33.564Z</time></trkpt><trkpt lat="37.9831835" lon="12.8731681"><ele>707.8</ele><time>2026-05-05T14:05:34.563Z</time></trkpt><trkpt lat="37.9831992" lon="12.873049"><ele>710.2</ele><time>2026-05-05T14:05:35.564Z</time></trkpt><trkpt lat="37.9832438" lon="12.87293"><ele>712.6</ele><time>2026-05-05T14:05:36.567Z</time></trkpt><trkpt lat="37.9833078" lon="12.8728242"><ele>715.0</ele><time>2026-05-05T14:05:37.563Z</time></trkpt><trkpt lat="37.983368" lon="12.8727306"><ele>716.3333333333334</ele><time>2026-05-05T14:05:38.564Z</time></trkpt><trkpt lat="37.9834201" lon="12.8726494"><ele>717.6666666666667</ele><time>2026-05-05T14:05:39.564Z</time></trkpt><trkpt lat="37.9834746" lon="12.8725877"><ele>719.0</ele><time>2026-05-05T14:05:40.563Z</time></trkpt><trkpt lat="37.983559" lon="12.8725878"><ele>720.3333333333334</ele><time>2026-05-05T14:05:42.564Z</time></trkpt><trkpt lat="37.9835879" lon="12.8726654"><ele>721.6666666666666</ele><time>2026-05-05T14:05:44.565Z</time></trkpt><trkpt lat="37.9835756" lon="12.8727568"><ele>723.0</ele><time>2026-05-05T14:05:46.564Z</time></trkpt><trkpt lat="37.9835499" lon="12.8729223"><ele>724.1666666666666</ele><time>2026-05-05T14:05:48.564Z</time></trkpt><trkpt lat="37.9835464" lon="12.8730223"><ele>725.3333333333334</ele><time>2026-05-05T14:05:49.563Z</time></trkpt><trkpt lat="37.9835631" lon="12.873132"><ele>726.5</ele><time>2026-05-05T14:05:50.564Z</time></trkpt><trkpt lat="37.9835926" lon="12.8732419"><ele>727.6666666666667</ele><time>2026-05-05T14:05:51.565Z</time></trkpt><trkpt lat="37.9836251" lon="12.8733457"><ele>728.8333333333334</ele><time>2026-05-05T14:05:52.565Z</time></trkpt><trkpt lat="37.9836629" lon="12.8734334"><ele>730.0</ele><time>2026-05-05T14:05:53.564Z</time></trkpt><trkpt lat="37.9837393" lon="12.8734858"><ele>730.0</ele><time>2026-05-05T14:05:55.563Z</time></trkpt><trkpt lat="37.9837717" lon="12.8734014"><ele>730.0</ele><time>2026-05-05T14:05:57.563Z</time></trkpt><trkpt lat="37.9837713" lon="12.8732571"><ele>730.0</ele><time>2026-05-05T14:05:59.565Z</time></trkpt><trkpt lat="37.9837715" lon="12.8731591"><ele>730.0</ele><time>2026-05-05T14:06:00.564Z</time></trkpt><trkpt lat="37.9837819" lon="12.8730608"><ele>730.0</ele><time>2026-05-05T14:06:01.564Z</time></trkpt><trkpt lat="37.9838059" lon="12.8729461"><ele>730.0</ele><time>2026-05-05T14:06:02.563Z</time></trkpt><trkpt lat="37.9838476" lon="12.8728363"><ele>730.0</ele><time>2026-05-05T14:06:03.564Z</time></trkpt><trkpt lat="37.9838923" lon="12.8727533"><ele>730.0</ele><time>2026-05-05T14:06:04.564Z</time></trkpt><trkpt lat="37.9839353" lon="12.8726919"><ele>730.0</ele><time>2026-05-05T14:06:05.564Z</time></trkpt><trkpt lat="37.9840205" lon="12.8726439"><ele>730.0</ele><time>2026-05-05T14:06:07.564Z</time></trkpt><trkpt lat="37.9840605" lon="12.8727324"><ele>730.0</ele><time>2026-05-05T14:06:09.563Z</time></trkpt><trkpt lat="37.984068" lon="12.8729029"><ele>730.0</ele><time>2026-05-05T14:06:11.564Z</time></trkpt><trkpt lat="37.9840755" lon="12.8729958"><ele>730.0</ele><time>2026-05-05T14:06:12.564Z</time></trkpt><trkpt lat="37.9840987" lon="12.8730835"><ele>730.0</ele><time>2026-05-05T14:06:13.564Z</time></trkpt><trkpt lat="37.984135" lon="12.873151"><ele>730.0</ele><time>2026-05-05T14:06:14.564Z</time></trkpt><trkpt lat="37.9842225" lon="12.8732065"><ele>730.0</ele><time>2026-05-05T14:06:16.565Z</time></trkpt><trkpt lat="37.9843267" lon="12.8731533"><ele>730.0</ele><time>2026-05-05T14:06:36.564Z</time></trkpt><trkpt lat="37.984455" lon="12.873165"><ele>730.4</ele><time>2026-05-05T14:06:38.565Z</time></trkpt><trkpt lat="37.9845467" lon="12.8731683"><ele>730.8</ele><time>2026-05-05T14:06:39.564Z</time></trkpt><trkpt lat="37.984645" lon="12.8731733"><ele>731.2</ele><time>2026-05-05T14:06:40.564Z</time></trkpt><trkpt lat="37.9847417" lon="12.8731817"><ele>731.6</ele><time>2026-05-05T14:06:41.564Z</time></trkpt><trkpt lat="37.9848283" lon="12.8731933"><ele>732.0</ele><time>2026-05-05T14:06:42.563Z</time></trkpt><trkpt lat="37.98492" lon="12.8732133"><ele>732.0</ele><time>2026-05-05T14:06:43.564Z</time></trkpt><trkpt lat="37.985005" lon="12.8732283"><ele>732.0</ele><time>2026-05-05T14:06:44.564Z</time></trkpt><trkpt lat="37.9850817" lon="12.87325"><ele>732.0</ele><time>2026-05-05T14:06:45.564Z</time></trkpt><trkpt lat="37.9851533" lon="12.87328"><ele>732.0</ele><time>2026-05-05T14:06:46.564Z</time></trkpt><trkpt lat="37.9852633" lon="12.8733233"><ele>732.0</ele><time>2026-05-05T14:06:48.564Z</time></trkpt><trkpt lat="37.9853267" lon="12.8733317"><ele>732.0</ele><time>2026-05-05T14:06:49.564Z</time></trkpt><trkpt lat="37.9853933" lon="12.873325"><ele>733.1666666666666</ele><time>2026-05-05T14:06:50.564Z</time></trkpt><trkpt lat="37.9854617" lon="12.8733083"><ele>734.3333333333334</ele><time>2026-05-05T14:06:51.564Z</time></trkpt><trkpt lat="37.9855317" lon="12.8732683"><ele>735.5</ele><time>2026-05-05T14:06:52.564Z</time></trkpt><trkpt lat="37.985605" lon="12.8732267"><ele>736.6666666666667</ele><time>2026-05-05T14:06:53.564Z</time></trkpt><trkpt lat="37.98568" lon="12.8731867"><ele>737.8333333333334</ele><time>2026-05-05T14:06:54.563Z</time></trkpt><trkpt lat="37.9857583" lon="12.8731517"><ele>739.0</ele><time>2026-05-05T14:06:55.564Z</time></trkpt><trkpt lat="37.9858367" lon="12.8731283"><ele>739.6666666666667</ele><time>2026-05-05T14:06:56.564Z</time></trkpt><trkpt lat="37.985915" lon="12.8731233"><ele>740.3333333333334</ele><time>2026-05-05T14:06:57.563Z</time></trkpt><trkpt lat="37.9859933" lon="12.87314"><ele>741.0</ele><time>2026-05-05T14:06:58.564Z</time></trkpt><trkpt lat="37.9860717" lon="12.8731717"><ele>741.6666666666666</ele><time>2026-05-05T14:06:59.564Z</time></trkpt><trkpt lat="37.986145" lon="12.8732117"><ele>742.3333333333333</ele><time>2026-05-05T14:07:00.563Z</time></trkpt><trkpt lat="37.9862183" lon="12.87325"><ele>743.0</ele><time>2026-05-05T14:07:01.563Z</time></trkpt><trkpt lat="37.9862933" lon="12.8732883"><ele>743.0</ele><time>2026-05-05T14:07:02.565Z</time></trkpt><trkpt lat="37.9863733" lon="12.8733267"><ele>743.0</ele><time>2026-05-05T14:07:03.564Z</time></trkpt><trkpt lat="37.986455" lon="12.8733633"><ele>743.0</ele><time>2026-05-05T14:07:04.564Z</time></trkpt><trkpt lat="37.9865383" lon="12.8734017"><ele>743.0</ele><time>2026-05-05T14:07:05.564Z</time></trkpt><trkpt lat="37.986625" lon="12.8734367"><ele>743.0</ele><time>2026-05-05T14:07:06.563Z</time></trkpt><trkpt lat="37.98671" lon="12.87347"><ele>743.0</ele><time>2026-05-05T14:07:07.563Z</time></trkpt><trkpt lat="37.9867917" lon="12.8735033"><ele>744.0</ele><time>2026-05-05T14:07:08.564Z</time></trkpt><trkpt lat="37.9868733" lon="12.8735383"><ele>745.0</ele><time>2026-05-05T14:07:09.563Z</time></trkpt><trkpt lat="37.9869533" lon="12.8735717"><ele>746.0</ele><time>2026-05-05T14:07:10.564Z</time></trkpt><trkpt lat="37.9870317" lon="12.8736083"><ele>747.0</ele><time>2026-05-05T14:07:11.564Z</time></trkpt><trkpt lat="37.9871083" lon="12.8736467"><ele>748.0</ele><time>2026-05-05T14:07:12.564Z</time></trkpt><trkpt lat="37.9871867" lon="12.8736917"><ele>749.0</ele><time>2026-05-05T14:07:13.565Z</time></trkpt><trkpt lat="37.98726" lon="12.873735"><ele>749.0</ele><time>2026-05-05T14:07:14.564Z</time></trkpt><trkpt lat="37.9873267" lon="12.8737867"><ele>749.0</ele><time>2026-05-05T14:07:15.564Z</time></trkpt><trkpt lat="37.9873817" lon="12.8738467"><ele>749.0</ele><time>2026-05-05T14:07:16.564Z</time></trkpt><trkpt lat="37.9874283" lon="12.873925"><ele>749.0</ele><time>2026-05-05T14:07:17.563Z</time></trkpt><trkpt lat="37.9874583" lon="12.8740167"><ele>749.0</ele><time>2026-05-05T14:07:18.564Z</time></trkpt><trkpt lat="37.98748" lon="12.874115"><ele>749.0</ele><time>2026-05-05T14:07:19.564Z</time></trkpt><trkpt lat="37.9875033" lon="12.8742067"><ele>751.1666666666666</ele><time>2026-05-05T14:07:20.564Z</time></trkpt><trkpt lat="37.98753" lon="12.8742933"><ele>753.3333333333333</ele><time>2026-05-05T14:07:21.564Z</time></trkpt><trkpt lat="37.987555" lon="12.8743767"><ele>755.5</ele><time>2026-05-05T14:07:22.564Z</time></trkpt><trkpt lat="37.987585" lon="12.8744617"><ele>757.6666666666666</ele><time>2026-05-05T14:07:23.564Z</time></trkpt><trkpt lat="37.9876283" lon="12.8745433"><ele>759.8333333333334</ele><time>2026-05-05T14:07:24.564Z</time></trkpt><trkpt lat="37.9876833" lon="12.8746233"><ele>762.0</ele><time>2026-05-05T14:07:25.564Z</time></trkpt><trkpt lat="37.987735" lon="12.8747"><ele>762.0</ele><time>2026-05-05T14:07:26.565Z</time></trkpt><trkpt lat="37.9877817" lon="12.8747683"><ele>762.0</ele><time>2026-05-05T14:07:27.564Z</time></trkpt><trkpt lat="37.9878733" lon="12.8748583"><ele>762.0</ele><time>2026-05-05T14:07:29.564Z</time></trkpt><trkpt lat="37.9879833" lon="12.874845"><ele>762.0</ele><time>2026-05-05T14:07:31.563Z</time></trkpt><trkpt lat="37.988025" lon="12.874695"><ele>762.0</ele><time>2026-05-05T14:07:33.564Z</time></trkpt><trkpt lat="37.9880467" lon="12.8745983"><ele>762.0</ele><time>2026-05-05T14:07:34.564Z</time></trkpt><trkpt lat="37.9880783" lon="12.8744983"><ele>762.0</ele><time>2026-05-05T14:07:35.563Z</time></trkpt><trkpt lat="37.9881217" lon="12.8744067"><ele>762.0</ele><time>2026-05-05T14:07:36.566Z</time></trkpt><trkpt lat="37.98818" lon="12.8743283"><ele>762.0</ele><time>2026-05-05T14:07:37.564Z</time></trkpt><trkpt lat="37.9882459" lon="12.874251"><ele>762.0</ele><time>2026-05-05T14:07:38.563Z</time></trkpt><trkpt lat="37.9883091" lon="12.8741718"><ele>762.0</ele><time>2026-05-05T14:07:39.564Z</time></trkpt><trkpt lat="37.9883668" lon="12.8740861"><ele>759.5</ele><time>2026-05-05T14:07:40.562Z</time></trkpt><trkpt lat="37.9884229" lon="12.8740013"><ele>757.0</ele><time>2026-05-05T14:07:41.563Z</time></trkpt><trkpt lat="37.9884792" lon="12.8739222"><ele>754.5</ele><time>2026-05-05T14:07:42.563Z</time></trkpt><trkpt lat="37.988541" lon="12.8738503"><ele>752.0</ele><time>2026-05-05T14:07:43.564Z</time></trkpt><trkpt lat="37.9886123" lon="12.873797"><ele>749.5</ele><time>2026-05-05T14:07:44.564Z</time></trkpt><trkpt lat="37.9886918" lon="12.8737605"><ele>747.0</ele><time>2026-05-05T14:07:45.564Z</time></trkpt><trkpt lat="37.9887815" lon="12.873734"><ele>747.0</ele><time>2026-05-05T14:07:46.564Z</time></trkpt><trkpt lat="37.9888733" lon="12.8737138"><ele>747.0</ele><time>2026-05-05T14:07:47.563Z</time></trkpt><trkpt lat="37.9889623" lon="12.8736976"><ele>747.0</ele><time>2026-05-05T14:07:48.564Z</time></trkpt><trkpt lat="37.9890493" lon="12.8736859"><ele>747.0</ele><time>2026-05-05T14:07:49.564Z</time></trkpt><trkpt lat="37.9891335" lon="12.873684"><ele>747.0</ele><time>2026-05-05T14:07:50.564Z</time></trkpt><trkpt lat="37.9892148" lon="12.8736915"><ele>747.0</ele><time>2026-05-05T14:07:51.563Z</time></trkpt><trkpt lat="37.9892892" lon="12.8737076"><ele>746.9999999999999</ele><time>2026-05-05T14:07:52.564Z</time></trkpt><trkpt lat="37.9893565" lon="12.8737363"><ele>747.0</ele><time>2026-05-05T14:07:53.565Z</time></trkpt><trkpt lat="37.9894195" lon="12.8737732"><ele>747.0</ele><time>2026-05-05T14:07:54.563Z</time></trkpt><trkpt lat="37.9894864" lon="12.8738061"><ele>747.0</ele><time>2026-05-05T14:07:55.565Z</time></trkpt><trkpt lat="37.9895548" lon="12.8738245"><ele>747.0</ele><time>2026-05-05T14:07:56.564Z</time></trkpt><trkpt lat="37.9896206" lon="12.8738291"><ele>746.9999999999999</ele><time>2026-05-05T14:07:57.563Z</time></trkpt><trkpt lat="37.9896884" lon="12.8738223"><ele>747.0</ele><time>2026-05-05T14:07:58.563Z</time></trkpt><trkpt lat="37.9897583" lon="12.8738015"><ele>747.0</ele><time>2026-05-05T14:07:59.564Z</time></trkpt><trkpt lat="37.989826" lon="12.8737645"><ele>747.0</ele><time>2026-05-05T14:08:00.563Z</time></trkpt><trkpt lat="37.9898926" lon="12.8737106"><ele>747.0</ele><time>2026-05-05T14:08:01.564Z</time></trkpt><trkpt lat="37.9899657" lon="12.8736465"><ele>747.0</ele><time>2026-05-05T14:08:02.564Z</time></trkpt><trkpt lat="37.9900412" lon="12.8735807"><ele>747.0</ele><time>2026-05-05T14:08:03.563Z</time></trkpt><trkpt lat="37.9901208" lon="12.8735115"><ele>747.0</ele><time>2026-05-05T14:08:04.564Z</time></trkpt><trkpt lat="37.9902016" lon="12.8734409"><ele>748.0</ele><time>2026-05-05T14:08:05.563Z</time></trkpt><trkpt lat="37.9902836" lon="12.873372"><ele>749.0</ele><time>2026-05-05T14:08:06.564Z</time></trkpt><trkpt lat="37.9903694" lon="12.873305"><ele>750.0</ele><time>2026-05-05T14:08:07.564Z</time></trkpt><trkpt lat="37.9904605" lon="12.8732357"><ele>751.0</ele><time>2026-05-05T14:08:08.564Z</time></trkpt><trkpt lat="37.9905539" lon="12.8731651"><ele>752.0</ele><time>2026-05-05T14:08:09.564Z</time></trkpt><trkpt lat="37.9906392" lon="12.8730941"><ele>752.0</ele><time>2026-05-05T14:08:10.563Z</time></trkpt><trkpt lat="37.9907143" lon="12.8730252"><ele>752.0</ele><time>2026-05-05T14:08:11.564Z</time></trkpt><trkpt lat="37.9907815" lon="12.8729588"><ele>752.0</ele><time>2026-05-05T14:08:12.564Z</time></trkpt><trkpt lat="37.9908373" lon="12.8728819"><ele>752.0</ele><time>2026-05-05T14:08:13.564Z</time></trkpt><trkpt lat="37.9908814" lon="12.8727983"><ele>752.0</ele><time>2026-05-05T14:08:14.564Z</time></trkpt><trkpt lat="37.9909038" lon="12.8727028"><ele>752.0</ele><time>2026-05-05T14:08:15.564Z</time></trkpt><trkpt lat="37.9909123" lon="12.8725957"><ele>751.6</ele><time>2026-05-05T14:08:16.564Z</time></trkpt><trkpt lat="37.9909045" lon="12.8724806"><ele>751.2</ele><time>2026-05-05T14:08:17.564Z</time></trkpt><trkpt lat="37.9908838" lon="12.8723626"><ele>750.8</ele><time>2026-05-05T14:08:18.564Z</time></trkpt><trkpt lat="37.9908437" lon="12.8722512"><ele>750.4</ele><time>2026-05-05T14:08:19.564Z</time></trkpt><trkpt lat="37.9907834" lon="12.8721421"><ele>750.0</ele><time>2026-05-05T14:08:20.565Z</time></trkpt><trkpt lat="37.9907065" lon="12.8720464"><ele>750.0</ele><time>2026-05-05T14:08:21.564Z</time></trkpt><trkpt lat="37.9906224" lon="12.8719664"><ele>750.0</ele><time>2026-05-05T14:08:22.563Z</time></trkpt><trkpt lat="37.9905473" lon="12.8718878"><ele>750.0</ele><time>2026-05-05T14:08:23.564Z</time></trkpt><trkpt lat="37.990492" lon="12.8718033"><ele>750.0</ele><time>2026-05-05T14:08:24.564Z</time></trkpt><trkpt lat="37.9904613" lon="12.871711"><ele>750.0</ele><time>2026-05-05T14:08:25.564Z</time></trkpt><trkpt lat="37.9904565" lon="12.8715999"><ele>750.4</ele><time>2026-05-05T14:08:26.562Z</time></trkpt><trkpt lat="37.990468" lon="12.8714704"><ele>750.8</ele><time>2026-05-05T14:08:27.564Z</time></trkpt><trkpt lat="37.9904992" lon="12.8713283"><ele>751.2</ele><time>2026-05-05T14:08:28.565Z</time></trkpt><trkpt lat="37.9905449" lon="12.8711949"><ele>751.6</ele><time>2026-05-05T14:08:29.564Z</time></trkpt><trkpt lat="37.9906052" lon="12.8710697"><ele>752.0</ele><time>2026-05-05T14:08:30.563Z</time></trkpt><trkpt lat="37.9906776" lon="12.8709504"><ele>751.25</ele><time>2026-05-05T14:08:31.564Z</time></trkpt><trkpt lat="37.9907509" lon="12.8708385"><ele>750.5</ele><time>2026-05-05T14:08:32.564Z</time></trkpt><trkpt lat="37.9908279" lon="12.870733"><ele>749.75</ele><time>2026-05-05T14:08:33.564Z</time></trkpt><trkpt lat="37.9909097" lon="12.8706364"><ele>749.0</ele><time>2026-05-05T14:08:34.563Z</time></trkpt><trkpt lat="37.9910005" lon="12.8705485"><ele>754.0</ele><time>2026-05-05T14:08:35.562Z</time></trkpt><trkpt lat="37.9910977" lon="12.8704685"><ele>759.0</ele><time>2026-05-05T14:08:36.564Z</time></trkpt><trkpt lat="37.9911968" lon="12.8703873"><ele>764.0</ele><time>2026-05-05T14:08:37.564Z</time></trkpt><trkpt lat="37.9912891" lon="12.8702977"><ele>769.0</ele><time>2026-05-05T14:08:38.566Z</time></trkpt><trkpt lat="37.9913734" lon="12.8702004"><ele>771.5</ele><time>2026-05-05T14:08:39.564Z</time></trkpt><trkpt lat="37.991453" lon="12.8700945"><ele>774.0</ele><time>2026-05-05T14:08:40.563Z</time></trkpt><trkpt lat="37.9915311" lon="12.8699854"><ele>776.5</ele><time>2026-05-05T14:08:41.564Z</time></trkpt><trkpt lat="37.9916119" lon="12.8698736"><ele>779.0</ele><time>2026-05-05T14:08:42.565Z</time></trkpt><trkpt lat="37.9916918" lon="12.8697614"><ele>779.0</ele><time>2026-05-05T14:08:43.564Z</time></trkpt><trkpt lat="37.9917719" lon="12.8696521"><ele>779.0</ele><time>2026-05-05T14:08:44.564Z</time></trkpt><trkpt lat="37.9918547" lon="12.8695453"><ele>779.0</ele><time>2026-05-05T14:08:45.564Z</time></trkpt><trkpt lat="37.9919397" lon="12.8694375"><ele>779.0</ele><time>2026-05-05T14:08:46.565Z</time></trkpt><trkpt lat="37.9920254" lon="12.8693277"><ele>776.0</ele><time>2026-05-05T14:08:47.564Z</time></trkpt><trkpt lat="37.9921139" lon="12.869212"><ele>773.0</ele><time>2026-05-05T14:08:48.564Z</time></trkpt><trkpt lat="37.9921953" lon="12.8690969"><ele>770.0</ele><time>2026-05-05T14:08:49.563Z</time></trkpt><trkpt lat="37.9922699" lon="12.868987"><ele>767.0</ele><time>2026-05-05T14:08:50.563Z</time></trkpt><trkpt lat="37.9923407" lon="12.8688861"><ele>767.0</ele><time>2026-05-05T14:08:51.563Z</time></trkpt><trkpt lat="37.992415" lon="12.8687916"><ele>767.0</ele><time>2026-05-05T14:08:52.563Z</time></trkpt><trkpt lat="37.992494" lon="12.868704"><ele>767.0</ele><time>2026-05-05T14:08:53.564Z</time></trkpt><trkpt lat="37.9925774" lon="12.8686246"><ele>767.0</ele><time>2026-05-05T14:08:54.564Z</time></trkpt><trkpt lat="37.9926676" lon="12.8685451"><ele>767.0</ele><time>2026-05-05T14:08:55.565Z</time></trkpt><trkpt lat="37.9927607" lon="12.8684626"><ele>766.75</ele><time>2026-05-05T14:08:56.563Z</time></trkpt><trkpt lat="37.9928585" lon="12.8683775"><ele>766.5</ele><time>2026-05-05T14:08:57.566Z</time></trkpt><trkpt lat="37.9929576" lon="12.8682924"><ele>766.25</ele><time>2026-05-05T14:08:58.563Z</time></trkpt><trkpt lat="37.9930563" lon="12.8682109"><ele>766.0</ele><time>2026-05-05T14:08:59.566Z</time></trkpt><trkpt lat="37.9931498" lon="12.8681348"><ele>766.0</ele><time>2026-05-05T14:09:00.563Z</time></trkpt><trkpt lat="37.9932357" lon="12.8680603"><ele>766.0</ele><time>2026-05-05T14:09:01.563Z</time></trkpt><trkpt lat="37.9933229" lon="12.8679851"><ele>766.0</ele><time>2026-05-05T14:09:02.564Z</time></trkpt><trkpt lat="37.9934153" lon="12.8679075"><ele>766.0</ele><time>2026-05-05T14:09:03.564Z</time></trkpt><trkpt lat="37.9935122" lon="12.8678266"><ele>766.0</ele><time>2026-05-05T14:09:04.563Z</time></trkpt><trkpt lat="37.9936072" lon="12.8677445"><ele>767.0</ele><time>2026-05-05T14:09:05.563Z</time></trkpt><trkpt lat="37.9936971" lon="12.8676627"><ele>768.0</ele><time>2026-05-05T14:09:06.564Z</time></trkpt><trkpt lat="37.993781" lon="12.867582"><ele>769.0</ele><time>2026-05-05T14:09:07.564Z</time></trkpt><trkpt lat="37.9938579" lon="12.8674919"><ele>770.0</ele><time>2026-05-05T14:09:08.564Z</time></trkpt><trkpt lat="37.9939236" lon="12.8673877"><ele>771.0</ele><time>2026-05-05T14:09:09.563Z</time></trkpt><trkpt lat="37.9939775" lon="12.8672685"><ele>771.0</ele><time>2026-05-05T14:09:10.564Z</time></trkpt><trkpt lat="37.9940194" lon="12.8671403"><ele>771.0</ele><time>2026-05-05T14:09:11.565Z</time></trkpt><trkpt lat="37.9940448" lon="12.867013"><ele>771.0</ele><time>2026-05-05T14:09:12.563Z</time></trkpt><trkpt lat="37.9940657" lon="12.8668889"><ele>771.0</ele><time>2026-05-05T14:09:13.564Z</time></trkpt><trkpt lat="37.9940887" lon="12.8667686"><ele>771.0</ele><time>2026-05-05T14:09:14.563Z</time></trkpt><trkpt lat="37.9941247" lon="12.8666549"><ele>771.8</ele><time>2026-05-05T14:09:15.564Z</time></trkpt><trkpt lat="37.9941735" lon="12.8665569"><ele>772.5999999999999</ele><time>2026-05-05T14:09:16.564Z</time></trkpt><trkpt lat="37.9942271" lon="12.8664752"><ele>773.4</ele><time>2026-05-05T14:09:17.565Z</time></trkpt><trkpt lat="37.9942963" lon="12.8664157"><ele>774.2</ele><time>2026-05-05T14:09:18.562Z</time></trkpt><trkpt lat="37.9943904" lon="12.8663784"><ele>775.0</ele><time>2026-05-05T14:09:19.564Z</time></trkpt><trkpt lat="37.994489" lon="12.8663411"><ele>775.0</ele><time>2026-05-05T14:09:20.565Z</time></trkpt><trkpt lat="37.9945919" lon="12.8663004"><ele>775.0</ele><time>2026-05-05T14:09:21.564Z</time></trkpt><trkpt lat="37.9946952" lon="12.8662537"><ele>775.0</ele><time>2026-05-05T14:09:22.568Z</time></trkpt><trkpt lat="37.9947924" lon="12.8661989"><ele>775.0</ele><time>2026-05-05T14:09:23.564Z</time></trkpt><trkpt lat="37.9948804" lon="12.8661334"><ele>775.0</ele><time>2026-05-05T14:09:24.564Z</time></trkpt><trkpt lat="37.9949516" lon="12.866055"><ele>778.4</ele><time>2026-05-05T14:09:25.564Z</time></trkpt><trkpt lat="37.9950098" lon="12.8659582"><ele>781.8</ele><time>2026-05-05T14:09:26.563Z</time></trkpt><trkpt lat="37.9950622" lon="12.8658515"><ele>785.2</ele><time>2026-05-05T14:09:27.564Z</time></trkpt><trkpt lat="37.9951035" lon="12.8657327"><ele>788.6</ele><time>2026-05-05T14:09:28.564Z</time></trkpt><trkpt lat="37.9951378" lon="12.8656041"><ele>792.0</ele><time>2026-05-05T14:09:29.562Z</time></trkpt><trkpt lat="37.9951734" lon="12.8654727"><ele>792.0</ele><time>2026-05-05T14:09:30.565Z</time></trkpt><trkpt lat="37.9952186" lon="12.8653473"><ele>792.0</ele><time>2026-05-05T14:09:31.564Z</time></trkpt><trkpt lat="37.9952738" lon="12.8652293"><ele>792.0</ele><time>2026-05-05T14:09:32.564Z</time></trkpt><trkpt lat="37.995335" lon="12.8651171"><ele>792.0</ele><time>2026-05-05T14:09:33.564Z</time></trkpt><trkpt lat="37.9953956" lon="12.8650003"><ele>792.0</ele><time>2026-05-05T14:09:34.564Z</time></trkpt><trkpt lat="37.9954456" lon="12.8648749"><ele>791.0</ele><time>2026-05-05T14:09:35.564Z</time></trkpt><trkpt lat="37.995489" lon="12.8647461"><ele>790.0</ele><time>2026-05-05T14:09:36.564Z</time></trkpt><trkpt lat="37.9955276" lon="12.8646144"><ele>789.0</ele><time>2026-05-05T14:09:37.564Z</time></trkpt><trkpt lat="37.9955667" lon="12.8644825"><ele>788.0</ele><time>2026-05-05T14:09:38.564Z</time></trkpt><trkpt lat="37.9956038" lon="12.8643528"><ele>787.0</ele><time>2026-05-05T14:09:39.564Z</time></trkpt><trkpt lat="37.9956342" lon="12.8642213"><ele>786.8</ele><time>2026-05-05T14:09:40.564Z</time></trkpt><trkpt lat="37.995657" lon="12.8640892"><ele>786.6</ele><time>2026-05-05T14:09:41.564Z</time></trkpt><trkpt lat="37.9956756" lon="12.8639573"><ele>786.4</ele><time>2026-05-05T14:09:42.564Z</time></trkpt><trkpt lat="37.9956967" lon="12.8638264"><ele>786.1999999999999</ele><time>2026-05-05T14:09:43.563Z</time></trkpt><trkpt lat="37.9957196" lon="12.8636981"><ele>786.0</ele><time>2026-05-05T14:09:44.563Z</time></trkpt><trkpt lat="37.9957457" lon="12.8635679"><ele>785.5999999999999</ele><time>2026-05-05T14:09:45.564Z</time></trkpt><trkpt lat="37.9957732" lon="12.8634378"><ele>785.2</ele><time>2026-05-05T14:09:46.563Z</time></trkpt><trkpt lat="37.995802" lon="12.8633043"><ele>784.8</ele><time>2026-05-05T14:09:47.564Z</time></trkpt><trkpt lat="37.9958284" lon="12.8631652"><ele>784.4000000000001</ele><time>2026-05-05T14:09:48.564Z</time></trkpt><trkpt lat="37.995857" lon="12.8630253"><ele>784.0</ele><time>2026-05-05T14:09:49.564Z</time></trkpt><trkpt lat="37.9958862" lon="12.8628831"><ele>795.0</ele><time>2026-05-05T14:09:50.564Z</time></trkpt><trkpt lat="37.9959163" lon="12.8627374"><ele>806.0</ele><time>2026-05-05T14:09:51.565Z</time></trkpt><trkpt lat="37.9959478" lon="12.8625892"><ele>817.0</ele><time>2026-05-05T14:09:52.564Z</time></trkpt><trkpt lat="37.9959765" lon="12.8624379"><ele>828.0</ele><time>2026-05-05T14:09:53.566Z</time></trkpt><trkpt lat="37.9960012" lon="12.8622844"><ele>828.0</ele><time>2026-05-05T14:09:54.563Z</time></trkpt><trkpt lat="37.9960244" lon="12.8621291"><ele>828.0</ele><time>2026-05-05T14:09:55.564Z</time></trkpt><trkpt lat="37.9960483" lon="12.86197"><ele>828.0</ele><time>2026-05-05T14:09:56.568Z</time></trkpt><trkpt lat="37.9960717" lon="12.861805"><ele>828.0</ele><time>2026-05-05T14:09:57.564Z</time></trkpt><trkpt lat="37.9960983" lon="12.861625"><ele>826.0</ele><time>2026-05-05T14:09:58.564Z</time></trkpt><trkpt lat="37.9961233" lon="12.8614333"><ele>824.0</ele><time>2026-05-05T14:09:59.563Z</time></trkpt><trkpt lat="37.9961483" lon="12.8612417"><ele>822.0</ele><time>2026-05-05T14:10:00.563Z</time></trkpt><trkpt lat="37.9961667" lon="12.8610633"><ele>820.0</ele><time>2026-05-05T14:10:01.564Z</time></trkpt><trkpt lat="37.9961667" lon="12.860885"><ele>819.0</ele><time>2026-05-05T14:10:02.563Z</time></trkpt><trkpt lat="37.996145" lon="12.8607"><ele>818.0</ele><time>2026-05-05T14:10:03.563Z</time></trkpt><trkpt lat="37.996105" lon="12.8605117"><ele>817.0</ele><time>2026-05-05T14:10:04.564Z</time></trkpt><trkpt lat="37.99605" lon="12.860325"><ele>817.0</ele><time>2026-05-05T14:10:05.564Z</time></trkpt><trkpt lat="37.99598" lon="12.8601383"><ele>817.0</ele><time>2026-05-05T14:10:06.563Z</time></trkpt><trkpt lat="37.9958967" lon="12.8599567"><ele>817.0</ele><time>2026-05-05T14:10:07.564Z</time></trkpt><trkpt lat="37.9957967" lon="12.8597833"><ele>807.6666666666666</ele><time>2026-05-05T14:10:08.564Z</time></trkpt><trkpt lat="37.9956917" lon="12.8596183"><ele>798.3333333333333</ele><time>2026-05-05T14:10:09.564Z</time></trkpt><trkpt lat="37.9955917" lon="12.859455"><ele>789.0</ele><time>2026-05-05T14:10:10.564Z</time></trkpt><trkpt lat="37.9954967" lon="12.8592917"><ele>793.75</ele><time>2026-05-05T14:10:11.565Z</time></trkpt><trkpt lat="37.9954117" lon="12.859135"><ele>798.5</ele><time>2026-05-05T14:10:12.563Z</time></trkpt><trkpt lat="37.99534" lon="12.8589933"><ele>803.25</ele><time>2026-05-05T14:10:13.564Z</time></trkpt><trkpt lat="37.9952767" lon="12.8588583"><ele>808.0</ele><time>2026-05-05T14:10:14.564Z</time></trkpt><trkpt lat="37.9952183" lon="12.8587117"><ele>808.0</ele><time>2026-05-05T14:10:15.564Z</time></trkpt><trkpt lat="37.9951583" lon="12.8585517"><ele>808.0</ele><time>2026-05-05T14:10:16.564Z</time></trkpt><trkpt lat="37.9951017" lon="12.8583967"><ele>808.0</ele><time>2026-05-05T14:10:17.564Z</time></trkpt><trkpt lat="37.99505" lon="12.8582417"><ele>808.0</ele><time>2026-05-05T14:10:18.563Z</time></trkpt><trkpt lat="37.99501" lon="12.858095"><ele>805.4</ele><time>2026-05-05T14:10:19.563Z</time></trkpt><trkpt lat="37.9949933" lon="12.8579567"><ele>802.8</ele><time>2026-05-05T14:10:20.564Z</time></trkpt><trkpt lat="37.995" lon="12.8578217"><ele>800.2</ele><time>2026-05-05T14:10:21.564Z</time></trkpt><trkpt lat="37.9950167" lon="12.85768"><ele>797.6</ele><time>2026-05-05T14:10:22.563Z</time></trkpt><trkpt lat="37.9950333" lon="12.8575317"><ele>795.0</ele><time>2026-05-05T14:10:23.564Z</time></trkpt><trkpt lat="37.9950417" lon="12.8573833"><ele>805.25</ele><time>2026-05-05T14:10:24.564Z</time></trkpt><trkpt lat="37.9950517" lon="12.8572333"><ele>815.5</ele><time>2026-05-05T14:10:25.564Z</time></trkpt><trkpt lat="37.9950717" lon="12.8570783"><ele>825.75</ele><time>2026-05-05T14:10:26.564Z</time></trkpt><trkpt lat="37.9951067" lon="12.8569233"><ele>836.0</ele><time>2026-05-05T14:10:27.564Z</time></trkpt><trkpt lat="37.9951467" lon="12.8567717"><ele>836.0</ele><time>2026-05-05T14:10:28.564Z</time></trkpt><trkpt lat="37.995185" lon="12.85662"><ele>836.0</ele><time>2026-05-05T14:10:29.565Z</time></trkpt><trkpt lat="37.9952233" lon="12.8564817"><ele>836.0</ele><time>2026-05-05T14:10:30.564Z</time></trkpt><trkpt lat="37.9952667" lon="12.8563567"><ele>836.0</ele><time>2026-05-05T14:10:31.564Z</time></trkpt><trkpt lat="37.9953083" lon="12.8562367"><ele>836.0</ele><time>2026-05-05T14:10:32.564Z</time></trkpt><trkpt lat="37.99535" lon="12.856125"><ele>836.0</ele><time>2026-05-05T14:10:33.564Z</time></trkpt><trkpt lat="37.9953983" lon="12.8560383"><ele>836.0</ele><time>2026-05-05T14:10:34.564Z</time></trkpt><trkpt lat="37.995455" lon="12.85596"><ele>836.0</ele><time>2026-05-05T14:10:35.563Z</time></trkpt><trkpt lat="37.9955283" lon="12.8558917"><ele>836.0</ele><time>2026-05-05T14:10:36.565Z</time></trkpt><trkpt lat="37.99561" lon="12.8558283"><ele>832.8</ele><time>2026-05-05T14:10:37.564Z</time></trkpt><trkpt lat="37.99569" lon="12.8557533"><ele>829.5999999999999</ele><time>2026-05-05T14:10:38.565Z</time></trkpt><trkpt lat="37.995775" lon="12.8556633"><ele>826.4</ele><time>2026-05-05T14:10:39.564Z</time></trkpt><trkpt lat="37.9958667" lon="12.8555667"><ele>823.2</ele><time>2026-05-05T14:10:40.563Z</time></trkpt><trkpt lat="37.9959583" lon="12.85547"><ele>820.0</ele><time>2026-05-05T14:10:41.563Z</time></trkpt><trkpt lat="37.9960533" lon="12.8553733"><ele>822.25</ele><time>2026-05-05T14:10:42.564Z</time></trkpt><trkpt lat="37.9961433" lon="12.85528"><ele>824.5</ele><time>2026-05-05T14:10:43.563Z</time></trkpt><trkpt lat="37.99623" lon="12.85519"><ele>826.75</ele><time>2026-05-05T14:10:44.563Z</time></trkpt><trkpt lat="37.996323" lon="12.8551056"><ele>829.0</ele><time>2026-05-05T14:10:45.564Z</time></trkpt><trkpt lat="37.9964128" lon="12.8550303"><ele>828.9999999999999</ele><time>2026-05-05T14:10:46.565Z</time></trkpt><trkpt lat="37.9964967" lon="12.8549665"><ele>829.0</ele><time>2026-05-05T14:10:47.564Z</time></trkpt><trkpt lat="37.9965822" lon="12.8549043"><ele>829.0</ele><time>2026-05-05T14:10:48.564Z</time></trkpt><trkpt lat="37.9966572" lon="12.8548447"><ele>829.0</ele><time>2026-05-05T14:10:49.563Z</time></trkpt><trkpt lat="37.9967221" lon="12.8547879"><ele>828.9999999999999</ele><time>2026-05-05T14:10:50.564Z</time></trkpt><trkpt lat="37.9967875" lon="12.8547307"><ele>829.0</ele><time>2026-05-05T14:10:51.564Z</time></trkpt><trkpt lat="37.9968543" lon="12.8546731"><ele>834.4999999999999</ele><time>2026-05-05T14:10:52.563Z</time></trkpt><trkpt lat="37.9969187" lon="12.8546129"><ele>840.0</ele><time>2026-05-05T14:10:53.564Z</time></trkpt><trkpt lat="37.9969838" lon="12.8545509"><ele>845.5</ele><time>2026-05-05T14:10:54.564Z</time></trkpt><trkpt lat="37.9970447" lon="12.854482"><ele>851.0</ele><time>2026-05-05T14:10:55.564Z</time></trkpt><trkpt lat="37.9971086" lon="12.8544136"><ele>856.4999999999999</ele><time>2026-05-05T14:10:56.565Z</time></trkpt><trkpt lat="37.9971801" lon="12.854348"><ele>862.0</ele><time>2026-05-05T14:10:57.564Z</time></trkpt><trkpt lat="37.9972573" lon="12.8542885"><ele>862.4999999999999</ele><time>2026-05-05T14:10:58.564Z</time></trkpt><trkpt lat="37.997335" lon="12.8542335"><ele>863.0</ele><time>2026-05-05T14:10:59.564Z</time></trkpt><trkpt lat="37.9974087" lon="12.8541803"><ele>863.5</ele><time>2026-05-05T14:11:00.564Z</time></trkpt><trkpt lat="37.9974689" lon="12.8541227"><ele>864.0</ele><time>2026-05-05T14:11:01.563Z</time></trkpt><trkpt lat="37.9975208" lon="12.8540545"><ele>864.4999999999999</ele><time>2026-05-05T14:11:02.566Z</time></trkpt><trkpt lat="37.9975628" lon="12.8539859"><ele>865.0</ele><time>2026-05-05T14:11:03.563Z</time></trkpt><trkpt lat="37.9976089" lon="12.853925"><ele>865.0</ele><time>2026-05-05T14:11:04.564Z</time></trkpt><trkpt lat="37.997665" lon="12.8538755"><ele>865.0</ele><time>2026-05-05T14:11:05.564Z</time></trkpt><trkpt lat="37.9977322" lon="12.8538345"><ele>865.0</ele><time>2026-05-05T14:11:06.564Z</time></trkpt><trkpt lat="37.9978068" lon="12.8538005"><ele>865.0</ele><time>2026-05-05T14:11:07.564Z</time></trkpt><trkpt lat="37.9978818" lon="12.8537792"><ele>865.0</ele><time>2026-05-05T14:11:08.564Z</time></trkpt><trkpt lat="37.9979536" lon="12.8537639"><ele>865.0</ele><time>2026-05-05T14:11:09.564Z</time></trkpt><trkpt lat="37.9980185" lon="12.853754"><ele>865.0</ele><time>2026-05-05T14:11:10.564Z</time></trkpt><trkpt lat="37.9981081" lon="12.8537511"><ele>864.9999999999999</ele><time>2026-05-05T14:11:12.564Z</time></trkpt><trkpt lat="37.9981245" lon="12.8538295"><ele>865.0</ele><time>2026-05-05T14:11:15.564Z</time></trkpt><trkpt lat="37.9980719" lon="12.8538755"><ele>865.0</ele><time>2026-05-05T14:11:17.563Z</time></trkpt><trkpt lat="37.9979841" lon="12.853993"><ele>865.0</ele><time>2026-05-05T14:11:19.564Z</time></trkpt><trkpt lat="37.9979203" lon="12.8540803"><ele>864.9999999999999</ele><time>2026-05-05T14:11:20.565Z</time></trkpt><trkpt lat="37.997868" lon="12.8541452"><ele>865.0</ele><time>2026-05-05T14:11:21.563Z</time></trkpt><trkpt lat="37.9977872" lon="12.8542495"><ele>865.0</ele><time>2026-05-05T14:11:23.564Z</time></trkpt><trkpt lat="37.9977774" lon="12.8543456"><ele>865.0</ele><time>2026-05-05T14:11:25.564Z</time></trkpt><trkpt lat="37.9978443" lon="12.8543357"><ele>865.0</ele><time>2026-05-05T14:11:29.564Z</time></trkpt><trkpt lat="37.9979295" lon="12.8542779"><ele>865.0</ele><time>2026-05-05T14:11:31.564Z</time></trkpt><trkpt lat="37.9979895" lon="12.8542507"><ele>865.0</ele><time>2026-05-05T14:11:32.564Z</time></trkpt><trkpt lat="37.9980537" lon="12.8542328"><ele>865.0</ele><time>2026-05-05T14:11:33.563Z</time></trkpt><trkpt lat="37.9981265" lon="12.8542269"><ele>865.0</ele><time>2026-05-05T14:11:34.563Z</time></trkpt><trkpt lat="37.9982406" lon="12.8542128"><ele>865.0</ele><time>2026-05-05T14:11:36.563Z</time></trkpt><trkpt lat="37.9983335" lon="12.8541693"><ele>865.0</ele><time>2026-05-05T14:11:38.563Z</time></trkpt><trkpt lat="37.9984429" lon="12.8541305"><ele>865.0</ele><time>2026-05-05T14:11:40.564Z</time></trkpt><trkpt lat="37.9985564" lon="12.8540897"><ele>865.0</ele><time>2026-05-05T14:11:42.564Z</time></trkpt><trkpt lat="37.9986602" lon="12.8540477"><ele>865.0</ele><time>2026-05-05T14:11:44.565Z</time></trkpt><trkpt lat="37.9987464" lon="12.8539968"><ele>868.6</ele><time>2026-05-05T14:11:46.563Z</time></trkpt><trkpt lat="37.9988223" lon="12.8539777"><ele>872.2</ele><time>2026-05-05T14:11:48.563Z</time></trkpt><trkpt lat="37.9988283" lon="12.8541617"><ele>875.8</ele><time>2026-05-05T14:12:13.564Z</time></trkpt><trkpt lat="37.99874" lon="12.85425"><ele>879.4</ele><time>2026-05-05T14:12:15.564Z</time></trkpt><trkpt lat="37.9986833" lon="12.8542967"><ele>883.0</ele><time>2026-05-05T14:12:16.563Z</time></trkpt><trkpt lat="37.9986217" lon="12.8543467"><ele>884.0</ele><time>2026-05-05T14:12:17.565Z</time></trkpt><trkpt lat="37.9985533" lon="12.8544067"><ele>885.0</ele><time>2026-05-05T14:12:18.563Z</time></trkpt><trkpt lat="37.9984867" lon="12.854485"><ele>886.0</ele><time>2026-05-05T14:12:19.563Z</time></trkpt><trkpt lat="37.9984233" lon="12.8545683"><ele>887.0</ele><time>2026-05-05T14:12:20.564Z</time></trkpt><trkpt lat="37.9983583" lon="12.8546633"><ele>888.0</ele><time>2026-05-05T14:12:21.564Z</time></trkpt><trkpt lat="37.9982867" lon="12.8547517"><ele>888.0</ele><time>2026-05-05T14:12:22.564Z</time></trkpt><trkpt lat="37.998215" lon="12.8548083"><ele>888.0</ele><time>2026-05-05T14:12:23.564Z</time></trkpt><trkpt lat="37.9981383" lon="12.8548483"><ele>888.0</ele><time>2026-05-05T14:12:24.563Z</time></trkpt><trkpt lat="37.9980617" lon="12.8548967"><ele>888.0</ele><time>2026-05-05T14:12:25.565Z</time></trkpt><trkpt lat="37.9979883" lon="12.8549567"><ele>888.0</ele><time>2026-05-05T14:12:26.563Z</time></trkpt><trkpt lat="37.9979267" lon="12.85502"><ele>888.0</ele><time>2026-05-05T14:12:27.563Z</time></trkpt><trkpt lat="37.99786" lon="12.8551283"><ele>888.0</ele><time>2026-05-05T14:12:29.564Z</time></trkpt><trkpt lat="37.9978633" lon="12.8552333"><ele>888.0</ele><time>2026-05-05T14:12:31.563Z</time></trkpt><trkpt lat="37.9979317" lon="12.8552667"><ele>888.0</ele><time>2026-05-05T14:12:33.564Z</time></trkpt><trkpt lat="37.998025" lon="12.8551933"><ele>888.0</ele><time>2026-05-05T14:12:35.563Z</time></trkpt><trkpt lat="37.99808" lon="12.85515"><ele>888.0</ele><time>2026-05-05T14:12:36.564Z</time></trkpt><trkpt lat="37.9981467" lon="12.8551233"><ele>888.0</ele><time>2026-05-05T14:12:37.564Z</time></trkpt><trkpt lat="37.99821" lon="12.85509"><ele>888.0</ele><time>2026-05-05T14:12:38.564Z</time></trkpt><trkpt lat="37.9982783" lon="12.8550517"><ele>888.0</ele><time>2026-05-05T14:12:39.565Z</time></trkpt><trkpt lat="37.9983517" lon="12.8550317"><ele>888.0</ele><time>2026-05-05T14:12:40.563Z</time></trkpt><trkpt lat="37.9984283" lon="12.85502"><ele>888.0</ele><time>2026-05-05T14:12:41.564Z</time></trkpt><trkpt lat="37.9985" lon="12.85501"><ele>888.0</ele><time>2026-05-05T14:12:42.563Z</time></trkpt><trkpt lat="37.9985717" lon="12.8549967"><ele>888.0</ele><time>2026-05-05T14:12:43.564Z</time></trkpt><trkpt lat="37.9986417" lon="12.854975"><ele>888.0</ele><time>2026-05-05T14:12:44.564Z</time></trkpt><trkpt lat="37.9987133" lon="12.8549483"><ele>891.6666666666666</ele><time>2026-05-05T14:12:45.564Z</time></trkpt><trkpt lat="37.9987883" lon="12.8549217"><ele>895.3333333333333</ele><time>2026-05-05T14:12:46.564Z</time></trkpt><trkpt lat="37.9988667" lon="12.8548983"><ele>899.0</ele><time>2026-05-05T14:12:47.564Z</time></trkpt><trkpt lat="37.9989417" lon="12.8548717"><ele>902.6666666666666</ele><time>2026-05-05T14:12:48.564Z</time></trkpt><trkpt lat="37.9990133" lon="12.8548333"><ele>906.3333333333333</ele><time>2026-05-05T14:12:49.564Z</time></trkpt><trkpt lat="37.9990833" lon="12.8547917"><ele>910.0</ele><time>2026-05-05T14:12:50.566Z</time></trkpt><trkpt lat="37.9991583" lon="12.8547683"><ele>912.8333333333333</ele><time>2026-05-05T14:12:51.564Z</time></trkpt><trkpt lat="37.9992367" lon="12.8547517"><ele>915.6666666666666</ele><time>2026-05-05T14:12:52.565Z</time></trkpt><trkpt lat="37.99932" lon="12.8547317"><ele>918.5</ele><time>2026-05-05T14:12:53.563Z</time></trkpt><trkpt lat="37.9994067" lon="12.854705"><ele>921.3333333333333</ele><time>2026-05-05T14:12:54.563Z</time></trkpt><trkpt lat="37.9994967" lon="12.8546683"><ele>924.1666666666666</ele><time>2026-05-05T14:12:55.563Z</time></trkpt><trkpt lat="37.999585" lon="12.854625"><ele>927.0</ele><time>2026-05-05T14:12:56.564Z</time></trkpt><trkpt lat="37.9996683" lon="12.8545817"><ele>927.0</ele><time>2026-05-05T14:12:57.563Z</time></trkpt><trkpt lat="37.9997483" lon="12.8545283"><ele>927.0</ele><time>2026-05-05T14:12:58.564Z</time></trkpt><trkpt lat="37.9998133" lon="12.85448"><ele>927.0</ele><time>2026-05-05T14:12:59.564Z</time></trkpt><trkpt lat="37.9998733" lon="12.8544533"><ele>927.0</ele><time>2026-05-05T14:13:00.564Z</time></trkpt><trkpt lat="37.999945" lon="12.85442"><ele>927.0</ele><time>2026-05-05T14:13:01.564Z</time></trkpt><trkpt lat="38.0000267" lon="12.854385"><ele>927.0</ele><time>2026-05-05T14:13:02.564Z</time></trkpt><trkpt lat="38.000115" lon="12.8543467"><ele>927.0</ele><time>2026-05-05T14:13:03.563Z</time></trkpt><trkpt lat="38.0002067" lon="12.854305"><ele>927.0</ele><time>2026-05-05T14:13:04.563Z</time></trkpt><trkpt lat="38.000305" lon="12.8542617"><ele>927.0</ele><time>2026-05-05T14:13:05.563Z</time></trkpt><trkpt lat="38.0004017" lon="12.8542233"><ele>927.0</ele><time>2026-05-05T14:13:06.564Z</time></trkpt><trkpt lat="38.0005033" lon="12.85418"><ele>927.0</ele><time>2026-05-05T14:13:07.563Z</time></trkpt><trkpt lat="38.0006033" lon="12.8541317"><ele>924.75</ele><time>2026-05-05T14:13:08.565Z</time></trkpt><trkpt lat="38.0007117" lon="12.8540783"><ele>922.5</ele><time>2026-05-05T14:13:09.564Z</time></trkpt><trkpt lat="38.0008183" lon="12.854015"><ele>920.25</ele><time>2026-05-05T14:13:10.564Z</time></trkpt><trkpt lat="38.0009216" lon="12.8539456"><ele>918.0</ele><time>2026-05-05T14:13:11.564Z</time></trkpt><trkpt lat="38.0010207" lon="12.8538728"><ele>918.0</ele><time>2026-05-05T14:13:12.564Z</time></trkpt><trkpt lat="38.001116" lon="12.8537988"><ele>918.0</ele><time>2026-05-05T14:13:13.564Z</time></trkpt><trkpt lat="38.0012064" lon="12.8537264"><ele>918.0</ele><time>2026-05-05T14:13:14.563Z</time></trkpt><trkpt lat="38.0012945" lon="12.8536603"><ele>918.0</ele><time>2026-05-05T14:13:15.564Z</time></trkpt><trkpt lat="38.0013772" lon="12.8536004"><ele>918.0</ele><time>2026-05-05T14:13:16.565Z</time></trkpt><trkpt lat="38.001454" lon="12.8535508"><ele>918.0</ele><time>2026-05-05T14:13:17.564Z</time></trkpt><trkpt lat="38.001522" lon="12.8535131"><ele>918.0</ele><time>2026-05-05T14:13:18.564Z</time></trkpt><trkpt lat="38.0015928" lon="12.8534855"><ele>918.0</ele><time>2026-05-05T14:13:19.563Z</time></trkpt><trkpt lat="38.0016593" lon="12.8534526"><ele>918.0</ele><time>2026-05-05T14:13:20.564Z</time></trkpt><trkpt lat="38.0017151" lon="12.8534003"><ele>918.0</ele><time>2026-05-05T14:13:21.564Z</time></trkpt><trkpt lat="38.0017654" lon="12.8533186"><ele>918.0</ele><time>2026-05-05T14:13:22.564Z</time></trkpt><trkpt lat="38.0018081" lon="12.8532233"><ele>918.1666666666666</ele><time>2026-05-05T14:13:23.564Z</time></trkpt><trkpt lat="38.0018508" lon="12.85313"><ele>918.3333333333333</ele><time>2026-05-05T14:13:24.564Z</time></trkpt><trkpt lat="38.0019004" lon="12.8530401"><ele>918.5</ele><time>2026-05-05T14:13:25.564Z</time></trkpt><trkpt lat="38.0019557" lon="12.8529568"><ele>918.6666666666666</ele><time>2026-05-05T14:13:26.563Z</time></trkpt><trkpt lat="38.0020151" lon="12.8528968"><ele>918.8333333333333</ele><time>2026-05-05T14:13:27.564Z</time></trkpt><trkpt lat="38.00208" lon="12.8528478"><ele>919.0</ele><time>2026-05-05T14:13:28.563Z</time></trkpt><trkpt lat="38.0021395" lon="12.8527946"><ele>918.9999999999999</ele><time>2026-05-05T14:13:29.564Z</time></trkpt><trkpt lat="38.002185" lon="12.85273"><ele>919.0</ele><time>2026-05-05T14:13:30.563Z</time></trkpt><trkpt lat="38.0022287" lon="12.8526672"><ele>919.0</ele><time>2026-05-05T14:13:31.564Z</time></trkpt><trkpt lat="38.0023224" lon="12.8525947"><ele>919.0</ele><time>2026-05-05T14:13:33.564Z</time></trkpt><trkpt lat="38.0023855" lon="12.8526324"><ele>918.9999999999999</ele><time>2026-05-05T14:13:35.564Z</time></trkpt><trkpt lat="38.0023797" lon="12.8527397"><ele>919.0</ele><time>2026-05-05T14:13:37.563Z</time></trkpt><trkpt lat="38.0023474" lon="12.8528826"><ele>918.9999999999999</ele><time>2026-05-05T14:13:39.564Z</time></trkpt><trkpt lat="38.0023224" lon="12.8529635"><ele>919.0</ele><time>2026-05-05T14:13:40.564Z</time></trkpt><trkpt lat="38.0023011" lon="12.8530441"><ele>919.0</ele><time>2026-05-05T14:13:41.563Z</time></trkpt><trkpt lat="38.0023285" lon="12.85316"><ele>919.0</ele><time>2026-05-05T14:13:43.564Z</time></trkpt><trkpt lat="38.0024128" lon="12.853141"><ele>918.9999999999999</ele><time>2026-05-05T14:13:45.563Z</time></trkpt><trkpt lat="38.0024985" lon="12.8530829"><ele>919.0</ele><time>2026-05-05T14:13:47.564Z</time></trkpt><trkpt lat="38.0025753" lon="12.8529642"><ele>923.3333333333333</ele><time>2026-05-05T14:13:49.563Z</time></trkpt><trkpt lat="38.002599" lon="12.8528859"><ele>927.6666666666666</ele><time>2026-05-05T14:13:50.565Z</time></trkpt><trkpt lat="38.0026335" lon="12.8527609"><ele>932.0</ele><time>2026-05-05T14:13:52.564Z</time></trkpt><trkpt lat="38.0027052" lon="12.8527187"><ele>936.3333333333333</ele><time>2026-05-05T14:13:54.564Z</time></trkpt><trkpt lat="38.0027753" lon="12.8527575"><ele>940.6666666666666</ele><time>2026-05-05T14:13:56.564Z</time></trkpt><trkpt lat="38.0027967" lon="12.8528945"><ele>945.0</ele><time>2026-05-05T14:13:58.564Z</time></trkpt><trkpt lat="38.0027866" lon="12.8529858"><ele>945.0</ele><time>2026-05-05T14:13:59.564Z</time></trkpt><trkpt lat="38.0027703" lon="12.8531494"><ele>945.0</ele><time>2026-05-05T14:14:01.564Z</time></trkpt><trkpt lat="38.002758" lon="12.8532469"><ele>945.0</ele><time>2026-05-05T14:14:02.564Z</time></trkpt><trkpt lat="38.0027373" lon="12.8533347"><ele>945.0</ele><time>2026-05-05T14:14:03.564Z</time></trkpt><trkpt lat="38.0027027" lon="12.853411"><ele>945.0</ele><time>2026-05-05T14:14:04.564Z</time></trkpt><trkpt lat="38.0026628" lon="12.853478"><ele>945.0</ele><time>2026-05-05T14:14:05.564Z</time></trkpt><trkpt lat="38.0025964" lon="12.8536014"><ele>946.8333333333334</ele><time>2026-05-05T14:14:07.565Z</time></trkpt><trkpt lat="38.0025996" lon="12.8537144"><ele>948.6666666666667</ele><time>2026-05-05T14:14:09.564Z</time></trkpt><trkpt lat="38.0026667" lon="12.8537395"><ele>950.5</ele><time>2026-05-05T14:14:11.563Z</time></trkpt><trkpt lat="38.0027598" lon="12.8536725"><ele>952.3333333333334</ele><time>2026-05-05T14:14:13.564Z</time></trkpt><trkpt lat="38.0028225" lon="12.8536462"><ele>954.1666666666667</ele><time>2026-05-05T14:14:14.564Z</time></trkpt><trkpt lat="38.0028908" lon="12.8536243"><ele>956.0</ele><time>2026-05-05T14:14:15.564Z</time></trkpt><trkpt lat="38.0029594" lon="12.8535892"><ele>956.0000000000001</ele><time>2026-05-05T14:14:16.564Z</time></trkpt><trkpt lat="38.0030204" lon="12.8535375"><ele>956.0</ele><time>2026-05-05T14:14:17.564Z</time></trkpt><trkpt lat="38.0030652" lon="12.8534713"><ele>956.0000000000001</ele><time>2026-05-05T14:14:18.563Z</time></trkpt><trkpt lat="38.0030945" lon="12.8533911"><ele>956.0000000000001</ele><time>2026-05-05T14:14:19.564Z</time></trkpt><trkpt lat="38.0031153" lon="12.8533026"><ele>956.0</ele><time>2026-05-05T14:14:20.564Z</time></trkpt><trkpt lat="38.0031402" lon="12.8532158"><ele>956.0000000000001</ele><time>2026-05-05T14:14:21.564Z</time></trkpt><trkpt lat="38.0031734" lon="12.8531286"><ele>956.0000000000001</ele><time>2026-05-05T14:14:22.564Z</time></trkpt><trkpt lat="38.0032206" lon="12.8530372"><ele>950.5</ele><time>2026-05-05T14:14:23.565Z</time></trkpt><trkpt lat="38.0032725" lon="12.8529524"><ele>945.0</ele><time>2026-05-05T14:14:24.564Z</time></trkpt><trkpt lat="38.0025753" lon="12.8529642"><ele>945.0</ele><time>2026-05-05T14:13:49.563Z</time></trkpt><trkpt lat="38.002599" lon="12.8528859"><ele>945.0</ele><time>2026-05-05T14:13:50.565Z</time></trkpt><trkpt lat="38.0026335" lon="12.8527609"><ele>945.0</ele><time>2026-05-05T14:13:52.564Z</time></trkpt><trkpt lat="38.0027052" lon="12.8527187"><ele>945.0</ele><time>2026-05-05T14:13:54.564Z</time></trkpt><trkpt lat="38.0027753" lon="12.8527575"><ele>945.0</ele><time>2026-05-05T14:13:56.564Z</time></trkpt><trkpt lat="38.0027967" lon="12.8528945"><ele>945.0</ele><time>2026-05-05T14:13:58.564Z</time></trkpt><trkpt lat="38.0027866" lon="12.8529858"><ele>945.0</ele><time>2026-05-05T14:13:59.564Z</time></trkpt><trkpt lat="38.0027703" lon="12.8531494"><ele>945.0</ele><time>2026-05-05T14:14:01.564Z</time></trkpt><trkpt lat="38.002758" lon="12.8532469"><ele>945.0</ele><time>2026-05-05T14:14:02.564Z</time></trkpt><trkpt lat="38.0027373" lon="12.8533347"><ele>945.0</ele><time>2026-05-05T14:14:03.564Z</time></trkpt><trkpt lat="38.0027027" lon="12.853411"><ele>945.0</ele><time>2026-05-05T14:14:04.564Z</time></trkpt><trkpt lat="38.0026628" lon="12.853478"><ele>945.0</ele><time>2026-05-05T14:14:05.564Z</time></trkpt><trkpt lat="38.0025964" lon="12.8536014"><ele>946.8333333333334</ele><time>2026-05-05T14:14:07.565Z</time></trkpt><trkpt lat="38.0025996" lon="12.8537144"><ele>948.6666666666667</ele><time>2026-05-05T14:14:09.564Z</time></trkpt><trkpt lat="38.0026667" lon="12.8537395"><ele>950.5</ele><time>2026-05-05T14:14:11.563Z</time></trkpt><trkpt lat="38.0027598" lon="12.8536725"><ele>952.3333333333334</ele><time>2026-05-05T14:14:13.564Z</time></trkpt><trkpt lat="38.0028225" lon="12.8536462"><ele>954.1666666666667</ele><time>2026-05-05T14:14:14.564Z</time></trkpt><trkpt lat="38.0028908" lon="12.8536243"><ele>956.0</ele><time>2026-05-05T14:14:15.564Z</time></trkpt><trkpt lat="38.0029594" lon="12.8535892"><ele>956.0000000000001</ele><time>2026-05-05T14:14:16.564Z</time></trkpt><trkpt lat="38.0030204" lon="12.8535375"><ele>956.0</ele><time>2026-05-05T14:14:17.564Z</time></trkpt><trkpt lat="38.0030652" lon="12.8534713"><ele>956.0000000000001</ele><time>2026-05-05T14:14:18.563Z</time></trkpt><trkpt lat="38.0030945" lon="12.8533911"><ele>956.0000000000001</ele><time>2026-05-05T14:14:19.564Z</time></trkpt><trkpt lat="38.0031153" lon="12.8533026"><ele>956.0</ele><time>2026-05-05T14:14:20.564Z</time></trkpt><trkpt lat="38.0031402" lon="12.8532158"><ele>956.0000000000001</ele><time>2026-05-05T14:14:21.564Z</time></trkpt><trkpt lat="38.0031734" lon="12.8531286"><ele>956.0000000000001</ele><time>2026-05-05T14:14:22.564Z</time></trkpt><trkpt lat="38.0032206" lon="12.8530372"><ele>954.1666666666667</ele><time>2026-05-05T14:14:23.565Z</time></trkpt><trkpt lat="38.0032725" lon="12.8529524"><ele>952.3333333333334</ele><time>2026-05-05T14:14:24.564Z</time></trkpt><trkpt lat="38.0033312" lon="12.8528744"><ele>950.5</ele><time>2026-05-05T14:14:25.564Z</time></trkpt><trkpt lat="38.0033912" lon="12.8528062"><ele>948.6666666666667</ele><time>2026-05-05T14:14:26.564Z</time></trkpt><trkpt lat="38.0034517" lon="12.8527485"><ele>946.8333333333334</ele><time>2026-05-05T14:14:27.563Z</time></trkpt><trkpt lat="38.0035147" lon="12.8527074"><ele>945.0</ele><time>2026-05-05T14:14:28.565Z</time></trkpt><trkpt lat="38.0035754" lon="12.852683"><ele>947.4</ele><time>2026-05-05T14:14:29.563Z</time></trkpt><trkpt lat="38.0036872" lon="12.852637"><ele>949.8</ele><time>2026-05-05T14:14:31.564Z</time></trkpt><trkpt lat="38.003792" lon="12.8526088"><ele>952.2</ele><time>2026-05-05T14:14:33.564Z</time></trkpt><trkpt lat="38.0038978" lon="12.8526186"><ele>954.6</ele><time>2026-05-05T14:14:35.564Z</time></trkpt><trkpt lat="38.0039686" lon="12.8526898"><ele>957.0</ele><time>2026-05-05T14:14:37.565Z</time></trkpt><trkpt lat="38.0039768" lon="12.8527842"><ele>958.8333333333334</ele><time>2026-05-05T14:14:39.565Z</time></trkpt><trkpt lat="38.0038526" lon="12.8528041"><ele>960.6666666666667</ele><time>2026-05-05T14:14:41.564Z</time></trkpt><trkpt lat="38.0037778" lon="12.8528197"><ele>962.5</ele><time>2026-05-05T14:14:42.564Z</time></trkpt><trkpt lat="38.0037088" lon="12.8528521"><ele>964.3333333333334</ele><time>2026-05-05T14:14:43.563Z</time></trkpt><trkpt lat="38.0036462" lon="12.8529028"><ele>966.1666666666667</ele><time>2026-05-05T14:14:44.564Z</time></trkpt><trkpt lat="38.0035899" lon="12.8529712"><ele>968.0</ele><time>2026-05-05T14:14:45.564Z</time></trkpt><trkpt lat="38.0035414" lon="12.8530589"><ele>968.0000000000001</ele><time>2026-05-05T14:14:46.563Z</time></trkpt><trkpt lat="38.0035061" lon="12.853162"><ele>968.0</ele><time>2026-05-05T14:14:47.565Z</time></trkpt><trkpt lat="38.0034883" lon="12.8532769"><ele>968.0</ele><time>2026-05-05T14:14:48.564Z</time></trkpt><trkpt lat="38.003479" lon="12.8533908"><ele>968.0</ele><time>2026-05-05T14:14:49.564Z</time></trkpt><trkpt lat="38.0034745" lon="12.8534995"><ele>968.0000000000001</ele><time>2026-05-05T14:14:50.565Z</time></trkpt><trkpt lat="38.0034654" lon="12.8536131"><ele>968.0</ele><time>2026-05-05T14:14:51.564Z</time></trkpt><trkpt lat="38.0034479" lon="12.8537274"><ele>969.1666666666667</ele><time>2026-05-05T14:14:52.566Z</time></trkpt><trkpt lat="38.0034253" lon="12.8538333"><ele>970.3333333333334</ele><time>2026-05-05T14:14:53.564Z</time></trkpt><trkpt lat="38.0033927" lon="12.8539256"><ele>971.5</ele><time>2026-05-05T14:14:54.564Z</time></trkpt><trkpt lat="38.0033513" lon="12.8540136"><ele>972.6666666666667</ele><time>2026-05-05T14:14:55.565Z</time></trkpt><trkpt lat="38.0033031" lon="12.8540902"><ele>973.8333333333334</ele><time>2026-05-05T14:14:56.564Z</time></trkpt><trkpt lat="38.0032513" lon="12.854149"><ele>975.0</ele><time>2026-05-05T14:14:57.564Z</time></trkpt><trkpt lat="38.0031691" lon="12.8542388"><ele>975.0</ele><time>2026-05-05T14:14:59.564Z</time></trkpt><trkpt lat="38.0031831" lon="12.8543212"><ele>975.0</ele><time>2026-05-05T14:15:02.564Z</time></trkpt><trkpt lat="38.0032925" lon="12.8542717"><ele>975.0</ele><time>2026-05-05T14:15:04.564Z</time></trkpt><trkpt lat="38.0033646" lon="12.8542226"><ele>975.0</ele><time>2026-05-05T14:15:05.564Z</time></trkpt><trkpt lat="38.0034398" lon="12.8541882"><ele>975.0</ele><time>2026-05-05T14:15:06.564Z</time></trkpt><trkpt lat="38.0035172" lon="12.8541601"><ele>975.0</ele><time>2026-05-05T14:15:07.564Z</time></trkpt><trkpt lat="38.0035948" lon="12.8541321"><ele>975.0</ele><time>2026-05-05T14:15:08.563Z</time></trkpt><trkpt lat="38.0036712" lon="12.8541017"><ele>975.0</ele><time>2026-05-05T14:15:09.564Z</time></trkpt><trkpt lat="38.003736" lon="12.8540609"><ele>975.0</ele><time>2026-05-05T14:15:10.564Z</time></trkpt><trkpt lat="38.0037954" lon="12.8540036"><ele>975.0</ele><time>2026-05-05T14:15:11.564Z</time></trkpt><trkpt lat="38.0038523" lon="12.8539221"><ele>975.0</ele><time>2026-05-05T14:15:12.563Z</time></trkpt><trkpt lat="38.0039123" lon="12.853829"><ele>975.0</ele><time>2026-05-05T14:15:13.564Z</time></trkpt><trkpt lat="38.0039647" lon="12.8537383"><ele>975.0</ele><time>2026-05-05T14:15:14.564Z</time></trkpt><trkpt lat="38.0040191" lon="12.8536628"><ele>975.0</ele><time>2026-05-05T14:15:15.565Z</time></trkpt><trkpt lat="38.0040801" lon="12.853599"><ele>975.0</ele><time>2026-05-05T14:15:16.564Z</time></trkpt><trkpt lat="38.0041434" lon="12.8535621"><ele>975.0</ele><time>2026-05-05T14:15:17.565Z</time></trkpt><trkpt lat="38.0042133" lon="12.8535709"><ele>975.0</ele><time>2026-05-05T14:15:18.563Z</time></trkpt><trkpt lat="38.0042867" lon="12.8536232"><ele>975.0</ele><time>2026-05-05T14:15:19.563Z</time></trkpt><trkpt lat="38.0043523" lon="12.8536873"><ele>977.6</ele><time>2026-05-05T14:15:20.565Z</time></trkpt><trkpt lat="38.0044006" lon="12.8537914"><ele>980.2</ele><time>2026-05-05T14:15:21.564Z</time></trkpt><trkpt lat="38.0044361" lon="12.8539169"><ele>982.8</ele><time>2026-05-05T14:15:22.565Z</time></trkpt><trkpt lat="38.0044643" lon="12.8540116"><ele>985.4</ele><time>2026-05-05T14:15:23.564Z</time></trkpt><trkpt lat="38.0044632" lon="12.8540998"><ele>988.0</ele><time>2026-05-05T14:15:24.565Z</time></trkpt><trkpt lat="38.0043781" lon="12.8542158"><ele>988.0</ele><time>2026-05-05T14:15:26.564Z</time></trkpt><trkpt lat="38.0042929" lon="12.8542743"><ele>988.0</ele><time>2026-05-05T14:15:27.565Z</time></trkpt><trkpt lat="38.0041951" lon="12.8543262"><ele>988.0</ele><time>2026-05-05T14:15:28.565Z</time></trkpt><trkpt lat="38.0041072" lon="12.854379"><ele>988.0</ele><time>2026-05-05T14:15:29.564Z</time></trkpt><trkpt lat="38.0040165" lon="12.8544345"><ele>988.0</ele><time>2026-05-05T14:15:30.565Z</time></trkpt><trkpt lat="38.0039161" lon="12.854493"><ele>988.3333333333333</ele><time>2026-05-05T14:15:31.565Z</time></trkpt><trkpt lat="38.0038179" lon="12.8545513"><ele>988.6666666666666</ele><time>2026-05-05T14:15:32.566Z</time></trkpt><trkpt lat="38.0037287" lon="12.8546125"><ele>989.0</ele><time>2026-05-05T14:15:33.565Z</time></trkpt><trkpt lat="38.003656" lon="12.8546607"><ele>989.3333333333333</ele><time>2026-05-05T14:15:34.563Z</time></trkpt><trkpt lat="38.0035998" lon="12.8547002"><ele>989.6666666666666</ele><time>2026-05-05T14:15:35.564Z</time></trkpt><trkpt lat="38.0035527" lon="12.8547829"><ele>990.0</ele><time>2026-05-05T14:15:37.564Z</time></trkpt><trkpt lat="38.0035895" lon="12.8548482"><ele>990.0</ele><time>2026-05-05T14:15:39.565Z</time></trkpt><trkpt lat="38.0036861" lon="12.8548669"><ele>990.0</ele><time>2026-05-05T14:15:41.564Z</time></trkpt><trkpt lat="38.0037536" lon="12.8548605"><ele>990.0</ele><time>2026-05-05T14:15:42.564Z</time></trkpt><trkpt lat="38.003839" lon="12.8548504"><ele>990.0</ele><time>2026-05-05T14:15:43.563Z</time></trkpt><trkpt lat="38.0039315" lon="12.8548362"><ele>990.0</ele><time>2026-05-05T14:15:44.565Z</time></trkpt><trkpt lat="38.0040336" lon="12.8548263"><ele>990.0</ele><time>2026-05-05T14:15:45.564Z</time></trkpt><trkpt lat="38.0041406" lon="12.8548238"><ele>992.0</ele><time>2026-05-05T14:15:46.564Z</time></trkpt><trkpt lat="38.0042475" lon="12.8548247"><ele>994.0</ele><time>2026-05-05T14:15:47.565Z</time></trkpt><trkpt lat="38.0043534" lon="12.8548449"><ele>996.0</ele><time>2026-05-05T14:15:48.564Z</time></trkpt><trkpt lat="38.0044595" lon="12.8548817"><ele>998.0</ele><time>2026-05-05T14:15:49.564Z</time></trkpt><trkpt lat="38.0045701" lon="12.8549336"><ele>1000.0</ele><time>2026-05-05T14:15:50.564Z</time></trkpt><trkpt lat="38.0046813" lon="12.854993"><ele>1000.0</ele><time>2026-05-05T14:15:51.564Z</time></trkpt><trkpt lat="38.0047877" lon="12.8550613"><ele>1000.0</ele><time>2026-05-05T14:15:52.564Z</time></trkpt><trkpt lat="38.0048921" lon="12.8551193"><ele>1000.0</ele><time>2026-05-05T14:15:53.565Z</time></trkpt><trkpt lat="38.0049888" lon="12.8551626"><ele>1000.0</ele><time>2026-05-05T14:15:54.564Z</time></trkpt><trkpt lat="38.0050849" lon="12.8551824"><ele>1000.0</ele><time>2026-05-05T14:15:55.564Z</time></trkpt><trkpt lat="38.0051829" lon="12.8551753"><ele>1000.4</ele><time>2026-05-05T14:15:56.564Z</time></trkpt><trkpt lat="38.0052801" lon="12.8551422"><ele>1000.8</ele><time>2026-05-05T14:15:57.564Z</time></trkpt><trkpt lat="38.0053767" lon="12.855095"><ele>1001.2</ele><time>2026-05-05T14:15:58.564Z</time></trkpt><trkpt lat="38.0054761" lon="12.8550332"><ele>1001.6</ele><time>2026-05-05T14:15:59.563Z</time></trkpt><trkpt lat="38.0055762" lon="12.8549577"><ele>1002.0</ele><time>2026-05-05T14:16:00.563Z</time></trkpt><trkpt lat="38.0056697" lon="12.8548764"><ele>1002.0</ele><time>2026-05-05T14:16:01.563Z</time></trkpt><trkpt lat="38.0057612" lon="12.8547974"><ele>1002.0</ele><time>2026-05-05T14:16:02.565Z</time></trkpt><trkpt lat="38.0058405" lon="12.8547382"><ele>1002.0</ele><time>2026-05-05T14:16:03.565Z</time></trkpt><trkpt lat="38.0059144" lon="12.8546987"><ele>1002.0</ele><time>2026-05-05T14:16:04.564Z</time></trkpt><trkpt lat="38.0059868" lon="12.8546901"><ele>1002.0</ele><time>2026-05-05T14:16:05.564Z</time></trkpt><trkpt lat="38.0060535" lon="12.8546896"><ele>1002.0</ele><time>2026-05-05T14:16:06.563Z</time></trkpt><trkpt lat="38.0061022" lon="12.8547453"><ele>1002.2</ele><time>2026-05-05T14:16:08.564Z</time></trkpt><trkpt lat="38.0061115" lon="12.8548422"><ele>1002.4000000000001</ele><time>2026-05-05T14:16:10.564Z</time></trkpt><trkpt lat="38.0061253" lon="12.8549458"><ele>1002.5999999999999</ele><time>2026-05-05T14:16:12.565Z</time></trkpt><trkpt lat="38.0061063" lon="12.8550445"><ele>1002.8</ele><time>2026-05-05T14:16:14.564Z</time></trkpt><trkpt lat="38.0060626" lon="12.8551662"><ele>1003.0</ele><time>2026-05-05T14:16:16.563Z</time></trkpt><trkpt lat="38.0060159" lon="12.8552966"><ele>1003.4</ele><time>2026-05-05T14:16:18.564Z</time></trkpt><trkpt lat="38.0059724" lon="12.8554263"><ele>1003.8</ele><time>2026-05-05T14:16:20.564Z</time></trkpt><trkpt lat="38.0059465" lon="12.855552"><ele>1004.2</ele><time>2026-05-05T14:16:22.564Z</time></trkpt><trkpt lat="38.0059081" lon="12.8556378"><ele>1004.6</ele><time>2026-05-05T14:16:24.564Z</time></trkpt><trkpt lat="38.0058259" lon="12.8556989"><ele>1005.0</ele><time>2026-05-05T14:16:26.563Z</time></trkpt><trkpt lat="38.0057331" lon="12.8557575"><ele>1005.0</ele><time>2026-05-05T14:16:28.563Z</time></trkpt><trkpt lat="38.0056297" lon="12.8558155"><ele>1005.0</ele><time>2026-05-05T14:16:30.564Z</time></trkpt><trkpt lat="38.0055031" lon="12.8558492"><ele>1005.0</ele><time>2026-05-05T14:16:32.565Z</time></trkpt><trkpt lat="38.0054362" lon="12.855857"><ele>1005.0</ele><time>2026-05-05T14:16:33.564Z</time></trkpt><trkpt lat="38.0053718" lon="12.8558607"><ele>1005.0</ele><time>2026-05-05T14:16:34.563Z</time></trkpt><trkpt lat="38.005274" lon="12.855882"><ele>1005.0</ele><time>2026-05-05T14:16:36.564Z</time></trkpt><trkpt lat="38.0051857" lon="12.8558991"><ele>1005.0</ele><time>2026-05-05T14:17:46.564Z</time></trkpt><trkpt lat="38.0050764" lon="12.8559525"><ele>1005.0</ele><time>2026-05-05T14:17:48.564Z</time></trkpt><trkpt lat="38.0050117" lon="12.8559757"><ele>1005.0</ele><time>2026-05-05T14:17:49.563Z</time></trkpt><trkpt lat="38.0049393" lon="12.8559943"><ele>1005.0</ele><time>2026-05-05T14:17:50.564Z</time></trkpt><trkpt lat="38.0048645" lon="12.8560156"><ele>1005.0</ele><time>2026-05-05T14:17:51.566Z</time></trkpt><trkpt lat="38.0047922" lon="12.8560453"><ele>1005.0</ele><time>2026-05-05T14:17:52.564Z</time></trkpt><trkpt lat="38.0047284" lon="12.8560749"><ele>1005.0</ele><time>2026-05-05T14:17:53.564Z</time></trkpt><trkpt lat="38.0046678" lon="12.8561024"><ele>1005.0</ele><time>2026-05-05T14:17:54.564Z</time></trkpt><trkpt lat="38.0045585" lon="12.8561473"><ele>1005.0</ele><time>2026-05-05T14:17:56.564Z</time></trkpt><trkpt lat="38.0044482" lon="12.8561736"><ele>1005.0</ele><time>2026-05-05T14:17:58.563Z</time></trkpt><trkpt lat="38.0043422" lon="12.856201"><ele>1005.0</ele><time>2026-05-05T14:18:00.564Z</time></trkpt><trkpt lat="38.004251" lon="12.8562325"><ele>1005.0</ele><time>2026-05-05T14:18:02.564Z</time></trkpt><trkpt lat="38.0041417" lon="12.856275"><ele>1005.0</ele><time>2026-05-05T14:18:04.564Z</time></trkpt><trkpt lat="38.0040417" lon="12.85632"><ele>1005.0</ele><time>2026-05-05T14:18:06.564Z</time></trkpt><trkpt lat="38.003945" lon="12.856365"><ele>1005.0</ele><time>2026-05-05T14:18:08.565Z</time></trkpt><trkpt lat="38.0038617" lon="12.8564217"><ele>1007.4</ele><time>2026-05-05T14:18:10.565Z</time></trkpt><trkpt lat="38.0038183" lon="12.856525"><ele>1009.8</ele><time>2026-05-05T14:18:12.564Z</time></trkpt><trkpt lat="38.0037883" lon="12.856655"><ele>1012.2</ele><time>2026-05-05T14:18:14.564Z</time></trkpt><trkpt lat="38.0037433" lon="12.8567767"><ele>1014.6</ele><time>2026-05-05T14:18:16.564Z</time></trkpt><trkpt lat="38.0036983" lon="12.856895"><ele>1017.0</ele><time>2026-05-05T14:18:18.564Z</time></trkpt><trkpt lat="38.0036283" lon="12.85699"><ele>1017.0</ele><time>2026-05-05T14:18:20.565Z</time></trkpt><trkpt lat="38.003565" lon="12.8570833"><ele>1017.0</ele><time>2026-05-05T14:18:22.565Z</time></trkpt><trkpt lat="38.0034933" lon="12.8571933"><ele>1017.0</ele><time>2026-05-05T14:18:24.564Z</time></trkpt><trkpt lat="38.0034167" lon="12.8573133"><ele>1017.0</ele><time>2026-05-05T14:18:26.563Z</time></trkpt><trkpt lat="38.00335" lon="12.8574433"><ele>1017.2</ele><time>2026-05-05T14:18:28.564Z</time></trkpt><trkpt lat="38.003275" lon="12.8575583"><ele>1017.4000000000001</ele><time>2026-05-05T14:18:30.563Z</time></trkpt><trkpt lat="38.0031933" lon="12.8576717"><ele>1017.5999999999999</ele><time>2026-05-05T14:18:32.563Z</time></trkpt><trkpt lat="38.0031033" lon="12.857785"><ele>1017.8</ele><time>2026-05-05T14:18:34.564Z</time></trkpt><trkpt lat="38.0030517" lon="12.8578383"><ele>1018.0</ele><time>2026-05-05T14:18:35.562Z</time></trkpt><trkpt lat="38.0029967" lon="12.8578917"><ele>1017.9999999999999</ele><time>2026-05-05T14:18:36.562Z</time></trkpt><trkpt lat="38.0029383" lon="12.85794"><ele>1018.0</ele><time>2026-05-05T14:18:37.564Z</time></trkpt><trkpt lat="38.0028817" lon="12.857985"><ele>1018.0</ele><time>2026-05-05T14:18:38.564Z</time></trkpt><trkpt lat="38.002825" lon="12.85802"><ele>1018.0</ele><time>2026-05-05T14:18:39.564Z</time></trkpt><trkpt lat="38.0027117" lon="12.858075"><ele>1017.9999999999999</ele><time>2026-05-05T14:18:41.564Z</time></trkpt><trkpt lat="38.0025917" lon="12.8581183"><ele>1018.0</ele><time>2026-05-05T14:18:43.563Z</time></trkpt><trkpt lat="38.0024867" lon="12.8581633"><ele>1022.4</ele><time>2026-05-05T14:18:45.563Z</time></trkpt><trkpt lat="38.0023767" lon="12.8582283"><ele>1026.8</ele><time>2026-05-05T14:18:47.563Z</time></trkpt><trkpt lat="38.0023233" lon="12.8582733"><ele>1031.2</ele><time>2026-05-05T14:18:48.563Z</time></trkpt><trkpt lat="38.002245" lon="12.85839"><ele>1035.6</ele><time>2026-05-05T14:18:50.564Z</time></trkpt><trkpt lat="38.0021933" lon="12.8585133"><ele>1040.0</ele><time>2026-05-05T14:18:52.564Z</time></trkpt><trkpt lat="38.0021517" lon="12.8586033"><ele>1040.0</ele><time>2026-05-05T14:18:54.564Z</time></trkpt><trkpt lat="38.0021283" lon="12.858525"><ele>1040.0</ele><time>2026-05-05T14:18:57.564Z</time></trkpt><trkpt lat="38.00215" lon="12.8584333"><ele>1040.0</ele><time>2026-05-05T14:18:58.564Z</time></trkpt><trkpt lat="38.0021717" lon="12.8583467"><ele>1040.0</ele><time>2026-05-05T14:18:59.564Z</time></trkpt><trkpt lat="38.002215" lon="12.8582017"><ele>1040.0</ele><time>2026-05-05T14:19:01.564Z</time></trkpt><trkpt lat="38.0022633" lon="12.85806"><ele>1040.0</ele><time>2026-05-05T14:19:03.565Z</time></trkpt><trkpt lat="38.0023083" lon="12.8579283"><ele>1040.0</ele><time>2026-05-05T14:19:05.565Z</time></trkpt><trkpt lat="38.00233" lon="12.8578017"><ele>1040.0</ele><time>2026-05-05T14:19:07.564Z</time></trkpt><trkpt lat="38.0023067" lon="12.8576833"><ele>1040.0</ele><time>2026-05-05T14:19:09.563Z</time></trkpt><trkpt lat="38.00224" lon="12.857625"><ele>1040.0</ele><time>2026-05-05T14:19:11.564Z</time></trkpt><trkpt lat="38.0021617" lon="12.857605"><ele>1040.0</ele><time>2026-05-05T14:19:13.563Z</time></trkpt><trkpt lat="38.0020767" lon="12.8576217"><ele>1040.0</ele><time>2026-05-05T14:19:15.564Z</time></trkpt><trkpt lat="38.001995" lon="12.8576767"><ele>1040.0</ele><time>2026-05-05T14:19:17.564Z</time></trkpt><trkpt lat="38.0019683" lon="12.8577717"><ele>1040.0</ele><time>2026-05-05T14:19:19.564Z</time></trkpt><trkpt lat="38.0019617" lon="12.8578733"><ele>1040.0</ele><time>2026-05-05T14:19:21.564Z</time></trkpt><trkpt lat="38.0019167" lon="12.857965"><ele>1040.0</ele><time>2026-05-05T14:19:23.563Z</time></trkpt><trkpt lat="38.0018517" lon="12.8580717"><ele>1040.0</ele><time>2026-05-05T14:19:25.564Z</time></trkpt><trkpt lat="38.0018" lon="12.85819"><ele>1040.0</ele><time>2026-05-05T14:19:27.564Z</time></trkpt><trkpt lat="38.0017567" lon="12.858315"><ele>1040.0</ele><time>2026-05-05T14:19:29.564Z</time></trkpt><trkpt lat="38.0017233" lon="12.8584517"><ele>1040.0</ele><time>2026-05-05T14:19:31.564Z</time></trkpt><trkpt lat="38.0017133" lon="12.8585917"><ele>1040.0</ele><time>2026-05-05T14:19:33.564Z</time></trkpt><trkpt lat="38.0017267" lon="12.8587067"><ele>1040.3333333333335</ele><time>2026-05-05T14:19:35.564Z</time></trkpt><trkpt lat="38.0017117" lon="12.8587983"><ele>1040.6666666666667</ele><time>2026-05-05T14:19:37.563Z</time></trkpt><trkpt lat="38.00164" lon="12.8587733"><ele>1041.0</ele><time>2026-05-05T14:19:40.564Z</time></trkpt><trkpt lat="38.0015924" lon="12.8586417"><ele>1041.3333333333333</ele><time>2026-05-05T14:19:43.564Z</time></trkpt><trkpt lat="38.001564" lon="12.8585702"><ele>1041.6666666666665</ele><time>2026-05-05T14:19:44.563Z</time></trkpt><trkpt lat="38.0015021" lon="12.8584635"><ele>1042.0</ele><time>2026-05-05T14:19:46.563Z</time></trkpt><trkpt lat="38.0014153" lon="12.8584178"><ele>1042.0</ele><time>2026-05-05T14:19:48.564Z</time></trkpt><trkpt lat="38.0013189" lon="12.8584439"><ele>1042.0</ele><time>2026-05-05T14:19:50.564Z</time></trkpt><trkpt lat="38.0012151" lon="12.8584904"><ele>1042.0</ele><time>2026-05-05T14:19:52.565Z</time></trkpt><trkpt lat="38.0011212" lon="12.8585518"><ele>1042.0</ele><time>2026-05-05T14:19:54.564Z</time></trkpt><trkpt lat="38.0010484" lon="12.8586305"><ele>1042.0</ele><time>2026-05-05T14:19:56.564Z</time></trkpt><trkpt lat="38.000994" lon="12.8587376"><ele>1044.6</ele><time>2026-05-05T14:19:58.564Z</time></trkpt><trkpt lat="38.000957" lon="12.8588624"><ele>1047.2</ele><time>2026-05-05T14:20:00.564Z</time></trkpt><trkpt lat="38.000935" lon="12.8589917"><ele>1049.8</ele><time>2026-05-05T14:20:02.565Z</time></trkpt><trkpt lat="38.0009383" lon="12.8591233"><ele>1052.4</ele><time>2026-05-05T14:20:04.564Z</time></trkpt><trkpt lat="38.0009767" lon="12.859215"><ele>1055.0</ele><time>2026-05-05T14:20:06.564Z</time></trkpt><trkpt lat="38.00103" lon="12.8592817"><ele>1055.0</ele><time>2026-05-05T14:20:08.563Z</time></trkpt><trkpt lat="38.0010833" lon="12.8592383"><ele>1055.0</ele><time>2026-05-05T14:20:11.564Z</time></trkpt><trkpt lat="38.001035" lon="12.8591733"><ele>1055.0</ele><time>2026-05-05T14:35:33.563Z</time></trkpt><trkpt lat="38.001035" lon="12.8591733"><ele>1055.0</ele><time>2026-05-05T14:35:33.563Z</time></trkpt><trkpt lat="38.0009833" lon="12.8591117"><ele>1055.0</ele><time>2026-05-05T14:35:35.565Z</time></trkpt><trkpt lat="38.0009683" lon="12.8590067"><ele>1055.0</ele><time>2026-05-05T14:35:38.564Z</time></trkpt><trkpt lat="38.0009817" lon="12.8588433"><ele>1055.0</ele><time>2026-05-05T14:35:48.563Z</time></trkpt><trkpt lat="38.0010117" lon="12.858745"><ele>1055.0</ele><time>2026-05-05T14:35:50.565Z</time></trkpt><trkpt lat="38.0010567" lon="12.85865"><ele>1055.0</ele><time>2026-05-05T14:35:52.564Z</time></trkpt><trkpt lat="38.00112" lon="12.858565"><ele>1055.0</ele><time>2026-05-05T14:35:54.564Z</time></trkpt><trkpt lat="38.0012017" lon="12.8585"><ele>1055.0</ele><time>2026-05-05T14:35:56.565Z</time></trkpt><trkpt lat="38.0012967" lon="12.8584567"><ele>1055.0</ele><time>2026-05-05T14:35:58.563Z</time></trkpt><trkpt lat="38.00139" lon="12.8584267"><ele>1055.0</ele><time>2026-05-05T14:36:00.564Z</time></trkpt><trkpt lat="38.0014717" lon="12.8584367"><ele>1055.0</ele><time>2026-05-05T14:36:02.565Z</time></trkpt><trkpt lat="38.0015283" lon="12.858485"><ele>1055.0</ele><time>2026-05-05T14:36:04.563Z</time></trkpt><trkpt lat="38.0015648" lon="12.8585542"><ele>1055.0</ele><time>2026-05-05T14:36:06.564Z</time></trkpt><trkpt lat="38.0015976" lon="12.8586343"><ele>1055.0</ele><time>2026-05-05T14:36:08.564Z</time></trkpt><trkpt lat="38.0016325" lon="12.8587707"><ele>1055.0</ele><time>2026-05-05T14:36:10.565Z</time></trkpt><trkpt lat="38.0016972" lon="12.858826"><ele>1053.0</ele><time>2026-05-05T14:36:13.564Z</time></trkpt><trkpt lat="38.0017555" lon="12.8587604"><ele>1051.0</ele><time>2026-05-05T14:36:15.639Z</time></trkpt><trkpt lat="38.0017239" lon="12.8586472"><ele>1049.0</ele><time>2026-05-05T14:36:17.602Z</time></trkpt><trkpt lat="38.0017278" lon="12.8585147"><ele>1047.0</ele><time>2026-05-05T14:36:19.564Z</time></trkpt><trkpt lat="38.0017485" lon="12.8584315"><ele>1045.0</ele><time>2026-05-05T14:36:20.565Z</time></trkpt><trkpt lat="38.0017699" lon="12.8583533"><ele>1043.0</ele><time>2026-05-05T14:36:21.564Z</time></trkpt><trkpt lat="38.001795" lon="12.858278"><ele>1042.5</ele><time>2026-05-05T14:36:22.566Z</time></trkpt><trkpt lat="38.0018252" lon="12.8581979"><ele>1042.0</ele><time>2026-05-05T14:36:23.566Z</time></trkpt><trkpt lat="38.0018577" lon="12.8581193"><ele>1041.5</ele><time>2026-05-05T14:36:24.565Z</time></trkpt><trkpt lat="38.0018936" lon="12.8580492"><ele>1041.0</ele><time>2026-05-05T14:36:25.565Z</time></trkpt><trkpt lat="38.0019322" lon="12.857986"><ele>1040.5</ele><time>2026-05-05T14:36:26.564Z</time></trkpt><trkpt lat="38.0019899" lon="12.857865"><ele>1040.0</ele><time>2026-05-05T14:36:28.564Z</time></trkpt><trkpt lat="38.0019914" lon="12.8577523"><ele>1040.0</ele><time>2026-05-05T14:36:30.564Z</time></trkpt><trkpt lat="38.0020078" lon="12.8576541"><ele>1040.0</ele><time>2026-05-05T14:36:32.565Z</time></trkpt><trkpt lat="38.0020735" lon="12.8575894"><ele>1040.0</ele><time>2026-05-05T14:36:34.563Z</time></trkpt><trkpt lat="38.002182" lon="12.8575848"><ele>1040.0</ele><time>2026-05-05T14:36:36.564Z</time></trkpt><trkpt lat="38.0022772" lon="12.8576294"><ele>1040.0</ele><time>2026-05-05T14:36:38.565Z</time></trkpt><trkpt lat="38.0023239" lon="12.8577059"><ele>1040.0</ele><time>2026-05-05T14:36:40.564Z</time></trkpt><trkpt lat="38.0023043" lon="12.8578303"><ele>1040.0</ele><time>2026-05-05T14:36:42.564Z</time></trkpt><trkpt lat="38.0022478" lon="12.8579627"><ele>1040.0</ele><time>2026-05-05T14:36:44.565Z</time></trkpt><trkpt lat="38.00219" lon="12.8580851"><ele>1040.0</ele><time>2026-05-05T14:36:46.564Z</time></trkpt><trkpt lat="38.0021402" lon="12.8582128"><ele>1040.0</ele><time>2026-05-05T14:36:48.564Z</time></trkpt><trkpt lat="38.0021076" lon="12.8583417"><ele>1040.0</ele><time>2026-05-05T14:36:50.565Z</time></trkpt><trkpt lat="38.0020832" lon="12.8584563"><ele>1040.0</ele><time>2026-05-05T14:36:52.563Z</time></trkpt><trkpt lat="38.0020968" lon="12.8585573"><ele>1040.0</ele><time>2026-05-05T14:36:54.564Z</time></trkpt><trkpt lat="38.0021841" lon="12.8585501"><ele>1040.0</ele><time>2026-05-05T14:36:57.565Z</time></trkpt><trkpt lat="38.0022431" lon="12.8584335"><ele>1040.0</ele><time>2026-05-05T14:36:59.564Z</time></trkpt><trkpt lat="38.0022841" lon="12.8583606"><ele>1040.0</ele><time>2026-05-05T14:37:00.564Z</time></trkpt><trkpt lat="38.002335" lon="12.8582969"><ele>1040.0000000000002</ele><time>2026-05-05T14:37:01.563Z</time></trkpt><trkpt lat="38.0023968" lon="12.858242"><ele>1040.0</ele><time>2026-05-05T14:37:02.565Z</time></trkpt><trkpt lat="38.0024561" lon="12.8581989"><ele>1040.0</ele><time>2026-05-05T14:37:03.565Z</time></trkpt><trkpt lat="38.0025165" lon="12.8581635"><ele>1040.0</ele><time>2026-05-05T14:37:04.563Z</time></trkpt><trkpt lat="38.0025799" lon="12.8581313"><ele>1040.0</ele><time>2026-05-05T14:37:05.564Z</time></trkpt><trkpt lat="38.0026438" lon="12.8581035"><ele>1040.0000000000002</ele><time>2026-05-05T14:37:06.564Z</time></trkpt><trkpt lat="38.0027115" lon="12.8580735"><ele>1040.0</ele><time>2026-05-05T14:37:07.564Z</time></trkpt><trkpt lat="38.002779" lon="12.8580382"><ele>1036.3333333333335</ele><time>2026-05-05T14:37:08.564Z</time></trkpt><trkpt lat="38.0028474" lon="12.8579929"><ele>1032.6666666666667</ele><time>2026-05-05T14:37:09.566Z</time></trkpt><trkpt lat="38.0029146" lon="12.8579416"><ele>1029.0</ele><time>2026-05-05T14:37:10.565Z</time></trkpt><trkpt lat="38.0029785" lon="12.8578851"><ele>1025.3333333333333</ele><time>2026-05-05T14:37:11.564Z</time></trkpt><trkpt lat="38.0030388" lon="12.8578246"><ele>1021.6666666666666</ele><time>2026-05-05T14:37:12.564Z</time></trkpt><trkpt lat="38.0030956" lon="12.8577581"><ele>1018.0</ele><time>2026-05-05T14:37:13.563Z</time></trkpt><trkpt lat="38.0031485" lon="12.8576863"><ele>1017.8333333333333</ele><time>2026-05-05T14:37:14.567Z</time></trkpt><trkpt lat="38.0032022" lon="12.8576095"><ele>1017.6666666666666</ele><time>2026-05-05T14:37:15.563Z</time></trkpt><trkpt lat="38.0032558" lon="12.857532"><ele>1017.5</ele><time>2026-05-05T14:37:16.564Z</time></trkpt><trkpt lat="38.0033033" lon="12.8574583"><ele>1017.3333333333333</ele><time>2026-05-05T14:37:17.566Z</time></trkpt><trkpt lat="38.0033433" lon="12.8573817"><ele>1017.1666666666666</ele><time>2026-05-05T14:37:18.565Z</time></trkpt><trkpt lat="38.0033867" lon="12.8572983"><ele>1017.0</ele><time>2026-05-05T14:37:19.564Z</time></trkpt><trkpt lat="38.0034317" lon="12.8572183"><ele>1017.0</ele><time>2026-05-05T14:37:20.565Z</time></trkpt><trkpt lat="38.0034817" lon="12.8571467"><ele>1017.0</ele><time>2026-05-05T14:37:21.564Z</time></trkpt><trkpt lat="38.00353" lon="12.8570883"><ele>1017.0</ele><time>2026-05-05T14:37:22.565Z</time></trkpt><trkpt lat="38.003605" lon="12.8569783"><ele>1017.0</ele><time>2026-05-05T14:37:24.563Z</time></trkpt><trkpt lat="38.0036483" lon="12.85692"><ele>1017.0</ele><time>2026-05-05T14:37:25.563Z</time></trkpt><trkpt lat="38.0037117" lon="12.8567933"><ele>1017.0</ele><time>2026-05-05T14:37:27.564Z</time></trkpt><trkpt lat="38.00374" lon="12.8567133"><ele>1017.5</ele><time>2026-05-05T14:37:28.564Z</time></trkpt><trkpt lat="38.0037683" lon="12.8566317"><ele>1018.0</ele><time>2026-05-05T14:37:29.564Z</time></trkpt><trkpt lat="38.0037967" lon="12.8565483"><ele>1018.5</ele><time>2026-05-05T14:37:30.565Z</time></trkpt><trkpt lat="38.0038333" lon="12.856475"><ele>1019.0</ele><time>2026-05-05T14:37:31.564Z</time></trkpt><trkpt lat="38.0039167" lon="12.8563833"><ele>1019.5</ele><time>2026-05-05T14:37:33.565Z</time></trkpt><trkpt lat="38.0040067" lon="12.8563367"><ele>1020.0</ele><time>2026-05-05T14:37:35.564Z</time></trkpt><trkpt lat="38.0040833" lon="12.8562917"><ele>1017.0</ele><time>2026-05-05T14:37:37.564Z</time></trkpt><trkpt lat="38.0041817" lon="12.8562383"><ele>1014.0</ele><time>2026-05-05T14:37:39.564Z</time></trkpt><trkpt lat="38.0042717" lon="12.8561967"><ele>1011.0</ele><time>2026-05-05T14:37:41.564Z</time></trkpt><trkpt lat="38.0043617" lon="12.856155"><ele>1008.0</ele><time>2026-05-05T14:37:43.564Z</time></trkpt><trkpt lat="38.0044583" lon="12.8561317"><ele>1005.0</ele><time>2026-05-05T14:37:45.564Z</time></trkpt><trkpt lat="38.0045467" lon="12.8561083"><ele>1005.0</ele><time>2026-05-05T14:37:47.565Z</time></trkpt><trkpt lat="38.0046433" lon="12.856065"><ele>1005.0</ele><time>2026-05-05T14:37:49.565Z</time></trkpt><trkpt lat="38.0047283" lon="12.8560367"><ele>1005.0</ele><time>2026-05-05T14:37:51.564Z</time></trkpt><trkpt lat="38.0047983" lon="12.856015"><ele>1005.0</ele><time>2026-05-05T14:37:53.564Z</time></trkpt><trkpt lat="38.0048683" lon="12.8559867"><ele>1005.0</ele><time>2026-05-05T14:37:55.563Z</time></trkpt><trkpt lat="38.004945" lon="12.855945"><ele>1005.0</ele><time>2026-05-05T14:37:57.565Z</time></trkpt><trkpt lat="38.00504" lon="12.8558983"><ele>1005.0</ele><time>2026-05-05T14:37:59.566Z</time></trkpt><trkpt lat="38.0051567" lon="12.8558533"><ele>1005.0</ele><time>2026-05-05T14:38:01.564Z</time></trkpt><trkpt lat="38.005225" lon="12.85584"><ele>1005.0</ele><time>2026-05-05T14:38:02.565Z</time></trkpt><trkpt lat="38.00535" lon="12.855835"><ele>1005.0</ele><time>2026-05-05T14:38:04.565Z</time></trkpt><trkpt lat="38.005415" lon="12.8558267"><ele>1005.0</ele><time>2026-05-05T14:38:05.565Z</time></trkpt><trkpt lat="38.00548" lon="12.8558183"><ele>1005.0</ele><time>2026-05-05T14:38:06.563Z</time></trkpt><trkpt lat="38.0055467" lon="12.855805"><ele>1005.0</ele><time>2026-05-05T14:38:07.563Z</time></trkpt><trkpt lat="38.00565" lon="12.8557767"><ele>1005.0</ele><time>2026-05-05T14:38:09.564Z</time></trkpt><trkpt lat="38.0057217" lon="12.8557367"><ele>1005.0</ele><time>2026-05-05T14:38:11.564Z</time></trkpt><trkpt lat="38.00581" lon="12.855675"><ele>1005.0</ele><time>2026-05-05T14:38:13.564Z</time></trkpt><trkpt lat="38.0058533" lon="12.8555533"><ele>1005.0</ele><time>2026-05-05T14:38:15.564Z</time></trkpt><trkpt lat="38.0058817" lon="12.85547"><ele>1005.0</ele><time>2026-05-05T14:38:16.564Z</time></trkpt><trkpt lat="38.0059167" lon="12.8553833"><ele>1005.0</ele><time>2026-05-05T14:38:17.565Z</time></trkpt><trkpt lat="38.00595" lon="12.8553067"><ele>1005.0</ele><time>2026-05-05T14:38:18.564Z</time></trkpt><trkpt lat="38.0060033" lon="12.85517"><ele>1005.0</ele><time>2026-05-05T14:38:20.565Z</time></trkpt><trkpt lat="38.0060317" lon="12.8550617"><ele>1005.0</ele><time>2026-05-05T14:38:22.564Z</time></trkpt><trkpt lat="38.0060333" lon="12.8549633"><ele>1005.0</ele><time>2026-05-05T14:38:24.564Z</time></trkpt><trkpt lat="38.0060117" lon="12.8548867"><ele>1004.6666666666666</ele><time>2026-05-05T14:38:26.564Z</time></trkpt><trkpt lat="38.00599" lon="12.8548067"><ele>1004.3333333333333</ele><time>2026-05-05T14:38:28.563Z</time></trkpt><trkpt lat="38.00596" lon="12.85473"><ele>1004.0</ele><time>2026-05-05T14:38:31.564Z</time></trkpt><trkpt lat="38.00603" lon="12.8547683"><ele>1003.6666666666666</ele><time>2026-05-05T14:38:56.564Z</time></trkpt><trkpt lat="38.006075" lon="12.8548617"><ele>1003.3333333333333</ele><time>2026-05-05T14:38:58.564Z</time></trkpt><trkpt lat="38.0060917" lon="12.8549967"><ele>1003.0</ele><time>2026-05-05T14:39:00.564Z</time></trkpt><trkpt lat="38.0060983" lon="12.8550817"><ele>1003.3333333333333</ele><time>2026-05-05T14:39:01.565Z</time></trkpt><trkpt lat="38.0061083" lon="12.8551767"><ele>1003.6666666666666</ele><time>2026-05-05T14:39:02.564Z</time></trkpt><trkpt lat="38.0061167" lon="12.85528"><ele>1004.0</ele><time>2026-05-05T14:39:03.564Z</time></trkpt><trkpt lat="38.0061317" lon="12.8553833"><ele>1004.3333333333333</ele><time>2026-05-05T14:39:04.564Z</time></trkpt><trkpt lat="38.0061467" lon="12.8554917"><ele>1004.6666666666666</ele><time>2026-05-05T14:39:05.564Z</time></trkpt><trkpt lat="38.0061533" lon="12.85559"><ele>1005.0</ele><time>2026-05-05T14:39:06.564Z</time></trkpt><trkpt lat="38.006155" lon="12.855685"><ele>1005.0000000000001</ele><time>2026-05-05T14:39:07.565Z</time></trkpt><trkpt lat="38.0061483" lon="12.85577"><ele>1005.0</ele><time>2026-05-05T14:39:08.565Z</time></trkpt><trkpt lat="38.006135" lon="12.8558583"><ele>1005.0000000000001</ele><time>2026-05-05T14:39:09.565Z</time></trkpt><trkpt lat="38.00611" lon="12.85594"><ele>1005.0000000000001</ele><time>2026-05-05T14:39:10.565Z</time></trkpt><trkpt lat="38.0060767" lon="12.8560233"><ele>1005.0</ele><time>2026-05-05T14:39:11.564Z</time></trkpt><trkpt lat="38.0060367" lon="12.85611"><ele>1005.0000000000001</ele><time>2026-05-05T14:39:12.563Z</time></trkpt><trkpt lat="38.0059933" lon="12.8561967"><ele>1005.0000000000001</ele><time>2026-05-05T14:39:13.564Z</time></trkpt><trkpt lat="38.0059417" lon="12.8562717"><ele>1003.8</ele><time>2026-05-05T14:39:14.565Z</time></trkpt><trkpt lat="38.005895" lon="12.856345"><ele>1002.6</ele><time>2026-05-05T14:39:15.564Z</time></trkpt><trkpt lat="38.0058533" lon="12.8564167"><ele>1001.4000000000001</ele><time>2026-05-05T14:39:16.564Z</time></trkpt><trkpt lat="38.0058083" lon="12.8565533"><ele>1000.2</ele><time>2026-05-05T14:39:18.564Z</time></trkpt><trkpt lat="38.0058433" lon="12.8566433"><ele>999.0</ele><time>2026-05-05T14:39:20.564Z</time></trkpt><trkpt lat="38.005965" lon="12.85666"><ele>998.8333333333334</ele><time>2026-05-05T14:39:22.563Z</time></trkpt><trkpt lat="38.00603" lon="12.8566683"><ele>998.6666666666667</ele><time>2026-05-05T14:39:23.565Z</time></trkpt><trkpt lat="38.0060933" lon="12.856675"><ele>998.5</ele><time>2026-05-05T14:39:24.564Z</time></trkpt><trkpt lat="38.0061783" lon="12.8567117"><ele>998.3333333333334</ele><time>2026-05-05T14:39:26.565Z</time></trkpt><trkpt lat="38.0062083" lon="12.85681"><ele>998.1666666666667</ele><time>2026-05-05T14:39:28.564Z</time></trkpt><trkpt lat="38.0061833" lon="12.8569483"><ele>998.0</ele><time>2026-05-05T14:39:30.565Z</time></trkpt><trkpt lat="38.0061467" lon="12.857025"><ele>996.8333333333334</ele><time>2026-05-05T14:39:31.564Z</time></trkpt><trkpt lat="38.00611" lon="12.85711"><ele>995.6666666666667</ele><time>2026-05-05T14:39:32.564Z</time></trkpt><trkpt lat="38.006075" lon="12.8571783"><ele>994.5</ele><time>2026-05-05T14:39:33.565Z</time></trkpt><trkpt lat="38.006" lon="12.85728"><ele>993.3333333333333</ele><time>2026-05-05T14:39:35.564Z</time></trkpt><trkpt lat="38.0059" lon="12.8573517"><ele>992.1666666666666</ele><time>2026-05-05T14:39:37.565Z</time></trkpt><trkpt lat="38.005835" lon="12.8573633"><ele>991.0</ele><time>2026-05-05T14:39:38.564Z</time></trkpt><trkpt lat="38.0057633" lon="12.8573567"><ele>989.6666666666666</ele><time>2026-05-05T14:39:39.565Z</time></trkpt><trkpt lat="38.0056817" lon="12.8573433"><ele>988.3333333333333</ele><time>2026-05-05T14:39:40.565Z</time></trkpt><trkpt lat="38.005595" lon="12.8573267"><ele>987.0</ele><time>2026-05-05T14:39:41.564Z</time></trkpt><trkpt lat="38.00551" lon="12.85731"><ele>985.6666666666667</ele><time>2026-05-05T14:39:42.563Z</time></trkpt><trkpt lat="38.005425" lon="12.857295"><ele>984.3333333333334</ele><time>2026-05-05T14:39:43.564Z</time></trkpt><trkpt lat="38.005345" lon="12.857285"><ele>983.0</ele><time>2026-05-05T14:39:44.565Z</time></trkpt><trkpt lat="38.0052717" lon="12.8572933"><ele>983.0000000000001</ele><time>2026-05-05T14:39:45.564Z</time></trkpt><trkpt lat="38.0051983" lon="12.85731"><ele>983.0</ele><time>2026-05-05T14:39:46.564Z</time></trkpt><trkpt lat="38.0051217" lon="12.8573467"><ele>983.0</ele><time>2026-05-05T14:39:47.563Z</time></trkpt><trkpt lat="38.0050383" lon="12.8573883"><ele>983.0</ele><time>2026-05-05T14:39:48.564Z</time></trkpt><trkpt lat="38.0049583" lon="12.8574317"><ele>983.0000000000001</ele><time>2026-05-05T14:39:49.563Z</time></trkpt><trkpt lat="38.00489" lon="12.8574683"><ele>983.0</ele><time>2026-05-05T14:39:50.565Z</time></trkpt><trkpt lat="38.0048233" lon="12.85749"><ele>983.2857142857142</ele><time>2026-05-05T14:39:51.564Z</time></trkpt><trkpt lat="38.0047533" lon="12.8575117"><ele>983.5714285714286</ele><time>2026-05-05T14:39:52.565Z</time></trkpt><trkpt lat="38.00468" lon="12.8575367"><ele>983.8571428571429</ele><time>2026-05-05T14:39:53.565Z</time></trkpt><trkpt lat="38.004605" lon="12.857555"><ele>984.1428571428571</ele><time>2026-05-05T14:39:54.564Z</time></trkpt><trkpt lat="38.0045317" lon="12.8575767"><ele>984.4285714285716</ele><time>2026-05-05T14:39:55.566Z</time></trkpt><trkpt lat="38.004465" lon="12.85761"><ele>984.7142857142858</ele><time>2026-05-05T14:39:56.565Z</time></trkpt><trkpt lat="38.0044083" lon="12.857655"><ele>985.0</ele><time>2026-05-05T14:39:57.564Z</time></trkpt><trkpt lat="38.004365" lon="12.8577133"><ele>984.9999999999999</ele><time>2026-05-05T14:39:58.565Z</time></trkpt><trkpt lat="38.00432" lon="12.8578583"><ele>985.0</ele><time>2026-05-05T14:40:00.564Z</time></trkpt><trkpt lat="38.004315" lon="12.8579533"><ele>985.0</ele><time>2026-05-05T14:40:01.566Z</time></trkpt><trkpt lat="38.0043183" lon="12.8580467"><ele>985.0</ele><time>2026-05-05T14:40:02.564Z</time></trkpt><trkpt lat="38.004315" lon="12.8581467"><ele>984.9999999999999</ele><time>2026-05-05T14:40:03.564Z</time></trkpt><trkpt lat="38.0043133" lon="12.8582467"><ele>985.0</ele><time>2026-05-05T14:40:04.564Z</time></trkpt><trkpt lat="38.0043083" lon="12.8583417"><ele>984.9999999999999</ele><time>2026-05-05T14:40:05.564Z</time></trkpt><trkpt lat="38.0042983" lon="12.85845"><ele>985.0</ele><time>2026-05-05T14:40:06.564Z</time></trkpt><trkpt lat="38.0042717" lon="12.8585633"><ele>985.0</ele><time>2026-05-05T14:40:07.564Z</time></trkpt><trkpt lat="38.004235" lon="12.8586717"><ele>985.0</ele><time>2026-05-05T14:40:08.564Z</time></trkpt><trkpt lat="38.0041933" lon="12.8587617"><ele>984.9999999999999</ele><time>2026-05-05T14:40:09.564Z</time></trkpt><trkpt lat="38.004155" lon="12.8588433"><ele>985.0</ele><time>2026-05-05T14:40:10.565Z</time></trkpt><trkpt lat="38.0041133" lon="12.8589133"><ele>984.6666666666666</ele><time>2026-05-05T14:40:11.565Z</time></trkpt><trkpt lat="38.0040683" lon="12.8589717"><ele>984.3333333333333</ele><time>2026-05-05T14:40:12.566Z</time></trkpt><trkpt lat="38.004005" lon="12.8590267"><ele>984.0</ele><time>2026-05-05T14:40:13.565Z</time></trkpt><trkpt lat="38.0039267" lon="12.8590767"><ele>983.6666666666667</ele><time>2026-05-05T14:40:14.566Z</time></trkpt><trkpt lat="38.0038517" lon="12.8591267"><ele>983.3333333333334</ele><time>2026-05-05T14:40:15.565Z</time></trkpt><trkpt lat="38.0037733" lon="12.8591683"><ele>983.0</ele><time>2026-05-05T14:40:16.564Z</time></trkpt><trkpt lat="38.003695" lon="12.85921"><ele>983.0000000000001</ele><time>2026-05-05T14:40:17.565Z</time></trkpt><trkpt lat="38.0036167" lon="12.8592683"><ele>983.0</ele><time>2026-05-05T14:40:18.565Z</time></trkpt><trkpt lat="38.0035517" lon="12.8593183"><ele>983.0</ele><time>2026-05-05T14:40:19.565Z</time></trkpt><trkpt lat="38.0034917" lon="12.8594367"><ele>983.0</ele><time>2026-05-05T14:40:21.565Z</time></trkpt><trkpt lat="38.0035183" lon="12.8595617"><ele>983.0000000000001</ele><time>2026-05-05T14:40:23.564Z</time></trkpt><trkpt lat="38.00356" lon="12.8596317"><ele>983.0</ele><time>2026-05-05T14:40:24.564Z</time></trkpt><trkpt lat="38.0036" lon="12.8597183"><ele>982.0000000000001</ele><time>2026-05-05T14:40:25.565Z</time></trkpt><trkpt lat="38.0036283" lon="12.85981"><ele>981.0</ele><time>2026-05-05T14:40:26.566Z</time></trkpt><trkpt lat="38.0036417" lon="12.8599017"><ele>980.0</ele><time>2026-05-05T14:40:27.566Z</time></trkpt><trkpt lat="38.0036467" lon="12.8600033"><ele>979.0</ele><time>2026-05-05T14:40:28.564Z</time></trkpt><trkpt lat="38.0036383" lon="12.8601017"><ele>978.0000000000001</ele><time>2026-05-05T14:40:29.564Z</time></trkpt><trkpt lat="38.0036317" lon="12.8602"><ele>977.0</ele><time>2026-05-05T14:40:30.566Z</time></trkpt><trkpt lat="38.003625" lon="12.860305"><ele>977.0</ele><time>2026-05-05T14:40:31.565Z</time></trkpt><trkpt lat="38.0036083" lon="12.8604033"><ele>977.0</ele><time>2026-05-05T14:40:32.565Z</time></trkpt><trkpt lat="38.003595" lon="12.8605017"><ele>977.0</ele><time>2026-05-05T14:40:33.565Z</time></trkpt><trkpt lat="38.0035883" lon="12.8605967"><ele>977.0</ele><time>2026-05-05T14:40:34.565Z</time></trkpt><trkpt lat="38.003625" lon="12.8607283"><ele>977.0</ele><time>2026-05-05T14:40:36.566Z</time></trkpt><trkpt lat="38.0037483" lon="12.86071"><ele>977.0000000000001</ele><time>2026-05-05T14:40:38.566Z</time></trkpt><trkpt lat="38.0038167" lon="12.8606717"><ele>977.0</ele><time>2026-05-05T14:40:39.564Z</time></trkpt><trkpt lat="38.0039133" lon="12.8605633"><ele>977.0</ele><time>2026-05-05T14:40:41.565Z</time></trkpt><trkpt lat="38.0039433" lon="12.8604733"><ele>977.0</ele><time>2026-05-05T14:40:42.566Z</time></trkpt><trkpt lat="38.0039567" lon="12.8603733"><ele>977.0000000000001</ele><time>2026-05-05T14:40:43.566Z</time></trkpt><trkpt lat="38.00397" lon="12.8602683"><ele>977.0</ele><time>2026-05-05T14:40:44.566Z</time></trkpt><trkpt lat="38.00399" lon="12.8601367"><ele>977.0000000000001</ele><time>2026-05-05T14:40:45.564Z</time></trkpt><trkpt lat="38.0040067" lon="12.860035"><ele>977.0</ele><time>2026-05-05T14:40:46.565Z</time></trkpt><trkpt lat="38.0040317" lon="12.8599417"><ele>977.0</ele><time>2026-05-05T14:40:47.566Z</time></trkpt><trkpt lat="38.004075" lon="12.85987"><ele>977.0</ele><time>2026-05-05T14:40:48.566Z</time></trkpt><trkpt lat="38.0041233" lon="12.8598133"><ele>977.0000000000001</ele><time>2026-05-05T14:40:49.565Z</time></trkpt><trkpt lat="38.0041967" lon="12.8597583"><ele>977.0</ele><time>2026-05-05T14:40:50.566Z</time></trkpt><trkpt lat="38.004295" lon="12.8597217"><ele>975.6666666666667</ele><time>2026-05-05T14:40:51.565Z</time></trkpt><trkpt lat="38.004375" lon="12.8596767"><ele>974.3333333333334</ele><time>2026-05-05T14:40:52.564Z</time></trkpt><trkpt lat="38.0044517" lon="12.8596417"><ele>973.0</ele><time>2026-05-05T14:40:53.564Z</time></trkpt><trkpt lat="38.0045233" lon="12.8596017"><ele>971.6666666666667</ele><time>2026-05-05T14:40:54.566Z</time></trkpt><trkpt lat="38.004595" lon="12.8595817"><ele>970.3333333333334</ele><time>2026-05-05T14:40:55.565Z</time></trkpt><trkpt lat="38.0046683" lon="12.85957"><ele>969.0</ele><time>2026-05-05T14:40:56.565Z</time></trkpt><trkpt lat="38.0047317" lon="12.8595933"><ele>969.0</ele><time>2026-05-05T14:40:57.565Z</time></trkpt><trkpt lat="38.0047933" lon="12.8596467"><ele>969.0</ele><time>2026-05-05T14:40:58.565Z</time></trkpt><trkpt lat="38.0048633" lon="12.85971"><ele>969.0</ele><time>2026-05-05T14:40:59.564Z</time></trkpt><trkpt lat="38.004925" lon="12.859785"><ele>969.0</ele><time>2026-05-05T14:41:00.565Z</time></trkpt><trkpt lat="38.0049817" lon="12.85987"><ele>969.0</ele><time>2026-05-05T14:41:01.564Z</time></trkpt><trkpt lat="38.0050367" lon="12.859965"><ele>969.0</ele><time>2026-05-05T14:41:02.565Z</time></trkpt><trkpt lat="38.0050833" lon="12.8600667"><ele>967.1666666666666</ele><time>2026-05-05T14:41:03.563Z</time></trkpt><trkpt lat="38.0051167" lon="12.86017"><ele>965.3333333333333</ele><time>2026-05-05T14:41:04.564Z</time></trkpt><trkpt lat="38.0051333" lon="12.8602717"><ele>963.5</ele><time>2026-05-05T14:41:05.565Z</time></trkpt><trkpt lat="38.005145" lon="12.8603767"><ele>961.6666666666666</ele><time>2026-05-05T14:41:06.565Z</time></trkpt><trkpt lat="38.0051483" lon="12.86048"><ele>959.8333333333333</ele><time>2026-05-05T14:41:07.564Z</time></trkpt><trkpt lat="38.0051467" lon="12.86059"><ele>958.0</ele><time>2026-05-05T14:41:08.565Z</time></trkpt><trkpt lat="38.0051367" lon="12.860705"><ele>958.0</ele><time>2026-05-05T14:41:09.564Z</time></trkpt><trkpt lat="38.00512" lon="12.8608217"><ele>958.0</ele><time>2026-05-05T14:41:10.565Z</time></trkpt><trkpt lat="38.005105" lon="12.8609417"><ele>958.0</ele><time>2026-05-05T14:41:11.563Z</time></trkpt><trkpt lat="38.005095" lon="12.86106"><ele>958.0</ele><time>2026-05-05T14:41:12.564Z</time></trkpt><trkpt lat="38.00509" lon="12.8611733"><ele>958.0</ele><time>2026-05-05T14:41:13.564Z</time></trkpt><trkpt lat="38.0050883" lon="12.86129"><ele>958.4999999999999</ele><time>2026-05-05T14:41:14.563Z</time></trkpt><trkpt lat="38.0050867" lon="12.8614083"><ele>959.0</ele><time>2026-05-05T14:41:15.564Z</time></trkpt><trkpt lat="38.0050767" lon="12.8615183"><ele>959.5</ele><time>2026-05-05T14:41:16.564Z</time></trkpt><trkpt lat="38.0050583" lon="12.8616167"><ele>960.0</ele><time>2026-05-05T14:41:17.563Z</time></trkpt><trkpt lat="38.0050267" lon="12.86171"><ele>960.4999999999999</ele><time>2026-05-05T14:41:18.565Z</time></trkpt><trkpt lat="38.0049783" lon="12.86179"><ele>961.0</ele><time>2026-05-05T14:41:19.569Z</time></trkpt><trkpt lat="38.004915" lon="12.8618617"><ele>961.0</ele><time>2026-05-05T14:41:20.566Z</time></trkpt><trkpt lat="38.0048483" lon="12.86194"><ele>960.9999999999999</ele><time>2026-05-05T14:41:21.565Z</time></trkpt><trkpt lat="38.0047883" lon="12.8620333"><ele>960.9999999999999</ele><time>2026-05-05T14:41:22.564Z</time></trkpt><trkpt lat="38.0047433" lon="12.8621267"><ele>961.0</ele><time>2026-05-05T14:41:23.566Z</time></trkpt><trkpt lat="38.0046933" lon="12.8622167"><ele>961.0</ele><time>2026-05-05T14:41:24.564Z</time></trkpt><trkpt lat="38.0046383" lon="12.86231"><ele>960.9999999999999</ele><time>2026-05-05T14:41:25.564Z</time></trkpt><trkpt lat="38.0045883" lon="12.8624017"><ele>961.0</ele><time>2026-05-05T14:41:26.564Z</time></trkpt><trkpt lat="38.0045517" lon="12.8624967"><ele>961.0</ele><time>2026-05-05T14:41:27.565Z</time></trkpt><trkpt lat="38.0045233" lon="12.862605"><ele>961.0</ele><time>2026-05-05T14:41:28.564Z</time></trkpt><trkpt lat="38.0044967" lon="12.862715"><ele>960.9999999999999</ele><time>2026-05-05T14:41:29.564Z</time></trkpt><trkpt lat="38.0044617" lon="12.8628083"><ele>961.0</ele><time>2026-05-05T14:41:30.564Z</time></trkpt><trkpt lat="38.0044183" lon="12.8628833"><ele>960.1666666666666</ele><time>2026-05-05T14:41:31.564Z</time></trkpt><trkpt lat="38.0043667" lon="12.862955"><ele>959.3333333333333</ele><time>2026-05-05T14:41:32.565Z</time></trkpt><trkpt lat="38.004305" lon="12.8630283"><ele>958.5</ele><time>2026-05-05T14:41:33.564Z</time></trkpt><trkpt lat="38.0042479" lon="12.8631109"><ele>957.6666666666667</ele><time>2026-05-05T14:41:34.564Z</time></trkpt><trkpt lat="38.0042066" lon="12.8632004"><ele>956.8333333333334</ele><time>2026-05-05T14:41:35.563Z</time></trkpt><trkpt lat="38.0041782" lon="12.8632941"><ele>956.0</ele><time>2026-05-05T14:41:36.564Z</time></trkpt><trkpt lat="38.0041545" lon="12.8633814"><ele>950.8333333333334</ele><time>2026-05-05T14:41:37.565Z</time></trkpt><trkpt lat="38.0041256" lon="12.8634547"><ele>945.6666666666667</ele><time>2026-05-05T14:41:38.564Z</time></trkpt><trkpt lat="38.0040567" lon="12.8635582"><ele>940.5</ele><time>2026-05-05T14:41:40.563Z</time></trkpt><trkpt lat="38.0039654" lon="12.8635997"><ele>935.3333333333333</ele><time>2026-05-05T14:41:42.564Z</time></trkpt><trkpt lat="38.0039118" lon="12.863664"><ele>930.1666666666666</ele><time>2026-05-05T14:41:44.565Z</time></trkpt><trkpt lat="38.0039408" lon="12.8637367"><ele>925.0</ele><time>2026-05-05T14:41:46.564Z</time></trkpt><trkpt lat="38.004046" lon="12.8637599"><ele>925.0</ele><time>2026-05-05T14:41:48.564Z</time></trkpt><trkpt lat="38.0041116" lon="12.8637564"><ele>925.0</ele><time>2026-05-05T14:41:49.564Z</time></trkpt><trkpt lat="38.0041792" lon="12.8637563"><ele>925.0</ele><time>2026-05-05T14:41:50.566Z</time></trkpt><trkpt lat="38.0042459" lon="12.8637683"><ele>925.0</ele><time>2026-05-05T14:41:51.564Z</time></trkpt><trkpt lat="38.0043115" lon="12.8637871"><ele>925.0</ele><time>2026-05-05T14:41:52.565Z</time></trkpt><trkpt lat="38.0043738" lon="12.8638191"><ele>925.0</ele><time>2026-05-05T14:41:53.564Z</time></trkpt><trkpt lat="38.004434" lon="12.8638588"><ele>925.0</ele><time>2026-05-05T14:41:54.564Z</time></trkpt><trkpt lat="38.0044949" lon="12.8638987"><ele>923.8333333333333</ele><time>2026-05-05T14:41:55.567Z</time></trkpt><trkpt lat="38.0045549" lon="12.8639329"><ele>922.6666666666666</ele><time>2026-05-05T14:41:56.564Z</time></trkpt><trkpt lat="38.0046154" lon="12.8639615"><ele>921.5</ele><time>2026-05-05T14:41:57.564Z</time></trkpt><trkpt lat="38.0047177" lon="12.8640001"><ele>920.3333333333333</ele><time>2026-05-05T14:41:59.565Z</time></trkpt><trkpt lat="38.004811" lon="12.8640079"><ele>919.1666666666666</ele><time>2026-05-05T14:42:01.564Z</time></trkpt><trkpt lat="38.0048966" lon="12.8639975"><ele>918.0</ele><time>2026-05-05T14:42:03.564Z</time></trkpt><trkpt lat="38.0049511" lon="12.8640619"><ele>918.0</ele><time>2026-05-05T14:42:06.565Z</time></trkpt><trkpt lat="38.0048879" lon="12.8641426"><ele>918.0</ele><time>2026-05-05T14:42:09.564Z</time></trkpt><trkpt lat="38.004808" lon="12.8641616"><ele>918.0</ele><time>2026-05-05T14:42:11.564Z</time></trkpt><trkpt lat="38.0046975" lon="12.8642104"><ele>918.0</ele><time>2026-05-05T14:42:13.566Z</time></trkpt><trkpt lat="38.0046391" lon="12.8642466"><ele>918.0</ele><time>2026-05-05T14:42:14.564Z</time></trkpt><trkpt lat="38.0045308" lon="12.8643067"><ele>913.5</ele><time>2026-05-05T14:42:16.564Z</time></trkpt><trkpt lat="38.0044187" lon="12.8643628"><ele>909.0</ele><time>2026-05-05T14:42:18.563Z</time></trkpt><trkpt lat="38.0043595" lon="12.8643984"><ele>904.5</ele><time>2026-05-05T14:42:19.563Z</time></trkpt><trkpt lat="38.0042993" lon="12.8644381"><ele>900.0</ele><time>2026-05-05T14:42:20.566Z</time></trkpt><trkpt lat="38.0042387" lon="12.8644846"><ele>895.5</ele><time>2026-05-05T14:42:21.564Z</time></trkpt><trkpt lat="38.004176" lon="12.8645407"><ele>891.0</ele><time>2026-05-05T14:42:22.564Z</time></trkpt><trkpt lat="38.0041075" lon="12.8646"><ele>891.0</ele><time>2026-05-05T14:42:23.564Z</time></trkpt><trkpt lat="38.0040332" lon="12.8646482"><ele>891.0</ele><time>2026-05-05T14:42:24.564Z</time></trkpt><trkpt lat="38.0039588" lon="12.8646928"><ele>891.0</ele><time>2026-05-05T14:42:25.563Z</time></trkpt><trkpt lat="38.003885" lon="12.8647409"><ele>891.0</ele><time>2026-05-05T14:42:26.565Z</time></trkpt><trkpt lat="38.0038135" lon="12.8647907"><ele>891.0</ele><time>2026-05-05T14:42:27.564Z</time></trkpt><trkpt lat="38.0037434" lon="12.8648395"><ele>891.0</ele><time>2026-05-05T14:42:28.565Z</time></trkpt><trkpt lat="38.0036749" lon="12.864887"><ele>891.0</ele><time>2026-05-05T14:42:29.564Z</time></trkpt><trkpt lat="38.003608" lon="12.8649306"><ele>891.0</ele><time>2026-05-05T14:42:30.564Z</time></trkpt><trkpt lat="38.0035459" lon="12.8649559"><ele>891.0</ele><time>2026-05-05T14:42:31.564Z</time></trkpt><trkpt lat="38.0034461" lon="12.8649972"><ele>891.0</ele><time>2026-05-05T14:42:33.564Z</time></trkpt><trkpt lat="38.0034059" lon="12.8650707"><ele>891.0</ele><time>2026-05-05T14:42:35.564Z</time></trkpt><trkpt lat="38.0034868" lon="12.8651443"><ele>891.0</ele><time>2026-05-05T14:42:38.564Z</time></trkpt><trkpt lat="38.0036133" lon="12.8651413"><ele>886.6666666666666</ele><time>2026-05-05T14:42:40.564Z</time></trkpt><trkpt lat="38.0036879" lon="12.8651426"><ele>882.3333333333333</ele><time>2026-05-05T14:42:41.565Z</time></trkpt><trkpt lat="38.0037688" lon="12.8651458"><ele>878.0</ele><time>2026-05-05T14:42:42.564Z</time></trkpt><trkpt lat="38.0038575" lon="12.8651504"><ele>873.6666666666666</ele><time>2026-05-05T14:42:43.564Z</time></trkpt><trkpt lat="38.0039531" lon="12.8651518"><ele>869.3333333333333</ele><time>2026-05-05T14:42:44.564Z</time></trkpt><trkpt lat="38.0040532" lon="12.8651465"><ele>865.0</ele><time>2026-05-05T14:42:45.563Z</time></trkpt><trkpt lat="38.001035" lon="12.8591733"><ele>903.0</ele><time>2026-05-05T14:35:33.563Z</time></trkpt><trkpt lat="38.0009833" lon="12.8591117"><ele>941.0</ele><time>2026-05-05T14:35:35.565Z</time></trkpt><trkpt lat="38.0009683" lon="12.8590067"><ele>979.0</ele><time>2026-05-05T14:35:38.564Z</time></trkpt><trkpt lat="38.0009817" lon="12.8588433"><ele>1017.0</ele><time>2026-05-05T14:35:48.563Z</time></trkpt><trkpt lat="38.0010117" lon="12.858745"><ele>1055.0</ele><time>2026-05-05T14:35:50.565Z</time></trkpt><trkpt lat="38.0010567" lon="12.85865"><ele>1055.0</ele><time>2026-05-05T14:35:52.564Z</time></trkpt><trkpt lat="38.00112" lon="12.858565"><ele>1055.0</ele><time>2026-05-05T14:35:54.564Z</time></trkpt><trkpt lat="38.0012017" lon="12.8585"><ele>1055.0</ele><time>2026-05-05T14:35:56.565Z</time></trkpt><trkpt lat="38.0012967" lon="12.8584567"><ele>1055.0</ele><time>2026-05-05T14:35:58.563Z</time></trkpt><trkpt lat="38.00139" lon="12.8584267"><ele>1055.0</ele><time>2026-05-05T14:36:00.564Z</time></trkpt><trkpt lat="38.0014717" lon="12.8584367"><ele>1055.0</ele><time>2026-05-05T14:36:02.565Z</time></trkpt><trkpt lat="38.0015283" lon="12.858485"><ele>1055.0</ele><time>2026-05-05T14:36:04.563Z</time></trkpt><trkpt lat="38.0015648" lon="12.8585542"><ele>1055.0</ele><time>2026-05-05T14:36:06.564Z</time></trkpt><trkpt lat="38.0015976" lon="12.8586343"><ele>1055.0</ele><time>2026-05-05T14:36:08.564Z</time></trkpt><trkpt lat="38.0016325" lon="12.8587707"><ele>1055.0</ele><time>2026-05-05T14:36:10.565Z</time></trkpt><trkpt lat="38.0016972" lon="12.858826"><ele>1055.0</ele><time>2026-05-05T14:36:13.564Z</time></trkpt><trkpt lat="38.0017555" lon="12.8587604"><ele>1053.0</ele><time>2026-05-05T14:36:15.639Z</time></trkpt><trkpt lat="38.0017239" lon="12.8586472"><ele>1051.0</ele><time>2026-05-05T14:36:17.602Z</time></trkpt><trkpt lat="38.0017278" lon="12.8585147"><ele>1049.0</ele><time>2026-05-05T14:36:19.564Z</time></trkpt><trkpt lat="38.0017485" lon="12.8584315"><ele>1047.0</ele><time>2026-05-05T14:36:20.565Z</time></trkpt><trkpt lat="38.0017699" lon="12.8583533"><ele>1045.0</ele><time>2026-05-05T14:36:21.564Z</time></trkpt><trkpt lat="38.001795" lon="12.858278"><ele>1043.0</ele><time>2026-05-05T14:36:22.566Z</time></trkpt><trkpt lat="38.0018252" lon="12.8581979"><ele>1042.5</ele><time>2026-05-05T14:36:23.566Z</time></trkpt><trkpt lat="38.0018577" lon="12.8581193"><ele>1042.0</ele><time>2026-05-05T14:36:24.565Z</time></trkpt><trkpt lat="38.0018936" lon="12.8580492"><ele>1041.5</ele><time>2026-05-05T14:36:25.565Z</time></trkpt><trkpt lat="38.0019322" lon="12.857986"><ele>1041.0</ele><time>2026-05-05T14:36:26.564Z</time></trkpt><trkpt lat="38.0019899" lon="12.857865"><ele>1040.5</ele><time>2026-05-05T14:36:28.564Z</time></trkpt><trkpt lat="38.0019914" lon="12.8577523"><ele>1040.0</ele><time>2026-05-05T14:36:30.564Z</time></trkpt><trkpt lat="38.0020078" lon="12.8576541"><ele>1040.0</ele><time>2026-05-05T14:36:32.565Z</time></trkpt><trkpt lat="38.0020735" lon="12.8575894"><ele>1040.0</ele><time>2026-05-05T14:36:34.563Z</time></trkpt><trkpt lat="38.002182" lon="12.8575848"><ele>1040.0</ele><time>2026-05-05T14:36:36.564Z</time></trkpt><trkpt lat="38.0022772" lon="12.8576294"><ele>1040.0</ele><time>2026-05-05T14:36:38.565Z</time></trkpt><trkpt lat="38.0023239" lon="12.8577059"><ele>1040.0</ele><time>2026-05-05T14:36:40.564Z</time></trkpt><trkpt lat="38.0023043" lon="12.8578303"><ele>1040.0</ele><time>2026-05-05T14:36:42.564Z</time></trkpt><trkpt lat="38.0022478" lon="12.8579627"><ele>1040.0</ele><time>2026-05-05T14:36:44.565Z</time></trkpt><trkpt lat="38.00219" lon="12.8580851"><ele>1040.0</ele><time>2026-05-05T14:36:46.564Z</time></trkpt><trkpt lat="38.0021402" lon="12.8582128"><ele>1040.0</ele><time>2026-05-05T14:36:48.564Z</time></trkpt><trkpt lat="38.0021076" lon="12.8583417"><ele>1040.0</ele><time>2026-05-05T14:36:50.565Z</time></trkpt><trkpt lat="38.0020832" lon="12.8584563"><ele>1040.0</ele><time>2026-05-05T14:36:52.563Z</time></trkpt><trkpt lat="38.0020968" lon="12.8585573"><ele>1040.0</ele><time>2026-05-05T14:36:54.564Z</time></trkpt><trkpt lat="38.0021841" lon="12.8585501"><ele>1040.0</ele><time>2026-05-05T14:36:57.565Z</time></trkpt><trkpt lat="38.0022431" lon="12.8584335"><ele>1040.0</ele><time>2026-05-05T14:36:59.564Z</time></trkpt><trkpt lat="38.0022841" lon="12.8583606"><ele>1040.0</ele><time>2026-05-05T14:37:00.564Z</time></trkpt><trkpt lat="38.002335" lon="12.8582969"><ele>1040.0000000000002</ele><time>2026-05-05T14:37:01.563Z</time></trkpt><trkpt lat="38.0023968" lon="12.858242"><ele>1040.0</ele><time>2026-05-05T14:37:02.565Z</time></trkpt><trkpt lat="38.0024561" lon="12.8581989"><ele>1040.0</ele><time>2026-05-05T14:37:03.565Z</time></trkpt><trkpt lat="38.0025165" lon="12.8581635"><ele>1040.0</ele><time>2026-05-05T14:37:04.563Z</time></trkpt><trkpt lat="38.0025799" lon="12.8581313"><ele>1040.0</ele><time>2026-05-05T14:37:05.564Z</time></trkpt><trkpt lat="38.0026438" lon="12.8581035"><ele>1040.0000000000002</ele><time>2026-05-05T14:37:06.564Z</time></trkpt><trkpt lat="38.0027115" lon="12.8580735"><ele>1040.0</ele><time>2026-05-05T14:37:07.564Z</time></trkpt><trkpt lat="38.002779" lon="12.8580382"><ele>1036.3333333333335</ele><time>2026-05-05T14:37:08.564Z</time></trkpt><trkpt lat="38.0028474" lon="12.8579929"><ele>1032.6666666666667</ele><time>2026-05-05T14:37:09.566Z</time></trkpt><trkpt lat="38.0029146" lon="12.8579416"><ele>1029.0</ele><time>2026-05-05T14:37:10.565Z</time></trkpt><trkpt lat="38.0029785" lon="12.8578851"><ele>1025.3333333333333</ele><time>2026-05-05T14:37:11.564Z</time></trkpt><trkpt lat="38.0030388" lon="12.8578246"><ele>1021.6666666666666</ele><time>2026-05-05T14:37:12.564Z</time></trkpt><trkpt lat="38.0030956" lon="12.8577581"><ele>1018.0</ele><time>2026-05-05T14:37:13.563Z</time></trkpt><trkpt lat="38.0031485" lon="12.8576863"><ele>1017.8333333333333</ele><time>2026-05-05T14:37:14.567Z</time></trkpt><trkpt lat="38.0032022" lon="12.8576095"><ele>1017.6666666666666</ele><time>2026-05-05T14:37:15.563Z</time></trkpt><trkpt lat="38.0032558" lon="12.857532"><ele>1017.5</ele><time>2026-05-05T14:37:16.564Z</time></trkpt><trkpt lat="38.0033033" lon="12.8574583"><ele>1017.3333333333333</ele><time>2026-05-05T14:37:17.566Z</time></trkpt><trkpt lat="38.0033433" lon="12.8573817"><ele>1017.1666666666666</ele><time>2026-05-05T14:37:18.565Z</time></trkpt><trkpt lat="38.0033867" lon="12.8572983"><ele>1017.0</ele><time>2026-05-05T14:37:19.564Z</time></trkpt><trkpt lat="38.0034317" lon="12.8572183"><ele>1017.0</ele><time>2026-05-05T14:37:20.565Z</time></trkpt><trkpt lat="38.0034817" lon="12.8571467"><ele>1017.0</ele><time>2026-05-05T14:37:21.564Z</time></trkpt><trkpt lat="38.00353" lon="12.8570883"><ele>1017.0</ele><time>2026-05-05T14:37:22.565Z</time></trkpt><trkpt lat="38.003605" lon="12.8569783"><ele>1017.0</ele><time>2026-05-05T14:37:24.563Z</time></trkpt><trkpt lat="38.0036483" lon="12.85692"><ele>1017.0</ele><time>2026-05-05T14:37:25.563Z</time></trkpt><trkpt lat="38.0037117" lon="12.8567933"><ele>1017.0</ele><time>2026-05-05T14:37:27.564Z</time></trkpt><trkpt lat="38.00374" lon="12.8567133"><ele>1017.5</ele><time>2026-05-05T14:37:28.564Z</time></trkpt><trkpt lat="38.0037683" lon="12.8566317"><ele>1018.0</ele><time>2026-05-05T14:37:29.564Z</time></trkpt><trkpt lat="38.0037967" lon="12.8565483"><ele>1018.5</ele><time>2026-05-05T14:37:30.565Z</time></trkpt><trkpt lat="38.0038333" lon="12.856475"><ele>1019.0</ele><time>2026-05-05T14:37:31.564Z</time></trkpt><trkpt lat="38.0039167" lon="12.8563833"><ele>1019.5</ele><time>2026-05-05T14:37:33.565Z</time></trkpt><trkpt lat="38.0040067" lon="12.8563367"><ele>1020.0</ele><time>2026-05-05T14:37:35.564Z</time></trkpt><trkpt lat="38.0040833" lon="12.8562917"><ele>1017.0</ele><time>2026-05-05T14:37:37.564Z</time></trkpt><trkpt lat="38.0041817" lon="12.8562383"><ele>1014.0</ele><time>2026-05-05T14:37:39.564Z</time></trkpt><trkpt lat="38.0042717" lon="12.8561967"><ele>1011.0</ele><time>2026-05-05T14:37:41.564Z</time></trkpt><trkpt lat="38.0043617" lon="12.856155"><ele>1008.0</ele><time>2026-05-05T14:37:43.564Z</time></trkpt><trkpt lat="38.0044583" lon="12.8561317"><ele>1005.0</ele><time>2026-05-05T14:37:45.564Z</time></trkpt><trkpt lat="38.0045467" lon="12.8561083"><ele>1005.0</ele><time>2026-05-05T14:37:47.565Z</time></trkpt><trkpt lat="38.0046433" lon="12.856065"><ele>1005.0</ele><time>2026-05-05T14:37:49.565Z</time></trkpt><trkpt lat="38.0047283" lon="12.8560367"><ele>1005.0</ele><time>2026-05-05T14:37:51.564Z</time></trkpt><trkpt lat="38.0047983" lon="12.856015"><ele>1005.0</ele><time>2026-05-05T14:37:53.564Z</time></trkpt><trkpt lat="38.0048683" lon="12.8559867"><ele>1005.0</ele><time>2026-05-05T14:37:55.563Z</time></trkpt><trkpt lat="38.004945" lon="12.855945"><ele>1005.0</ele><time>2026-05-05T14:37:57.565Z</time></trkpt><trkpt lat="38.00504" lon="12.8558983"><ele>1005.0</ele><time>2026-05-05T14:37:59.566Z</time></trkpt><trkpt lat="38.0051567" lon="12.8558533"><ele>1005.0</ele><time>2026-05-05T14:38:01.564Z</time></trkpt><trkpt lat="38.005225" lon="12.85584"><ele>1005.0</ele><time>2026-05-05T14:38:02.565Z</time></trkpt><trkpt lat="38.00535" lon="12.855835"><ele>1005.0</ele><time>2026-05-05T14:38:04.565Z</time></trkpt><trkpt lat="38.005415" lon="12.8558267"><ele>1005.0</ele><time>2026-05-05T14:38:05.565Z</time></trkpt><trkpt lat="38.00548" lon="12.8558183"><ele>1005.0</ele><time>2026-05-05T14:38:06.563Z</time></trkpt><trkpt lat="38.0055467" lon="12.855805"><ele>1005.0</ele><time>2026-05-05T14:38:07.563Z</time></trkpt><trkpt lat="38.00565" lon="12.8557767"><ele>1005.0</ele><time>2026-05-05T14:38:09.564Z</time></trkpt><trkpt lat="38.0057217" lon="12.8557367"><ele>1005.0</ele><time>2026-05-05T14:38:11.564Z</time></trkpt><trkpt lat="38.00581" lon="12.855675"><ele>1005.0</ele><time>2026-05-05T14:38:13.564Z</time></trkpt><trkpt lat="38.0058533" lon="12.8555533"><ele>1005.0</ele><time>2026-05-05T14:38:15.564Z</time></trkpt><trkpt lat="38.0058817" lon="12.85547"><ele>1005.0</ele><time>2026-05-05T14:38:16.564Z</time></trkpt><trkpt lat="38.0059167" lon="12.8553833"><ele>1005.0</ele><time>2026-05-05T14:38:17.565Z</time></trkpt><trkpt lat="38.00595" lon="12.8553067"><ele>1005.0</ele><time>2026-05-05T14:38:18.564Z</time></trkpt><trkpt lat="38.0060033" lon="12.85517"><ele>1005.0</ele><time>2026-05-05T14:38:20.565Z</time></trkpt><trkpt lat="38.0060317" lon="12.8550617"><ele>1005.0</ele><time>2026-05-05T14:38:22.564Z</time></trkpt><trkpt lat="38.0060333" lon="12.8549633"><ele>1005.0</ele><time>2026-05-05T14:38:24.564Z</time></trkpt><trkpt lat="38.0060117" lon="12.8548867"><ele>1004.6666666666666</ele><time>2026-05-05T14:38:26.564Z</time></trkpt><trkpt lat="38.00599" lon="12.8548067"><ele>1004.3333333333333</ele><time>2026-05-05T14:38:28.563Z</time></trkpt><trkpt lat="38.00596" lon="12.85473"><ele>1004.0</ele><time>2026-05-05T14:38:31.564Z</time></trkpt><trkpt lat="38.00603" lon="12.8547683"><ele>1003.6666666666666</ele><time>2026-05-05T14:38:56.564Z</time></trkpt><trkpt lat="38.006075" lon="12.8548617"><ele>1003.3333333333333</ele><time>2026-05-05T14:38:58.564Z</time></trkpt><trkpt lat="38.0060917" lon="12.8549967"><ele>1003.0</ele><time>2026-05-05T14:39:00.564Z</time></trkpt><trkpt lat="38.0060983" lon="12.8550817"><ele>1003.3333333333333</ele><time>2026-05-05T14:39:01.565Z</time></trkpt><trkpt lat="38.0061083" lon="12.8551767"><ele>1003.6666666666666</ele><time>2026-05-05T14:39:02.564Z</time></trkpt><trkpt lat="38.0061167" lon="12.85528"><ele>1004.0</ele><time>2026-05-05T14:39:03.564Z</time></trkpt><trkpt lat="38.0061317" lon="12.8553833"><ele>1004.3333333333333</ele><time>2026-05-05T14:39:04.564Z</time></trkpt><trkpt lat="38.0061467" lon="12.8554917"><ele>1004.6666666666666</ele><time>2026-05-05T14:39:05.564Z</time></trkpt><trkpt lat="38.0061533" lon="12.85559"><ele>1005.0</ele><time>2026-05-05T14:39:06.564Z</time></trkpt><trkpt lat="38.006155" lon="12.855685"><ele>1005.0000000000001</ele><time>2026-05-05T14:39:07.565Z</time></trkpt><trkpt lat="38.0061483" lon="12.85577"><ele>1005.0</ele><time>2026-05-05T14:39:08.565Z</time></trkpt><trkpt lat="38.006135" lon="12.8558583"><ele>1005.0000000000001</ele><time>2026-05-05T14:39:09.565Z</time></trkpt><trkpt lat="38.00611" lon="12.85594"><ele>1005.0000000000001</ele><time>2026-05-05T14:39:10.565Z</time></trkpt><trkpt lat="38.0060767" lon="12.8560233"><ele>1005.0</ele><time>2026-05-05T14:39:11.564Z</time></trkpt><trkpt lat="38.0060367" lon="12.85611"><ele>1005.0000000000001</ele><time>2026-05-05T14:39:12.563Z</time></trkpt><trkpt lat="38.0059933" lon="12.8561967"><ele>1005.0000000000001</ele><time>2026-05-05T14:39:13.564Z</time></trkpt><trkpt lat="38.0059417" lon="12.8562717"><ele>1003.8</ele><time>2026-05-05T14:39:14.565Z</time></trkpt><trkpt lat="38.005895" lon="12.856345"><ele>1002.6</ele><time>2026-05-05T14:39:15.564Z</time></trkpt><trkpt lat="38.0058533" lon="12.8564167"><ele>1001.4000000000001</ele><time>2026-05-05T14:39:16.564Z</time></trkpt><trkpt lat="38.0058083" lon="12.8565533"><ele>1000.2</ele><time>2026-05-05T14:39:18.564Z</time></trkpt><trkpt lat="38.0058433" lon="12.8566433"><ele>999.0</ele><time>2026-05-05T14:39:20.564Z</time></trkpt><trkpt lat="38.005965" lon="12.85666"><ele>998.8333333333334</ele><time>2026-05-05T14:39:22.563Z</time></trkpt><trkpt lat="38.00603" lon="12.8566683"><ele>998.6666666666667</ele><time>2026-05-05T14:39:23.565Z</time></trkpt><trkpt lat="38.0060933" lon="12.856675"><ele>998.5</ele><time>2026-05-05T14:39:24.564Z</time></trkpt><trkpt lat="38.0061783" lon="12.8567117"><ele>998.3333333333334</ele><time>2026-05-05T14:39:26.565Z</time></trkpt><trkpt lat="38.0062083" lon="12.85681"><ele>998.1666666666667</ele><time>2026-05-05T14:39:28.564Z</time></trkpt><trkpt lat="38.0061833" lon="12.8569483"><ele>998.0</ele><time>2026-05-05T14:39:30.565Z</time></trkpt><trkpt lat="38.0061467" lon="12.857025"><ele>996.8333333333334</ele><time>2026-05-05T14:39:31.564Z</time></trkpt><trkpt lat="38.00611" lon="12.85711"><ele>995.6666666666667</ele><time>2026-05-05T14:39:32.564Z</time></trkpt><trkpt lat="38.006075" lon="12.8571783"><ele>994.5</ele><time>2026-05-05T14:39:33.565Z</time></trkpt><trkpt lat="38.006" lon="12.85728"><ele>993.3333333333333</ele><time>2026-05-05T14:39:35.564Z</time></trkpt><trkpt lat="38.0059" lon="12.8573517"><ele>992.1666666666666</ele><time>2026-05-05T14:39:37.565Z</time></trkpt><trkpt lat="38.005835" lon="12.8573633"><ele>991.0</ele><time>2026-05-05T14:39:38.564Z</time></trkpt><trkpt lat="38.0057633" lon="12.8573567"><ele>989.6666666666666</ele><time>2026-05-05T14:39:39.565Z</time></trkpt><trkpt lat="38.0056817" lon="12.8573433"><ele>988.3333333333333</ele><time>2026-05-05T14:39:40.565Z</time></trkpt><trkpt lat="38.005595" lon="12.8573267"><ele>987.0</ele><time>2026-05-05T14:39:41.564Z</time></trkpt><trkpt lat="38.00551" lon="12.85731"><ele>985.6666666666667</ele><time>2026-05-05T14:39:42.563Z</time></trkpt><trkpt lat="38.005425" lon="12.857295"><ele>984.3333333333334</ele><time>2026-05-05T14:39:43.564Z</time></trkpt><trkpt lat="38.005345" lon="12.857285"><ele>983.0</ele><time>2026-05-05T14:39:44.565Z</time></trkpt><trkpt lat="38.0052717" lon="12.8572933"><ele>983.0000000000001</ele><time>2026-05-05T14:39:45.564Z</time></trkpt><trkpt lat="38.0051983" lon="12.85731"><ele>983.0</ele><time>2026-05-05T14:39:46.564Z</time></trkpt><trkpt lat="38.0051217" lon="12.8573467"><ele>983.0</ele><time>2026-05-05T14:39:47.563Z</time></trkpt><trkpt lat="38.0050383" lon="12.8573883"><ele>983.0</ele><time>2026-05-05T14:39:48.564Z</time></trkpt><trkpt lat="38.0049583" lon="12.8574317"><ele>983.0000000000001</ele><time>2026-05-05T14:39:49.563Z</time></trkpt><trkpt lat="38.00489" lon="12.8574683"><ele>983.0</ele><time>2026-05-05T14:39:50.565Z</time></trkpt><trkpt lat="38.0048233" lon="12.85749"><ele>983.2857142857142</ele><time>2026-05-05T14:39:51.564Z</time></trkpt><trkpt lat="38.0047533" lon="12.8575117"><ele>983.5714285714286</ele><time>2026-05-05T14:39:52.565Z</time></trkpt><trkpt lat="38.00468" lon="12.8575367"><ele>983.8571428571429</ele><time>2026-05-05T14:39:53.565Z</time></trkpt><trkpt lat="38.004605" lon="12.857555"><ele>984.1428571428571</ele><time>2026-05-05T14:39:54.564Z</time></trkpt><trkpt lat="38.0045317" lon="12.8575767"><ele>984.4285714285716</ele><time>2026-05-05T14:39:55.566Z</time></trkpt><trkpt lat="38.004465" lon="12.85761"><ele>984.7142857142858</ele><time>2026-05-05T14:39:56.565Z</time></trkpt><trkpt lat="38.0044083" lon="12.857655"><ele>985.0</ele><time>2026-05-05T14:39:57.564Z</time></trkpt><trkpt lat="38.004365" lon="12.8577133"><ele>984.9999999999999</ele><time>2026-05-05T14:39:58.565Z</time></trkpt><trkpt lat="38.00432" lon="12.8578583"><ele>985.0</ele><time>2026-05-05T14:40:00.564Z</time></trkpt><trkpt lat="38.004315" lon="12.8579533"><ele>985.0</ele><time>2026-05-05T14:40:01.566Z</time></trkpt><trkpt lat="38.0043183" lon="12.8580467"><ele>985.0</ele><time>2026-05-05T14:40:02.564Z</time></trkpt><trkpt lat="38.004315" lon="12.8581467"><ele>984.9999999999999</ele><time>2026-05-05T14:40:03.564Z</time></trkpt><trkpt lat="38.0043133" lon="12.8582467"><ele>985.0</ele><time>2026-05-05T14:40:04.564Z</time></trkpt><trkpt lat="38.0043083" lon="12.8583417"><ele>984.9999999999999</ele><time>2026-05-05T14:40:05.564Z</time></trkpt><trkpt lat="38.0042983" lon="12.85845"><ele>985.0</ele><time>2026-05-05T14:40:06.564Z</time></trkpt><trkpt lat="38.0042717" lon="12.8585633"><ele>985.0</ele><time>2026-05-05T14:40:07.564Z</time></trkpt><trkpt lat="38.004235" lon="12.8586717"><ele>985.0</ele><time>2026-05-05T14:40:08.564Z</time></trkpt><trkpt lat="38.0041933" lon="12.8587617"><ele>984.9999999999999</ele><time>2026-05-05T14:40:09.564Z</time></trkpt><trkpt lat="38.004155" lon="12.8588433"><ele>985.0</ele><time>2026-05-05T14:40:10.565Z</time></trkpt><trkpt lat="38.0041133" lon="12.8589133"><ele>984.6666666666666</ele><time>2026-05-05T14:40:11.565Z</time></trkpt><trkpt lat="38.0040683" lon="12.8589717"><ele>984.3333333333333</ele><time>2026-05-05T14:40:12.566Z</time></trkpt><trkpt lat="38.004005" lon="12.8590267"><ele>984.0</ele><time>2026-05-05T14:40:13.565Z</time></trkpt><trkpt lat="38.0039267" lon="12.8590767"><ele>983.6666666666667</ele><time>2026-05-05T14:40:14.566Z</time></trkpt><trkpt lat="38.0038517" lon="12.8591267"><ele>983.3333333333334</ele><time>2026-05-05T14:40:15.565Z</time></trkpt><trkpt lat="38.0037733" lon="12.8591683"><ele>983.0</ele><time>2026-05-05T14:40:16.564Z</time></trkpt><trkpt lat="38.003695" lon="12.85921"><ele>983.0000000000001</ele><time>2026-05-05T14:40:17.565Z</time></trkpt><trkpt lat="38.0036167" lon="12.8592683"><ele>983.0</ele><time>2026-05-05T14:40:18.565Z</time></trkpt><trkpt lat="38.0035517" lon="12.8593183"><ele>983.0</ele><time>2026-05-05T14:40:19.565Z</time></trkpt><trkpt lat="38.0034917" lon="12.8594367"><ele>983.0</ele><time>2026-05-05T14:40:21.565Z</time></trkpt><trkpt lat="38.0035183" lon="12.8595617"><ele>983.0000000000001</ele><time>2026-05-05T14:40:23.564Z</time></trkpt><trkpt lat="38.00356" lon="12.8596317"><ele>983.0</ele><time>2026-05-05T14:40:24.564Z</time></trkpt><trkpt lat="38.0036" lon="12.8597183"><ele>982.0000000000001</ele><time>2026-05-05T14:40:25.565Z</time></trkpt><trkpt lat="38.0036283" lon="12.85981"><ele>981.0</ele><time>2026-05-05T14:40:26.566Z</time></trkpt><trkpt lat="38.0036417" lon="12.8599017"><ele>980.0</ele><time>2026-05-05T14:40:27.566Z</time></trkpt><trkpt lat="38.0036467" lon="12.8600033"><ele>979.0</ele><time>2026-05-05T14:40:28.564Z</time></trkpt><trkpt lat="38.0036383" lon="12.8601017"><ele>978.0000000000001</ele><time>2026-05-05T14:40:29.564Z</time></trkpt><trkpt lat="38.0036317" lon="12.8602"><ele>977.0</ele><time>2026-05-05T14:40:30.566Z</time></trkpt><trkpt lat="38.003625" lon="12.860305"><ele>977.0</ele><time>2026-05-05T14:40:31.565Z</time></trkpt><trkpt lat="38.0036083" lon="12.8604033"><ele>977.0</ele><time>2026-05-05T14:40:32.565Z</time></trkpt><trkpt lat="38.003595" lon="12.8605017"><ele>977.0</ele><time>2026-05-05T14:40:33.565Z</time></trkpt><trkpt lat="38.0035883" lon="12.8605967"><ele>977.0</ele><time>2026-05-05T14:40:34.565Z</time></trkpt><trkpt lat="38.003625" lon="12.8607283"><ele>977.0</ele><time>2026-05-05T14:40:36.566Z</time></trkpt><trkpt lat="38.0037483" lon="12.86071"><ele>977.0000000000001</ele><time>2026-05-05T14:40:38.566Z</time></trkpt><trkpt lat="38.0038167" lon="12.8606717"><ele>977.0</ele><time>2026-05-05T14:40:39.564Z</time></trkpt><trkpt lat="38.0039133" lon="12.8605633"><ele>977.0</ele><time>2026-05-05T14:40:41.565Z</time></trkpt><trkpt lat="38.0039433" lon="12.8604733"><ele>977.0</ele><time>2026-05-05T14:40:42.566Z</time></trkpt><trkpt lat="38.0039567" lon="12.8603733"><ele>977.0000000000001</ele><time>2026-05-05T14:40:43.566Z</time></trkpt><trkpt lat="38.00397" lon="12.8602683"><ele>977.0</ele><time>2026-05-05T14:40:44.566Z</time></trkpt><trkpt lat="38.00399" lon="12.8601367"><ele>977.0000000000001</ele><time>2026-05-05T14:40:45.564Z</time></trkpt><trkpt lat="38.0040067" lon="12.860035"><ele>977.0</ele><time>2026-05-05T14:40:46.565Z</time></trkpt><trkpt lat="38.0040317" lon="12.8599417"><ele>977.0</ele><time>2026-05-05T14:40:47.566Z</time></trkpt><trkpt lat="38.004075" lon="12.85987"><ele>977.0</ele><time>2026-05-05T14:40:48.566Z</time></trkpt><trkpt lat="38.0041233" lon="12.8598133"><ele>977.0000000000001</ele><time>2026-05-05T14:40:49.565Z</time></trkpt><trkpt lat="38.0041967" lon="12.8597583"><ele>977.0</ele><time>2026-05-05T14:40:50.566Z</time></trkpt><trkpt lat="38.004295" lon="12.8597217"><ele>975.6666666666667</ele><time>2026-05-05T14:40:51.565Z</time></trkpt><trkpt lat="38.004375" lon="12.8596767"><ele>974.3333333333334</ele><time>2026-05-05T14:40:52.564Z</time></trkpt><trkpt lat="38.0044517" lon="12.8596417"><ele>973.0</ele><time>2026-05-05T14:40:53.564Z</time></trkpt><trkpt lat="38.0045233" lon="12.8596017"><ele>971.6666666666667</ele><time>2026-05-05T14:40:54.566Z</time></trkpt><trkpt lat="38.004595" lon="12.8595817"><ele>970.3333333333334</ele><time>2026-05-05T14:40:55.565Z</time></trkpt><trkpt lat="38.0046683" lon="12.85957"><ele>969.0</ele><time>2026-05-05T14:40:56.565Z</time></trkpt><trkpt lat="38.0047317" lon="12.8595933"><ele>969.0</ele><time>2026-05-05T14:40:57.565Z</time></trkpt><trkpt lat="38.0047933" lon="12.8596467"><ele>969.0</ele><time>2026-05-05T14:40:58.565Z</time></trkpt><trkpt lat="38.0048633" lon="12.85971"><ele>969.0</ele><time>2026-05-05T14:40:59.564Z</time></trkpt><trkpt lat="38.004925" lon="12.859785"><ele>969.0</ele><time>2026-05-05T14:41:00.565Z</time></trkpt><trkpt lat="38.0049817" lon="12.85987"><ele>969.0</ele><time>2026-05-05T14:41:01.564Z</time></trkpt><trkpt lat="38.0050367" lon="12.859965"><ele>969.0</ele><time>2026-05-05T14:41:02.565Z</time></trkpt><trkpt lat="38.0050833" lon="12.8600667"><ele>967.1666666666666</ele><time>2026-05-05T14:41:03.563Z</time></trkpt><trkpt lat="38.0051167" lon="12.86017"><ele>965.3333333333333</ele><time>2026-05-05T14:41:04.564Z</time></trkpt><trkpt lat="38.0051333" lon="12.8602717"><ele>963.5</ele><time>2026-05-05T14:41:05.565Z</time></trkpt><trkpt lat="38.005145" lon="12.8603767"><ele>961.6666666666666</ele><time>2026-05-05T14:41:06.565Z</time></trkpt><trkpt lat="38.0051483" lon="12.86048"><ele>959.8333333333333</ele><time>2026-05-05T14:41:07.564Z</time></trkpt><trkpt lat="38.0051467" lon="12.86059"><ele>958.0</ele><time>2026-05-05T14:41:08.565Z</time></trkpt><trkpt lat="38.0051367" lon="12.860705"><ele>958.0</ele><time>2026-05-05T14:41:09.564Z</time></trkpt><trkpt lat="38.00512" lon="12.8608217"><ele>958.0</ele><time>2026-05-05T14:41:10.565Z</time></trkpt><trkpt lat="38.005105" lon="12.8609417"><ele>958.0</ele><time>2026-05-05T14:41:11.563Z</time></trkpt><trkpt lat="38.005095" lon="12.86106"><ele>958.0</ele><time>2026-05-05T14:41:12.564Z</time></trkpt><trkpt lat="38.00509" lon="12.8611733"><ele>958.0</ele><time>2026-05-05T14:41:13.564Z</time></trkpt><trkpt lat="38.0050883" lon="12.86129"><ele>958.4999999999999</ele><time>2026-05-05T14:41:14.563Z</time></trkpt><trkpt lat="38.0050867" lon="12.8614083"><ele>959.0</ele><time>2026-05-05T14:41:15.564Z</time></trkpt><trkpt lat="38.0050767" lon="12.8615183"><ele>959.5</ele><time>2026-05-05T14:41:16.564Z</time></trkpt><trkpt lat="38.0050583" lon="12.8616167"><ele>960.0</ele><time>2026-05-05T14:41:17.563Z</time></trkpt><trkpt lat="38.0050267" lon="12.86171"><ele>960.4999999999999</ele><time>2026-05-05T14:41:18.565Z</time></trkpt><trkpt lat="38.0049783" lon="12.86179"><ele>961.0</ele><time>2026-05-05T14:41:19.569Z</time></trkpt><trkpt lat="38.004915" lon="12.8618617"><ele>961.0</ele><time>2026-05-05T14:41:20.566Z</time></trkpt><trkpt lat="38.0048483" lon="12.86194"><ele>960.9999999999999</ele><time>2026-05-05T14:41:21.565Z</time></trkpt><trkpt lat="38.0047883" lon="12.8620333"><ele>960.9999999999999</ele><time>2026-05-05T14:41:22.564Z</time></trkpt><trkpt lat="38.0047433" lon="12.8621267"><ele>961.0</ele><time>2026-05-05T14:41:23.566Z</time></trkpt><trkpt lat="38.0046933" lon="12.8622167"><ele>961.0</ele><time>2026-05-05T14:41:24.564Z</time></trkpt><trkpt lat="38.0046383" lon="12.86231"><ele>960.9999999999999</ele><time>2026-05-05T14:41:25.564Z</time></trkpt><trkpt lat="38.0045883" lon="12.8624017"><ele>961.0</ele><time>2026-05-05T14:41:26.564Z</time></trkpt><trkpt lat="38.0045517" lon="12.8624967"><ele>961.0</ele><time>2026-05-05T14:41:27.565Z</time></trkpt><trkpt lat="38.0045233" lon="12.862605"><ele>961.0</ele><time>2026-05-05T14:41:28.564Z</time></trkpt><trkpt lat="38.0044967" lon="12.862715"><ele>960.9999999999999</ele><time>2026-05-05T14:41:29.564Z</time></trkpt><trkpt lat="38.0044617" lon="12.8628083"><ele>961.0</ele><time>2026-05-05T14:41:30.564Z</time></trkpt><trkpt lat="38.0044183" lon="12.8628833"><ele>960.1666666666666</ele><time>2026-05-05T14:41:31.564Z</time></trkpt><trkpt lat="38.0043667" lon="12.862955"><ele>959.3333333333333</ele><time>2026-05-05T14:41:32.565Z</time></trkpt><trkpt lat="38.004305" lon="12.8630283"><ele>958.5</ele><time>2026-05-05T14:41:33.564Z</time></trkpt><trkpt lat="38.0042479" lon="12.8631109"><ele>957.6666666666667</ele><time>2026-05-05T14:41:34.564Z</time></trkpt><trkpt lat="38.0042066" lon="12.8632004"><ele>956.8333333333334</ele><time>2026-05-05T14:41:35.563Z</time></trkpt><trkpt lat="38.0041782" lon="12.8632941"><ele>956.0</ele><time>2026-05-05T14:41:36.564Z</time></trkpt><trkpt lat="38.0041545" lon="12.8633814"><ele>950.8333333333334</ele><time>2026-05-05T14:41:37.565Z</time></trkpt><trkpt lat="38.0041256" lon="12.8634547"><ele>945.6666666666667</ele><time>2026-05-05T14:41:38.564Z</time></trkpt><trkpt lat="38.0040567" lon="12.8635582"><ele>940.5</ele><time>2026-05-05T14:41:40.563Z</time></trkpt><trkpt lat="38.0039654" lon="12.8635997"><ele>935.3333333333333</ele><time>2026-05-05T14:41:42.564Z</time></trkpt><trkpt lat="38.0039118" lon="12.863664"><ele>930.1666666666666</ele><time>2026-05-05T14:41:44.565Z</time></trkpt><trkpt lat="38.0039408" lon="12.8637367"><ele>925.0</ele><time>2026-05-05T14:41:46.564Z</time></trkpt><trkpt lat="38.004046" lon="12.8637599"><ele>925.0</ele><time>2026-05-05T14:41:48.564Z</time></trkpt><trkpt lat="38.0041116" lon="12.8637564"><ele>925.0</ele><time>2026-05-05T14:41:49.564Z</time></trkpt><trkpt lat="38.0041792" lon="12.8637563"><ele>925.0</ele><time>2026-05-05T14:41:50.566Z</time></trkpt><trkpt lat="38.0042459" lon="12.8637683"><ele>925.0</ele><time>2026-05-05T14:41:51.564Z</time></trkpt><trkpt lat="38.0043115" lon="12.8637871"><ele>925.0</ele><time>2026-05-05T14:41:52.565Z</time></trkpt><trkpt lat="38.0043738" lon="12.8638191"><ele>925.0</ele><time>2026-05-05T14:41:53.564Z</time></trkpt><trkpt lat="38.004434" lon="12.8638588"><ele>925.0</ele><time>2026-05-05T14:41:54.564Z</time></trkpt><trkpt lat="38.0044949" lon="12.8638987"><ele>923.8333333333333</ele><time>2026-05-05T14:41:55.567Z</time></trkpt><trkpt lat="38.0045549" lon="12.8639329"><ele>922.6666666666666</ele><time>2026-05-05T14:41:56.564Z</time></trkpt><trkpt lat="38.0046154" lon="12.8639615"><ele>921.5</ele><time>2026-05-05T14:41:57.564Z</time></trkpt><trkpt lat="38.0047177" lon="12.8640001"><ele>920.3333333333333</ele><time>2026-05-05T14:41:59.565Z</time></trkpt><trkpt lat="38.004811" lon="12.8640079"><ele>919.1666666666666</ele><time>2026-05-05T14:42:01.564Z</time></trkpt><trkpt lat="38.0048966" lon="12.8639975"><ele>918.0</ele><time>2026-05-05T14:42:03.564Z</time></trkpt><trkpt lat="38.0049511" lon="12.8640619"><ele>918.0</ele><time>2026-05-05T14:42:06.565Z</time></trkpt><trkpt lat="38.0048879" lon="12.8641426"><ele>918.0</ele><time>2026-05-05T14:42:09.564Z</time></trkpt><trkpt lat="38.004808" lon="12.8641616"><ele>918.0</ele><time>2026-05-05T14:42:11.564Z</time></trkpt><trkpt lat="38.0046975" lon="12.8642104"><ele>918.0</ele><time>2026-05-05T14:42:13.566Z</time></trkpt><trkpt lat="38.0046391" lon="12.8642466"><ele>918.0</ele><time>2026-05-05T14:42:14.564Z</time></trkpt><trkpt lat="38.0045308" lon="12.8643067"><ele>913.5</ele><time>2026-05-05T14:42:16.564Z</time></trkpt><trkpt lat="38.0044187" lon="12.8643628"><ele>909.0</ele><time>2026-05-05T14:42:18.563Z</time></trkpt><trkpt lat="38.0043595" lon="12.8643984"><ele>904.5</ele><time>2026-05-05T14:42:19.563Z</time></trkpt><trkpt lat="38.0042993" lon="12.8644381"><ele>900.0</ele><time>2026-05-05T14:42:20.566Z</time></trkpt><trkpt lat="38.0042387" lon="12.8644846"><ele>895.5</ele><time>2026-05-05T14:42:21.564Z</time></trkpt><trkpt lat="38.004176" lon="12.8645407"><ele>891.0</ele><time>2026-05-05T14:42:22.564Z</time></trkpt><trkpt lat="38.0041075" lon="12.8646"><ele>891.0</ele><time>2026-05-05T14:42:23.564Z</time></trkpt><trkpt lat="38.0040332" lon="12.8646482"><ele>891.0</ele><time>2026-05-05T14:42:24.564Z</time></trkpt><trkpt lat="38.0039588" lon="12.8646928"><ele>891.0</ele><time>2026-05-05T14:42:25.563Z</time></trkpt><trkpt lat="38.003885" lon="12.8647409"><ele>891.0</ele><time>2026-05-05T14:42:26.565Z</time></trkpt><trkpt lat="38.0038135" lon="12.8647907"><ele>891.0</ele><time>2026-05-05T14:42:27.564Z</time></trkpt><trkpt lat="38.0037434" lon="12.8648395"><ele>891.0</ele><time>2026-05-05T14:42:28.565Z</time></trkpt><trkpt lat="38.0036749" lon="12.864887"><ele>891.0</ele><time>2026-05-05T14:42:29.564Z</time></trkpt><trkpt lat="38.003608" lon="12.8649306"><ele>891.0</ele><time>2026-05-05T14:42:30.564Z</time></trkpt><trkpt lat="38.0035459" lon="12.8649559"><ele>891.0</ele><time>2026-05-05T14:42:31.564Z</time></trkpt><trkpt lat="38.0034461" lon="12.8649972"><ele>891.0</ele><time>2026-05-05T14:42:33.564Z</time></trkpt><trkpt lat="38.0034059" lon="12.8650707"><ele>891.0</ele><time>2026-05-05T14:42:35.564Z</time></trkpt><trkpt lat="38.0034868" lon="12.8651443"><ele>891.0</ele><time>2026-05-05T14:42:38.564Z</time></trkpt><trkpt lat="38.0036133" lon="12.8651413"><ele>886.6666666666666</ele><time>2026-05-05T14:42:40.564Z</time></trkpt><trkpt lat="38.0036879" lon="12.8651426"><ele>882.3333333333333</ele><time>2026-05-05T14:42:41.565Z</time></trkpt><trkpt lat="38.0037688" lon="12.8651458"><ele>878.0</ele><time>2026-05-05T14:42:42.564Z</time></trkpt><trkpt lat="38.0038575" lon="12.8651504"><ele>873.6666666666666</ele><time>2026-05-05T14:42:43.564Z</time></trkpt><trkpt lat="38.0039531" lon="12.8651518"><ele>869.3333333333333</ele><time>2026-05-05T14:42:44.564Z</time></trkpt><trkpt lat="38.0040532" lon="12.8651465"><ele>865.0</ele><time>2026-05-05T14:42:45.563Z</time></trkpt><trkpt lat="38.0041493" lon="12.8651393"><ele>864.9999999999999</ele><time>2026-05-05T14:42:46.564Z</time></trkpt><trkpt lat="38.0042389" lon="12.8651269"><ele>865.0</ele><time>2026-05-05T14:42:47.564Z</time></trkpt><trkpt lat="38.004323" lon="12.8651162"><ele>865.0</ele><time>2026-05-05T14:42:48.563Z</time></trkpt><trkpt lat="38.0044057" lon="12.8651206"><ele>865.0</ele><time>2026-05-05T14:42:49.564Z</time></trkpt><trkpt lat="38.0044941" lon="12.8651391"><ele>864.9999999999999</ele><time>2026-05-05T14:42:50.566Z</time></trkpt><trkpt lat="38.0045882" lon="12.8651699"><ele>865.0</ele><time>2026-05-05T14:42:51.564Z</time></trkpt><trkpt lat="38.0046808" lon="12.8652014"><ele>864.9999999999999</ele><time>2026-05-05T14:42:52.564Z</time></trkpt><trkpt lat="38.0047695" lon="12.8652284"><ele>865.0</ele><time>2026-05-05T14:42:53.563Z</time></trkpt><trkpt lat="38.0048457" lon="12.8652466"><ele>865.0</ele><time>2026-05-05T14:42:54.563Z</time></trkpt><trkpt lat="38.0049162" lon="12.8652692"><ele>865.0</ele><time>2026-05-05T14:42:55.563Z</time></trkpt><trkpt lat="38.004978" lon="12.8653027"><ele>864.9999999999999</ele><time>2026-05-05T14:42:56.564Z</time></trkpt><trkpt lat="38.0050629" lon="12.8653848"><ele>865.0</ele><time>2026-05-05T14:42:58.565Z</time></trkpt><trkpt lat="38.0050832" lon="12.8654699"><ele>864.9999999999999</ele><time>2026-05-05T14:43:00.565Z</time></trkpt><trkpt lat="38.0050303" lon="12.8655326"><ele>865.0</ele><time>2026-05-05T14:43:02.564Z</time></trkpt><trkpt lat="38.0049172" lon="12.8655539"><ele>865.0</ele><time>2026-05-05T14:43:04.565Z</time></trkpt><trkpt lat="38.0048399" lon="12.8655629"><ele>865.0</ele><time>2026-05-05T14:43:05.563Z</time></trkpt><trkpt lat="38.0047621" lon="12.8655803"><ele>864.9999999999999</ele><time>2026-05-05T14:43:06.565Z</time></trkpt><trkpt lat="38.0046825" lon="12.865614"><ele>865.0</ele><time>2026-05-05T14:43:07.563Z</time></trkpt><trkpt lat="38.0046041" lon="12.8656476"><ele>864.9999999999999</ele><time>2026-05-05T14:43:08.565Z</time></trkpt><trkpt lat="38.0045288" lon="12.8656694"><ele>865.0</ele><time>2026-05-05T14:43:09.563Z</time></trkpt><trkpt lat="38.0044621" lon="12.8656804"><ele>865.0</ele><time>2026-05-05T14:43:10.564Z</time></trkpt><trkpt lat="38.0043408" lon="12.865683"><ele>865.0</ele><time>2026-05-05T14:43:12.564Z</time></trkpt><trkpt lat="38.0042502" lon="12.8657221"><ele>864.9999999999999</ele><time>2026-05-05T14:43:14.565Z</time></trkpt><trkpt lat="38.0042252" lon="12.8657955"><ele>865.0</ele><time>2026-05-05T14:43:16.564Z</time></trkpt><trkpt lat="38.0042905" lon="12.8658306"><ele>865.0</ele><time>2026-05-05T14:43:18.564Z</time></trkpt><trkpt lat="38.0044144" lon="12.8658514"><ele>865.0</ele><time>2026-05-05T14:43:20.565Z</time></trkpt><trkpt lat="38.0045357" lon="12.8658636"><ele>865.0</ele><time>2026-05-05T14:43:22.564Z</time></trkpt><trkpt lat="38.0046383" lon="12.865877"><ele>865.0</ele><time>2026-05-05T14:43:24.565Z</time></trkpt><trkpt lat="38.0046608" lon="12.8659728"><ele>865.0</ele><time>2026-05-05T14:43:27.565Z</time></trkpt><trkpt lat="38.0045751" lon="12.8660245"><ele>858.6</ele><time>2026-05-05T14:43:29.566Z</time></trkpt><trkpt lat="38.0044516" lon="12.8660503"><ele>852.2</ele><time>2026-05-05T14:43:31.563Z</time></trkpt><trkpt lat="38.0043862" lon="12.8660621"><ele>845.8</ele><time>2026-05-05T14:43:32.568Z</time></trkpt><trkpt lat="38.0042721" lon="12.8660971"><ele>839.4</ele><time>2026-05-05T14:43:34.563Z</time></trkpt><trkpt lat="38.0041977" lon="12.8661618"><ele>833.0</ele><time>2026-05-05T14:43:36.565Z</time></trkpt><trkpt lat="38.0042218" lon="12.8662579"><ele>833.0</ele><time>2026-05-05T14:43:39.563Z</time></trkpt><trkpt lat="38.004315" lon="12.8662469"><ele>833.0</ele><time>2026-05-05T14:43:41.563Z</time></trkpt><trkpt lat="38.0044509" lon="12.8662423"><ele>833.0</ele><time>2026-05-05T14:43:43.563Z</time></trkpt><trkpt lat="38.0045275" lon="12.8662589"><ele>833.0</ele><time>2026-05-05T14:43:44.565Z</time></trkpt><trkpt lat="38.0046034" lon="12.8662854"><ele>833.0</ele><time>2026-05-05T14:43:45.563Z</time></trkpt><trkpt lat="38.0046777" lon="12.8663286"><ele>833.0000000000001</ele><time>2026-05-05T14:43:46.564Z</time></trkpt><trkpt lat="38.0047517" lon="12.8663798"><ele>833.0</ele><time>2026-05-05T14:43:47.564Z</time></trkpt><trkpt lat="38.0048236" lon="12.8664329"><ele>833.0</ele><time>2026-05-05T14:43:48.565Z</time></trkpt><trkpt lat="38.0048937" lon="12.8664807"><ele>833.0</ele><time>2026-05-05T14:43:49.563Z</time></trkpt><trkpt lat="38.0049568" lon="12.8665376"><ele>833.0000000000001</ele><time>2026-05-05T14:43:50.564Z</time></trkpt><trkpt lat="38.0050082" lon="12.8665927"><ele>833.0</ele><time>2026-05-05T14:43:51.563Z</time></trkpt><trkpt lat="38.0050819" lon="12.8666988"><ele>833.0000000000001</ele><time>2026-05-05T14:43:53.564Z</time></trkpt><trkpt lat="38.0051372" lon="12.8667708"><ele>833.0</ele><time>2026-05-05T14:43:55.564Z</time></trkpt><trkpt lat="38.0052039" lon="12.8668281"><ele>833.0</ele><time>2026-05-05T14:43:57.564Z</time></trkpt><trkpt lat="38.0051824" lon="12.8669111"><ele>833.0</ele><time>2026-05-05T14:44:01.564Z</time></trkpt><trkpt lat="38.0050847" lon="12.8668632"><ele>833.0000000000001</ele><time>2026-05-05T14:44:04.563Z</time></trkpt><trkpt lat="38.0049864" lon="12.866826"><ele>833.0</ele><time>2026-05-05T14:44:06.563Z</time></trkpt><trkpt lat="38.0048885" lon="12.8668071"><ele>826.5000000000001</ele><time>2026-05-05T14:44:08.565Z</time></trkpt><trkpt lat="38.0047831" lon="12.8668138"><ele>820.0</ele><time>2026-05-05T14:44:10.564Z</time></trkpt><trkpt lat="38.0046621" lon="12.8668505"><ele>813.5</ele><time>2026-05-05T14:44:12.565Z</time></trkpt><trkpt lat="38.0045975" lon="12.8668753"><ele>807.0</ele><time>2026-05-05T14:44:13.565Z</time></trkpt><trkpt lat="38.0045338" lon="12.8669152"><ele>800.5000000000001</ele><time>2026-05-05T14:44:14.566Z</time></trkpt><trkpt lat="38.0044741" lon="12.8669603"><ele>794.0</ele><time>2026-05-05T14:44:15.564Z</time></trkpt><trkpt lat="38.0044154" lon="12.8670031"><ele>794.0</ele><time>2026-05-05T14:44:16.564Z</time></trkpt><trkpt lat="38.0043616" lon="12.8670501"><ele>794.0</ele><time>2026-05-05T14:44:17.564Z</time></trkpt><trkpt lat="38.0042634" lon="12.8671349"><ele>794.0</ele><time>2026-05-05T14:44:19.565Z</time></trkpt><trkpt lat="38.0041584" lon="12.8671678"><ele>794.0</ele><time>2026-05-05T14:44:21.565Z</time></trkpt><trkpt lat="38.0040473" lon="12.8672008"><ele>794.0</ele><time>2026-05-05T14:44:23.563Z</time></trkpt><trkpt lat="38.0039403" lon="12.8672427"><ele>793.3333333333334</ele><time>2026-05-05T14:44:25.565Z</time></trkpt><trkpt lat="38.0038454" lon="12.867257"><ele>792.6666666666667</ele><time>2026-05-05T14:44:27.564Z</time></trkpt><trkpt lat="38.0037331" lon="12.8672635"><ele>792.0</ele><time>2026-05-05T14:44:29.564Z</time></trkpt><trkpt lat="38.0036674" lon="12.8672721"><ele>791.3333333333333</ele><time>2026-05-05T14:44:30.564Z</time></trkpt><trkpt lat="38.0035997" lon="12.8672798"><ele>790.6666666666666</ele><time>2026-05-05T14:44:31.564Z</time></trkpt><trkpt lat="38.0035326" lon="12.867281"><ele>790.0</ele><time>2026-05-05T14:44:32.564Z</time></trkpt><trkpt lat="38.0034645" lon="12.8672807"><ele>789.9999999999999</ele><time>2026-05-05T14:44:33.564Z</time></trkpt><trkpt lat="38.003396" lon="12.8672786"><ele>790.0</ele><time>2026-05-05T14:44:34.564Z</time></trkpt><trkpt lat="38.0033274" lon="12.8672777"><ele>790.0</ele><time>2026-05-05T14:44:35.563Z</time></trkpt><trkpt lat="38.0032519" lon="12.8672776"><ele>790.0</ele><time>2026-05-05T14:44:36.565Z</time></trkpt><trkpt lat="38.0031667" lon="12.8672817"><ele>789.9999999999999</ele><time>2026-05-05T14:44:37.565Z</time></trkpt><trkpt lat="38.003078" lon="12.8672896"><ele>790.0</ele><time>2026-05-05T14:44:38.563Z</time></trkpt><trkpt lat="38.00299" lon="12.8673033"><ele>791.1666666666666</ele><time>2026-05-05T14:44:39.565Z</time></trkpt><trkpt lat="38.0029054" lon="12.8673146"><ele>792.3333333333333</ele><time>2026-05-05T14:44:40.563Z</time></trkpt><trkpt lat="38.0028257" lon="12.8673212"><ele>793.5</ele><time>2026-05-05T14:44:41.564Z</time></trkpt><trkpt lat="38.0027582" lon="12.8673238"><ele>794.6666666666667</ele><time>2026-05-05T14:44:42.565Z</time></trkpt><trkpt lat="38.0026643" lon="12.8673453"><ele>795.8333333333334</ele><time>2026-05-05T14:44:44.565Z</time></trkpt><trkpt lat="38.0026341" lon="12.8674248"><ele>797.0</ele><time>2026-05-05T14:44:47.564Z</time></trkpt><trkpt lat="38.002725" lon="12.8674553"><ele>797.0000000000001</ele><time>2026-05-05T14:44:49.564Z</time></trkpt><trkpt lat="38.0027942" lon="12.867464"><ele>797.0</ele><time>2026-05-05T14:44:50.565Z</time></trkpt><trkpt lat="38.0028687" lon="12.8674862"><ele>797.0</ele><time>2026-05-05T14:44:51.563Z</time></trkpt><trkpt lat="38.0029439" lon="12.8675214"><ele>797.0</ele><time>2026-05-05T14:44:52.564Z</time></trkpt><trkpt lat="38.0030142" lon="12.8675663"><ele>797.0000000000001</ele><time>2026-05-05T14:44:53.564Z</time></trkpt><trkpt lat="38.0030815" lon="12.8676109"><ele>797.0</ele><time>2026-05-05T14:44:54.565Z</time></trkpt><trkpt lat="38.0031487" lon="12.8676497"><ele>792.0000000000001</ele><time>2026-05-05T14:44:55.565Z</time></trkpt><trkpt lat="38.0032158" lon="12.8676827"><ele>787.0</ele><time>2026-05-05T14:44:56.565Z</time></trkpt><trkpt lat="38.0032771" lon="12.8677196"><ele>782.0</ele><time>2026-05-05T14:44:57.564Z</time></trkpt><trkpt lat="38.0033689" lon="12.8677989"><ele>777.0</ele><time>2026-05-05T14:44:59.565Z</time></trkpt><trkpt lat="38.0034397" lon="12.8678773"><ele>772.0</ele><time>2026-05-05T14:45:01.565Z</time></trkpt><trkpt lat="38.0034915" lon="12.8679753"><ele>767.0</ele><time>2026-05-05T14:45:03.564Z</time></trkpt><trkpt lat="38.0035639" lon="12.868076"><ele>765.3333333333333</ele><time>2026-05-05T14:45:05.564Z</time></trkpt><trkpt lat="38.0036594" lon="12.8681855"><ele>763.6666666666666</ele><time>2026-05-05T14:45:07.564Z</time></trkpt><trkpt lat="38.0037046" lon="12.8682514"><ele>762.0</ele><time>2026-05-05T14:45:08.565Z</time></trkpt><trkpt lat="38.0037468" lon="12.8683232"><ele>760.3333333333334</ele><time>2026-05-05T14:45:09.563Z</time></trkpt><trkpt lat="38.0037873" lon="12.8683924"><ele>758.6666666666667</ele><time>2026-05-05T14:45:10.564Z</time></trkpt><trkpt lat="38.0038708" lon="12.868474"><ele>757.0</ele><time>2026-05-05T14:45:12.565Z</time></trkpt><trkpt lat="38.0039787" lon="12.8684551"><ele>757.0</ele><time>2026-05-05T14:45:14.564Z</time></trkpt><trkpt lat="38.004048" lon="12.8684086"><ele>757.0</ele><time>2026-05-05T14:45:15.564Z</time></trkpt><trkpt lat="38.0041259" lon="12.8683539"><ele>757.0</ele><time>2026-05-05T14:45:16.563Z</time></trkpt><trkpt lat="38.0042074" lon="12.8683029"><ele>757.0</ele><time>2026-05-05T14:45:17.563Z</time></trkpt><trkpt lat="38.0042941" lon="12.8682586"><ele>757.0</ele><time>2026-05-05T14:45:18.564Z</time></trkpt><trkpt lat="38.0043842" lon="12.8682288"><ele>757.0</ele><time>2026-05-05T14:45:19.564Z</time></trkpt><trkpt lat="38.0044722" lon="12.8682164"><ele>757.6</ele><time>2026-05-05T14:45:20.565Z</time></trkpt><trkpt lat="38.0045567" lon="12.8682221"><ele>758.2</ele><time>2026-05-05T14:45:21.564Z</time></trkpt><trkpt lat="38.0046368" lon="12.8682526"><ele>758.8</ele><time>2026-05-05T14:45:22.563Z</time></trkpt><trkpt lat="38.0047217" lon="12.868325"><ele>759.4</ele><time>2026-05-05T14:45:23.564Z</time></trkpt><trkpt lat="38.0048083" lon="12.8683967"><ele>760.0</ele><time>2026-05-05T14:45:24.564Z</time></trkpt><trkpt lat="38.0048933" lon="12.86847"><ele>754.8333333333334</ele><time>2026-05-05T14:45:25.565Z</time></trkpt><trkpt lat="38.0049783" lon="12.868545"><ele>749.6666666666667</ele><time>2026-05-05T14:45:26.564Z</time></trkpt><trkpt lat="38.00506" lon="12.8686167"><ele>744.5</ele><time>2026-05-05T14:45:27.564Z</time></trkpt><trkpt lat="38.0051317" lon="12.8686817"><ele>739.3333333333334</ele><time>2026-05-05T14:45:28.564Z</time></trkpt><trkpt lat="38.0051933" lon="12.8687333"><ele>734.1666666666666</ele><time>2026-05-05T14:45:29.565Z</time></trkpt><trkpt lat="38.00525" lon="12.868775"><ele>729.0</ele><time>2026-05-05T14:45:30.564Z</time></trkpt><trkpt lat="38.0053533" lon="12.868875"><ele>729.0</ele><time>2026-05-05T14:45:32.565Z</time></trkpt><trkpt lat="38.0054067" lon="12.868935"><ele>729.0</ele><time>2026-05-05T14:45:33.564Z</time></trkpt><trkpt lat="38.00546" lon="12.8689917"><ele>729.0</ele><time>2026-05-05T14:45:34.565Z</time></trkpt><trkpt lat="38.0055117" lon="12.8690483"><ele>729.0</ele><time>2026-05-05T14:45:35.564Z</time></trkpt><trkpt lat="38.0055583" lon="12.8691117"><ele>729.0</ele><time>2026-05-05T14:45:36.564Z</time></trkpt><trkpt lat="38.0056" lon="12.869185"><ele>729.0</ele><time>2026-05-05T14:45:37.565Z</time></trkpt><trkpt lat="38.005645" lon="12.8692633"><ele>729.0</ele><time>2026-05-05T14:45:38.564Z</time></trkpt><trkpt lat="38.0056967" lon="12.8693367"><ele>727.0</ele><time>2026-05-05T14:45:39.564Z</time></trkpt><trkpt lat="38.0057567" lon="12.8694017"><ele>725.0</ele><time>2026-05-05T14:45:40.564Z</time></trkpt><trkpt lat="38.005815" lon="12.8694667"><ele>723.0</ele><time>2026-05-05T14:45:41.564Z</time></trkpt><trkpt lat="38.00587" lon="12.8695333"><ele>721.0</ele><time>2026-05-05T14:45:42.563Z</time></trkpt><trkpt lat="38.005925" lon="12.8696017"><ele>719.0</ele><time>2026-05-05T14:45:43.563Z</time></trkpt><trkpt lat="38.005985" lon="12.86967"><ele>717.0</ele><time>2026-05-05T14:45:44.565Z</time></trkpt><trkpt lat="38.0060433" lon="12.8697417"><ele>717.0</ele><time>2026-05-05T14:45:45.563Z</time></trkpt><trkpt lat="38.006105" lon="12.8698133"><ele>717.0</ele><time>2026-05-05T14:45:46.564Z</time></trkpt><trkpt lat="38.0061683" lon="12.8698833"><ele>717.0</ele><time>2026-05-05T14:45:47.565Z</time></trkpt><trkpt lat="38.0062333" lon="12.869955"><ele>717.0</ele><time>2026-05-05T14:45:48.563Z</time></trkpt><trkpt lat="38.0062933" lon="12.8700167"><ele>717.0</ele><time>2026-05-05T14:45:49.566Z</time></trkpt><trkpt lat="38.0063433" lon="12.8700717"><ele>717.0</ele><time>2026-05-05T14:45:50.565Z</time></trkpt><trkpt lat="38.006435" lon="12.8701567"><ele>714.8333333333334</ele><time>2026-05-05T14:45:52.565Z</time></trkpt><trkpt lat="38.00655" lon="12.8702133"><ele>712.6666666666666</ele><time>2026-05-05T14:45:54.564Z</time></trkpt><trkpt lat="38.0066167" lon="12.87025"><ele>710.5</ele><time>2026-05-05T14:45:55.564Z</time></trkpt><trkpt lat="38.0066867" lon="12.8702983"><ele>708.3333333333333</ele><time>2026-05-05T14:45:56.565Z</time></trkpt><trkpt lat="38.0067583" lon="12.870355"><ele>706.1666666666666</ele><time>2026-05-05T14:45:57.565Z</time></trkpt><trkpt lat="38.0068283" lon="12.87042"><ele>704.0</ele><time>2026-05-05T14:45:58.564Z</time></trkpt><trkpt lat="38.006905" lon="12.8704817"><ele>704.0</ele><time>2026-05-05T14:45:59.564Z</time></trkpt><trkpt lat="38.0069883" lon="12.8705383"><ele>704.0</ele><time>2026-05-05T14:46:00.563Z</time></trkpt><trkpt lat="38.0070733" lon="12.8705867"><ele>704.0</ele><time>2026-05-05T14:46:01.563Z</time></trkpt><trkpt lat="38.00716" lon="12.87064"><ele>704.0</ele><time>2026-05-05T14:46:02.564Z</time></trkpt><trkpt lat="38.0072433" lon="12.87068"><ele>704.0</ele><time>2026-05-05T14:46:03.564Z</time></trkpt><trkpt lat="38.00733" lon="12.8707133"><ele>704.0</ele><time>2026-05-05T14:46:04.563Z</time></trkpt><trkpt lat="38.0074167" lon="12.8707383"><ele>704.0</ele><time>2026-05-05T14:46:05.565Z</time></trkpt><trkpt lat="38.0075067" lon="12.870765"><ele>704.0</ele><time>2026-05-05T14:46:06.564Z</time></trkpt><trkpt lat="38.0075917" lon="12.8707933"><ele>704.0</ele><time>2026-05-05T14:46:07.565Z</time></trkpt><trkpt lat="38.0076767" lon="12.8708217"><ele>704.0</ele><time>2026-05-05T14:46:08.565Z</time></trkpt><trkpt lat="38.0077667" lon="12.8708417"><ele>704.0</ele><time>2026-05-05T14:46:09.564Z</time></trkpt><trkpt lat="38.0078567" lon="12.870845"><ele>704.3333333333333</ele><time>2026-05-05T14:46:10.564Z</time></trkpt><trkpt lat="38.0079467" lon="12.8708433"><ele>704.6666666666666</ele><time>2026-05-05T14:46:11.564Z</time></trkpt><trkpt lat="38.008035" lon="12.8708433"><ele>705.0</ele><time>2026-05-05T14:46:12.563Z</time></trkpt><trkpt lat="38.00812" lon="12.870835"><ele>705.3333333333334</ele><time>2026-05-05T14:46:13.564Z</time></trkpt><trkpt lat="38.0082017" lon="12.8708117"><ele>705.6666666666667</ele><time>2026-05-05T14:46:14.565Z</time></trkpt><trkpt lat="38.0082733" lon="12.870775"><ele>706.0</ele><time>2026-05-05T14:46:15.563Z</time></trkpt><trkpt lat="38.0083317" lon="12.8707233"><ele>703.5</ele><time>2026-05-05T14:46:16.564Z</time></trkpt><trkpt lat="38.0083783" lon="12.870655"><ele>701.0</ele><time>2026-05-05T14:46:17.564Z</time></trkpt><trkpt lat="38.0084317" lon="12.87058"><ele>698.5</ele><time>2026-05-05T14:46:18.564Z</time></trkpt><trkpt lat="38.0084917" lon="12.8705"><ele>696.0</ele><time>2026-05-05T14:46:19.565Z</time></trkpt><trkpt lat="38.008555" lon="12.8704167"><ele>693.5</ele><time>2026-05-05T14:46:20.564Z</time></trkpt><trkpt lat="38.0086133" lon="12.870325"><ele>691.0</ele><time>2026-05-05T14:46:21.565Z</time></trkpt><trkpt lat="38.0086717" lon="12.8702267"><ele>691.0</ele><time>2026-05-05T14:46:22.563Z</time></trkpt><trkpt lat="38.008725" lon="12.8701317"><ele>691.0</ele><time>2026-05-05T14:46:23.565Z</time></trkpt><trkpt lat="38.0087717" lon="12.8700367"><ele>691.0</ele><time>2026-05-05T14:46:24.564Z</time></trkpt><trkpt lat="38.0088167" lon="12.86994"><ele>691.0</ele><time>2026-05-05T14:46:25.565Z</time></trkpt><trkpt lat="38.0088533" lon="12.86985"><ele>691.0</ele><time>2026-05-05T14:46:26.565Z</time></trkpt><trkpt lat="38.0088867" lon="12.8697683"><ele>691.0</ele><time>2026-05-05T14:46:27.564Z</time></trkpt><trkpt lat="38.00892" lon="12.8696933"><ele>692.1666666666667</ele><time>2026-05-05T14:46:28.563Z</time></trkpt><trkpt lat="38.0089817" lon="12.8695683"><ele>693.3333333333334</ele><time>2026-05-05T14:46:30.564Z</time></trkpt><trkpt lat="38.009045" lon="12.8694433"><ele>694.5</ele><time>2026-05-05T14:46:32.565Z</time></trkpt><trkpt lat="38.0090783" lon="12.8693717"><ele>695.6666666666666</ele><time>2026-05-05T14:46:33.563Z</time></trkpt><trkpt lat="38.0091133" lon="12.869295"><ele>696.8333333333333</ele><time>2026-05-05T14:46:34.565Z</time></trkpt><trkpt lat="38.0091533" lon="12.86923"><ele>698.0</ele><time>2026-05-05T14:46:35.564Z</time></trkpt><trkpt lat="38.0091917" lon="12.8691517"><ele>698.0</ele><time>2026-05-05T14:46:36.564Z</time></trkpt><trkpt lat="38.0092333" lon="12.8690817"><ele>698.0</ele><time>2026-05-05T14:46:37.564Z</time></trkpt><trkpt lat="38.0092883" lon="12.86901"><ele>698.0</ele><time>2026-05-05T14:46:38.564Z</time></trkpt><trkpt lat="38.009335" lon="12.8689383"><ele>698.0</ele><time>2026-05-05T14:46:39.564Z</time></trkpt><trkpt lat="38.0093817" lon="12.86886"><ele>698.0</ele><time>2026-05-05T14:46:40.564Z</time></trkpt><trkpt lat="38.0094283" lon="12.8687817"><ele>698.0</ele><time>2026-05-05T14:46:41.564Z</time></trkpt><trkpt lat="38.0094867" lon="12.8687017"><ele>698.0</ele><time>2026-05-05T14:46:42.564Z</time></trkpt><trkpt lat="38.0095467" lon="12.868625"><ele>698.0</ele><time>2026-05-05T14:46:43.564Z</time></trkpt><trkpt lat="38.0096133" lon="12.8685567"><ele>698.0</ele><time>2026-05-05T14:46:44.565Z</time></trkpt><trkpt lat="38.0096867" lon="12.86853"><ele>698.0</ele><time>2026-05-05T14:46:45.563Z</time></trkpt><trkpt lat="38.00978" lon="12.8685067"><ele>698.0</ele><time>2026-05-05T14:46:46.564Z</time></trkpt><trkpt lat="38.009865" lon="12.8684933"><ele>698.0</ele><time>2026-05-05T14:46:47.564Z</time></trkpt><trkpt lat="38.00995" lon="12.8685"><ele>695.8</ele><time>2026-05-05T14:46:48.564Z</time></trkpt><trkpt lat="38.0100433" lon="12.868515"><ele>693.5999999999999</ele><time>2026-05-05T14:46:49.565Z</time></trkpt><trkpt lat="38.01013" lon="12.8685383"><ele>691.4000000000001</ele><time>2026-05-05T14:46:50.563Z</time></trkpt><trkpt lat="38.01022" lon="12.8685517"><ele>689.2</ele><time>2026-05-05T14:46:51.564Z</time></trkpt><trkpt lat="38.01032" lon="12.8685917"><ele>687.0</ele><time>2026-05-05T14:46:52.564Z</time></trkpt><trkpt lat="38.0104217" lon="12.8686367"><ele>687.0</ele><time>2026-05-05T14:46:53.564Z</time></trkpt><trkpt lat="38.0105183" lon="12.8686783"><ele>687.0</ele><time>2026-05-05T14:46:54.564Z</time></trkpt><trkpt lat="38.0106167" lon="12.8687517"><ele>687.0</ele><time>2026-05-05T14:46:55.564Z</time></trkpt><trkpt lat="38.01071" lon="12.8688167"><ele>687.0</ele><time>2026-05-05T14:46:56.564Z</time></trkpt><trkpt lat="38.0107983" lon="12.8688783"><ele>687.0</ele><time>2026-05-05T14:46:57.564Z</time></trkpt><trkpt lat="38.0108867" lon="12.86895"><ele>688.1666666666666</ele><time>2026-05-05T14:46:58.564Z</time></trkpt><trkpt lat="38.0109667" lon="12.8690267"><ele>689.3333333333334</ele><time>2026-05-05T14:46:59.566Z</time></trkpt><trkpt lat="38.01104" lon="12.8691017"><ele>690.5</ele><time>2026-05-05T14:47:00.563Z</time></trkpt><trkpt lat="38.011115" lon="12.8691583"><ele>691.6666666666667</ele><time>2026-05-05T14:47:01.564Z</time></trkpt><trkpt lat="38.0111903" lon="12.8692107"><ele>692.8333333333334</ele><time>2026-05-05T14:47:02.564Z</time></trkpt><trkpt lat="38.0112572" lon="12.8692574"><ele>694.0</ele><time>2026-05-05T14:47:03.563Z</time></trkpt><trkpt lat="38.0113088" lon="12.869306"><ele>694.0</ele><time>2026-05-05T14:47:04.563Z</time></trkpt><trkpt lat="38.0113896" lon="12.8694257"><ele>694.0</ele><time>2026-05-05T14:47:06.564Z</time></trkpt><trkpt lat="38.0114203" lon="12.8695031"><ele>694.0</ele><time>2026-05-05T14:47:07.564Z</time></trkpt><trkpt lat="38.0114549" lon="12.8695826"><ele>694.0</ele><time>2026-05-05T14:47:08.564Z</time></trkpt><trkpt lat="38.0115017" lon="12.8696566"><ele>694.0</ele><time>2026-05-05T14:47:09.564Z</time></trkpt><trkpt lat="38.0115656" lon="12.8697169"><ele>694.0</ele><time>2026-05-05T14:47:10.564Z</time></trkpt><trkpt lat="38.0116414" lon="12.8697532"><ele>696.5</ele><time>2026-05-05T14:47:11.564Z</time></trkpt><trkpt lat="38.0117283" lon="12.8697742"><ele>699.0</ele><time>2026-05-05T14:47:12.565Z</time></trkpt><trkpt lat="38.0118198" lon="12.869784"><ele>701.5</ele><time>2026-05-05T14:47:13.564Z</time></trkpt><trkpt lat="38.0119112" lon="12.8697856"><ele>704.0</ele><time>2026-05-05T14:47:14.564Z</time></trkpt><trkpt lat="38.0120006" lon="12.8697831"><ele>706.5</ele><time>2026-05-05T14:47:15.563Z</time></trkpt><trkpt lat="38.012085" lon="12.8697834"><ele>709.0</ele><time>2026-05-05T14:47:16.565Z</time></trkpt><trkpt lat="38.0121672" lon="12.8697878"><ele>709.0</ele><time>2026-05-05T14:47:17.564Z</time></trkpt><trkpt lat="38.0122484" lon="12.8697904"><ele>709.0</ele><time>2026-05-05T14:47:18.565Z</time></trkpt><trkpt lat="38.0123268" lon="12.8697959"><ele>709.0</ele><time>2026-05-05T14:47:19.565Z</time></trkpt><trkpt lat="38.0124036" lon="12.8698059"><ele>709.0</ele><time>2026-05-05T14:47:20.565Z</time></trkpt><trkpt lat="38.01248" lon="12.8698171"><ele>709.0</ele><time>2026-05-05T14:47:21.563Z</time></trkpt><trkpt lat="38.0125591" lon="12.8698344"><ele>709.0</ele><time>2026-05-05T14:47:22.565Z</time></trkpt><trkpt lat="38.0126406" lon="12.8698603"><ele>707.5</ele><time>2026-05-05T14:47:23.565Z</time></trkpt><trkpt lat="38.0127214" lon="12.8698897"><ele>706.0</ele><time>2026-05-05T14:47:24.563Z</time></trkpt><trkpt lat="38.0128059" lon="12.8699214"><ele>704.5</ele><time>2026-05-05T14:47:25.563Z</time></trkpt><trkpt lat="38.0128915" lon="12.869952"><ele>703.0</ele><time>2026-05-05T14:47:26.564Z</time></trkpt><trkpt lat="38.0129748" lon="12.8699827"><ele>701.5</ele><time>2026-05-05T14:47:27.563Z</time></trkpt><trkpt lat="38.0130556" lon="12.8700115"><ele>700.0</ele><time>2026-05-05T14:47:28.564Z</time></trkpt><trkpt lat="38.0131339" lon="12.87004"><ele>700.0</ele><time>2026-05-05T14:47:29.564Z</time></trkpt><trkpt lat="38.0132105" lon="12.8700663"><ele>700.0</ele><time>2026-05-05T14:47:30.564Z</time></trkpt><trkpt lat="38.0132829" lon="12.8700995"><ele>700.0</ele><time>2026-05-05T14:47:31.565Z</time></trkpt><trkpt lat="38.013351" lon="12.8701434"><ele>700.0</ele><time>2026-05-05T14:47:32.564Z</time></trkpt><trkpt lat="38.0134188" lon="12.8701897"><ele>700.0</ele><time>2026-05-05T14:47:33.564Z</time></trkpt><trkpt lat="38.0134851" lon="12.8702288"><ele>700.0</ele><time>2026-05-05T14:47:34.564Z</time></trkpt><trkpt lat="38.0135505" lon="12.8702657"><ele>699.1666666666667</ele><time>2026-05-05T14:47:35.564Z</time></trkpt><trkpt lat="38.0136169" lon="12.8703014"><ele>698.3333333333334</ele><time>2026-05-05T14:47:36.564Z</time></trkpt><trkpt lat="38.0136747" lon="12.8703355"><ele>697.5</ele><time>2026-05-05T14:47:37.564Z</time></trkpt><trkpt lat="38.0137723" lon="12.8704141"><ele>696.6666666666666</ele><time>2026-05-05T14:47:39.564Z</time></trkpt><trkpt lat="38.0138373" lon="12.8705054"><ele>695.8333333333333</ele><time>2026-05-05T14:47:41.564Z</time></trkpt><trkpt lat="38.0138948" lon="12.8705561"><ele>695.0</ele><time>2026-05-05T14:47:43.563Z</time></trkpt><trkpt lat="38.0139382" lon="12.8704923"><ele>695.0</ele><time>2026-05-05T14:47:46.564Z</time></trkpt><trkpt lat="38.0138923" lon="12.8704138"><ele>695.0</ele><time>2026-05-05T14:47:48.565Z</time></trkpt><trkpt lat="38.0137983" lon="12.870325"><ele>695.0</ele><time>2026-05-05T14:47:50.565Z</time></trkpt><trkpt lat="38.0137467" lon="12.87027"><ele>695.0</ele><time>2026-05-05T14:47:51.563Z</time></trkpt><trkpt lat="38.0136917" lon="12.8702117"><ele>695.0</ele><time>2026-05-05T14:47:52.564Z</time></trkpt><trkpt lat="38.0136333" lon="12.8701533"><ele>695.0</ele><time>2026-05-05T14:47:53.563Z</time></trkpt><trkpt lat="38.0135717" lon="12.870095"><ele>695.8333333333333</ele><time>2026-05-05T14:47:54.564Z</time></trkpt><trkpt lat="38.0135033" lon="12.8700417"><ele>696.6666666666666</ele><time>2026-05-05T14:47:55.565Z</time></trkpt><trkpt lat="38.0134333" lon="12.8699883"><ele>697.5</ele><time>2026-05-05T14:47:56.565Z</time></trkpt><trkpt lat="38.01337" lon="12.8699417"><ele>698.3333333333334</ele><time>2026-05-05T14:47:57.563Z</time></trkpt><trkpt lat="38.0133033" lon="12.8698933"><ele>699.1666666666667</ele><time>2026-05-05T14:47:58.564Z</time></trkpt><trkpt lat="38.0132383" lon="12.8698433"><ele>700.0</ele><time>2026-05-05T14:47:59.563Z</time></trkpt><trkpt lat="38.013175" lon="12.8697917"><ele>700.0</ele><time>2026-05-05T14:48:00.564Z</time></trkpt><trkpt lat="38.0131067" lon="12.8697367"><ele>700.0</ele><time>2026-05-05T14:48:01.564Z</time></trkpt><trkpt lat="38.01304" lon="12.8696817"><ele>700.0</ele><time>2026-05-05T14:48:02.564Z</time></trkpt><trkpt lat="38.0129683" lon="12.869625"><ele>700.0</ele><time>2026-05-05T14:48:03.564Z</time></trkpt><trkpt lat="38.0128933" lon="12.86957"><ele>700.0</ele><time>2026-05-05T14:48:04.564Z</time></trkpt><trkpt lat="38.012815" lon="12.869515"><ele>700.0</ele><time>2026-05-05T14:48:05.564Z</time></trkpt><trkpt lat="38.0127333" lon="12.8694617"><ele>700.0</ele><time>2026-05-05T14:48:06.564Z</time></trkpt><trkpt lat="38.0126533" lon="12.8694017"><ele>700.0</ele><time>2026-05-05T14:48:07.564Z</time></trkpt><trkpt lat="38.0125733" lon="12.86934"><ele>700.0</ele><time>2026-05-05T14:48:08.565Z</time></trkpt><trkpt lat="38.012495" lon="12.869275"><ele>700.0</ele><time>2026-05-05T14:48:09.564Z</time></trkpt><trkpt lat="38.0124233" lon="12.8692083"><ele>700.0</ele><time>2026-05-05T14:48:10.564Z</time></trkpt><trkpt lat="38.012365" lon="12.869135"><ele>700.1666666666667</ele><time>2026-05-05T14:48:11.565Z</time></trkpt><trkpt lat="38.0123233" lon="12.86906"><ele>700.3333333333334</ele><time>2026-05-05T14:48:12.564Z</time></trkpt><trkpt lat="38.0122983" lon="12.868975"><ele>700.5</ele><time>2026-05-05T14:48:13.565Z</time></trkpt><trkpt lat="38.0123" lon="12.86887"><ele>700.6666666666666</ele><time>2026-05-05T14:48:14.564Z</time></trkpt><trkpt lat="38.0123167" lon="12.8687617"><ele>700.8333333333333</ele><time>2026-05-05T14:48:15.564Z</time></trkpt><trkpt lat="38.0123567" lon="12.868645"><ele>701.0</ele><time>2026-05-05T14:48:16.564Z</time></trkpt><trkpt lat="38.0123917" lon="12.8685217"><ele>703.1999999999999</ele><time>2026-05-05T14:48:17.564Z</time></trkpt><trkpt lat="38.01242" lon="12.8683967"><ele>705.4</ele><time>2026-05-05T14:48:18.564Z</time></trkpt><trkpt lat="38.012445" lon="12.8682683"><ele>707.6</ele><time>2026-05-05T14:48:19.565Z</time></trkpt><trkpt lat="38.012465" lon="12.8681333"><ele>709.8</ele><time>2026-05-05T14:48:20.564Z</time></trkpt><trkpt lat="38.0124833" lon="12.8679967"><ele>712.0</ele><time>2026-05-05T14:48:21.564Z</time></trkpt><trkpt lat="38.0124983" lon="12.8678567"><ele>701.5</ele><time>2026-05-05T14:48:22.564Z</time></trkpt><trkpt lat="38.012515" lon="12.867715"><ele>691.0</ele><time>2026-05-05T14:48:23.563Z</time></trkpt><trkpt lat="38.012535" lon="12.8675717"><ele>680.5</ele><time>2026-05-05T14:48:24.563Z</time></trkpt><trkpt lat="38.0125567" lon="12.8674317"><ele>670.0</ele><time>2026-05-05T14:48:25.564Z</time></trkpt><trkpt lat="38.01258" lon="12.867295"><ele>670.0</ele><time>2026-05-05T14:48:26.565Z</time></trkpt><trkpt lat="38.0126033" lon="12.8671583"><ele>670.0</ele><time>2026-05-05T14:48:27.562Z</time></trkpt><trkpt lat="38.0126233" lon="12.867015"><ele>670.0</ele><time>2026-05-05T14:48:28.564Z</time></trkpt><trkpt lat="38.0126433" lon="12.86687"><ele>670.0</ele><time>2026-05-05T14:48:29.564Z</time></trkpt><trkpt lat="38.012655" lon="12.866725"><ele>670.75</ele><time>2026-05-05T14:48:30.565Z</time></trkpt><trkpt lat="38.012665" lon="12.86658"><ele>671.5</ele><time>2026-05-05T14:48:31.564Z</time></trkpt><trkpt lat="38.01267" lon="12.866435"><ele>672.25</ele><time>2026-05-05T14:48:32.565Z</time></trkpt><trkpt lat="38.012675" lon="12.8662867"><ele>673.0</ele><time>2026-05-05T14:48:33.563Z</time></trkpt><trkpt lat="38.012685" lon="12.86614"><ele>673.0</ele><time>2026-05-05T14:48:34.564Z</time></trkpt><trkpt lat="38.0126983" lon="12.8659883"><ele>673.0</ele><time>2026-05-05T14:48:35.564Z</time></trkpt><trkpt lat="38.0127083" lon="12.865845"><ele>673.0</ele><time>2026-05-05T14:48:36.565Z</time></trkpt><trkpt lat="38.0127133" lon="12.8657083"><ele>673.0</ele><time>2026-05-05T14:48:37.564Z</time></trkpt><trkpt lat="38.01271" lon="12.8655733"><ele>673.0</ele><time>2026-05-05T14:48:38.565Z</time></trkpt><trkpt lat="38.0127033" lon="12.8654367"><ele>673.75</ele><time>2026-05-05T14:48:39.564Z</time></trkpt><trkpt lat="38.0126889" lon="12.8653013"><ele>674.5</ele><time>2026-05-05T14:48:40.563Z</time></trkpt><trkpt lat="38.0126735" lon="12.8651621"><ele>675.25</ele><time>2026-05-05T14:48:41.563Z</time></trkpt><trkpt lat="38.0126635" lon="12.865017"><ele>676.0</ele><time>2026-05-05T14:48:42.565Z</time></trkpt><trkpt lat="38.0126602" lon="12.8648691"><ele>676.0</ele><time>2026-05-05T14:48:43.564Z</time></trkpt><trkpt lat="38.0126579" lon="12.8647149"><ele>676.0</ele><time>2026-05-05T14:48:44.564Z</time></trkpt><trkpt lat="38.0126508" lon="12.864559"><ele>676.0</ele><time>2026-05-05T14:48:45.565Z</time></trkpt><trkpt lat="38.0126417" lon="12.8644032"><ele>676.0</ele><time>2026-05-05T14:48:46.565Z</time></trkpt><trkpt lat="38.012641" lon="12.8642452"><ele>676.25</ele><time>2026-05-05T14:48:47.563Z</time></trkpt><trkpt lat="38.0126448" lon="12.8640828"><ele>676.5</ele><time>2026-05-05T14:48:48.564Z</time></trkpt><trkpt lat="38.0126581" lon="12.863924"><ele>676.75</ele><time>2026-05-05T14:48:49.564Z</time></trkpt><trkpt lat="38.0126745" lon="12.8637688"><ele>677.0</ele><time>2026-05-05T14:48:50.565Z</time></trkpt><trkpt lat="38.0126994" lon="12.8636189"><ele>677.0</ele><time>2026-05-05T14:48:51.563Z</time></trkpt><trkpt lat="38.0127307" lon="12.8634709"><ele>677.0</ele><time>2026-05-05T14:48:52.564Z</time></trkpt><trkpt lat="38.0127637" lon="12.8633242"><ele>677.0</ele><time>2026-05-05T14:48:53.565Z</time></trkpt><trkpt lat="38.0128033" lon="12.8631836"><ele>677.0</ele><time>2026-05-05T14:48:54.564Z</time></trkpt><trkpt lat="38.0128441" lon="12.8630444"><ele>678.5</ele><time>2026-05-05T14:48:55.564Z</time></trkpt><trkpt lat="38.0128833" lon="12.8629065"><ele>680.0</ele><time>2026-05-05T14:48:56.564Z</time></trkpt><trkpt lat="38.0129267" lon="12.8627713"><ele>681.5</ele><time>2026-05-05T14:48:57.563Z</time></trkpt><trkpt lat="38.0129746" lon="12.8626387"><ele>683.0</ele><time>2026-05-05T14:48:58.564Z</time></trkpt><trkpt lat="38.0130288" lon="12.862512"><ele>686.5</ele><time>2026-05-05T14:48:59.564Z</time></trkpt><trkpt lat="38.0130824" lon="12.8623828"><ele>690.0</ele><time>2026-05-05T14:49:00.563Z</time></trkpt><trkpt lat="38.0131374" lon="12.8622505"><ele>693.5</ele><time>2026-05-05T14:49:01.564Z</time></trkpt><trkpt lat="38.0131954" lon="12.862122"><ele>697.0</ele><time>2026-05-05T14:49:02.566Z</time></trkpt><trkpt lat="38.0132566" lon="12.8619953"><ele>692.6</ele><time>2026-05-05T14:49:03.564Z</time></trkpt><trkpt lat="38.0133229" lon="12.8618727"><ele>688.2</ele><time>2026-05-05T14:49:04.564Z</time></trkpt><trkpt lat="38.0133953" lon="12.8617592"><ele>683.8</ele><time>2026-05-05T14:49:05.565Z</time></trkpt><trkpt lat="38.0134708" lon="12.8616551"><ele>679.4</ele><time>2026-05-05T14:49:06.564Z</time></trkpt><trkpt lat="38.0135468" lon="12.8615718"><ele>675.0</ele><time>2026-05-05T14:49:07.564Z</time></trkpt><trkpt lat="38.0136181" lon="12.8615079"><ele>675.0</ele><time>2026-05-05T14:49:08.564Z</time></trkpt><trkpt lat="38.0136854" lon="12.8614508"><ele>675.0</ele><time>2026-05-05T14:49:09.563Z</time></trkpt><trkpt lat="38.0137426" lon="12.8613887"><ele>675.0</ele><time>2026-05-05T14:49:10.565Z</time></trkpt><trkpt lat="38.0137854" lon="12.8613134"><ele>675.0</ele><time>2026-05-05T14:49:11.564Z</time></trkpt><trkpt lat="38.0138171" lon="12.8612216"><ele>675.0</ele><time>2026-05-05T14:49:12.563Z</time></trkpt><trkpt lat="38.0138376" lon="12.8611164"><ele>675.0</ele><time>2026-05-05T14:49:13.564Z</time></trkpt><trkpt lat="38.0138537" lon="12.8610037"><ele>679.0</ele><time>2026-05-05T14:49:14.565Z</time></trkpt><trkpt lat="38.0138698" lon="12.8608885"><ele>683.0</ele><time>2026-05-05T14:49:15.565Z</time></trkpt><trkpt lat="38.0138892" lon="12.8607681"><ele>687.0</ele><time>2026-05-05T14:49:16.565Z</time></trkpt><trkpt lat="38.0139109" lon="12.8606418"><ele>691.0</ele><time>2026-05-05T14:49:17.563Z</time></trkpt><trkpt lat="38.013936" lon="12.8605138"><ele>695.0</ele><time>2026-05-05T14:49:18.563Z</time></trkpt><trkpt lat="38.0139642" lon="12.8603842"><ele>695.0</ele><time>2026-05-05T14:49:19.563Z</time></trkpt><trkpt lat="38.0139906" lon="12.860252"><ele>695.0</ele><time>2026-05-05T14:49:20.565Z</time></trkpt><trkpt lat="38.0140161" lon="12.8601186"><ele>695.0</ele><time>2026-05-05T14:49:21.564Z</time></trkpt><trkpt lat="38.0140371" lon="12.8599872"><ele>695.0</ele><time>2026-05-05T14:49:22.564Z</time></trkpt><trkpt lat="38.0140505" lon="12.8598657"><ele>695.0</ele><time>2026-05-05T14:49:23.565Z</time></trkpt><trkpt lat="38.0140591" lon="12.8597601"><ele>696.6666666666666</ele><time>2026-05-05T14:49:24.563Z</time></trkpt><trkpt lat="38.0140684" lon="12.859675"><ele>698.3333333333333</ele><time>2026-05-05T14:49:25.564Z</time></trkpt><trkpt lat="38.0140769" lon="12.8595841"><ele>700.0</ele><time>2026-05-05T14:49:27.565Z</time></trkpt><trkpt lat="38.0141311" lon="12.8595127"><ele>701.6666666666666</ele><time>2026-05-05T14:49:31.565Z</time></trkpt><trkpt lat="38.0141688" lon="12.8595946"><ele>703.3333333333334</ele><time>2026-05-05T14:49:34.564Z</time></trkpt><trkpt lat="38.0141697" lon="12.8597038"><ele>705.0</ele><time>2026-05-05T14:49:36.564Z</time></trkpt><trkpt lat="38.014167" lon="12.8598736"><ele>705.0</ele><time>2026-05-05T14:49:38.564Z</time></trkpt><trkpt lat="38.0141606" lon="12.8599718"><ele>705.0</ele><time>2026-05-05T14:49:39.563Z</time></trkpt><trkpt lat="38.0141547" lon="12.8600705"><ele>705.0</ele><time>2026-05-05T14:49:40.564Z</time></trkpt><trkpt lat="38.0141469" lon="12.8601722"><ele>705.0</ele><time>2026-05-05T14:49:41.564Z</time></trkpt><trkpt lat="38.0141415" lon="12.8602759"><ele>705.0</ele><time>2026-05-05T14:49:42.563Z</time></trkpt><trkpt lat="38.0141332" lon="12.8603769"><ele>705.0</ele><time>2026-05-05T14:49:43.563Z</time></trkpt><trkpt lat="38.0141229" lon="12.860476"><ele>703.3333333333334</ele><time>2026-05-05T14:49:44.565Z</time></trkpt><trkpt lat="38.0141171" lon="12.8605769"><ele>701.6666666666666</ele><time>2026-05-05T14:49:45.564Z</time></trkpt><trkpt lat="38.0141173" lon="12.8606784"><ele>700.0</ele><time>2026-05-05T14:49:46.563Z</time></trkpt><trkpt lat="38.014115" lon="12.8607813"><ele>698.3333333333333</ele><time>2026-05-05T14:49:47.563Z</time></trkpt><trkpt lat="38.014112" lon="12.8608887"><ele>696.6666666666666</ele><time>2026-05-05T14:49:48.564Z</time></trkpt><trkpt lat="38.0141045" lon="12.8610038"><ele>695.0</ele><time>2026-05-05T14:49:49.564Z</time></trkpt><trkpt lat="38.0140913" lon="12.8611156"><ele>691.6666666666666</ele><time>2026-05-05T14:49:50.564Z</time></trkpt><trkpt lat="38.0140858" lon="12.8612224"><ele>688.3333333333333</ele><time>2026-05-05T14:49:51.564Z</time></trkpt><trkpt lat="38.0140846" lon="12.8613233"><ele>685.0</ele><time>2026-05-05T14:49:52.565Z</time></trkpt><trkpt lat="38.0140805" lon="12.8614165"><ele>681.6666666666666</ele><time>2026-05-05T14:49:53.563Z</time></trkpt><trkpt lat="38.0140725" lon="12.8615012"><ele>678.3333333333334</ele><time>2026-05-05T14:49:54.565Z</time></trkpt><trkpt lat="38.0140416" lon="12.861648"><ele>675.0</ele><time>2026-05-05T14:49:56.564Z</time></trkpt><trkpt lat="38.0139821" lon="12.8617862"><ele>672.2857142857142</ele><time>2026-05-05T14:49:58.564Z</time></trkpt><trkpt lat="38.013945" lon="12.861854"><ele>669.5714285714286</ele><time>2026-05-05T14:49:59.563Z</time></trkpt><trkpt lat="38.013896" lon="12.8619196"><ele>666.8571428571429</ele><time>2026-05-05T14:50:00.564Z</time></trkpt><trkpt lat="38.0138417" lon="12.8619859"><ele>664.1428571428571</ele><time>2026-05-05T14:50:01.563Z</time></trkpt><trkpt lat="38.013784" lon="12.8620524"><ele>661.4285714285714</ele><time>2026-05-05T14:50:02.564Z</time></trkpt><trkpt lat="38.0137301" lon="12.862127"><ele>658.7142857142857</ele><time>2026-05-05T14:50:03.564Z</time></trkpt><trkpt lat="38.0136819" lon="12.8622082"><ele>656.0</ele><time>2026-05-05T14:50:04.563Z</time></trkpt><trkpt lat="38.0136374" lon="12.8622948"><ele>656.0</ele><time>2026-05-05T14:50:05.564Z</time></trkpt><trkpt lat="38.0135977" lon="12.8623983"><ele>656.0</ele><time>2026-05-05T14:50:06.564Z</time></trkpt><trkpt lat="38.0135585" lon="12.862512"><ele>656.0</ele><time>2026-05-05T14:50:07.564Z</time></trkpt><trkpt lat="38.013521" lon="12.8626299"><ele>656.0</ele><time>2026-05-05T14:50:08.564Z</time></trkpt><trkpt lat="38.0134876" lon="12.8627491"><ele>656.0</ele><time>2026-05-05T14:50:09.563Z</time></trkpt><trkpt lat="38.0134589" lon="12.8628677"><ele>653.4</ele><time>2026-05-05T14:50:10.564Z</time></trkpt><trkpt lat="38.0134376" lon="12.8629866"><ele>650.8</ele><time>2026-05-05T14:50:11.564Z</time></trkpt><trkpt lat="38.0134223" lon="12.8631081"><ele>648.1999999999999</ele><time>2026-05-05T14:50:12.564Z</time></trkpt><trkpt lat="38.0134058" lon="12.8632359"><ele>645.5999999999999</ele><time>2026-05-05T14:50:13.564Z</time></trkpt><trkpt lat="38.0133895" lon="12.8633719"><ele>643.0</ele><time>2026-05-05T14:50:14.564Z</time></trkpt><trkpt lat="38.0133714" lon="12.863515"><ele>640.0</ele><time>2026-05-05T14:50:15.564Z</time></trkpt><trkpt lat="38.0133555" lon="12.863663"><ele>637.0</ele><time>2026-05-05T14:50:16.564Z</time></trkpt><trkpt lat="38.0133449" lon="12.8638127"><ele>634.0</ele><time>2026-05-05T14:50:17.563Z</time></trkpt><trkpt lat="38.0133454" lon="12.8639672"><ele>631.0</ele><time>2026-05-05T14:50:18.564Z</time></trkpt><trkpt lat="38.0133505" lon="12.8641285"><ele>631.0</ele><time>2026-05-05T14:50:19.564Z</time></trkpt><trkpt lat="38.0133606" lon="12.8643023"><ele>631.0</ele><time>2026-05-05T14:50:20.565Z</time></trkpt><trkpt lat="38.0133817" lon="12.8644772"><ele>631.0</ele><time>2026-05-05T14:50:21.564Z</time></trkpt><trkpt lat="38.0134116" lon="12.8646509"><ele>631.0</ele><time>2026-05-05T14:50:22.564Z</time></trkpt><trkpt lat="38.013446" lon="12.864824"><ele>631.0</ele><time>2026-05-05T14:50:23.563Z</time></trkpt><trkpt lat="38.0134783" lon="12.8649918"><ele>631.0</ele><time>2026-05-05T14:50:24.564Z</time></trkpt><trkpt lat="38.0135039" lon="12.8651563"><ele>631.0</ele><time>2026-05-05T14:50:25.564Z</time></trkpt><trkpt lat="38.0135299" lon="12.8653217"><ele>631.0</ele><time>2026-05-05T14:50:26.565Z</time></trkpt><trkpt lat="38.0135558" lon="12.8654805"><ele>630.25</ele><time>2026-05-05T14:50:27.564Z</time></trkpt><trkpt lat="38.0135752" lon="12.8656291"><ele>629.5</ele><time>2026-05-05T14:50:28.563Z</time></trkpt><trkpt lat="38.0135924" lon="12.8657748"><ele>628.75</ele><time>2026-05-05T14:50:29.564Z</time></trkpt><trkpt lat="38.0136049" lon="12.865921"><ele>628.0</ele><time>2026-05-05T14:50:30.564Z</time></trkpt><trkpt lat="38.0136143" lon="12.8660651"><ele>627.0</ele><time>2026-05-05T14:50:31.563Z</time></trkpt><trkpt lat="38.0136226" lon="12.8662083"><ele>626.0</ele><time>2026-05-05T14:50:32.565Z</time></trkpt><trkpt lat="38.0136309" lon="12.8663538"><ele>625.0</ele><time>2026-05-05T14:50:33.563Z</time></trkpt><trkpt lat="38.0136408" lon="12.8664991"><ele>624.0</ele><time>2026-05-05T14:50:34.563Z</time></trkpt><trkpt lat="38.0136457" lon="12.8666465"><ele>623.0</ele><time>2026-05-05T14:50:35.564Z</time></trkpt><trkpt lat="38.0136454" lon="12.8667915"><ele>622.0</ele><time>2026-05-05T14:50:36.564Z</time></trkpt><trkpt lat="38.0136483" lon="12.866935"><ele>621.0</ele><time>2026-05-05T14:50:37.564Z</time></trkpt><trkpt lat="38.0136617" lon="12.86708"><ele>620.0</ele><time>2026-05-05T14:50:38.564Z</time></trkpt><trkpt lat="38.013675" lon="12.8672267"><ele>620.0</ele><time>2026-05-05T14:50:39.564Z</time></trkpt><trkpt lat="38.0136917" lon="12.8673667"><ele>620.0</ele><time>2026-05-05T14:50:40.564Z</time></trkpt><trkpt lat="38.0137117" lon="12.8674967"><ele>620.0</ele><time>2026-05-05T14:50:41.564Z</time></trkpt><trkpt lat="38.0137333" lon="12.8676233"><ele>620.0</ele><time>2026-05-05T14:50:42.564Z</time></trkpt><trkpt lat="38.0137633" lon="12.8677467"><ele>620.0</ele><time>2026-05-05T14:50:43.563Z</time></trkpt><trkpt lat="38.0137933" lon="12.867865"><ele>619.8</ele><time>2026-05-05T14:50:44.565Z</time></trkpt><trkpt lat="38.01384" lon="12.86798"><ele>619.6</ele><time>2026-05-05T14:50:45.564Z</time></trkpt><trkpt lat="38.0138867" lon="12.8680917"><ele>619.4</ele><time>2026-05-05T14:50:46.564Z</time></trkpt><trkpt lat="38.0139417" lon="12.8682017"><ele>619.2</ele><time>2026-05-05T14:50:47.565Z</time></trkpt><trkpt lat="38.0140017" lon="12.86831"><ele>619.0</ele><time>2026-05-05T14:50:48.564Z</time></trkpt><trkpt lat="38.01407" lon="12.8684017"><ele>617.0</ele><time>2026-05-05T14:50:49.564Z</time></trkpt><trkpt lat="38.0141467" lon="12.8684917"><ele>615.0</ele><time>2026-05-05T14:50:50.565Z</time></trkpt><trkpt lat="38.0142317" lon="12.8685783"><ele>613.0</ele><time>2026-05-05T14:50:51.563Z</time></trkpt><trkpt lat="38.0143183" lon="12.868655"><ele>611.0</ele><time>2026-05-05T14:50:52.564Z</time></trkpt><trkpt lat="38.014405" lon="12.8687283"><ele>609.0</ele><time>2026-05-05T14:50:53.564Z</time></trkpt><trkpt lat="38.014495" lon="12.8687967"><ele>609.0</ele><time>2026-05-05T14:50:54.563Z</time></trkpt><trkpt lat="38.0145883" lon="12.8688567"><ele>609.0</ele><time>2026-05-05T14:50:55.563Z</time></trkpt><trkpt lat="38.0146767" lon="12.868915"><ele>609.0</ele><time>2026-05-05T14:50:56.563Z</time></trkpt><trkpt lat="38.014765" lon="12.868965"><ele>609.0</ele><time>2026-05-05T14:50:57.564Z</time></trkpt><trkpt lat="38.0148467" lon="12.86901"><ele>609.0</ele><time>2026-05-05T14:50:58.564Z</time></trkpt><trkpt lat="38.014915" lon="12.8690533"><ele>609.0</ele><time>2026-05-05T14:50:59.564Z</time></trkpt><trkpt lat="38.014975" lon="12.8691"><ele>609.0</ele><time>2026-05-05T14:51:00.564Z</time></trkpt><trkpt lat="38.0150267" lon="12.8691467"><ele>609.0</ele><time>2026-05-05T14:51:01.565Z</time></trkpt><trkpt lat="38.01511" lon="12.8691933"><ele>609.0</ele><time>2026-05-05T14:51:03.564Z</time></trkpt><trkpt lat="38.0151433" lon="12.8691183"><ele>609.0</ele><time>2026-05-05T14:51:06.564Z</time></trkpt><trkpt lat="38.0151017" lon="12.8690317"><ele>609.0</ele><time>2026-05-05T14:51:08.564Z</time></trkpt><trkpt lat="38.0150233" lon="12.86891"><ele>609.0</ele><time>2026-05-05T14:51:10.564Z</time></trkpt><trkpt lat="38.0149683" lon="12.86884"><ele>609.0</ele><time>2026-05-05T14:51:11.565Z</time></trkpt><trkpt lat="38.0149067" lon="12.8687633"><ele>609.0</ele><time>2026-05-05T14:51:12.564Z</time></trkpt><trkpt lat="38.0148433" lon="12.8686817"><ele>609.0</ele><time>2026-05-05T14:51:13.564Z</time></trkpt><trkpt lat="38.01479" lon="12.8686067"><ele>609.0</ele><time>2026-05-05T14:51:14.565Z</time></trkpt><trkpt lat="38.0147417" lon="12.8685317"><ele>609.0</ele><time>2026-05-05T14:51:15.564Z</time></trkpt><trkpt lat="38.01469" lon="12.8684483"><ele>604.5</ele><time>2026-05-05T14:51:16.564Z</time></trkpt><trkpt lat="38.0146433" lon="12.8683583"><ele>600.0</ele><time>2026-05-05T14:51:17.563Z</time></trkpt><trkpt lat="38.0146" lon="12.86826"><ele>595.5</ele><time>2026-05-05T14:51:18.564Z</time></trkpt><trkpt lat="38.014565" lon="12.8681583"><ele>591.0</ele><time>2026-05-05T14:51:19.564Z</time></trkpt><trkpt lat="38.0145383" lon="12.86806"><ele>586.5</ele><time>2026-05-05T14:51:20.565Z</time></trkpt><trkpt lat="38.0145233" lon="12.8679567"><ele>582.0</ele><time>2026-05-05T14:51:21.564Z</time></trkpt><trkpt lat="38.0145133" lon="12.86784"><ele>582.0</ele><time>2026-05-05T14:51:22.564Z</time></trkpt><trkpt lat="38.0145133" lon="12.867725"><ele>582.0</ele><time>2026-05-05T14:51:23.564Z</time></trkpt><trkpt lat="38.0145217" lon="12.8675967"><ele>582.0</ele><time>2026-05-05T14:51:24.564Z</time></trkpt><trkpt lat="38.0145367" lon="12.86746"><ele>582.0</ele><time>2026-05-05T14:51:25.566Z</time></trkpt><trkpt lat="38.0145617" lon="12.8673217"><ele>582.0</ele><time>2026-05-05T14:51:26.564Z</time></trkpt><trkpt lat="38.01458" lon="12.8672"><ele>581.2</ele><time>2026-05-05T14:51:27.564Z</time></trkpt><trkpt lat="38.0145883" lon="12.8670717"><ele>580.4000000000001</ele><time>2026-05-05T14:51:28.563Z</time></trkpt><trkpt lat="38.0145967" lon="12.86695"><ele>579.5999999999999</ele><time>2026-05-05T14:51:29.564Z</time></trkpt><trkpt lat="38.0146067" lon="12.8668233"><ele>578.8</ele><time>2026-05-05T14:51:30.563Z</time></trkpt><trkpt lat="38.014625" lon="12.8666933"><ele>578.0</ele><time>2026-05-05T14:51:31.563Z</time></trkpt><trkpt lat="38.0146433" lon="12.86656"><ele>578.0</ele><time>2026-05-05T14:51:32.565Z</time></trkpt><trkpt lat="38.0146617" lon="12.8664217"><ele>578.0</ele><time>2026-05-05T14:51:33.564Z</time></trkpt><trkpt lat="38.0146767" lon="12.866285"><ele>578.0</ele><time>2026-05-05T14:51:34.564Z</time></trkpt><trkpt lat="38.01469" lon="12.86615"><ele>578.0</ele><time>2026-05-05T14:51:35.564Z</time></trkpt><trkpt lat="38.01471" lon="12.8660217"><ele>578.0</ele><time>2026-05-05T14:51:36.564Z</time></trkpt><trkpt lat="38.01473" lon="12.8658933"><ele>578.6</ele><time>2026-05-05T14:51:37.564Z</time></trkpt><trkpt lat="38.0147517" lon="12.865765"><ele>579.1999999999999</ele><time>2026-05-05T14:51:38.564Z</time></trkpt><trkpt lat="38.014775" lon="12.865635"><ele>579.8</ele><time>2026-05-05T14:51:39.564Z</time></trkpt><trkpt lat="38.0148017" lon="12.8655017"><ele>580.4</ele><time>2026-05-05T14:51:40.564Z</time></trkpt><trkpt lat="38.014835" lon="12.8653683"><ele>581.0</ele><time>2026-05-05T14:51:41.563Z</time></trkpt><trkpt lat="38.0148733" lon="12.86523"><ele>581.2</ele><time>2026-05-05T14:51:42.562Z</time></trkpt><trkpt lat="38.01491" lon="12.86509"><ele>581.4000000000001</ele><time>2026-05-05T14:51:43.564Z</time></trkpt><trkpt lat="38.0149467" lon="12.8649517"><ele>581.6</ele><time>2026-05-05T14:51:44.565Z</time></trkpt><trkpt lat="38.014985" lon="12.8648167"><ele>581.8000000000001</ele><time>2026-05-05T14:51:45.564Z</time></trkpt><trkpt lat="38.0150333" lon="12.8647017"><ele>582.0</ele><time>2026-05-05T14:51:46.564Z</time></trkpt><trkpt lat="38.01508" lon="12.8646033"><ele>577.0</ele><time>2026-05-05T14:51:47.564Z</time></trkpt><trkpt lat="38.015115" lon="12.864505"><ele>572.0</ele><time>2026-05-05T14:51:48.563Z</time></trkpt><trkpt lat="38.015135" lon="12.8644067"><ele>567.0</ele><time>2026-05-05T14:51:49.564Z</time></trkpt><trkpt lat="38.0151433" lon="12.86432"><ele>562.0</ele><time>2026-05-05T14:51:50.564Z</time></trkpt><trkpt lat="38.0151517" lon="12.864195"><ele>557.0</ele><time>2026-05-05T14:51:52.564Z</time></trkpt><trkpt lat="38.0152333" lon="12.8642033"><ele>552.0</ele><time>2026-05-05T14:51:55.563Z</time></trkpt><trkpt lat="38.0152467" lon="12.8642867"><ele>550.6666666666666</ele><time>2026-05-05T14:51:57.563Z</time></trkpt><trkpt lat="38.0152633" lon="12.8644317"><ele>549.3333333333334</ele><time>2026-05-05T14:51:59.564Z</time></trkpt><trkpt lat="38.01528" lon="12.8645233"><ele>548.0</ele><time>2026-05-05T14:52:00.564Z</time></trkpt><trkpt lat="38.015285" lon="12.8646267"><ele>546.6666666666667</ele><time>2026-05-05T14:52:01.565Z</time></trkpt><trkpt lat="38.0152933" lon="12.8647367"><ele>545.3333333333334</ele><time>2026-05-05T14:52:02.564Z</time></trkpt><trkpt lat="38.0152983" lon="12.8648467"><ele>544.0</ele><time>2026-05-05T14:52:03.563Z</time></trkpt><trkpt lat="38.015305" lon="12.8649533"><ele>544.0</ele><time>2026-05-05T14:52:04.564Z</time></trkpt><trkpt lat="38.0152867" lon="12.86506"><ele>544.0</ele><time>2026-05-05T14:52:05.564Z</time></trkpt><trkpt lat="38.01527" lon="12.86518"><ele>544.0</ele><time>2026-05-05T14:52:06.564Z</time></trkpt><trkpt lat="38.0152583" lon="12.865305"><ele>544.0</ele><time>2026-05-05T14:52:07.564Z</time></trkpt><trkpt lat="38.0152517" lon="12.8654333"><ele>544.0</ele><time>2026-05-05T14:52:08.565Z</time></trkpt><trkpt lat="38.0152433" lon="12.8655533"><ele>544.0</ele><time>2026-05-05T14:52:09.563Z</time></trkpt><trkpt lat="38.0152383" lon="12.8656667"><ele>544.0</ele><time>2026-05-05T14:52:10.564Z</time></trkpt><trkpt lat="38.0152333" lon="12.86579"><ele>544.0</ele><time>2026-05-05T14:52:11.564Z</time></trkpt><trkpt lat="38.0152333" lon="12.8659133"><ele>544.0</ele><time>2026-05-05T14:52:12.564Z</time></trkpt><trkpt lat="38.015235" lon="12.8660433"><ele>544.0</ele><time>2026-05-05T14:52:13.563Z</time></trkpt><trkpt lat="38.0152417" lon="12.86617"><ele>544.0</ele><time>2026-05-05T14:52:14.565Z</time></trkpt><trkpt lat="38.0152483" lon="12.8663017"><ele>544.0</ele><time>2026-05-05T14:52:15.563Z</time></trkpt><trkpt lat="38.0152633" lon="12.8664367"><ele>544.0</ele><time>2026-05-05T14:52:16.564Z</time></trkpt><trkpt lat="38.0152833" lon="12.8665767"><ele>544.0</ele><time>2026-05-05T14:52:17.565Z</time></trkpt><trkpt lat="38.0153033" lon="12.8667133"><ele>544.0</ele><time>2026-05-05T14:52:18.565Z</time></trkpt><trkpt lat="38.015335" lon="12.8668383"><ele>544.0</ele><time>2026-05-05T14:52:19.563Z</time></trkpt><trkpt lat="38.0153783" lon="12.866965"><ele>544.0</ele><time>2026-05-05T14:52:20.565Z</time></trkpt><trkpt lat="38.0154233" lon="12.8670967"><ele>544.0</ele><time>2026-05-05T14:52:21.563Z</time></trkpt><trkpt lat="38.0154667" lon="12.86723"><ele>544.0</ele><time>2026-05-05T14:52:22.563Z</time></trkpt><trkpt lat="38.0154983" lon="12.8673633"><ele>544.0</ele><time>2026-05-05T14:52:23.565Z</time></trkpt><trkpt lat="38.0155283" lon="12.867495"><ele>545.8</ele><time>2026-05-05T14:52:24.564Z</time></trkpt><trkpt lat="38.015565" lon="12.8676233"><ele>547.5999999999999</ele><time>2026-05-05T14:52:25.564Z</time></trkpt><trkpt lat="38.0156167" lon="12.86774"><ele>549.4</ele><time>2026-05-05T14:52:26.565Z</time></trkpt><trkpt lat="38.0156867" lon="12.8678533"><ele>551.1999999999999</ele><time>2026-05-05T14:52:27.563Z</time></trkpt><trkpt lat="38.0157667" lon="12.8679683"><ele>553.0</ele><time>2026-05-05T14:52:28.564Z</time></trkpt><trkpt lat="38.0158517" lon="12.8680683"><ele>548.0</ele><time>2026-05-05T14:52:29.565Z</time></trkpt><trkpt lat="38.0159517" lon="12.8681617"><ele>543.0</ele><time>2026-05-05T14:52:30.564Z</time></trkpt><trkpt lat="38.0160583" lon="12.8682433"><ele>538.0</ele><time>2026-05-05T14:52:31.565Z</time></trkpt><trkpt lat="38.0161633" lon="12.8683"><ele>533.0</ele><time>2026-05-05T14:52:32.564Z</time></trkpt><trkpt lat="38.0162567" lon="12.8683467"><ele>533.0</ele><time>2026-05-05T14:52:33.564Z</time></trkpt><trkpt lat="38.0163333" lon="12.8683883"><ele>533.0</ele><time>2026-05-05T14:52:34.564Z</time></trkpt><trkpt lat="38.0163917" lon="12.868425"><ele>533.0</ele><time>2026-05-05T14:52:35.564Z</time></trkpt><trkpt lat="38.0164483" lon="12.86848"><ele>533.0</ele><time>2026-05-05T14:52:37.564Z</time></trkpt><trkpt lat="38.0165483" lon="12.8685717"><ele>533.0</ele><time>2026-05-05T14:52:58.564Z</time></trkpt><trkpt lat="38.0166217" lon="12.8686917"><ele>526.1999999999999</ele><time>2026-05-05T14:53:00.563Z</time></trkpt><trkpt lat="38.01667" lon="12.8688067"><ele>519.4</ele><time>2026-05-05T14:53:02.566Z</time></trkpt><trkpt lat="38.016775" lon="12.8687833"><ele>512.5999999999999</ele><time>2026-05-05T14:53:05.564Z</time></trkpt><trkpt lat="38.0168683" lon="12.8687483"><ele>505.79999999999995</ele><time>2026-05-05T14:53:07.564Z</time></trkpt><trkpt lat="38.0169583" lon="12.86871"><ele>499.0</ele><time>2026-05-05T14:53:09.564Z</time></trkpt><trkpt lat="38.01704" lon="12.8686717"><ele>499.00000000000006</ele><time>2026-05-05T14:53:11.564Z</time></trkpt><trkpt lat="38.0171233" lon="12.86863"><ele>499.0</ele><time>2026-05-05T14:53:13.565Z</time></trkpt><trkpt lat="38.0171917" lon="12.86859"><ele>499.0</ele><time>2026-05-05T14:53:16.636Z</time></trkpt><trkpt lat="38.0171326" lon="12.8686298"><ele>499.0</ele><time>2026-05-05T14:53:25.579Z</time></trkpt><trkpt lat="38.0171916" lon="12.8685926"><ele>499.00000000000006</ele><time>2026-05-05T14:53:53.565Z</time></trkpt><trkpt lat="38.0173216" lon="12.8685027"><ele>499.0</ele><time>2026-05-05T14:53:54.564Z</time></trkpt><trkpt lat="38.0173904" lon="12.8684289"><ele>499.00000000000006</ele><time>2026-05-05T14:53:55.564Z</time></trkpt><trkpt lat="38.0174359" lon="12.8683706"><ele>499.0</ele><time>2026-05-05T14:53:56.564Z</time></trkpt><trkpt lat="38.0174976" lon="12.8682893"><ele>499.0</ele><time>2026-05-05T14:53:58.565Z</time></trkpt><trkpt lat="38.0175605" lon="12.8683003"><ele>499.0</ele><time>2026-05-05T14:54:01.563Z</time></trkpt><trkpt lat="38.0175347" lon="12.8683994"><ele>499.00000000000006</ele><time>2026-05-05T14:54:05.616Z</time></trkpt><trkpt lat="38.0174725" lon="12.868531"><ele>499.0</ele><time>2026-05-05T14:54:07.564Z</time></trkpt><trkpt lat="38.0174265" lon="12.868654"><ele>499.0</ele><time>2026-05-05T14:54:09.564Z</time></trkpt><trkpt lat="38.0173706" lon="12.8687722"><ele>499.0</ele><time>2026-05-05T14:54:11.564Z</time></trkpt><trkpt lat="38.0173153" lon="12.8689054"><ele>499.0</ele><time>2026-05-05T14:54:13.564Z</time></trkpt><trkpt lat="38.0172409" lon="12.8690354"><ele>499.0</ele><time>2026-05-05T14:54:15.564Z</time></trkpt><trkpt lat="38.017187" lon="12.8690932"><ele>499.0</ele><time>2026-05-05T14:54:16.564Z</time></trkpt><trkpt lat="38.0171248" lon="12.8691622"><ele>499.0</ele><time>2026-05-05T14:54:17.564Z</time></trkpt><trkpt lat="38.0170563" lon="12.8692477"><ele>499.0</ele><time>2026-05-05T14:54:18.563Z</time></trkpt><trkpt lat="38.0169927" lon="12.8693403"><ele>499.0</ele><time>2026-05-05T14:54:19.564Z</time></trkpt><trkpt lat="38.0169409" lon="12.8694377"><ele>499.0</ele><time>2026-05-05T14:54:20.563Z</time></trkpt><trkpt lat="38.0169" lon="12.8695397"><ele>499.0</ele><time>2026-05-05T14:54:21.565Z</time></trkpt><trkpt lat="38.0168676" lon="12.8696462"><ele>494.0</ele><time>2026-05-05T14:54:22.563Z</time></trkpt><trkpt lat="38.0168382" lon="12.8697532"><ele>489.0</ele><time>2026-05-05T14:54:23.564Z</time></trkpt><trkpt lat="38.0168141" lon="12.8698594"><ele>484.0</ele><time>2026-05-05T14:54:24.563Z</time></trkpt><trkpt lat="38.0167922" lon="12.8699745"><ele>479.0</ele><time>2026-05-05T14:54:25.564Z</time></trkpt><trkpt lat="38.0167734" lon="12.8700926"><ele>474.0</ele><time>2026-05-05T14:54:26.564Z</time></trkpt><trkpt lat="38.0167571" lon="12.8702057"><ele>478.1666666666667</ele><time>2026-05-05T14:54:27.564Z</time></trkpt><trkpt lat="38.0167377" lon="12.8703157"><ele>482.33333333333337</ele><time>2026-05-05T14:54:28.564Z</time></trkpt><trkpt lat="38.0167131" lon="12.8704213"><ele>486.5</ele><time>2026-05-05T14:54:29.563Z</time></trkpt><trkpt lat="38.0166864" lon="12.8705268"><ele>490.6666666666667</ele><time>2026-05-05T14:54:30.564Z</time></trkpt><trkpt lat="38.0166501" lon="12.8706322"><ele>494.83333333333337</ele><time>2026-05-05T14:54:31.564Z</time></trkpt><trkpt lat="38.0166053" lon="12.8707346"><ele>499.0</ele><time>2026-05-05T14:54:32.564Z</time></trkpt><trkpt lat="38.016555" lon="12.8708403"><ele>493.2</ele><time>2026-05-05T14:54:33.564Z</time></trkpt><trkpt lat="38.0165047" lon="12.870941"><ele>487.4</ele><time>2026-05-05T14:54:34.564Z</time></trkpt><trkpt lat="38.0164603" lon="12.8710376"><ele>481.6</ele><time>2026-05-05T14:54:35.565Z</time></trkpt><trkpt lat="38.0164181" lon="12.8711444"><ele>475.8</ele><time>2026-05-05T14:54:36.564Z</time></trkpt><trkpt lat="38.0163762" lon="12.8712658"><ele>470.0</ele><time>2026-05-05T14:54:37.564Z</time></trkpt><trkpt lat="38.0163356" lon="12.8713949"><ele>470.0</ele><time>2026-05-05T14:54:38.565Z</time></trkpt><trkpt lat="38.0162955" lon="12.8715271"><ele>470.0</ele><time>2026-05-05T14:54:39.564Z</time></trkpt><trkpt lat="38.0162565" lon="12.8716666"><ele>470.0</ele><time>2026-05-05T14:54:40.564Z</time></trkpt><trkpt lat="38.0162157" lon="12.8718187"><ele>470.0</ele><time>2026-05-05T14:54:41.564Z</time></trkpt><trkpt lat="38.0161776" lon="12.8719749"><ele>464.75</ele><time>2026-05-05T14:54:42.564Z</time></trkpt><trkpt lat="38.0161444" lon="12.8721271"><ele>459.5</ele><time>2026-05-05T14:54:43.563Z</time></trkpt><trkpt lat="38.0161157" lon="12.8722745"><ele>454.25</ele><time>2026-05-05T14:54:44.565Z</time></trkpt><trkpt lat="38.0160907" lon="12.8724188"><ele>449.0</ele><time>2026-05-05T14:54:45.563Z</time></trkpt><trkpt lat="38.0160671" lon="12.8725582"><ele>446.6</ele><time>2026-05-05T14:54:46.564Z</time></trkpt><trkpt lat="38.0160459" lon="12.8726964"><ele>444.2</ele><time>2026-05-05T14:54:47.564Z</time></trkpt><trkpt lat="38.0160272" lon="12.8728304"><ele>441.80000000000007</ele><time>2026-05-05T14:54:48.564Z</time></trkpt><trkpt lat="38.0160119" lon="12.8729535"><ele>439.40000000000003</ele><time>2026-05-05T14:54:49.564Z</time></trkpt><trkpt lat="38.015997" lon="12.8730596"><ele>437.0</ele><time>2026-05-05T14:54:50.566Z</time></trkpt><trkpt lat="38.0159878" lon="12.8731529"><ele>436.99999999999994</ele><time>2026-05-05T14:54:51.563Z</time></trkpt><trkpt lat="38.0159981" lon="12.8732879"><ele>437.0</ele><time>2026-05-05T14:54:53.564Z</time></trkpt><trkpt lat="38.0160494" lon="12.873351"><ele>437.0</ele><time>2026-05-05T14:54:55.563Z</time></trkpt><trkpt lat="38.0160994" lon="12.8732917"><ele>437.0</ele><time>2026-05-05T14:54:57.564Z</time></trkpt><trkpt lat="38.0161201" lon="12.8731613"><ele>436.99999999999994</ele><time>2026-05-05T14:54:59.565Z</time></trkpt><trkpt lat="38.0161424" lon="12.8730705"><ele>437.0</ele><time>2026-05-05T14:55:00.564Z</time></trkpt><trkpt lat="38.0161802" lon="12.8729717"><ele>437.0</ele><time>2026-05-05T14:55:01.565Z</time></trkpt><trkpt lat="38.0162361" lon="12.8728651"><ele>437.00000000000006</ele><time>2026-05-05T14:55:02.564Z</time></trkpt><trkpt lat="38.0162977" lon="12.8727592"><ele>437.00000000000006</ele><time>2026-05-05T14:55:03.564Z</time></trkpt><trkpt lat="38.016355" lon="12.8726532"><ele>437.0</ele><time>2026-05-05T14:55:04.563Z</time></trkpt><trkpt lat="38.0164081" lon="12.8725428"><ele>437.0</ele><time>2026-05-05T14:55:05.564Z</time></trkpt><trkpt lat="38.0164698" lon="12.8724322"><ele>439.40000000000003</ele><time>2026-05-05T14:55:06.564Z</time></trkpt><trkpt lat="38.0165355" lon="12.8723292"><ele>441.80000000000007</ele><time>2026-05-05T14:55:07.565Z</time></trkpt><trkpt lat="38.0166045" lon="12.8722258"><ele>444.2</ele><time>2026-05-05T14:55:08.564Z</time></trkpt><trkpt lat="38.0166741" lon="12.8721142"><ele>446.6</ele><time>2026-05-05T14:55:09.564Z</time></trkpt><trkpt lat="38.0167464" lon="12.8720007"><ele>449.0</ele><time>2026-05-05T14:55:10.564Z</time></trkpt><trkpt lat="38.016819" lon="12.8718954"><ele>442.0</ele><time>2026-05-05T14:55:11.564Z</time></trkpt><trkpt lat="38.0168903" lon="12.8717972"><ele>435.0</ele><time>2026-05-05T14:55:12.564Z</time></trkpt><trkpt lat="38.0169665" lon="12.8717029"><ele>428.0</ele><time>2026-05-05T14:55:13.563Z</time></trkpt><trkpt lat="38.0170426" lon="12.8716058"><ele>421.0</ele><time>2026-05-05T14:55:14.565Z</time></trkpt><trkpt lat="38.0171149" lon="12.8715035"><ele>414.0</ele><time>2026-05-05T14:55:15.563Z</time></trkpt><trkpt lat="38.0171834" lon="12.8713964"><ele>414.0</ele><time>2026-05-05T14:55:16.564Z</time></trkpt><trkpt lat="38.0172488" lon="12.8712879"><ele>414.0</ele><time>2026-05-05T14:55:17.565Z</time></trkpt><trkpt lat="38.017313" lon="12.8711811"><ele>414.0</ele><time>2026-05-05T14:55:18.563Z</time></trkpt><trkpt lat="38.0173794" lon="12.8710756"><ele>414.0</ele><time>2026-05-05T14:55:19.564Z</time></trkpt><trkpt lat="38.0174563" lon="12.8709768"><ele>414.0</ele><time>2026-05-05T14:55:20.564Z</time></trkpt><trkpt lat="38.0175404" lon="12.8708894"><ele>409.4</ele><time>2026-05-05T14:55:21.563Z</time></trkpt><trkpt lat="38.0176253" lon="12.8708108"><ele>404.79999999999995</ele><time>2026-05-05T14:55:22.563Z</time></trkpt><trkpt lat="38.0177122" lon="12.8707304"><ele>400.20000000000005</ele><time>2026-05-05T14:55:23.563Z</time></trkpt><trkpt lat="38.0177952" lon="12.8706506"><ele>395.6</ele><time>2026-05-05T14:55:24.564Z</time></trkpt><trkpt lat="38.0178733" lon="12.870569"><ele>391.0</ele><time>2026-05-05T14:55:25.564Z</time></trkpt><trkpt lat="38.0179398" lon="12.8704952"><ele>391.00000000000006</ele><time>2026-05-05T14:55:26.564Z</time></trkpt><trkpt lat="38.0179979" lon="12.8704337"><ele>391.0</ele><time>2026-05-05T14:55:27.564Z</time></trkpt><trkpt lat="38.0180693" lon="12.8703435"><ele>391.0</ele><time>2026-05-05T14:55:29.564Z</time></trkpt><trkpt lat="38.0181331" lon="12.8703455"><ele>391.0</ele><time>2026-05-05T14:55:32.564Z</time></trkpt><trkpt lat="38.0180898" lon="12.8704497"><ele>391.00000000000006</ele><time>2026-05-05T14:55:35.564Z</time></trkpt><trkpt lat="38.0180484" lon="12.8705165"><ele>391.0</ele><time>2026-05-05T14:55:36.564Z</time></trkpt><trkpt lat="38.0180088" lon="12.8706005"><ele>391.0</ele><time>2026-05-05T14:55:37.563Z</time></trkpt><trkpt lat="38.0179677" lon="12.8707019"><ele>391.0</ele><time>2026-05-05T14:55:38.564Z</time></trkpt><trkpt lat="38.0179155" lon="12.8708274"><ele>391.0</ele><time>2026-05-05T14:55:39.563Z</time></trkpt><trkpt lat="38.017865" lon="12.8709517"><ele>391.0</ele><time>2026-05-05T14:55:40.564Z</time></trkpt><trkpt lat="38.0178167" lon="12.8710717"><ele>391.0</ele><time>2026-05-05T14:55:41.564Z</time></trkpt><trkpt lat="38.0177717" lon="12.8711933"><ele>385.0</ele><time>2026-05-05T14:55:42.564Z</time></trkpt><trkpt lat="38.0177317" lon="12.8713183"><ele>379.0</ele><time>2026-05-05T14:55:43.564Z</time></trkpt><trkpt lat="38.0176967" lon="12.8714467"><ele>373.0</ele><time>2026-05-05T14:55:44.564Z</time></trkpt><trkpt lat="38.0176617" lon="12.8715783"><ele>367.0</ele><time>2026-05-05T14:55:45.563Z</time></trkpt><trkpt lat="38.0176267" lon="12.87171"><ele>361.0</ele><time>2026-05-05T14:55:46.564Z</time></trkpt><trkpt lat="38.01759" lon="12.8718383"><ele>357.0</ele><time>2026-05-05T14:55:47.564Z</time></trkpt><trkpt lat="38.0175633" lon="12.87197"><ele>353.0</ele><time>2026-05-05T14:55:48.563Z</time></trkpt><trkpt lat="38.0175433" lon="12.8721033"><ele>349.0</ele><time>2026-05-05T14:55:49.564Z</time></trkpt><trkpt lat="38.01752" lon="12.8722367"><ele>345.0</ele><time>2026-05-05T14:55:50.564Z</time></trkpt><trkpt lat="38.0175033" lon="12.8723733"><ele>341.0</ele><time>2026-05-05T14:55:51.565Z</time></trkpt><trkpt lat="38.0174817" lon="12.872505"><ele>348.4</ele><time>2026-05-05T14:55:52.564Z</time></trkpt><trkpt lat="38.0174567" lon="12.8726383"><ele>355.8</ele><time>2026-05-05T14:55:53.563Z</time></trkpt><trkpt lat="38.017435" lon="12.8727717"><ele>363.2</ele><time>2026-05-05T14:55:54.563Z</time></trkpt><trkpt lat="38.0174117" lon="12.8729"><ele>370.59999999999997</ele><time>2026-05-05T14:55:55.564Z</time></trkpt><trkpt lat="38.0173917" lon="12.8730233"><ele>378.0</ele><time>2026-05-05T14:55:56.564Z</time></trkpt><trkpt lat="38.0173767" lon="12.87314"><ele>378.0</ele><time>2026-05-05T14:55:57.564Z</time></trkpt><trkpt lat="38.0173567" lon="12.8732633"><ele>378.0</ele><time>2026-05-05T14:55:58.564Z</time></trkpt><trkpt lat="38.0173367" lon="12.873395"><ele>378.0</ele><time>2026-05-05T14:55:59.564Z</time></trkpt><trkpt lat="38.0173133" lon="12.873535"><ele>378.0</ele><time>2026-05-05T14:56:00.564Z</time></trkpt><trkpt lat="38.017295" lon="12.8736733"><ele>378.0</ele><time>2026-05-05T14:56:01.564Z</time></trkpt><trkpt lat="38.0172717" lon="12.8738117"><ele>377.59999999999997</ele><time>2026-05-05T14:56:02.565Z</time></trkpt><trkpt lat="38.01724" lon="12.8739467"><ele>377.2</ele><time>2026-05-05T14:56:03.563Z</time></trkpt><trkpt lat="38.0172067" lon="12.87407"><ele>376.8</ele><time>2026-05-05T14:56:04.567Z</time></trkpt><trkpt lat="38.0171783" lon="12.8741817"><ele>376.4</ele><time>2026-05-05T14:56:05.564Z</time></trkpt><trkpt lat="38.0171483" lon="12.87428"><ele>376.0</ele><time>2026-05-05T14:56:06.563Z</time></trkpt><trkpt lat="38.0171183" lon="12.874365"><ele>374.8</ele><time>2026-05-05T14:56:07.564Z</time></trkpt><trkpt lat="38.0170967" lon="12.8744467"><ele>373.6</ele><time>2026-05-05T14:56:08.564Z</time></trkpt><trkpt lat="38.0171033" lon="12.8745967"><ele>372.4</ele><time>2026-05-05T14:56:10.563Z</time></trkpt><trkpt lat="38.0171833" lon="12.874645"><ele>371.2</ele><time>2026-05-05T14:56:12.564Z</time></trkpt><trkpt lat="38.0172667" lon="12.874575"><ele>370.0</ele><time>2026-05-05T14:56:14.563Z</time></trkpt><trkpt lat="38.01732" lon="12.8744367"><ele>370.0</ele><time>2026-05-05T14:56:16.565Z</time></trkpt><trkpt lat="38.0173567" lon="12.8743383"><ele>370.0</ele><time>2026-05-05T14:56:17.564Z</time></trkpt><trkpt lat="38.0173983" lon="12.8742417"><ele>370.0</ele><time>2026-05-05T14:56:18.564Z</time></trkpt><trkpt lat="38.0174517" lon="12.8741433"><ele>370.0</ele><time>2026-05-05T14:56:19.563Z</time></trkpt><trkpt lat="38.0175117" lon="12.8740433"><ele>370.0</ele><time>2026-05-05T14:56:20.563Z</time></trkpt><trkpt lat="38.0175733" lon="12.8739383"><ele>360.8</ele><time>2026-05-05T14:56:21.564Z</time></trkpt><trkpt lat="38.01763" lon="12.873835"><ele>351.6</ele><time>2026-05-05T14:56:22.565Z</time></trkpt><trkpt lat="38.0176867" lon="12.873725"><ele>342.4</ele><time>2026-05-05T14:56:23.564Z</time></trkpt><trkpt lat="38.01775" lon="12.87362"><ele>333.2</ele><time>2026-05-05T14:56:24.565Z</time></trkpt><trkpt lat="38.01781" lon="12.8735133"><ele>324.0</ele><time>2026-05-05T14:56:25.564Z</time></trkpt><trkpt lat="38.0178617" lon="12.8734"><ele>324.0</ele><time>2026-05-05T14:56:26.564Z</time></trkpt><trkpt lat="38.017905" lon="12.8732817"><ele>324.0</ele><time>2026-05-05T14:56:27.565Z</time></trkpt><trkpt lat="38.0179483" lon="12.8731633"><ele>324.0</ele><time>2026-05-05T14:56:28.564Z</time></trkpt><trkpt lat="38.0179967" lon="12.8730483"><ele>324.0</ele><time>2026-05-05T14:56:29.563Z</time></trkpt><trkpt lat="38.01805" lon="12.8729383"><ele>324.0</ele><time>2026-05-05T14:56:30.563Z</time></trkpt><trkpt lat="38.018095" lon="12.8728383"><ele>324.0</ele><time>2026-05-05T14:56:31.562Z</time></trkpt><trkpt lat="38.018135" lon="12.8727533"><ele>324.0</ele><time>2026-05-05T14:56:32.564Z</time></trkpt><trkpt lat="38.01819" lon="12.87264"><ele>324.0</ele><time>2026-05-05T14:56:34.564Z</time></trkpt><trkpt lat="38.018225" lon="12.8725633"><ele>324.0</ele><time>2026-05-05T14:56:37.564Z</time></trkpt><trkpt lat="38.0183117" lon="12.8725233"><ele>324.0</ele><time>2026-05-05T14:58:43.564Z</time></trkpt><trkpt lat="38.0184017" lon="12.87239"><ele>318.0</ele><time>2026-05-05T14:58:45.564Z</time></trkpt><trkpt lat="38.01846" lon="12.872295"><ele>312.0</ele><time>2026-05-05T14:58:46.563Z</time></trkpt><trkpt lat="38.01853" lon="12.8721917"><ele>306.0</ele><time>2026-05-05T14:58:47.563Z</time></trkpt><trkpt lat="38.0186033" lon="12.87209"><ele>300.0</ele><time>2026-05-05T14:58:48.564Z</time></trkpt><trkpt lat="38.018675" lon="12.87199"><ele>294.0</ele><time>2026-05-05T14:58:49.564Z</time></trkpt><trkpt lat="38.0187417" lon="12.87189"><ele>294.0</ele><time>2026-05-05T14:58:50.564Z</time></trkpt><trkpt lat="38.018805" lon="12.8717933"><ele>294.0</ele><time>2026-05-05T14:58:51.563Z</time></trkpt><trkpt lat="38.0188683" lon="12.8717017"><ele>294.0</ele><time>2026-05-05T14:58:52.564Z</time></trkpt><trkpt lat="38.0189267" lon="12.87161"><ele>294.0</ele><time>2026-05-05T14:58:53.565Z</time></trkpt><trkpt lat="38.0189733" lon="12.87151"><ele>294.0</ele><time>2026-05-05T14:58:54.563Z</time></trkpt><trkpt lat="38.0190083" lon="12.8714083"><ele>291.59999999999997</ele><time>2026-05-05T14:58:55.564Z</time></trkpt><trkpt lat="38.0190383" lon="12.87129"><ele>289.2</ele><time>2026-05-05T14:58:56.564Z</time></trkpt><trkpt lat="38.01908" lon="12.8711617"><ele>286.79999999999995</ele><time>2026-05-05T14:58:57.563Z</time></trkpt><trkpt lat="38.0191233" lon="12.8710233"><ele>284.4</ele><time>2026-05-05T14:58:58.564Z</time></trkpt><trkpt lat="38.01916" lon="12.8708767"><ele>282.0</ele><time>2026-05-05T14:58:59.563Z</time></trkpt><trkpt lat="38.0191967" lon="12.8707367"><ele>282.0</ele><time>2026-05-05T14:59:00.564Z</time></trkpt><trkpt lat="38.0192467" lon="12.8706083"><ele>282.0</ele><time>2026-05-05T14:59:01.564Z</time></trkpt><trkpt lat="38.0192983" lon="12.8704733"><ele>282.0</ele><time>2026-05-05T14:59:02.564Z</time></trkpt><trkpt lat="38.0193567" lon="12.87034"><ele>282.0</ele><time>2026-05-05T14:59:03.563Z</time></trkpt><trkpt lat="38.0194133" lon="12.8702083"><ele>285.5</ele><time>2026-05-05T14:59:04.563Z</time></trkpt><trkpt lat="38.019465" lon="12.870095"><ele>289.0</ele><time>2026-05-05T14:59:05.562Z</time></trkpt><trkpt lat="38.0195067" lon="12.8700083"><ele>292.5</ele><time>2026-05-05T14:59:06.563Z</time></trkpt><trkpt lat="38.0195517" lon="12.869945"><ele>296.0</ele><time>2026-05-05T14:59:07.564Z</time></trkpt><trkpt lat="38.01966" lon="12.8699167"><ele>299.5</ele><time>2026-05-05T14:59:09.563Z</time></trkpt><trkpt lat="38.019725" lon="12.8699367"><ele>303.0</ele><time>2026-05-05T14:59:10.566Z</time></trkpt><trkpt lat="38.019795" lon="12.8699783"><ele>303.0</ele><time>2026-05-05T14:59:11.563Z</time></trkpt><trkpt lat="38.0198683" lon="12.8700367"><ele>303.0</ele><time>2026-05-05T14:59:12.563Z</time></trkpt><trkpt lat="38.0199333" lon="12.8701183"><ele>303.0</ele><time>2026-05-05T14:59:13.564Z</time></trkpt><trkpt lat="38.0199933" lon="12.870205"><ele>303.0</ele><time>2026-05-05T14:59:14.563Z</time></trkpt><trkpt lat="38.0200533" lon="12.8703033"><ele>303.0</ele><time>2026-05-05T14:59:15.564Z</time></trkpt><trkpt lat="38.02011" lon="12.8704167"><ele>295.2</ele><time>2026-05-05T14:59:16.563Z</time></trkpt><trkpt lat="38.02016" lon="12.8705383"><ele>287.4</ele><time>2026-05-05T14:59:17.564Z</time></trkpt><trkpt lat="38.0202083" lon="12.8706633"><ele>279.59999999999997</ele><time>2026-05-05T14:59:18.564Z</time></trkpt><trkpt lat="38.0202583" lon="12.87079"><ele>271.8</ele><time>2026-05-05T14:59:19.564Z</time></trkpt><trkpt lat="38.0203067" lon="12.8709"><ele>264.0</ele><time>2026-05-05T14:59:20.563Z</time></trkpt><trkpt lat="38.020355" lon="12.8709967"><ele>258.4</ele><time>2026-05-05T14:59:21.563Z</time></trkpt><trkpt lat="38.0204167" lon="12.8710817"><ele>252.79999999999998</ele><time>2026-05-05T14:59:22.563Z</time></trkpt><trkpt lat="38.0204883" lon="12.8711667"><ele>247.20000000000002</ele><time>2026-05-05T14:59:23.563Z</time></trkpt><trkpt lat="38.0205617" lon="12.8712567"><ele>241.60000000000002</ele><time>2026-05-05T14:59:24.564Z</time></trkpt><trkpt lat="38.0206383" lon="12.87135"><ele>236.0</ele><time>2026-05-05T14:59:25.565Z</time></trkpt><trkpt lat="38.02072" lon="12.8714383"><ele>236.0</ele><time>2026-05-05T14:59:26.564Z</time></trkpt><trkpt lat="38.0208033" lon="12.871525"><ele>236.00000000000003</ele><time>2026-05-05T14:59:27.564Z</time></trkpt><trkpt lat="38.020895" lon="12.8715967"><ele>236.00000000000003</ele><time>2026-05-05T14:59:28.564Z</time></trkpt><trkpt lat="38.0209933" lon="12.8716467"><ele>236.0</ele><time>2026-05-05T14:59:29.564Z</time></trkpt><trkpt lat="38.0210967" lon="12.8716867"><ele>236.0</ele><time>2026-05-05T14:59:30.564Z</time></trkpt><trkpt lat="38.021205" lon="12.8717167"><ele>235.25</ele><time>2026-05-05T14:59:31.563Z</time></trkpt><trkpt lat="38.02132" lon="12.87175"><ele>234.5</ele><time>2026-05-05T14:59:32.564Z</time></trkpt><trkpt lat="38.0214383" lon="12.87179"><ele>233.75</ele><time>2026-05-05T14:59:33.564Z</time></trkpt><trkpt lat="38.0215633" lon="12.87182"><ele>233.0</ele><time>2026-05-05T14:59:34.563Z</time></trkpt><trkpt lat="38.0216917" lon="12.8718533"><ele>237.25</ele><time>2026-05-05T14:59:35.564Z</time></trkpt><trkpt lat="38.0218233" lon="12.8718883"><ele>241.5</ele><time>2026-05-05T14:59:36.562Z</time></trkpt><trkpt lat="38.0219617" lon="12.87193"><ele>245.75</ele><time>2026-05-05T14:59:37.563Z</time></trkpt><trkpt lat="38.022105" lon="12.8719667"><ele>250.0</ele><time>2026-05-05T14:59:38.564Z</time></trkpt><trkpt lat="38.022245" lon="12.8720083"><ele>250.0</ele><time>2026-05-05T14:59:39.563Z</time></trkpt><trkpt lat="38.0223933" lon="12.8720483"><ele>250.0</ele><time>2026-05-05T14:59:40.564Z</time></trkpt><trkpt lat="38.0225417" lon="12.8720783"><ele>250.0</ele><time>2026-05-05T14:59:41.563Z</time></trkpt><trkpt lat="38.022695" lon="12.8721183"><ele>252.75</ele><time>2026-05-05T14:59:42.567Z</time></trkpt><trkpt lat="38.0228433" lon="12.8721583"><ele>255.5</ele><time>2026-05-05T14:59:43.564Z</time></trkpt><trkpt lat="38.0229783" lon="12.8721933"><ele>258.25</ele><time>2026-05-05T14:59:44.564Z</time></trkpt><trkpt lat="38.0231167" lon="12.87223"><ele>261.0</ele><time>2026-05-05T14:59:45.564Z</time></trkpt><trkpt lat="38.0232567" lon="12.87226"><ele>262.75</ele><time>2026-05-05T14:59:46.563Z</time></trkpt><trkpt lat="38.0233983" lon="12.87229"><ele>264.5</ele><time>2026-05-05T14:59:47.564Z</time></trkpt><trkpt lat="38.0235433" lon="12.8723283"><ele>266.25</ele><time>2026-05-05T14:59:48.564Z</time></trkpt><trkpt lat="38.0236867" lon="12.8723683"><ele>268.0</ele><time>2026-05-05T14:59:49.565Z</time></trkpt><trkpt lat="38.02382" lon="12.8724083"><ele>268.0</ele><time>2026-05-05T14:59:50.564Z</time></trkpt><trkpt lat="38.0239467" lon="12.87245"><ele>268.0</ele><time>2026-05-05T14:59:51.563Z</time></trkpt><trkpt lat="38.024065" lon="12.8724917"><ele>268.0</ele><time>2026-05-05T14:59:52.563Z</time></trkpt><trkpt lat="38.02418" lon="12.872535"><ele>268.0</ele><time>2026-05-05T14:59:53.564Z</time></trkpt><trkpt lat="38.0242917" lon="12.8725733"><ele>270.25</ele><time>2026-05-05T14:59:54.564Z</time></trkpt><trkpt lat="38.0244083" lon="12.872605"><ele>272.5</ele><time>2026-05-05T14:59:55.563Z</time></trkpt><trkpt lat="38.0245283" lon="12.8726433"><ele>274.75</ele><time>2026-05-05T14:59:56.564Z</time></trkpt><trkpt lat="38.0246483" lon="12.872685"><ele>277.0</ele><time>2026-05-05T14:59:57.564Z</time></trkpt><trkpt lat="38.0247633" lon="12.8727217"><ele>269.5</ele><time>2026-05-05T14:59:58.563Z</time></trkpt><trkpt lat="38.0248783" lon="12.8727567"><ele>262.0</ele><time>2026-05-05T14:59:59.563Z</time></trkpt><trkpt lat="38.02499" lon="12.8727917"><ele>254.5</ele><time>2026-05-05T15:00:00.563Z</time></trkpt><trkpt lat="38.0250983" lon="12.8728233"><ele>247.0</ele><time>2026-05-05T15:00:01.564Z</time></trkpt><trkpt lat="38.0252067" lon="12.8728517"><ele>247.0</ele><time>2026-05-05T15:00:02.565Z</time></trkpt><trkpt lat="38.0253167" lon="12.872885"><ele>247.0</ele><time>2026-05-05T15:00:03.565Z</time></trkpt><trkpt lat="38.0254367" lon="12.8729217"><ele>247.0</ele><time>2026-05-05T15:00:04.565Z</time></trkpt><trkpt lat="38.0255633" lon="12.872955"><ele>247.0</ele><time>2026-05-05T15:00:05.565Z</time></trkpt><trkpt lat="38.025695" lon="12.8729833"><ele>246.75</ele><time>2026-05-05T15:00:06.565Z</time></trkpt><trkpt lat="38.02582" lon="12.8730133"><ele>246.5</ele><time>2026-05-05T15:00:07.565Z</time></trkpt><trkpt lat="38.025945" lon="12.8730367"><ele>246.25</ele><time>2026-05-05T15:00:08.566Z</time></trkpt><trkpt lat="38.0260667" lon="12.8730517"><ele>246.0</ele><time>2026-05-05T15:00:09.565Z</time></trkpt><trkpt lat="38.02619" lon="12.8730667"><ele>246.0</ele><time>2026-05-05T15:00:10.565Z</time></trkpt><trkpt lat="38.0263083" lon="12.87308"><ele>246.00000000000003</ele><time>2026-05-05T15:00:11.564Z</time></trkpt><trkpt lat="38.0264217" lon="12.8730917"><ele>246.00000000000003</ele><time>2026-05-05T15:00:12.564Z</time></trkpt><trkpt lat="38.0265267" lon="12.8731"><ele>246.0</ele><time>2026-05-05T15:00:13.564Z</time></trkpt><trkpt lat="38.026635" lon="12.8731117"><ele>246.0</ele><time>2026-05-05T15:00:14.565Z</time></trkpt><trkpt lat="38.0267433" lon="12.8731283"><ele>245.60000000000002</ele><time>2026-05-05T15:00:15.564Z</time></trkpt><trkpt lat="38.026845" lon="12.87315"><ele>245.20000000000002</ele><time>2026-05-05T15:00:16.563Z</time></trkpt><trkpt lat="38.026945" lon="12.8731783"><ele>244.79999999999998</ele><time>2026-05-05T15:00:17.564Z</time></trkpt><trkpt lat="38.0270433" lon="12.8732117"><ele>244.39999999999998</ele><time>2026-05-05T15:00:18.565Z</time></trkpt><trkpt lat="38.027145" lon="12.8732467"><ele>244.0</ele><time>2026-05-05T15:00:19.565Z</time></trkpt><trkpt lat="38.0272417" lon="12.87328"><ele>244.0</ele><time>2026-05-05T15:00:20.565Z</time></trkpt><trkpt lat="38.0273417" lon="12.8733083"><ele>243.99999999999997</ele><time>2026-05-05T15:00:21.565Z</time></trkpt><trkpt lat="38.0274517" lon="12.8733333"><ele>243.99999999999997</ele><time>2026-05-05T15:00:22.564Z</time></trkpt><trkpt lat="38.027565" lon="12.8733517"><ele>244.0</ele><time>2026-05-05T15:00:23.565Z</time></trkpt><trkpt lat="38.0276783" lon="12.8733583"><ele>244.0</ele><time>2026-05-05T15:00:24.565Z</time></trkpt><trkpt lat="38.02779" lon="12.8733667"><ele>243.79999999999998</ele><time>2026-05-05T15:00:25.565Z</time></trkpt><trkpt lat="38.0278967" lon="12.8733733"><ele>243.59999999999997</ele><time>2026-05-05T15:00:26.564Z</time></trkpt><trkpt lat="38.0280033" lon="12.8733833"><ele>243.4</ele><time>2026-05-05T15:00:27.565Z</time></trkpt><trkpt lat="38.028115" lon="12.8734"><ele>243.2</ele><time>2026-05-05T15:00:28.565Z</time></trkpt><trkpt lat="38.0282333" lon="12.873415"><ele>243.0</ele><time>2026-05-05T15:00:29.565Z</time></trkpt><trkpt lat="38.0283517" lon="12.8734217"><ele>243.0</ele><time>2026-05-05T15:00:30.565Z</time></trkpt><trkpt lat="38.0284683" lon="12.8734267"><ele>243.0</ele><time>2026-05-05T15:00:31.565Z</time></trkpt><trkpt lat="38.0285783" lon="12.8734267"><ele>243.0</ele><time>2026-05-05T15:00:32.564Z</time></trkpt><trkpt lat="38.0286833" lon="12.87341"><ele>243.0</ele><time>2026-05-05T15:00:33.564Z</time></trkpt><trkpt lat="38.028785" lon="12.8733933"><ele>243.0</ele><time>2026-05-05T15:00:34.565Z</time></trkpt><trkpt lat="38.028885" lon="12.87339"><ele>243.0</ele><time>2026-05-05T15:00:35.564Z</time></trkpt><trkpt lat="38.0289867" lon="12.8733983"><ele>243.0</ele><time>2026-05-05T15:00:36.565Z</time></trkpt><trkpt lat="38.02908" lon="12.8734017"><ele>243.0</ele><time>2026-05-05T15:00:37.565Z</time></trkpt><trkpt lat="38.0291833" lon="12.8733967"><ele>243.0</ele><time>2026-05-05T15:00:38.565Z</time></trkpt><trkpt lat="38.02929" lon="12.8733767"><ele>243.0</ele><time>2026-05-05T15:00:39.565Z</time></trkpt><trkpt lat="38.0293967" lon="12.873355"><ele>241.0</ele><time>2026-05-05T15:00:40.563Z</time></trkpt><trkpt lat="38.0295083" lon="12.8733283"><ele>239.0</ele><time>2026-05-05T15:00:41.565Z</time></trkpt><trkpt lat="38.0296133" lon="12.87329"><ele>237.0</ele><time>2026-05-05T15:00:42.565Z</time></trkpt><trkpt lat="38.0297217" lon="12.8732367"><ele>235.0</ele><time>2026-05-05T15:00:43.566Z</time></trkpt><trkpt lat="38.0298317" lon="12.8731767"><ele>235.0</ele><time>2026-05-05T15:00:44.565Z</time></trkpt><trkpt lat="38.0299383" lon="12.8731067"><ele>235.0</ele><time>2026-05-05T15:00:45.564Z</time></trkpt><trkpt lat="38.03005" lon="12.8730167"><ele>235.0</ele><time>2026-05-05T15:00:46.565Z</time></trkpt><trkpt lat="38.0301633" lon="12.8729167"><ele>235.0</ele><time>2026-05-05T15:00:47.567Z</time></trkpt><trkpt lat="38.03028" lon="12.87281"><ele>238.75</ele><time>2026-05-05T15:00:48.565Z</time></trkpt><trkpt lat="38.0303933" lon="12.8727033"><ele>242.5</ele><time>2026-05-05T15:00:49.565Z</time></trkpt><trkpt lat="38.0305033" lon="12.8725967"><ele>246.25</ele><time>2026-05-05T15:00:50.566Z</time></trkpt><trkpt lat="38.0306017" lon="12.87249"><ele>250.0</ele><time>2026-05-05T15:00:51.563Z</time></trkpt><trkpt lat="38.0306783" lon="12.8723833"><ele>250.0</ele><time>2026-05-05T15:00:52.565Z</time></trkpt><trkpt lat="38.0307367" lon="12.8722783"><ele>250.0</ele><time>2026-05-05T15:00:53.565Z</time></trkpt><trkpt lat="38.0307833" lon="12.8721783"><ele>250.0</ele><time>2026-05-05T15:00:54.565Z</time></trkpt><trkpt lat="38.0308167" lon="12.8720917"><ele>250.0</ele><time>2026-05-05T15:00:55.565Z</time></trkpt><trkpt lat="38.0309133" lon="12.87202"><ele>250.0</ele><time>2026-05-05T15:00:57.564Z</time></trkpt><trkpt lat="38.03099" lon="12.8720867"><ele>243.4</ele><time>2026-05-05T15:00:59.565Z</time></trkpt><trkpt lat="38.030965" lon="12.8721617"><ele>236.8</ele><time>2026-05-05T15:01:01.565Z</time></trkpt><trkpt lat="38.03091" lon="12.8722867"><ele>230.2</ele><time>2026-05-05T15:01:03.564Z</time></trkpt><trkpt lat="38.0308667" lon="12.8723767"><ele>223.6</ele><time>2026-05-05T15:01:04.564Z</time></trkpt><trkpt lat="38.0308167" lon="12.8724867"><ele>217.0</ele><time>2026-05-05T15:01:05.565Z</time></trkpt><trkpt lat="38.030765" lon="12.8726117"><ele>217.0</ele><time>2026-05-05T15:01:06.565Z</time></trkpt><trkpt lat="38.0307067" lon="12.8727433"><ele>217.0</ele><time>2026-05-05T15:01:07.564Z</time></trkpt><trkpt lat="38.0306433" lon="12.8728717"><ele>217.0</ele><time>2026-05-05T15:01:08.564Z</time></trkpt><trkpt lat="38.0305783" lon="12.873005"><ele>217.0</ele><time>2026-05-05T15:01:09.563Z</time></trkpt><trkpt lat="38.0305117" lon="12.8731283"><ele>217.0</ele><time>2026-05-05T15:01:10.565Z</time></trkpt><trkpt lat="38.03044" lon="12.8732467"><ele>217.0</ele><time>2026-05-05T15:01:11.565Z</time></trkpt><trkpt lat="38.03038" lon="12.8733667"><ele>217.0</ele><time>2026-05-05T15:01:12.565Z</time></trkpt><trkpt lat="38.0303317" lon="12.8734783"><ele>217.0</ele><time>2026-05-05T15:01:13.565Z</time></trkpt><trkpt lat="38.0303067" lon="12.873565"><ele>217.0</ele><time>2026-05-05T15:01:14.565Z</time></trkpt><trkpt lat="38.0303333" lon="12.8737117"><ele>212.0</ele><time>2026-05-05T15:01:16.564Z</time></trkpt><trkpt lat="38.03042" lon="12.873805"><ele>207.0</ele><time>2026-05-05T15:01:18.565Z</time></trkpt><trkpt lat="38.030555" lon="12.8738067"><ele>202.0</ele><time>2026-05-05T15:01:20.565Z</time></trkpt><trkpt lat="38.03063" lon="12.873785"><ele>197.0</ele><time>2026-05-05T15:01:21.565Z</time></trkpt><trkpt lat="38.030725" lon="12.873725"><ele>192.0</ele><time>2026-05-05T15:01:22.564Z</time></trkpt><trkpt lat="38.0307933" lon="12.8736733"><ele>191.16666666666666</ele><time>2026-05-05T15:01:23.565Z</time></trkpt><trkpt lat="38.03085" lon="12.8736067"><ele>190.33333333333334</ele><time>2026-05-05T15:01:24.566Z</time></trkpt><trkpt lat="38.03091" lon="12.8735417"><ele>189.5</ele><time>2026-05-05T15:01:25.564Z</time></trkpt><trkpt lat="38.03097" lon="12.873475"><ele>188.66666666666669</ele><time>2026-05-05T15:01:26.565Z</time></trkpt><trkpt lat="38.0310267" lon="12.8734117"><ele>187.83333333333334</ele><time>2026-05-05T15:01:27.564Z</time></trkpt><trkpt lat="38.0310767" lon="12.8733567"><ele>187.0</ele><time>2026-05-05T15:01:28.564Z</time></trkpt><trkpt lat="38.0311283" lon="12.87327"><ele>189.0</ele><time>2026-05-05T15:01:30.565Z</time></trkpt><trkpt lat="38.03117" lon="12.8731883"><ele>191.0</ele><time>2026-05-05T15:01:33.563Z</time></trkpt><trkpt lat="38.031215" lon="12.8731183"><ele>193.0</ele><time>2026-05-05T15:01:37.565Z</time></trkpt><trkpt lat="38.0313017" lon="12.8731083"><ele>195.0</ele><time>2026-05-05T15:01:48.563Z</time></trkpt><trkpt lat="38.0313033" lon="12.8732517"><ele>196.99999999999997</ele><time>2026-05-05T15:01:51.564Z</time></trkpt><trkpt lat="38.0313033" lon="12.8733317"><ele>199.0</ele><time>2026-05-05T15:01:52.564Z</time></trkpt><trkpt lat="38.0313217" lon="12.8734267"><ele>196.99999999999997</ele><time>2026-05-05T15:01:53.566Z</time></trkpt><trkpt lat="38.0313333" lon="12.8735183"><ele>195.0</ele><time>2026-05-05T15:01:54.563Z</time></trkpt><trkpt lat="38.0313217" lon="12.8736"><ele>193.0</ele><time>2026-05-05T15:01:55.566Z</time></trkpt><trkpt lat="38.03129" lon="12.8737383"><ele>191.0</ele><time>2026-05-05T15:01:57.564Z</time></trkpt><trkpt lat="38.0312667" lon="12.8738417"><ele>189.0</ele><time>2026-05-05T15:01:59.566Z</time></trkpt><trkpt lat="38.0312367" lon="12.8739533"><ele>187.0</ele><time>2026-05-05T15:02:02.564Z</time></trkpt><trkpt lat="38.0312683" lon="12.8740317"><ele>187.0</ele><time>2026-05-05T15:02:06.565Z</time></trkpt></trkseg><trkseg><trkpt lat="38.0312317" lon="12.87397"><ele>187.0</ele><time>2026-05-05T15:28:49.564Z</time></trkpt><trkpt lat="38.0312617" lon="12.8738733"><ele>187.0</ele><time>2026-05-05T15:28:52.563Z</time></trkpt><trkpt lat="38.0312917" lon="12.8737767"><ele>187.0</ele><time>2026-05-05T15:28:55.567Z</time></trkpt><trkpt lat="38.0313083" lon="12.8736767"><ele>187.0</ele><time>2026-05-05T15:28:57.564Z</time></trkpt><trkpt lat="38.031305" lon="12.8735367"><ele>187.0</ele><time>2026-05-05T15:28:59.566Z</time></trkpt><trkpt lat="38.0313083" lon="12.873445"><ele>187.0</ele><time>2026-05-05T15:29:00.566Z</time></trkpt><trkpt lat="38.0313083" lon="12.8733417"><ele>189.39999999999998</ele><time>2026-05-05T15:29:01.566Z</time></trkpt><trkpt lat="38.031315" lon="12.8732283"><ele>191.79999999999998</ele><time>2026-05-05T15:29:02.566Z</time></trkpt><trkpt lat="38.031325" lon="12.8731017"><ele>194.2</ele><time>2026-05-05T15:29:03.564Z</time></trkpt><trkpt lat="38.0313367" lon="12.8729667"><ele>196.6</ele><time>2026-05-05T15:29:04.566Z</time></trkpt><trkpt lat="38.0313517" lon="12.8728317"><ele>199.0</ele><time>2026-05-05T15:29:05.564Z</time></trkpt><trkpt lat="38.031365" lon="12.8727017"><ele>202.2</ele><time>2026-05-05T15:29:06.563Z</time></trkpt><trkpt lat="38.0313783" lon="12.8725683"><ele>205.39999999999998</ele><time>2026-05-05T15:29:07.565Z</time></trkpt><trkpt lat="38.0313967" lon="12.8724383"><ele>208.6</ele><time>2026-05-05T15:29:08.565Z</time></trkpt><trkpt lat="38.0314167" lon="12.872305"><ele>211.8</ele><time>2026-05-05T15:29:09.564Z</time></trkpt><trkpt lat="38.031435" lon="12.87217"><ele>215.0</ele><time>2026-05-05T15:29:10.563Z</time></trkpt><trkpt lat="38.0314533" lon="12.87203"><ele>215.0</ele><time>2026-05-05T15:29:11.564Z</time></trkpt><trkpt lat="38.0314717" lon="12.87189"><ele>215.0</ele><time>2026-05-05T15:29:12.565Z</time></trkpt><trkpt lat="38.0315033" lon="12.8717467"><ele>215.0</ele><time>2026-05-05T15:29:13.57Z</time></trkpt><trkpt lat="38.0315533" lon="12.8716117"><ele>215.0</ele><time>2026-05-05T15:29:14.564Z</time></trkpt><trkpt lat="38.0316217" lon="12.871495"><ele>209.5</ele><time>2026-05-05T15:29:15.564Z</time></trkpt><trkpt lat="38.0317067" lon="12.8713967"><ele>204.0</ele><time>2026-05-05T15:29:16.563Z</time></trkpt><trkpt lat="38.0318033" lon="12.87132"><ele>198.5</ele><time>2026-05-05T15:29:17.566Z</time></trkpt><trkpt lat="38.0319067" lon="12.8712667"><ele>193.0</ele><time>2026-05-05T15:29:18.564Z</time></trkpt><trkpt lat="38.0320183" lon="12.87123"><ele>193.0</ele><time>2026-05-05T15:29:19.565Z</time></trkpt><trkpt lat="38.03213" lon="12.8712"><ele>193.0</ele><time>2026-05-05T15:29:20.566Z</time></trkpt><trkpt lat="38.0322433" lon="12.871185"><ele>193.0</ele><time>2026-05-05T15:29:21.564Z</time></trkpt><trkpt lat="38.0323633" lon="12.87118"><ele>193.0</ele><time>2026-05-05T15:29:22.563Z</time></trkpt><trkpt lat="38.032485" lon="12.8711867"><ele>187.75</ele><time>2026-05-05T15:29:23.565Z</time></trkpt><trkpt lat="38.0326083" lon="12.8712067"><ele>182.5</ele><time>2026-05-05T15:29:24.564Z</time></trkpt><trkpt lat="38.03273" lon="12.871225"><ele>177.25</ele><time>2026-05-05T15:29:25.564Z</time></trkpt><trkpt lat="38.0328567" lon="12.8712367"><ele>172.0</ele><time>2026-05-05T15:29:26.564Z</time></trkpt><trkpt lat="38.032975" lon="12.8712317"><ele>172.0</ele><time>2026-05-05T15:29:27.565Z</time></trkpt><trkpt lat="38.0330933" lon="12.8712033"><ele>172.0</ele><time>2026-05-05T15:29:28.565Z</time></trkpt><trkpt lat="38.03321" lon="12.8711583"><ele>172.0</ele><time>2026-05-05T15:29:29.564Z</time></trkpt><trkpt lat="38.033325" lon="12.8710933"><ele>172.0</ele><time>2026-05-05T15:29:30.563Z</time></trkpt><trkpt lat="38.0334383" lon="12.8710067"><ele>180.0</ele><time>2026-05-05T15:29:31.564Z</time></trkpt><trkpt lat="38.0335533" lon="12.8709067"><ele>188.0</ele><time>2026-05-05T15:29:32.565Z</time></trkpt><trkpt lat="38.03367" lon="12.87079"><ele>196.0</ele><time>2026-05-05T15:29:33.564Z</time></trkpt><trkpt lat="38.0337883" lon="12.8706633"><ele>204.0</ele><time>2026-05-05T15:29:34.565Z</time></trkpt><trkpt lat="38.03391" lon="12.8705283"><ele>204.0</ele><time>2026-05-05T15:29:35.565Z</time></trkpt><trkpt lat="38.0340317" lon="12.870395"><ele>204.0</ele><time>2026-05-05T15:29:36.564Z</time></trkpt><trkpt lat="38.03415" lon="12.8702683"><ele>204.0</ele><time>2026-05-05T15:29:37.564Z</time></trkpt><trkpt lat="38.034265" lon="12.8701483"><ele>202.25</ele><time>2026-05-05T15:29:38.565Z</time></trkpt><trkpt lat="38.0343767" lon="12.870035"><ele>200.5</ele><time>2026-05-05T15:29:39.564Z</time></trkpt><trkpt lat="38.0344883" lon="12.8699317"><ele>198.75</ele><time>2026-05-05T15:29:40.564Z</time></trkpt><trkpt lat="38.0346083" lon="12.869835"><ele>197.0</ele><time>2026-05-05T15:29:41.564Z</time></trkpt><trkpt lat="38.034735" lon="12.8697433"><ele>197.0</ele><time>2026-05-05T15:29:42.564Z</time></trkpt><trkpt lat="38.034865" lon="12.869655"><ele>197.0</ele><time>2026-05-05T15:29:43.564Z</time></trkpt><trkpt lat="38.0349983" lon="12.8695683"><ele>197.0</ele><time>2026-05-05T15:29:44.564Z</time></trkpt><trkpt lat="38.0351317" lon="12.8694783"><ele>197.0</ele><time>2026-05-05T15:29:45.564Z</time></trkpt><trkpt lat="38.035265" lon="12.869385"><ele>198.66666666666669</ele><time>2026-05-05T15:29:46.564Z</time></trkpt><trkpt lat="38.0354" lon="12.86929"><ele>200.33333333333331</ele><time>2026-05-05T15:29:47.565Z</time></trkpt><trkpt lat="38.035535" lon="12.8691933"><ele>202.0</ele><time>2026-05-05T15:29:48.564Z</time></trkpt><trkpt lat="38.0356733" lon="12.869095"><ele>194.33333333333331</ele><time>2026-05-05T15:29:49.565Z</time></trkpt><trkpt lat="38.03581" lon="12.8689933"><ele>186.66666666666666</ele><time>2026-05-05T15:29:50.564Z</time></trkpt><trkpt lat="38.0359467" lon="12.8688867"><ele>179.0</ele><time>2026-05-05T15:29:51.565Z</time></trkpt><trkpt lat="38.0360833" lon="12.8687717"><ele>179.0</ele><time>2026-05-05T15:29:52.563Z</time></trkpt><trkpt lat="38.0362183" lon="12.868655"><ele>179.0</ele><time>2026-05-05T15:29:53.566Z</time></trkpt><trkpt lat="38.036355" lon="12.8685317"><ele>179.0</ele><time>2026-05-05T15:29:54.565Z</time></trkpt><trkpt lat="38.0364933" lon="12.8684067"><ele>178.33333333333331</ele><time>2026-05-05T15:29:55.564Z</time></trkpt><trkpt lat="38.0366317" lon="12.868275"><ele>177.66666666666666</ele><time>2026-05-05T15:29:56.566Z</time></trkpt><trkpt lat="38.0367683" lon="12.8681483"><ele>177.0</ele><time>2026-05-05T15:29:57.564Z</time></trkpt><trkpt lat="38.0369" lon="12.868025"><ele>177.0</ele><time>2026-05-05T15:29:58.565Z</time></trkpt><trkpt lat="38.0370267" lon="12.8679067"><ele>177.0</ele><time>2026-05-05T15:29:59.565Z</time></trkpt><trkpt lat="38.0371533" lon="12.8677917"><ele>177.0</ele><time>2026-05-05T15:30:00.564Z</time></trkpt><trkpt lat="38.0372767" lon="12.867675"><ele>176.33333333333334</ele><time>2026-05-05T15:30:01.565Z</time></trkpt><trkpt lat="38.0374033" lon="12.8675567"><ele>175.66666666666669</ele><time>2026-05-05T15:30:02.565Z</time></trkpt><trkpt lat="38.0375333" lon="12.8674367"><ele>175.0</ele><time>2026-05-05T15:30:03.564Z</time></trkpt><trkpt lat="38.0376617" lon="12.8673117"><ele>175.0</ele><time>2026-05-05T15:30:04.565Z</time></trkpt><trkpt lat="38.0377917" lon="12.8671883"><ele>175.0</ele><time>2026-05-05T15:30:05.564Z</time></trkpt><trkpt lat="38.0379233" lon="12.8670667"><ele>175.0</ele><time>2026-05-05T15:30:06.563Z</time></trkpt><trkpt lat="38.0380533" lon="12.8669467"><ele>175.0</ele><time>2026-05-05T15:30:07.565Z</time></trkpt><trkpt lat="38.0381817" lon="12.8668267"><ele>175.0</ele><time>2026-05-05T15:30:08.563Z</time></trkpt><trkpt lat="38.0383117" lon="12.866705"><ele>175.0</ele><time>2026-05-05T15:30:09.564Z</time></trkpt><trkpt lat="38.0384417" lon="12.8665817"><ele>174.0</ele><time>2026-05-05T15:30:10.564Z</time></trkpt><trkpt lat="38.0385717" lon="12.8664533"><ele>173.0</ele><time>2026-05-05T15:30:11.564Z</time></trkpt><trkpt lat="38.0387" lon="12.8663167"><ele>172.0</ele><time>2026-05-05T15:30:12.564Z</time></trkpt><trkpt lat="38.03882" lon="12.8661783"><ele>172.0</ele><time>2026-05-05T15:30:13.563Z</time></trkpt><trkpt lat="38.0389283" lon="12.8660367"><ele>172.0</ele><time>2026-05-05T15:30:14.564Z</time></trkpt><trkpt lat="38.0390267" lon="12.8659"><ele>172.0</ele><time>2026-05-05T15:30:15.564Z</time></trkpt><trkpt lat="38.0391217" lon="12.86576"><ele>172.0</ele><time>2026-05-05T15:30:16.564Z</time></trkpt><trkpt lat="38.039215" lon="12.8656167"><ele>170.0</ele><time>2026-05-05T15:30:17.565Z</time></trkpt><trkpt lat="38.0393083" lon="12.8654667"><ele>168.0</ele><time>2026-05-05T15:30:18.564Z</time></trkpt><trkpt lat="38.039395" lon="12.8653083"><ele>166.0</ele><time>2026-05-05T15:30:19.563Z</time></trkpt><trkpt lat="38.039475" lon="12.8651433"><ele>166.66666666666669</ele><time>2026-05-05T15:30:20.564Z</time></trkpt><trkpt lat="38.0395517" lon="12.86497"><ele>167.33333333333334</ele><time>2026-05-05T15:30:21.565Z</time></trkpt><trkpt lat="38.039625" lon="12.86479"><ele>168.0</ele><time>2026-05-05T15:30:22.563Z</time></trkpt><trkpt lat="38.03969" lon="12.8646033"><ele>168.0</ele><time>2026-05-05T15:30:23.564Z</time></trkpt><trkpt lat="38.03975" lon="12.86441"><ele>168.0</ele><time>2026-05-05T15:30:24.565Z</time></trkpt><trkpt lat="38.0398033" lon="12.86421"><ele>168.0</ele><time>2026-05-05T15:30:25.567Z</time></trkpt><trkpt lat="38.0398467" lon="12.8640083"><ele>168.33333333333334</ele><time>2026-05-05T15:30:26.566Z</time></trkpt><trkpt lat="38.0398833" lon="12.8637983"><ele>168.66666666666669</ele><time>2026-05-05T15:30:27.563Z</time></trkpt><trkpt lat="38.0399083" lon="12.8635833"><ele>169.0</ele><time>2026-05-05T15:30:28.564Z</time></trkpt><trkpt lat="38.0399317" lon="12.8633667"><ele>169.0</ele><time>2026-05-05T15:30:29.566Z</time></trkpt><trkpt lat="38.0399467" lon="12.8631467"><ele>169.0</ele><time>2026-05-05T15:30:30.564Z</time></trkpt><trkpt lat="38.0399567" lon="12.8629317"><ele>169.0</ele><time>2026-05-05T15:30:31.564Z</time></trkpt><trkpt lat="38.03996" lon="12.8627217"><ele>169.0</ele><time>2026-05-05T15:30:32.565Z</time></trkpt><trkpt lat="38.03996" lon="12.862525"><ele>169.0</ele><time>2026-05-05T15:30:33.565Z</time></trkpt><trkpt lat="38.0399617" lon="12.8623383"><ele>169.0</ele><time>2026-05-05T15:30:34.564Z</time></trkpt><trkpt lat="38.0399667" lon="12.862165"><ele>169.0</ele><time>2026-05-05T15:30:35.566Z</time></trkpt><trkpt lat="38.03997" lon="12.8620083"><ele>166.25</ele><time>2026-05-05T15:30:36.563Z</time></trkpt><trkpt lat="38.0399733" lon="12.8618617"><ele>163.5</ele><time>2026-05-05T15:30:37.565Z</time></trkpt><trkpt lat="38.0399783" lon="12.861715"><ele>160.75</ele><time>2026-05-05T15:30:38.565Z</time></trkpt><trkpt lat="38.0399833" lon="12.8615667"><ele>158.0</ele><time>2026-05-05T15:30:39.565Z</time></trkpt><trkpt lat="38.0399883" lon="12.861415"><ele>158.0</ele><time>2026-05-05T15:30:40.563Z</time></trkpt><trkpt lat="38.0399917" lon="12.8612583"><ele>158.0</ele><time>2026-05-05T15:30:41.564Z</time></trkpt><trkpt lat="38.039995" lon="12.8611067"><ele>158.0</ele><time>2026-05-05T15:30:42.564Z</time></trkpt><trkpt lat="38.0399983" lon="12.8609717"><ele>158.0</ele><time>2026-05-05T15:30:43.564Z</time></trkpt><trkpt lat="38.0399983" lon="12.86086"><ele>158.0</ele><time>2026-05-05T15:30:44.565Z</time></trkpt><trkpt lat="38.0400017" lon="12.8607683"><ele>158.0</ele><time>2026-05-05T15:30:45.563Z</time></trkpt><trkpt lat="38.0400083" lon="12.8606883"><ele>158.0</ele><time>2026-05-05T15:30:46.565Z</time></trkpt><trkpt lat="38.0400433" lon="12.8605767"><ele>158.0</ele><time>2026-05-05T15:30:48.564Z</time></trkpt><trkpt lat="38.0401083" lon="12.860545"><ele>158.0</ele><time>2026-05-05T15:30:51.563Z</time></trkpt><trkpt lat="38.0401967" lon="12.86056"><ele>158.0</ele><time>2026-05-05T15:31:03.564Z</time></trkpt><trkpt lat="38.04029" lon="12.86055"><ele>158.0</ele><time>2026-05-05T15:31:05.565Z</time></trkpt><trkpt lat="38.0404133" lon="12.8605333"><ele>158.00000000000003</ele><time>2026-05-05T15:31:07.565Z</time></trkpt><trkpt lat="38.0404817" lon="12.8605267"><ele>158.0</ele><time>2026-05-05T15:31:08.565Z</time></trkpt><trkpt lat="38.0405533" lon="12.860525"><ele>158.0</ele><time>2026-05-05T15:31:09.563Z</time></trkpt><trkpt lat="38.0406217" lon="12.8605217"><ele>158.0</ele><time>2026-05-05T15:31:10.565Z</time></trkpt><trkpt lat="38.0406883" lon="12.8605267"><ele>158.0</ele><time>2026-05-05T15:31:11.566Z</time></trkpt><trkpt lat="38.040755" lon="12.8605367"><ele>158.00000000000003</ele><time>2026-05-05T15:31:12.565Z</time></trkpt><trkpt lat="38.04082" lon="12.8605533"><ele>158.0</ele><time>2026-05-05T15:31:13.565Z</time></trkpt><trkpt lat="38.0408817" lon="12.860575"><ele>157.33333333333331</ele><time>2026-05-05T15:31:14.566Z</time></trkpt><trkpt lat="38.0409467" lon="12.8606033"><ele>156.66666666666666</ele><time>2026-05-05T15:31:15.563Z</time></trkpt><trkpt lat="38.041015" lon="12.8606283"><ele>156.0</ele><time>2026-05-05T15:31:16.564Z</time></trkpt><trkpt lat="38.0410933" lon="12.8606483"><ele>155.33333333333334</ele><time>2026-05-05T15:31:17.564Z</time></trkpt><trkpt lat="38.0411783" lon="12.860665"><ele>154.66666666666669</ele><time>2026-05-05T15:31:18.564Z</time></trkpt><trkpt lat="38.04127" lon="12.8606817"><ele>154.0</ele><time>2026-05-05T15:31:19.566Z</time></trkpt><trkpt lat="38.041365" lon="12.8606933"><ele>154.0</ele><time>2026-05-05T15:31:20.564Z</time></trkpt><trkpt lat="38.0414633" lon="12.8606933"><ele>154.0</ele><time>2026-05-05T15:31:21.564Z</time></trkpt><trkpt lat="38.0415567" lon="12.86068"><ele>154.0</ele><time>2026-05-05T15:31:22.564Z</time></trkpt><trkpt lat="38.0416517" lon="12.8606667"><ele>154.0</ele><time>2026-05-05T15:31:23.564Z</time></trkpt><trkpt lat="38.0417483" lon="12.8606683"><ele>154.0</ele><time>2026-05-05T15:31:24.564Z</time></trkpt><trkpt lat="38.0418467" lon="12.860685"><ele>153.0</ele><time>2026-05-05T15:31:25.565Z</time></trkpt><trkpt lat="38.0419517" lon="12.860705"><ele>152.0</ele><time>2026-05-05T15:31:26.565Z</time></trkpt><trkpt lat="38.0420533" lon="12.8607267"><ele>151.0</ele><time>2026-05-05T15:31:27.564Z</time></trkpt><trkpt lat="38.0421483" lon="12.8607517"><ele>150.0</ele><time>2026-05-05T15:31:28.564Z</time></trkpt><trkpt lat="38.042225" lon="12.860785"><ele>149.0</ele><time>2026-05-05T15:31:29.565Z</time></trkpt><trkpt lat="38.042285" lon="12.8608333"><ele>149.0</ele><time>2026-05-05T15:31:30.565Z</time></trkpt><trkpt lat="38.0423267" lon="12.8609"><ele>149.0</ele><time>2026-05-05T15:31:31.564Z</time></trkpt><trkpt lat="38.04235" lon="12.8609933"><ele>149.0</ele><time>2026-05-05T15:31:32.565Z</time></trkpt><trkpt lat="38.0423633" lon="12.8610983"><ele>149.0</ele><time>2026-05-05T15:31:33.564Z</time></trkpt><trkpt lat="38.0423717" lon="12.8612117"><ele>149.0</ele><time>2026-05-05T15:31:34.564Z</time></trkpt><trkpt lat="38.0423783" lon="12.86133"><ele>149.0</ele><time>2026-05-05T15:31:35.565Z</time></trkpt><trkpt lat="38.04238" lon="12.861475"><ele>148.4</ele><time>2026-05-05T15:31:36.564Z</time></trkpt><trkpt lat="38.042375" lon="12.86163"><ele>147.8</ele><time>2026-05-05T15:31:37.565Z</time></trkpt><trkpt lat="38.04237" lon="12.8617817"><ele>147.2</ele><time>2026-05-05T15:31:38.565Z</time></trkpt><trkpt lat="38.04237" lon="12.8619167"><ele>146.6</ele><time>2026-05-05T15:31:39.564Z</time></trkpt><trkpt lat="38.0423867" lon="12.8620317"><ele>146.0</ele><time>2026-05-05T15:31:40.565Z</time></trkpt><trkpt lat="38.04242" lon="12.8621383"><ele>144.0</ele><time>2026-05-05T15:31:41.565Z</time></trkpt><trkpt lat="38.04248" lon="12.86223"><ele>142.0</ele><time>2026-05-05T15:31:42.565Z</time></trkpt><trkpt lat="38.042555" lon="12.8623233"><ele>140.0</ele><time>2026-05-05T15:31:43.563Z</time></trkpt><trkpt lat="38.0426333" lon="12.8624167"><ele>138.0</ele><time>2026-05-05T15:31:44.564Z</time></trkpt><trkpt lat="38.0427167" lon="12.8625133"><ele>136.0</ele><time>2026-05-05T15:31:45.565Z</time></trkpt><trkpt lat="38.0428017" lon="12.862605"><ele>137.0</ele><time>2026-05-05T15:31:46.563Z</time></trkpt><trkpt lat="38.0428867" lon="12.862695"><ele>138.0</ele><time>2026-05-05T15:31:47.564Z</time></trkpt><trkpt lat="38.04297" lon="12.8627817"><ele>139.0</ele><time>2026-05-05T15:31:48.563Z</time></trkpt><trkpt lat="38.0430517" lon="12.8628717"><ele>140.0</ele><time>2026-05-05T15:31:49.563Z</time></trkpt><trkpt lat="38.0431333" lon="12.862965"><ele>141.0</ele><time>2026-05-05T15:31:50.564Z</time></trkpt><trkpt lat="38.0432183" lon="12.8630617"><ele>138.8</ele><time>2026-05-05T15:31:51.564Z</time></trkpt><trkpt lat="38.0433067" lon="12.86315"><ele>136.6</ele><time>2026-05-05T15:31:52.564Z</time></trkpt><trkpt lat="38.043395" lon="12.863235"><ele>134.4</ele><time>2026-05-05T15:31:53.563Z</time></trkpt><trkpt lat="38.0434817" lon="12.8633183"><ele>132.2</ele><time>2026-05-05T15:31:54.564Z</time></trkpt><trkpt lat="38.0435617" lon="12.8634017"><ele>130.0</ele><time>2026-05-05T15:31:55.565Z</time></trkpt><trkpt lat="38.0436367" lon="12.8634867"><ele>130.0</ele><time>2026-05-05T15:31:56.564Z</time></trkpt><trkpt lat="38.0437" lon="12.8635767"><ele>130.0</ele><time>2026-05-05T15:31:57.564Z</time></trkpt><trkpt lat="38.04375" lon="12.863685"><ele>130.0</ele><time>2026-05-05T15:31:58.565Z</time></trkpt><trkpt lat="38.0437917" lon="12.86381"><ele>130.0</ele><time>2026-05-05T15:31:59.565Z</time></trkpt><trkpt lat="38.04383" lon="12.8639383"><ele>130.0</ele><time>2026-05-05T15:32:00.563Z</time></trkpt><trkpt lat="38.0438733" lon="12.8640583"><ele>130.0</ele><time>2026-05-05T15:32:01.564Z</time></trkpt><trkpt lat="38.0439267" lon="12.8641633"><ele>130.0</ele><time>2026-05-05T15:32:02.564Z</time></trkpt><trkpt lat="38.043995" lon="12.8642533"><ele>130.0</ele><time>2026-05-05T15:32:03.564Z</time></trkpt><trkpt lat="38.0440783" lon="12.864325"><ele>130.0</ele><time>2026-05-05T15:32:04.564Z</time></trkpt><trkpt lat="38.0441733" lon="12.86438"><ele>130.0</ele><time>2026-05-05T15:32:05.565Z</time></trkpt><trkpt lat="38.0442733" lon="12.864415"><ele>128.66666666666669</ele><time>2026-05-05T15:32:06.566Z</time></trkpt><trkpt lat="38.0443617" lon="12.8644417"><ele>127.33333333333334</ele><time>2026-05-05T15:32:07.563Z</time></trkpt><trkpt lat="38.0444367" lon="12.86447"><ele>126.0</ele><time>2026-05-05T15:32:08.565Z</time></trkpt><trkpt lat="38.0444967" lon="12.864515"><ele>124.66666666666666</ele><time>2026-05-05T15:32:09.564Z</time></trkpt><trkpt lat="38.0445383" lon="12.86458"><ele>123.33333333333333</ele><time>2026-05-05T15:32:10.564Z</time></trkpt><trkpt lat="38.0445633" lon="12.8646667"><ele>122.0</ele><time>2026-05-05T15:32:11.566Z</time></trkpt><trkpt lat="38.0445717" lon="12.8647717"><ele>121.99999999999999</ele><time>2026-05-05T15:32:12.566Z</time></trkpt><trkpt lat="38.0445733" lon="12.8648817"><ele>122.0</ele><time>2026-05-05T15:32:13.564Z</time></trkpt><trkpt lat="38.0445767" lon="12.8649883"><ele>122.0</ele><time>2026-05-05T15:32:14.566Z</time></trkpt><trkpt lat="38.04458" lon="12.8650867"><ele>122.0</ele><time>2026-05-05T15:32:15.564Z</time></trkpt><trkpt lat="38.0445833" lon="12.8651783"><ele>121.99999999999999</ele><time>2026-05-05T15:32:16.565Z</time></trkpt><trkpt lat="38.0445817" lon="12.865265"><ele>122.0</ele><time>2026-05-05T15:32:17.565Z</time></trkpt><trkpt lat="38.0445883" lon="12.8654067"><ele>121.99999999999999</ele><time>2026-05-05T15:32:19.564Z</time></trkpt><trkpt lat="38.0446633" lon="12.865465"><ele>122.0</ele><time>2026-05-05T15:32:21.565Z</time></trkpt><trkpt lat="38.0447633" lon="12.865405"><ele>122.0</ele><time>2026-05-05T15:32:23.567Z</time></trkpt><trkpt lat="38.04481" lon="12.8653317"><ele>122.0</ele><time>2026-05-05T15:32:24.564Z</time></trkpt><trkpt lat="38.0448533" lon="12.8652383"><ele>121.99999999999999</ele><time>2026-05-05T15:32:25.566Z</time></trkpt><trkpt lat="38.0448883" lon="12.86514"><ele>122.0</ele><time>2026-05-05T15:32:26.565Z</time></trkpt><trkpt lat="38.0449167" lon="12.8650417"><ele>121.99999999999999</ele><time>2026-05-05T15:32:27.564Z</time></trkpt><trkpt lat="38.0449467" lon="12.8649417"><ele>122.0</ele><time>2026-05-05T15:32:28.565Z</time></trkpt><trkpt lat="38.0449783" lon="12.864835"><ele>122.0</ele><time>2026-05-05T15:32:29.566Z</time></trkpt><trkpt lat="38.0450067" lon="12.8647267"><ele>122.0</ele><time>2026-05-05T15:32:30.564Z</time></trkpt><trkpt lat="38.0450283" lon="12.8646167"><ele>121.99999999999999</ele><time>2026-05-05T15:32:31.565Z</time></trkpt><trkpt lat="38.0450433" lon="12.8645017"><ele>122.0</ele><time>2026-05-05T15:32:32.564Z</time></trkpt><trkpt lat="38.0450517" lon="12.8643817"><ele>119.16666666666666</ele><time>2026-05-05T15:32:33.564Z</time></trkpt><trkpt lat="38.045055" lon="12.864265"><ele>116.33333333333333</ele><time>2026-05-05T15:32:34.564Z</time></trkpt><trkpt lat="38.0450483" lon="12.864155"><ele>113.5</ele><time>2026-05-05T15:32:35.565Z</time></trkpt><trkpt lat="38.0450283" lon="12.864055"><ele>110.66666666666666</ele><time>2026-05-05T15:32:36.564Z</time></trkpt><trkpt lat="38.045" lon="12.8639667"><ele>107.83333333333333</ele><time>2026-05-05T15:32:37.564Z</time></trkpt><trkpt lat="38.0449767" lon="12.863885"><ele>105.0</ele><time>2026-05-05T15:32:38.566Z</time></trkpt><trkpt lat="38.044975" lon="12.86374"><ele>105.0</ele><time>2026-05-05T15:32:40.565Z</time></trkpt><trkpt lat="38.0450917" lon="12.8636267"><ele>105.0</ele><time>2026-05-05T15:32:42.564Z</time></trkpt><trkpt lat="38.0451733" lon="12.8635767"><ele>105.0</ele><time>2026-05-05T15:32:43.564Z</time></trkpt><trkpt lat="38.0452467" lon="12.863515"><ele>105.0</ele><time>2026-05-05T15:32:44.564Z</time></trkpt><trkpt lat="38.0453083" lon="12.8634417"><ele>105.0</ele><time>2026-05-05T15:32:45.564Z</time></trkpt><trkpt lat="38.0453567" lon="12.863355"><ele>104.66666666666667</ele><time>2026-05-05T15:32:46.565Z</time></trkpt><trkpt lat="38.0453967" lon="12.863255"><ele>104.33333333333334</ele><time>2026-05-05T15:32:47.563Z</time></trkpt><trkpt lat="38.0454267" lon="12.863145"><ele>104.0</ele><time>2026-05-05T15:32:48.565Z</time></trkpt><trkpt lat="38.045455" lon="12.8630383"><ele>103.66666666666667</ele><time>2026-05-05T15:32:49.564Z</time></trkpt><trkpt lat="38.0454817" lon="12.8629417"><ele>103.33333333333334</ele><time>2026-05-05T15:32:50.563Z</time></trkpt><trkpt lat="38.0455083" lon="12.8628533"><ele>103.0</ele><time>2026-05-05T15:32:51.565Z</time></trkpt><trkpt lat="38.045535" lon="12.86276"><ele>103.00000000000001</ele><time>2026-05-05T15:32:52.564Z</time></trkpt><trkpt lat="38.0455617" lon="12.8626617"><ele>103.0</ele><time>2026-05-05T15:32:53.564Z</time></trkpt><trkpt lat="38.0455833" lon="12.8625633"><ele>103.0</ele><time>2026-05-05T15:32:54.563Z</time></trkpt><trkpt lat="38.0455983" lon="12.8624633"><ele>103.0</ele><time>2026-05-05T15:32:55.564Z</time></trkpt><trkpt lat="38.045605" lon="12.8623617"><ele>103.00000000000001</ele><time>2026-05-05T15:32:56.564Z</time></trkpt><trkpt lat="38.0456083" lon="12.8622567"><ele>103.0</ele><time>2026-05-05T15:32:57.564Z</time></trkpt><trkpt lat="38.045605" lon="12.862145"><ele>102.50000000000001</ele><time>2026-05-05T15:32:58.564Z</time></trkpt><trkpt lat="38.0455983" lon="12.8620317"><ele>102.0</ele><time>2026-05-05T15:32:59.565Z</time></trkpt><trkpt lat="38.0455883" lon="12.8619217"><ele>101.5</ele><time>2026-05-05T15:33:00.564Z</time></trkpt><trkpt lat="38.04558" lon="12.86181"><ele>101.0</ele><time>2026-05-05T15:33:01.565Z</time></trkpt><trkpt lat="38.0455717" lon="12.8616967"><ele>100.50000000000001</ele><time>2026-05-05T15:33:02.566Z</time></trkpt><trkpt lat="38.0455667" lon="12.86159"><ele>100.0</ele><time>2026-05-05T15:33:03.565Z</time></trkpt><trkpt lat="38.04557" lon="12.8614933"><ele>99.66666666666667</ele><time>2026-05-05T15:33:04.566Z</time></trkpt><trkpt lat="38.0455833" lon="12.861405"><ele>99.33333333333334</ele><time>2026-05-05T15:33:05.566Z</time></trkpt><trkpt lat="38.0456067" lon="12.8613167"><ele>99.0</ele><time>2026-05-05T15:33:06.565Z</time></trkpt><trkpt lat="38.0456433" lon="12.8612317"><ele>98.66666666666666</ele><time>2026-05-05T15:33:07.566Z</time></trkpt><trkpt lat="38.045695" lon="12.8611567"><ele>98.33333333333333</ele><time>2026-05-05T15:33:08.563Z</time></trkpt><trkpt lat="38.0457583" lon="12.8610917"><ele>98.0</ele><time>2026-05-05T15:33:09.564Z</time></trkpt><trkpt lat="38.0458283" lon="12.86103"><ele>97.99999999999999</ele><time>2026-05-05T15:33:10.564Z</time></trkpt><trkpt lat="38.0459" lon="12.860975"><ele>98.0</ele><time>2026-05-05T15:33:11.564Z</time></trkpt><trkpt lat="38.0459717" lon="12.8609283"><ele>98.0</ele><time>2026-05-05T15:33:12.563Z</time></trkpt><trkpt lat="38.0460433" lon="12.86089"><ele>98.0</ele><time>2026-05-05T15:33:13.564Z</time></trkpt><trkpt lat="38.046115" lon="12.8608567"><ele>97.99999999999999</ele><time>2026-05-05T15:33:14.565Z</time></trkpt><trkpt lat="38.0461867" lon="12.8608267"><ele>98.0</ele><time>2026-05-05T15:33:15.565Z</time></trkpt><trkpt lat="38.04626" lon="12.8608017"><ele>96.28571428571429</ele><time>2026-05-05T15:33:16.564Z</time></trkpt><trkpt lat="38.0463317" lon="12.8607783"><ele>94.57142857142857</ele><time>2026-05-05T15:33:17.564Z</time></trkpt><trkpt lat="38.0464017" lon="12.860755"><ele>92.85714285714286</ele><time>2026-05-05T15:33:18.564Z</time></trkpt><trkpt lat="38.0464733" lon="12.860735"><ele>91.14285714285714</ele><time>2026-05-05T15:33:19.563Z</time></trkpt><trkpt lat="38.046545" lon="12.8607167"><ele>89.42857142857143</ele><time>2026-05-05T15:33:20.565Z</time></trkpt><trkpt lat="38.046615" lon="12.8607"><ele>87.71428571428572</ele><time>2026-05-05T15:33:21.564Z</time></trkpt><trkpt lat="38.0466833" lon="12.8606917"><ele>86.0</ele><time>2026-05-05T15:33:22.563Z</time></trkpt><trkpt lat="38.0467933" lon="12.8607033"><ele>86.0</ele><time>2026-05-05T15:33:24.564Z</time></trkpt><trkpt lat="38.04687" lon="12.8606683"><ele>86.0</ele><time>2026-05-05T15:33:27.564Z</time></trkpt><trkpt lat="38.046835" lon="12.8605917"><ele>86.0</ele><time>2026-05-05T15:33:29.565Z</time></trkpt><trkpt lat="38.0467067" lon="12.8605417"><ele>86.0</ele><time>2026-05-05T15:33:31.564Z</time></trkpt><trkpt lat="38.0466333" lon="12.8605067"><ele>86.0</ele><time>2026-05-05T15:33:32.564Z</time></trkpt><trkpt lat="38.0465717" lon="12.86046"><ele>86.0</ele><time>2026-05-05T15:33:33.564Z</time></trkpt><trkpt lat="38.0465183" lon="12.8604"><ele>86.0</ele><time>2026-05-05T15:33:34.564Z</time></trkpt><trkpt lat="38.0464667" lon="12.860335"><ele>86.0</ele><time>2026-05-05T15:33:35.565Z</time></trkpt><trkpt lat="38.046415" lon="12.860275"><ele>86.0</ele><time>2026-05-05T15:33:36.565Z</time></trkpt><trkpt lat="38.04636" lon="12.8602217"><ele>86.0</ele><time>2026-05-05T15:33:37.564Z</time></trkpt><trkpt lat="38.0463" lon="12.8601767"><ele>86.0</ele><time>2026-05-05T15:33:38.564Z</time></trkpt><trkpt lat="38.0462383" lon="12.8601467"><ele>86.0</ele><time>2026-05-05T15:33:39.563Z</time></trkpt><trkpt lat="38.046125" lon="12.8601133"><ele>85.0</ele><time>2026-05-05T15:33:41.564Z</time></trkpt><trkpt lat="38.0460383" lon="12.8600583"><ele>84.0</ele><time>2026-05-05T15:33:43.565Z</time></trkpt><trkpt lat="38.04602" lon="12.8599533"><ele>83.0</ele><time>2026-05-05T15:33:45.564Z</time></trkpt><trkpt lat="38.046075" lon="12.8598217"><ele>82.0</ele><time>2026-05-05T15:33:47.563Z</time></trkpt><trkpt lat="38.0461017" lon="12.8597433"><ele>81.0</ele><time>2026-05-05T15:33:48.563Z</time></trkpt><trkpt lat="38.046125" lon="12.8596567"><ele>80.0</ele><time>2026-05-05T15:33:49.565Z</time></trkpt><trkpt lat="38.0461383" lon="12.8595683"><ele>80.0</ele><time>2026-05-05T15:33:50.565Z</time></trkpt><trkpt lat="38.0461517" lon="12.85948"><ele>80.0</ele><time>2026-05-05T15:33:51.564Z</time></trkpt><trkpt lat="38.04617" lon="12.8593933"><ele>80.0</ele><time>2026-05-05T15:33:52.565Z</time></trkpt><trkpt lat="38.046205" lon="12.8593133"><ele>80.0</ele><time>2026-05-05T15:33:53.565Z</time></trkpt><trkpt lat="38.046255" lon="12.859235"><ele>80.0</ele><time>2026-05-05T15:33:54.565Z</time></trkpt><trkpt lat="38.04631" lon="12.8591583"><ele>80.0</ele><time>2026-05-05T15:33:55.564Z</time></trkpt><trkpt lat="38.0463633" lon="12.85908"><ele>79.0</ele><time>2026-05-05T15:33:56.565Z</time></trkpt><trkpt lat="38.0464183" lon="12.859"><ele>78.0</ele><time>2026-05-05T15:33:57.563Z</time></trkpt><trkpt lat="38.04648" lon="12.858915"><ele>77.0</ele><time>2026-05-05T15:33:58.564Z</time></trkpt><trkpt lat="38.0465433" lon="12.85882"><ele>76.0</ele><time>2026-05-05T15:33:59.566Z</time></trkpt><trkpt lat="38.0466" lon="12.8587133"><ele>75.0</ele><time>2026-05-05T15:34:00.563Z</time></trkpt><trkpt lat="38.0466517" lon="12.8586017"><ele>73.0</ele><time>2026-05-05T15:34:01.564Z</time></trkpt><trkpt lat="38.0466983" lon="12.858495"><ele>71.0</ele><time>2026-05-05T15:34:02.565Z</time></trkpt><trkpt lat="38.04674" lon="12.8583933"><ele>69.0</ele><time>2026-05-05T15:34:03.565Z</time></trkpt><trkpt lat="38.0467817" lon="12.858295"><ele>67.0</ele><time>2026-05-05T15:34:04.565Z</time></trkpt><trkpt lat="38.0468333" lon="12.8582083"><ele>65.0</ele><time>2026-05-05T15:34:05.565Z</time></trkpt><trkpt lat="38.0468867" lon="12.8581317"><ele>63.0</ele><time>2026-05-05T15:34:06.564Z</time></trkpt><trkpt lat="38.0469367" lon="12.858055"><ele>63.0</ele><time>2026-05-05T15:34:07.565Z</time></trkpt><trkpt lat="38.0469717" lon="12.8579767"><ele>63.0</ele><time>2026-05-05T15:34:08.565Z</time></trkpt><trkpt lat="38.046995" lon="12.8578967"><ele>63.0</ele><time>2026-05-05T15:34:09.564Z</time></trkpt><trkpt lat="38.04702" lon="12.857815"><ele>63.0</ele><time>2026-05-05T15:34:10.564Z</time></trkpt><trkpt lat="38.04705" lon="12.85773"><ele>63.0</ele><time>2026-05-05T15:34:11.564Z</time></trkpt><trkpt lat="38.0470767" lon="12.85764"><ele>63.0</ele><time>2026-05-05T15:34:12.563Z</time></trkpt><trkpt lat="38.0471033" lon="12.857545"><ele>63.0</ele><time>2026-05-05T15:34:13.564Z</time></trkpt><trkpt lat="38.0471317" lon="12.857445"><ele>63.0</ele><time>2026-05-05T15:34:14.564Z</time></trkpt><trkpt lat="38.0471617" lon="12.8573417"><ele>63.0</ele><time>2026-05-05T15:34:15.565Z</time></trkpt><trkpt lat="38.0471917" lon="12.8572317"><ele>63.0</ele><time>2026-05-05T15:34:16.564Z</time></trkpt><trkpt lat="38.04722" lon="12.8571167"><ele>63.0</ele><time>2026-05-05T15:34:17.563Z</time></trkpt><trkpt lat="38.04725" lon="12.857"><ele>63.0</ele><time>2026-05-05T15:34:18.563Z</time></trkpt><trkpt lat="38.047275" lon="12.8568817"><ele>63.0</ele><time>2026-05-05T15:34:19.565Z</time></trkpt><trkpt lat="38.0472917" lon="12.85677"><ele>63.0</ele><time>2026-05-05T15:34:20.565Z</time></trkpt><trkpt lat="38.0472983" lon="12.856665"><ele>63.0</ele><time>2026-05-05T15:34:21.564Z</time></trkpt><trkpt lat="38.0472967" lon="12.8565667"><ele>63.0</ele><time>2026-05-05T15:34:22.564Z</time></trkpt><trkpt lat="38.047285" lon="12.85647"><ele>63.0</ele><time>2026-05-05T15:34:23.565Z</time></trkpt><trkpt lat="38.0472667" lon="12.85637"><ele>63.0</ele><time>2026-05-05T15:34:24.564Z</time></trkpt><trkpt lat="38.047245" lon="12.8562667"><ele>63.0</ele><time>2026-05-05T15:34:25.564Z</time></trkpt><trkpt lat="38.047225" lon="12.8561667"><ele>63.0</ele><time>2026-05-05T15:34:26.564Z</time></trkpt><trkpt lat="38.0472083" lon="12.8560583"><ele>63.0</ele><time>2026-05-05T15:34:27.564Z</time></trkpt><trkpt lat="38.0471867" lon="12.85595"><ele>63.0</ele><time>2026-05-05T15:34:28.564Z</time></trkpt><trkpt lat="38.0471717" lon="12.8558417"><ele>63.0</ele><time>2026-05-05T15:34:29.565Z</time></trkpt><trkpt lat="38.04717" lon="12.8557433"><ele>63.0</ele><time>2026-05-05T15:34:30.563Z</time></trkpt><trkpt lat="38.0471783" lon="12.8556433"><ele>63.0</ele><time>2026-05-05T15:34:31.563Z</time></trkpt><trkpt lat="38.0471917" lon="12.8555383"><ele>63.0</ele><time>2026-05-05T15:34:32.565Z</time></trkpt><trkpt lat="38.047215" lon="12.8554283"><ele>63.0</ele><time>2026-05-05T15:34:33.564Z</time></trkpt><trkpt lat="38.0472433" lon="12.855315"><ele>63.0</ele><time>2026-05-05T15:34:34.564Z</time></trkpt><trkpt lat="38.0472733" lon="12.8551983"><ele>63.0</ele><time>2026-05-05T15:34:35.565Z</time></trkpt><trkpt lat="38.04731" lon="12.8550833"><ele>63.599999999999994</ele><time>2026-05-05T15:34:36.563Z</time></trkpt><trkpt lat="38.047355" lon="12.8549783"><ele>64.19999999999999</ele><time>2026-05-05T15:34:37.565Z</time></trkpt><trkpt lat="38.0474117" lon="12.8548867"><ele>64.8</ele><time>2026-05-05T15:34:38.565Z</time></trkpt><trkpt lat="38.0474817" lon="12.8548033"><ele>65.39999999999999</ele><time>2026-05-05T15:34:39.564Z</time></trkpt><trkpt lat="38.0475567" lon="12.8547183"><ele>66.0</ele><time>2026-05-05T15:34:40.564Z</time></trkpt><trkpt lat="38.0476317" lon="12.85463"><ele>66.0</ele><time>2026-05-05T15:34:41.565Z</time></trkpt><trkpt lat="38.0477017" lon="12.8545333"><ele>66.0</ele><time>2026-05-05T15:34:42.565Z</time></trkpt><trkpt lat="38.0477683" lon="12.8544317"><ele>66.0</ele><time>2026-05-05T15:34:43.566Z</time></trkpt><trkpt lat="38.0478317" lon="12.854325"><ele>66.0</ele><time>2026-05-05T15:34:44.565Z</time></trkpt><trkpt lat="38.0478867" lon="12.8542367"><ele>66.0</ele><time>2026-05-05T15:34:45.565Z</time></trkpt><trkpt lat="38.047935" lon="12.8541733"><ele>66.0</ele><time>2026-05-05T15:34:46.565Z</time></trkpt><trkpt lat="38.04802" lon="12.854115"><ele>66.0</ele><time>2026-05-05T15:34:48.564Z</time></trkpt><trkpt lat="38.048105" lon="12.8541083"><ele>66.0</ele><time>2026-05-05T15:34:50.564Z</time></trkpt><trkpt lat="38.04821" lon="12.8541117"><ele>66.0</ele><time>2026-05-05T15:34:52.564Z</time></trkpt><trkpt lat="38.0483333" lon="12.8541167"><ele>66.0</ele><time>2026-05-05T15:34:54.564Z</time></trkpt><trkpt lat="38.0483967" lon="12.8541217"><ele>64.85714285714286</ele><time>2026-05-05T15:34:55.566Z</time></trkpt><trkpt lat="38.04846" lon="12.85412"><ele>63.71428571428572</ele><time>2026-05-05T15:34:56.565Z</time></trkpt><trkpt lat="38.0485233" lon="12.854115"><ele>62.57142857142858</ele><time>2026-05-05T15:34:57.565Z</time></trkpt><trkpt lat="38.0485933" lon="12.8541017"><ele>61.42857142857143</ele><time>2026-05-05T15:34:58.563Z</time></trkpt><trkpt lat="38.0486683" lon="12.8540783"><ele>60.28571428571429</ele><time>2026-05-05T15:34:59.565Z</time></trkpt><trkpt lat="38.048745" lon="12.85405"><ele>59.14285714285715</ele><time>2026-05-05T15:35:00.564Z</time></trkpt><trkpt lat="38.0488167" lon="12.8540133"><ele>58.00000000000001</ele><time>2026-05-05T15:35:01.566Z</time></trkpt><trkpt lat="38.0488883" lon="12.8539633"><ele>58.00000000000001</ele><time>2026-05-05T15:35:02.565Z</time></trkpt><trkpt lat="38.048955" lon="12.853905"><ele>58.0</ele><time>2026-05-05T15:35:03.564Z</time></trkpt><trkpt lat="38.0490183" lon="12.8538433"><ele>58.00000000000001</ele><time>2026-05-05T15:35:04.564Z</time></trkpt><trkpt lat="38.0490767" lon="12.8537833"><ele>58.00000000000001</ele><time>2026-05-05T15:35:05.564Z</time></trkpt><trkpt lat="38.0491333" lon="12.85373"><ele>58.0</ele><time>2026-05-05T15:35:06.564Z</time></trkpt><trkpt lat="38.0491883" lon="12.853675"><ele>58.00000000000001</ele><time>2026-05-05T15:35:07.565Z</time></trkpt><trkpt lat="38.04924" lon="12.8536233"><ele>58.00000000000001</ele><time>2026-05-05T15:35:08.564Z</time></trkpt><trkpt lat="38.049295" lon="12.8535733"><ele>58.00000000000001</ele><time>2026-05-05T15:35:09.564Z</time></trkpt><trkpt lat="38.0493517" lon="12.8535167"><ele>58.0</ele><time>2026-05-05T15:35:10.565Z</time></trkpt><trkpt lat="38.0494133" lon="12.8534583"><ele>58.00000000000001</ele><time>2026-05-05T15:35:11.565Z</time></trkpt><trkpt lat="38.0494717" lon="12.8534017"><ele>58.00000000000001</ele><time>2026-05-05T15:35:12.563Z</time></trkpt><trkpt lat="38.0495317" lon="12.853355"><ele>58.0</ele><time>2026-05-05T15:35:13.563Z</time></trkpt><trkpt lat="38.0495933" lon="12.8533217"><ele>58.00000000000001</ele><time>2026-05-05T15:35:14.565Z</time></trkpt><trkpt lat="38.0496617" lon="12.8533033"><ele>58.00000000000001</ele><time>2026-05-05T15:35:15.564Z</time></trkpt><trkpt lat="38.0497317" lon="12.8532883"><ele>58.00000000000001</ele><time>2026-05-05T15:35:16.565Z</time></trkpt><trkpt lat="38.0498033" lon="12.8532733"><ele>58.0</ele><time>2026-05-05T15:35:17.565Z</time></trkpt><trkpt lat="38.0498767" lon="12.8532583"><ele>58.00000000000001</ele><time>2026-05-05T15:35:18.565Z</time></trkpt><trkpt lat="38.0499517" lon="12.8532433"><ele>58.00000000000001</ele><time>2026-05-05T15:35:19.565Z</time></trkpt><trkpt lat="38.0500233" lon="12.8532233"><ele>58.0</ele><time>2026-05-05T15:35:20.565Z</time></trkpt><trkpt lat="38.0500867" lon="12.85319"><ele>58.00000000000001</ele><time>2026-05-05T15:35:21.565Z</time></trkpt><trkpt lat="38.0501433" lon="12.8531433"><ele>58.00000000000001</ele><time>2026-05-05T15:35:22.564Z</time></trkpt><trkpt lat="38.0501917" lon="12.8530867"><ele>55.666666666666664</ele><time>2026-05-05T15:35:23.566Z</time></trkpt><trkpt lat="38.05024" lon="12.8530183"><ele>53.33333333333333</ele><time>2026-05-05T15:35:24.563Z</time></trkpt><trkpt lat="38.0502867" lon="12.8529417"><ele>51.0</ele><time>2026-05-05T15:35:25.565Z</time></trkpt><trkpt lat="38.050335" lon="12.8528617"><ele>48.666666666666664</ele><time>2026-05-05T15:35:26.566Z</time></trkpt><trkpt lat="38.0503917" lon="12.852785"><ele>46.33333333333333</ele><time>2026-05-05T15:35:27.564Z</time></trkpt><trkpt lat="38.05045" lon="12.852715"><ele>44.0</ele><time>2026-05-05T15:35:28.564Z</time></trkpt><trkpt lat="38.0505083" lon="12.8526417"><ele>44.0</ele><time>2026-05-05T15:35:29.565Z</time></trkpt><trkpt lat="38.05057" lon="12.85257"><ele>44.0</ele><time>2026-05-05T15:35:30.564Z</time></trkpt><trkpt lat="38.0506333" lon="12.8525017"><ele>44.0</ele><time>2026-05-05T15:35:31.565Z</time></trkpt><trkpt lat="38.0507017" lon="12.85244"><ele>44.0</ele><time>2026-05-05T15:35:32.566Z</time></trkpt><trkpt lat="38.0507667" lon="12.8523767"><ele>44.0</ele><time>2026-05-05T15:35:33.564Z</time></trkpt><trkpt lat="38.050825" lon="12.8523033"><ele>44.0</ele><time>2026-05-05T15:35:34.564Z</time></trkpt><trkpt lat="38.05087" lon="12.8522167"><ele>44.0</ele><time>2026-05-05T15:35:35.564Z</time></trkpt><trkpt lat="38.0509033" lon="12.8521167"><ele>44.0</ele><time>2026-05-05T15:35:36.564Z</time></trkpt><trkpt lat="38.0509283" lon="12.8520083"><ele>44.0</ele><time>2026-05-05T15:35:37.565Z</time></trkpt><trkpt lat="38.0509483" lon="12.8518983"><ele>44.0</ele><time>2026-05-05T15:35:38.564Z</time></trkpt><trkpt lat="38.05097" lon="12.8517883"><ele>44.0</ele><time>2026-05-05T15:35:39.564Z</time></trkpt><trkpt lat="38.0509883" lon="12.8516767"><ele>44.0</ele><time>2026-05-05T15:35:40.565Z</time></trkpt><trkpt lat="38.0510017" lon="12.8515717"><ele>45.5</ele><time>2026-05-05T15:35:41.565Z</time></trkpt><trkpt lat="38.0510183" lon="12.8514767"><ele>47.0</ele><time>2026-05-05T15:35:42.563Z</time></trkpt><trkpt lat="38.051045" lon="12.8513967"><ele>48.5</ele><time>2026-05-05T15:35:43.564Z</time></trkpt><trkpt lat="38.0510833" lon="12.8513217"><ele>50.0</ele><time>2026-05-05T15:35:44.564Z</time></trkpt><trkpt lat="38.0511267" lon="12.8512433"><ele>51.50000000000001</ele><time>2026-05-05T15:35:45.564Z</time></trkpt><trkpt lat="38.0511733" lon="12.85116"><ele>53.0</ele><time>2026-05-05T15:35:46.564Z</time></trkpt><trkpt lat="38.0512233" lon="12.8510783"><ele>53.0</ele><time>2026-05-05T15:35:47.566Z</time></trkpt><trkpt lat="38.0512633" lon="12.8510033"><ele>53.0</ele><time>2026-05-05T15:35:48.565Z</time></trkpt><trkpt lat="38.051295" lon="12.8508767"><ele>53.0</ele><time>2026-05-05T15:35:50.566Z</time></trkpt><trkpt lat="38.051265" lon="12.8507367"><ele>53.0</ele><time>2026-05-05T15:35:52.566Z</time></trkpt><trkpt lat="38.051245" lon="12.85066"><ele>53.0</ele><time>2026-05-05T15:35:53.566Z</time></trkpt><trkpt lat="38.0512283" lon="12.850515"><ele>53.833333333333336</ele><time>2026-05-05T15:35:55.565Z</time></trkpt><trkpt lat="38.051255" lon="12.850435"><ele>54.66666666666667</ele><time>2026-05-05T15:35:57.564Z</time></trkpt><trkpt lat="38.0513667" lon="12.8504417"><ele>55.5</ele><time>2026-05-05T15:35:59.564Z</time></trkpt><trkpt lat="38.05144" lon="12.8504333"><ele>56.33333333333333</ele><time>2026-05-05T15:36:00.564Z</time></trkpt><trkpt lat="38.05151" lon="12.8504117"><ele>57.166666666666664</ele><time>2026-05-05T15:36:01.566Z</time></trkpt><trkpt lat="38.051575" lon="12.850385"><ele>58.0</ele><time>2026-05-05T15:36:02.565Z</time></trkpt><trkpt lat="38.051635" lon="12.8503583"><ele>58.0</ele><time>2026-05-05T15:36:03.564Z</time></trkpt><trkpt lat="38.0517067" lon="12.8502633"><ele>58.0</ele><time>2026-05-05T15:36:05.565Z</time></trkpt><trkpt lat="38.0516883" lon="12.8501483"><ele>58.0</ele><time>2026-05-05T15:36:07.566Z</time></trkpt><trkpt lat="38.0516206" lon="12.8500388"><ele>58.0</ele><time>2026-05-05T15:36:09.564Z</time></trkpt><trkpt lat="38.0515594" lon="12.8499142"><ele>58.0</ele><time>2026-05-05T15:36:11.565Z</time></trkpt><trkpt lat="38.0515333" lon="12.8498395"><ele>59.666666666666664</ele><time>2026-05-05T15:36:12.563Z</time></trkpt><trkpt lat="38.0515045" lon="12.8497533"><ele>61.33333333333333</ele><time>2026-05-05T15:36:13.563Z</time></trkpt><trkpt lat="38.0514803" lon="12.8496594"><ele>63.0</ele><time>2026-05-05T15:36:14.565Z</time></trkpt><trkpt lat="38.0514625" lon="12.849557"><ele>64.66666666666667</ele><time>2026-05-05T15:36:15.565Z</time></trkpt><trkpt lat="38.0514453" lon="12.8494534"><ele>66.33333333333334</ele><time>2026-05-05T15:36:16.562Z</time></trkpt><trkpt lat="38.051414" lon="12.8493551"><ele>68.0</ele><time>2026-05-05T15:36:17.566Z</time></trkpt><trkpt lat="38.051364" lon="12.8492603"><ele>70.0</ele><time>2026-05-05T15:36:18.563Z</time></trkpt><trkpt lat="38.0512955" lon="12.8491883"><ele>72.0</ele><time>2026-05-05T15:36:19.564Z</time></trkpt><trkpt lat="38.0512105" lon="12.8491393"><ele>74.0</ele><time>2026-05-05T15:36:20.566Z</time></trkpt><trkpt lat="38.0511149" lon="12.8490924"><ele>76.0</ele><time>2026-05-05T15:36:21.564Z</time></trkpt><trkpt lat="38.0510229" lon="12.8490364"><ele>78.0</ele><time>2026-05-05T15:36:22.565Z</time></trkpt><trkpt lat="38.0509351" lon="12.8489789"><ele>78.0</ele><time>2026-05-05T15:36:23.565Z</time></trkpt><trkpt lat="38.0508507" lon="12.8489321"><ele>78.0</ele><time>2026-05-05T15:36:24.564Z</time></trkpt><trkpt lat="38.0507705" lon="12.8488958"><ele>78.0</ele><time>2026-05-05T15:36:25.565Z</time></trkpt><trkpt lat="38.0506885" lon="12.8488716"><ele>78.0</ele><time>2026-05-05T15:36:26.563Z</time></trkpt><trkpt lat="38.0506015" lon="12.8488531"><ele>78.0</ele><time>2026-05-05T15:36:27.565Z</time></trkpt><trkpt lat="38.0505043" lon="12.8488296"><ele>78.0</ele><time>2026-05-05T15:36:28.564Z</time></trkpt><trkpt lat="38.050403" lon="12.8487998"><ele>78.6</ele><time>2026-05-05T15:36:29.565Z</time></trkpt><trkpt lat="38.0502992" lon="12.8487675"><ele>79.19999999999999</ele><time>2026-05-05T15:36:30.563Z</time></trkpt><trkpt lat="38.0502036" lon="12.8487298"><ele>79.8</ele><time>2026-05-05T15:36:31.564Z</time></trkpt><trkpt lat="38.0501146" lon="12.8486911"><ele>80.39999999999999</ele><time>2026-05-05T15:36:32.566Z</time></trkpt><trkpt lat="38.050027" lon="12.8486621"><ele>81.0</ele><time>2026-05-05T15:36:33.564Z</time></trkpt><trkpt lat="38.0499413" lon="12.8486347"><ele>82.83333333333333</ele><time>2026-05-05T15:36:34.564Z</time></trkpt><trkpt lat="38.0498566" lon="12.8486048"><ele>84.66666666666667</ele><time>2026-05-05T15:36:35.564Z</time></trkpt><trkpt lat="38.049771" lon="12.8485774"><ele>86.5</ele><time>2026-05-05T15:36:36.565Z</time></trkpt><trkpt lat="38.0496837" lon="12.8485565"><ele>88.33333333333334</ele><time>2026-05-05T15:36:37.564Z</time></trkpt><trkpt lat="38.0495968" lon="12.8485402"><ele>90.16666666666667</ele><time>2026-05-05T15:36:38.565Z</time></trkpt><trkpt lat="38.0495125" lon="12.8485261"><ele>92.0</ele><time>2026-05-05T15:36:39.563Z</time></trkpt><trkpt lat="38.0494281" lon="12.8485132"><ele>92.0</ele><time>2026-05-05T15:36:40.564Z</time></trkpt><trkpt lat="38.0493462" lon="12.8484982"><ele>92.0</ele><time>2026-05-05T15:36:41.564Z</time></trkpt><trkpt lat="38.0492668" lon="12.8484694"><ele>92.0</ele><time>2026-05-05T15:36:42.565Z</time></trkpt><trkpt lat="38.0491921" lon="12.8484249"><ele>92.0</ele><time>2026-05-05T15:36:43.569Z</time></trkpt><trkpt lat="38.0491181" lon="12.8483634"><ele>92.0</ele><time>2026-05-05T15:36:44.565Z</time></trkpt><trkpt lat="38.0490482" lon="12.8482889"><ele>92.0</ele><time>2026-05-05T15:36:45.564Z</time></trkpt><trkpt lat="38.0489822" lon="12.8482056"><ele>93.5</ele><time>2026-05-05T15:36:46.564Z</time></trkpt><trkpt lat="38.0489166" lon="12.8481296"><ele>95.0</ele><time>2026-05-05T15:36:47.564Z</time></trkpt><trkpt lat="38.0488489" lon="12.8480706"><ele>96.5</ele><time>2026-05-05T15:36:48.564Z</time></trkpt><trkpt lat="38.048772" lon="12.848031"><ele>98.0</ele><time>2026-05-05T15:36:49.566Z</time></trkpt><trkpt lat="38.0486883" lon="12.8479993"><ele>99.49999999999999</ele><time>2026-05-05T15:36:50.565Z</time></trkpt><trkpt lat="38.0486055" lon="12.8479563"><ele>101.0</ele><time>2026-05-05T15:36:51.564Z</time></trkpt><trkpt lat="38.0485275" lon="12.8478914"><ele>100.99999999999999</ele><time>2026-05-05T15:36:52.564Z</time></trkpt><trkpt lat="38.0484522" lon="12.847819"><ele>101.0</ele><time>2026-05-05T15:36:53.565Z</time></trkpt><trkpt lat="38.0483717" lon="12.847754"><ele>101.0</ele><time>2026-05-05T15:36:54.564Z</time></trkpt><trkpt lat="38.0482925" lon="12.8477127"><ele>101.0</ele><time>2026-05-05T15:36:55.565Z</time></trkpt><trkpt lat="38.048215" lon="12.8476967"><ele>100.99999999999999</ele><time>2026-05-05T15:36:56.565Z</time></trkpt><trkpt lat="38.0481267" lon="12.84769"><ele>101.0</ele><time>2026-05-05T15:36:57.563Z</time></trkpt><trkpt lat="38.04803" lon="12.847695"><ele>101.8</ele><time>2026-05-05T15:36:58.564Z</time></trkpt><trkpt lat="38.0479283" lon="12.8477083"><ele>102.6</ele><time>2026-05-05T15:36:59.565Z</time></trkpt><trkpt lat="38.0478233" lon="12.8477317"><ele>103.4</ele><time>2026-05-05T15:37:00.564Z</time></trkpt><trkpt lat="38.04772" lon="12.8477667"><ele>104.2</ele><time>2026-05-05T15:37:01.565Z</time></trkpt><trkpt lat="38.04762" lon="12.847805"><ele>105.0</ele><time>2026-05-05T15:37:02.565Z</time></trkpt><trkpt lat="38.0475233" lon="12.8478433"><ele>105.8</ele><time>2026-05-05T15:37:03.564Z</time></trkpt><trkpt lat="38.0474267" lon="12.8478767"><ele>106.6</ele><time>2026-05-05T15:37:04.567Z</time></trkpt><trkpt lat="38.047325" lon="12.8479033"><ele>107.4</ele><time>2026-05-05T15:37:05.563Z</time></trkpt><trkpt lat="38.0472217" lon="12.8479317"><ele>108.2</ele><time>2026-05-05T15:37:06.563Z</time></trkpt><trkpt lat="38.0471133" lon="12.8479717"><ele>109.0</ele><time>2026-05-05T15:37:07.565Z</time></trkpt><trkpt lat="38.0470083" lon="12.8480233"><ele>109.0</ele><time>2026-05-05T15:37:08.565Z</time></trkpt><trkpt lat="38.0469017" lon="12.8480767"><ele>109.0</ele><time>2026-05-05T15:37:09.564Z</time></trkpt><trkpt lat="38.04679" lon="12.848135"><ele>109.0</ele><time>2026-05-05T15:37:10.565Z</time></trkpt><trkpt lat="38.046675" lon="12.8481967"><ele>109.0</ele><time>2026-05-05T15:37:11.565Z</time></trkpt><trkpt lat="38.046555" lon="12.8482517"><ele>109.0</ele><time>2026-05-05T15:37:12.564Z</time></trkpt><trkpt lat="38.0464333" lon="12.8483"><ele>109.0</ele><time>2026-05-05T15:37:13.564Z</time></trkpt><trkpt lat="38.04631" lon="12.8483483"><ele>109.0</ele><time>2026-05-05T15:37:14.565Z</time></trkpt><trkpt lat="38.0461883" lon="12.84841"><ele>109.0</ele><time>2026-05-05T15:37:15.565Z</time></trkpt><trkpt lat="38.0460667" lon="12.8484767"><ele>109.0</ele><time>2026-05-05T15:37:16.564Z</time></trkpt><trkpt lat="38.0459467" lon="12.8485467"><ele>109.0</ele><time>2026-05-05T15:37:17.563Z</time></trkpt><trkpt lat="38.0458283" lon="12.848615"><ele>109.0</ele><time>2026-05-05T15:37:18.565Z</time></trkpt><trkpt lat="38.0457167" lon="12.848675"><ele>109.0</ele><time>2026-05-05T15:37:19.565Z</time></trkpt><trkpt lat="38.0456117" lon="12.8487367"><ele>109.0</ele><time>2026-05-05T15:37:20.563Z</time></trkpt><trkpt lat="38.04551" lon="12.8488"><ele>109.0</ele><time>2026-05-05T15:37:21.564Z</time></trkpt><trkpt lat="38.04541" lon="12.8488683"><ele>109.0</ele><time>2026-05-05T15:37:22.565Z</time></trkpt><trkpt lat="38.04531" lon="12.8489367"><ele>109.0</ele><time>2026-05-05T15:37:23.564Z</time></trkpt><trkpt lat="38.04521" lon="12.84901"><ele>109.0</ele><time>2026-05-05T15:37:24.564Z</time></trkpt><trkpt lat="38.0451083" lon="12.8490833"><ele>109.0</ele><time>2026-05-05T15:37:25.564Z</time></trkpt><trkpt lat="38.04501" lon="12.8491517"><ele>109.0</ele><time>2026-05-05T15:37:26.565Z</time></trkpt><trkpt lat="38.0449167" lon="12.8492183"><ele>109.0</ele><time>2026-05-05T15:37:27.564Z</time></trkpt><trkpt lat="38.04483" lon="12.84928"><ele>109.0</ele><time>2026-05-05T15:37:28.563Z</time></trkpt><trkpt lat="38.0447517" lon="12.8493317"><ele>109.4</ele><time>2026-05-05T15:37:29.565Z</time></trkpt><trkpt lat="38.044675" lon="12.84937"><ele>109.80000000000001</ele><time>2026-05-05T15:37:30.563Z</time></trkpt><trkpt lat="38.0446067" lon="12.849395"><ele>110.19999999999999</ele><time>2026-05-05T15:37:31.565Z</time></trkpt><trkpt lat="38.04452" lon="12.84941"><ele>110.6</ele><time>2026-05-05T15:37:33.564Z</time></trkpt><trkpt lat="38.0445033" lon="12.8493117"><ele>111.0</ele><time>2026-05-05T15:37:36.564Z</time></trkpt><trkpt lat="38.0445383" lon="12.8491317"><ele>111.0</ele><time>2026-05-05T15:37:38.565Z</time></trkpt><trkpt lat="38.04457" lon="12.84899"><ele>111.0</ele><time>2026-05-05T15:37:39.565Z</time></trkpt><trkpt lat="38.0446017" lon="12.8488417"><ele>111.0</ele><time>2026-05-05T15:37:40.564Z</time></trkpt><trkpt lat="38.04464" lon="12.8486833"><ele>111.0</ele><time>2026-05-05T15:37:41.564Z</time></trkpt><trkpt lat="38.04468" lon="12.84852"><ele>110.75</ele><time>2026-05-05T15:37:42.564Z</time></trkpt><trkpt lat="38.0447183" lon="12.84835"><ele>110.5</ele><time>2026-05-05T15:37:43.565Z</time></trkpt><trkpt lat="38.0447567" lon="12.8481767"><ele>110.25</ele><time>2026-05-05T15:37:44.563Z</time></trkpt><trkpt lat="38.0447983" lon="12.8479967"><ele>110.0</ele><time>2026-05-05T15:37:45.563Z</time></trkpt><trkpt lat="38.04484" lon="12.8478117"><ele>109.5</ele><time>2026-05-05T15:37:46.563Z</time></trkpt><trkpt lat="38.0448833" lon="12.8476267"><ele>109.0</ele><time>2026-05-05T15:37:47.564Z</time></trkpt><trkpt lat="38.0449233" lon="12.8474467"><ele>108.5</ele><time>2026-05-05T15:37:48.564Z</time></trkpt><trkpt lat="38.044955" lon="12.8472733"><ele>108.0</ele><time>2026-05-05T15:37:49.564Z</time></trkpt><trkpt lat="38.044975" lon="12.8471067"><ele>107.5</ele><time>2026-05-05T15:37:50.565Z</time></trkpt><trkpt lat="38.0449783" lon="12.846945"><ele>107.0</ele><time>2026-05-05T15:37:51.564Z</time></trkpt><trkpt lat="38.0449617" lon="12.846775"><ele>106.5</ele><time>2026-05-05T15:37:52.563Z</time></trkpt><trkpt lat="38.0449283" lon="12.8466083"><ele>106.0</ele><time>2026-05-05T15:37:53.564Z</time></trkpt><trkpt lat="38.0448967" lon="12.8464383"><ele>105.75</ele><time>2026-05-05T15:37:54.565Z</time></trkpt><trkpt lat="38.04488" lon="12.8462683"><ele>105.5</ele><time>2026-05-05T15:37:55.564Z</time></trkpt><trkpt lat="38.0448883" lon="12.846105"><ele>105.25</ele><time>2026-05-05T15:37:56.565Z</time></trkpt><trkpt lat="38.04492" lon="12.84595"><ele>105.0</ele><time>2026-05-05T15:37:57.563Z</time></trkpt><trkpt lat="38.0449717" lon="12.8458033"><ele>102.5</ele><time>2026-05-05T15:37:58.564Z</time></trkpt><trkpt lat="38.04504" lon="12.845665"><ele>100.0</ele><time>2026-05-05T15:37:59.569Z</time></trkpt><trkpt lat="38.04512" lon="12.8455217"><ele>97.5</ele><time>2026-05-05T15:38:00.564Z</time></trkpt><trkpt lat="38.0452067" lon="12.84537"><ele>95.0</ele><time>2026-05-05T15:38:01.564Z</time></trkpt><trkpt lat="38.0452933" lon="12.8452117"><ele>91.66666666666667</ele><time>2026-05-05T15:38:02.565Z</time></trkpt><trkpt lat="38.0453783" lon="12.8450483"><ele>88.33333333333333</ele><time>2026-05-05T15:38:03.563Z</time></trkpt><trkpt lat="38.0454567" lon="12.8448817"><ele>85.0</ele><time>2026-05-05T15:38:04.564Z</time></trkpt><trkpt lat="38.0455317" lon="12.8447083"><ele>85.0</ele><time>2026-05-05T15:38:05.566Z</time></trkpt><trkpt lat="38.0456017" lon="12.8445333"><ele>85.0</ele><time>2026-05-05T15:38:06.564Z</time></trkpt><trkpt lat="38.0456667" lon="12.8443533"><ele>85.0</ele><time>2026-05-05T15:38:07.563Z</time></trkpt><trkpt lat="38.0457317" lon="12.8441717"><ele>82.33333333333333</ele><time>2026-05-05T15:38:08.565Z</time></trkpt><trkpt lat="38.045795" lon="12.8439867"><ele>79.66666666666667</ele><time>2026-05-05T15:38:09.566Z</time></trkpt><trkpt lat="38.045855" lon="12.8438017"><ele>77.0</ele><time>2026-05-05T15:38:10.566Z</time></trkpt><trkpt lat="38.0459117" lon="12.8436267"><ele>77.0</ele><time>2026-05-05T15:38:11.565Z</time></trkpt><trkpt lat="38.0459667" lon="12.84347"><ele>77.0</ele><time>2026-05-05T15:38:12.565Z</time></trkpt><trkpt lat="38.04602" lon="12.8433317"><ele>77.0</ele><time>2026-05-05T15:38:13.566Z</time></trkpt><trkpt lat="38.0460817" lon="12.8432117"><ele>77.0</ele><time>2026-05-05T15:38:14.565Z</time></trkpt><trkpt lat="38.0461533" lon="12.8431083"><ele>74.25</ele><time>2026-05-05T15:38:15.564Z</time></trkpt><trkpt lat="38.0462367" lon="12.843025"><ele>71.5</ele><time>2026-05-05T15:38:16.565Z</time></trkpt><trkpt lat="38.046335" lon="12.8429717"><ele>68.75</ele><time>2026-05-05T15:38:17.563Z</time></trkpt><trkpt lat="38.0464517" lon="12.8429483"><ele>66.0</ele><time>2026-05-05T15:38:18.564Z</time></trkpt><trkpt lat="38.046585" lon="12.84293"><ele>68.0</ele><time>2026-05-05T15:38:19.563Z</time></trkpt><trkpt lat="38.046735" lon="12.8429167"><ele>70.0</ele><time>2026-05-05T15:38:20.564Z</time></trkpt><trkpt lat="38.046885" lon="12.8428967"><ele>72.0</ele><time>2026-05-05T15:38:21.565Z</time></trkpt><trkpt lat="38.04704" lon="12.842885"><ele>72.0</ele><time>2026-05-05T15:38:22.564Z</time></trkpt><trkpt lat="38.0471967" lon="12.84288"><ele>72.0</ele><time>2026-05-05T15:38:23.565Z</time></trkpt><trkpt lat="38.0473517" lon="12.8428783"><ele>72.0</ele><time>2026-05-05T15:38:24.565Z</time></trkpt><trkpt lat="38.0475033" lon="12.8428617"><ele>71.5</ele><time>2026-05-05T15:38:25.565Z</time></trkpt><trkpt lat="38.04765" lon="12.8428317"><ele>71.0</ele><time>2026-05-05T15:38:26.566Z</time></trkpt><trkpt lat="38.0477867" lon="12.8427783"><ele>70.5</ele><time>2026-05-05T15:38:27.566Z</time></trkpt><trkpt lat="38.0479117" lon="12.8427033"><ele>70.0</ele><time>2026-05-05T15:38:28.565Z</time></trkpt><trkpt lat="38.0480283" lon="12.8426"><ele>66.0</ele><time>2026-05-05T15:38:29.565Z</time></trkpt><trkpt lat="38.0481417" lon="12.84248"><ele>62.0</ele><time>2026-05-05T15:38:30.566Z</time></trkpt><trkpt lat="38.048255" lon="12.842345"><ele>58.0</ele><time>2026-05-05T15:38:31.566Z</time></trkpt><trkpt lat="38.0483717" lon="12.842205"><ele>58.0</ele><time>2026-05-05T15:38:32.566Z</time></trkpt><trkpt lat="38.048485" lon="12.8420617"><ele>58.0</ele><time>2026-05-05T15:38:33.565Z</time></trkpt><trkpt lat="38.0485917" lon="12.8419217"><ele>58.0</ele><time>2026-05-05T15:38:34.565Z</time></trkpt><trkpt lat="38.04869" lon="12.84179"><ele>54.5</ele><time>2026-05-05T15:38:35.566Z</time></trkpt><trkpt lat="38.048785" lon="12.8416683"><ele>51.0</ele><time>2026-05-05T15:38:36.565Z</time></trkpt><trkpt lat="38.048875" lon="12.8415567"><ele>47.5</ele><time>2026-05-05T15:38:37.565Z</time></trkpt><trkpt lat="38.048965" lon="12.84146"><ele>44.0</ele><time>2026-05-05T15:38:38.565Z</time></trkpt><trkpt lat="38.049065" lon="12.8413883"><ele>46.0</ele><time>2026-05-05T15:38:39.563Z</time></trkpt><trkpt lat="38.0491733" lon="12.841335"><ele>48.0</ele><time>2026-05-05T15:38:40.565Z</time></trkpt><trkpt lat="38.04929" lon="12.8412833"><ele>50.0</ele><time>2026-05-05T15:38:41.566Z</time></trkpt><trkpt lat="38.049415" lon="12.8412283"><ele>52.0</ele><time>2026-05-05T15:38:42.566Z</time></trkpt><trkpt lat="38.049545" lon="12.8411617"><ele>52.0</ele><time>2026-05-05T15:38:43.566Z</time></trkpt><trkpt lat="38.0496733" lon="12.8410867"><ele>52.0</ele><time>2026-05-05T15:38:44.566Z</time></trkpt><trkpt lat="38.0497983" lon="12.841005"><ele>52.0</ele><time>2026-05-05T15:38:45.565Z</time></trkpt><trkpt lat="38.0499183" lon="12.8409283"><ele>52.0</ele><time>2026-05-05T15:38:46.563Z</time></trkpt><trkpt lat="38.0500383" lon="12.8408717"><ele>50.5</ele><time>2026-05-05T15:38:47.564Z</time></trkpt><trkpt lat="38.0501617" lon="12.8408383"><ele>49.0</ele><time>2026-05-05T15:38:48.564Z</time></trkpt><trkpt lat="38.0502917" lon="12.8408217"><ele>47.5</ele><time>2026-05-05T15:38:49.564Z</time></trkpt><trkpt lat="38.0504267" lon="12.8408133"><ele>46.0</ele><time>2026-05-05T15:38:50.565Z</time></trkpt><trkpt lat="38.05057" lon="12.8408067"><ele>46.0</ele><time>2026-05-05T15:38:51.563Z</time></trkpt><trkpt lat="38.0507167" lon="12.8408017"><ele>46.0</ele><time>2026-05-05T15:38:52.563Z</time></trkpt><trkpt lat="38.050865" lon="12.8407933"><ele>46.0</ele><time>2026-05-05T15:38:53.563Z</time></trkpt><trkpt lat="38.0510183" lon="12.8407833"><ele>46.0</ele><time>2026-05-05T15:38:54.563Z</time></trkpt><trkpt lat="38.051175" lon="12.84077"><ele>46.66666666666667</ele><time>2026-05-05T15:38:55.563Z</time></trkpt><trkpt lat="38.051335" lon="12.84075"><ele>47.333333333333336</ele><time>2026-05-05T15:38:56.564Z</time></trkpt><trkpt lat="38.0514933" lon="12.8407267"><ele>48.0</ele><time>2026-05-05T15:38:57.565Z</time></trkpt><trkpt lat="38.0516483" lon="12.8407017"><ele>47.0</ele><time>2026-05-05T15:38:58.563Z</time></trkpt><trkpt lat="38.0518033" lon="12.84069"><ele>46.0</ele><time>2026-05-05T15:38:59.563Z</time></trkpt><trkpt lat="38.0519517" lon="12.84069"><ele>45.0</ele><time>2026-05-05T15:39:00.564Z</time></trkpt><trkpt lat="38.052095" lon="12.8406983"><ele>44.0</ele><time>2026-05-05T15:39:01.564Z</time></trkpt><trkpt lat="38.052235" lon="12.8407067"><ele>44.0</ele><time>2026-05-05T15:39:02.564Z</time></trkpt><trkpt lat="38.0523733" lon="12.8407167"><ele>44.0</ele><time>2026-05-05T15:39:03.564Z</time></trkpt><trkpt lat="38.0525117" lon="12.8407283"><ele>44.0</ele><time>2026-05-05T15:39:04.564Z</time></trkpt><trkpt lat="38.052655" lon="12.8407383"><ele>44.0</ele><time>2026-05-05T15:39:05.565Z</time></trkpt><trkpt lat="38.0527983" lon="12.84075"><ele>42.75</ele><time>2026-05-05T15:39:06.564Z</time></trkpt><trkpt lat="38.0529383" lon="12.8407617"><ele>41.5</ele><time>2026-05-05T15:39:07.565Z</time></trkpt><trkpt lat="38.0530717" lon="12.840785"><ele>40.25</ele><time>2026-05-05T15:39:08.563Z</time></trkpt><trkpt lat="38.0531983" lon="12.84083"><ele>39.0</ele><time>2026-05-05T15:39:09.566Z</time></trkpt><trkpt lat="38.0533167" lon="12.8408867"><ele>37.75</ele><time>2026-05-05T15:39:10.564Z</time></trkpt><trkpt lat="38.053435" lon="12.8409483"><ele>36.5</ele><time>2026-05-05T15:39:11.565Z</time></trkpt><trkpt lat="38.0535567" lon="12.84101"><ele>35.25</ele><time>2026-05-05T15:39:12.564Z</time></trkpt><trkpt lat="38.0536833" lon="12.8410767"><ele>34.0</ele><time>2026-05-05T15:39:13.564Z</time></trkpt><trkpt lat="38.0538183" lon="12.8411433"><ele>34.0</ele><time>2026-05-05T15:39:14.565Z</time></trkpt><trkpt lat="38.053955" lon="12.8412133"><ele>34.0</ele><time>2026-05-05T15:39:15.565Z</time></trkpt><trkpt lat="38.0540883" lon="12.84128"><ele>34.0</ele><time>2026-05-05T15:39:16.564Z</time></trkpt><trkpt lat="38.05422" lon="12.8413433"><ele>34.0</ele><time>2026-05-05T15:39:17.566Z</time></trkpt><trkpt lat="38.05435" lon="12.8414083"><ele>33.0</ele><time>2026-05-05T15:39:18.565Z</time></trkpt><trkpt lat="38.0544783" lon="12.8414733"><ele>32.0</ele><time>2026-05-05T15:39:19.565Z</time></trkpt><trkpt lat="38.0546033" lon="12.841535"><ele>31.0</ele><time>2026-05-05T15:39:20.566Z</time></trkpt><trkpt lat="38.0547283" lon="12.8415967"><ele>30.0</ele><time>2026-05-05T15:39:21.564Z</time></trkpt><trkpt lat="38.05485" lon="12.8416617"><ele>28.5</ele><time>2026-05-05T15:39:22.566Z</time></trkpt><trkpt lat="38.05497" lon="12.8417217"><ele>27.0</ele><time>2026-05-05T15:39:23.566Z</time></trkpt><trkpt lat="38.05509" lon="12.8417617"><ele>25.5</ele><time>2026-05-05T15:39:24.565Z</time></trkpt><trkpt lat="38.0552017" lon="12.841775"><ele>24.0</ele><time>2026-05-05T15:39:25.567Z</time></trkpt><trkpt lat="38.0553017" lon="12.8417483"><ele>24.0</ele><time>2026-05-05T15:39:26.566Z</time></trkpt><trkpt lat="38.0553967" lon="12.8416933"><ele>24.0</ele><time>2026-05-05T15:39:27.564Z</time></trkpt><trkpt lat="38.0554867" lon="12.8416233"><ele>24.0</ele><time>2026-05-05T15:39:28.563Z</time></trkpt><trkpt lat="38.05557" lon="12.841545"><ele>24.0</ele><time>2026-05-05T15:39:29.567Z</time></trkpt><trkpt lat="38.0556533" lon="12.8414617"><ele>24.0</ele><time>2026-05-05T15:39:30.565Z</time></trkpt><trkpt lat="38.0557317" lon="12.8413717"><ele>21.666666666666668</ele><time>2026-05-05T15:39:31.567Z</time></trkpt><trkpt lat="38.0558" lon="12.8412783"><ele>19.333333333333332</ele><time>2026-05-05T15:39:32.566Z</time></trkpt><trkpt lat="38.0558583" lon="12.841185"><ele>17.0</ele><time>2026-05-05T15:39:33.565Z</time></trkpt><trkpt lat="38.0559083" lon="12.841095"><ele>14.666666666666668</ele><time>2026-05-05T15:39:34.565Z</time></trkpt><trkpt lat="38.0559467" lon="12.8409983"><ele>12.333333333333334</ele><time>2026-05-05T15:39:35.564Z</time></trkpt><trkpt lat="38.0559683" lon="12.8408967"><ele>10.0</ele><time>2026-05-05T15:39:36.565Z</time></trkpt><trkpt lat="38.0559733" lon="12.8407867"><ele>10.0</ele><time>2026-05-05T15:39:37.565Z</time></trkpt><trkpt lat="38.05597" lon="12.8406733"><ele>10.0</ele><time>2026-05-05T15:39:38.565Z</time></trkpt><trkpt lat="38.0559633" lon="12.8405567"><ele>10.0</ele><time>2026-05-05T15:39:39.565Z</time></trkpt><trkpt lat="38.0559567" lon="12.840435"><ele>10.0</ele><time>2026-05-05T15:39:40.566Z</time></trkpt><trkpt lat="38.0559467" lon="12.84031"><ele>10.0</ele><time>2026-05-05T15:39:41.566Z</time></trkpt><trkpt lat="38.0559367" lon="12.8401933"><ele>9.571428571428571</ele><time>2026-05-05T15:39:42.565Z</time></trkpt><trkpt lat="38.0559267" lon="12.8400833"><ele>9.142857142857142</ele><time>2026-05-05T15:39:43.564Z</time></trkpt><trkpt lat="38.05592" lon="12.8399833"><ele>8.714285714285715</ele><time>2026-05-05T15:39:44.566Z</time></trkpt><trkpt lat="38.0559217" lon="12.839895"><ele>8.285714285714285</ele><time>2026-05-05T15:39:45.565Z</time></trkpt><trkpt lat="38.0559417" lon="12.839815"><ele>7.857142857142858</ele><time>2026-05-05T15:39:46.564Z</time></trkpt><trkpt lat="38.0559867" lon="12.8397517"><ele>7.428571428571429</ele><time>2026-05-05T15:39:47.565Z</time></trkpt><trkpt lat="38.0560483" lon="12.8397033"><ele>7.0</ele><time>2026-05-05T15:39:48.563Z</time></trkpt><trkpt lat="38.0561117" lon="12.8396483"><ele>7.000000000000001</ele><time>2026-05-05T15:39:49.563Z</time></trkpt><trkpt lat="38.056165" lon="12.8395683"><ele>7.0</ele><time>2026-05-05T15:39:50.565Z</time></trkpt><trkpt lat="38.0562083" lon="12.83947"><ele>7.0</ele><time>2026-05-05T15:39:51.564Z</time></trkpt><trkpt lat="38.0562433" lon="12.8393617"><ele>7.0</ele><time>2026-05-05T15:39:52.565Z</time></trkpt><trkpt lat="38.0562767" lon="12.8392483"><ele>7.000000000000001</ele><time>2026-05-05T15:39:53.565Z</time></trkpt><trkpt lat="38.05631" lon="12.8391433"><ele>7.0</ele><time>2026-05-05T15:39:54.565Z</time></trkpt><trkpt lat="38.0563533" lon="12.839055"><ele>7.166666666666667</ele><time>2026-05-05T15:39:55.564Z</time></trkpt><trkpt lat="38.0564117" lon="12.8389983"><ele>7.333333333333334</ele><time>2026-05-05T15:39:56.563Z</time></trkpt><trkpt lat="38.0564883" lon="12.83897"><ele>7.5</ele><time>2026-05-05T15:39:57.564Z</time></trkpt><trkpt lat="38.0565717" lon="12.8389633"><ele>7.666666666666666</ele><time>2026-05-05T15:39:58.565Z</time></trkpt><trkpt lat="38.0566667" lon="12.838975"><ele>7.833333333333333</ele><time>2026-05-05T15:39:59.566Z</time></trkpt><trkpt lat="38.05677" lon="12.838995"><ele>8.0</ele><time>2026-05-05T15:40:00.564Z</time></trkpt><trkpt lat="38.05688" lon="12.8390133"><ele>7.6000000000000005</ele><time>2026-05-05T15:40:01.565Z</time></trkpt><trkpt lat="38.0569883" lon="12.8390283"><ele>7.200000000000001</ele><time>2026-05-05T15:40:02.564Z</time></trkpt><trkpt lat="38.057095" lon="12.8390417"><ele>6.8</ele><time>2026-05-05T15:40:03.563Z</time></trkpt><trkpt lat="38.0572" lon="12.8390517"><ele>6.4</ele><time>2026-05-05T15:40:04.564Z</time></trkpt><trkpt lat="38.0573033" lon="12.8390467"><ele>6.0</ele><time>2026-05-05T15:40:05.565Z</time></trkpt><trkpt lat="38.057405" lon="12.8390217"><ele>5.3999999999999995</ele><time>2026-05-05T15:40:06.563Z</time></trkpt><trkpt lat="38.0575017" lon="12.8389717"><ele>4.8</ele><time>2026-05-05T15:40:07.566Z</time></trkpt><trkpt lat="38.0575883" lon="12.8388933"><ele>4.199999999999999</ele><time>2026-05-05T15:40:08.564Z</time></trkpt><trkpt lat="38.057665" lon="12.8387983"><ele>3.5999999999999996</ele><time>2026-05-05T15:40:09.564Z</time></trkpt><trkpt lat="38.057735" lon="12.8386917"><ele>3.0</ele><time>2026-05-05T15:40:10.564Z</time></trkpt><trkpt lat="38.0577967" lon="12.83858"><ele>4.4</ele><time>2026-05-05T15:40:11.564Z</time></trkpt><trkpt lat="38.0578417" lon="12.8384667"><ele>5.8</ele><time>2026-05-05T15:40:12.565Z</time></trkpt><trkpt lat="38.057855" lon="12.8383567"><ele>7.2</ele><time>2026-05-05T15:40:13.565Z</time></trkpt><trkpt lat="38.0578467" lon="12.83824"><ele>8.6</ele><time>2026-05-05T15:40:14.566Z</time></trkpt><trkpt lat="38.0577967" lon="12.8381317"><ele>10.0</ele><time>2026-05-05T15:40:15.564Z</time></trkpt><trkpt lat="38.0577267" lon="12.8380317"><ele>10.0</ele><time>2026-05-05T15:40:16.563Z</time></trkpt><trkpt lat="38.0576417" lon="12.83794"><ele>10.0</ele><time>2026-05-05T15:40:17.563Z</time></trkpt><trkpt lat="38.0575517" lon="12.8378533"><ele>10.0</ele><time>2026-05-05T15:40:18.564Z</time></trkpt><trkpt lat="38.0574533" lon="12.837775"><ele>10.0</ele><time>2026-05-05T15:40:19.565Z</time></trkpt><trkpt lat="38.0573433" lon="12.837705"><ele>10.75</ele><time>2026-05-05T15:40:20.563Z</time></trkpt><trkpt lat="38.0572283" lon="12.8376367"><ele>11.5</ele><time>2026-05-05T15:40:21.563Z</time></trkpt><trkpt lat="38.05711" lon="12.83757"><ele>12.25</ele><time>2026-05-05T15:40:22.564Z</time></trkpt><trkpt lat="38.0569917" lon="12.8375"><ele>13.0</ele><time>2026-05-05T15:40:23.565Z</time></trkpt><trkpt lat="38.05688" lon="12.8374267"><ele>13.0</ele><time>2026-05-05T15:40:24.564Z</time></trkpt><trkpt lat="38.05678" lon="12.8373467"><ele>13.0</ele><time>2026-05-05T15:40:25.565Z</time></trkpt><trkpt lat="38.0567083" lon="12.83725"><ele>13.0</ele><time>2026-05-05T15:40:26.563Z</time></trkpt><trkpt lat="38.0566633" lon="12.83714"><ele>13.0</ele><time>2026-05-05T15:40:27.564Z</time></trkpt><trkpt lat="38.05664" lon="12.837015"><ele>13.0</ele><time>2026-05-05T15:40:28.564Z</time></trkpt><trkpt lat="38.0566283" lon="12.8368767"><ele>12.5</ele><time>2026-05-05T15:40:29.569Z</time></trkpt><trkpt lat="38.0566183" lon="12.8367283"><ele>12.0</ele><time>2026-05-05T15:40:30.565Z</time></trkpt><trkpt lat="38.056605" lon="12.836575"><ele>11.5</ele><time>2026-05-05T15:40:31.564Z</time></trkpt><trkpt lat="38.0565733" lon="12.8364267"><ele>11.0</ele><time>2026-05-05T15:40:32.564Z</time></trkpt><trkpt lat="38.0565217" lon="12.8362867"><ele>11.0</ele><time>2026-05-05T15:40:33.565Z</time></trkpt><trkpt lat="38.0564583" lon="12.8361583"><ele>11.0</ele><time>2026-05-05T15:40:34.563Z</time></trkpt><trkpt lat="38.0563817" lon="12.8360533"><ele>11.0</ele><time>2026-05-05T15:40:35.563Z</time></trkpt><trkpt lat="38.0563183" lon="12.835965"><ele>11.0</ele><time>2026-05-05T15:40:36.565Z</time></trkpt><trkpt lat="38.05627" lon="12.8358783"><ele>11.0</ele><time>2026-05-05T15:40:37.566Z</time></trkpt><trkpt lat="38.056255" lon="12.8357967"><ele>12.0</ele><time>2026-05-05T15:40:38.565Z</time></trkpt><trkpt lat="38.0563333" lon="12.8357"><ele>13.0</ele><time>2026-05-05T15:40:40.564Z</time></trkpt><trkpt lat="38.0564617" lon="12.8357283"><ele>14.000000000000002</ele><time>2026-05-05T15:40:42.564Z</time></trkpt><trkpt lat="38.0565333" lon="12.8358033"><ele>15.0</ele><time>2026-05-05T15:40:43.564Z</time></trkpt><trkpt lat="38.0566117" lon="12.8359033"><ele>16.0</ele><time>2026-05-05T15:40:44.564Z</time></trkpt><trkpt lat="38.056685" lon="12.836005"><ele>17.5</ele><time>2026-05-05T15:40:45.563Z</time></trkpt><trkpt lat="38.05675" lon="12.8361267"><ele>19.0</ele><time>2026-05-05T15:40:46.564Z</time></trkpt><trkpt lat="38.0568067" lon="12.8362667"><ele>20.5</ele><time>2026-05-05T15:40:47.564Z</time></trkpt><trkpt lat="38.0568633" lon="12.8364033"><ele>22.0</ele><time>2026-05-05T15:40:48.564Z</time></trkpt><trkpt lat="38.0569183" lon="12.8365183"><ele>22.0</ele><time>2026-05-05T15:40:49.564Z</time></trkpt><trkpt lat="38.056985" lon="12.8365983"><ele>22.0</ele><time>2026-05-05T15:40:50.565Z</time></trkpt><trkpt lat="38.0570533" lon="12.83664"><ele>22.0</ele><time>2026-05-05T15:40:51.564Z</time></trkpt><trkpt lat="38.05715" lon="12.83654"><ele>22.0</ele><time>2026-05-05T15:40:53.564Z</time></trkpt><trkpt lat="38.0571683" lon="12.8364483"><ele>22.0</ele><time>2026-05-05T15:40:54.563Z</time></trkpt><trkpt lat="38.0571567" lon="12.8363367"><ele>22.0</ele><time>2026-05-05T15:40:55.565Z</time></trkpt><trkpt lat="38.0571233" lon="12.836215"><ele>22.0</ele><time>2026-05-05T15:40:56.565Z</time></trkpt><trkpt lat="38.057075" lon="12.8360783"><ele>22.0</ele><time>2026-05-05T15:40:57.563Z</time></trkpt><trkpt lat="38.0570283" lon="12.8359333"><ele>22.0</ele><time>2026-05-05T15:40:58.564Z</time></trkpt><trkpt lat="38.0569917" lon="12.8357817"><ele>25.0</ele><time>2026-05-05T15:40:59.563Z</time></trkpt><trkpt lat="38.0569533" lon="12.8356233"><ele>28.0</ele><time>2026-05-05T15:41:00.564Z</time></trkpt><trkpt lat="38.056905" lon="12.8354667"><ele>31.0</ele><time>2026-05-05T15:41:01.565Z</time></trkpt><trkpt lat="38.0568467" lon="12.8353167"><ele>34.0</ele><time>2026-05-05T15:41:02.564Z</time></trkpt><trkpt lat="38.056775" lon="12.8351767"><ele>33.0</ele><time>2026-05-05T15:41:03.564Z</time></trkpt><trkpt lat="38.0567083" lon="12.8350483"><ele>32.0</ele><time>2026-05-05T15:41:04.564Z</time></trkpt><trkpt lat="38.0566483" lon="12.8349333"><ele>31.0</ele><time>2026-05-05T15:41:05.564Z</time></trkpt><trkpt lat="38.056595" lon="12.834825"><ele>30.0</ele><time>2026-05-05T15:41:06.564Z</time></trkpt><trkpt lat="38.0565517" lon="12.8347317"><ele>29.0</ele><time>2026-05-05T15:41:07.566Z</time></trkpt><trkpt lat="38.0565183" lon="12.8346567"><ele>28.999999999999996</ele><time>2026-05-05T15:41:08.565Z</time></trkpt><trkpt lat="38.0564467" lon="12.8345333"><ele>29.0</ele><time>2026-05-05T15:41:10.566Z</time></trkpt><trkpt lat="38.0564067" lon="12.8344633"><ele>29.0</ele><time>2026-05-05T15:41:11.567Z</time></trkpt><trkpt lat="38.0563583" lon="12.8343883"><ele>29.0</ele><time>2026-05-05T15:41:12.564Z</time></trkpt><trkpt lat="38.056305" lon="12.8343067"><ele>28.999999999999996</ele><time>2026-05-05T15:41:13.565Z</time></trkpt><trkpt lat="38.0562483" lon="12.8342167"><ele>29.0</ele><time>2026-05-05T15:41:14.564Z</time></trkpt><trkpt lat="38.0561867" lon="12.83412"><ele>32.0</ele><time>2026-05-05T15:41:15.564Z</time></trkpt><trkpt lat="38.0561183" lon="12.8340167"><ele>35.0</ele><time>2026-05-05T15:41:16.564Z</time></trkpt><trkpt lat="38.0560417" lon="12.8339117"><ele>38.0</ele><time>2026-05-05T15:41:17.564Z</time></trkpt><trkpt lat="38.0559667" lon="12.8338017"><ele>41.0</ele><time>2026-05-05T15:41:18.564Z</time></trkpt><trkpt lat="38.0558883" lon="12.8336867"><ele>41.0</ele><time>2026-05-05T15:41:19.565Z</time></trkpt><trkpt lat="38.05581" lon="12.83357"><ele>41.0</ele><time>2026-05-05T15:41:20.565Z</time></trkpt><trkpt lat="38.0557317" lon="12.83345"><ele>41.0</ele><time>2026-05-05T15:41:21.564Z</time></trkpt><trkpt lat="38.05565" lon="12.8333283"><ele>41.0</ele><time>2026-05-05T15:41:22.563Z</time></trkpt><trkpt lat="38.0555683" lon="12.833205"><ele>41.75</ele><time>2026-05-05T15:41:23.564Z</time></trkpt><trkpt lat="38.05549" lon="12.8330817"><ele>42.5</ele><time>2026-05-05T15:41:24.564Z</time></trkpt><trkpt lat="38.05541" lon="12.832955"><ele>43.25</ele><time>2026-05-05T15:41:25.564Z</time></trkpt><trkpt lat="38.05533" lon="12.83283"><ele>44.0</ele><time>2026-05-05T15:41:26.564Z</time></trkpt><trkpt lat="38.0552483" lon="12.8327033"><ele>44.75</ele><time>2026-05-05T15:41:27.564Z</time></trkpt><trkpt lat="38.0551633" lon="12.832575"><ele>45.5</ele><time>2026-05-05T15:41:28.565Z</time></trkpt><trkpt lat="38.0550767" lon="12.832445"><ele>46.25</ele><time>2026-05-05T15:41:29.563Z</time></trkpt><trkpt lat="38.0549917" lon="12.8323133"><ele>47.0</ele><time>2026-05-05T15:41:30.564Z</time></trkpt><trkpt lat="38.0549067" lon="12.8321817"><ele>47.0</ele><time>2026-05-05T15:41:31.564Z</time></trkpt><trkpt lat="38.0548183" lon="12.8320533"><ele>47.0</ele><time>2026-05-05T15:41:32.564Z</time></trkpt><trkpt lat="38.0547283" lon="12.8319183"><ele>47.0</ele><time>2026-05-05T15:41:33.564Z</time></trkpt><trkpt lat="38.0546383" lon="12.8317817"><ele>47.0</ele><time>2026-05-05T15:41:34.565Z</time></trkpt><trkpt lat="38.05455" lon="12.8316383"><ele>47.5</ele><time>2026-05-05T15:41:35.562Z</time></trkpt><trkpt lat="38.0544583" lon="12.8314967"><ele>48.0</ele><time>2026-05-05T15:41:36.563Z</time></trkpt><trkpt lat="38.0543633" lon="12.8313567"><ele>48.5</ele><time>2026-05-05T15:41:37.564Z</time></trkpt><trkpt lat="38.05427" lon="12.8312133"><ele>49.0</ele><time>2026-05-05T15:41:38.564Z</time></trkpt><trkpt lat="38.0541733" lon="12.8310683"><ele>49.0</ele><time>2026-05-05T15:41:39.563Z</time></trkpt><trkpt lat="38.0540783" lon="12.8309183"><ele>49.0</ele><time>2026-05-05T15:41:40.563Z</time></trkpt><trkpt lat="38.05398" lon="12.8307667"><ele>49.0</ele><time>2026-05-05T15:41:41.565Z</time></trkpt><trkpt lat="38.05388" lon="12.8306117"><ele>49.0</ele><time>2026-05-05T15:41:42.565Z</time></trkpt><trkpt lat="38.0537783" lon="12.8304567"><ele>49.0</ele><time>2026-05-05T15:41:43.566Z</time></trkpt><trkpt lat="38.0536717" lon="12.8302983"><ele>49.0</ele><time>2026-05-05T15:41:44.566Z</time></trkpt><trkpt lat="38.0535633" lon="12.8301367"><ele>49.0</ele><time>2026-05-05T15:41:45.564Z</time></trkpt><trkpt lat="38.0534533" lon="12.8299717"><ele>49.0</ele><time>2026-05-05T15:41:46.563Z</time></trkpt><trkpt lat="38.0533433" lon="12.8298067"><ele>49.0</ele><time>2026-05-05T15:41:47.564Z</time></trkpt><trkpt lat="38.05323" lon="12.8296433"><ele>49.0</ele><time>2026-05-05T15:41:48.564Z</time></trkpt><trkpt lat="38.053115" lon="12.8294767"><ele>49.0</ele><time>2026-05-05T15:41:49.564Z</time></trkpt><trkpt lat="38.0529967" lon="12.82931"><ele>49.0</ele><time>2026-05-05T15:41:50.564Z</time></trkpt><trkpt lat="38.05288" lon="12.829145"><ele>49.666666666666664</ele><time>2026-05-05T15:41:51.564Z</time></trkpt><trkpt lat="38.0527633" lon="12.82898"><ele>50.33333333333333</ele><time>2026-05-05T15:41:52.563Z</time></trkpt><trkpt lat="38.0526483" lon="12.82882"><ele>51.0</ele><time>2026-05-05T15:41:53.565Z</time></trkpt><trkpt lat="38.0525417" lon="12.8286717"><ele>50.75</ele><time>2026-05-05T15:41:54.565Z</time></trkpt><trkpt lat="38.0524417" lon="12.828535"><ele>50.5</ele><time>2026-05-05T15:41:55.564Z</time></trkpt><trkpt lat="38.0523483" lon="12.82841"><ele>50.25</ele><time>2026-05-05T15:41:56.564Z</time></trkpt><trkpt lat="38.052255" lon="12.8283033"><ele>50.0</ele><time>2026-05-05T15:41:57.564Z</time></trkpt><trkpt lat="38.0521533" lon="12.8282183"><ele>50.0</ele><time>2026-05-05T15:41:58.562Z</time></trkpt><trkpt lat="38.0520433" lon="12.82815"><ele>50.0</ele><time>2026-05-05T15:41:59.564Z</time></trkpt><trkpt lat="38.05192" lon="12.8280933"><ele>50.0</ele><time>2026-05-05T15:42:00.564Z</time></trkpt><trkpt lat="38.0517917" lon="12.8280383"><ele>50.0</ele><time>2026-05-05T15:42:01.564Z</time></trkpt><trkpt lat="38.0516617" lon="12.827985"><ele>50.0</ele><time>2026-05-05T15:42:02.565Z</time></trkpt><trkpt lat="38.0515283" lon="12.8279267"><ele>50.0</ele><time>2026-05-05T15:42:03.563Z</time></trkpt><trkpt lat="38.0513883" lon="12.827865"><ele>50.0</ele><time>2026-05-05T15:42:04.564Z</time></trkpt><trkpt lat="38.0512433" lon="12.8278067"><ele>50.0</ele><time>2026-05-05T15:42:05.564Z</time></trkpt><trkpt lat="38.051095" lon="12.8277483"><ele>50.0</ele><time>2026-05-05T15:42:06.563Z</time></trkpt><trkpt lat="38.0509467" lon="12.82769"><ele>50.0</ele><time>2026-05-05T15:42:07.564Z</time></trkpt><trkpt lat="38.050795" lon="12.827625"><ele>50.0</ele><time>2026-05-05T15:42:08.565Z</time></trkpt><trkpt lat="38.050645" lon="12.8275583"><ele>56.66666666666667</ele><time>2026-05-05T15:42:09.564Z</time></trkpt><trkpt lat="38.0504917" lon="12.8274917"><ele>63.33333333333333</ele><time>2026-05-05T15:42:10.565Z</time></trkpt><trkpt lat="38.0503367" lon="12.827425"><ele>70.0</ele><time>2026-05-05T15:42:11.564Z</time></trkpt><trkpt lat="38.0501817" lon="12.8273533"><ele>70.0</ele><time>2026-05-05T15:42:12.562Z</time></trkpt><trkpt lat="38.05003" lon="12.8272817"><ele>70.0</ele><time>2026-05-05T15:42:13.564Z</time></trkpt><trkpt lat="38.0498783" lon="12.82721"><ele>70.0</ele><time>2026-05-05T15:42:14.565Z</time></trkpt><trkpt lat="38.0497267" lon="12.8271367"><ele>70.0</ele><time>2026-05-05T15:42:15.564Z</time></trkpt><trkpt lat="38.0495767" lon="12.8270633"><ele>70.0</ele><time>2026-05-05T15:42:16.565Z</time></trkpt><trkpt lat="38.0494267" lon="12.8269883"><ele>70.0</ele><time>2026-05-05T15:42:17.563Z</time></trkpt><trkpt lat="38.049275" lon="12.8269117"><ele>68.33333333333333</ele><time>2026-05-05T15:42:18.564Z</time></trkpt><trkpt lat="38.0491217" lon="12.8268367"><ele>66.66666666666667</ele><time>2026-05-05T15:42:19.564Z</time></trkpt><trkpt lat="38.048965" lon="12.8267617"><ele>65.0</ele><time>2026-05-05T15:42:20.565Z</time></trkpt><trkpt lat="38.0488083" lon="12.8266883"><ele>69.66666666666667</ele><time>2026-05-05T15:42:21.564Z</time></trkpt><trkpt lat="38.0486583" lon="12.826615"><ele>74.33333333333333</ele><time>2026-05-05T15:42:22.564Z</time></trkpt><trkpt lat="38.0485183" lon="12.8265433"><ele>79.0</ele><time>2026-05-05T15:42:23.563Z</time></trkpt><trkpt lat="38.04839" lon="12.82647"><ele>79.0</ele><time>2026-05-05T15:42:24.562Z</time></trkpt><trkpt lat="38.0482933" lon="12.826385"><ele>79.0</ele><time>2026-05-05T15:42:25.564Z</time></trkpt><trkpt lat="38.048205" lon="12.82628"><ele>79.0</ele><time>2026-05-05T15:42:26.564Z</time></trkpt><trkpt lat="38.0481167" lon="12.8261583"><ele>79.0</ele><time>2026-05-05T15:42:27.564Z</time></trkpt><trkpt lat="38.0480267" lon="12.8260333"><ele>80.0</ele><time>2026-05-05T15:42:28.564Z</time></trkpt><trkpt lat="38.0479317" lon="12.8258983"><ele>81.0</ele><time>2026-05-05T15:42:29.563Z</time></trkpt><trkpt lat="38.0478333" lon="12.82576"><ele>82.0</ele><time>2026-05-05T15:42:30.564Z</time></trkpt><trkpt lat="38.0477383" lon="12.825615"><ele>83.0</ele><time>2026-05-05T15:42:31.564Z</time></trkpt><trkpt lat="38.04764" lon="12.8254717"><ele>83.0</ele><time>2026-05-05T15:42:32.564Z</time></trkpt><trkpt lat="38.0475417" lon="12.8253317"><ele>83.0</ele><time>2026-05-05T15:42:33.564Z</time></trkpt><trkpt lat="38.0474433" lon="12.8251883"><ele>83.0</ele><time>2026-05-05T15:42:34.565Z</time></trkpt><trkpt lat="38.047345" lon="12.8250433"><ele>83.0</ele><time>2026-05-05T15:42:35.564Z</time></trkpt><trkpt lat="38.0472467" lon="12.8248967"><ele>82.33333333333334</ele><time>2026-05-05T15:42:36.564Z</time></trkpt><trkpt lat="38.0471467" lon="12.8247467"><ele>81.66666666666667</ele><time>2026-05-05T15:42:37.564Z</time></trkpt><trkpt lat="38.04705" lon="12.824595"><ele>81.0</ele><time>2026-05-05T15:42:38.564Z</time></trkpt><trkpt lat="38.0469517" lon="12.824445"><ele>83.33333333333333</ele><time>2026-05-05T15:42:39.565Z</time></trkpt><trkpt lat="38.0468517" lon="12.82429"><ele>85.66666666666666</ele><time>2026-05-05T15:42:40.564Z</time></trkpt><trkpt lat="38.04675" lon="12.824135"><ele>88.0</ele><time>2026-05-05T15:42:41.564Z</time></trkpt><trkpt lat="38.0466467" lon="12.8239833"><ele>84.33333333333333</ele><time>2026-05-05T15:42:42.565Z</time></trkpt><trkpt lat="38.04654" lon="12.82383"><ele>80.66666666666667</ele><time>2026-05-05T15:42:43.564Z</time></trkpt><trkpt lat="38.0464317" lon="12.82368"><ele>77.0</ele><time>2026-05-05T15:42:44.564Z</time></trkpt><trkpt lat="38.0463217" lon="12.8235333"><ele>80.0</ele><time>2026-05-05T15:42:45.563Z</time></trkpt><trkpt lat="38.04621" lon="12.8233867"><ele>83.0</ele><time>2026-05-05T15:42:46.564Z</time></trkpt><trkpt lat="38.0460967" lon="12.82324"><ele>86.0</ele><time>2026-05-05T15:42:47.563Z</time></trkpt><trkpt lat="38.04598" lon="12.8230933"><ele>86.0</ele><time>2026-05-05T15:42:48.564Z</time></trkpt><trkpt lat="38.0458667" lon="12.82295"><ele>86.0</ele><time>2026-05-05T15:42:49.564Z</time></trkpt><trkpt lat="38.0457583" lon="12.8228067"><ele>86.0</ele><time>2026-05-05T15:42:50.563Z</time></trkpt><trkpt lat="38.0456533" lon="12.8226617"><ele>85.66666666666667</ele><time>2026-05-05T15:42:51.565Z</time></trkpt><trkpt lat="38.04555" lon="12.8225167"><ele>85.33333333333333</ele><time>2026-05-05T15:42:52.562Z</time></trkpt><trkpt lat="38.045455" lon="12.8223683"><ele>85.0</ele><time>2026-05-05T15:42:53.565Z</time></trkpt><trkpt lat="38.0453667" lon="12.8222133"><ele>85.0</ele><time>2026-05-05T15:42:54.564Z</time></trkpt><trkpt lat="38.04528" lon="12.822055"><ele>85.0</ele><time>2026-05-05T15:42:55.564Z</time></trkpt><trkpt lat="38.045185" lon="12.8219067"><ele>85.0</ele><time>2026-05-05T15:42:56.566Z</time></trkpt><trkpt lat="38.0450817" lon="12.8217717"><ele>85.33333333333333</ele><time>2026-05-05T15:42:57.563Z</time></trkpt><trkpt lat="38.0449717" lon="12.8216433"><ele>85.66666666666667</ele><time>2026-05-05T15:42:58.564Z</time></trkpt><trkpt lat="38.0448583" lon="12.8215167"><ele>86.0</ele><time>2026-05-05T15:42:59.563Z</time></trkpt><trkpt lat="38.0447483" lon="12.8213783"><ele>86.0</ele><time>2026-05-05T15:43:00.564Z</time></trkpt><trkpt lat="38.0446433" lon="12.8212367"><ele>86.0</ele><time>2026-05-05T15:43:01.564Z</time></trkpt><trkpt lat="38.0445417" lon="12.8210983"><ele>86.0</ele><time>2026-05-05T15:43:02.564Z</time></trkpt><trkpt lat="38.044445" lon="12.8209683"><ele>86.0</ele><time>2026-05-05T15:43:03.564Z</time></trkpt><trkpt lat="38.0443533" lon="12.82085"><ele>86.6</ele><time>2026-05-05T15:43:04.564Z</time></trkpt><trkpt lat="38.0442733" lon="12.8207383"><ele>87.19999999999999</ele><time>2026-05-05T15:43:05.564Z</time></trkpt><trkpt lat="38.0442117" lon="12.8206317"><ele>87.80000000000001</ele><time>2026-05-05T15:43:06.564Z</time></trkpt><trkpt lat="38.044165" lon="12.8205283"><ele>88.4</ele><time>2026-05-05T15:43:07.564Z</time></trkpt><trkpt lat="38.0441267" lon="12.8204233"><ele>89.0</ele><time>2026-05-05T15:43:08.565Z</time></trkpt><trkpt lat="38.04409" lon="12.8203233"><ele>89.0</ele><time>2026-05-05T15:43:09.564Z</time></trkpt><trkpt lat="38.0440567" lon="12.8202317"><ele>89.0</ele><time>2026-05-05T15:43:10.562Z</time></trkpt><trkpt lat="38.044025" lon="12.820145"><ele>89.0</ele><time>2026-05-05T15:43:11.564Z</time></trkpt><trkpt lat="38.0439917" lon="12.8200633"><ele>89.0</ele><time>2026-05-05T15:43:12.564Z</time></trkpt><trkpt lat="38.0439617" lon="12.8199917"><ele>89.0</ele><time>2026-05-05T15:43:13.563Z</time></trkpt><trkpt lat="38.043945" lon="12.8198783"><ele>89.0</ele><time>2026-05-05T15:43:15.564Z</time></trkpt><trkpt lat="38.0440033" lon="12.8198133"><ele>92.80000000000001</ele><time>2026-05-05T15:43:17.563Z</time></trkpt><trkpt lat="38.044085" lon="12.8197667"><ele>96.60000000000001</ele><time>2026-05-05T15:43:19.563Z</time></trkpt><trkpt lat="38.044165" lon="12.8197217"><ele>100.4</ele><time>2026-05-05T15:43:21.563Z</time></trkpt><trkpt lat="38.04425" lon="12.819655"><ele>104.2</ele><time>2026-05-05T15:43:23.564Z</time></trkpt><trkpt lat="38.0443417" lon="12.8195733"><ele>108.0</ele><time>2026-05-05T15:43:25.564Z</time></trkpt><trkpt lat="38.04444" lon="12.81949"><ele>109.80000000000001</ele><time>2026-05-05T15:43:27.563Z</time></trkpt><trkpt lat="38.0445383" lon="12.819415"><ele>111.60000000000001</ele><time>2026-05-05T15:43:29.564Z</time></trkpt><trkpt lat="38.04463" lon="12.819335"><ele>113.39999999999999</ele><time>2026-05-05T15:43:31.565Z</time></trkpt><trkpt lat="38.044715" lon="12.819265"><ele>115.19999999999999</ele><time>2026-05-05T15:43:33.565Z</time></trkpt><trkpt lat="38.0447867" lon="12.8191967"><ele>117.0</ele><time>2026-05-05T15:43:35.563Z</time></trkpt><trkpt lat="38.0448367" lon="12.8191467"><ele>124.0</ele><time>2026-05-05T15:43:37.565Z</time></trkpt><trkpt lat="38.0448883" lon="12.8190883"><ele>124.0</ele><time>2026-05-05T15:43:39.563Z</time></trkpt><trkpt lat="38.0449217" lon="12.818985"><ele>124.0</ele><time>2026-05-05T15:43:42.564Z</time></trkpt></trkseg></trk></gpx>